<?xml version="1.0" encoding="UTF-8" standalone="no" ?>
<gpx xmlns="http://www.topografix.com/GPX/1/1" xmlns:xsi="http://www.w3.org/2001/XMLSchema-instance" xsi:schemaLocation="http://www.topografix.com/GPX/1/1 http://www.topografix.com/GPX/1/1/gpx.xsd" version="1.1" creator="VisuGPX - https://www.visugpx.com">
  <metadata>
    <name>Dolomites Jour 9</name>
    <desc><![CDATA[De Chur à Domodossola. Tiroliennes a volontée ]]></desc>
  </metadata>
  <trk>
    <name><![CDATA[Jour 9 - 04/08/2012]]></name>
    <trkseg>
      <trkpt lat="46.84769" lon="9.52735">
        <ele>575.49</ele>
        <time>2012-08-04T06:28:04Z</time>
      </trkpt>
      <trkpt lat="46.84764" lon="9.52746">
        <ele>575.01</ele>
        <time>2012-08-04T06:28:26Z</time>
      </trkpt>
      <trkpt lat="46.84761" lon="9.5275">
        <ele>575.49</ele>
        <time>2012-08-04T06:28:50Z</time>
      </trkpt>
      <trkpt lat="46.84758" lon="9.52753">
        <ele>575.49</ele>
        <time>2012-08-04T06:29:16Z</time>
      </trkpt>
      <trkpt lat="46.84758" lon="9.52752">
        <ele>575.01</ele>
        <time>2012-08-04T06:29:35Z</time>
      </trkpt>
      <trkpt lat="46.84758" lon="9.52756">
        <ele>575.49</ele>
        <time>2012-08-04T06:30:01Z</time>
      </trkpt>
      <trkpt lat="46.84827" lon="9.52716">
        <ele>570.68</ele>
        <time>2012-08-04T06:50:41Z</time>
      </trkpt>
      <trkpt lat="46.84829" lon="9.52719">
        <ele>569.24</ele>
        <time>2012-08-04T06:50:42Z</time>
      </trkpt>
      <trkpt lat="46.84821" lon="9.52734">
        <ele>572.6</ele>
        <time>2012-08-04T06:51:02Z</time>
      </trkpt>
      <trkpt lat="46.84817" lon="9.52734">
        <ele>576.45</ele>
        <time>2012-08-04T06:51:03Z</time>
      </trkpt>
      <trkpt lat="46.84806" lon="9.52732">
        <ele>581.25</ele>
        <time>2012-08-04T06:51:06Z</time>
      </trkpt>
      <trkpt lat="46.84802" lon="9.52732">
        <ele>584.14</ele>
        <time>2012-08-04T06:51:08Z</time>
      </trkpt>
      <trkpt lat="46.84798" lon="9.52731">
        <ele>588.46</ele>
        <time>2012-08-04T06:51:11Z</time>
      </trkpt>
      <trkpt lat="46.84796" lon="9.52731">
        <ele>591.83</ele>
        <time>2012-08-04T06:51:14Z</time>
      </trkpt>
      <trkpt lat="46.84794" lon="9.52731">
        <ele>595.19</ele>
        <time>2012-08-04T06:51:17Z</time>
      </trkpt>
      <trkpt lat="46.84793" lon="9.52731">
        <ele>598.56</ele>
        <time>2012-08-04T06:51:21Z</time>
      </trkpt>
      <trkpt lat="46.84793" lon="9.52732">
        <ele>602.4</ele>
        <time>2012-08-04T06:51:26Z</time>
      </trkpt>
      <trkpt lat="46.84793" lon="9.52732">
        <ele>605.77</ele>
        <time>2012-08-04T06:51:32Z</time>
      </trkpt>
      <trkpt lat="46.84793" lon="9.52732">
        <ele>605.77</ele>
        <time>2012-08-04T06:51:33Z</time>
      </trkpt>
      <trkpt lat="46.84793" lon="9.52731">
        <ele>601.44</ele>
        <time>2012-08-04T06:51:35Z</time>
      </trkpt>
      <trkpt lat="46.84792" lon="9.52732">
        <ele>606.25</ele>
        <time>2012-08-04T06:51:36Z</time>
      </trkpt>
      <trkpt lat="46.84791" lon="9.52733">
        <ele>607.69</ele>
        <time>2012-08-04T06:51:38Z</time>
      </trkpt>
      <trkpt lat="46.84789" lon="9.52735">
        <ele>610.09</ele>
        <time>2012-08-04T06:51:45Z</time>
      </trkpt>
      <trkpt lat="46.84785" lon="9.52736">
        <ele>613.94</ele>
        <time>2012-08-04T06:51:58Z</time>
      </trkpt>
      <trkpt lat="46.84782" lon="9.52737">
        <ele>615.38</ele>
        <time>2012-08-04T06:52:21Z</time>
      </trkpt>
      <trkpt lat="46.84784" lon="9.52739">
        <ele>617.3</ele>
        <time>2012-08-04T06:52:32Z</time>
      </trkpt>
      <trkpt lat="46.84784" lon="9.52739">
        <ele>614.42</ele>
        <time>2012-08-04T06:52:57Z</time>
      </trkpt>
      <trkpt lat="46.84784" lon="9.52742">
        <ele>614.9</ele>
        <time>2012-08-04T06:53:16Z</time>
      </trkpt>
      <trkpt lat="46.84784" lon="9.52742">
        <ele>614.9</ele>
        <time>2012-08-04T06:53:40Z</time>
      </trkpt>
      <trkpt lat="46.84785" lon="9.5274">
        <ele>614.9</ele>
        <time>2012-08-04T06:54:10Z</time>
      </trkpt>
      <trkpt lat="46.84784" lon="9.52738">
        <ele>614.9</ele>
        <time>2012-08-04T06:54:39Z</time>
      </trkpt>
      <trkpt lat="46.84783" lon="9.52738">
        <ele>614.9</ele>
        <time>2012-08-04T06:54:59Z</time>
      </trkpt>
      <trkpt lat="46.84783" lon="9.52738">
        <ele>613.94</ele>
        <time>2012-08-04T06:55:18Z</time>
      </trkpt>
      <trkpt lat="46.84782" lon="9.52739">
        <ele>614.9</ele>
        <time>2012-08-04T06:55:39Z</time>
      </trkpt>
      <trkpt lat="46.84782" lon="9.52739">
        <ele>610.57</ele>
        <time>2012-08-04T06:55:49Z</time>
      </trkpt>
      <trkpt lat="46.84782" lon="9.52739">
        <ele>613.46</ele>
        <time>2012-08-04T06:55:51Z</time>
      </trkpt>
      <trkpt lat="46.84782" lon="9.52739">
        <ele>614.9</ele>
        <time>2012-08-04T06:56:16Z</time>
      </trkpt>
      <trkpt lat="46.84782" lon="9.5274">
        <ele>611.06</ele>
        <time>2012-08-04T06:56:28Z</time>
      </trkpt>
      <trkpt lat="46.84782" lon="9.5274">
        <ele>615.86</ele>
        <time>2012-08-04T06:56:31Z</time>
      </trkpt>
      <trkpt lat="46.84783" lon="9.5274">
        <ele>612.5</ele>
        <time>2012-08-04T06:56:37Z</time>
      </trkpt>
      <trkpt lat="46.84784" lon="9.52739">
        <ele>613.46</ele>
        <time>2012-08-04T06:56:51Z</time>
      </trkpt>
      <trkpt lat="46.84779" lon="9.5274">
        <ele>613.94</ele>
        <time>2012-08-04T06:57:00Z</time>
      </trkpt>
      <trkpt lat="46.84778" lon="9.52748">
        <ele>613.94</ele>
        <time>2012-08-04T06:57:02Z</time>
      </trkpt>
      <trkpt lat="46.84778" lon="9.52754">
        <ele>613.94</ele>
        <time>2012-08-04T06:57:03Z</time>
      </trkpt>
      <trkpt lat="46.84779" lon="9.52778">
        <ele>609.61</ele>
        <time>2012-08-04T06:57:06Z</time>
      </trkpt>
      <trkpt lat="46.84779" lon="9.52787">
        <ele>614.42</ele>
        <time>2012-08-04T06:57:07Z</time>
      </trkpt>
      <trkpt lat="46.84772" lon="9.52904">
        <ele>614.9</ele>
        <time>2012-08-04T06:57:19Z</time>
      </trkpt>
      <trkpt lat="46.84771" lon="9.52911">
        <ele>614.9</ele>
        <time>2012-08-04T06:57:20Z</time>
      </trkpt>
      <trkpt lat="46.84771" lon="9.52916">
        <ele>615.38</ele>
        <time>2012-08-04T06:57:21Z</time>
      </trkpt>
      <trkpt lat="46.84772" lon="9.52919">
        <ele>615.38</ele>
        <time>2012-08-04T06:57:22Z</time>
      </trkpt>
      <trkpt lat="46.84771" lon="9.52935">
        <ele>615.38</ele>
        <time>2012-08-04T06:57:32Z</time>
      </trkpt>
      <trkpt lat="46.84779" lon="9.52956">
        <ele>615.86</ele>
        <time>2012-08-04T06:57:36Z</time>
      </trkpt>
      <trkpt lat="46.84783" lon="9.52958">
        <ele>616.34</ele>
        <time>2012-08-04T06:57:37Z</time>
      </trkpt>
      <trkpt lat="46.84786" lon="9.52959">
        <ele>615.86</ele>
        <time>2012-08-04T06:57:38Z</time>
      </trkpt>
      <trkpt lat="46.84789" lon="9.52959">
        <ele>616.34</ele>
        <time>2012-08-04T06:57:39Z</time>
      </trkpt>
      <trkpt lat="46.84793" lon="9.52957">
        <ele>616.34</ele>
        <time>2012-08-04T06:57:40Z</time>
      </trkpt>
      <trkpt lat="46.84797" lon="9.52954">
        <ele>616.34</ele>
        <time>2012-08-04T06:57:41Z</time>
      </trkpt>
      <trkpt lat="46.84805" lon="9.52946">
        <ele>616.34</ele>
        <time>2012-08-04T06:57:49Z</time>
      </trkpt>
      <trkpt lat="46.84808" lon="9.52944">
        <ele>615.86</ele>
        <time>2012-08-04T06:58:10Z</time>
      </trkpt>
      <trkpt lat="46.84807" lon="9.52944">
        <ele>615.38</ele>
        <time>2012-08-04T06:58:31Z</time>
      </trkpt>
      <trkpt lat="46.84807" lon="9.52944">
        <ele>616.34</ele>
        <time>2012-08-04T06:58:51Z</time>
      </trkpt>
      <trkpt lat="46.84807" lon="9.52945">
        <ele>615.86</ele>
        <time>2012-08-04T06:59:12Z</time>
      </trkpt>
      <trkpt lat="46.84807" lon="9.52945">
        <ele>615.86</ele>
        <time>2012-08-04T06:59:38Z</time>
      </trkpt>
      <trkpt lat="46.84807" lon="9.52944">
        <ele>615.38</ele>
        <time>2012-08-04T06:59:59Z</time>
      </trkpt>
      <trkpt lat="46.84807" lon="9.52943">
        <ele>615.86</ele>
        <time>2012-08-04T07:00:23Z</time>
      </trkpt>
      <trkpt lat="46.84806" lon="9.52942">
        <ele>615.38</ele>
        <time>2012-08-04T07:00:49Z</time>
      </trkpt>
      <trkpt lat="46.84806" lon="9.52942">
        <ele>615.38</ele>
        <time>2012-08-04T07:01:14Z</time>
      </trkpt>
      <trkpt lat="46.84804" lon="9.52941">
        <ele>615.38</ele>
        <time>2012-08-04T07:01:37Z</time>
      </trkpt>
      <trkpt lat="46.84803" lon="9.52939">
        <ele>615.86</ele>
        <time>2012-08-04T07:01:46Z</time>
      </trkpt>
      <trkpt lat="46.84804" lon="9.52936">
        <ele>615.86</ele>
        <time>2012-08-04T07:01:47Z</time>
      </trkpt>
      <trkpt lat="46.84814" lon="9.52928">
        <ele>615.86</ele>
        <time>2012-08-04T07:01:50Z</time>
      </trkpt>
      <trkpt lat="46.84858" lon="9.52923">
        <ele>615.86</ele>
        <time>2012-08-04T07:01:55Z</time>
      </trkpt>
      <trkpt lat="46.84864" lon="9.52923">
        <ele>615.38</ele>
        <time>2012-08-04T07:01:56Z</time>
      </trkpt>
      <trkpt lat="46.84869" lon="9.52922">
        <ele>615.38</ele>
        <time>2012-08-04T07:01:57Z</time>
      </trkpt>
      <trkpt lat="46.84871" lon="9.52919">
        <ele>615.38</ele>
        <time>2012-08-04T07:01:58Z</time>
      </trkpt>
      <trkpt lat="46.84872" lon="9.52916">
        <ele>615.38</ele>
        <time>2012-08-04T07:01:59Z</time>
      </trkpt>
      <trkpt lat="46.84872" lon="9.52915">
        <ele>615.38</ele>
        <time>2012-08-04T07:02:00Z</time>
      </trkpt>
      <trkpt lat="46.84871" lon="9.52915">
        <ele>615.38</ele>
        <time>2012-08-04T07:02:01Z</time>
      </trkpt>
      <trkpt lat="46.8487" lon="9.52916">
        <ele>615.38</ele>
        <time>2012-08-04T07:02:02Z</time>
      </trkpt>
      <trkpt lat="46.8487" lon="9.52918">
        <ele>615.38</ele>
        <time>2012-08-04T07:02:03Z</time>
      </trkpt>
      <trkpt lat="46.84866" lon="9.52921">
        <ele>615.86</ele>
        <time>2012-08-04T07:02:05Z</time>
      </trkpt>
      <trkpt lat="46.84861" lon="9.52921">
        <ele>615.86</ele>
        <time>2012-08-04T07:02:06Z</time>
      </trkpt>
      <trkpt lat="46.84855" lon="9.52922">
        <ele>616.34</ele>
        <time>2012-08-04T07:02:07Z</time>
      </trkpt>
      <trkpt lat="46.84824" lon="9.52931">
        <ele>617.3</ele>
        <time>2012-08-04T07:02:11Z</time>
      </trkpt>
      <trkpt lat="46.84809" lon="9.52939">
        <ele>616.34</ele>
        <time>2012-08-04T07:02:13Z</time>
      </trkpt>
      <trkpt lat="46.84802" lon="9.5294">
        <ele>615.86</ele>
        <time>2012-08-04T07:02:14Z</time>
      </trkpt>
      <trkpt lat="46.84794" lon="9.52939">
        <ele>615.86</ele>
        <time>2012-08-04T07:02:15Z</time>
      </trkpt>
      <trkpt lat="46.84787" lon="9.52937">
        <ele>615.86</ele>
        <time>2012-08-04T07:02:16Z</time>
      </trkpt>
      <trkpt lat="46.84781" lon="9.52932">
        <ele>615.38</ele>
        <time>2012-08-04T07:02:17Z</time>
      </trkpt>
      <trkpt lat="46.84777" lon="9.52928">
        <ele>614.9</ele>
        <time>2012-08-04T07:02:18Z</time>
      </trkpt>
      <trkpt lat="46.84774" lon="9.52925">
        <ele>614.9</ele>
        <time>2012-08-04T07:02:19Z</time>
      </trkpt>
      <trkpt lat="46.84762" lon="9.52919">
        <ele>615.38</ele>
        <time>2012-08-04T07:02:28Z</time>
      </trkpt>
      <trkpt lat="46.84745" lon="9.52918">
        <ele>617.78</ele>
        <time>2012-08-04T07:02:30Z</time>
      </trkpt>
      <trkpt lat="46.84737" lon="9.5292">
        <ele>620.19</ele>
        <time>2012-08-04T07:02:31Z</time>
      </trkpt>
      <trkpt lat="46.84729" lon="9.52922">
        <ele>620.19</ele>
        <time>2012-08-04T07:02:32Z</time>
      </trkpt>
      <trkpt lat="46.8472" lon="9.52923">
        <ele>620.67</ele>
        <time>2012-08-04T07:02:33Z</time>
      </trkpt>
      <trkpt lat="46.84712" lon="9.52921">
        <ele>622.11</ele>
        <time>2012-08-04T07:02:34Z</time>
      </trkpt>
      <trkpt lat="46.84704" lon="9.52914">
        <ele>623.07</ele>
        <time>2012-08-04T07:02:35Z</time>
      </trkpt>
      <trkpt lat="46.84696" lon="9.52903">
        <ele>624.99</ele>
        <time>2012-08-04T07:02:36Z</time>
      </trkpt>
      <trkpt lat="46.84687" lon="9.52889">
        <ele>626.92</ele>
        <time>2012-08-04T07:02:37Z</time>
      </trkpt>
      <trkpt lat="46.84678" lon="9.52873">
        <ele>628.84</ele>
        <time>2012-08-04T07:02:38Z</time>
      </trkpt>
      <trkpt lat="46.84669" lon="9.52853">
        <ele>631.24</ele>
        <time>2012-08-04T07:02:39Z</time>
      </trkpt>
      <trkpt lat="46.84661" lon="9.52832">
        <ele>633.17</ele>
        <time>2012-08-04T07:02:40Z</time>
      </trkpt>
      <trkpt lat="46.84638" lon="9.5277">
        <ele>636.53</ele>
        <time>2012-08-04T07:02:43Z</time>
      </trkpt>
      <trkpt lat="46.84629" lon="9.52751">
        <ele>638.45</ele>
        <time>2012-08-04T07:02:44Z</time>
      </trkpt>
      <trkpt lat="46.84618" lon="9.52733">
        <ele>640.38</ele>
        <time>2012-08-04T07:02:45Z</time>
      </trkpt>
      <trkpt lat="46.84605" lon="9.52716">
        <ele>643.74</ele>
        <time>2012-08-04T07:02:46Z</time>
      </trkpt>
      <trkpt lat="46.84573" lon="9.52677">
        <ele>645.18</ele>
        <time>2012-08-04T07:02:49Z</time>
      </trkpt>
      <trkpt lat="46.84559" lon="9.52662">
        <ele>645.66</ele>
        <time>2012-08-04T07:02:51Z</time>
      </trkpt>
      <trkpt lat="46.84553" lon="9.52658">
        <ele>646.14</ele>
        <time>2012-08-04T07:02:52Z</time>
      </trkpt>
      <trkpt lat="46.84548" lon="9.52656">
        <ele>646.14</ele>
        <time>2012-08-04T07:02:53Z</time>
      </trkpt>
      <trkpt lat="46.84544" lon="9.52655">
        <ele>645.66</ele>
        <time>2012-08-04T07:02:54Z</time>
      </trkpt>
      <trkpt lat="46.84541" lon="9.52655">
        <ele>645.18</ele>
        <time>2012-08-04T07:02:55Z</time>
      </trkpt>
      <trkpt lat="46.84539" lon="9.52655">
        <ele>645.66</ele>
        <time>2012-08-04T07:02:56Z</time>
      </trkpt>
      <trkpt lat="46.84538" lon="9.52653">
        <ele>645.66</ele>
        <time>2012-08-04T07:03:05Z</time>
      </trkpt>
      <trkpt lat="46.84536" lon="9.52647">
        <ele>645.66</ele>
        <time>2012-08-04T07:03:06Z</time>
      </trkpt>
      <trkpt lat="46.84537" lon="9.52635">
        <ele>645.66</ele>
        <time>2012-08-04T07:03:07Z</time>
      </trkpt>
      <trkpt lat="46.84547" lon="9.52548">
        <ele>644.7</ele>
        <time>2012-08-04T07:03:11Z</time>
      </trkpt>
      <trkpt lat="46.8455" lon="9.52474">
        <ele>640.86</ele>
        <time>2012-08-04T07:03:14Z</time>
      </trkpt>
      <trkpt lat="46.84537" lon="9.52374">
        <ele>637.49</ele>
        <time>2012-08-04T07:03:18Z</time>
      </trkpt>
      <trkpt lat="46.84527" lon="9.52323">
        <ele>634.61</ele>
        <time>2012-08-04T07:03:20Z</time>
      </trkpt>
      <trkpt lat="46.84519" lon="9.52247">
        <ele>631.24</ele>
        <time>2012-08-04T07:03:23Z</time>
      </trkpt>
      <trkpt lat="46.84514" lon="9.52168">
        <ele>627.4</ele>
        <time>2012-08-04T07:03:26Z</time>
      </trkpt>
      <trkpt lat="46.84505" lon="9.52091">
        <ele>624.51</ele>
        <time>2012-08-04T07:03:29Z</time>
      </trkpt>
      <trkpt lat="46.84482" lon="9.51962">
        <ele>620.19</ele>
        <time>2012-08-04T07:03:34Z</time>
      </trkpt>
      <trkpt lat="46.84471" lon="9.51827">
        <ele>616.82</ele>
        <time>2012-08-04T07:03:39Z</time>
      </trkpt>
      <trkpt lat="46.8447" lon="9.518">
        <ele>616.82</ele>
        <time>2012-08-04T07:03:40Z</time>
      </trkpt>
      <trkpt lat="46.8447" lon="9.51382">
        <ele>616.34</ele>
        <time>2012-08-04T07:03:55Z</time>
      </trkpt>
      <trkpt lat="46.84504" lon="9.51105">
        <ele>614.9</ele>
        <time>2012-08-04T07:04:05Z</time>
      </trkpt>
      <trkpt lat="46.84534" lon="9.50981">
        <ele>611.06</ele>
        <time>2012-08-04T07:04:10Z</time>
      </trkpt>
      <trkpt lat="46.84546" lon="9.50947">
        <ele>609.61</ele>
        <time>2012-08-04T07:04:12Z</time>
      </trkpt>
      <trkpt lat="46.84565" lon="9.50896">
        <ele>606.25</ele>
        <time>2012-08-04T07:04:16Z</time>
      </trkpt>
      <trkpt lat="46.84576" lon="9.5087">
        <ele>604.81</ele>
        <time>2012-08-04T07:04:19Z</time>
      </trkpt>
      <trkpt lat="46.8458" lon="9.50865">
        <ele>604.33</ele>
        <time>2012-08-04T07:04:20Z</time>
      </trkpt>
      <trkpt lat="46.84584" lon="9.50862">
        <ele>603.36</ele>
        <time>2012-08-04T07:04:21Z</time>
      </trkpt>
      <trkpt lat="46.84587" lon="9.50861">
        <ele>603.85</ele>
        <time>2012-08-04T07:04:22Z</time>
      </trkpt>
      <trkpt lat="46.84589" lon="9.50861">
        <ele>602.4</ele>
        <time>2012-08-04T07:04:29Z</time>
      </trkpt>
      <trkpt lat="46.84594" lon="9.50863">
        <ele>602.4</ele>
        <time>2012-08-04T07:04:53Z</time>
      </trkpt>
      <trkpt lat="46.84598" lon="9.50868">
        <ele>602.4</ele>
        <time>2012-08-04T07:04:54Z</time>
      </trkpt>
      <trkpt lat="46.84601" lon="9.50876">
        <ele>602.4</ele>
        <time>2012-08-04T07:04:55Z</time>
      </trkpt>
      <trkpt lat="46.84603" lon="9.50887">
        <ele>602.88</ele>
        <time>2012-08-04T07:04:56Z</time>
      </trkpt>
      <trkpt lat="46.84605" lon="9.509">
        <ele>602.88</ele>
        <time>2012-08-04T07:04:57Z</time>
      </trkpt>
      <trkpt lat="46.84606" lon="9.50913">
        <ele>602.4</ele>
        <time>2012-08-04T07:04:58Z</time>
      </trkpt>
      <trkpt lat="46.84619" lon="9.51054">
        <ele>600.96</ele>
        <time>2012-08-04T07:05:08Z</time>
      </trkpt>
      <trkpt lat="46.84618" lon="9.51065">
        <ele>600.96</ele>
        <time>2012-08-04T07:05:09Z</time>
      </trkpt>
      <trkpt lat="46.84618" lon="9.51076">
        <ele>600.48</ele>
        <time>2012-08-04T07:05:10Z</time>
      </trkpt>
      <trkpt lat="46.84618" lon="9.51086">
        <ele>600.48</ele>
        <time>2012-08-04T07:05:11Z</time>
      </trkpt>
      <trkpt lat="46.8462" lon="9.51097">
        <ele>600.96</ele>
        <time>2012-08-04T07:05:12Z</time>
      </trkpt>
      <trkpt lat="46.84622" lon="9.51109">
        <ele>600</ele>
        <time>2012-08-04T07:05:13Z</time>
      </trkpt>
      <trkpt lat="46.84637" lon="9.51258">
        <ele>600</ele>
        <time>2012-08-04T07:05:23Z</time>
      </trkpt>
      <trkpt lat="46.84655" lon="9.51448">
        <ele>598.56</ele>
        <time>2012-08-04T07:05:36Z</time>
      </trkpt>
      <trkpt lat="46.84658" lon="9.51467">
        <ele>598.56</ele>
        <time>2012-08-04T07:05:38Z</time>
      </trkpt>
      <trkpt lat="46.8466" lon="9.51491">
        <ele>599.04</ele>
        <time>2012-08-04T07:05:40Z</time>
      </trkpt>
      <trkpt lat="46.84666" lon="9.51605">
        <ele>600</ele>
        <time>2012-08-04T07:05:49Z</time>
      </trkpt>
      <trkpt lat="46.84672" lon="9.51657">
        <ele>600</ele>
        <time>2012-08-04T07:05:55Z</time>
      </trkpt>
      <trkpt lat="46.8468" lon="9.51764">
        <ele>602.88</ele>
        <time>2012-08-04T07:06:04Z</time>
      </trkpt>
      <trkpt lat="46.84685" lon="9.51828">
        <ele>604.33</ele>
        <time>2012-08-04T07:06:07Z</time>
      </trkpt>
      <trkpt lat="46.84701" lon="9.5199">
        <ele>604.81</ele>
        <time>2012-08-04T07:06:16Z</time>
      </trkpt>
      <trkpt lat="46.84721" lon="9.52205">
        <ele>607.69</ele>
        <time>2012-08-04T07:06:28Z</time>
      </trkpt>
      <trkpt lat="46.84731" lon="9.52332">
        <ele>607.69</ele>
        <time>2012-08-04T07:06:37Z</time>
      </trkpt>
      <trkpt lat="46.84735" lon="9.52364">
        <ele>608.17</ele>
        <time>2012-08-04T07:06:44Z</time>
      </trkpt>
      <trkpt lat="46.84735" lon="9.5237">
        <ele>608.17</ele>
        <time>2012-08-04T07:06:45Z</time>
      </trkpt>
      <trkpt lat="46.84733" lon="9.52382">
        <ele>608.17</ele>
        <time>2012-08-04T07:06:47Z</time>
      </trkpt>
      <trkpt lat="46.84733" lon="9.52389">
        <ele>608.17</ele>
        <time>2012-08-04T07:06:48Z</time>
      </trkpt>
      <trkpt lat="46.84734" lon="9.52395">
        <ele>608.17</ele>
        <time>2012-08-04T07:06:49Z</time>
      </trkpt>
      <trkpt lat="46.84742" lon="9.52471">
        <ele>610.09</ele>
        <time>2012-08-04T07:06:57Z</time>
      </trkpt>
      <trkpt lat="46.84753" lon="9.52592">
        <ele>611.54</ele>
        <time>2012-08-04T07:07:09Z</time>
      </trkpt>
      <trkpt lat="46.84761" lon="9.52693">
        <ele>611.54</ele>
        <time>2012-08-04T07:07:20Z</time>
      </trkpt>
      <trkpt lat="46.84764" lon="9.52706">
        <ele>612.02</ele>
        <time>2012-08-04T07:07:27Z</time>
      </trkpt>
      <trkpt lat="46.84764" lon="9.52707">
        <ele>611.54</ele>
        <time>2012-08-04T07:07:28Z</time>
      </trkpt>
      <trkpt lat="46.84763" lon="9.5271">
        <ele>611.54</ele>
        <time>2012-08-04T07:07:29Z</time>
      </trkpt>
      <trkpt lat="46.84769" lon="9.5273">
        <ele>611.06</ele>
        <time>2012-08-04T07:07:35Z</time>
      </trkpt>
      <trkpt lat="46.84771" lon="9.52733">
        <ele>611.54</ele>
        <time>2012-08-04T07:07:36Z</time>
      </trkpt>
      <trkpt lat="46.84773" lon="9.52734">
        <ele>611.06</ele>
        <time>2012-08-04T07:07:37Z</time>
      </trkpt>
      <trkpt lat="46.84772" lon="9.52736">
        <ele>610.57</ele>
        <time>2012-08-04T07:07:51Z</time>
      </trkpt>
      <trkpt lat="46.84772" lon="9.52735">
        <ele>611.06</ele>
        <time>2012-08-04T07:08:07Z</time>
      </trkpt>
      <trkpt lat="46.84773" lon="9.52732">
        <ele>611.06</ele>
        <time>2012-08-04T07:08:08Z</time>
      </trkpt>
      <trkpt lat="46.84773" lon="9.52729">
        <ele>611.06</ele>
        <time>2012-08-04T07:08:09Z</time>
      </trkpt>
      <trkpt lat="46.84771" lon="9.52727">
        <ele>610.57</ele>
        <time>2012-08-04T07:08:10Z</time>
      </trkpt>
      <trkpt lat="46.84769" lon="9.52728">
        <ele>610.57</ele>
        <time>2012-08-04T07:08:11Z</time>
      </trkpt>
      <trkpt lat="46.84768" lon="9.52729">
        <ele>611.06</ele>
        <time>2012-08-04T07:08:13Z</time>
      </trkpt>
      <trkpt lat="46.84767" lon="9.52734">
        <ele>611.54</ele>
        <time>2012-08-04T07:08:14Z</time>
      </trkpt>
      <trkpt lat="46.84768" lon="9.52742">
        <ele>611.06</ele>
        <time>2012-08-04T07:08:15Z</time>
      </trkpt>
      <trkpt lat="46.84769" lon="9.52756">
        <ele>612.02</ele>
        <time>2012-08-04T07:08:16Z</time>
      </trkpt>
      <trkpt lat="46.8477" lon="9.52773">
        <ele>612.98</ele>
        <time>2012-08-04T07:08:17Z</time>
      </trkpt>
      <trkpt lat="46.84771" lon="9.52792">
        <ele>613.46</ele>
        <time>2012-08-04T07:08:18Z</time>
      </trkpt>
      <trkpt lat="46.8477" lon="9.52811">
        <ele>613.46</ele>
        <time>2012-08-04T07:08:19Z</time>
      </trkpt>
      <trkpt lat="46.84769" lon="9.52828">
        <ele>612.98</ele>
        <time>2012-08-04T07:08:20Z</time>
      </trkpt>
      <trkpt lat="46.84766" lon="9.529">
        <ele>612.5</ele>
        <time>2012-08-04T07:08:26Z</time>
      </trkpt>
      <trkpt lat="46.85153" lon="9.52919">
        <ele>613.94</ele>
        <time>2012-08-04T07:19:01Z</time>
      </trkpt>
      <trkpt lat="46.85086" lon="9.53145">
        <ele>613.94</ele>
        <time>2012-08-04T07:19:02Z</time>
      </trkpt>
      <trkpt lat="46.85114" lon="9.52953">
        <ele>614.42</ele>
        <time>2012-08-04T07:19:03Z</time>
      </trkpt>
      <trkpt lat="46.85076" lon="9.53155">
        <ele>613.94</ele>
        <time>2012-08-04T07:19:14Z</time>
      </trkpt>
      <trkpt lat="46.85066" lon="9.53159">
        <ele>614.42</ele>
        <time>2012-08-04T07:19:18Z</time>
      </trkpt>
      <trkpt lat="46.85061" lon="9.53156">
        <ele>614.42</ele>
        <time>2012-08-04T07:19:19Z</time>
      </trkpt>
      <trkpt lat="46.85056" lon="9.53152">
        <ele>614.42</ele>
        <time>2012-08-04T07:19:20Z</time>
      </trkpt>
      <trkpt lat="46.8504" lon="9.53133">
        <ele>611.06</ele>
        <time>2012-08-04T07:19:23Z</time>
      </trkpt>
      <trkpt lat="46.85034" lon="9.53126">
        <ele>614.9</ele>
        <time>2012-08-04T07:19:24Z</time>
      </trkpt>
      <trkpt lat="46.84984" lon="9.53066">
        <ele>614.42</ele>
        <time>2012-08-04T07:19:34Z</time>
      </trkpt>
      <trkpt lat="46.84945" lon="9.53017">
        <ele>615.86</ele>
        <time>2012-08-04T07:19:45Z</time>
      </trkpt>
      <trkpt lat="46.84902" lon="9.52958">
        <ele>616.82</ele>
        <time>2012-08-04T07:19:53Z</time>
      </trkpt>
      <trkpt lat="46.8488" lon="9.5293">
        <ele>616.82</ele>
        <time>2012-08-04T07:19:57Z</time>
      </trkpt>
      <trkpt lat="46.84874" lon="9.52926">
        <ele>616.82</ele>
        <time>2012-08-04T07:19:58Z</time>
      </trkpt>
      <trkpt lat="46.84868" lon="9.52923">
        <ele>616.82</ele>
        <time>2012-08-04T07:19:59Z</time>
      </trkpt>
      <trkpt lat="46.84863" lon="9.52922">
        <ele>616.34</ele>
        <time>2012-08-04T07:20:00Z</time>
      </trkpt>
      <trkpt lat="46.84857" lon="9.52921">
        <ele>616.82</ele>
        <time>2012-08-04T07:20:01Z</time>
      </trkpt>
      <trkpt lat="46.84851" lon="9.52922">
        <ele>616.82</ele>
        <time>2012-08-04T07:20:02Z</time>
      </trkpt>
      <trkpt lat="46.84844" lon="9.52924">
        <ele>616.82</ele>
        <time>2012-08-04T07:20:03Z</time>
      </trkpt>
      <trkpt lat="46.84822" lon="9.52929">
        <ele>616.82</ele>
        <time>2012-08-04T07:20:07Z</time>
      </trkpt>
      <trkpt lat="46.84817" lon="9.52932">
        <ele>617.3</ele>
        <time>2012-08-04T07:20:08Z</time>
      </trkpt>
      <trkpt lat="46.84812" lon="9.52934">
        <ele>617.3</ele>
        <time>2012-08-04T07:20:09Z</time>
      </trkpt>
      <trkpt lat="46.84807" lon="9.52936">
        <ele>616.82</ele>
        <time>2012-08-04T07:20:10Z</time>
      </trkpt>
      <trkpt lat="46.84803" lon="9.52938">
        <ele>616.82</ele>
        <time>2012-08-04T07:20:11Z</time>
      </trkpt>
      <trkpt lat="46.84799" lon="9.52939">
        <ele>616.34</ele>
        <time>2012-08-04T07:20:12Z</time>
      </trkpt>
      <trkpt lat="46.84796" lon="9.5294">
        <ele>616.34</ele>
        <time>2012-08-04T07:20:13Z</time>
      </trkpt>
      <trkpt lat="46.84791" lon="9.5294">
        <ele>616.82</ele>
        <time>2012-08-04T07:20:14Z</time>
      </trkpt>
      <trkpt lat="46.84787" lon="9.52938">
        <ele>616.34</ele>
        <time>2012-08-04T07:20:15Z</time>
      </trkpt>
      <trkpt lat="46.84783" lon="9.52936">
        <ele>616.34</ele>
        <time>2012-08-04T07:20:16Z</time>
      </trkpt>
      <trkpt lat="46.84779" lon="9.52933">
        <ele>616.34</ele>
        <time>2012-08-04T07:20:17Z</time>
      </trkpt>
      <trkpt lat="46.84776" lon="9.5293">
        <ele>616.34</ele>
        <time>2012-08-04T07:20:18Z</time>
      </trkpt>
      <trkpt lat="46.84773" lon="9.52926">
        <ele>616.34</ele>
        <time>2012-08-04T07:20:19Z</time>
      </trkpt>
      <trkpt lat="46.84772" lon="9.52921">
        <ele>615.86</ele>
        <time>2012-08-04T07:20:20Z</time>
      </trkpt>
      <trkpt lat="46.84771" lon="9.52916">
        <ele>615.86</ele>
        <time>2012-08-04T07:20:21Z</time>
      </trkpt>
      <trkpt lat="46.8477" lon="9.52909">
        <ele>615.86</ele>
        <time>2012-08-04T07:20:22Z</time>
      </trkpt>
      <trkpt lat="46.8477" lon="9.52902">
        <ele>615.86</ele>
        <time>2012-08-04T07:20:23Z</time>
      </trkpt>
      <trkpt lat="46.84771" lon="9.52895">
        <ele>615.38</ele>
        <time>2012-08-04T07:20:24Z</time>
      </trkpt>
      <trkpt lat="46.84772" lon="9.5288">
        <ele>614.9</ele>
        <time>2012-08-04T07:20:26Z</time>
      </trkpt>
      <trkpt lat="46.84773" lon="9.52873">
        <ele>615.86</ele>
        <time>2012-08-04T07:20:27Z</time>
      </trkpt>
      <trkpt lat="46.84774" lon="9.52866">
        <ele>614.42</ele>
        <time>2012-08-04T07:20:28Z</time>
      </trkpt>
      <trkpt lat="46.84774" lon="9.52858">
        <ele>611.06</ele>
        <time>2012-08-04T07:20:29Z</time>
      </trkpt>
      <trkpt lat="46.84775" lon="9.5285">
        <ele>614.42</ele>
        <time>2012-08-04T07:20:30Z</time>
      </trkpt>
      <trkpt lat="46.84777" lon="9.52822">
        <ele>614.9</ele>
        <time>2012-08-04T07:20:33Z</time>
      </trkpt>
      <trkpt lat="46.84776" lon="9.52764">
        <ele>613.94</ele>
        <time>2012-08-04T07:20:39Z</time>
      </trkpt>
      <trkpt lat="46.84771" lon="9.52742">
        <ele>614.42</ele>
        <time>2012-08-04T07:20:42Z</time>
      </trkpt>
      <trkpt lat="46.84762" lon="9.52709">
        <ele>614.9</ele>
        <time>2012-08-04T07:20:46Z</time>
      </trkpt>
      <trkpt lat="46.84752" lon="9.52598">
        <ele>615.86</ele>
        <time>2012-08-04T07:20:55Z</time>
      </trkpt>
      <trkpt lat="46.84742" lon="9.52455">
        <ele>612.98</ele>
        <time>2012-08-04T07:21:05Z</time>
      </trkpt>
      <trkpt lat="46.84741" lon="9.52423">
        <ele>612.02</ele>
        <time>2012-08-04T07:21:08Z</time>
      </trkpt>
      <trkpt lat="46.84742" lon="9.52413">
        <ele>612.02</ele>
        <time>2012-08-04T07:21:09Z</time>
      </trkpt>
      <trkpt lat="46.84745" lon="9.52403">
        <ele>612.02</ele>
        <time>2012-08-04T07:21:10Z</time>
      </trkpt>
      <trkpt lat="46.84746" lon="9.52395">
        <ele>611.54</ele>
        <time>2012-08-04T07:21:11Z</time>
      </trkpt>
      <trkpt lat="46.84747" lon="9.52388">
        <ele>611.54</ele>
        <time>2012-08-04T07:21:12Z</time>
      </trkpt>
      <trkpt lat="46.84746" lon="9.52381">
        <ele>611.54</ele>
        <time>2012-08-04T07:21:13Z</time>
      </trkpt>
      <trkpt lat="46.84744" lon="9.52373">
        <ele>611.06</ele>
        <time>2012-08-04T07:21:14Z</time>
      </trkpt>
      <trkpt lat="46.84741" lon="9.52364">
        <ele>611.54</ele>
        <time>2012-08-04T07:21:15Z</time>
      </trkpt>
      <trkpt lat="46.84737" lon="9.52353">
        <ele>611.54</ele>
        <time>2012-08-04T07:21:16Z</time>
      </trkpt>
      <trkpt lat="46.84735" lon="9.52339">
        <ele>612.02</ele>
        <time>2012-08-04T07:21:17Z</time>
      </trkpt>
      <trkpt lat="46.84733" lon="9.52325">
        <ele>612.02</ele>
        <time>2012-08-04T07:21:18Z</time>
      </trkpt>
      <trkpt lat="46.84729" lon="9.52277">
        <ele>610.57</ele>
        <time>2012-08-04T07:21:21Z</time>
      </trkpt>
      <trkpt lat="46.84713" lon="9.52094">
        <ele>607.69</ele>
        <time>2012-08-04T07:21:32Z</time>
      </trkpt>
      <trkpt lat="46.84694" lon="9.51887">
        <ele>604.81</ele>
        <time>2012-08-04T07:21:45Z</time>
      </trkpt>
      <trkpt lat="46.84683" lon="9.51783">
        <ele>602.88</ele>
        <time>2012-08-04T07:21:52Z</time>
      </trkpt>
      <trkpt lat="46.8467" lon="9.51619">
        <ele>601.92</ele>
        <time>2012-08-04T07:22:03Z</time>
      </trkpt>
      <trkpt lat="46.84666" lon="9.51533">
        <ele>600</ele>
        <time>2012-08-04T07:22:10Z</time>
      </trkpt>
      <trkpt lat="46.8467" lon="9.51508">
        <ele>600</ele>
        <time>2012-08-04T07:22:14Z</time>
      </trkpt>
      <trkpt lat="46.84673" lon="9.51501">
        <ele>599.52</ele>
        <time>2012-08-04T07:22:15Z</time>
      </trkpt>
      <trkpt lat="46.84676" lon="9.51494">
        <ele>599.52</ele>
        <time>2012-08-04T07:22:16Z</time>
      </trkpt>
      <trkpt lat="46.84677" lon="9.51486">
        <ele>599.52</ele>
        <time>2012-08-04T07:22:17Z</time>
      </trkpt>
      <trkpt lat="46.84676" lon="9.51478">
        <ele>599.52</ele>
        <time>2012-08-04T07:22:18Z</time>
      </trkpt>
      <trkpt lat="46.84673" lon="9.51471">
        <ele>599.52</ele>
        <time>2012-08-04T07:22:19Z</time>
      </trkpt>
      <trkpt lat="46.84668" lon="9.51464">
        <ele>600</ele>
        <time>2012-08-04T07:22:20Z</time>
      </trkpt>
      <trkpt lat="46.84663" lon="9.51454">
        <ele>599.52</ele>
        <time>2012-08-04T07:22:21Z</time>
      </trkpt>
      <trkpt lat="46.84659" lon="9.51443">
        <ele>599.52</ele>
        <time>2012-08-04T07:22:22Z</time>
      </trkpt>
      <trkpt lat="46.84656" lon="9.51431">
        <ele>600.48</ele>
        <time>2012-08-04T07:22:23Z</time>
      </trkpt>
      <trkpt lat="46.84654" lon="9.51416">
        <ele>600.48</ele>
        <time>2012-08-04T07:22:24Z</time>
      </trkpt>
      <trkpt lat="46.84653" lon="9.514">
        <ele>600.48</ele>
        <time>2012-08-04T07:22:25Z</time>
      </trkpt>
      <trkpt lat="46.84652" lon="9.51385">
        <ele>600.48</ele>
        <time>2012-08-04T07:22:26Z</time>
      </trkpt>
      <trkpt lat="46.8463" lon="9.51141">
        <ele>600.96</ele>
        <time>2012-08-04T07:22:42Z</time>
      </trkpt>
      <trkpt lat="46.84628" lon="9.51112">
        <ele>600.48</ele>
        <time>2012-08-04T07:22:45Z</time>
      </trkpt>
      <trkpt lat="46.84629" lon="9.51104">
        <ele>600.48</ele>
        <time>2012-08-04T07:22:46Z</time>
      </trkpt>
      <trkpt lat="46.84631" lon="9.51096">
        <ele>600.96</ele>
        <time>2012-08-04T07:22:47Z</time>
      </trkpt>
      <trkpt lat="46.84633" lon="9.5108">
        <ele>600</ele>
        <time>2012-08-04T07:22:49Z</time>
      </trkpt>
      <trkpt lat="46.84633" lon="9.51072">
        <ele>600.48</ele>
        <time>2012-08-04T07:22:50Z</time>
      </trkpt>
      <trkpt lat="46.8463" lon="9.51063">
        <ele>600.96</ele>
        <time>2012-08-04T07:22:51Z</time>
      </trkpt>
      <trkpt lat="46.84624" lon="9.51041">
        <ele>601.44</ele>
        <time>2012-08-04T07:22:53Z</time>
      </trkpt>
      <trkpt lat="46.84622" lon="9.51027">
        <ele>601.92</ele>
        <time>2012-08-04T07:22:54Z</time>
      </trkpt>
      <trkpt lat="46.84621" lon="9.51012">
        <ele>602.4</ele>
        <time>2012-08-04T07:22:55Z</time>
      </trkpt>
      <trkpt lat="46.84609" lon="9.50862">
        <ele>602.88</ele>
        <time>2012-08-04T07:23:06Z</time>
      </trkpt>
      <trkpt lat="46.84606" lon="9.50839">
        <ele>602.4</ele>
        <time>2012-08-04T07:23:14Z</time>
      </trkpt>
      <trkpt lat="46.84605" lon="9.50838">
        <ele>601.92</ele>
        <time>2012-08-04T07:23:41Z</time>
      </trkpt>
      <trkpt lat="46.84598" lon="9.5081">
        <ele>602.88</ele>
        <time>2012-08-04T07:23:49Z</time>
      </trkpt>
      <trkpt lat="46.84581" lon="9.50707">
        <ele>604.81</ele>
        <time>2012-08-04T07:23:56Z</time>
      </trkpt>
      <trkpt lat="46.84554" lon="9.50515">
        <ele>607.69</ele>
        <time>2012-08-04T07:24:06Z</time>
      </trkpt>
      <trkpt lat="46.84544" lon="9.50458">
        <ele>609.13</ele>
        <time>2012-08-04T07:24:09Z</time>
      </trkpt>
      <trkpt lat="46.84532" lon="9.50379">
        <ele>610.57</ele>
        <time>2012-08-04T07:24:13Z</time>
      </trkpt>
      <trkpt lat="46.84492" lon="9.50139">
        <ele>610.09</ele>
        <time>2012-08-04T07:24:24Z</time>
      </trkpt>
      <trkpt lat="46.84488" lon="9.50118">
        <ele>609.61</ele>
        <time>2012-08-04T07:24:25Z</time>
      </trkpt>
      <trkpt lat="46.8446" lon="9.49956">
        <ele>607.21</ele>
        <time>2012-08-04T07:24:32Z</time>
      </trkpt>
      <trkpt lat="46.84429" lon="9.49778">
        <ele>603.85</ele>
        <time>2012-08-04T07:24:39Z</time>
      </trkpt>
      <trkpt lat="46.84424" lon="9.49752">
        <ele>603.85</ele>
        <time>2012-08-04T07:24:40Z</time>
      </trkpt>
      <trkpt lat="46.84362" lon="9.49391">
        <ele>603.36</ele>
        <time>2012-08-04T07:24:55Z</time>
      </trkpt>
      <trkpt lat="46.84335" lon="9.49246">
        <ele>607.69</ele>
        <time>2012-08-04T07:25:00Z</time>
      </trkpt>
      <trkpt lat="46.84285" lon="9.48926">
        <ele>609.13</ele>
        <time>2012-08-04T07:25:10Z</time>
      </trkpt>
      <trkpt lat="46.8424" lon="9.48578">
        <ele>606.25</ele>
        <time>2012-08-04T07:25:22Z</time>
      </trkpt>
      <trkpt lat="46.84189" lon="9.48431">
        <ele>603.36</ele>
        <time>2012-08-04T07:25:28Z</time>
      </trkpt>
      <trkpt lat="46.84138" lon="9.4831">
        <ele>600</ele>
        <time>2012-08-04T07:25:33Z</time>
      </trkpt>
      <trkpt lat="46.84103" lon="9.48178">
        <ele>596.64</ele>
        <time>2012-08-04T07:25:38Z</time>
      </trkpt>
      <trkpt lat="46.84081" lon="9.48049">
        <ele>593.75</ele>
        <time>2012-08-04T07:25:44Z</time>
      </trkpt>
      <trkpt lat="46.84076" lon="9.47992">
        <ele>591.35</ele>
        <time>2012-08-04T07:25:48Z</time>
      </trkpt>
      <trkpt lat="46.84075" lon="9.47981">
        <ele>590.87</ele>
        <time>2012-08-04T07:25:49Z</time>
      </trkpt>
      <trkpt lat="46.84071" lon="9.47969">
        <ele>591.83</ele>
        <time>2012-08-04T07:25:50Z</time>
      </trkpt>
      <trkpt lat="46.84061" lon="9.4794">
        <ele>591.83</ele>
        <time>2012-08-04T07:25:52Z</time>
      </trkpt>
      <trkpt lat="46.84056" lon="9.47921">
        <ele>592.79</ele>
        <time>2012-08-04T07:25:53Z</time>
      </trkpt>
      <trkpt lat="46.84049" lon="9.47878">
        <ele>593.75</ele>
        <time>2012-08-04T07:25:55Z</time>
      </trkpt>
      <trkpt lat="46.84006" lon="9.47651">
        <ele>596.64</ele>
        <time>2012-08-04T07:26:04Z</time>
      </trkpt>
      <trkpt lat="46.84" lon="9.47622">
        <ele>597.12</ele>
        <time>2012-08-04T07:26:05Z</time>
      </trkpt>
      <trkpt lat="46.83905" lon="9.47092">
        <ele>597.6</ele>
        <time>2012-08-04T07:26:23Z</time>
      </trkpt>
      <trkpt lat="46.83855" lon="9.46812">
        <ele>596.15</ele>
        <time>2012-08-04T07:26:33Z</time>
      </trkpt>
      <trkpt lat="46.83821" lon="9.46623">
        <ele>594.71</ele>
        <time>2012-08-04T07:26:42Z</time>
      </trkpt>
      <trkpt lat="46.83801" lon="9.46534">
        <ele>592.79</ele>
        <time>2012-08-04T07:26:48Z</time>
      </trkpt>
      <trkpt lat="46.83802" lon="9.46523">
        <ele>592.79</ele>
        <time>2012-08-04T07:26:49Z</time>
      </trkpt>
      <trkpt lat="46.83803" lon="9.46504">
        <ele>592.79</ele>
        <time>2012-08-04T07:26:51Z</time>
      </trkpt>
      <trkpt lat="46.83801" lon="9.46495">
        <ele>593.27</ele>
        <time>2012-08-04T07:26:52Z</time>
      </trkpt>
      <trkpt lat="46.83795" lon="9.46476">
        <ele>592.79</ele>
        <time>2012-08-04T07:26:54Z</time>
      </trkpt>
      <trkpt lat="46.83793" lon="9.46466">
        <ele>593.27</ele>
        <time>2012-08-04T07:26:55Z</time>
      </trkpt>
      <trkpt lat="46.83769" lon="9.46337">
        <ele>593.27</ele>
        <time>2012-08-04T07:27:06Z</time>
      </trkpt>
      <trkpt lat="46.83734" lon="9.46182">
        <ele>594.71</ele>
        <time>2012-08-04T07:27:17Z</time>
      </trkpt>
      <trkpt lat="46.83698" lon="9.46025">
        <ele>591.35</ele>
        <time>2012-08-04T07:27:27Z</time>
      </trkpt>
      <trkpt lat="46.83698" lon="9.46006">
        <ele>590.87</ele>
        <time>2012-08-04T07:27:28Z</time>
      </trkpt>
      <trkpt lat="46.83699" lon="9.45953">
        <ele>590.87</ele>
        <time>2012-08-04T07:27:31Z</time>
      </trkpt>
      <trkpt lat="46.837" lon="9.45935">
        <ele>590.39</ele>
        <time>2012-08-04T07:27:32Z</time>
      </trkpt>
      <trkpt lat="46.83704" lon="9.45827">
        <ele>594.71</ele>
        <time>2012-08-04T07:27:38Z</time>
      </trkpt>
      <trkpt lat="46.83716" lon="9.45575">
        <ele>597.12</ele>
        <time>2012-08-04T07:27:52Z</time>
      </trkpt>
      <trkpt lat="46.83723" lon="9.45411">
        <ele>599.52</ele>
        <time>2012-08-04T07:28:03Z</time>
      </trkpt>
      <trkpt lat="46.83725" lon="9.45346">
        <ele>599.04</ele>
        <time>2012-08-04T07:28:10Z</time>
      </trkpt>
      <trkpt lat="46.83727" lon="9.45285">
        <ele>599.04</ele>
        <time>2012-08-04T07:28:16Z</time>
      </trkpt>
      <trkpt lat="46.83709" lon="9.45194">
        <ele>599.52</ele>
        <time>2012-08-04T07:28:24Z</time>
      </trkpt>
      <trkpt lat="46.83706" lon="9.45185">
        <ele>599.52</ele>
        <time>2012-08-04T07:28:25Z</time>
      </trkpt>
      <trkpt lat="46.83673" lon="9.45118">
        <ele>600</ele>
        <time>2012-08-04T07:28:32Z</time>
      </trkpt>
      <trkpt lat="46.83668" lon="9.4511">
        <ele>600.48</ele>
        <time>2012-08-04T07:28:33Z</time>
      </trkpt>
      <trkpt lat="46.83663" lon="9.45103">
        <ele>600.48</ele>
        <time>2012-08-04T07:28:34Z</time>
      </trkpt>
      <trkpt lat="46.83657" lon="9.45099">
        <ele>600.96</ele>
        <time>2012-08-04T07:28:35Z</time>
      </trkpt>
      <trkpt lat="46.8365" lon="9.45096">
        <ele>600.48</ele>
        <time>2012-08-04T07:28:36Z</time>
      </trkpt>
      <trkpt lat="46.83642" lon="9.45095">
        <ele>600.48</ele>
        <time>2012-08-04T07:28:37Z</time>
      </trkpt>
      <trkpt lat="46.83633" lon="9.45096">
        <ele>600.48</ele>
        <time>2012-08-04T07:28:38Z</time>
      </trkpt>
      <trkpt lat="46.83573" lon="9.45101">
        <ele>600.48</ele>
        <time>2012-08-04T07:28:45Z</time>
      </trkpt>
      <trkpt lat="46.83566" lon="9.45101">
        <ele>600.48</ele>
        <time>2012-08-04T07:28:46Z</time>
      </trkpt>
      <trkpt lat="46.83535" lon="9.45098">
        <ele>600.48</ele>
        <time>2012-08-04T07:28:50Z</time>
      </trkpt>
      <trkpt lat="46.83526" lon="9.45095">
        <ele>600.48</ele>
        <time>2012-08-04T07:28:51Z</time>
      </trkpt>
      <trkpt lat="46.83509" lon="9.45086">
        <ele>600.48</ele>
        <time>2012-08-04T07:28:53Z</time>
      </trkpt>
      <trkpt lat="46.83474" lon="9.45057">
        <ele>600.96</ele>
        <time>2012-08-04T07:28:57Z</time>
      </trkpt>
      <trkpt lat="46.83452" lon="9.45035">
        <ele>600.96</ele>
        <time>2012-08-04T07:29:00Z</time>
      </trkpt>
      <trkpt lat="46.83445" lon="9.45026">
        <ele>600.96</ele>
        <time>2012-08-04T07:29:01Z</time>
      </trkpt>
      <trkpt lat="46.83439" lon="9.45017">
        <ele>600.96</ele>
        <time>2012-08-04T07:29:02Z</time>
      </trkpt>
      <trkpt lat="46.83433" lon="9.45007">
        <ele>600.96</ele>
        <time>2012-08-04T07:29:03Z</time>
      </trkpt>
      <trkpt lat="46.83428" lon="9.44996">
        <ele>600.48</ele>
        <time>2012-08-04T07:29:04Z</time>
      </trkpt>
      <trkpt lat="46.83423" lon="9.44983">
        <ele>600.96</ele>
        <time>2012-08-04T07:29:05Z</time>
      </trkpt>
      <trkpt lat="46.83406" lon="9.44932">
        <ele>601.92</ele>
        <time>2012-08-04T07:29:09Z</time>
      </trkpt>
      <trkpt lat="46.83403" lon="9.44917">
        <ele>601.44</ele>
        <time>2012-08-04T07:29:10Z</time>
      </trkpt>
      <trkpt lat="46.834" lon="9.44903">
        <ele>601.44</ele>
        <time>2012-08-04T07:29:11Z</time>
      </trkpt>
      <trkpt lat="46.83372" lon="9.44751">
        <ele>602.4</ele>
        <time>2012-08-04T07:29:21Z</time>
      </trkpt>
      <trkpt lat="46.8328" lon="9.44541">
        <ele>604.81</ele>
        <time>2012-08-04T07:29:36Z</time>
      </trkpt>
      <trkpt lat="46.83237" lon="9.44445">
        <ele>603.85</ele>
        <time>2012-08-04T07:29:44Z</time>
      </trkpt>
      <trkpt lat="46.83223" lon="9.44409">
        <ele>605.77</ele>
        <time>2012-08-04T07:29:47Z</time>
      </trkpt>
      <trkpt lat="46.83159" lon="9.44234">
        <ele>608.17</ele>
        <time>2012-08-04T07:29:58Z</time>
      </trkpt>
      <trkpt lat="46.83085" lon="9.44007">
        <ele>610.09</ele>
        <time>2012-08-04T07:30:11Z</time>
      </trkpt>
      <trkpt lat="46.82995" lon="9.43749">
        <ele>613.46</ele>
        <time>2012-08-04T07:30:25Z</time>
      </trkpt>
      <trkpt lat="46.82935" lon="9.43522">
        <ele>615.38</ele>
        <time>2012-08-04T07:30:36Z</time>
      </trkpt>
      <trkpt lat="46.8293" lon="9.43363">
        <ele>615.38</ele>
        <time>2012-08-04T07:30:43Z</time>
      </trkpt>
      <trkpt lat="46.82944" lon="9.43188">
        <ele>615.86</ele>
        <time>2012-08-04T07:30:51Z</time>
      </trkpt>
      <trkpt lat="46.82942" lon="9.43143">
        <ele>614.9</ele>
        <time>2012-08-04T07:30:54Z</time>
      </trkpt>
      <trkpt lat="46.82943" lon="9.43132">
        <ele>614.42</ele>
        <time>2012-08-04T07:30:55Z</time>
      </trkpt>
      <trkpt lat="46.82944" lon="9.43122">
        <ele>614.42</ele>
        <time>2012-08-04T07:30:56Z</time>
      </trkpt>
      <trkpt lat="46.82943" lon="9.43113">
        <ele>614.42</ele>
        <time>2012-08-04T07:30:57Z</time>
      </trkpt>
      <trkpt lat="46.8294" lon="9.43103">
        <ele>614.42</ele>
        <time>2012-08-04T07:30:58Z</time>
      </trkpt>
      <trkpt lat="46.82937" lon="9.43091">
        <ele>614.42</ele>
        <time>2012-08-04T07:30:59Z</time>
      </trkpt>
      <trkpt lat="46.82933" lon="9.43077">
        <ele>614.9</ele>
        <time>2012-08-04T07:31:00Z</time>
      </trkpt>
      <trkpt lat="46.82917" lon="9.43004">
        <ele>617.78</ele>
        <time>2012-08-04T07:31:04Z</time>
      </trkpt>
      <trkpt lat="46.82911" lon="9.42984">
        <ele>617.78</ele>
        <time>2012-08-04T07:31:05Z</time>
      </trkpt>
      <trkpt lat="46.82904" lon="9.42964">
        <ele>618.75</ele>
        <time>2012-08-04T07:31:06Z</time>
      </trkpt>
      <trkpt lat="46.82854" lon="9.42776">
        <ele>621.63</ele>
        <time>2012-08-04T07:31:15Z</time>
      </trkpt>
      <trkpt lat="46.82833" lon="9.42494">
        <ele>624.51</ele>
        <time>2012-08-04T07:31:27Z</time>
      </trkpt>
      <trkpt lat="46.82806" lon="9.42155">
        <ele>627.88</ele>
        <time>2012-08-04T07:31:41Z</time>
      </trkpt>
      <trkpt lat="46.82798" lon="9.42033">
        <ele>629.32</ele>
        <time>2012-08-04T07:31:46Z</time>
      </trkpt>
      <trkpt lat="46.82772" lon="9.41735">
        <ele>629.8</ele>
        <time>2012-08-04T07:31:58Z</time>
      </trkpt>
      <trkpt lat="46.82764" lon="9.41687">
        <ele>629.32</ele>
        <time>2012-08-04T07:32:00Z</time>
      </trkpt>
      <trkpt lat="46.82757" lon="9.41664">
        <ele>628.36</ele>
        <time>2012-08-04T07:32:01Z</time>
      </trkpt>
      <trkpt lat="46.82749" lon="9.41643">
        <ele>627.88</ele>
        <time>2012-08-04T07:32:02Z</time>
      </trkpt>
      <trkpt lat="46.82739" lon="9.41623">
        <ele>627.4</ele>
        <time>2012-08-04T07:32:03Z</time>
      </trkpt>
      <trkpt lat="46.82727" lon="9.41604">
        <ele>626.44</ele>
        <time>2012-08-04T07:32:04Z</time>
      </trkpt>
      <trkpt lat="46.82715" lon="9.41587">
        <ele>625.96</ele>
        <time>2012-08-04T07:32:05Z</time>
      </trkpt>
      <trkpt lat="46.827" lon="9.41572">
        <ele>625.47</ele>
        <time>2012-08-04T07:32:06Z</time>
      </trkpt>
      <trkpt lat="46.82685" lon="9.41558">
        <ele>624.03</ele>
        <time>2012-08-04T07:32:07Z</time>
      </trkpt>
      <trkpt lat="46.8267" lon="9.41545">
        <ele>623.07</ele>
        <time>2012-08-04T07:32:08Z</time>
      </trkpt>
      <trkpt lat="46.8262" lon="9.41508">
        <ele>619.71</ele>
        <time>2012-08-04T07:32:11Z</time>
      </trkpt>
      <trkpt lat="46.82585" lon="9.41486">
        <ele>618.75</ele>
        <time>2012-08-04T07:32:13Z</time>
      </trkpt>
      <trkpt lat="46.8249" lon="9.41422">
        <ele>619.23</ele>
        <time>2012-08-04T07:32:19Z</time>
      </trkpt>
      <trkpt lat="46.82477" lon="9.41408">
        <ele>620.19</ele>
        <time>2012-08-04T07:32:20Z</time>
      </trkpt>
      <trkpt lat="46.82465" lon="9.41393">
        <ele>621.15</ele>
        <time>2012-08-04T07:32:21Z</time>
      </trkpt>
      <trkpt lat="46.82455" lon="9.41378">
        <ele>621.15</ele>
        <time>2012-08-04T07:32:22Z</time>
      </trkpt>
      <trkpt lat="46.82447" lon="9.41364">
        <ele>621.15</ele>
        <time>2012-08-04T07:32:23Z</time>
      </trkpt>
      <trkpt lat="46.82405" lon="9.41287">
        <ele>622.11</ele>
        <time>2012-08-04T07:32:29Z</time>
      </trkpt>
      <trkpt lat="46.82399" lon="9.4127">
        <ele>622.11</ele>
        <time>2012-08-04T07:32:30Z</time>
      </trkpt>
      <trkpt lat="46.82359" lon="9.41135">
        <ele>618.75</ele>
        <time>2012-08-04T07:32:37Z</time>
      </trkpt>
      <trkpt lat="46.82339" lon="9.41051">
        <ele>615.38</ele>
        <time>2012-08-04T07:32:42Z</time>
      </trkpt>
      <trkpt lat="46.82338" lon="9.41037">
        <ele>615.38</ele>
        <time>2012-08-04T07:32:43Z</time>
      </trkpt>
      <trkpt lat="46.82339" lon="9.41024">
        <ele>614.9</ele>
        <time>2012-08-04T07:32:44Z</time>
      </trkpt>
      <trkpt lat="46.82341" lon="9.41014">
        <ele>614.42</ele>
        <time>2012-08-04T07:32:45Z</time>
      </trkpt>
      <trkpt lat="46.82344" lon="9.41007">
        <ele>613.94</ele>
        <time>2012-08-04T07:32:46Z</time>
      </trkpt>
      <trkpt lat="46.82345" lon="9.41007">
        <ele>613.46</ele>
        <time>2012-08-04T07:32:52Z</time>
      </trkpt>
      <trkpt lat="46.82347" lon="9.41004">
        <ele>613.46</ele>
        <time>2012-08-04T07:32:59Z</time>
      </trkpt>
      <trkpt lat="46.82352" lon="9.40999">
        <ele>613.94</ele>
        <time>2012-08-04T07:33:00Z</time>
      </trkpt>
      <trkpt lat="46.82405" lon="9.4095">
        <ele>613.94</ele>
        <time>2012-08-04T07:33:08Z</time>
      </trkpt>
      <trkpt lat="46.82432" lon="9.40935">
        <ele>613.94</ele>
        <time>2012-08-04T07:33:13Z</time>
      </trkpt>
      <trkpt lat="46.8245" lon="9.40935">
        <ele>612.98</ele>
        <time>2012-08-04T07:33:16Z</time>
      </trkpt>
      <trkpt lat="46.82468" lon="9.40927">
        <ele>612.02</ele>
        <time>2012-08-04T07:33:20Z</time>
      </trkpt>
      <trkpt lat="46.82471" lon="9.40923">
        <ele>612.02</ele>
        <time>2012-08-04T07:33:21Z</time>
      </trkpt>
      <trkpt lat="46.82471" lon="9.40917">
        <ele>611.54</ele>
        <time>2012-08-04T07:33:22Z</time>
      </trkpt>
      <trkpt lat="46.8247" lon="9.40909">
        <ele>611.54</ele>
        <time>2012-08-04T07:33:23Z</time>
      </trkpt>
      <trkpt lat="46.82469" lon="9.40899">
        <ele>611.54</ele>
        <time>2012-08-04T07:33:24Z</time>
      </trkpt>
      <trkpt lat="46.82465" lon="9.40863">
        <ele>611.06</ele>
        <time>2012-08-04T07:33:27Z</time>
      </trkpt>
      <trkpt lat="46.82434" lon="9.40728">
        <ele>610.57</ele>
        <time>2012-08-04T07:33:36Z</time>
      </trkpt>
      <trkpt lat="46.82416" lon="9.40668">
        <ele>611.06</ele>
        <time>2012-08-04T07:33:40Z</time>
      </trkpt>
      <trkpt lat="46.82409" lon="9.40653">
        <ele>610.57</ele>
        <time>2012-08-04T07:33:41Z</time>
      </trkpt>
      <trkpt lat="46.8232" lon="9.40486">
        <ele>611.06</ele>
        <time>2012-08-04T07:33:51Z</time>
      </trkpt>
      <trkpt lat="46.823" lon="9.40451">
        <ele>609.13</ele>
        <time>2012-08-04T07:33:54Z</time>
      </trkpt>
      <trkpt lat="46.82293" lon="9.40443">
        <ele>608.65</ele>
        <time>2012-08-04T07:33:55Z</time>
      </trkpt>
      <trkpt lat="46.82286" lon="9.40438">
        <ele>608.17</ele>
        <time>2012-08-04T07:33:56Z</time>
      </trkpt>
      <trkpt lat="46.82278" lon="9.40436">
        <ele>608.65</ele>
        <time>2012-08-04T07:33:57Z</time>
      </trkpt>
      <trkpt lat="46.82271" lon="9.40435">
        <ele>608.65</ele>
        <time>2012-08-04T07:33:58Z</time>
      </trkpt>
      <trkpt lat="46.82263" lon="9.40433">
        <ele>608.17</ele>
        <time>2012-08-04T07:33:59Z</time>
      </trkpt>
      <trkpt lat="46.82256" lon="9.40429">
        <ele>608.17</ele>
        <time>2012-08-04T07:34:00Z</time>
      </trkpt>
      <trkpt lat="46.8225" lon="9.40425">
        <ele>608.17</ele>
        <time>2012-08-04T07:34:01Z</time>
      </trkpt>
      <trkpt lat="46.82245" lon="9.40421">
        <ele>607.69</ele>
        <time>2012-08-04T07:34:02Z</time>
      </trkpt>
      <trkpt lat="46.82242" lon="9.40417">
        <ele>607.69</ele>
        <time>2012-08-04T07:34:03Z</time>
      </trkpt>
      <trkpt lat="46.8224" lon="9.40412">
        <ele>607.69</ele>
        <time>2012-08-04T07:34:04Z</time>
      </trkpt>
      <trkpt lat="46.82239" lon="9.40405">
        <ele>607.69</ele>
        <time>2012-08-04T07:34:05Z</time>
      </trkpt>
      <trkpt lat="46.82238" lon="9.40395">
        <ele>608.17</ele>
        <time>2012-08-04T07:34:06Z</time>
      </trkpt>
      <trkpt lat="46.82238" lon="9.40384">
        <ele>608.65</ele>
        <time>2012-08-04T07:34:07Z</time>
      </trkpt>
      <trkpt lat="46.82237" lon="9.40369">
        <ele>609.13</ele>
        <time>2012-08-04T07:34:08Z</time>
      </trkpt>
      <trkpt lat="46.82236" lon="9.40353">
        <ele>610.09</ele>
        <time>2012-08-04T07:34:09Z</time>
      </trkpt>
      <trkpt lat="46.82232" lon="9.40336">
        <ele>610.57</ele>
        <time>2012-08-04T07:34:10Z</time>
      </trkpt>
      <trkpt lat="46.82227" lon="9.40319">
        <ele>611.06</ele>
        <time>2012-08-04T07:34:11Z</time>
      </trkpt>
      <trkpt lat="46.8222" lon="9.40301">
        <ele>612.02</ele>
        <time>2012-08-04T07:34:12Z</time>
      </trkpt>
      <trkpt lat="46.82211" lon="9.40284">
        <ele>612.02</ele>
        <time>2012-08-04T07:34:13Z</time>
      </trkpt>
      <trkpt lat="46.82202" lon="9.40269">
        <ele>612.98</ele>
        <time>2012-08-04T07:34:14Z</time>
      </trkpt>
      <trkpt lat="46.82191" lon="9.40254">
        <ele>613.94</ele>
        <time>2012-08-04T07:34:15Z</time>
      </trkpt>
      <trkpt lat="46.82179" lon="9.40241">
        <ele>613.94</ele>
        <time>2012-08-04T07:34:16Z</time>
      </trkpt>
      <trkpt lat="46.82166" lon="9.40229">
        <ele>614.9</ele>
        <time>2012-08-04T07:34:17Z</time>
      </trkpt>
      <trkpt lat="46.82152" lon="9.40218">
        <ele>615.86</ele>
        <time>2012-08-04T07:34:18Z</time>
      </trkpt>
      <trkpt lat="46.82138" lon="9.4021">
        <ele>616.34</ele>
        <time>2012-08-04T07:34:19Z</time>
      </trkpt>
      <trkpt lat="46.82123" lon="9.40203">
        <ele>618.26</ele>
        <time>2012-08-04T07:34:20Z</time>
      </trkpt>
      <trkpt lat="46.82108" lon="9.40198">
        <ele>619.71</ele>
        <time>2012-08-04T07:34:21Z</time>
      </trkpt>
      <trkpt lat="46.82092" lon="9.40194">
        <ele>621.15</ele>
        <time>2012-08-04T07:34:22Z</time>
      </trkpt>
      <trkpt lat="46.82042" lon="9.40185">
        <ele>624.99</ele>
        <time>2012-08-04T07:34:25Z</time>
      </trkpt>
      <trkpt lat="46.81974" lon="9.40185">
        <ele>628.36</ele>
        <time>2012-08-04T07:34:29Z</time>
      </trkpt>
      <trkpt lat="46.81922" lon="9.40181">
        <ele>632.2</ele>
        <time>2012-08-04T07:34:32Z</time>
      </trkpt>
      <trkpt lat="46.81872" lon="9.4017">
        <ele>635.09</ele>
        <time>2012-08-04T07:34:35Z</time>
      </trkpt>
      <trkpt lat="46.81855" lon="9.40169">
        <ele>635.57</ele>
        <time>2012-08-04T07:34:36Z</time>
      </trkpt>
      <trkpt lat="46.81838" lon="9.40171">
        <ele>636.53</ele>
        <time>2012-08-04T07:34:37Z</time>
      </trkpt>
      <trkpt lat="46.81822" lon="9.40175">
        <ele>637.01</ele>
        <time>2012-08-04T07:34:38Z</time>
      </trkpt>
      <trkpt lat="46.81762" lon="9.40196">
        <ele>637.97</ele>
        <time>2012-08-04T07:34:42Z</time>
      </trkpt>
      <trkpt lat="46.81749" lon="9.40205">
        <ele>637.97</ele>
        <time>2012-08-04T07:34:43Z</time>
      </trkpt>
      <trkpt lat="46.81736" lon="9.40216">
        <ele>639.41</ele>
        <time>2012-08-04T07:34:44Z</time>
      </trkpt>
      <trkpt lat="46.81724" lon="9.4023">
        <ele>640.86</ele>
        <time>2012-08-04T07:34:45Z</time>
      </trkpt>
      <trkpt lat="46.81712" lon="9.40245">
        <ele>640.38</ele>
        <time>2012-08-04T07:34:46Z</time>
      </trkpt>
      <trkpt lat="46.81676" lon="9.40286">
        <ele>642.3</ele>
        <time>2012-08-04T07:34:49Z</time>
      </trkpt>
      <trkpt lat="46.81663" lon="9.40297">
        <ele>643.26</ele>
        <time>2012-08-04T07:34:50Z</time>
      </trkpt>
      <trkpt lat="46.81649" lon="9.40306">
        <ele>643.74</ele>
        <time>2012-08-04T07:34:51Z</time>
      </trkpt>
      <trkpt lat="46.81634" lon="9.40312">
        <ele>644.22</ele>
        <time>2012-08-04T07:34:52Z</time>
      </trkpt>
      <trkpt lat="46.81617" lon="9.40317">
        <ele>645.66</ele>
        <time>2012-08-04T07:34:53Z</time>
      </trkpt>
      <trkpt lat="46.81601" lon="9.4032">
        <ele>646.62</ele>
        <time>2012-08-04T07:34:54Z</time>
      </trkpt>
      <trkpt lat="46.81584" lon="9.40322">
        <ele>647.59</ele>
        <time>2012-08-04T07:34:55Z</time>
      </trkpt>
      <trkpt lat="46.81548" lon="9.40326">
        <ele>650.95</ele>
        <time>2012-08-04T07:34:57Z</time>
      </trkpt>
      <trkpt lat="46.81513" lon="9.40329">
        <ele>653.35</ele>
        <time>2012-08-04T07:34:59Z</time>
      </trkpt>
      <trkpt lat="46.81496" lon="9.40327">
        <ele>653.83</ele>
        <time>2012-08-04T07:35:00Z</time>
      </trkpt>
      <trkpt lat="46.81481" lon="9.40323">
        <ele>654.8</ele>
        <time>2012-08-04T07:35:01Z</time>
      </trkpt>
      <trkpt lat="46.81466" lon="9.40315">
        <ele>655.76</ele>
        <time>2012-08-04T07:35:02Z</time>
      </trkpt>
      <trkpt lat="46.81453" lon="9.40304">
        <ele>656.72</ele>
        <time>2012-08-04T07:35:03Z</time>
      </trkpt>
      <trkpt lat="46.8144" lon="9.40291">
        <ele>658.16</ele>
        <time>2012-08-04T07:35:04Z</time>
      </trkpt>
      <trkpt lat="46.81427" lon="9.40277">
        <ele>659.12</ele>
        <time>2012-08-04T07:35:05Z</time>
      </trkpt>
      <trkpt lat="46.81369" lon="9.40211">
        <ele>663.45</ele>
        <time>2012-08-04T07:35:10Z</time>
      </trkpt>
      <trkpt lat="46.81328" lon="9.40164">
        <ele>666.81</ele>
        <time>2012-08-04T07:35:14Z</time>
      </trkpt>
      <trkpt lat="46.81318" lon="9.40151">
        <ele>666.33</ele>
        <time>2012-08-04T07:35:15Z</time>
      </trkpt>
      <trkpt lat="46.81295" lon="9.4011">
        <ele>667.29</ele>
        <time>2012-08-04T07:35:18Z</time>
      </trkpt>
      <trkpt lat="46.81289" lon="9.40094">
        <ele>667.77</ele>
        <time>2012-08-04T07:35:19Z</time>
      </trkpt>
      <trkpt lat="46.81274" lon="9.40066">
        <ele>668.25</ele>
        <time>2012-08-04T07:35:21Z</time>
      </trkpt>
      <trkpt lat="46.81252" lon="9.40033">
        <ele>668.73</ele>
        <time>2012-08-04T07:35:24Z</time>
      </trkpt>
      <trkpt lat="46.81243" lon="9.40026">
        <ele>668.25</ele>
        <time>2012-08-04T07:35:25Z</time>
      </trkpt>
      <trkpt lat="46.81234" lon="9.4002">
        <ele>668.73</ele>
        <time>2012-08-04T07:35:26Z</time>
      </trkpt>
      <trkpt lat="46.81159" lon="9.39998">
        <ele>670.66</ele>
        <time>2012-08-04T07:35:33Z</time>
      </trkpt>
      <trkpt lat="46.81147" lon="9.39998">
        <ele>671.14</ele>
        <time>2012-08-04T07:35:34Z</time>
      </trkpt>
      <trkpt lat="46.81035" lon="9.3999">
        <ele>673.54</ele>
        <time>2012-08-04T07:35:43Z</time>
      </trkpt>
      <trkpt lat="46.80916" lon="9.39971">
        <ele>670.18</ele>
        <time>2012-08-04T07:35:52Z</time>
      </trkpt>
      <trkpt lat="46.80838" lon="9.39956">
        <ele>673.54</ele>
        <time>2012-08-04T07:35:58Z</time>
      </trkpt>
      <trkpt lat="46.8074" lon="9.39935">
        <ele>675.94</ele>
        <time>2012-08-04T07:36:07Z</time>
      </trkpt>
      <trkpt lat="46.80586" lon="9.3991">
        <ele>674.98</ele>
        <time>2012-08-04T07:36:17Z</time>
      </trkpt>
      <trkpt lat="46.80319" lon="9.39861">
        <ele>674.5</ele>
        <time>2012-08-04T07:36:32Z</time>
      </trkpt>
      <trkpt lat="46.80122" lon="9.39825">
        <ele>676.42</ele>
        <time>2012-08-04T07:36:45Z</time>
      </trkpt>
      <trkpt lat="46.79958" lon="9.39795">
        <ele>674.5</ele>
        <time>2012-08-04T07:36:58Z</time>
      </trkpt>
      <trkpt lat="46.79893" lon="9.39782">
        <ele>672.1</ele>
        <time>2012-08-04T07:37:05Z</time>
      </trkpt>
      <trkpt lat="46.79884" lon="9.39784">
        <ele>672.1</ele>
        <time>2012-08-04T07:37:06Z</time>
      </trkpt>
      <trkpt lat="46.79875" lon="9.39786">
        <ele>672.1</ele>
        <time>2012-08-04T07:37:07Z</time>
      </trkpt>
      <trkpt lat="46.79866" lon="9.3979">
        <ele>671.62</ele>
        <time>2012-08-04T07:37:08Z</time>
      </trkpt>
      <trkpt lat="46.79857" lon="9.39796">
        <ele>671.14</ele>
        <time>2012-08-04T07:37:09Z</time>
      </trkpt>
      <trkpt lat="46.79847" lon="9.39803">
        <ele>671.14</ele>
        <time>2012-08-04T07:37:10Z</time>
      </trkpt>
      <trkpt lat="46.79798" lon="9.39833">
        <ele>669.22</ele>
        <time>2012-08-04T07:37:15Z</time>
      </trkpt>
      <trkpt lat="46.79788" lon="9.39841">
        <ele>669.22</ele>
        <time>2012-08-04T07:37:16Z</time>
      </trkpt>
      <trkpt lat="46.79706" lon="9.39926">
        <ele>670.66</ele>
        <time>2012-08-04T07:37:24Z</time>
      </trkpt>
      <trkpt lat="46.79666" lon="9.3998">
        <ele>673.06</ele>
        <time>2012-08-04T07:37:28Z</time>
      </trkpt>
      <trkpt lat="46.79633" lon="9.40044">
        <ele>676.42</ele>
        <time>2012-08-04T07:37:32Z</time>
      </trkpt>
      <trkpt lat="46.79598" lon="9.4011">
        <ele>679.31</ele>
        <time>2012-08-04T07:37:36Z</time>
      </trkpt>
      <trkpt lat="46.79561" lon="9.4018">
        <ele>682.19</ele>
        <time>2012-08-04T07:37:40Z</time>
      </trkpt>
      <trkpt lat="46.79504" lon="9.40259">
        <ele>684.12</ele>
        <time>2012-08-04T07:37:45Z</time>
      </trkpt>
      <trkpt lat="46.79446" lon="9.40304">
        <ele>684.12</ele>
        <time>2012-08-04T07:37:49Z</time>
      </trkpt>
      <trkpt lat="46.7943" lon="9.40311">
        <ele>683.63</ele>
        <time>2012-08-04T07:37:50Z</time>
      </trkpt>
      <trkpt lat="46.79414" lon="9.40317">
        <ele>684.12</ele>
        <time>2012-08-04T07:37:51Z</time>
      </trkpt>
      <trkpt lat="46.79397" lon="9.40321">
        <ele>684.12</ele>
        <time>2012-08-04T07:37:52Z</time>
      </trkpt>
      <trkpt lat="46.79381" lon="9.40324">
        <ele>684.12</ele>
        <time>2012-08-04T07:37:53Z</time>
      </trkpt>
      <trkpt lat="46.79364" lon="9.40325">
        <ele>683.15</ele>
        <time>2012-08-04T07:37:54Z</time>
      </trkpt>
      <trkpt lat="46.79221" lon="9.40324">
        <ele>684.6</ele>
        <time>2012-08-04T07:38:02Z</time>
      </trkpt>
      <trkpt lat="46.7917" lon="9.40345">
        <ele>686.52</ele>
        <time>2012-08-04T07:38:05Z</time>
      </trkpt>
      <trkpt lat="46.79093" lon="9.40413">
        <ele>689.88</ele>
        <time>2012-08-04T07:38:10Z</time>
      </trkpt>
      <trkpt lat="46.79078" lon="9.40428">
        <ele>689.88</ele>
        <time>2012-08-04T07:38:11Z</time>
      </trkpt>
      <trkpt lat="46.79035" lon="9.40475">
        <ele>691.81</ele>
        <time>2012-08-04T07:38:14Z</time>
      </trkpt>
      <trkpt lat="46.78934" lon="9.40555">
        <ele>688.44</ele>
        <time>2012-08-04T07:38:21Z</time>
      </trkpt>
      <trkpt lat="46.78901" lon="9.40566">
        <ele>686.52</ele>
        <time>2012-08-04T07:38:23Z</time>
      </trkpt>
      <trkpt lat="46.78884" lon="9.40569">
        <ele>686.04</ele>
        <time>2012-08-04T07:38:24Z</time>
      </trkpt>
      <trkpt lat="46.78829" lon="9.40569">
        <ele>682.67</ele>
        <time>2012-08-04T07:38:27Z</time>
      </trkpt>
      <trkpt lat="46.78778" lon="9.40568">
        <ele>679.79</ele>
        <time>2012-08-04T07:38:30Z</time>
      </trkpt>
      <trkpt lat="46.78762" lon="9.40568">
        <ele>679.79</ele>
        <time>2012-08-04T07:38:31Z</time>
      </trkpt>
      <trkpt lat="46.78719" lon="9.40566">
        <ele>676.42</ele>
        <time>2012-08-04T07:38:34Z</time>
      </trkpt>
      <trkpt lat="46.78668" lon="9.40563">
        <ele>673.06</ele>
        <time>2012-08-04T07:38:38Z</time>
      </trkpt>
      <trkpt lat="46.78566" lon="9.4057">
        <ele>670.18</ele>
        <time>2012-08-04T07:38:45Z</time>
      </trkpt>
      <trkpt lat="46.78465" lon="9.40642">
        <ele>669.22</ele>
        <time>2012-08-04T07:38:51Z</time>
      </trkpt>
      <trkpt lat="46.78451" lon="9.40658">
        <ele>668.73</ele>
        <time>2012-08-04T07:38:52Z</time>
      </trkpt>
      <trkpt lat="46.78426" lon="9.4069">
        <ele>667.77</ele>
        <time>2012-08-04T07:38:54Z</time>
      </trkpt>
      <trkpt lat="46.78345" lon="9.40781">
        <ele>668.25</ele>
        <time>2012-08-04T07:39:01Z</time>
      </trkpt>
      <trkpt lat="46.7833" lon="9.40791">
        <ele>668.25</ele>
        <time>2012-08-04T07:39:02Z</time>
      </trkpt>
      <trkpt lat="46.78314" lon="9.40799">
        <ele>668.25</ele>
        <time>2012-08-04T07:39:03Z</time>
      </trkpt>
      <trkpt lat="46.78152" lon="9.40855">
        <ele>671.62</ele>
        <time>2012-08-04T07:39:12Z</time>
      </trkpt>
      <trkpt lat="46.78041" lon="9.40876">
        <ele>671.14</ele>
        <time>2012-08-04T07:39:18Z</time>
      </trkpt>
      <trkpt lat="46.77896" lon="9.40908">
        <ele>668.73</ele>
        <time>2012-08-04T07:39:27Z</time>
      </trkpt>
      <trkpt lat="46.77886" lon="9.40914">
        <ele>669.22</ele>
        <time>2012-08-04T07:39:28Z</time>
      </trkpt>
      <trkpt lat="46.77877" lon="9.40921">
        <ele>668.73</ele>
        <time>2012-08-04T07:39:29Z</time>
      </trkpt>
      <trkpt lat="46.77869" lon="9.40928">
        <ele>668.73</ele>
        <time>2012-08-04T07:39:30Z</time>
      </trkpt>
      <trkpt lat="46.77862" lon="9.40935">
        <ele>668.25</ele>
        <time>2012-08-04T07:39:31Z</time>
      </trkpt>
      <trkpt lat="46.77847" lon="9.4095">
        <ele>667.77</ele>
        <time>2012-08-04T07:39:34Z</time>
      </trkpt>
      <trkpt lat="46.77834" lon="9.40966">
        <ele>667.77</ele>
        <time>2012-08-04T07:39:43Z</time>
      </trkpt>
      <trkpt lat="46.77834" lon="9.40965">
        <ele>667.29</ele>
        <time>2012-08-04T07:40:14Z</time>
      </trkpt>
      <trkpt lat="46.77831" lon="9.40972">
        <ele>667.77</ele>
        <time>2012-08-04T07:40:16Z</time>
      </trkpt>
      <trkpt lat="46.77828" lon="9.40979">
        <ele>668.73</ele>
        <time>2012-08-04T07:40:17Z</time>
      </trkpt>
      <trkpt lat="46.77824" lon="9.40989">
        <ele>668.73</ele>
        <time>2012-08-04T07:40:18Z</time>
      </trkpt>
      <trkpt lat="46.77818" lon="9.41001">
        <ele>669.22</ele>
        <time>2012-08-04T07:40:19Z</time>
      </trkpt>
      <trkpt lat="46.77811" lon="9.41013">
        <ele>670.18</ele>
        <time>2012-08-04T07:40:20Z</time>
      </trkpt>
      <trkpt lat="46.77803" lon="9.41027">
        <ele>670.18</ele>
        <time>2012-08-04T07:40:21Z</time>
      </trkpt>
      <trkpt lat="46.77787" lon="9.41058">
        <ele>672.1</ele>
        <time>2012-08-04T07:40:23Z</time>
      </trkpt>
      <trkpt lat="46.77767" lon="9.41091">
        <ele>673.06</ele>
        <time>2012-08-04T07:40:25Z</time>
      </trkpt>
      <trkpt lat="46.77674" lon="9.4122">
        <ele>669.22</ele>
        <time>2012-08-04T07:40:33Z</time>
      </trkpt>
      <trkpt lat="46.77636" lon="9.41273">
        <ele>665.85</ele>
        <time>2012-08-04T07:40:36Z</time>
      </trkpt>
      <trkpt lat="46.77611" lon="9.41307">
        <ele>665.37</ele>
        <time>2012-08-04T07:40:38Z</time>
      </trkpt>
      <trkpt lat="46.77527" lon="9.41465">
        <ele>662.49</ele>
        <time>2012-08-04T07:40:46Z</time>
      </trkpt>
      <trkpt lat="46.77431" lon="9.41682">
        <ele>659.6</ele>
        <time>2012-08-04T07:40:56Z</time>
      </trkpt>
      <trkpt lat="46.77391" lon="9.4177">
        <ele>657.2</ele>
        <time>2012-08-04T07:41:01Z</time>
      </trkpt>
      <trkpt lat="46.77382" lon="9.41784">
        <ele>657.68</ele>
        <time>2012-08-04T07:41:02Z</time>
      </trkpt>
      <trkpt lat="46.77371" lon="9.41797">
        <ele>657.68</ele>
        <time>2012-08-04T07:41:03Z</time>
      </trkpt>
      <trkpt lat="46.7736" lon="9.41807">
        <ele>657.2</ele>
        <time>2012-08-04T07:41:04Z</time>
      </trkpt>
      <trkpt lat="46.77346" lon="9.41814">
        <ele>657.2</ele>
        <time>2012-08-04T07:41:05Z</time>
      </trkpt>
      <trkpt lat="46.77331" lon="9.4182">
        <ele>656.72</ele>
        <time>2012-08-04T07:41:06Z</time>
      </trkpt>
      <trkpt lat="46.7727" lon="9.41848">
        <ele>656.72</ele>
        <time>2012-08-04T07:41:10Z</time>
      </trkpt>
      <trkpt lat="46.77256" lon="9.41858">
        <ele>655.76</ele>
        <time>2012-08-04T07:41:11Z</time>
      </trkpt>
      <trkpt lat="46.77243" lon="9.41871">
        <ele>656.24</ele>
        <time>2012-08-04T07:41:12Z</time>
      </trkpt>
      <trkpt lat="46.77207" lon="9.41906">
        <ele>655.28</ele>
        <time>2012-08-04T07:41:15Z</time>
      </trkpt>
      <trkpt lat="46.77194" lon="9.41914">
        <ele>654.8</ele>
        <time>2012-08-04T07:41:16Z</time>
      </trkpt>
      <trkpt lat="46.77144" lon="9.41931">
        <ele>653.83</ele>
        <time>2012-08-04T07:41:19Z</time>
      </trkpt>
      <trkpt lat="46.7709" lon="9.4194">
        <ele>650.47</ele>
        <time>2012-08-04T07:41:22Z</time>
      </trkpt>
      <trkpt lat="46.77054" lon="9.41944">
        <ele>647.1</ele>
        <time>2012-08-04T07:41:24Z</time>
      </trkpt>
      <trkpt lat="46.76999" lon="9.41949">
        <ele>643.74</ele>
        <time>2012-08-04T07:41:27Z</time>
      </trkpt>
      <trkpt lat="46.76981" lon="9.4195">
        <ele>643.26</ele>
        <time>2012-08-04T07:41:28Z</time>
      </trkpt>
      <trkpt lat="46.76946" lon="9.4195">
        <ele>642.3</ele>
        <time>2012-08-04T07:41:30Z</time>
      </trkpt>
      <trkpt lat="46.76838" lon="9.41939">
        <ele>645.18</ele>
        <time>2012-08-04T07:41:36Z</time>
      </trkpt>
      <trkpt lat="46.76733" lon="9.41918">
        <ele>647.59</ele>
        <time>2012-08-04T07:41:42Z</time>
      </trkpt>
      <trkpt lat="46.76717" lon="9.41908">
        <ele>648.07</ele>
        <time>2012-08-04T07:41:43Z</time>
      </trkpt>
      <trkpt lat="46.76701" lon="9.41897">
        <ele>648.55</ele>
        <time>2012-08-04T07:41:44Z</time>
      </trkpt>
      <trkpt lat="46.76686" lon="9.41883">
        <ele>648.55</ele>
        <time>2012-08-04T07:41:45Z</time>
      </trkpt>
      <trkpt lat="46.76671" lon="9.41867">
        <ele>648.55</ele>
        <time>2012-08-04T07:41:46Z</time>
      </trkpt>
      <trkpt lat="46.76658" lon="9.41849">
        <ele>649.51</ele>
        <time>2012-08-04T07:41:47Z</time>
      </trkpt>
      <trkpt lat="46.76645" lon="9.4183">
        <ele>649.99</ele>
        <time>2012-08-04T07:41:48Z</time>
      </trkpt>
      <trkpt lat="46.76606" lon="9.41781">
        <ele>649.03</ele>
        <time>2012-08-04T07:41:51Z</time>
      </trkpt>
      <trkpt lat="46.7659" lon="9.41769">
        <ele>648.55</ele>
        <time>2012-08-04T07:41:52Z</time>
      </trkpt>
      <trkpt lat="46.765" lon="9.41717">
        <ele>645.66</ele>
        <time>2012-08-04T07:41:58Z</time>
      </trkpt>
      <trkpt lat="46.76482" lon="9.41716">
        <ele>645.18</ele>
        <time>2012-08-04T07:41:59Z</time>
      </trkpt>
      <trkpt lat="46.76468" lon="9.41718">
        <ele>645.18</ele>
        <time>2012-08-04T07:42:00Z</time>
      </trkpt>
      <trkpt lat="46.76454" lon="9.41724">
        <ele>645.18</ele>
        <time>2012-08-04T07:42:01Z</time>
      </trkpt>
      <trkpt lat="46.76439" lon="9.41734">
        <ele>645.18</ele>
        <time>2012-08-04T07:42:02Z</time>
      </trkpt>
      <trkpt lat="46.76424" lon="9.41746">
        <ele>645.66</ele>
        <time>2012-08-04T07:42:03Z</time>
      </trkpt>
      <trkpt lat="46.76409" lon="9.4176">
        <ele>646.14</ele>
        <time>2012-08-04T07:42:04Z</time>
      </trkpt>
      <trkpt lat="46.76287" lon="9.4183">
        <ele>645.18</ele>
        <time>2012-08-04T07:42:11Z</time>
      </trkpt>
      <trkpt lat="46.76044" lon="9.41902">
        <ele>645.66</ele>
        <time>2012-08-04T07:42:24Z</time>
      </trkpt>
      <trkpt lat="46.75866" lon="9.42009">
        <ele>644.22</ele>
        <time>2012-08-04T07:42:34Z</time>
      </trkpt>
      <trkpt lat="46.75774" lon="9.4207">
        <ele>642.3</ele>
        <time>2012-08-04T07:42:40Z</time>
      </trkpt>
      <trkpt lat="46.75616" lon="9.42176">
        <ele>645.18</ele>
        <time>2012-08-04T07:42:52Z</time>
      </trkpt>
      <trkpt lat="46.75436" lon="9.42297">
        <ele>646.62</ele>
        <time>2012-08-04T07:43:05Z</time>
      </trkpt>
      <trkpt lat="46.75311" lon="9.42333">
        <ele>645.66</ele>
        <time>2012-08-04T07:43:13Z</time>
      </trkpt>
      <trkpt lat="46.75143" lon="9.42397">
        <ele>645.66</ele>
        <time>2012-08-04T07:43:24Z</time>
      </trkpt>
      <trkpt lat="46.75061" lon="9.42435">
        <ele>647.59</ele>
        <time>2012-08-04T07:43:29Z</time>
      </trkpt>
      <trkpt lat="46.74733" lon="9.42565">
        <ele>649.99</ele>
        <time>2012-08-04T07:43:47Z</time>
      </trkpt>
      <trkpt lat="46.74448" lon="9.42625">
        <ele>651.43</ele>
        <time>2012-08-04T07:44:02Z</time>
      </trkpt>
      <trkpt lat="46.74251" lon="9.42637">
        <ele>652.87</ele>
        <time>2012-08-04T07:44:12Z</time>
      </trkpt>
      <trkpt lat="46.73997" lon="9.4265">
        <ele>654.31</ele>
        <time>2012-08-04T07:44:25Z</time>
      </trkpt>
      <trkpt lat="46.7394" lon="9.42639">
        <ele>655.76</ele>
        <time>2012-08-04T07:44:28Z</time>
      </trkpt>
      <trkpt lat="46.73921" lon="9.42631">
        <ele>655.76</ele>
        <time>2012-08-04T07:44:29Z</time>
      </trkpt>
      <trkpt lat="46.73767" lon="9.42559">
        <ele>658.16</ele>
        <time>2012-08-04T07:44:37Z</time>
      </trkpt>
      <trkpt lat="46.73592" lon="9.42496">
        <ele>661.52</ele>
        <time>2012-08-04T07:44:46Z</time>
      </trkpt>
      <trkpt lat="46.73496" lon="9.4251">
        <ele>664.89</ele>
        <time>2012-08-04T07:44:51Z</time>
      </trkpt>
      <trkpt lat="46.73418" lon="9.42527">
        <ele>668.25</ele>
        <time>2012-08-04T07:44:55Z</time>
      </trkpt>
      <trkpt lat="46.7332" lon="9.42549">
        <ele>671.62</ele>
        <time>2012-08-04T07:45:00Z</time>
      </trkpt>
      <trkpt lat="46.733" lon="9.42553">
        <ele>671.62</ele>
        <time>2012-08-04T07:45:01Z</time>
      </trkpt>
      <trkpt lat="46.73241" lon="9.42566">
        <ele>673.06</ele>
        <time>2012-08-04T07:45:04Z</time>
      </trkpt>
      <trkpt lat="46.73068" lon="9.42605">
        <ele>670.18</ele>
        <time>2012-08-04T07:45:13Z</time>
      </trkpt>
      <trkpt lat="46.72993" lon="9.42622">
        <ele>667.77</ele>
        <time>2012-08-04T07:45:17Z</time>
      </trkpt>
      <trkpt lat="46.72656" lon="9.42695">
        <ele>664.89</ele>
        <time>2012-08-04T07:45:35Z</time>
      </trkpt>
      <trkpt lat="46.72554" lon="9.42717">
        <ele>662.49</ele>
        <time>2012-08-04T07:45:42Z</time>
      </trkpt>
      <trkpt lat="46.72414" lon="9.42748">
        <ele>665.85</ele>
        <time>2012-08-04T07:45:54Z</time>
      </trkpt>
      <trkpt lat="46.72293" lon="9.428">
        <ele>669.22</ele>
        <time>2012-08-04T07:46:04Z</time>
      </trkpt>
      <trkpt lat="46.72236" lon="9.42836">
        <ele>672.1</ele>
        <time>2012-08-04T07:46:09Z</time>
      </trkpt>
      <trkpt lat="46.72225" lon="9.42842">
        <ele>672.1</ele>
        <time>2012-08-04T07:46:10Z</time>
      </trkpt>
      <trkpt lat="46.72205" lon="9.42857">
        <ele>673.06</ele>
        <time>2012-08-04T07:46:12Z</time>
      </trkpt>
      <trkpt lat="46.72196" lon="9.42866">
        <ele>673.54</ele>
        <time>2012-08-04T07:46:13Z</time>
      </trkpt>
      <trkpt lat="46.72189" lon="9.42878">
        <ele>674.02</ele>
        <time>2012-08-04T07:46:14Z</time>
      </trkpt>
      <trkpt lat="46.72182" lon="9.42892">
        <ele>674.02</ele>
        <time>2012-08-04T07:46:15Z</time>
      </trkpt>
      <trkpt lat="46.72176" lon="9.42908">
        <ele>674.5</ele>
        <time>2012-08-04T07:46:16Z</time>
      </trkpt>
      <trkpt lat="46.7217" lon="9.42926">
        <ele>674.5</ele>
        <time>2012-08-04T07:46:17Z</time>
      </trkpt>
      <trkpt lat="46.72153" lon="9.42972">
        <ele>674.5</ele>
        <time>2012-08-04T07:46:20Z</time>
      </trkpt>
      <trkpt lat="46.7214" lon="9.42997">
        <ele>674.02</ele>
        <time>2012-08-04T07:46:22Z</time>
      </trkpt>
      <trkpt lat="46.7213" lon="9.43005">
        <ele>674.02</ele>
        <time>2012-08-04T07:46:23Z</time>
      </trkpt>
      <trkpt lat="46.72119" lon="9.4301">
        <ele>674.5</ele>
        <time>2012-08-04T07:46:24Z</time>
      </trkpt>
      <trkpt lat="46.72107" lon="9.43013">
        <ele>674.98</ele>
        <time>2012-08-04T07:46:25Z</time>
      </trkpt>
      <trkpt lat="46.72095" lon="9.43015">
        <ele>674.5</ele>
        <time>2012-08-04T07:46:26Z</time>
      </trkpt>
      <trkpt lat="46.72002" lon="9.43016">
        <ele>677.87</ele>
        <time>2012-08-04T07:46:33Z</time>
      </trkpt>
      <trkpt lat="46.71933" lon="9.43022">
        <ele>680.75</ele>
        <time>2012-08-04T07:46:38Z</time>
      </trkpt>
      <trkpt lat="46.71757" lon="9.4309">
        <ele>683.15</ele>
        <time>2012-08-04T07:46:50Z</time>
      </trkpt>
      <trkpt lat="46.71655" lon="9.43136">
        <ele>687</ele>
        <time>2012-08-04T07:46:57Z</time>
      </trkpt>
      <trkpt lat="46.71626" lon="9.43155">
        <ele>688.92</ele>
        <time>2012-08-04T07:46:59Z</time>
      </trkpt>
      <trkpt lat="46.71573" lon="9.43204">
        <ele>692.77</ele>
        <time>2012-08-04T07:47:03Z</time>
      </trkpt>
      <trkpt lat="46.71561" lon="9.43216">
        <ele>692.77</ele>
        <time>2012-08-04T07:47:04Z</time>
      </trkpt>
      <trkpt lat="46.71498" lon="9.43279">
        <ele>696.13</ele>
        <time>2012-08-04T07:47:10Z</time>
      </trkpt>
      <trkpt lat="46.71456" lon="9.4332">
        <ele>699.02</ele>
        <time>2012-08-04T07:47:14Z</time>
      </trkpt>
      <trkpt lat="46.71403" lon="9.43374">
        <ele>702.38</ele>
        <time>2012-08-04T07:47:19Z</time>
      </trkpt>
      <trkpt lat="46.71336" lon="9.4344">
        <ele>705.75</ele>
        <time>2012-08-04T07:47:25Z</time>
      </trkpt>
      <trkpt lat="46.71302" lon="9.43472">
        <ele>706.71</ele>
        <time>2012-08-04T07:47:28Z</time>
      </trkpt>
      <trkpt lat="46.71159" lon="9.43593">
        <ele>706.71</ele>
        <time>2012-08-04T07:47:40Z</time>
      </trkpt>
      <trkpt lat="46.71113" lon="9.43618">
        <ele>702.38</ele>
        <time>2012-08-04T07:47:44Z</time>
      </trkpt>
      <trkpt lat="46.71094" lon="9.43623">
        <ele>700.46</ele>
        <time>2012-08-04T07:47:46Z</time>
      </trkpt>
      <trkpt lat="46.71085" lon="9.43625">
        <ele>699.98</ele>
        <time>2012-08-04T07:47:47Z</time>
      </trkpt>
      <trkpt lat="46.71076" lon="9.43629">
        <ele>699.98</ele>
        <time>2012-08-04T07:47:48Z</time>
      </trkpt>
      <trkpt lat="46.71067" lon="9.43636">
        <ele>699.5</ele>
        <time>2012-08-04T07:47:49Z</time>
      </trkpt>
      <trkpt lat="46.71057" lon="9.43644">
        <ele>699.98</ele>
        <time>2012-08-04T07:47:50Z</time>
      </trkpt>
      <trkpt lat="46.71045" lon="9.43652">
        <ele>699.5</ele>
        <time>2012-08-04T07:47:51Z</time>
      </trkpt>
      <trkpt lat="46.71032" lon="9.43658">
        <ele>699.02</ele>
        <time>2012-08-04T07:47:52Z</time>
      </trkpt>
      <trkpt lat="46.7096" lon="9.43696">
        <ele>696.61</ele>
        <time>2012-08-04T07:47:57Z</time>
      </trkpt>
      <trkpt lat="46.70751" lon="9.43801">
        <ele>695.65</ele>
        <time>2012-08-04T07:48:11Z</time>
      </trkpt>
      <trkpt lat="46.70558" lon="9.43888">
        <ele>695.65</ele>
        <time>2012-08-04T07:48:23Z</time>
      </trkpt>
      <trkpt lat="46.70475" lon="9.43928">
        <ele>699.02</ele>
        <time>2012-08-04T07:48:28Z</time>
      </trkpt>
      <trkpt lat="46.70408" lon="9.43951">
        <ele>701.9</ele>
        <time>2012-08-04T07:48:32Z</time>
      </trkpt>
      <trkpt lat="46.70339" lon="9.43956">
        <ele>705.26</ele>
        <time>2012-08-04T07:48:36Z</time>
      </trkpt>
      <trkpt lat="46.70264" lon="9.43958">
        <ele>707.67</ele>
        <time>2012-08-04T07:48:41Z</time>
      </trkpt>
      <trkpt lat="46.70223" lon="9.43959">
        <ele>709.59</ele>
        <time>2012-08-04T07:48:44Z</time>
      </trkpt>
      <trkpt lat="46.70169" lon="9.4396">
        <ele>712.95</ele>
        <time>2012-08-04T07:48:48Z</time>
      </trkpt>
      <trkpt lat="46.70094" lon="9.43954">
        <ele>716.32</ele>
        <time>2012-08-04T07:48:54Z</time>
      </trkpt>
      <trkpt lat="46.70023" lon="9.43942">
        <ele>720.16</ele>
        <time>2012-08-04T07:49:00Z</time>
      </trkpt>
      <trkpt lat="46.69949" lon="9.43961">
        <ele>723.53</ele>
        <time>2012-08-04T07:49:07Z</time>
      </trkpt>
      <trkpt lat="46.69848" lon="9.4396">
        <ele>725.45</ele>
        <time>2012-08-04T07:49:18Z</time>
      </trkpt>
      <trkpt lat="46.69727" lon="9.43953">
        <ele>727.86</ele>
        <time>2012-08-04T07:49:32Z</time>
      </trkpt>
      <trkpt lat="46.69642" lon="9.43951">
        <ele>729.78</ele>
        <time>2012-08-04T07:49:43Z</time>
      </trkpt>
      <trkpt lat="46.6956" lon="9.43946">
        <ele>732.18</ele>
        <time>2012-08-04T07:49:54Z</time>
      </trkpt>
      <trkpt lat="46.69484" lon="9.43943">
        <ele>733.62</ele>
        <time>2012-08-04T07:50:04Z</time>
      </trkpt>
      <trkpt lat="46.69454" lon="9.43945">
        <ele>734.1</ele>
        <time>2012-08-04T07:50:08Z</time>
      </trkpt>
      <trkpt lat="46.69406" lon="9.43957">
        <ele>732.18</ele>
        <time>2012-08-04T07:50:14Z</time>
      </trkpt>
      <trkpt lat="46.694" lon="9.43961">
        <ele>732.18</ele>
        <time>2012-08-04T07:50:15Z</time>
      </trkpt>
      <trkpt lat="46.69393" lon="9.43966">
        <ele>732.18</ele>
        <time>2012-08-04T07:50:16Z</time>
      </trkpt>
      <trkpt lat="46.69388" lon="9.43972">
        <ele>731.7</ele>
        <time>2012-08-04T07:50:17Z</time>
      </trkpt>
      <trkpt lat="46.69382" lon="9.43978">
        <ele>731.22</ele>
        <time>2012-08-04T07:50:18Z</time>
      </trkpt>
      <trkpt lat="46.69376" lon="9.43982">
        <ele>730.74</ele>
        <time>2012-08-04T07:50:19Z</time>
      </trkpt>
      <trkpt lat="46.6937" lon="9.43985">
        <ele>730.26</ele>
        <time>2012-08-04T07:50:20Z</time>
      </trkpt>
      <trkpt lat="46.69365" lon="9.43988">
        <ele>730.26</ele>
        <time>2012-08-04T07:50:21Z</time>
      </trkpt>
      <trkpt lat="46.6936" lon="9.43995">
        <ele>730.74</ele>
        <time>2012-08-04T07:50:22Z</time>
      </trkpt>
      <trkpt lat="46.69356" lon="9.44004">
        <ele>730.26</ele>
        <time>2012-08-04T07:50:23Z</time>
      </trkpt>
      <trkpt lat="46.69352" lon="9.44014">
        <ele>731.22</ele>
        <time>2012-08-04T07:50:24Z</time>
      </trkpt>
      <trkpt lat="46.69346" lon="9.44024">
        <ele>731.22</ele>
        <time>2012-08-04T07:50:25Z</time>
      </trkpt>
      <trkpt lat="46.69339" lon="9.44033">
        <ele>731.22</ele>
        <time>2012-08-04T07:50:26Z</time>
      </trkpt>
      <trkpt lat="46.69332" lon="9.44041">
        <ele>731.22</ele>
        <time>2012-08-04T07:50:27Z</time>
      </trkpt>
      <trkpt lat="46.69304" lon="9.44069">
        <ele>732.18</ele>
        <time>2012-08-04T07:50:31Z</time>
      </trkpt>
      <trkpt lat="46.69296" lon="9.44074">
        <ele>731.7</ele>
        <time>2012-08-04T07:50:32Z</time>
      </trkpt>
      <trkpt lat="46.69285" lon="9.44077">
        <ele>732.18</ele>
        <time>2012-08-04T07:50:33Z</time>
      </trkpt>
      <trkpt lat="46.69276" lon="9.44079">
        <ele>732.66</ele>
        <time>2012-08-04T07:50:34Z</time>
      </trkpt>
      <trkpt lat="46.69266" lon="9.44078">
        <ele>733.14</ele>
        <time>2012-08-04T07:50:35Z</time>
      </trkpt>
      <trkpt lat="46.69253" lon="9.44072">
        <ele>733.14</ele>
        <time>2012-08-04T07:50:36Z</time>
      </trkpt>
      <trkpt lat="46.6924" lon="9.44065">
        <ele>734.1</ele>
        <time>2012-08-04T07:50:37Z</time>
      </trkpt>
      <trkpt lat="46.69187" lon="9.44034">
        <ele>737.95</ele>
        <time>2012-08-04T07:50:41Z</time>
      </trkpt>
      <trkpt lat="46.69175" lon="9.44028">
        <ele>737.95</ele>
        <time>2012-08-04T07:50:42Z</time>
      </trkpt>
      <trkpt lat="46.69127" lon="9.44013">
        <ele>741.31</ele>
        <time>2012-08-04T07:50:46Z</time>
      </trkpt>
      <trkpt lat="46.69115" lon="9.44013">
        <ele>742.28</ele>
        <time>2012-08-04T07:50:47Z</time>
      </trkpt>
      <trkpt lat="46.69102" lon="9.44015">
        <ele>742.76</ele>
        <time>2012-08-04T07:50:48Z</time>
      </trkpt>
      <trkpt lat="46.6909" lon="9.44018">
        <ele>744.68</ele>
        <time>2012-08-04T07:50:49Z</time>
      </trkpt>
      <trkpt lat="46.69077" lon="9.44023">
        <ele>746.12</ele>
        <time>2012-08-04T07:50:50Z</time>
      </trkpt>
      <trkpt lat="46.69066" lon="9.4403">
        <ele>746.6</ele>
        <time>2012-08-04T07:50:51Z</time>
      </trkpt>
      <trkpt lat="46.69054" lon="9.44038">
        <ele>747.56</ele>
        <time>2012-08-04T07:50:52Z</time>
      </trkpt>
      <trkpt lat="46.69042" lon="9.44047">
        <ele>749</ele>
        <time>2012-08-04T07:50:53Z</time>
      </trkpt>
      <trkpt lat="46.69031" lon="9.44058">
        <ele>750.45</ele>
        <time>2012-08-04T07:50:54Z</time>
      </trkpt>
      <trkpt lat="46.68998" lon="9.44091">
        <ele>753.81</ele>
        <time>2012-08-04T07:50:57Z</time>
      </trkpt>
      <trkpt lat="46.68969" lon="9.44121">
        <ele>757.18</ele>
        <time>2012-08-04T07:51:00Z</time>
      </trkpt>
      <trkpt lat="46.68969" lon="9.44127">
        <ele>759.58</ele>
        <time>2012-08-04T07:51:02Z</time>
      </trkpt>
      <trkpt lat="46.68967" lon="9.44129">
        <ele>762.94</ele>
        <time>2012-08-04T07:51:05Z</time>
      </trkpt>
      <trkpt lat="46.68964" lon="9.44132">
        <ele>766.31</ele>
        <time>2012-08-04T07:51:08Z</time>
      </trkpt>
      <trkpt lat="46.68962" lon="9.44135">
        <ele>769.67</ele>
        <time>2012-08-04T07:51:11Z</time>
      </trkpt>
      <trkpt lat="46.6896" lon="9.44138">
        <ele>773.52</ele>
        <time>2012-08-04T07:51:15Z</time>
      </trkpt>
      <trkpt lat="46.68958" lon="9.4414">
        <ele>776.4</ele>
        <time>2012-08-04T07:51:18Z</time>
      </trkpt>
      <trkpt lat="46.68817" lon="9.4434">
        <ele>777.84</ele>
        <time>2012-08-04T07:51:19Z</time>
      </trkpt>
      <trkpt lat="46.68779" lon="9.44372">
        <ele>781.21</ele>
        <time>2012-08-04T07:51:22Z</time>
      </trkpt>
      <trkpt lat="46.68767" lon="9.44379">
        <ele>782.17</ele>
        <time>2012-08-04T07:51:23Z</time>
      </trkpt>
      <trkpt lat="46.68744" lon="9.44394">
        <ele>785.05</ele>
        <time>2012-08-04T07:51:25Z</time>
      </trkpt>
      <trkpt lat="46.68733" lon="9.44407">
        <ele>786.5</ele>
        <time>2012-08-04T07:51:26Z</time>
      </trkpt>
      <trkpt lat="46.68709" lon="9.44436">
        <ele>789.38</ele>
        <time>2012-08-04T07:51:28Z</time>
      </trkpt>
      <trkpt lat="46.68685" lon="9.44462">
        <ele>792.26</ele>
        <time>2012-08-04T07:51:30Z</time>
      </trkpt>
      <trkpt lat="46.68671" lon="9.44472">
        <ele>793.71</ele>
        <time>2012-08-04T07:51:31Z</time>
      </trkpt>
      <trkpt lat="46.68644" lon="9.44487">
        <ele>795.63</ele>
        <time>2012-08-04T07:51:33Z</time>
      </trkpt>
      <trkpt lat="46.68629" lon="9.44492">
        <ele>796.59</ele>
        <time>2012-08-04T07:51:34Z</time>
      </trkpt>
      <trkpt lat="46.68584" lon="9.44505">
        <ele>799.95</ele>
        <time>2012-08-04T07:51:37Z</time>
      </trkpt>
      <trkpt lat="46.6854" lon="9.44517">
        <ele>804.76</ele>
        <time>2012-08-04T07:51:40Z</time>
      </trkpt>
      <trkpt lat="46.68493" lon="9.4453">
        <ele>809.09</ele>
        <time>2012-08-04T07:51:43Z</time>
      </trkpt>
      <trkpt lat="46.68461" lon="9.44541">
        <ele>812.45</ele>
        <time>2012-08-04T07:51:45Z</time>
      </trkpt>
      <trkpt lat="46.68445" lon="9.44549">
        <ele>813.41</ele>
        <time>2012-08-04T07:51:46Z</time>
      </trkpt>
      <trkpt lat="46.6843" lon="9.44557">
        <ele>814.85</ele>
        <time>2012-08-04T07:51:47Z</time>
      </trkpt>
      <trkpt lat="46.68415" lon="9.44568">
        <ele>815.82</ele>
        <time>2012-08-04T07:51:48Z</time>
      </trkpt>
      <trkpt lat="46.68401" lon="9.44581">
        <ele>817.74</ele>
        <time>2012-08-04T07:51:49Z</time>
      </trkpt>
      <trkpt lat="46.68389" lon="9.44596">
        <ele>818.7</ele>
        <time>2012-08-04T07:51:50Z</time>
      </trkpt>
      <trkpt lat="46.68366" lon="9.44628">
        <ele>822.06</ele>
        <time>2012-08-04T07:51:52Z</time>
      </trkpt>
      <trkpt lat="46.68329" lon="9.44673">
        <ele>825.91</ele>
        <time>2012-08-04T07:51:55Z</time>
      </trkpt>
      <trkpt lat="46.68308" lon="9.44699">
        <ele>828.31</ele>
        <time>2012-08-04T07:51:57Z</time>
      </trkpt>
      <trkpt lat="46.6827" lon="9.44747">
        <ele>832.16</ele>
        <time>2012-08-04T07:52:00Z</time>
      </trkpt>
      <trkpt lat="46.68245" lon="9.44773">
        <ele>834.56</ele>
        <time>2012-08-04T07:52:02Z</time>
      </trkpt>
      <trkpt lat="46.68215" lon="9.44804">
        <ele>837.45</ele>
        <time>2012-08-04T07:52:04Z</time>
      </trkpt>
      <trkpt lat="46.68239" lon="9.44814">
        <ele>837.93</ele>
        <time>2012-08-04T07:52:05Z</time>
      </trkpt>
      <trkpt lat="46.68235" lon="9.44816">
        <ele>841.29</ele>
        <time>2012-08-04T07:52:07Z</time>
      </trkpt>
      <trkpt lat="46.68233" lon="9.44817">
        <ele>842.73</ele>
        <time>2012-08-04T07:52:09Z</time>
      </trkpt>
      <trkpt lat="46.68228" lon="9.44819">
        <ele>845.62</ele>
        <time>2012-08-04T07:52:12Z</time>
      </trkpt>
      <trkpt lat="46.68218" lon="9.44824">
        <ele>848.98</ele>
        <time>2012-08-04T07:52:15Z</time>
      </trkpt>
      <trkpt lat="46.68224" lon="9.44821">
        <ele>849.46</ele>
        <time>2012-08-04T07:52:16Z</time>
      </trkpt>
      <trkpt lat="46.68222" lon="9.44822">
        <ele>852.35</ele>
        <time>2012-08-04T07:52:19Z</time>
      </trkpt>
      <trkpt lat="46.68221" lon="9.44823">
        <ele>853.79</ele>
        <time>2012-08-04T07:52:20Z</time>
      </trkpt>
      <trkpt lat="46.68207" lon="9.44829">
        <ele>857.15</ele>
        <time>2012-08-04T07:52:23Z</time>
      </trkpt>
      <trkpt lat="46.68216" lon="9.44825">
        <ele>858.11</ele>
        <time>2012-08-04T07:52:24Z</time>
      </trkpt>
      <trkpt lat="46.68213" lon="9.44826">
        <ele>861</ele>
        <time>2012-08-04T07:52:27Z</time>
      </trkpt>
      <trkpt lat="46.68203" lon="9.44831">
        <ele>864.36</ele>
        <time>2012-08-04T07:52:31Z</time>
      </trkpt>
      <trkpt lat="46.68206" lon="9.4483">
        <ele>866.29</ele>
        <time>2012-08-04T07:52:34Z</time>
      </trkpt>
      <trkpt lat="46.68202" lon="9.44831">
        <ele>867.73</ele>
        <time>2012-08-04T07:52:35Z</time>
      </trkpt>
      <trkpt lat="46.67671" lon="9.44924">
        <ele>870.61</ele>
        <time>2012-08-04T07:52:41Z</time>
      </trkpt>
      <trkpt lat="46.67639" lon="9.44885">
        <ele>869.17</ele>
        <time>2012-08-04T07:52:44Z</time>
      </trkpt>
      <trkpt lat="46.67626" lon="9.44874">
        <ele>869.17</ele>
        <time>2012-08-04T07:52:45Z</time>
      </trkpt>
      <trkpt lat="46.67494" lon="9.44818">
        <ele>870.13</ele>
        <time>2012-08-04T07:52:54Z</time>
      </trkpt>
      <trkpt lat="46.6748" lon="9.44817">
        <ele>870.13</ele>
        <time>2012-08-04T07:52:55Z</time>
      </trkpt>
      <trkpt lat="46.67465" lon="9.44819">
        <ele>869.65</ele>
        <time>2012-08-04T07:52:56Z</time>
      </trkpt>
      <trkpt lat="46.6745" lon="9.44824">
        <ele>870.13</ele>
        <time>2012-08-04T07:52:57Z</time>
      </trkpt>
      <trkpt lat="46.67436" lon="9.44831">
        <ele>869.65</ele>
        <time>2012-08-04T07:52:58Z</time>
      </trkpt>
      <trkpt lat="46.67424" lon="9.44839">
        <ele>869.17</ele>
        <time>2012-08-04T07:52:59Z</time>
      </trkpt>
      <trkpt lat="46.674" lon="9.44855">
        <ele>868.21</ele>
        <time>2012-08-04T07:53:01Z</time>
      </trkpt>
      <trkpt lat="46.67388" lon="9.44859">
        <ele>867.25</ele>
        <time>2012-08-04T07:53:02Z</time>
      </trkpt>
      <trkpt lat="46.67375" lon="9.4486">
        <ele>867.73</ele>
        <time>2012-08-04T07:53:03Z</time>
      </trkpt>
      <trkpt lat="46.67362" lon="9.44859">
        <ele>868.21</ele>
        <time>2012-08-04T07:53:04Z</time>
      </trkpt>
      <trkpt lat="46.67334" lon="9.44857">
        <ele>869.65</ele>
        <time>2012-08-04T07:53:06Z</time>
      </trkpt>
      <trkpt lat="46.67319" lon="9.4486">
        <ele>870.61</ele>
        <time>2012-08-04T07:53:07Z</time>
      </trkpt>
      <trkpt lat="46.67304" lon="9.44864">
        <ele>871.57</ele>
        <time>2012-08-04T07:53:08Z</time>
      </trkpt>
      <trkpt lat="46.67291" lon="9.4487">
        <ele>872.53</ele>
        <time>2012-08-04T07:53:09Z</time>
      </trkpt>
      <trkpt lat="46.67277" lon="9.44877">
        <ele>873.98</ele>
        <time>2012-08-04T07:53:10Z</time>
      </trkpt>
      <trkpt lat="46.67236" lon="9.44899">
        <ele>877.82</ele>
        <time>2012-08-04T07:53:13Z</time>
      </trkpt>
      <trkpt lat="46.67207" lon="9.44914">
        <ele>881.67</ele>
        <time>2012-08-04T07:53:15Z</time>
      </trkpt>
      <trkpt lat="46.67178" lon="9.44929">
        <ele>885.03</ele>
        <time>2012-08-04T07:53:17Z</time>
      </trkpt>
      <trkpt lat="46.67148" lon="9.44944">
        <ele>888.4</ele>
        <time>2012-08-04T07:53:19Z</time>
      </trkpt>
      <trkpt lat="46.67104" lon="9.44964">
        <ele>891.28</ele>
        <time>2012-08-04T07:53:22Z</time>
      </trkpt>
      <trkpt lat="46.67089" lon="9.44967">
        <ele>892.24</ele>
        <time>2012-08-04T07:53:23Z</time>
      </trkpt>
      <trkpt lat="46.66165" lon="9.44643">
        <ele>884.07</ele>
        <time>2012-08-04T08:09:42Z</time>
      </trkpt>
      <trkpt lat="46.66265" lon="9.44769">
        <ele>884.55</ele>
        <time>2012-08-04T08:10:00Z</time>
      </trkpt>
      <trkpt lat="46.66275" lon="9.44784">
        <ele>884.07</ele>
        <time>2012-08-04T08:10:15Z</time>
      </trkpt>
      <trkpt lat="46.66277" lon="9.44787">
        <ele>884.55</ele>
        <time>2012-08-04T08:10:17Z</time>
      </trkpt>
      <trkpt lat="46.66271" lon="9.44808">
        <ele>885.03</ele>
        <time>2012-08-04T08:10:23Z</time>
      </trkpt>
      <trkpt lat="46.66269" lon="9.44812">
        <ele>885.51</ele>
        <time>2012-08-04T08:10:24Z</time>
      </trkpt>
      <trkpt lat="46.66266" lon="9.44817">
        <ele>885.03</ele>
        <time>2012-08-04T08:10:25Z</time>
      </trkpt>
      <trkpt lat="46.66254" lon="9.44838">
        <ele>886.95</ele>
        <time>2012-08-04T08:10:29Z</time>
      </trkpt>
      <trkpt lat="46.66215" lon="9.44866">
        <ele>888.88</ele>
        <time>2012-08-04T08:10:38Z</time>
      </trkpt>
      <trkpt lat="46.66209" lon="9.44863">
        <ele>888.88</ele>
        <time>2012-08-04T08:10:39Z</time>
      </trkpt>
      <trkpt lat="46.66188" lon="9.44853">
        <ele>890.32</ele>
        <time>2012-08-04T08:10:42Z</time>
      </trkpt>
      <trkpt lat="46.66165" lon="9.44847">
        <ele>892.24</ele>
        <time>2012-08-04T08:10:45Z</time>
      </trkpt>
      <trkpt lat="46.66157" lon="9.44847">
        <ele>893.2</ele>
        <time>2012-08-04T08:10:46Z</time>
      </trkpt>
      <trkpt lat="46.66148" lon="9.44849">
        <ele>893.68</ele>
        <time>2012-08-04T08:10:47Z</time>
      </trkpt>
      <trkpt lat="46.66139" lon="9.44853">
        <ele>895.12</ele>
        <time>2012-08-04T08:10:48Z</time>
      </trkpt>
      <trkpt lat="46.66131" lon="9.44858">
        <ele>895.61</ele>
        <time>2012-08-04T08:10:49Z</time>
      </trkpt>
      <trkpt lat="46.66118" lon="9.44868">
        <ele>897.05</ele>
        <time>2012-08-04T08:10:51Z</time>
      </trkpt>
      <trkpt lat="46.6611" lon="9.4487">
        <ele>898.01</ele>
        <time>2012-08-04T08:10:52Z</time>
      </trkpt>
      <trkpt lat="46.66077" lon="9.44876">
        <ele>901.37</ele>
        <time>2012-08-04T08:10:56Z</time>
      </trkpt>
      <trkpt lat="46.66069" lon="9.44874">
        <ele>901.37</ele>
        <time>2012-08-04T08:10:57Z</time>
      </trkpt>
      <trkpt lat="46.66061" lon="9.44869">
        <ele>901.85</ele>
        <time>2012-08-04T08:10:58Z</time>
      </trkpt>
      <trkpt lat="46.66034" lon="9.4485">
        <ele>902.82</ele>
        <time>2012-08-04T08:11:01Z</time>
      </trkpt>
      <trkpt lat="46.66024" lon="9.44848">
        <ele>903.3</ele>
        <time>2012-08-04T08:11:02Z</time>
      </trkpt>
      <trkpt lat="46.66005" lon="9.4485">
        <ele>904.26</ele>
        <time>2012-08-04T08:11:04Z</time>
      </trkpt>
      <trkpt lat="46.65965" lon="9.44847">
        <ele>907.14</ele>
        <time>2012-08-04T08:11:08Z</time>
      </trkpt>
      <trkpt lat="46.65955" lon="9.44844">
        <ele>907.62</ele>
        <time>2012-08-04T08:11:09Z</time>
      </trkpt>
      <trkpt lat="46.65945" lon="9.44839">
        <ele>907.14</ele>
        <time>2012-08-04T08:11:10Z</time>
      </trkpt>
      <trkpt lat="46.65924" lon="9.44823">
        <ele>908.58</ele>
        <time>2012-08-04T08:11:13Z</time>
      </trkpt>
      <trkpt lat="46.65919" lon="9.44823">
        <ele>909.06</ele>
        <time>2012-08-04T08:11:14Z</time>
      </trkpt>
      <trkpt lat="46.65914" lon="9.44826">
        <ele>909.06</ele>
        <time>2012-08-04T08:11:15Z</time>
      </trkpt>
      <trkpt lat="46.65901" lon="9.44835">
        <ele>911.47</ele>
        <time>2012-08-04T08:11:17Z</time>
      </trkpt>
      <trkpt lat="46.65859" lon="9.44842">
        <ele>914.83</ele>
        <time>2012-08-04T08:11:21Z</time>
      </trkpt>
      <trkpt lat="46.65848" lon="9.44843">
        <ele>914.83</ele>
        <time>2012-08-04T08:11:22Z</time>
      </trkpt>
      <trkpt lat="46.65828" lon="9.44847">
        <ele>915.79</ele>
        <time>2012-08-04T08:11:24Z</time>
      </trkpt>
      <trkpt lat="46.65816" lon="9.44851">
        <ele>916.27</ele>
        <time>2012-08-04T08:11:25Z</time>
      </trkpt>
      <trkpt lat="46.65803" lon="9.44858">
        <ele>917.24</ele>
        <time>2012-08-04T08:11:26Z</time>
      </trkpt>
      <trkpt lat="46.65774" lon="9.4488">
        <ele>916.75</ele>
        <time>2012-08-04T08:11:29Z</time>
      </trkpt>
      <trkpt lat="46.65756" lon="9.44888">
        <ele>916.75</ele>
        <time>2012-08-04T08:11:31Z</time>
      </trkpt>
      <trkpt lat="46.65704" lon="9.44927">
        <ele>917.24</ele>
        <time>2012-08-04T08:11:37Z</time>
      </trkpt>
      <trkpt lat="46.65694" lon="9.44931">
        <ele>917.24</ele>
        <time>2012-08-04T08:11:38Z</time>
      </trkpt>
      <trkpt lat="46.65686" lon="9.44933">
        <ele>917.24</ele>
        <time>2012-08-04T08:11:39Z</time>
      </trkpt>
      <trkpt lat="46.65677" lon="9.44933">
        <ele>916.75</ele>
        <time>2012-08-04T08:11:40Z</time>
      </trkpt>
      <trkpt lat="46.65669" lon="9.44931">
        <ele>916.75</ele>
        <time>2012-08-04T08:11:41Z</time>
      </trkpt>
      <trkpt lat="46.65661" lon="9.44926">
        <ele>916.75</ele>
        <time>2012-08-04T08:11:42Z</time>
      </trkpt>
      <trkpt lat="46.65642" lon="9.44916">
        <ele>916.27</ele>
        <time>2012-08-04T08:11:44Z</time>
      </trkpt>
      <trkpt lat="46.6563" lon="9.44913">
        <ele>915.79</ele>
        <time>2012-08-04T08:11:45Z</time>
      </trkpt>
      <trkpt lat="46.65617" lon="9.44911">
        <ele>914.83</ele>
        <time>2012-08-04T08:11:46Z</time>
      </trkpt>
      <trkpt lat="46.65604" lon="9.44912">
        <ele>914.83</ele>
        <time>2012-08-04T08:11:47Z</time>
      </trkpt>
      <trkpt lat="46.65577" lon="9.44917">
        <ele>915.31</ele>
        <time>2012-08-04T08:11:49Z</time>
      </trkpt>
      <trkpt lat="46.65563" lon="9.44923">
        <ele>914.83</ele>
        <time>2012-08-04T08:11:50Z</time>
      </trkpt>
      <trkpt lat="46.65474" lon="9.44964">
        <ele>911.95</ele>
        <time>2012-08-04T08:11:58Z</time>
      </trkpt>
      <trkpt lat="46.65441" lon="9.44974">
        <ele>910.51</ele>
        <time>2012-08-04T08:12:01Z</time>
      </trkpt>
      <trkpt lat="46.65432" lon="9.44973">
        <ele>910.03</ele>
        <time>2012-08-04T08:12:02Z</time>
      </trkpt>
      <trkpt lat="46.65421" lon="9.44971">
        <ele>909.54</ele>
        <time>2012-08-04T08:12:03Z</time>
      </trkpt>
      <trkpt lat="46.6532" lon="9.4492">
        <ele>906.66</ele>
        <time>2012-08-04T08:12:12Z</time>
      </trkpt>
      <trkpt lat="46.65287" lon="9.44904">
        <ele>905.7</ele>
        <time>2012-08-04T08:12:15Z</time>
      </trkpt>
      <trkpt lat="46.65275" lon="9.44903">
        <ele>904.74</ele>
        <time>2012-08-04T08:12:16Z</time>
      </trkpt>
      <trkpt lat="46.65263" lon="9.44902">
        <ele>904.74</ele>
        <time>2012-08-04T08:12:17Z</time>
      </trkpt>
      <trkpt lat="46.65246" lon="9.449">
        <ele>903.3</ele>
        <time>2012-08-04T08:12:18Z</time>
      </trkpt>
      <trkpt lat="46.65203" lon="9.44892">
        <ele>900.89</ele>
        <time>2012-08-04T08:12:22Z</time>
      </trkpt>
      <trkpt lat="46.65191" lon="9.44887">
        <ele>900.41</ele>
        <time>2012-08-04T08:12:23Z</time>
      </trkpt>
      <trkpt lat="46.65179" lon="9.44881">
        <ele>900.41</ele>
        <time>2012-08-04T08:12:24Z</time>
      </trkpt>
      <trkpt lat="46.65141" lon="9.4485">
        <ele>897.05</ele>
        <time>2012-08-04T08:12:28Z</time>
      </trkpt>
      <trkpt lat="46.65123" lon="9.44832">
        <ele>895.61</ele>
        <time>2012-08-04T08:12:30Z</time>
      </trkpt>
      <trkpt lat="46.65116" lon="9.44831">
        <ele>894.64</ele>
        <time>2012-08-04T08:12:31Z</time>
      </trkpt>
      <trkpt lat="46.6511" lon="9.44834">
        <ele>895.12</ele>
        <time>2012-08-04T08:12:32Z</time>
      </trkpt>
      <trkpt lat="46.65106" lon="9.44838">
        <ele>894.64</ele>
        <time>2012-08-04T08:12:33Z</time>
      </trkpt>
      <trkpt lat="46.65102" lon="9.44843">
        <ele>894.64</ele>
        <time>2012-08-04T08:12:34Z</time>
      </trkpt>
      <trkpt lat="46.65073" lon="9.44877">
        <ele>895.12</ele>
        <time>2012-08-04T08:12:40Z</time>
      </trkpt>
      <trkpt lat="46.65066" lon="9.44881">
        <ele>895.61</ele>
        <time>2012-08-04T08:12:41Z</time>
      </trkpt>
      <trkpt lat="46.65058" lon="9.44883">
        <ele>896.09</ele>
        <time>2012-08-04T08:12:42Z</time>
      </trkpt>
      <trkpt lat="46.6505" lon="9.44883">
        <ele>896.57</ele>
        <time>2012-08-04T08:12:43Z</time>
      </trkpt>
      <trkpt lat="46.65042" lon="9.44881">
        <ele>896.09</ele>
        <time>2012-08-04T08:12:44Z</time>
      </trkpt>
      <trkpt lat="46.65035" lon="9.44879">
        <ele>896.57</ele>
        <time>2012-08-04T08:12:45Z</time>
      </trkpt>
      <trkpt lat="46.65028" lon="9.44875">
        <ele>897.05</ele>
        <time>2012-08-04T08:12:46Z</time>
      </trkpt>
      <trkpt lat="46.64973" lon="9.4485">
        <ele>900.41</ele>
        <time>2012-08-04T08:12:52Z</time>
      </trkpt>
      <trkpt lat="46.64919" lon="9.44826">
        <ele>903.78</ele>
        <time>2012-08-04T08:12:57Z</time>
      </trkpt>
      <trkpt lat="46.64869" lon="9.44804">
        <ele>907.14</ele>
        <time>2012-08-04T08:13:01Z</time>
      </trkpt>
      <trkpt lat="46.64831" lon="9.44797">
        <ele>909.06</ele>
        <time>2012-08-04T08:13:04Z</time>
      </trkpt>
      <trkpt lat="46.64789" lon="9.44801">
        <ele>912.43</ele>
        <time>2012-08-04T08:13:07Z</time>
      </trkpt>
      <trkpt lat="46.64777" lon="9.44803">
        <ele>913.39</ele>
        <time>2012-08-04T08:13:08Z</time>
      </trkpt>
      <trkpt lat="46.64719" lon="9.44802">
        <ele>915.79</ele>
        <time>2012-08-04T08:13:12Z</time>
      </trkpt>
      <trkpt lat="46.64705" lon="9.44797">
        <ele>916.75</ele>
        <time>2012-08-04T08:13:13Z</time>
      </trkpt>
      <trkpt lat="46.64691" lon="9.4479">
        <ele>918.2</ele>
        <time>2012-08-04T08:13:14Z</time>
      </trkpt>
      <trkpt lat="46.64663" lon="9.44776">
        <ele>919.16</ele>
        <time>2012-08-04T08:13:16Z</time>
      </trkpt>
      <trkpt lat="46.64635" lon="9.44769">
        <ele>920.12</ele>
        <time>2012-08-04T08:13:18Z</time>
      </trkpt>
      <trkpt lat="46.64621" lon="9.44762">
        <ele>921.56</ele>
        <time>2012-08-04T08:13:19Z</time>
      </trkpt>
      <trkpt lat="46.64558" lon="9.44728">
        <ele>923.96</ele>
        <time>2012-08-04T08:13:24Z</time>
      </trkpt>
      <trkpt lat="46.64529" lon="9.44719">
        <ele>924.93</ele>
        <time>2012-08-04T08:13:26Z</time>
      </trkpt>
      <trkpt lat="46.64513" lon="9.44711">
        <ele>925.41</ele>
        <time>2012-08-04T08:13:27Z</time>
      </trkpt>
      <trkpt lat="46.64498" lon="9.44703">
        <ele>925.41</ele>
        <time>2012-08-04T08:13:28Z</time>
      </trkpt>
      <trkpt lat="46.64485" lon="9.44694">
        <ele>925.41</ele>
        <time>2012-08-04T08:13:29Z</time>
      </trkpt>
      <trkpt lat="46.64471" lon="9.44684">
        <ele>926.37</ele>
        <time>2012-08-04T08:13:30Z</time>
      </trkpt>
      <trkpt lat="46.64459" lon="9.44672">
        <ele>926.85</ele>
        <time>2012-08-04T08:13:31Z</time>
      </trkpt>
      <trkpt lat="46.64447" lon="9.44659">
        <ele>926.85</ele>
        <time>2012-08-04T08:13:32Z</time>
      </trkpt>
      <trkpt lat="46.64435" lon="9.44644">
        <ele>926.85</ele>
        <time>2012-08-04T08:13:33Z</time>
      </trkpt>
      <trkpt lat="46.64424" lon="9.44628">
        <ele>927.33</ele>
        <time>2012-08-04T08:13:34Z</time>
      </trkpt>
      <trkpt lat="46.64413" lon="9.44611">
        <ele>927.81</ele>
        <time>2012-08-04T08:13:35Z</time>
      </trkpt>
      <trkpt lat="46.6429" lon="9.44393">
        <ele>928.77</ele>
        <time>2012-08-04T08:13:48Z</time>
      </trkpt>
      <trkpt lat="46.64281" lon="9.44375">
        <ele>929.25</ele>
        <time>2012-08-04T08:13:49Z</time>
      </trkpt>
      <trkpt lat="46.64239" lon="9.44239">
        <ele>928.77</ele>
        <time>2012-08-04T08:13:56Z</time>
      </trkpt>
      <trkpt lat="46.64232" lon="9.44223">
        <ele>929.73</ele>
        <time>2012-08-04T08:13:57Z</time>
      </trkpt>
      <trkpt lat="46.64222" lon="9.44209">
        <ele>928.77</ele>
        <time>2012-08-04T08:13:58Z</time>
      </trkpt>
      <trkpt lat="46.64211" lon="9.44198">
        <ele>929.25</ele>
        <time>2012-08-04T08:13:59Z</time>
      </trkpt>
      <trkpt lat="46.64198" lon="9.44192">
        <ele>929.25</ele>
        <time>2012-08-04T08:14:00Z</time>
      </trkpt>
      <trkpt lat="46.64183" lon="9.4419">
        <ele>929.25</ele>
        <time>2012-08-04T08:14:01Z</time>
      </trkpt>
      <trkpt lat="46.64169" lon="9.44191">
        <ele>929.73</ele>
        <time>2012-08-04T08:14:02Z</time>
      </trkpt>
      <trkpt lat="46.64155" lon="9.44197">
        <ele>929.73</ele>
        <time>2012-08-04T08:14:03Z</time>
      </trkpt>
      <trkpt lat="46.64142" lon="9.44207">
        <ele>930.21</ele>
        <time>2012-08-04T08:14:04Z</time>
      </trkpt>
      <trkpt lat="46.6413" lon="9.4422">
        <ele>930.21</ele>
        <time>2012-08-04T08:14:05Z</time>
      </trkpt>
      <trkpt lat="46.64118" lon="9.44235">
        <ele>931.65</ele>
        <time>2012-08-04T08:14:06Z</time>
      </trkpt>
      <trkpt lat="46.64107" lon="9.4425">
        <ele>932.62</ele>
        <time>2012-08-04T08:14:07Z</time>
      </trkpt>
      <trkpt lat="46.64096" lon="9.44266">
        <ele>933.1</ele>
        <time>2012-08-04T08:14:08Z</time>
      </trkpt>
      <trkpt lat="46.64061" lon="9.44313">
        <ele>935.02</ele>
        <time>2012-08-04T08:14:11Z</time>
      </trkpt>
      <trkpt lat="46.64026" lon="9.44358">
        <ele>937.9</ele>
        <time>2012-08-04T08:14:14Z</time>
      </trkpt>
      <trkpt lat="46.63963" lon="9.44425">
        <ele>940.79</ele>
        <time>2012-08-04T08:14:19Z</time>
      </trkpt>
      <trkpt lat="46.63879" lon="9.44493">
        <ele>943.67</ele>
        <time>2012-08-04T08:14:25Z</time>
      </trkpt>
      <trkpt lat="46.63806" lon="9.4454">
        <ele>945.59</ele>
        <time>2012-08-04T08:14:30Z</time>
      </trkpt>
      <trkpt lat="46.6379" lon="9.44544">
        <ele>946.56</ele>
        <time>2012-08-04T08:14:31Z</time>
      </trkpt>
      <trkpt lat="46.63775" lon="9.44545">
        <ele>947.04</ele>
        <time>2012-08-04T08:14:32Z</time>
      </trkpt>
      <trkpt lat="46.6376" lon="9.44544">
        <ele>947.04</ele>
        <time>2012-08-04T08:14:33Z</time>
      </trkpt>
      <trkpt lat="46.63746" lon="9.44542">
        <ele>946.56</ele>
        <time>2012-08-04T08:14:34Z</time>
      </trkpt>
      <trkpt lat="46.6363" lon="9.44523">
        <ele>949.44</ele>
        <time>2012-08-04T08:14:44Z</time>
      </trkpt>
      <trkpt lat="46.63537" lon="9.44507">
        <ele>952.32</ele>
        <time>2012-08-04T08:14:52Z</time>
      </trkpt>
      <trkpt lat="46.63504" lon="9.44502">
        <ele>953.77</ele>
        <time>2012-08-04T08:14:55Z</time>
      </trkpt>
      <trkpt lat="46.63494" lon="9.44498">
        <ele>954.25</ele>
        <time>2012-08-04T08:14:56Z</time>
      </trkpt>
      <trkpt lat="46.63484" lon="9.44492">
        <ele>954.73</ele>
        <time>2012-08-04T08:14:57Z</time>
      </trkpt>
      <trkpt lat="46.63383" lon="9.44422">
        <ele>954.73</ele>
        <time>2012-08-04T08:15:07Z</time>
      </trkpt>
      <trkpt lat="46.63305" lon="9.44348">
        <ele>954.25</ele>
        <time>2012-08-04T08:15:14Z</time>
      </trkpt>
      <trkpt lat="46.63296" lon="9.44335">
        <ele>954.73</ele>
        <time>2012-08-04T08:15:15Z</time>
      </trkpt>
      <trkpt lat="46.63287" lon="9.44322">
        <ele>955.69</ele>
        <time>2012-08-04T08:15:16Z</time>
      </trkpt>
      <trkpt lat="46.63279" lon="9.44307">
        <ele>956.65</ele>
        <time>2012-08-04T08:15:17Z</time>
      </trkpt>
      <trkpt lat="46.63272" lon="9.4429">
        <ele>957.13</ele>
        <time>2012-08-04T08:15:18Z</time>
      </trkpt>
      <trkpt lat="46.6325" lon="9.44242">
        <ele>959.53</ele>
        <time>2012-08-04T08:15:21Z</time>
      </trkpt>
      <trkpt lat="46.63235" lon="9.44213">
        <ele>960.49</ele>
        <time>2012-08-04T08:15:23Z</time>
      </trkpt>
      <trkpt lat="46.63227" lon="9.442">
        <ele>961.46</ele>
        <time>2012-08-04T08:15:24Z</time>
      </trkpt>
      <trkpt lat="46.63218" lon="9.44189">
        <ele>962.42</ele>
        <time>2012-08-04T08:15:25Z</time>
      </trkpt>
      <trkpt lat="46.63207" lon="9.4418">
        <ele>962.9</ele>
        <time>2012-08-04T08:15:26Z</time>
      </trkpt>
      <trkpt lat="46.63196" lon="9.44173">
        <ele>964.34</ele>
        <time>2012-08-04T08:15:27Z</time>
      </trkpt>
      <trkpt lat="46.63184" lon="9.44169">
        <ele>965.78</ele>
        <time>2012-08-04T08:15:28Z</time>
      </trkpt>
      <trkpt lat="46.63171" lon="9.44166">
        <ele>965.78</ele>
        <time>2012-08-04T08:15:29Z</time>
      </trkpt>
      <trkpt lat="46.63158" lon="9.44166">
        <ele>966.74</ele>
        <time>2012-08-04T08:15:30Z</time>
      </trkpt>
      <trkpt lat="46.63145" lon="9.44168">
        <ele>967.7</ele>
        <time>2012-08-04T08:15:31Z</time>
      </trkpt>
      <trkpt lat="46.63131" lon="9.44172">
        <ele>969.15</ele>
        <time>2012-08-04T08:15:32Z</time>
      </trkpt>
      <trkpt lat="46.63047" lon="9.44195">
        <ele>972.03</ele>
        <time>2012-08-04T08:15:38Z</time>
      </trkpt>
      <trkpt lat="46.62974" lon="9.44208">
        <ele>974.91</ele>
        <time>2012-08-04T08:15:43Z</time>
      </trkpt>
      <trkpt lat="46.62928" lon="9.44199">
        <ele>978.28</ele>
        <time>2012-08-04T08:15:46Z</time>
      </trkpt>
      <trkpt lat="46.62897" lon="9.44185">
        <ele>981.16</ele>
        <time>2012-08-04T08:15:48Z</time>
      </trkpt>
      <trkpt lat="46.62882" lon="9.44176">
        <ele>982.12</ele>
        <time>2012-08-04T08:15:49Z</time>
      </trkpt>
      <trkpt lat="46.6284" lon="9.44142">
        <ele>985.97</ele>
        <time>2012-08-04T08:15:52Z</time>
      </trkpt>
      <trkpt lat="46.62784" lon="9.44094">
        <ele>989.33</ele>
        <time>2012-08-04T08:15:56Z</time>
      </trkpt>
      <trkpt lat="46.62717" lon="9.44017">
        <ele>992.7</ele>
        <time>2012-08-04T08:16:01Z</time>
      </trkpt>
      <trkpt lat="46.62692" lon="9.43981">
        <ele>993.18</ele>
        <time>2012-08-04T08:16:03Z</time>
      </trkpt>
      <trkpt lat="46.62533" lon="9.43807">
        <ele>993.66</ele>
        <time>2012-08-04T08:16:14Z</time>
      </trkpt>
      <trkpt lat="46.62423" lon="9.437">
        <ele>991.74</ele>
        <time>2012-08-04T08:16:21Z</time>
      </trkpt>
      <trkpt lat="46.62333" lon="9.43591">
        <ele>988.37</ele>
        <time>2012-08-04T08:16:27Z</time>
      </trkpt>
      <trkpt lat="46.62278" lon="9.4352">
        <ele>985.49</ele>
        <time>2012-08-04T08:16:31Z</time>
      </trkpt>
      <trkpt lat="46.62246" lon="9.43492">
        <ele>984.53</ele>
        <time>2012-08-04T08:16:33Z</time>
      </trkpt>
      <trkpt lat="46.62193" lon="9.43453">
        <ele>981.16</ele>
        <time>2012-08-04T08:16:36Z</time>
      </trkpt>
      <trkpt lat="46.62174" lon="9.43442">
        <ele>980.68</ele>
        <time>2012-08-04T08:16:37Z</time>
      </trkpt>
      <trkpt lat="46.62102" lon="9.43394">
        <ele>976.84</ele>
        <time>2012-08-04T08:16:41Z</time>
      </trkpt>
      <trkpt lat="46.62057" lon="9.43351">
        <ele>975.39</ele>
        <time>2012-08-04T08:16:44Z</time>
      </trkpt>
      <trkpt lat="46.6203" lon="9.43316">
        <ele>974.43</ele>
        <time>2012-08-04T08:16:46Z</time>
      </trkpt>
      <trkpt lat="46.62017" lon="9.43297">
        <ele>974.43</ele>
        <time>2012-08-04T08:16:47Z</time>
      </trkpt>
      <trkpt lat="46.62005" lon="9.43277">
        <ele>973.95</ele>
        <time>2012-08-04T08:16:48Z</time>
      </trkpt>
      <trkpt lat="46.61939" lon="9.43185">
        <ele>971.55</ele>
        <time>2012-08-04T08:16:53Z</time>
      </trkpt>
      <trkpt lat="46.61923" lon="9.43172">
        <ele>971.55</ele>
        <time>2012-08-04T08:16:54Z</time>
      </trkpt>
      <trkpt lat="46.61906" lon="9.43162">
        <ele>971.55</ele>
        <time>2012-08-04T08:16:55Z</time>
      </trkpt>
      <trkpt lat="46.61888" lon="9.43154">
        <ele>971.55</ele>
        <time>2012-08-04T08:16:56Z</time>
      </trkpt>
      <trkpt lat="46.61869" lon="9.43148">
        <ele>970.59</ele>
        <time>2012-08-04T08:16:57Z</time>
      </trkpt>
      <trkpt lat="46.6185" lon="9.43144">
        <ele>970.59</ele>
        <time>2012-08-04T08:16:58Z</time>
      </trkpt>
      <trkpt lat="46.61656" lon="9.43105">
        <ele>967.7</ele>
        <time>2012-08-04T08:17:08Z</time>
      </trkpt>
      <trkpt lat="46.61445" lon="9.43062">
        <ele>970.59</ele>
        <time>2012-08-04T08:17:19Z</time>
      </trkpt>
      <trkpt lat="46.61359" lon="9.43031">
        <ele>971.55</ele>
        <time>2012-08-04T08:17:25Z</time>
      </trkpt>
      <trkpt lat="46.61326" lon="9.43018">
        <ele>972.03</ele>
        <time>2012-08-04T08:17:31Z</time>
      </trkpt>
      <trkpt lat="46.61321" lon="9.43017">
        <ele>972.99</ele>
        <time>2012-08-04T08:17:32Z</time>
      </trkpt>
      <trkpt lat="46.61301" lon="9.43011">
        <ele>976.36</ele>
        <time>2012-08-04T08:17:34Z</time>
      </trkpt>
      <trkpt lat="46.61288" lon="9.43005">
        <ele>977.8</ele>
        <time>2012-08-04T08:17:35Z</time>
      </trkpt>
      <trkpt lat="46.61256" lon="9.42989">
        <ele>980.68</ele>
        <time>2012-08-04T08:17:37Z</time>
      </trkpt>
      <trkpt lat="46.61199" lon="9.42967">
        <ele>984.05</ele>
        <time>2012-08-04T08:17:40Z</time>
      </trkpt>
      <trkpt lat="46.6118" lon="9.42959">
        <ele>984.05</ele>
        <time>2012-08-04T08:17:41Z</time>
      </trkpt>
      <trkpt lat="46.60899" lon="9.42843">
        <ele>985.49</ele>
        <time>2012-08-04T08:17:56Z</time>
      </trkpt>
      <trkpt lat="46.60862" lon="9.42828">
        <ele>986.93</ele>
        <time>2012-08-04T08:17:58Z</time>
      </trkpt>
      <trkpt lat="46.60685" lon="9.42756">
        <ele>986.93</ele>
        <time>2012-08-04T08:18:09Z</time>
      </trkpt>
      <trkpt lat="46.60587" lon="9.42728">
        <ele>986.93</ele>
        <time>2012-08-04T08:18:18Z</time>
      </trkpt>
      <trkpt lat="46.6058" lon="9.42723">
        <ele>987.41</ele>
        <time>2012-08-04T08:18:19Z</time>
      </trkpt>
      <trkpt lat="46.60559" lon="9.42705">
        <ele>988.37</ele>
        <time>2012-08-04T08:18:22Z</time>
      </trkpt>
      <trkpt lat="46.60551" lon="9.427">
        <ele>988.37</ele>
        <time>2012-08-04T08:18:23Z</time>
      </trkpt>
      <trkpt lat="46.60487" lon="9.42676">
        <ele>988.85</ele>
        <time>2012-08-04T08:18:32Z</time>
      </trkpt>
      <trkpt lat="46.60476" lon="9.42672">
        <ele>988.85</ele>
        <time>2012-08-04T08:18:34Z</time>
      </trkpt>
      <trkpt lat="46.60466" lon="9.42669">
        <ele>988.85</ele>
        <time>2012-08-04T08:18:41Z</time>
      </trkpt>
      <trkpt lat="46.60455" lon="9.42663">
        <ele>989.33</ele>
        <time>2012-08-04T08:18:52Z</time>
      </trkpt>
      <trkpt lat="46.60451" lon="9.42661">
        <ele>989.81</ele>
        <time>2012-08-04T08:18:53Z</time>
      </trkpt>
      <trkpt lat="46.60431" lon="9.4265">
        <ele>989.33</ele>
        <time>2012-08-04T08:18:57Z</time>
      </trkpt>
      <trkpt lat="46.60412" lon="9.42643">
        <ele>989.81</ele>
        <time>2012-08-04T08:19:01Z</time>
      </trkpt>
      <trkpt lat="46.60407" lon="9.42643">
        <ele>990.3</ele>
        <time>2012-08-04T08:19:02Z</time>
      </trkpt>
      <trkpt lat="46.60384" lon="9.42644">
        <ele>990.3</ele>
        <time>2012-08-04T08:19:06Z</time>
      </trkpt>
      <trkpt lat="46.60373" lon="9.42642">
        <ele>990.3</ele>
        <time>2012-08-04T08:19:08Z</time>
      </trkpt>
      <trkpt lat="46.60344" lon="9.42631">
        <ele>990.78</ele>
        <time>2012-08-04T08:19:13Z</time>
      </trkpt>
      <trkpt lat="46.60322" lon="9.42626">
        <ele>991.26</ele>
        <time>2012-08-04T08:19:17Z</time>
      </trkpt>
      <trkpt lat="46.60316" lon="9.42623">
        <ele>990.78</ele>
        <time>2012-08-04T08:19:18Z</time>
      </trkpt>
      <trkpt lat="46.6031" lon="9.42622">
        <ele>990.78</ele>
        <time>2012-08-04T08:19:19Z</time>
      </trkpt>
      <trkpt lat="46.60303" lon="9.42622">
        <ele>990.78</ele>
        <time>2012-08-04T08:19:20Z</time>
      </trkpt>
      <trkpt lat="46.60295" lon="9.4262">
        <ele>990.78</ele>
        <time>2012-08-04T08:19:21Z</time>
      </trkpt>
      <trkpt lat="46.60287" lon="9.4262">
        <ele>990.3</ele>
        <time>2012-08-04T08:19:22Z</time>
      </trkpt>
      <trkpt lat="46.60279" lon="9.4262">
        <ele>990.3</ele>
        <time>2012-08-04T08:19:23Z</time>
      </trkpt>
      <trkpt lat="46.60257" lon="9.4262">
        <ele>989.33</ele>
        <time>2012-08-04T08:19:26Z</time>
      </trkpt>
      <trkpt lat="46.60251" lon="9.42622">
        <ele>989.33</ele>
        <time>2012-08-04T08:19:27Z</time>
      </trkpt>
      <trkpt lat="46.60245" lon="9.42625">
        <ele>989.33</ele>
        <time>2012-08-04T08:19:28Z</time>
      </trkpt>
      <trkpt lat="46.6024" lon="9.42631">
        <ele>989.81</ele>
        <time>2012-08-04T08:19:29Z</time>
      </trkpt>
      <trkpt lat="46.60235" lon="9.42636">
        <ele>989.81</ele>
        <time>2012-08-04T08:19:30Z</time>
      </trkpt>
      <trkpt lat="46.60229" lon="9.42642">
        <ele>989.81</ele>
        <time>2012-08-04T08:19:31Z</time>
      </trkpt>
      <trkpt lat="46.60224" lon="9.42647">
        <ele>990.3</ele>
        <time>2012-08-04T08:19:32Z</time>
      </trkpt>
      <trkpt lat="46.60165" lon="9.42739">
        <ele>991.74</ele>
        <time>2012-08-04T08:19:45Z</time>
      </trkpt>
      <trkpt lat="46.60161" lon="9.42746">
        <ele>991.74</ele>
        <time>2012-08-04T08:19:46Z</time>
      </trkpt>
      <trkpt lat="46.60151" lon="9.42759">
        <ele>989.81</ele>
        <time>2012-08-04T08:19:48Z</time>
      </trkpt>
      <trkpt lat="46.60147" lon="9.42765">
        <ele>994.14</ele>
        <time>2012-08-04T08:19:49Z</time>
      </trkpt>
      <trkpt lat="46.60142" lon="9.42771">
        <ele>991.74</ele>
        <time>2012-08-04T08:19:50Z</time>
      </trkpt>
      <trkpt lat="46.60123" lon="9.42794">
        <ele>992.7</ele>
        <time>2012-08-04T08:19:56Z</time>
      </trkpt>
      <trkpt lat="46.60121" lon="9.42795">
        <ele>992.22</ele>
        <time>2012-08-04T08:19:57Z</time>
      </trkpt>
      <trkpt lat="46.60114" lon="9.42793">
        <ele>994.14</ele>
        <time>2012-08-04T08:19:59Z</time>
      </trkpt>
      <trkpt lat="46.60109" lon="9.42793">
        <ele>992.22</ele>
        <time>2012-08-04T08:20:00Z</time>
      </trkpt>
      <trkpt lat="46.60095" lon="9.42794">
        <ele>992.7</ele>
        <time>2012-08-04T08:20:03Z</time>
      </trkpt>
      <trkpt lat="46.60076" lon="9.42794">
        <ele>992.7</ele>
        <time>2012-08-04T08:20:06Z</time>
      </trkpt>
      <trkpt lat="46.60058" lon="9.42797">
        <ele>992.7</ele>
        <time>2012-08-04T08:20:09Z</time>
      </trkpt>
      <trkpt lat="46.60052" lon="9.42799">
        <ele>992.7</ele>
        <time>2012-08-04T08:20:10Z</time>
      </trkpt>
      <trkpt lat="46.60046" lon="9.42803">
        <ele>993.18</ele>
        <time>2012-08-04T08:20:11Z</time>
      </trkpt>
      <trkpt lat="46.6004" lon="9.42806">
        <ele>993.18</ele>
        <time>2012-08-04T08:20:12Z</time>
      </trkpt>
      <trkpt lat="46.60034" lon="9.4281">
        <ele>994.14</ele>
        <time>2012-08-04T08:20:13Z</time>
      </trkpt>
      <trkpt lat="46.60028" lon="9.42814">
        <ele>993.66</ele>
        <time>2012-08-04T08:20:14Z</time>
      </trkpt>
      <trkpt lat="46.60016" lon="9.42822">
        <ele>992.22</ele>
        <time>2012-08-04T08:20:16Z</time>
      </trkpt>
      <trkpt lat="46.6001" lon="9.42825">
        <ele>995.1</ele>
        <time>2012-08-04T08:20:17Z</time>
      </trkpt>
      <trkpt lat="46.59934" lon="9.42851">
        <ele>996.54</ele>
        <time>2012-08-04T08:20:26Z</time>
      </trkpt>
      <trkpt lat="46.59887" lon="9.42867">
        <ele>998.47</ele>
        <time>2012-08-04T08:20:30Z</time>
      </trkpt>
      <trkpt lat="46.59848" lon="9.4288">
        <ele>1001.83</ele>
        <time>2012-08-04T08:20:33Z</time>
      </trkpt>
      <trkpt lat="46.59789" lon="9.42901">
        <ele>1005.68</ele>
        <time>2012-08-04T08:20:38Z</time>
      </trkpt>
      <trkpt lat="46.5978" lon="9.42907">
        <ele>1006.16</ele>
        <time>2012-08-04T08:20:39Z</time>
      </trkpt>
      <trkpt lat="46.59772" lon="9.42916">
        <ele>1007.12</ele>
        <time>2012-08-04T08:20:40Z</time>
      </trkpt>
      <trkpt lat="46.59767" lon="9.42928">
        <ele>1007.6</ele>
        <time>2012-08-04T08:20:41Z</time>
      </trkpt>
      <trkpt lat="46.59764" lon="9.42942">
        <ele>1009.52</ele>
        <time>2012-08-04T08:20:42Z</time>
      </trkpt>
      <trkpt lat="46.59762" lon="9.42956">
        <ele>1010.96</ele>
        <time>2012-08-04T08:20:43Z</time>
      </trkpt>
      <trkpt lat="46.5976" lon="9.42969">
        <ele>1010.96</ele>
        <time>2012-08-04T08:20:44Z</time>
      </trkpt>
      <trkpt lat="46.5976" lon="9.42994">
        <ele>1012.89</ele>
        <time>2012-08-04T08:20:46Z</time>
      </trkpt>
      <trkpt lat="46.59763" lon="9.43016">
        <ele>1014.33</ele>
        <time>2012-08-04T08:20:48Z</time>
      </trkpt>
      <trkpt lat="46.59766" lon="9.43026">
        <ele>1015.29</ele>
        <time>2012-08-04T08:20:49Z</time>
      </trkpt>
      <trkpt lat="46.59772" lon="9.43033">
        <ele>1015.77</ele>
        <time>2012-08-04T08:20:50Z</time>
      </trkpt>
      <trkpt lat="46.59778" lon="9.43038">
        <ele>1015.77</ele>
        <time>2012-08-04T08:20:51Z</time>
      </trkpt>
      <trkpt lat="46.59785" lon="9.43041">
        <ele>1016.25</ele>
        <time>2012-08-04T08:20:52Z</time>
      </trkpt>
      <trkpt lat="46.59791" lon="9.43043">
        <ele>1016.25</ele>
        <time>2012-08-04T08:20:53Z</time>
      </trkpt>
      <trkpt lat="46.59796" lon="9.43047">
        <ele>1016.25</ele>
        <time>2012-08-04T08:20:54Z</time>
      </trkpt>
      <trkpt lat="46.598" lon="9.43054">
        <ele>1016.25</ele>
        <time>2012-08-04T08:20:55Z</time>
      </trkpt>
      <trkpt lat="46.59802" lon="9.43062">
        <ele>1016.73</ele>
        <time>2012-08-04T08:20:56Z</time>
      </trkpt>
      <trkpt lat="46.598" lon="9.43071">
        <ele>1017.21</ele>
        <time>2012-08-04T08:20:57Z</time>
      </trkpt>
      <trkpt lat="46.59796" lon="9.43077">
        <ele>1017.69</ele>
        <time>2012-08-04T08:20:58Z</time>
      </trkpt>
      <trkpt lat="46.59791" lon="9.43078">
        <ele>1017.69</ele>
        <time>2012-08-04T08:20:59Z</time>
      </trkpt>
      <trkpt lat="46.59785" lon="9.43075">
        <ele>1018.17</ele>
        <time>2012-08-04T08:21:00Z</time>
      </trkpt>
      <trkpt lat="46.59779" lon="9.43066">
        <ele>1018.65</ele>
        <time>2012-08-04T08:21:01Z</time>
      </trkpt>
      <trkpt lat="46.59773" lon="9.43056">
        <ele>1020.1</ele>
        <time>2012-08-04T08:21:02Z</time>
      </trkpt>
      <trkpt lat="46.59766" lon="9.43044">
        <ele>1020.1</ele>
        <time>2012-08-04T08:21:03Z</time>
      </trkpt>
      <trkpt lat="46.59751" lon="9.43017">
        <ele>1022.5</ele>
        <time>2012-08-04T08:21:05Z</time>
      </trkpt>
      <trkpt lat="46.59741" lon="9.43004">
        <ele>1023.46</ele>
        <time>2012-08-04T08:21:06Z</time>
      </trkpt>
      <trkpt lat="46.5973" lon="9.42993">
        <ele>1023.94</ele>
        <time>2012-08-04T08:21:07Z</time>
      </trkpt>
      <trkpt lat="46.59705" lon="9.42973">
        <ele>1026.83</ele>
        <time>2012-08-04T08:21:09Z</time>
      </trkpt>
      <trkpt lat="46.59666" lon="9.42943">
        <ele>1030.19</ele>
        <time>2012-08-04T08:21:12Z</time>
      </trkpt>
      <trkpt lat="46.5963" lon="9.42911">
        <ele>1034.04</ele>
        <time>2012-08-04T08:21:15Z</time>
      </trkpt>
      <trkpt lat="46.59597" lon="9.42879">
        <ele>1036.92</ele>
        <time>2012-08-04T08:21:18Z</time>
      </trkpt>
      <trkpt lat="46.59574" lon="9.4286">
        <ele>1038.84</ele>
        <time>2012-08-04T08:21:20Z</time>
      </trkpt>
      <trkpt lat="46.5955" lon="9.42847">
        <ele>1041.73</ele>
        <time>2012-08-04T08:21:22Z</time>
      </trkpt>
      <trkpt lat="46.59513" lon="9.42834">
        <ele>1045.09</ele>
        <time>2012-08-04T08:21:25Z</time>
      </trkpt>
      <trkpt lat="46.59477" lon="9.42819">
        <ele>1048.94</ele>
        <time>2012-08-04T08:21:28Z</time>
      </trkpt>
      <trkpt lat="46.59465" lon="9.42812">
        <ele>1049.42</ele>
        <time>2012-08-04T08:21:29Z</time>
      </trkpt>
      <trkpt lat="46.59454" lon="9.42803">
        <ele>1051.34</ele>
        <time>2012-08-04T08:21:30Z</time>
      </trkpt>
      <trkpt lat="46.59421" lon="9.42775">
        <ele>1053.74</ele>
        <time>2012-08-04T08:21:33Z</time>
      </trkpt>
      <trkpt lat="46.5941" lon="9.42767">
        <ele>1055.18</ele>
        <time>2012-08-04T08:21:34Z</time>
      </trkpt>
      <trkpt lat="46.59397" lon="9.42761">
        <ele>1055.18</ele>
        <time>2012-08-04T08:21:35Z</time>
      </trkpt>
      <trkpt lat="46.59384" lon="9.42756">
        <ele>1055.18</ele>
        <time>2012-08-04T08:21:36Z</time>
      </trkpt>
      <trkpt lat="46.59271" lon="9.42717">
        <ele>1056.63</ele>
        <time>2012-08-04T08:21:44Z</time>
      </trkpt>
      <trkpt lat="46.59256" lon="9.42707">
        <ele>1058.07</ele>
        <time>2012-08-04T08:21:45Z</time>
      </trkpt>
      <trkpt lat="46.59242" lon="9.42694">
        <ele>1059.51</ele>
        <time>2012-08-04T08:21:46Z</time>
      </trkpt>
      <trkpt lat="46.59229" lon="9.4268">
        <ele>1060.95</ele>
        <time>2012-08-04T08:21:47Z</time>
      </trkpt>
      <trkpt lat="46.59216" lon="9.42665">
        <ele>1061.43</ele>
        <time>2012-08-04T08:21:48Z</time>
      </trkpt>
      <trkpt lat="46.59205" lon="9.42648">
        <ele>1063.36</ele>
        <time>2012-08-04T08:21:49Z</time>
      </trkpt>
      <trkpt lat="46.59194" lon="9.42631">
        <ele>1065.76</ele>
        <time>2012-08-04T08:21:50Z</time>
      </trkpt>
      <trkpt lat="46.5917" lon="9.42597">
        <ele>1068.64</ele>
        <time>2012-08-04T08:21:52Z</time>
      </trkpt>
      <trkpt lat="46.59156" lon="9.42583">
        <ele>1070.08</ele>
        <time>2012-08-04T08:21:53Z</time>
      </trkpt>
      <trkpt lat="46.59116" lon="9.42543">
        <ele>1073.93</ele>
        <time>2012-08-04T08:21:56Z</time>
      </trkpt>
      <trkpt lat="46.59104" lon="9.42528">
        <ele>1075.37</ele>
        <time>2012-08-04T08:21:57Z</time>
      </trkpt>
      <trkpt lat="46.59083" lon="9.42494">
        <ele>1079.22</ele>
        <time>2012-08-04T08:21:59Z</time>
      </trkpt>
      <trkpt lat="46.5906" lon="9.42458">
        <ele>1082.58</ele>
        <time>2012-08-04T08:22:01Z</time>
      </trkpt>
      <trkpt lat="46.59025" lon="9.42404">
        <ele>1086.91</ele>
        <time>2012-08-04T08:22:04Z</time>
      </trkpt>
      <trkpt lat="46.58986" lon="9.42358">
        <ele>1091.23</ele>
        <time>2012-08-04T08:22:07Z</time>
      </trkpt>
      <trkpt lat="46.58947" lon="9.42317">
        <ele>1094.6</ele>
        <time>2012-08-04T08:22:10Z</time>
      </trkpt>
      <trkpt lat="46.58894" lon="9.42261">
        <ele>1098.44</ele>
        <time>2012-08-04T08:22:14Z</time>
      </trkpt>
      <trkpt lat="46.58839" lon="9.42206">
        <ele>1095.08</ele>
        <time>2012-08-04T08:22:19Z</time>
      </trkpt>
      <trkpt lat="46.5883" lon="9.42198">
        <ele>1095.08</ele>
        <time>2012-08-04T08:22:20Z</time>
      </trkpt>
      <trkpt lat="46.58821" lon="9.42192">
        <ele>1095.08</ele>
        <time>2012-08-04T08:22:21Z</time>
      </trkpt>
      <trkpt lat="46.5881" lon="9.42187">
        <ele>1094.12</ele>
        <time>2012-08-04T08:22:22Z</time>
      </trkpt>
      <trkpt lat="46.58799" lon="9.42182">
        <ele>1093.64</ele>
        <time>2012-08-04T08:22:23Z</time>
      </trkpt>
      <trkpt lat="46.58752" lon="9.42166">
        <ele>1090.75</ele>
        <time>2012-08-04T08:22:27Z</time>
      </trkpt>
      <trkpt lat="46.5874" lon="9.4216">
        <ele>1090.75</ele>
        <time>2012-08-04T08:22:28Z</time>
      </trkpt>
      <trkpt lat="46.58717" lon="9.42147">
        <ele>1089.79</ele>
        <time>2012-08-04T08:22:30Z</time>
      </trkpt>
      <trkpt lat="46.58704" lon="9.42143">
        <ele>1089.31</ele>
        <time>2012-08-04T08:22:31Z</time>
      </trkpt>
      <trkpt lat="46.58692" lon="9.42141">
        <ele>1089.31</ele>
        <time>2012-08-04T08:22:32Z</time>
      </trkpt>
      <trkpt lat="46.58593" lon="9.42138">
        <ele>1092.68</ele>
        <time>2012-08-04T08:22:40Z</time>
      </trkpt>
      <trkpt lat="46.58554" lon="9.42151">
        <ele>1094.6</ele>
        <time>2012-08-04T08:22:43Z</time>
      </trkpt>
      <trkpt lat="46.58477" lon="9.42191">
        <ele>1096.52</ele>
        <time>2012-08-04T08:22:49Z</time>
      </trkpt>
      <trkpt lat="46.58454" lon="9.42209">
        <ele>1097.48</ele>
        <time>2012-08-04T08:22:51Z</time>
      </trkpt>
      <trkpt lat="46.58444" lon="9.42221">
        <ele>1097</ele>
        <time>2012-08-04T08:22:52Z</time>
      </trkpt>
      <trkpt lat="46.58435" lon="9.42234">
        <ele>1097.96</ele>
        <time>2012-08-04T08:22:53Z</time>
      </trkpt>
      <trkpt lat="46.5841" lon="9.4227">
        <ele>1097.48</ele>
        <time>2012-08-04T08:22:56Z</time>
      </trkpt>
      <trkpt lat="46.584" lon="9.42278">
        <ele>1097.48</ele>
        <time>2012-08-04T08:22:57Z</time>
      </trkpt>
      <trkpt lat="46.58389" lon="9.42282">
        <ele>1097.96</ele>
        <time>2012-08-04T08:22:58Z</time>
      </trkpt>
      <trkpt lat="46.58377" lon="9.42283">
        <ele>1098.92</ele>
        <time>2012-08-04T08:22:59Z</time>
      </trkpt>
      <trkpt lat="46.58363" lon="9.42282">
        <ele>1099.4</ele>
        <time>2012-08-04T08:23:00Z</time>
      </trkpt>
      <trkpt lat="46.58275" lon="9.42285">
        <ele>1098.92</ele>
        <time>2012-08-04T08:23:07Z</time>
      </trkpt>
      <trkpt lat="46.58268" lon="9.42283">
        <ele>1098.92</ele>
        <time>2012-08-04T08:23:08Z</time>
      </trkpt>
      <trkpt lat="46.58261" lon="9.42279">
        <ele>1098.92</ele>
        <time>2012-08-04T08:23:09Z</time>
      </trkpt>
      <trkpt lat="46.58255" lon="9.42271">
        <ele>1099.4</ele>
        <time>2012-08-04T08:23:10Z</time>
      </trkpt>
      <trkpt lat="46.5825" lon="9.42261">
        <ele>1100.37</ele>
        <time>2012-08-04T08:23:11Z</time>
      </trkpt>
      <trkpt lat="46.58229" lon="9.42209">
        <ele>1104.21</ele>
        <time>2012-08-04T08:23:15Z</time>
      </trkpt>
      <trkpt lat="46.58208" lon="9.42157">
        <ele>1107.1</ele>
        <time>2012-08-04T08:23:19Z</time>
      </trkpt>
      <trkpt lat="46.58203" lon="9.42147">
        <ele>1107.1</ele>
        <time>2012-08-04T08:23:20Z</time>
      </trkpt>
      <trkpt lat="46.58198" lon="9.42141">
        <ele>1107.1</ele>
        <time>2012-08-04T08:23:21Z</time>
      </trkpt>
      <trkpt lat="46.58192" lon="9.42138">
        <ele>1107.1</ele>
        <time>2012-08-04T08:23:22Z</time>
      </trkpt>
      <trkpt lat="46.58188" lon="9.42138">
        <ele>1107.1</ele>
        <time>2012-08-04T08:23:23Z</time>
      </trkpt>
      <trkpt lat="46.58184" lon="9.4214">
        <ele>1107.1</ele>
        <time>2012-08-04T08:23:24Z</time>
      </trkpt>
      <trkpt lat="46.58183" lon="9.42144">
        <ele>1107.58</ele>
        <time>2012-08-04T08:23:25Z</time>
      </trkpt>
      <trkpt lat="46.58184" lon="9.42153">
        <ele>1108.54</ele>
        <time>2012-08-04T08:23:26Z</time>
      </trkpt>
      <trkpt lat="46.58188" lon="9.42163">
        <ele>1109.02</ele>
        <time>2012-08-04T08:23:27Z</time>
      </trkpt>
      <trkpt lat="46.58196" lon="9.42188">
        <ele>1110.94</ele>
        <time>2012-08-04T08:23:29Z</time>
      </trkpt>
      <trkpt lat="46.5821" lon="9.42258">
        <ele>1114.31</ele>
        <time>2012-08-04T08:23:33Z</time>
      </trkpt>
      <trkpt lat="46.58214" lon="9.42283">
        <ele>1114.31</ele>
        <time>2012-08-04T08:23:35Z</time>
      </trkpt>
      <trkpt lat="46.58214" lon="9.42291">
        <ele>1114.31</ele>
        <time>2012-08-04T08:23:36Z</time>
      </trkpt>
      <trkpt lat="46.58212" lon="9.42297">
        <ele>1113.82</ele>
        <time>2012-08-04T08:23:37Z</time>
      </trkpt>
      <trkpt lat="46.58208" lon="9.423">
        <ele>1114.31</ele>
        <time>2012-08-04T08:23:38Z</time>
      </trkpt>
      <trkpt lat="46.58205" lon="9.42299">
        <ele>1114.31</ele>
        <time>2012-08-04T08:23:39Z</time>
      </trkpt>
      <trkpt lat="46.58203" lon="9.42295">
        <ele>1114.31</ele>
        <time>2012-08-04T08:23:40Z</time>
      </trkpt>
      <trkpt lat="46.58201" lon="9.42289">
        <ele>1114.79</ele>
        <time>2012-08-04T08:23:41Z</time>
      </trkpt>
      <trkpt lat="46.582" lon="9.4228">
        <ele>1116.23</ele>
        <time>2012-08-04T08:23:42Z</time>
      </trkpt>
      <trkpt lat="46.58199" lon="9.42269">
        <ele>1116.23</ele>
        <time>2012-08-04T08:23:43Z</time>
      </trkpt>
      <trkpt lat="46.58195" lon="9.4224">
        <ele>1118.63</ele>
        <time>2012-08-04T08:23:45Z</time>
      </trkpt>
      <trkpt lat="46.5819" lon="9.42224">
        <ele>1120.07</ele>
        <time>2012-08-04T08:23:46Z</time>
      </trkpt>
      <trkpt lat="46.58183" lon="9.42208">
        <ele>1121.52</ele>
        <time>2012-08-04T08:23:47Z</time>
      </trkpt>
      <trkpt lat="46.58175" lon="9.42193">
        <ele>1122.48</ele>
        <time>2012-08-04T08:23:48Z</time>
      </trkpt>
      <trkpt lat="46.58165" lon="9.4218">
        <ele>1123.44</ele>
        <time>2012-08-04T08:23:49Z</time>
      </trkpt>
      <trkpt lat="46.58156" lon="9.42167">
        <ele>1123.92</ele>
        <time>2012-08-04T08:23:50Z</time>
      </trkpt>
      <trkpt lat="46.5814" lon="9.42141">
        <ele>1124.88</ele>
        <time>2012-08-04T08:23:52Z</time>
      </trkpt>
      <trkpt lat="46.58136" lon="9.42127">
        <ele>1125.36</ele>
        <time>2012-08-04T08:23:53Z</time>
      </trkpt>
      <trkpt lat="46.58134" lon="9.42113">
        <ele>1126.32</ele>
        <time>2012-08-04T08:23:54Z</time>
      </trkpt>
      <trkpt lat="46.58133" lon="9.42101">
        <ele>1126.32</ele>
        <time>2012-08-04T08:23:55Z</time>
      </trkpt>
      <trkpt lat="46.58131" lon="9.42092">
        <ele>1125.84</ele>
        <time>2012-08-04T08:23:56Z</time>
      </trkpt>
      <trkpt lat="46.58128" lon="9.42087">
        <ele>1126.32</ele>
        <time>2012-08-04T08:23:57Z</time>
      </trkpt>
      <trkpt lat="46.58123" lon="9.42086">
        <ele>1125.84</ele>
        <time>2012-08-04T08:23:58Z</time>
      </trkpt>
      <trkpt lat="46.58119" lon="9.4209">
        <ele>1126.32</ele>
        <time>2012-08-04T08:23:59Z</time>
      </trkpt>
      <trkpt lat="46.58116" lon="9.42097">
        <ele>1126.32</ele>
        <time>2012-08-04T08:24:00Z</time>
      </trkpt>
      <trkpt lat="46.58114" lon="9.42105">
        <ele>1127.28</ele>
        <time>2012-08-04T08:24:01Z</time>
      </trkpt>
      <trkpt lat="46.58113" lon="9.42115">
        <ele>1127.76</ele>
        <time>2012-08-04T08:24:02Z</time>
      </trkpt>
      <trkpt lat="46.58112" lon="9.42125">
        <ele>1128.24</ele>
        <time>2012-08-04T08:24:03Z</time>
      </trkpt>
      <trkpt lat="46.58112" lon="9.42136">
        <ele>1128.73</ele>
        <time>2012-08-04T08:24:04Z</time>
      </trkpt>
      <trkpt lat="46.58113" lon="9.42146">
        <ele>1129.21</ele>
        <time>2012-08-04T08:24:05Z</time>
      </trkpt>
      <trkpt lat="46.58115" lon="9.42156">
        <ele>1130.17</ele>
        <time>2012-08-04T08:24:06Z</time>
      </trkpt>
      <trkpt lat="46.58118" lon="9.42165">
        <ele>1130.17</ele>
        <time>2012-08-04T08:24:07Z</time>
      </trkpt>
      <trkpt lat="46.58122" lon="9.42174">
        <ele>1130.65</ele>
        <time>2012-08-04T08:24:08Z</time>
      </trkpt>
      <trkpt lat="46.58128" lon="9.42183">
        <ele>1131.61</ele>
        <time>2012-08-04T08:24:09Z</time>
      </trkpt>
      <trkpt lat="46.58134" lon="9.42192">
        <ele>1132.09</ele>
        <time>2012-08-04T08:24:10Z</time>
      </trkpt>
      <trkpt lat="46.58143" lon="9.42207">
        <ele>1132.57</ele>
        <time>2012-08-04T08:24:12Z</time>
      </trkpt>
      <trkpt lat="46.58146" lon="9.42215">
        <ele>1133.05</ele>
        <time>2012-08-04T08:24:13Z</time>
      </trkpt>
      <trkpt lat="46.58146" lon="9.42221">
        <ele>1132.57</ele>
        <time>2012-08-04T08:24:14Z</time>
      </trkpt>
      <trkpt lat="46.58144" lon="9.42226">
        <ele>1133.05</ele>
        <time>2012-08-04T08:24:15Z</time>
      </trkpt>
      <trkpt lat="46.5814" lon="9.42226">
        <ele>1133.53</ele>
        <time>2012-08-04T08:24:16Z</time>
      </trkpt>
      <trkpt lat="46.58135" lon="9.42223">
        <ele>1134.01</ele>
        <time>2012-08-04T08:24:17Z</time>
      </trkpt>
      <trkpt lat="46.58131" lon="9.42216">
        <ele>1134.01</ele>
        <time>2012-08-04T08:24:18Z</time>
      </trkpt>
      <trkpt lat="46.58126" lon="9.42208">
        <ele>1134.97</ele>
        <time>2012-08-04T08:24:19Z</time>
      </trkpt>
      <trkpt lat="46.5812" lon="9.42198">
        <ele>1135.94</ele>
        <time>2012-08-04T08:24:20Z</time>
      </trkpt>
      <trkpt lat="46.58112" lon="9.42188">
        <ele>1136.42</ele>
        <time>2012-08-04T08:24:21Z</time>
      </trkpt>
      <trkpt lat="46.58094" lon="9.42166">
        <ele>1138.34</ele>
        <time>2012-08-04T08:24:23Z</time>
      </trkpt>
      <trkpt lat="46.58087" lon="9.42151">
        <ele>1139.78</ele>
        <time>2012-08-04T08:24:24Z</time>
      </trkpt>
      <trkpt lat="46.58082" lon="9.42134">
        <ele>1140.74</ele>
        <time>2012-08-04T08:24:25Z</time>
      </trkpt>
      <trkpt lat="46.58078" lon="9.42115">
        <ele>1141.7</ele>
        <time>2012-08-04T08:24:26Z</time>
      </trkpt>
      <trkpt lat="46.58075" lon="9.42095">
        <ele>1142.66</ele>
        <time>2012-08-04T08:24:27Z</time>
      </trkpt>
      <trkpt lat="46.58073" lon="9.42074">
        <ele>1143.63</ele>
        <time>2012-08-04T08:24:28Z</time>
      </trkpt>
      <trkpt lat="46.5807" lon="9.42012">
        <ele>1145.07</ele>
        <time>2012-08-04T08:24:31Z</time>
      </trkpt>
      <trkpt lat="46.58072" lon="9.41996">
        <ele>1145.07</ele>
        <time>2012-08-04T08:24:32Z</time>
      </trkpt>
      <trkpt lat="46.58075" lon="9.41972">
        <ele>1145.07</ele>
        <time>2012-08-04T08:24:34Z</time>
      </trkpt>
      <trkpt lat="46.58075" lon="9.41964">
        <ele>1145.07</ele>
        <time>2012-08-04T08:24:35Z</time>
      </trkpt>
      <trkpt lat="46.58073" lon="9.41958">
        <ele>1145.55</ele>
        <time>2012-08-04T08:24:36Z</time>
      </trkpt>
      <trkpt lat="46.58067" lon="9.41955">
        <ele>1146.03</ele>
        <time>2012-08-04T08:24:37Z</time>
      </trkpt>
      <trkpt lat="46.58062" lon="9.41957">
        <ele>1145.55</ele>
        <time>2012-08-04T08:24:38Z</time>
      </trkpt>
      <trkpt lat="46.58058" lon="9.41961">
        <ele>1146.03</ele>
        <time>2012-08-04T08:24:39Z</time>
      </trkpt>
      <trkpt lat="46.58055" lon="9.41969">
        <ele>1146.51</ele>
        <time>2012-08-04T08:24:40Z</time>
      </trkpt>
      <trkpt lat="46.58052" lon="9.4198">
        <ele>1147.47</ele>
        <time>2012-08-04T08:24:41Z</time>
      </trkpt>
      <trkpt lat="46.58052" lon="9.41996">
        <ele>1148.43</ele>
        <time>2012-08-04T08:24:42Z</time>
      </trkpt>
      <trkpt lat="46.58051" lon="9.42015">
        <ele>1149.87</ele>
        <time>2012-08-04T08:24:43Z</time>
      </trkpt>
      <trkpt lat="46.58049" lon="9.42034">
        <ele>1150.84</ele>
        <time>2012-08-04T08:24:44Z</time>
      </trkpt>
      <trkpt lat="46.5804" lon="9.42097">
        <ele>1154.68</ele>
        <time>2012-08-04T08:24:47Z</time>
      </trkpt>
      <trkpt lat="46.58034" lon="9.42139">
        <ele>1156.6</ele>
        <time>2012-08-04T08:24:49Z</time>
      </trkpt>
      <trkpt lat="46.58034" lon="9.42161">
        <ele>1157.56</ele>
        <time>2012-08-04T08:24:50Z</time>
      </trkpt>
      <trkpt lat="46.58036" lon="9.4218">
        <ele>1158.05</ele>
        <time>2012-08-04T08:24:51Z</time>
      </trkpt>
      <trkpt lat="46.58039" lon="9.42197">
        <ele>1158.05</ele>
        <time>2012-08-04T08:24:52Z</time>
      </trkpt>
      <trkpt lat="46.58043" lon="9.4221">
        <ele>1158.05</ele>
        <time>2012-08-04T08:24:53Z</time>
      </trkpt>
      <trkpt lat="46.58046" lon="9.42221">
        <ele>1158.05</ele>
        <time>2012-08-04T08:24:54Z</time>
      </trkpt>
      <trkpt lat="46.58046" lon="9.4223">
        <ele>1158.53</ele>
        <time>2012-08-04T08:24:55Z</time>
      </trkpt>
      <trkpt lat="46.58045" lon="9.42235">
        <ele>1158.05</ele>
        <time>2012-08-04T08:24:56Z</time>
      </trkpt>
      <trkpt lat="46.58042" lon="9.42238">
        <ele>1158.05</ele>
        <time>2012-08-04T08:24:57Z</time>
      </trkpt>
      <trkpt lat="46.58038" lon="9.42236">
        <ele>1159.01</ele>
        <time>2012-08-04T08:24:58Z</time>
      </trkpt>
      <trkpt lat="46.58036" lon="9.4223">
        <ele>1159.49</ele>
        <time>2012-08-04T08:24:59Z</time>
      </trkpt>
      <trkpt lat="46.58033" lon="9.42221">
        <ele>1159.97</ele>
        <time>2012-08-04T08:25:00Z</time>
      </trkpt>
      <trkpt lat="46.5803" lon="9.42208">
        <ele>1161.41</ele>
        <time>2012-08-04T08:25:01Z</time>
      </trkpt>
      <trkpt lat="46.58019" lon="9.42159">
        <ele>1165.26</ele>
        <time>2012-08-04T08:25:04Z</time>
      </trkpt>
      <trkpt lat="46.58008" lon="9.421">
        <ele>1168.62</ele>
        <time>2012-08-04T08:25:07Z</time>
      </trkpt>
      <trkpt lat="46.58001" lon="9.42047">
        <ele>1171.5</ele>
        <time>2012-08-04T08:25:10Z</time>
      </trkpt>
      <trkpt lat="46.57998" lon="9.42033">
        <ele>1171.98</ele>
        <time>2012-08-04T08:25:11Z</time>
      </trkpt>
      <trkpt lat="46.57994" lon="9.42023">
        <ele>1172.47</ele>
        <time>2012-08-04T08:25:12Z</time>
      </trkpt>
      <trkpt lat="46.57988" lon="9.42015">
        <ele>1171.98</ele>
        <time>2012-08-04T08:25:13Z</time>
      </trkpt>
      <trkpt lat="46.57982" lon="9.4201">
        <ele>1172.47</ele>
        <time>2012-08-04T08:25:14Z</time>
      </trkpt>
      <trkpt lat="46.57975" lon="9.42003">
        <ele>1173.43</ele>
        <time>2012-08-04T08:25:15Z</time>
      </trkpt>
      <trkpt lat="46.57967" lon="9.41993">
        <ele>1174.39</ele>
        <time>2012-08-04T08:25:16Z</time>
      </trkpt>
      <trkpt lat="46.5796" lon="9.4198">
        <ele>1175.35</ele>
        <time>2012-08-04T08:25:17Z</time>
      </trkpt>
      <trkpt lat="46.57936" lon="9.41938">
        <ele>1178.23</ele>
        <time>2012-08-04T08:25:20Z</time>
      </trkpt>
      <trkpt lat="46.57928" lon="9.41924">
        <ele>1178.71</ele>
        <time>2012-08-04T08:25:21Z</time>
      </trkpt>
      <trkpt lat="46.57923" lon="9.41911">
        <ele>1178.71</ele>
        <time>2012-08-04T08:25:22Z</time>
      </trkpt>
      <trkpt lat="46.57909" lon="9.4187">
        <ele>1182.08</ele>
        <time>2012-08-04T08:25:25Z</time>
      </trkpt>
      <trkpt lat="46.57903" lon="9.41855">
        <ele>1182.56</ele>
        <time>2012-08-04T08:25:26Z</time>
      </trkpt>
      <trkpt lat="46.57895" lon="9.41841">
        <ele>1183.52</ele>
        <time>2012-08-04T08:25:27Z</time>
      </trkpt>
      <trkpt lat="46.57856" lon="9.41788">
        <ele>1186.4</ele>
        <time>2012-08-04T08:25:31Z</time>
      </trkpt>
      <trkpt lat="46.57845" lon="9.41777">
        <ele>1187.37</ele>
        <time>2012-08-04T08:25:32Z</time>
      </trkpt>
      <trkpt lat="46.57833" lon="9.41768">
        <ele>1188.81</ele>
        <time>2012-08-04T08:25:33Z</time>
      </trkpt>
      <trkpt lat="46.57821" lon="9.4176">
        <ele>1189.77</ele>
        <time>2012-08-04T08:25:34Z</time>
      </trkpt>
      <trkpt lat="46.57808" lon="9.41755">
        <ele>1190.73</ele>
        <time>2012-08-04T08:25:35Z</time>
      </trkpt>
      <trkpt lat="46.57794" lon="9.41752">
        <ele>1192.65</ele>
        <time>2012-08-04T08:25:36Z</time>
      </trkpt>
      <trkpt lat="46.57779" lon="9.41749">
        <ele>1193.61</ele>
        <time>2012-08-04T08:25:37Z</time>
      </trkpt>
      <trkpt lat="46.5775" lon="9.41746">
        <ele>1196.98</ele>
        <time>2012-08-04T08:25:39Z</time>
      </trkpt>
      <trkpt lat="46.57707" lon="9.41739">
        <ele>1202.27</ele>
        <time>2012-08-04T08:25:42Z</time>
      </trkpt>
      <trkpt lat="46.5767" lon="9.41726">
        <ele>1204.67</ele>
        <time>2012-08-04T08:25:45Z</time>
      </trkpt>
      <trkpt lat="46.5766" lon="9.41725">
        <ele>1205.63</ele>
        <time>2012-08-04T08:25:46Z</time>
      </trkpt>
      <trkpt lat="46.5765" lon="9.41727">
        <ele>1206.11</ele>
        <time>2012-08-04T08:25:47Z</time>
      </trkpt>
      <trkpt lat="46.57638" lon="9.41731">
        <ele>1208.51</ele>
        <time>2012-08-04T08:25:48Z</time>
      </trkpt>
      <trkpt lat="46.57627" lon="9.41738">
        <ele>1209.48</ele>
        <time>2012-08-04T08:25:49Z</time>
      </trkpt>
      <trkpt lat="46.57618" lon="9.41748">
        <ele>1210.92</ele>
        <time>2012-08-04T08:25:50Z</time>
      </trkpt>
      <trkpt lat="46.57608" lon="9.41759">
        <ele>1211.88</ele>
        <time>2012-08-04T08:25:51Z</time>
      </trkpt>
      <trkpt lat="46.57599" lon="9.41772">
        <ele>1212.36</ele>
        <time>2012-08-04T08:25:52Z</time>
      </trkpt>
      <trkpt lat="46.5759" lon="9.41784">
        <ele>1212.36</ele>
        <time>2012-08-04T08:25:53Z</time>
      </trkpt>
      <trkpt lat="46.57581" lon="9.41794">
        <ele>1211.88</ele>
        <time>2012-08-04T08:25:54Z</time>
      </trkpt>
      <trkpt lat="46.5757" lon="9.41801">
        <ele>1212.36</ele>
        <time>2012-08-04T08:25:55Z</time>
      </trkpt>
      <trkpt lat="46.57558" lon="9.41805">
        <ele>1212.84</ele>
        <time>2012-08-04T08:25:56Z</time>
      </trkpt>
      <trkpt lat="46.57545" lon="9.4181">
        <ele>1213.32</ele>
        <time>2012-08-04T08:25:57Z</time>
      </trkpt>
      <trkpt lat="46.57532" lon="9.41814">
        <ele>1213.32</ele>
        <time>2012-08-04T08:25:58Z</time>
      </trkpt>
      <trkpt lat="46.57518" lon="9.41817">
        <ele>1213.8</ele>
        <time>2012-08-04T08:25:59Z</time>
      </trkpt>
      <trkpt lat="46.57504" lon="9.41818">
        <ele>1214.28</ele>
        <time>2012-08-04T08:26:00Z</time>
      </trkpt>
      <trkpt lat="46.5749" lon="9.41817">
        <ele>1215.24</ele>
        <time>2012-08-04T08:26:01Z</time>
      </trkpt>
      <trkpt lat="46.57476" lon="9.41814">
        <ele>1215.72</ele>
        <time>2012-08-04T08:26:02Z</time>
      </trkpt>
      <trkpt lat="46.57464" lon="9.41809">
        <ele>1216.21</ele>
        <time>2012-08-04T08:26:03Z</time>
      </trkpt>
      <trkpt lat="46.57453" lon="9.41804">
        <ele>1216.69</ele>
        <time>2012-08-04T08:26:04Z</time>
      </trkpt>
      <trkpt lat="46.57443" lon="9.418">
        <ele>1217.17</ele>
        <time>2012-08-04T08:26:05Z</time>
      </trkpt>
      <trkpt lat="46.57433" lon="9.41799">
        <ele>1217.65</ele>
        <time>2012-08-04T08:26:06Z</time>
      </trkpt>
      <trkpt lat="46.57423" lon="9.41802">
        <ele>1218.13</ele>
        <time>2012-08-04T08:26:07Z</time>
      </trkpt>
      <trkpt lat="46.57414" lon="9.41808">
        <ele>1219.09</ele>
        <time>2012-08-04T08:26:08Z</time>
      </trkpt>
      <trkpt lat="46.57404" lon="9.41816">
        <ele>1220.53</ele>
        <time>2012-08-04T08:26:09Z</time>
      </trkpt>
      <trkpt lat="46.57355" lon="9.41857">
        <ele>1223.42</ele>
        <time>2012-08-04T08:26:14Z</time>
      </trkpt>
      <trkpt lat="46.57347" lon="9.4186">
        <ele>1223.9</ele>
        <time>2012-08-04T08:26:15Z</time>
      </trkpt>
      <trkpt lat="46.57339" lon="9.41861">
        <ele>1224.38</ele>
        <time>2012-08-04T08:26:16Z</time>
      </trkpt>
      <trkpt lat="46.57332" lon="9.41858">
        <ele>1225.34</ele>
        <time>2012-08-04T08:26:17Z</time>
      </trkpt>
      <trkpt lat="46.57326" lon="9.41853">
        <ele>1226.3</ele>
        <time>2012-08-04T08:26:18Z</time>
      </trkpt>
      <trkpt lat="46.5732" lon="9.41845">
        <ele>1227.26</ele>
        <time>2012-08-04T08:26:19Z</time>
      </trkpt>
      <trkpt lat="46.573" lon="9.41806">
        <ele>1230.62</ele>
        <time>2012-08-04T08:26:23Z</time>
      </trkpt>
      <trkpt lat="46.57296" lon="9.41798">
        <ele>1231.11</ele>
        <time>2012-08-04T08:26:24Z</time>
      </trkpt>
      <trkpt lat="46.57291" lon="9.41788">
        <ele>1232.55</ele>
        <time>2012-08-04T08:26:25Z</time>
      </trkpt>
      <trkpt lat="46.57267" lon="9.41735">
        <ele>1236.39</ele>
        <time>2012-08-04T08:26:29Z</time>
      </trkpt>
      <trkpt lat="46.57254" lon="9.41712">
        <ele>1238.32</ele>
        <time>2012-08-04T08:26:31Z</time>
      </trkpt>
      <trkpt lat="46.57246" lon="9.41702">
        <ele>1239.76</ele>
        <time>2012-08-04T08:26:32Z</time>
      </trkpt>
      <trkpt lat="46.57238" lon="9.41694">
        <ele>1240.24</ele>
        <time>2012-08-04T08:26:33Z</time>
      </trkpt>
      <trkpt lat="46.57229" lon="9.41688">
        <ele>1240.72</ele>
        <time>2012-08-04T08:26:34Z</time>
      </trkpt>
      <trkpt lat="46.57221" lon="9.41685">
        <ele>1241.68</ele>
        <time>2012-08-04T08:26:35Z</time>
      </trkpt>
      <trkpt lat="46.57212" lon="9.41683">
        <ele>1242.16</ele>
        <time>2012-08-04T08:26:36Z</time>
      </trkpt>
      <trkpt lat="46.57203" lon="9.41682">
        <ele>1243.12</ele>
        <time>2012-08-04T08:26:37Z</time>
      </trkpt>
      <trkpt lat="46.57193" lon="9.41684">
        <ele>1244.08</ele>
        <time>2012-08-04T08:26:38Z</time>
      </trkpt>
      <trkpt lat="46.57184" lon="9.41689">
        <ele>1245.53</ele>
        <time>2012-08-04T08:26:39Z</time>
      </trkpt>
      <trkpt lat="46.57176" lon="9.41695">
        <ele>1246.49</ele>
        <time>2012-08-04T08:26:40Z</time>
      </trkpt>
      <trkpt lat="46.57168" lon="9.41703">
        <ele>1247.45</ele>
        <time>2012-08-04T08:26:41Z</time>
      </trkpt>
      <trkpt lat="46.57161" lon="9.41712">
        <ele>1247.93</ele>
        <time>2012-08-04T08:26:42Z</time>
      </trkpt>
      <trkpt lat="46.57152" lon="9.41719">
        <ele>1248.41</ele>
        <time>2012-08-04T08:26:43Z</time>
      </trkpt>
      <trkpt lat="46.57143" lon="9.41724">
        <ele>1248.89</ele>
        <time>2012-08-04T08:26:44Z</time>
      </trkpt>
      <trkpt lat="46.57133" lon="9.41728">
        <ele>1249.37</ele>
        <time>2012-08-04T08:26:45Z</time>
      </trkpt>
      <trkpt lat="46.57093" lon="9.41735">
        <ele>1250.81</ele>
        <time>2012-08-04T08:26:51Z</time>
      </trkpt>
      <trkpt lat="46.57081" lon="9.41737">
        <ele>1252.25</ele>
        <time>2012-08-04T08:26:53Z</time>
      </trkpt>
      <trkpt lat="46.57066" lon="9.41736">
        <ele>1253.7</ele>
        <time>2012-08-04T08:26:55Z</time>
      </trkpt>
      <trkpt lat="46.57058" lon="9.41733">
        <ele>1254.66</ele>
        <time>2012-08-04T08:26:56Z</time>
      </trkpt>
      <trkpt lat="46.57051" lon="9.41727">
        <ele>1255.14</ele>
        <time>2012-08-04T08:26:57Z</time>
      </trkpt>
      <trkpt lat="46.57045" lon="9.41719">
        <ele>1255.62</ele>
        <time>2012-08-04T08:26:58Z</time>
      </trkpt>
      <trkpt lat="46.57003" lon="9.41642">
        <ele>1258.98</ele>
        <time>2012-08-04T08:27:04Z</time>
      </trkpt>
      <trkpt lat="46.56997" lon="9.41626">
        <ele>1259.46</ele>
        <time>2012-08-04T08:27:05Z</time>
      </trkpt>
      <trkpt lat="46.56992" lon="9.41608">
        <ele>1259.94</ele>
        <time>2012-08-04T08:27:06Z</time>
      </trkpt>
      <trkpt lat="46.56988" lon="9.41589">
        <ele>1260.43</ele>
        <time>2012-08-04T08:27:07Z</time>
      </trkpt>
      <trkpt lat="46.56985" lon="9.41567">
        <ele>1260.91</ele>
        <time>2012-08-04T08:27:08Z</time>
      </trkpt>
      <trkpt lat="46.56982" lon="9.41545">
        <ele>1260.91</ele>
        <time>2012-08-04T08:27:09Z</time>
      </trkpt>
      <trkpt lat="46.56974" lon="9.41502">
        <ele>1262.35</ele>
        <time>2012-08-04T08:27:11Z</time>
      </trkpt>
      <trkpt lat="46.56969" lon="9.41482">
        <ele>1262.83</ele>
        <time>2012-08-04T08:27:12Z</time>
      </trkpt>
      <trkpt lat="46.56962" lon="9.41463">
        <ele>1262.83</ele>
        <time>2012-08-04T08:27:13Z</time>
      </trkpt>
      <trkpt lat="46.56947" lon="9.4143">
        <ele>1262.35</ele>
        <time>2012-08-04T08:27:15Z</time>
      </trkpt>
      <trkpt lat="46.56895" lon="9.41348">
        <ele>1260.43</ele>
        <time>2012-08-04T08:27:21Z</time>
      </trkpt>
      <trkpt lat="46.5689" lon="9.41335">
        <ele>1260.43</ele>
        <time>2012-08-04T08:27:22Z</time>
      </trkpt>
      <trkpt lat="46.56886" lon="9.4132">
        <ele>1260.43</ele>
        <time>2012-08-04T08:27:23Z</time>
      </trkpt>
      <trkpt lat="46.56882" lon="9.41305">
        <ele>1260.43</ele>
        <time>2012-08-04T08:27:24Z</time>
      </trkpt>
      <trkpt lat="46.56878" lon="9.41291">
        <ele>1260.43</ele>
        <time>2012-08-04T08:27:25Z</time>
      </trkpt>
      <trkpt lat="46.56861" lon="9.41237">
        <ele>1260.43</ele>
        <time>2012-08-04T08:27:29Z</time>
      </trkpt>
      <trkpt lat="46.5685" lon="9.41212">
        <ele>1260.43</ele>
        <time>2012-08-04T08:27:31Z</time>
      </trkpt>
      <trkpt lat="46.56847" lon="9.41198">
        <ele>1259.94</ele>
        <time>2012-08-04T08:27:32Z</time>
      </trkpt>
      <trkpt lat="46.56846" lon="9.41182">
        <ele>1259.46</ele>
        <time>2012-08-04T08:27:33Z</time>
      </trkpt>
      <trkpt lat="46.56848" lon="9.41167">
        <ele>1259.94</ele>
        <time>2012-08-04T08:27:34Z</time>
      </trkpt>
      <trkpt lat="46.5685" lon="9.41152">
        <ele>1259.94</ele>
        <time>2012-08-04T08:27:35Z</time>
      </trkpt>
      <trkpt lat="46.5685" lon="9.41136">
        <ele>1259.46</ele>
        <time>2012-08-04T08:27:36Z</time>
      </trkpt>
      <trkpt lat="46.56848" lon="9.41117">
        <ele>1259.94</ele>
        <time>2012-08-04T08:27:37Z</time>
      </trkpt>
      <trkpt lat="46.56848" lon="9.41099">
        <ele>1260.43</ele>
        <time>2012-08-04T08:27:38Z</time>
      </trkpt>
      <trkpt lat="46.56848" lon="9.41082">
        <ele>1259.94</ele>
        <time>2012-08-04T08:27:39Z</time>
      </trkpt>
      <trkpt lat="46.56847" lon="9.41066">
        <ele>1259.94</ele>
        <time>2012-08-04T08:27:40Z</time>
      </trkpt>
      <trkpt lat="46.56844" lon="9.41049">
        <ele>1259.94</ele>
        <time>2012-08-04T08:27:41Z</time>
      </trkpt>
      <trkpt lat="46.5684" lon="9.41032">
        <ele>1260.43</ele>
        <time>2012-08-04T08:27:42Z</time>
      </trkpt>
      <trkpt lat="46.56823" lon="9.40915">
        <ele>1263.31</ele>
        <time>2012-08-04T08:27:49Z</time>
      </trkpt>
      <trkpt lat="46.56817" lon="9.40883">
        <ele>1264.75</ele>
        <time>2012-08-04T08:27:51Z</time>
      </trkpt>
      <trkpt lat="46.56812" lon="9.40867">
        <ele>1265.71</ele>
        <time>2012-08-04T08:27:52Z</time>
      </trkpt>
      <trkpt lat="46.56807" lon="9.40851">
        <ele>1265.71</ele>
        <time>2012-08-04T08:27:53Z</time>
      </trkpt>
      <trkpt lat="46.56784" lon="9.40791">
        <ele>1269.08</ele>
        <time>2012-08-04T08:27:57Z</time>
      </trkpt>
      <trkpt lat="46.56778" lon="9.40775">
        <ele>1269.56</ele>
        <time>2012-08-04T08:27:58Z</time>
      </trkpt>
      <trkpt lat="46.56753" lon="9.40717">
        <ele>1273.4</ele>
        <time>2012-08-04T08:28:02Z</time>
      </trkpt>
      <trkpt lat="46.5673" lon="9.40635">
        <ele>1276.77</ele>
        <time>2012-08-04T08:28:07Z</time>
      </trkpt>
      <trkpt lat="46.56714" lon="9.40588">
        <ele>1281.57</ele>
        <time>2012-08-04T08:28:10Z</time>
      </trkpt>
      <trkpt lat="46.56694" lon="9.40541">
        <ele>1285.9</ele>
        <time>2012-08-04T08:28:13Z</time>
      </trkpt>
      <trkpt lat="46.56674" lon="9.40492">
        <ele>1288.78</ele>
        <time>2012-08-04T08:28:16Z</time>
      </trkpt>
      <trkpt lat="46.5667" lon="9.40475">
        <ele>1290.23</ele>
        <time>2012-08-04T08:28:17Z</time>
      </trkpt>
      <trkpt lat="46.56661" lon="9.40424">
        <ele>1293.59</ele>
        <time>2012-08-04T08:28:20Z</time>
      </trkpt>
      <trkpt lat="46.56651" lon="9.40371">
        <ele>1296.96</ele>
        <time>2012-08-04T08:28:23Z</time>
      </trkpt>
      <trkpt lat="46.5664" lon="9.40318">
        <ele>1300.32</ele>
        <time>2012-08-04T08:28:26Z</time>
      </trkpt>
      <trkpt lat="46.56633" lon="9.40268">
        <ele>1303.69</ele>
        <time>2012-08-04T08:28:29Z</time>
      </trkpt>
      <trkpt lat="46.56633" lon="9.4025">
        <ele>1304.65</ele>
        <time>2012-08-04T08:28:30Z</time>
      </trkpt>
      <trkpt lat="46.56635" lon="9.40232">
        <ele>1306.09</ele>
        <time>2012-08-04T08:28:31Z</time>
      </trkpt>
      <trkpt lat="46.56637" lon="9.40193">
        <ele>1309.45</ele>
        <time>2012-08-04T08:28:33Z</time>
      </trkpt>
      <trkpt lat="46.56638" lon="9.40173">
        <ele>1309.93</ele>
        <time>2012-08-04T08:28:34Z</time>
      </trkpt>
      <trkpt lat="46.56641" lon="9.40154">
        <ele>1311.38</ele>
        <time>2012-08-04T08:28:35Z</time>
      </trkpt>
      <trkpt lat="46.56644" lon="9.40136">
        <ele>1311.86</ele>
        <time>2012-08-04T08:28:36Z</time>
      </trkpt>
      <trkpt lat="46.56651" lon="9.40105">
        <ele>1312.82</ele>
        <time>2012-08-04T08:28:38Z</time>
      </trkpt>
      <trkpt lat="46.56656" lon="9.4008">
        <ele>1313.3</ele>
        <time>2012-08-04T08:28:41Z</time>
      </trkpt>
      <trkpt lat="46.56657" lon="9.40074">
        <ele>1313.3</ele>
        <time>2012-08-04T08:28:42Z</time>
      </trkpt>
      <trkpt lat="46.56656" lon="9.40069">
        <ele>1313.3</ele>
        <time>2012-08-04T08:28:43Z</time>
      </trkpt>
      <trkpt lat="46.56656" lon="9.40065">
        <ele>1313.78</ele>
        <time>2012-08-04T08:28:44Z</time>
      </trkpt>
      <trkpt lat="46.56657" lon="9.40062">
        <ele>1313.3</ele>
        <time>2012-08-04T08:28:54Z</time>
      </trkpt>
      <trkpt lat="46.5666" lon="9.40063">
        <ele>1313.78</ele>
        <time>2012-08-04T08:29:26Z</time>
      </trkpt>
      <trkpt lat="46.56658" lon="9.40065">
        <ele>1313.78</ele>
        <time>2012-08-04T08:29:52Z</time>
      </trkpt>
      <trkpt lat="46.56657" lon="9.40065">
        <ele>1314.26</ele>
        <time>2012-08-04T08:30:19Z</time>
      </trkpt>
      <trkpt lat="46.56657" lon="9.40065">
        <ele>1314.26</ele>
        <time>2012-08-04T08:30:37Z</time>
      </trkpt>
      <trkpt lat="46.56656" lon="9.40065">
        <ele>1314.74</ele>
        <time>2012-08-04T08:30:44Z</time>
      </trkpt>
      <trkpt lat="46.56655" lon="9.40062">
        <ele>1314.74</ele>
        <time>2012-08-04T08:30:45Z</time>
      </trkpt>
      <trkpt lat="46.56653" lon="9.40057">
        <ele>1315.22</ele>
        <time>2012-08-04T08:30:46Z</time>
      </trkpt>
      <trkpt lat="46.56651" lon="9.4005">
        <ele>1315.22</ele>
        <time>2012-08-04T08:30:47Z</time>
      </trkpt>
      <trkpt lat="46.56649" lon="9.40041">
        <ele>1316.18</ele>
        <time>2012-08-04T08:30:48Z</time>
      </trkpt>
      <trkpt lat="46.56647" lon="9.40031">
        <ele>1316.18</ele>
        <time>2012-08-04T08:30:49Z</time>
      </trkpt>
      <trkpt lat="46.56643" lon="9.39985">
        <ele>1318.1</ele>
        <time>2012-08-04T08:30:53Z</time>
      </trkpt>
      <trkpt lat="46.56643" lon="9.39972">
        <ele>1318.59</ele>
        <time>2012-08-04T08:30:54Z</time>
      </trkpt>
      <trkpt lat="46.56645" lon="9.39959">
        <ele>1318.59</ele>
        <time>2012-08-04T08:30:55Z</time>
      </trkpt>
      <trkpt lat="46.56648" lon="9.39944">
        <ele>1319.07</ele>
        <time>2012-08-04T08:30:56Z</time>
      </trkpt>
      <trkpt lat="46.56651" lon="9.39929">
        <ele>1319.55</ele>
        <time>2012-08-04T08:30:57Z</time>
      </trkpt>
      <trkpt lat="46.56658" lon="9.39895">
        <ele>1320.51</ele>
        <time>2012-08-04T08:30:59Z</time>
      </trkpt>
      <trkpt lat="46.56672" lon="9.39727">
        <ele>1320.99</ele>
        <time>2012-08-04T08:31:07Z</time>
      </trkpt>
      <trkpt lat="46.56704" lon="9.39551">
        <ele>1322.91</ele>
        <time>2012-08-04T08:31:15Z</time>
      </trkpt>
      <trkpt lat="46.56793" lon="9.39347">
        <ele>1324.83</ele>
        <time>2012-08-04T08:31:25Z</time>
      </trkpt>
      <trkpt lat="46.56876" lon="9.39201">
        <ele>1328.2</ele>
        <time>2012-08-04T08:31:33Z</time>
      </trkpt>
      <trkpt lat="46.56884" lon="9.39181">
        <ele>1327.72</ele>
        <time>2012-08-04T08:31:34Z</time>
      </trkpt>
      <trkpt lat="46.5689" lon="9.39162">
        <ele>1329.16</ele>
        <time>2012-08-04T08:31:35Z</time>
      </trkpt>
      <trkpt lat="46.56896" lon="9.39141">
        <ele>1329.16</ele>
        <time>2012-08-04T08:31:36Z</time>
      </trkpt>
      <trkpt lat="46.569" lon="9.39121">
        <ele>1329.16</ele>
        <time>2012-08-04T08:31:37Z</time>
      </trkpt>
      <trkpt lat="46.56903" lon="9.39101">
        <ele>1329.64</ele>
        <time>2012-08-04T08:31:38Z</time>
      </trkpt>
      <trkpt lat="46.56905" lon="9.3908">
        <ele>1330.12</ele>
        <time>2012-08-04T08:31:39Z</time>
      </trkpt>
      <trkpt lat="46.56905" lon="9.3906">
        <ele>1330.6</ele>
        <time>2012-08-04T08:31:40Z</time>
      </trkpt>
      <trkpt lat="46.56905" lon="9.39039">
        <ele>1331.08</ele>
        <time>2012-08-04T08:31:41Z</time>
      </trkpt>
      <trkpt lat="46.56903" lon="9.39018">
        <ele>1331.08</ele>
        <time>2012-08-04T08:31:42Z</time>
      </trkpt>
      <trkpt lat="46.569" lon="9.38997">
        <ele>1331.56</ele>
        <time>2012-08-04T08:31:43Z</time>
      </trkpt>
      <trkpt lat="46.56856" lon="9.38804">
        <ele>1333.49</ele>
        <time>2012-08-04T08:31:52Z</time>
      </trkpt>
      <trkpt lat="46.56851" lon="9.38713">
        <ele>1336.85</ele>
        <time>2012-08-04T08:31:56Z</time>
      </trkpt>
      <trkpt lat="46.56859" lon="9.38645">
        <ele>1340.22</ele>
        <time>2012-08-04T08:31:59Z</time>
      </trkpt>
      <trkpt lat="46.56874" lon="9.38579">
        <ele>1344.06</ele>
        <time>2012-08-04T08:32:02Z</time>
      </trkpt>
      <trkpt lat="46.56888" lon="9.38512">
        <ele>1347.91</ele>
        <time>2012-08-04T08:32:05Z</time>
      </trkpt>
      <trkpt lat="46.5689" lon="9.3849">
        <ele>1348.87</ele>
        <time>2012-08-04T08:32:06Z</time>
      </trkpt>
      <trkpt lat="46.56891" lon="9.38468">
        <ele>1350.31</ele>
        <time>2012-08-04T08:32:07Z</time>
      </trkpt>
      <trkpt lat="46.5689" lon="9.38447">
        <ele>1349.83</ele>
        <time>2012-08-04T08:32:08Z</time>
      </trkpt>
      <trkpt lat="46.56889" lon="9.38429">
        <ele>1350.31</ele>
        <time>2012-08-04T08:32:09Z</time>
      </trkpt>
      <trkpt lat="46.56887" lon="9.38412">
        <ele>1350.31</ele>
        <time>2012-08-04T08:32:10Z</time>
      </trkpt>
      <trkpt lat="46.56885" lon="9.38374">
        <ele>1350.79</ele>
        <time>2012-08-04T08:32:13Z</time>
      </trkpt>
      <trkpt lat="46.56887" lon="9.38365">
        <ele>1351.27</ele>
        <time>2012-08-04T08:32:14Z</time>
      </trkpt>
      <trkpt lat="46.56891" lon="9.3836">
        <ele>1350.79</ele>
        <time>2012-08-04T08:32:15Z</time>
      </trkpt>
      <trkpt lat="46.56896" lon="9.38357">
        <ele>1351.75</ele>
        <time>2012-08-04T08:32:16Z</time>
      </trkpt>
      <trkpt lat="46.56901" lon="9.38357">
        <ele>1351.75</ele>
        <time>2012-08-04T08:32:17Z</time>
      </trkpt>
      <trkpt lat="46.56906" lon="9.38362">
        <ele>1352.23</ele>
        <time>2012-08-04T08:32:18Z</time>
      </trkpt>
      <trkpt lat="46.56909" lon="9.3837">
        <ele>1352.71</ele>
        <time>2012-08-04T08:32:19Z</time>
      </trkpt>
      <trkpt lat="46.56911" lon="9.38382">
        <ele>1353.67</ele>
        <time>2012-08-04T08:32:20Z</time>
      </trkpt>
      <trkpt lat="46.56911" lon="9.38396">
        <ele>1355.12</ele>
        <time>2012-08-04T08:32:21Z</time>
      </trkpt>
      <trkpt lat="46.56911" lon="9.38413">
        <ele>1356.08</ele>
        <time>2012-08-04T08:32:22Z</time>
      </trkpt>
      <trkpt lat="46.56916" lon="9.38471">
        <ele>1359.44</ele>
        <time>2012-08-04T08:32:25Z</time>
      </trkpt>
      <trkpt lat="46.56923" lon="9.38512">
        <ele>1360.88</ele>
        <time>2012-08-04T08:32:27Z</time>
      </trkpt>
      <trkpt lat="46.56924" lon="9.38533">
        <ele>1361.84</ele>
        <time>2012-08-04T08:32:28Z</time>
      </trkpt>
      <trkpt lat="46.56924" lon="9.38551">
        <ele>1361.84</ele>
        <time>2012-08-04T08:32:29Z</time>
      </trkpt>
      <trkpt lat="46.56924" lon="9.38579">
        <ele>1360.88</ele>
        <time>2012-08-04T08:32:31Z</time>
      </trkpt>
      <trkpt lat="46.56926" lon="9.3859">
        <ele>1361.36</ele>
        <time>2012-08-04T08:32:32Z</time>
      </trkpt>
      <trkpt lat="46.56929" lon="9.38599">
        <ele>1361.84</ele>
        <time>2012-08-04T08:32:33Z</time>
      </trkpt>
      <trkpt lat="46.56935" lon="9.38604">
        <ele>1361.84</ele>
        <time>2012-08-04T08:32:34Z</time>
      </trkpt>
      <trkpt lat="46.56941" lon="9.38606">
        <ele>1362.33</ele>
        <time>2012-08-04T08:32:35Z</time>
      </trkpt>
      <trkpt lat="46.56948" lon="9.38604">
        <ele>1362.81</ele>
        <time>2012-08-04T08:32:36Z</time>
      </trkpt>
      <trkpt lat="46.56953" lon="9.38597">
        <ele>1362.81</ele>
        <time>2012-08-04T08:32:37Z</time>
      </trkpt>
      <trkpt lat="46.56955" lon="9.38588">
        <ele>1363.29</ele>
        <time>2012-08-04T08:32:38Z</time>
      </trkpt>
      <trkpt lat="46.56956" lon="9.38576">
        <ele>1364.25</ele>
        <time>2012-08-04T08:32:39Z</time>
      </trkpt>
      <trkpt lat="46.56955" lon="9.38562">
        <ele>1364.73</ele>
        <time>2012-08-04T08:32:40Z</time>
      </trkpt>
      <trkpt lat="46.56953" lon="9.38546">
        <ele>1365.69</ele>
        <time>2012-08-04T08:32:41Z</time>
      </trkpt>
      <trkpt lat="46.5695" lon="9.3851">
        <ele>1368.09</ele>
        <time>2012-08-04T08:32:43Z</time>
      </trkpt>
      <trkpt lat="46.5695" lon="9.38491">
        <ele>1369.54</ele>
        <time>2012-08-04T08:32:44Z</time>
      </trkpt>
      <trkpt lat="46.56951" lon="9.38472">
        <ele>1370.02</ele>
        <time>2012-08-04T08:32:45Z</time>
      </trkpt>
      <trkpt lat="46.56954" lon="9.38452">
        <ele>1370.98</ele>
        <time>2012-08-04T08:32:46Z</time>
      </trkpt>
      <trkpt lat="46.56957" lon="9.38433">
        <ele>1371.94</ele>
        <time>2012-08-04T08:32:47Z</time>
      </trkpt>
      <trkpt lat="46.56967" lon="9.38374">
        <ele>1375.3</ele>
        <time>2012-08-04T08:32:50Z</time>
      </trkpt>
      <trkpt lat="46.56968" lon="9.38354">
        <ele>1377.23</ele>
        <time>2012-08-04T08:32:51Z</time>
      </trkpt>
      <trkpt lat="46.56968" lon="9.38334">
        <ele>1377.71</ele>
        <time>2012-08-04T08:32:52Z</time>
      </trkpt>
      <trkpt lat="46.56967" lon="9.38314">
        <ele>1379.63</ele>
        <time>2012-08-04T08:32:53Z</time>
      </trkpt>
      <trkpt lat="46.56965" lon="9.38294">
        <ele>1381.55</ele>
        <time>2012-08-04T08:32:54Z</time>
      </trkpt>
      <trkpt lat="46.56961" lon="9.38274">
        <ele>1382.51</ele>
        <time>2012-08-04T08:32:55Z</time>
      </trkpt>
      <trkpt lat="46.56957" lon="9.38254">
        <ele>1382.99</ele>
        <time>2012-08-04T08:32:56Z</time>
      </trkpt>
      <trkpt lat="46.5694" lon="9.38198">
        <ele>1386.36</ele>
        <time>2012-08-04T08:32:59Z</time>
      </trkpt>
      <trkpt lat="46.56935" lon="9.38182">
        <ele>1386.84</ele>
        <time>2012-08-04T08:33:00Z</time>
      </trkpt>
      <trkpt lat="46.56932" lon="9.38167">
        <ele>1387.32</ele>
        <time>2012-08-04T08:33:01Z</time>
      </trkpt>
      <trkpt lat="46.5693" lon="9.38154">
        <ele>1387.8</ele>
        <time>2012-08-04T08:33:02Z</time>
      </trkpt>
      <trkpt lat="46.56929" lon="9.38142">
        <ele>1388.28</ele>
        <time>2012-08-04T08:33:03Z</time>
      </trkpt>
      <trkpt lat="46.56931" lon="9.38131">
        <ele>1388.76</ele>
        <time>2012-08-04T08:33:04Z</time>
      </trkpt>
      <trkpt lat="46.56934" lon="9.38123">
        <ele>1389.24</ele>
        <time>2012-08-04T08:33:05Z</time>
      </trkpt>
      <trkpt lat="46.5694" lon="9.38117">
        <ele>1390.2</ele>
        <time>2012-08-04T08:33:06Z</time>
      </trkpt>
      <trkpt lat="46.56948" lon="9.38113">
        <ele>1391.17</ele>
        <time>2012-08-04T08:33:07Z</time>
      </trkpt>
      <trkpt lat="46.56956" lon="9.38112">
        <ele>1392.13</ele>
        <time>2012-08-04T08:33:08Z</time>
      </trkpt>
      <trkpt lat="46.56964" lon="9.38112">
        <ele>1393.09</ele>
        <time>2012-08-04T08:33:09Z</time>
      </trkpt>
      <trkpt lat="46.56974" lon="9.38113">
        <ele>1394.05</ele>
        <time>2012-08-04T08:33:10Z</time>
      </trkpt>
      <trkpt lat="46.57005" lon="9.38118">
        <ele>1395.97</ele>
        <time>2012-08-04T08:33:13Z</time>
      </trkpt>
      <trkpt lat="46.57014" lon="9.38117">
        <ele>1396.45</ele>
        <time>2012-08-04T08:33:14Z</time>
      </trkpt>
      <trkpt lat="46.57024" lon="9.38114">
        <ele>1396.45</ele>
        <time>2012-08-04T08:33:15Z</time>
      </trkpt>
      <trkpt lat="46.57032" lon="9.38108">
        <ele>1397.41</ele>
        <time>2012-08-04T08:33:16Z</time>
      </trkpt>
      <trkpt lat="46.57041" lon="9.381">
        <ele>1397.89</ele>
        <time>2012-08-04T08:33:17Z</time>
      </trkpt>
      <trkpt lat="46.57048" lon="9.38091">
        <ele>1397.89</ele>
        <time>2012-08-04T08:33:18Z</time>
      </trkpt>
      <trkpt lat="46.57055" lon="9.3808">
        <ele>1397.89</ele>
        <time>2012-08-04T08:33:19Z</time>
      </trkpt>
      <trkpt lat="46.57062" lon="9.38069">
        <ele>1398.37</ele>
        <time>2012-08-04T08:33:20Z</time>
      </trkpt>
      <trkpt lat="46.57067" lon="9.38057">
        <ele>1398.86</ele>
        <time>2012-08-04T08:33:21Z</time>
      </trkpt>
      <trkpt lat="46.57071" lon="9.38045">
        <ele>1398.86</ele>
        <time>2012-08-04T08:33:22Z</time>
      </trkpt>
      <trkpt lat="46.57074" lon="9.38034">
        <ele>1398.86</ele>
        <time>2012-08-04T08:33:23Z</time>
      </trkpt>
      <trkpt lat="46.57102" lon="9.37904">
        <ele>1401.74</ele>
        <time>2012-08-04T08:33:32Z</time>
      </trkpt>
      <trkpt lat="46.57126" lon="9.37668">
        <ele>1402.7</ele>
        <time>2012-08-04T08:33:44Z</time>
      </trkpt>
      <trkpt lat="46.57101" lon="9.37421">
        <ele>1401.74</ele>
        <time>2012-08-04T08:33:56Z</time>
      </trkpt>
      <trkpt lat="46.57038" lon="9.37072">
        <ele>1402.7</ele>
        <time>2012-08-04T08:34:12Z</time>
      </trkpt>
      <trkpt lat="46.56955" lon="9.36903">
        <ele>1400.3</ele>
        <time>2012-08-04T08:34:21Z</time>
      </trkpt>
      <trkpt lat="46.56908" lon="9.36845">
        <ele>1402.7</ele>
        <time>2012-08-04T08:34:27Z</time>
      </trkpt>
      <trkpt lat="46.56904" lon="9.36838">
        <ele>1402.7</ele>
        <time>2012-08-04T08:34:28Z</time>
      </trkpt>
      <trkpt lat="46.56901" lon="9.36831">
        <ele>1403.18</ele>
        <time>2012-08-04T08:34:29Z</time>
      </trkpt>
      <trkpt lat="46.569" lon="9.36822">
        <ele>1403.66</ele>
        <time>2012-08-04T08:34:30Z</time>
      </trkpt>
      <trkpt lat="46.56901" lon="9.36813">
        <ele>1403.66</ele>
        <time>2012-08-04T08:34:31Z</time>
      </trkpt>
      <trkpt lat="46.56902" lon="9.36803">
        <ele>1404.62</ele>
        <time>2012-08-04T08:34:32Z</time>
      </trkpt>
      <trkpt lat="46.56904" lon="9.36793">
        <ele>1404.14</ele>
        <time>2012-08-04T08:34:33Z</time>
      </trkpt>
      <trkpt lat="46.56905" lon="9.36783">
        <ele>1404.14</ele>
        <time>2012-08-04T08:34:34Z</time>
      </trkpt>
      <trkpt lat="46.56904" lon="9.36773">
        <ele>1404.62</ele>
        <time>2012-08-04T08:34:35Z</time>
      </trkpt>
      <trkpt lat="46.56901" lon="9.36764">
        <ele>1404.62</ele>
        <time>2012-08-04T08:34:36Z</time>
      </trkpt>
      <trkpt lat="46.56895" lon="9.36756">
        <ele>1404.14</ele>
        <time>2012-08-04T08:34:37Z</time>
      </trkpt>
      <trkpt lat="46.56889" lon="9.36748">
        <ele>1404.14</ele>
        <time>2012-08-04T08:34:38Z</time>
      </trkpt>
      <trkpt lat="46.56854" lon="9.36702">
        <ele>1402.7</ele>
        <time>2012-08-04T08:34:42Z</time>
      </trkpt>
      <trkpt lat="46.56819" lon="9.3664">
        <ele>1399.82</ele>
        <time>2012-08-04T08:34:46Z</time>
      </trkpt>
      <trkpt lat="46.56773" lon="9.36479">
        <ele>1399.34</ele>
        <time>2012-08-04T08:34:54Z</time>
      </trkpt>
      <trkpt lat="46.56755" lon="9.36293">
        <ele>1399.82</ele>
        <time>2012-08-04T08:35:02Z</time>
      </trkpt>
      <trkpt lat="46.56694" lon="9.36039">
        <ele>1401.74</ele>
        <time>2012-08-04T08:35:13Z</time>
      </trkpt>
      <trkpt lat="46.56607" lon="9.35821">
        <ele>1403.66</ele>
        <time>2012-08-04T08:35:23Z</time>
      </trkpt>
      <trkpt lat="46.56587" lon="9.35663">
        <ele>1402.7</ele>
        <time>2012-08-04T08:35:30Z</time>
      </trkpt>
      <trkpt lat="46.56587" lon="9.3563">
        <ele>1401.26</ele>
        <time>2012-08-04T08:35:32Z</time>
      </trkpt>
      <trkpt lat="46.56585" lon="9.35616">
        <ele>1400.3</ele>
        <time>2012-08-04T08:35:33Z</time>
      </trkpt>
      <trkpt lat="46.5658" lon="9.35601">
        <ele>1400.3</ele>
        <time>2012-08-04T08:35:34Z</time>
      </trkpt>
      <trkpt lat="46.56573" lon="9.35587">
        <ele>1400.3</ele>
        <time>2012-08-04T08:35:35Z</time>
      </trkpt>
      <trkpt lat="46.56564" lon="9.35572">
        <ele>1400.3</ele>
        <time>2012-08-04T08:35:36Z</time>
      </trkpt>
      <trkpt lat="46.56555" lon="9.35558">
        <ele>1400.3</ele>
        <time>2012-08-04T08:35:37Z</time>
      </trkpt>
      <trkpt lat="46.56546" lon="9.35544">
        <ele>1399.82</ele>
        <time>2012-08-04T08:35:38Z</time>
      </trkpt>
      <trkpt lat="46.56539" lon="9.35528">
        <ele>1400.3</ele>
        <time>2012-08-04T08:35:39Z</time>
      </trkpt>
      <trkpt lat="46.56534" lon="9.3551">
        <ele>1401.26</ele>
        <time>2012-08-04T08:35:40Z</time>
      </trkpt>
      <trkpt lat="46.5652" lon="9.35449">
        <ele>1403.66</ele>
        <time>2012-08-04T08:35:43Z</time>
      </trkpt>
      <trkpt lat="46.56499" lon="9.35389">
        <ele>1405.58</ele>
        <time>2012-08-04T08:35:46Z</time>
      </trkpt>
      <trkpt lat="46.5649" lon="9.35372">
        <ele>1405.1</ele>
        <time>2012-08-04T08:35:47Z</time>
      </trkpt>
      <trkpt lat="46.56479" lon="9.35356">
        <ele>1406.55</ele>
        <time>2012-08-04T08:35:48Z</time>
      </trkpt>
      <trkpt lat="46.56401" lon="9.35232">
        <ele>1406.07</ele>
        <time>2012-08-04T08:35:56Z</time>
      </trkpt>
      <trkpt lat="46.56395" lon="9.35221">
        <ele>1406.07</ele>
        <time>2012-08-04T08:35:57Z</time>
      </trkpt>
      <trkpt lat="46.56388" lon="9.35212">
        <ele>1405.58</ele>
        <time>2012-08-04T08:35:58Z</time>
      </trkpt>
      <trkpt lat="46.5638" lon="9.35206">
        <ele>1406.07</ele>
        <time>2012-08-04T08:35:59Z</time>
      </trkpt>
      <trkpt lat="46.56372" lon="9.35204">
        <ele>1406.07</ele>
        <time>2012-08-04T08:36:00Z</time>
      </trkpt>
      <trkpt lat="46.56362" lon="9.35205">
        <ele>1406.55</ele>
        <time>2012-08-04T08:36:01Z</time>
      </trkpt>
      <trkpt lat="46.56352" lon="9.35209">
        <ele>1407.03</ele>
        <time>2012-08-04T08:36:02Z</time>
      </trkpt>
      <trkpt lat="46.56341" lon="9.35216">
        <ele>1407.51</ele>
        <time>2012-08-04T08:36:03Z</time>
      </trkpt>
      <trkpt lat="46.56331" lon="9.35223">
        <ele>1407.99</ele>
        <time>2012-08-04T08:36:04Z</time>
      </trkpt>
      <trkpt lat="46.56322" lon="9.3523">
        <ele>1407.99</ele>
        <time>2012-08-04T08:36:05Z</time>
      </trkpt>
      <trkpt lat="46.56315" lon="9.35238">
        <ele>1408.47</ele>
        <time>2012-08-04T08:36:06Z</time>
      </trkpt>
      <trkpt lat="46.56311" lon="9.35248">
        <ele>1408.47</ele>
        <time>2012-08-04T08:36:07Z</time>
      </trkpt>
      <trkpt lat="46.56308" lon="9.3526">
        <ele>1409.43</ele>
        <time>2012-08-04T08:36:08Z</time>
      </trkpt>
      <trkpt lat="46.56305" lon="9.35273">
        <ele>1410.39</ele>
        <time>2012-08-04T08:36:09Z</time>
      </trkpt>
      <trkpt lat="46.56302" lon="9.35286">
        <ele>1410.39</ele>
        <time>2012-08-04T08:36:10Z</time>
      </trkpt>
      <trkpt lat="46.56297" lon="9.35296">
        <ele>1410.87</ele>
        <time>2012-08-04T08:36:11Z</time>
      </trkpt>
      <trkpt lat="46.5629" lon="9.35303">
        <ele>1411.83</ele>
        <time>2012-08-04T08:36:12Z</time>
      </trkpt>
      <trkpt lat="46.56283" lon="9.35305">
        <ele>1412.79</ele>
        <time>2012-08-04T08:36:13Z</time>
      </trkpt>
      <trkpt lat="46.56275" lon="9.35303">
        <ele>1413.28</ele>
        <time>2012-08-04T08:36:14Z</time>
      </trkpt>
      <trkpt lat="46.56267" lon="9.35297">
        <ele>1414.72</ele>
        <time>2012-08-04T08:36:15Z</time>
      </trkpt>
      <trkpt lat="46.56258" lon="9.35287">
        <ele>1416.16</ele>
        <time>2012-08-04T08:36:16Z</time>
      </trkpt>
      <trkpt lat="46.5625" lon="9.35275">
        <ele>1417.6</ele>
        <time>2012-08-04T08:36:17Z</time>
      </trkpt>
      <trkpt lat="46.56241" lon="9.35262">
        <ele>1419.04</ele>
        <time>2012-08-04T08:36:18Z</time>
      </trkpt>
      <trkpt lat="46.56215" lon="9.35217">
        <ele>1423.37</ele>
        <time>2012-08-04T08:36:21Z</time>
      </trkpt>
      <trkpt lat="46.56207" lon="9.35199">
        <ele>1424.81</ele>
        <time>2012-08-04T08:36:22Z</time>
      </trkpt>
      <trkpt lat="46.562" lon="9.3518">
        <ele>1426.25</ele>
        <time>2012-08-04T08:36:23Z</time>
      </trkpt>
      <trkpt lat="46.56194" lon="9.3516">
        <ele>1427.21</ele>
        <time>2012-08-04T08:36:24Z</time>
      </trkpt>
      <trkpt lat="46.56189" lon="9.35139">
        <ele>1427.7</ele>
        <time>2012-08-04T08:36:25Z</time>
      </trkpt>
      <trkpt lat="46.56176" lon="9.35072">
        <ele>1431.06</ele>
        <time>2012-08-04T08:36:28Z</time>
      </trkpt>
      <trkpt lat="46.56173" lon="9.35049">
        <ele>1431.54</ele>
        <time>2012-08-04T08:36:29Z</time>
      </trkpt>
      <trkpt lat="46.56166" lon="9.34979">
        <ele>1434.91</ele>
        <time>2012-08-04T08:36:32Z</time>
      </trkpt>
      <trkpt lat="46.56151" lon="9.34916">
        <ele>1437.31</ele>
        <time>2012-08-04T08:36:35Z</time>
      </trkpt>
      <trkpt lat="46.56146" lon="9.34901">
        <ele>1437.31</ele>
        <time>2012-08-04T08:36:36Z</time>
      </trkpt>
      <trkpt lat="46.56141" lon="9.34888">
        <ele>1437.31</ele>
        <time>2012-08-04T08:36:37Z</time>
      </trkpt>
      <trkpt lat="46.56135" lon="9.34878">
        <ele>1437.79</ele>
        <time>2012-08-04T08:36:38Z</time>
      </trkpt>
      <trkpt lat="46.56118" lon="9.34856">
        <ele>1439.23</ele>
        <time>2012-08-04T08:36:40Z</time>
      </trkpt>
      <trkpt lat="46.56094" lon="9.34816">
        <ele>1441.15</ele>
        <time>2012-08-04T08:36:43Z</time>
      </trkpt>
      <trkpt lat="46.56087" lon="9.34801">
        <ele>1442.6</ele>
        <time>2012-08-04T08:36:44Z</time>
      </trkpt>
      <trkpt lat="46.5608" lon="9.34784">
        <ele>1442.6</ele>
        <time>2012-08-04T08:36:45Z</time>
      </trkpt>
      <trkpt lat="46.56075" lon="9.34766">
        <ele>1443.56</ele>
        <time>2012-08-04T08:36:46Z</time>
      </trkpt>
      <trkpt lat="46.5607" lon="9.34747">
        <ele>1444.04</ele>
        <time>2012-08-04T08:36:47Z</time>
      </trkpt>
      <trkpt lat="46.56061" lon="9.34709">
        <ele>1445.48</ele>
        <time>2012-08-04T08:36:49Z</time>
      </trkpt>
      <trkpt lat="46.5603" lon="9.34582">
        <ele>1446.92</ele>
        <time>2012-08-04T08:36:57Z</time>
      </trkpt>
      <trkpt lat="46.55999" lon="9.34449">
        <ele>1443.56</ele>
        <time>2012-08-04T08:37:05Z</time>
      </trkpt>
      <trkpt lat="46.55994" lon="9.34426">
        <ele>1442.6</ele>
        <time>2012-08-04T08:37:07Z</time>
      </trkpt>
      <trkpt lat="46.5599" lon="9.34398">
        <ele>1440.67</ele>
        <time>2012-08-04T08:37:10Z</time>
      </trkpt>
      <trkpt lat="46.5599" lon="9.3439">
        <ele>1440.19</ele>
        <time>2012-08-04T08:37:11Z</time>
      </trkpt>
      <trkpt lat="46.55991" lon="9.34382">
        <ele>1439.71</ele>
        <time>2012-08-04T08:37:12Z</time>
      </trkpt>
      <trkpt lat="46.55992" lon="9.34376">
        <ele>1439.71</ele>
        <time>2012-08-04T08:37:13Z</time>
      </trkpt>
      <trkpt lat="46.55994" lon="9.34369">
        <ele>1439.23</ele>
        <time>2012-08-04T08:37:14Z</time>
      </trkpt>
      <trkpt lat="46.55997" lon="9.34361">
        <ele>1439.23</ele>
        <time>2012-08-04T08:37:15Z</time>
      </trkpt>
      <trkpt lat="46.56" lon="9.34353">
        <ele>1439.71</ele>
        <time>2012-08-04T08:37:16Z</time>
      </trkpt>
      <trkpt lat="46.56002" lon="9.34342">
        <ele>1440.67</ele>
        <time>2012-08-04T08:37:17Z</time>
      </trkpt>
      <trkpt lat="46.56002" lon="9.34328">
        <ele>1441.15</ele>
        <time>2012-08-04T08:37:18Z</time>
      </trkpt>
      <trkpt lat="46.56" lon="9.34313">
        <ele>1441.63</ele>
        <time>2012-08-04T08:37:19Z</time>
      </trkpt>
      <trkpt lat="46.55996" lon="9.34296">
        <ele>1442.11</ele>
        <time>2012-08-04T08:37:20Z</time>
      </trkpt>
      <trkpt lat="46.55983" lon="9.34247">
        <ele>1441.63</ele>
        <time>2012-08-04T08:37:23Z</time>
      </trkpt>
      <trkpt lat="46.55956" lon="9.34186">
        <ele>1439.71</ele>
        <time>2012-08-04T08:37:28Z</time>
      </trkpt>
      <trkpt lat="46.55952" lon="9.34179">
        <ele>1439.23</ele>
        <time>2012-08-04T08:37:29Z</time>
      </trkpt>
      <trkpt lat="46.55949" lon="9.34173">
        <ele>1439.23</ele>
        <time>2012-08-04T08:37:30Z</time>
      </trkpt>
      <trkpt lat="46.55948" lon="9.34166">
        <ele>1438.75</ele>
        <time>2012-08-04T08:37:31Z</time>
      </trkpt>
      <trkpt lat="46.55949" lon="9.3416">
        <ele>1438.27</ele>
        <time>2012-08-04T08:37:32Z</time>
      </trkpt>
      <trkpt lat="46.5595" lon="9.34154">
        <ele>1438.75</ele>
        <time>2012-08-04T08:37:33Z</time>
      </trkpt>
      <trkpt lat="46.55952" lon="9.34148">
        <ele>1438.27</ele>
        <time>2012-08-04T08:37:34Z</time>
      </trkpt>
      <trkpt lat="46.55965" lon="9.34097">
        <ele>1438.75</ele>
        <time>2012-08-04T08:37:42Z</time>
      </trkpt>
      <trkpt lat="46.55965" lon="9.34089">
        <ele>1439.23</ele>
        <time>2012-08-04T08:37:43Z</time>
      </trkpt>
      <trkpt lat="46.55963" lon="9.3408">
        <ele>1439.23</ele>
        <time>2012-08-04T08:37:44Z</time>
      </trkpt>
      <trkpt lat="46.55933" lon="9.33996">
        <ele>1439.71</ele>
        <time>2012-08-04T08:37:52Z</time>
      </trkpt>
      <trkpt lat="46.5591" lon="9.33931">
        <ele>1440.67</ele>
        <time>2012-08-04T08:37:58Z</time>
      </trkpt>
      <trkpt lat="46.55903" lon="9.33921">
        <ele>1440.67</ele>
        <time>2012-08-04T08:37:59Z</time>
      </trkpt>
      <trkpt lat="46.55848" lon="9.33869">
        <ele>1442.6</ele>
        <time>2012-08-04T08:38:06Z</time>
      </trkpt>
      <trkpt lat="46.55807" lon="9.33855">
        <ele>1445.48</ele>
        <time>2012-08-04T08:38:10Z</time>
      </trkpt>
      <trkpt lat="46.55796" lon="9.33854">
        <ele>1445.96</ele>
        <time>2012-08-04T08:38:11Z</time>
      </trkpt>
      <trkpt lat="46.55776" lon="9.33853">
        <ele>1447.88</ele>
        <time>2012-08-04T08:38:13Z</time>
      </trkpt>
      <trkpt lat="46.55756" lon="9.33848">
        <ele>1449.81</ele>
        <time>2012-08-04T08:38:15Z</time>
      </trkpt>
      <trkpt lat="46.55746" lon="9.33843">
        <ele>1450.29</ele>
        <time>2012-08-04T08:38:16Z</time>
      </trkpt>
      <trkpt lat="46.55737" lon="9.33837">
        <ele>1450.77</ele>
        <time>2012-08-04T08:38:17Z</time>
      </trkpt>
      <trkpt lat="46.5573" lon="9.33828">
        <ele>1451.25</ele>
        <time>2012-08-04T08:38:18Z</time>
      </trkpt>
      <trkpt lat="46.55723" lon="9.33817">
        <ele>1452.21</ele>
        <time>2012-08-04T08:38:19Z</time>
      </trkpt>
      <trkpt lat="46.55716" lon="9.33805">
        <ele>1452.69</ele>
        <time>2012-08-04T08:38:20Z</time>
      </trkpt>
      <trkpt lat="46.55648" lon="9.33669">
        <ele>1452.21</ele>
        <time>2012-08-04T08:38:29Z</time>
      </trkpt>
      <trkpt lat="46.55605" lon="9.33522">
        <ele>1448.84</ele>
        <time>2012-08-04T08:38:37Z</time>
      </trkpt>
      <trkpt lat="46.5557" lon="9.33354">
        <ele>1445.48</ele>
        <time>2012-08-04T08:38:46Z</time>
      </trkpt>
      <trkpt lat="46.55544" lon="9.33239">
        <ele>1441.63</ele>
        <time>2012-08-04T08:38:52Z</time>
      </trkpt>
      <trkpt lat="46.55469" lon="9.32954">
        <ele>1444.04</ele>
        <time>2012-08-04T08:39:08Z</time>
      </trkpt>
      <trkpt lat="46.55426" lon="9.32771">
        <ele>1445.48</ele>
        <time>2012-08-04T08:39:21Z</time>
      </trkpt>
      <trkpt lat="46.55387" lon="9.32604">
        <ele>1447.88</ele>
        <time>2012-08-04T08:39:33Z</time>
      </trkpt>
      <trkpt lat="46.5538" lon="9.32574">
        <ele>1448.84</ele>
        <time>2012-08-04T08:39:35Z</time>
      </trkpt>
      <trkpt lat="46.55364" lon="9.32382">
        <ele>1461.82</ele>
        <time>2012-08-04T09:09:39Z</time>
      </trkpt>
      <trkpt lat="46.55363" lon="9.32384">
        <ele>1459.9</ele>
        <time>2012-08-04T09:09:40Z</time>
      </trkpt>
      <trkpt lat="46.55355" lon="9.32398">
        <ele>1463.74</ele>
        <time>2012-08-04T09:09:49Z</time>
      </trkpt>
      <trkpt lat="46.55356" lon="9.32398">
        <ele>1471.44</ele>
        <time>2012-08-04T09:09:52Z</time>
      </trkpt>
      <trkpt lat="46.55356" lon="9.32397">
        <ele>1467.11</ele>
        <time>2012-08-04T09:09:53Z</time>
      </trkpt>
      <trkpt lat="46.55356" lon="9.32397">
        <ele>1470.47</ele>
        <time>2012-08-04T09:09:59Z</time>
      </trkpt>
      <trkpt lat="46.55356" lon="9.32397">
        <ele>1470.47</ele>
        <time>2012-08-04T09:10:00Z</time>
      </trkpt>
      <trkpt lat="46.55355" lon="9.32398">
        <ele>1462.3</ele>
        <time>2012-08-04T09:10:01Z</time>
      </trkpt>
      <trkpt lat="46.55355" lon="9.32398">
        <ele>1472.4</ele>
        <time>2012-08-04T09:10:02Z</time>
      </trkpt>
      <trkpt lat="46.55356" lon="9.32397">
        <ele>1472.88</ele>
        <time>2012-08-04T09:10:03Z</time>
      </trkpt>
      <trkpt lat="46.55355" lon="9.32396">
        <ele>1473.36</ele>
        <time>2012-08-04T09:10:07Z</time>
      </trkpt>
      <trkpt lat="46.55353" lon="9.32395">
        <ele>1474.32</ele>
        <time>2012-08-04T09:10:18Z</time>
      </trkpt>
      <trkpt lat="46.55353" lon="9.32394">
        <ele>1474.32</ele>
        <time>2012-08-04T09:10:38Z</time>
      </trkpt>
      <trkpt lat="46.55335" lon="9.324">
        <ele>1473.36</ele>
        <time>2012-08-04T09:10:47Z</time>
      </trkpt>
      <trkpt lat="46.55331" lon="9.324">
        <ele>1472.4</ele>
        <time>2012-08-04T09:11:00Z</time>
      </trkpt>
      <trkpt lat="46.55321" lon="9.32376">
        <ele>1471.44</ele>
        <time>2012-08-04T09:11:06Z</time>
      </trkpt>
      <trkpt lat="46.55317" lon="9.32365">
        <ele>1470.47</ele>
        <time>2012-08-04T09:11:08Z</time>
      </trkpt>
      <trkpt lat="46.55314" lon="9.32361">
        <ele>1470.47</ele>
        <time>2012-08-04T09:11:09Z</time>
      </trkpt>
      <trkpt lat="46.55311" lon="9.32356">
        <ele>1469.99</ele>
        <time>2012-08-04T09:11:10Z</time>
      </trkpt>
      <trkpt lat="46.553" lon="9.32344">
        <ele>1469.03</ele>
        <time>2012-08-04T09:11:13Z</time>
      </trkpt>
      <trkpt lat="46.55286" lon="9.32328">
        <ele>1467.59</ele>
        <time>2012-08-04T09:11:17Z</time>
      </trkpt>
      <trkpt lat="46.55284" lon="9.32323">
        <ele>1467.11</ele>
        <time>2012-08-04T09:11:18Z</time>
      </trkpt>
      <trkpt lat="46.55284" lon="9.32315">
        <ele>1467.59</ele>
        <time>2012-08-04T09:11:19Z</time>
      </trkpt>
      <trkpt lat="46.55283" lon="9.32307">
        <ele>1467.11</ele>
        <time>2012-08-04T09:11:20Z</time>
      </trkpt>
      <trkpt lat="46.55282" lon="9.32298">
        <ele>1467.59</ele>
        <time>2012-08-04T09:11:21Z</time>
      </trkpt>
      <trkpt lat="46.55279" lon="9.32198">
        <ele>1466.63</ele>
        <time>2012-08-04T09:11:32Z</time>
      </trkpt>
      <trkpt lat="46.55248" lon="9.32041">
        <ele>1467.59</ele>
        <time>2012-08-04T09:11:46Z</time>
      </trkpt>
      <trkpt lat="46.55194" lon="9.31893">
        <ele>1469.99</ele>
        <time>2012-08-04T09:11:59Z</time>
      </trkpt>
      <trkpt lat="46.55103" lon="9.31661">
        <ele>1472.4</ele>
        <time>2012-08-04T09:12:16Z</time>
      </trkpt>
      <trkpt lat="46.5502" lon="9.31448">
        <ele>1476.24</ele>
        <time>2012-08-04T09:12:30Z</time>
      </trkpt>
      <trkpt lat="46.55013" lon="9.31431">
        <ele>1476.24</ele>
        <time>2012-08-04T09:12:31Z</time>
      </trkpt>
      <trkpt lat="46.54944" lon="9.31256">
        <ele>1479.61</ele>
        <time>2012-08-04T09:12:40Z</time>
      </trkpt>
      <trkpt lat="46.54848" lon="9.31014">
        <ele>1482.01</ele>
        <time>2012-08-04T09:12:52Z</time>
      </trkpt>
      <trkpt lat="46.54832" lon="9.30972">
        <ele>1482.97</ele>
        <time>2012-08-04T09:12:54Z</time>
      </trkpt>
      <trkpt lat="46.54733" lon="9.30711">
        <ele>1485.37</ele>
        <time>2012-08-04T09:13:07Z</time>
      </trkpt>
      <trkpt lat="46.54729" lon="9.30691">
        <ele>1486.34</ele>
        <time>2012-08-04T09:13:08Z</time>
      </trkpt>
      <trkpt lat="46.54727" lon="9.30669">
        <ele>1485.85</ele>
        <time>2012-08-04T09:13:09Z</time>
      </trkpt>
      <trkpt lat="46.54726" lon="9.30646">
        <ele>1486.82</ele>
        <time>2012-08-04T09:13:10Z</time>
      </trkpt>
      <trkpt lat="46.54725" lon="9.30623">
        <ele>1487.78</ele>
        <time>2012-08-04T09:13:11Z</time>
      </trkpt>
      <trkpt lat="46.54721" lon="9.30426">
        <ele>1491.14</ele>
        <time>2012-08-04T09:13:19Z</time>
      </trkpt>
      <trkpt lat="46.5472" lon="9.30401">
        <ele>1491.14</ele>
        <time>2012-08-04T09:13:20Z</time>
      </trkpt>
      <trkpt lat="46.54705" lon="9.303">
        <ele>1493.06</ele>
        <time>2012-08-04T09:13:24Z</time>
      </trkpt>
      <trkpt lat="46.54659" lon="9.3016">
        <ele>1495.95</ele>
        <time>2012-08-04T09:13:30Z</time>
      </trkpt>
      <trkpt lat="46.54624" lon="9.3007">
        <ele>1499.31</ele>
        <time>2012-08-04T09:13:34Z</time>
      </trkpt>
      <trkpt lat="46.54605" lon="9.30026">
        <ele>1500.27</ele>
        <time>2012-08-04T09:13:36Z</time>
      </trkpt>
      <trkpt lat="46.54514" lon="9.2978">
        <ele>1503.64</ele>
        <time>2012-08-04T09:13:47Z</time>
      </trkpt>
      <trkpt lat="46.54496" lon="9.29693">
        <ele>1507</ele>
        <time>2012-08-04T09:13:51Z</time>
      </trkpt>
      <trkpt lat="46.5448" lon="9.29596">
        <ele>1508.93</ele>
        <time>2012-08-04T09:13:56Z</time>
      </trkpt>
      <trkpt lat="46.54453" lon="9.29489">
        <ele>1506.52</ele>
        <time>2012-08-04T09:14:01Z</time>
      </trkpt>
      <trkpt lat="46.54451" lon="9.29467">
        <ele>1507</ele>
        <time>2012-08-04T09:14:02Z</time>
      </trkpt>
      <trkpt lat="46.54449" lon="9.29445">
        <ele>1507.97</ele>
        <time>2012-08-04T09:14:03Z</time>
      </trkpt>
      <trkpt lat="46.54449" lon="9.29422">
        <ele>1508.93</ele>
        <time>2012-08-04T09:14:04Z</time>
      </trkpt>
      <trkpt lat="46.54473" lon="9.292">
        <ele>1510.37</ele>
        <time>2012-08-04T09:14:13Z</time>
      </trkpt>
      <trkpt lat="46.54537" lon="9.28868">
        <ele>1510.37</ele>
        <time>2012-08-04T09:14:26Z</time>
      </trkpt>
      <trkpt lat="46.54522" lon="9.28671">
        <ele>1509.89</ele>
        <time>2012-08-04T09:14:33Z</time>
      </trkpt>
      <trkpt lat="46.54459" lon="9.28395">
        <ele>1513.25</ele>
        <time>2012-08-04T09:14:43Z</time>
      </trkpt>
      <trkpt lat="46.54448" lon="9.28343">
        <ele>1514.21</ele>
        <time>2012-08-04T09:14:45Z</time>
      </trkpt>
      <trkpt lat="46.54371" lon="9.28121">
        <ele>1512.77</ele>
        <time>2012-08-04T09:14:54Z</time>
      </trkpt>
      <trkpt lat="46.54251" lon="9.27829">
        <ele>1515.66</ele>
        <time>2012-08-04T09:15:06Z</time>
      </trkpt>
      <trkpt lat="46.54179" lon="9.27556">
        <ele>1519.02</ele>
        <time>2012-08-04T09:15:16Z</time>
      </trkpt>
      <trkpt lat="46.54154" lon="9.27444">
        <ele>1520.46</ele>
        <time>2012-08-04T09:15:20Z</time>
      </trkpt>
      <trkpt lat="46.5413" lon="9.27276">
        <ele>1524.31</ele>
        <time>2012-08-04T09:15:26Z</time>
      </trkpt>
      <trkpt lat="46.54129" lon="9.27247">
        <ele>1524.31</ele>
        <time>2012-08-04T09:15:27Z</time>
      </trkpt>
      <trkpt lat="46.54134" lon="9.26929">
        <ele>1524.79</ele>
        <time>2012-08-04T09:15:38Z</time>
      </trkpt>
      <trkpt lat="46.54141" lon="9.26506">
        <ele>1526.23</ele>
        <time>2012-08-04T09:15:53Z</time>
      </trkpt>
      <trkpt lat="46.54139" lon="9.2648">
        <ele>1526.71</ele>
        <time>2012-08-04T09:15:54Z</time>
      </trkpt>
      <trkpt lat="46.54134" lon="9.26454">
        <ele>1526.71</ele>
        <time>2012-08-04T09:15:55Z</time>
      </trkpt>
      <trkpt lat="46.54099" lon="9.26241">
        <ele>1530.08</ele>
        <time>2012-08-04T09:16:03Z</time>
      </trkpt>
      <trkpt lat="46.54044" lon="9.26027">
        <ele>1532.48</ele>
        <time>2012-08-04T09:16:11Z</time>
      </trkpt>
      <trkpt lat="46.53979" lon="9.25799">
        <ele>1533.44</ele>
        <time>2012-08-04T09:16:20Z</time>
      </trkpt>
      <trkpt lat="46.53974" lon="9.25774">
        <ele>1535.36</ele>
        <time>2012-08-04T09:16:21Z</time>
      </trkpt>
      <trkpt lat="46.5397" lon="9.25749">
        <ele>1536.8</ele>
        <time>2012-08-04T09:16:22Z</time>
      </trkpt>
      <trkpt lat="46.53967" lon="9.25723">
        <ele>1539.21</ele>
        <time>2012-08-04T09:16:23Z</time>
      </trkpt>
      <trkpt lat="46.53965" lon="9.25696">
        <ele>1541.61</ele>
        <time>2012-08-04T09:16:24Z</time>
      </trkpt>
      <trkpt lat="46.53964" lon="9.25669">
        <ele>1543.05</ele>
        <time>2012-08-04T09:16:25Z</time>
      </trkpt>
      <trkpt lat="46.53967" lon="9.25614">
        <ele>1545.46</ele>
        <time>2012-08-04T09:16:27Z</time>
      </trkpt>
      <trkpt lat="46.5397" lon="9.25586">
        <ele>1546.42</ele>
        <time>2012-08-04T09:16:28Z</time>
      </trkpt>
      <trkpt lat="46.53981" lon="9.25503">
        <ele>1549.78</ele>
        <time>2012-08-04T09:16:31Z</time>
      </trkpt>
      <trkpt lat="46.53984" lon="9.25448">
        <ele>1551.71</ele>
        <time>2012-08-04T09:16:33Z</time>
      </trkpt>
      <trkpt lat="46.53984" lon="9.2542">
        <ele>1552.19</ele>
        <time>2012-08-04T09:16:34Z</time>
      </trkpt>
      <trkpt lat="46.53981" lon="9.25393">
        <ele>1553.15</ele>
        <time>2012-08-04T09:16:35Z</time>
      </trkpt>
      <trkpt lat="46.53976" lon="9.25366">
        <ele>1553.63</ele>
        <time>2012-08-04T09:16:36Z</time>
      </trkpt>
      <trkpt lat="46.5397" lon="9.2534">
        <ele>1554.11</ele>
        <time>2012-08-04T09:16:37Z</time>
      </trkpt>
      <trkpt lat="46.53962" lon="9.25314">
        <ele>1555.07</ele>
        <time>2012-08-04T09:16:38Z</time>
      </trkpt>
      <trkpt lat="46.53953" lon="9.25289">
        <ele>1555.55</ele>
        <time>2012-08-04T09:16:39Z</time>
      </trkpt>
      <trkpt lat="46.53944" lon="9.25264">
        <ele>1555.55</ele>
        <time>2012-08-04T09:16:40Z</time>
      </trkpt>
      <trkpt lat="46.53891" lon="9.25113">
        <ele>1556.51</ele>
        <time>2012-08-04T09:16:47Z</time>
      </trkpt>
      <trkpt lat="46.53883" lon="9.25067">
        <ele>1557.95</ele>
        <time>2012-08-04T09:16:49Z</time>
      </trkpt>
      <trkpt lat="46.53882" lon="9.25047">
        <ele>1557.47</ele>
        <time>2012-08-04T09:16:50Z</time>
      </trkpt>
      <trkpt lat="46.53882" lon="9.25027">
        <ele>1558.43</ele>
        <time>2012-08-04T09:16:51Z</time>
      </trkpt>
      <trkpt lat="46.53885" lon="9.25008">
        <ele>1559.4</ele>
        <time>2012-08-04T09:16:52Z</time>
      </trkpt>
      <trkpt lat="46.53888" lon="9.24989">
        <ele>1559.88</ele>
        <time>2012-08-04T09:16:53Z</time>
      </trkpt>
      <trkpt lat="46.53908" lon="9.24857">
        <ele>1562.28</ele>
        <time>2012-08-04T09:17:02Z</time>
      </trkpt>
      <trkpt lat="46.5392" lon="9.24801">
        <ele>1564.2</ele>
        <time>2012-08-04T09:17:06Z</time>
      </trkpt>
      <trkpt lat="46.53936" lon="9.24661">
        <ele>1566.12</ele>
        <time>2012-08-04T09:17:16Z</time>
      </trkpt>
      <trkpt lat="46.53934" lon="9.24595">
        <ele>1568.05</ele>
        <time>2012-08-04T09:17:23Z</time>
      </trkpt>
      <trkpt lat="46.53932" lon="9.24574">
        <ele>1568.53</ele>
        <time>2012-08-04T09:17:25Z</time>
      </trkpt>
      <trkpt lat="46.53942" lon="9.2444">
        <ele>1571.89</ele>
        <time>2012-08-04T09:17:37Z</time>
      </trkpt>
      <trkpt lat="46.53945" lon="9.24417">
        <ele>1571.89</ele>
        <time>2012-08-04T09:17:39Z</time>
      </trkpt>
      <trkpt lat="46.53951" lon="9.24343">
        <ele>1572.37</ele>
        <time>2012-08-04T09:17:48Z</time>
      </trkpt>
      <trkpt lat="46.53948" lon="9.24339">
        <ele>1572.37</ele>
        <time>2012-08-04T09:17:49Z</time>
      </trkpt>
      <trkpt lat="46.53944" lon="9.24338">
        <ele>1571.89</ele>
        <time>2012-08-04T09:17:50Z</time>
      </trkpt>
      <trkpt lat="46.53939" lon="9.2434">
        <ele>1572.85</ele>
        <time>2012-08-04T09:17:51Z</time>
      </trkpt>
      <trkpt lat="46.53933" lon="9.24342">
        <ele>1572.37</ele>
        <time>2012-08-04T09:17:52Z</time>
      </trkpt>
      <trkpt lat="46.5388" lon="9.24368">
        <ele>1569.01</ele>
        <time>2012-08-04T09:17:58Z</time>
      </trkpt>
      <trkpt lat="46.5387" lon="9.24369">
        <ele>1568.05</ele>
        <time>2012-08-04T09:17:59Z</time>
      </trkpt>
      <trkpt lat="46.53862" lon="9.24369">
        <ele>1567.09</ele>
        <time>2012-08-04T09:18:00Z</time>
      </trkpt>
      <trkpt lat="46.53831" lon="9.24365">
        <ele>1565.64</ele>
        <time>2012-08-04T09:18:04Z</time>
      </trkpt>
      <trkpt lat="46.53827" lon="9.24362">
        <ele>1565.16</ele>
        <time>2012-08-04T09:18:05Z</time>
      </trkpt>
      <trkpt lat="46.53824" lon="9.24357">
        <ele>1564.68</ele>
        <time>2012-08-04T09:18:06Z</time>
      </trkpt>
      <trkpt lat="46.53824" lon="9.24349">
        <ele>1564.68</ele>
        <time>2012-08-04T09:18:07Z</time>
      </trkpt>
      <trkpt lat="46.53826" lon="9.2434">
        <ele>1564.2</ele>
        <time>2012-08-04T09:18:08Z</time>
      </trkpt>
      <trkpt lat="46.53829" lon="9.24327">
        <ele>1564.68</ele>
        <time>2012-08-04T09:18:09Z</time>
      </trkpt>
      <trkpt lat="46.53832" lon="9.24311">
        <ele>1564.68</ele>
        <time>2012-08-04T09:18:10Z</time>
      </trkpt>
      <trkpt lat="46.53834" lon="9.24293">
        <ele>1564.68</ele>
        <time>2012-08-04T09:18:11Z</time>
      </trkpt>
      <trkpt lat="46.53834" lon="9.24273">
        <ele>1564.2</ele>
        <time>2012-08-04T09:18:12Z</time>
      </trkpt>
      <trkpt lat="46.53834" lon="9.24251">
        <ele>1563.24</ele>
        <time>2012-08-04T09:18:13Z</time>
      </trkpt>
      <trkpt lat="46.5381" lon="9.2404">
        <ele>1564.68</ele>
        <time>2012-08-04T09:18:23Z</time>
      </trkpt>
      <trkpt lat="46.53792" lon="9.23957">
        <ele>1567.09</ele>
        <time>2012-08-04T09:18:27Z</time>
      </trkpt>
      <trkpt lat="46.53783" lon="9.23915">
        <ele>1568.53</ele>
        <time>2012-08-04T09:18:29Z</time>
      </trkpt>
      <trkpt lat="46.53767" lon="9.23728">
        <ele>1569.49</ele>
        <time>2012-08-04T09:18:38Z</time>
      </trkpt>
      <trkpt lat="46.53781" lon="9.2347">
        <ele>1569.49</ele>
        <time>2012-08-04T09:18:51Z</time>
      </trkpt>
      <trkpt lat="46.53785" lon="9.2336">
        <ele>1566.61</ele>
        <time>2012-08-04T09:18:56Z</time>
      </trkpt>
      <trkpt lat="46.53791" lon="9.23177">
        <ele>1563.24</ele>
        <time>2012-08-04T09:19:04Z</time>
      </trkpt>
      <trkpt lat="46.53767" lon="9.22906">
        <ele>1563.72</ele>
        <time>2012-08-04T09:19:15Z</time>
      </trkpt>
      <trkpt lat="46.53762" lon="9.22883">
        <ele>1563.72</ele>
        <time>2012-08-04T09:19:16Z</time>
      </trkpt>
      <trkpt lat="46.53744" lon="9.22791">
        <ele>1567.09</ele>
        <time>2012-08-04T09:19:20Z</time>
      </trkpt>
      <trkpt lat="46.53727" lon="9.22726">
        <ele>1570.93</ele>
        <time>2012-08-04T09:19:23Z</time>
      </trkpt>
      <trkpt lat="46.53697" lon="9.22644">
        <ele>1574.3</ele>
        <time>2012-08-04T09:19:27Z</time>
      </trkpt>
      <trkpt lat="46.53597" lon="9.22369">
        <ele>1577.66</ele>
        <time>2012-08-04T09:19:40Z</time>
      </trkpt>
      <trkpt lat="46.53475" lon="9.2208">
        <ele>1580.54</ele>
        <time>2012-08-04T09:19:54Z</time>
      </trkpt>
      <trkpt lat="46.53402" lon="9.21916">
        <ele>1583.43</ele>
        <time>2012-08-04T09:20:02Z</time>
      </trkpt>
      <trkpt lat="46.53291" lon="9.21649">
        <ele>1582.47</ele>
        <time>2012-08-04T09:20:15Z</time>
      </trkpt>
      <trkpt lat="46.53255" lon="9.21475">
        <ele>1579.58</ele>
        <time>2012-08-04T09:20:24Z</time>
      </trkpt>
      <trkpt lat="46.53225" lon="9.21301">
        <ele>1583.43</ele>
        <time>2012-08-04T09:20:33Z</time>
      </trkpt>
      <trkpt lat="46.53214" lon="9.2126">
        <ele>1584.87</ele>
        <time>2012-08-04T09:20:35Z</time>
      </trkpt>
      <trkpt lat="46.53151" lon="9.21098">
        <ele>1586.79</ele>
        <time>2012-08-04T09:20:44Z</time>
      </trkpt>
      <trkpt lat="46.53143" lon="9.21069">
        <ele>1589.68</ele>
        <time>2012-08-04T09:20:46Z</time>
      </trkpt>
      <trkpt lat="46.5314" lon="9.21053">
        <ele>1589.68</ele>
        <time>2012-08-04T09:20:47Z</time>
      </trkpt>
      <trkpt lat="46.53137" lon="9.21019">
        <ele>1591.6</ele>
        <time>2012-08-04T09:20:49Z</time>
      </trkpt>
      <trkpt lat="46.53138" lon="9.2096">
        <ele>1595.45</ele>
        <time>2012-08-04T09:20:52Z</time>
      </trkpt>
      <trkpt lat="46.53141" lon="9.2094">
        <ele>1596.41</ele>
        <time>2012-08-04T09:20:53Z</time>
      </trkpt>
      <trkpt lat="46.53144" lon="9.2092">
        <ele>1596.89</ele>
        <time>2012-08-04T09:20:54Z</time>
      </trkpt>
      <trkpt lat="46.53154" lon="9.20879">
        <ele>1601.21</ele>
        <time>2012-08-04T09:20:56Z</time>
      </trkpt>
      <trkpt lat="46.53175" lon="9.20797">
        <ele>1604.58</ele>
        <time>2012-08-04T09:21:00Z</time>
      </trkpt>
      <trkpt lat="46.53181" lon="9.20755">
        <ele>1605.54</ele>
        <time>2012-08-04T09:21:02Z</time>
      </trkpt>
      <trkpt lat="46.53183" lon="9.20715">
        <ele>1606.5</ele>
        <time>2012-08-04T09:21:04Z</time>
      </trkpt>
      <trkpt lat="46.53182" lon="9.20694">
        <ele>1607.46</ele>
        <time>2012-08-04T09:21:05Z</time>
      </trkpt>
      <trkpt lat="46.5318" lon="9.20674">
        <ele>1607.94</ele>
        <time>2012-08-04T09:21:06Z</time>
      </trkpt>
      <trkpt lat="46.53177" lon="9.20654">
        <ele>1608.42</ele>
        <time>2012-08-04T09:21:07Z</time>
      </trkpt>
      <trkpt lat="46.53173" lon="9.20634">
        <ele>1609.86</ele>
        <time>2012-08-04T09:21:08Z</time>
      </trkpt>
      <trkpt lat="46.53169" lon="9.20615">
        <ele>1608.9</ele>
        <time>2012-08-04T09:21:09Z</time>
      </trkpt>
      <trkpt lat="46.53163" lon="9.20595">
        <ele>1608.9</ele>
        <time>2012-08-04T09:21:10Z</time>
      </trkpt>
      <trkpt lat="46.53156" lon="9.20578">
        <ele>1608.42</ele>
        <time>2012-08-04T09:21:11Z</time>
      </trkpt>
      <trkpt lat="46.53149" lon="9.20561">
        <ele>1608.9</ele>
        <time>2012-08-04T09:21:12Z</time>
      </trkpt>
      <trkpt lat="46.53112" lon="9.2048">
        <ele>1609.38</ele>
        <time>2012-08-04T09:21:19Z</time>
      </trkpt>
      <trkpt lat="46.53103" lon="9.20458">
        <ele>1610.35</ele>
        <time>2012-08-04T09:21:21Z</time>
      </trkpt>
      <trkpt lat="46.53099" lon="9.20445">
        <ele>1611.31</ele>
        <time>2012-08-04T09:21:22Z</time>
      </trkpt>
      <trkpt lat="46.53095" lon="9.2043">
        <ele>1612.27</ele>
        <time>2012-08-04T09:21:23Z</time>
      </trkpt>
      <trkpt lat="46.53089" lon="9.20398">
        <ele>1613.71</ele>
        <time>2012-08-04T09:21:25Z</time>
      </trkpt>
      <trkpt lat="46.53088" lon="9.20383">
        <ele>1614.67</ele>
        <time>2012-08-04T09:21:26Z</time>
      </trkpt>
      <trkpt lat="46.53087" lon="9.20331">
        <ele>1616.11</ele>
        <time>2012-08-04T09:21:30Z</time>
      </trkpt>
      <trkpt lat="46.53085" lon="9.20318">
        <ele>1617.07</ele>
        <time>2012-08-04T09:21:31Z</time>
      </trkpt>
      <trkpt lat="46.53082" lon="9.20305">
        <ele>1618.04</ele>
        <time>2012-08-04T09:21:32Z</time>
      </trkpt>
      <trkpt lat="46.53081" lon="9.20291">
        <ele>1619</ele>
        <time>2012-08-04T09:21:33Z</time>
      </trkpt>
      <trkpt lat="46.53081" lon="9.20276">
        <ele>1619.96</ele>
        <time>2012-08-04T09:21:34Z</time>
      </trkpt>
      <trkpt lat="46.53071" lon="9.20184">
        <ele>1622.36</ele>
        <time>2012-08-04T09:21:40Z</time>
      </trkpt>
      <trkpt lat="46.5304" lon="9.20049">
        <ele>1626.21</ele>
        <time>2012-08-04T09:21:48Z</time>
      </trkpt>
      <trkpt lat="46.53038" lon="9.2003">
        <ele>1626.21</ele>
        <time>2012-08-04T09:21:49Z</time>
      </trkpt>
      <trkpt lat="46.53037" lon="9.19993">
        <ele>1624.77</ele>
        <time>2012-08-04T09:21:51Z</time>
      </trkpt>
      <trkpt lat="46.53039" lon="9.19956">
        <ele>1623.8</ele>
        <time>2012-08-04T09:21:53Z</time>
      </trkpt>
      <trkpt lat="46.5305" lon="9.19842">
        <ele>1623.32</ele>
        <time>2012-08-04T09:21:59Z</time>
      </trkpt>
      <trkpt lat="46.53048" lon="9.19822">
        <ele>1625.25</ele>
        <time>2012-08-04T09:22:00Z</time>
      </trkpt>
      <trkpt lat="46.53046" lon="9.19803">
        <ele>1625.25</ele>
        <time>2012-08-04T09:22:01Z</time>
      </trkpt>
      <trkpt lat="46.53043" lon="9.19613">
        <ele>1626.69</ele>
        <time>2012-08-04T09:22:10Z</time>
      </trkpt>
      <trkpt lat="46.5302" lon="9.19401">
        <ele>1629.57</ele>
        <time>2012-08-04T09:22:19Z</time>
      </trkpt>
      <trkpt lat="46.52938" lon="9.192">
        <ele>1627.65</ele>
        <time>2012-08-04T09:22:28Z</time>
      </trkpt>
      <trkpt lat="46.52888" lon="9.19085">
        <ele>1624.28</ele>
        <time>2012-08-04T09:22:33Z</time>
      </trkpt>
      <trkpt lat="46.52878" lon="9.19062">
        <ele>1623.8</ele>
        <time>2012-08-04T09:22:34Z</time>
      </trkpt>
      <trkpt lat="46.52837" lon="9.1897">
        <ele>1621.88</ele>
        <time>2012-08-04T09:22:38Z</time>
      </trkpt>
      <trkpt lat="46.52779" lon="9.18844">
        <ele>1619</ele>
        <time>2012-08-04T09:22:44Z</time>
      </trkpt>
      <trkpt lat="46.52766" lon="9.18828">
        <ele>1618.52</ele>
        <time>2012-08-04T09:22:45Z</time>
      </trkpt>
      <trkpt lat="46.52752" lon="9.18814">
        <ele>1618.04</ele>
        <time>2012-08-04T09:22:46Z</time>
      </trkpt>
      <trkpt lat="46.52737" lon="9.18802">
        <ele>1618.04</ele>
        <time>2012-08-04T09:22:47Z</time>
      </trkpt>
      <trkpt lat="46.52721" lon="9.18791">
        <ele>1618.52</ele>
        <time>2012-08-04T09:22:48Z</time>
      </trkpt>
      <trkpt lat="46.52585" lon="9.18702">
        <ele>1616.11</ele>
        <time>2012-08-04T09:22:57Z</time>
      </trkpt>
      <trkpt lat="46.5255" lon="9.18665">
        <ele>1614.67</ele>
        <time>2012-08-04T09:23:01Z</time>
      </trkpt>
      <trkpt lat="46.52543" lon="9.18662">
        <ele>1614.67</ele>
        <time>2012-08-04T09:23:02Z</time>
      </trkpt>
      <trkpt lat="46.52537" lon="9.18664">
        <ele>1614.67</ele>
        <time>2012-08-04T09:23:03Z</time>
      </trkpt>
      <trkpt lat="46.52532" lon="9.18667">
        <ele>1613.23</ele>
        <time>2012-08-04T09:23:04Z</time>
      </trkpt>
      <trkpt lat="46.52529" lon="9.18674">
        <ele>1613.23</ele>
        <time>2012-08-04T09:23:05Z</time>
      </trkpt>
      <trkpt lat="46.52525" lon="9.18681">
        <ele>1612.27</ele>
        <time>2012-08-04T09:23:06Z</time>
      </trkpt>
      <trkpt lat="46.5252" lon="9.18686">
        <ele>1613.23</ele>
        <time>2012-08-04T09:23:07Z</time>
      </trkpt>
      <trkpt lat="46.52514" lon="9.18689">
        <ele>1613.23</ele>
        <time>2012-08-04T09:23:08Z</time>
      </trkpt>
      <trkpt lat="46.52505" lon="9.1869">
        <ele>1613.71</ele>
        <time>2012-08-04T09:23:09Z</time>
      </trkpt>
      <trkpt lat="46.52496" lon="9.1869">
        <ele>1614.19</ele>
        <time>2012-08-04T09:23:10Z</time>
      </trkpt>
      <trkpt lat="46.52486" lon="9.1869">
        <ele>1615.15</ele>
        <time>2012-08-04T09:23:11Z</time>
      </trkpt>
      <trkpt lat="46.52457" lon="9.18687">
        <ele>1614.67</ele>
        <time>2012-08-04T09:23:14Z</time>
      </trkpt>
      <trkpt lat="46.52449" lon="9.18679">
        <ele>1615.15</ele>
        <time>2012-08-04T09:23:15Z</time>
      </trkpt>
      <trkpt lat="46.52444" lon="9.18667">
        <ele>1615.63</ele>
        <time>2012-08-04T09:23:16Z</time>
      </trkpt>
      <trkpt lat="46.52441" lon="9.18652">
        <ele>1616.59</ele>
        <time>2012-08-04T09:23:17Z</time>
      </trkpt>
      <trkpt lat="46.52439" lon="9.18636">
        <ele>1616.59</ele>
        <time>2012-08-04T09:23:18Z</time>
      </trkpt>
      <trkpt lat="46.52435" lon="9.18619">
        <ele>1617.07</ele>
        <time>2012-08-04T09:23:19Z</time>
      </trkpt>
      <trkpt lat="46.52423" lon="9.18566">
        <ele>1618.52</ele>
        <time>2012-08-04T09:23:22Z</time>
      </trkpt>
      <trkpt lat="46.52417" lon="9.18549">
        <ele>1618.04</ele>
        <time>2012-08-04T09:23:23Z</time>
      </trkpt>
      <trkpt lat="46.52379" lon="9.18468">
        <ele>1621.4</ele>
        <time>2012-08-04T09:23:28Z</time>
      </trkpt>
      <trkpt lat="46.52303" lon="9.18348">
        <ele>1622.36</ele>
        <time>2012-08-04T09:23:35Z</time>
      </trkpt>
      <trkpt lat="46.52279" lon="9.18322">
        <ele>1621.88</ele>
        <time>2012-08-04T09:23:37Z</time>
      </trkpt>
      <trkpt lat="46.52265" lon="9.18313">
        <ele>1621.88</ele>
        <time>2012-08-04T09:23:38Z</time>
      </trkpt>
      <trkpt lat="46.5225" lon="9.18308">
        <ele>1622.84</ele>
        <time>2012-08-04T09:23:39Z</time>
      </trkpt>
      <trkpt lat="46.52233" lon="9.18305">
        <ele>1624.77</ele>
        <time>2012-08-04T09:23:40Z</time>
      </trkpt>
      <trkpt lat="46.52217" lon="9.18302">
        <ele>1626.21</ele>
        <time>2012-08-04T09:23:41Z</time>
      </trkpt>
      <trkpt lat="46.52201" lon="9.18298">
        <ele>1627.65</ele>
        <time>2012-08-04T09:23:42Z</time>
      </trkpt>
      <trkpt lat="46.52186" lon="9.1829">
        <ele>1628.13</ele>
        <time>2012-08-04T09:23:43Z</time>
      </trkpt>
      <trkpt lat="46.52173" lon="9.18278">
        <ele>1630.05</ele>
        <time>2012-08-04T09:23:44Z</time>
      </trkpt>
      <trkpt lat="46.52161" lon="9.18262">
        <ele>1630.53</ele>
        <time>2012-08-04T09:23:45Z</time>
      </trkpt>
      <trkpt lat="46.52151" lon="9.18244">
        <ele>1631.98</ele>
        <time>2012-08-04T09:23:46Z</time>
      </trkpt>
      <trkpt lat="46.52144" lon="9.18225">
        <ele>1632.94</ele>
        <time>2012-08-04T09:23:47Z</time>
      </trkpt>
      <trkpt lat="46.52138" lon="9.18206">
        <ele>1632.46</ele>
        <time>2012-08-04T09:23:48Z</time>
      </trkpt>
      <trkpt lat="46.52134" lon="9.18189">
        <ele>1632.94</ele>
        <time>2012-08-04T09:23:49Z</time>
      </trkpt>
      <trkpt lat="46.5213" lon="9.18176">
        <ele>1632.94</ele>
        <time>2012-08-04T09:23:50Z</time>
      </trkpt>
      <trkpt lat="46.52125" lon="9.18166">
        <ele>1632.46</ele>
        <time>2012-08-04T09:23:51Z</time>
      </trkpt>
      <trkpt lat="46.52119" lon="9.18162">
        <ele>1631.98</ele>
        <time>2012-08-04T09:23:52Z</time>
      </trkpt>
      <trkpt lat="46.52113" lon="9.18165">
        <ele>1631.98</ele>
        <time>2012-08-04T09:23:53Z</time>
      </trkpt>
      <trkpt lat="46.52108" lon="9.18173">
        <ele>1631.98</ele>
        <time>2012-08-04T09:23:54Z</time>
      </trkpt>
      <trkpt lat="46.52104" lon="9.18181">
        <ele>1632.94</ele>
        <time>2012-08-04T09:23:55Z</time>
      </trkpt>
      <trkpt lat="46.52101" lon="9.18199">
        <ele>1634.38</ele>
        <time>2012-08-04T09:23:56Z</time>
      </trkpt>
      <trkpt lat="46.521" lon="9.18218">
        <ele>1634.86</ele>
        <time>2012-08-04T09:23:57Z</time>
      </trkpt>
      <trkpt lat="46.52101" lon="9.18239">
        <ele>1636.3</ele>
        <time>2012-08-04T09:23:58Z</time>
      </trkpt>
      <trkpt lat="46.52104" lon="9.18261">
        <ele>1638.7</ele>
        <time>2012-08-04T09:23:59Z</time>
      </trkpt>
      <trkpt lat="46.52116" lon="9.18329">
        <ele>1642.55</ele>
        <time>2012-08-04T09:24:02Z</time>
      </trkpt>
      <trkpt lat="46.52127" lon="9.18377">
        <ele>1647.36</ele>
        <time>2012-08-04T09:24:04Z</time>
      </trkpt>
      <trkpt lat="46.52146" lon="9.18453">
        <ele>1651.2</ele>
        <time>2012-08-04T09:24:07Z</time>
      </trkpt>
      <trkpt lat="46.5216" lon="9.18502">
        <ele>1651.68</ele>
        <time>2012-08-04T09:24:09Z</time>
      </trkpt>
      <trkpt lat="46.52173" lon="9.18541">
        <ele>1651.68</ele>
        <time>2012-08-04T09:24:11Z</time>
      </trkpt>
      <trkpt lat="46.5218" lon="9.18557">
        <ele>1651.2</ele>
        <time>2012-08-04T09:24:12Z</time>
      </trkpt>
      <trkpt lat="46.5219" lon="9.18577">
        <ele>1651.2</ele>
        <time>2012-08-04T09:24:14Z</time>
      </trkpt>
      <trkpt lat="46.52192" lon="9.18584">
        <ele>1651.2</ele>
        <time>2012-08-04T09:24:15Z</time>
      </trkpt>
      <trkpt lat="46.52191" lon="9.1859">
        <ele>1652.16</ele>
        <time>2012-08-04T09:24:16Z</time>
      </trkpt>
      <trkpt lat="46.52187" lon="9.18592">
        <ele>1652.16</ele>
        <time>2012-08-04T09:24:17Z</time>
      </trkpt>
      <trkpt lat="46.52183" lon="9.1859">
        <ele>1653.12</ele>
        <time>2012-08-04T09:24:18Z</time>
      </trkpt>
      <trkpt lat="46.52177" lon="9.18584">
        <ele>1654.57</ele>
        <time>2012-08-04T09:24:19Z</time>
      </trkpt>
      <trkpt lat="46.52172" lon="9.18573">
        <ele>1656.01</ele>
        <time>2012-08-04T09:24:20Z</time>
      </trkpt>
      <trkpt lat="46.52144" lon="9.18517">
        <ele>1660.81</ele>
        <time>2012-08-04T09:24:24Z</time>
      </trkpt>
      <trkpt lat="46.52128" lon="9.18481">
        <ele>1664.66</ele>
        <time>2012-08-04T09:24:26Z</time>
      </trkpt>
      <trkpt lat="46.52119" lon="9.18463">
        <ele>1665.62</ele>
        <time>2012-08-04T09:24:27Z</time>
      </trkpt>
      <trkpt lat="46.5209" lon="9.18402">
        <ele>1669.95</ele>
        <time>2012-08-04T09:24:30Z</time>
      </trkpt>
      <trkpt lat="46.52074" lon="9.18362">
        <ele>1671.39</ele>
        <time>2012-08-04T09:24:32Z</time>
      </trkpt>
      <trkpt lat="46.5207" lon="9.18347">
        <ele>1670.43</ele>
        <time>2012-08-04T09:24:33Z</time>
      </trkpt>
      <trkpt lat="46.52067" lon="9.18336">
        <ele>1670.43</ele>
        <time>2012-08-04T09:24:34Z</time>
      </trkpt>
      <trkpt lat="46.52064" lon="9.18328">
        <ele>1670.91</ele>
        <time>2012-08-04T09:24:35Z</time>
      </trkpt>
      <trkpt lat="46.5206" lon="9.18324">
        <ele>1671.39</ele>
        <time>2012-08-04T09:24:36Z</time>
      </trkpt>
      <trkpt lat="46.52056" lon="9.18326">
        <ele>1670.91</ele>
        <time>2012-08-04T09:24:37Z</time>
      </trkpt>
      <trkpt lat="46.52053" lon="9.18333">
        <ele>1671.87</ele>
        <time>2012-08-04T09:24:38Z</time>
      </trkpt>
      <trkpt lat="46.52053" lon="9.18344">
        <ele>1671.87</ele>
        <time>2012-08-04T09:24:39Z</time>
      </trkpt>
      <trkpt lat="46.52055" lon="9.18357">
        <ele>1673.31</ele>
        <time>2012-08-04T09:24:40Z</time>
      </trkpt>
      <trkpt lat="46.52059" lon="9.18371">
        <ele>1674.27</ele>
        <time>2012-08-04T09:24:41Z</time>
      </trkpt>
      <trkpt lat="46.52065" lon="9.18388">
        <ele>1675.72</ele>
        <time>2012-08-04T09:24:42Z</time>
      </trkpt>
      <trkpt lat="46.52081" lon="9.18447">
        <ele>1679.08</ele>
        <time>2012-08-04T09:24:45Z</time>
      </trkpt>
      <trkpt lat="46.52095" lon="9.18489">
        <ele>1681.48</ele>
        <time>2012-08-04T09:24:47Z</time>
      </trkpt>
      <trkpt lat="46.52109" lon="9.18531">
        <ele>1683.89</ele>
        <time>2012-08-04T09:24:49Z</time>
      </trkpt>
      <trkpt lat="46.52123" lon="9.18571">
        <ele>1683.89</ele>
        <time>2012-08-04T09:24:52Z</time>
      </trkpt>
      <trkpt lat="46.52124" lon="9.18579">
        <ele>1683.41</ele>
        <time>2012-08-04T09:24:53Z</time>
      </trkpt>
      <trkpt lat="46.52122" lon="9.18583">
        <ele>1683.41</ele>
        <time>2012-08-04T09:24:54Z</time>
      </trkpt>
      <trkpt lat="46.52119" lon="9.18584">
        <ele>1683.89</ele>
        <time>2012-08-04T09:24:55Z</time>
      </trkpt>
      <trkpt lat="46.52113" lon="9.18583">
        <ele>1684.37</ele>
        <time>2012-08-04T09:24:56Z</time>
      </trkpt>
      <trkpt lat="46.5211" lon="9.18575">
        <ele>1685.81</ele>
        <time>2012-08-04T09:24:57Z</time>
      </trkpt>
      <trkpt lat="46.52107" lon="9.18565">
        <ele>1686.77</ele>
        <time>2012-08-04T09:24:58Z</time>
      </trkpt>
      <trkpt lat="46.52098" lon="9.18538">
        <ele>1689.65</ele>
        <time>2012-08-04T09:25:00Z</time>
      </trkpt>
      <trkpt lat="46.52082" lon="9.18498">
        <ele>1691.58</ele>
        <time>2012-08-04T09:25:03Z</time>
      </trkpt>
      <trkpt lat="46.52077" lon="9.1849">
        <ele>1691.58</ele>
        <time>2012-08-04T09:25:04Z</time>
      </trkpt>
      <trkpt lat="46.52073" lon="9.18487">
        <ele>1692.06</ele>
        <time>2012-08-04T09:25:05Z</time>
      </trkpt>
      <trkpt lat="46.52071" lon="9.18488">
        <ele>1692.06</ele>
        <time>2012-08-04T09:25:06Z</time>
      </trkpt>
      <trkpt lat="46.52069" lon="9.18494">
        <ele>1692.54</ele>
        <time>2012-08-04T09:25:07Z</time>
      </trkpt>
      <trkpt lat="46.52069" lon="9.18502">
        <ele>1693.02</ele>
        <time>2012-08-04T09:25:08Z</time>
      </trkpt>
      <trkpt lat="46.52071" lon="9.18512">
        <ele>1693.98</ele>
        <time>2012-08-04T09:25:09Z</time>
      </trkpt>
      <trkpt lat="46.52075" lon="9.18525">
        <ele>1694.46</ele>
        <time>2012-08-04T09:25:10Z</time>
      </trkpt>
      <trkpt lat="46.52081" lon="9.1854">
        <ele>1695.42</ele>
        <time>2012-08-04T09:25:11Z</time>
      </trkpt>
      <trkpt lat="46.52087" lon="9.18557">
        <ele>1696.38</ele>
        <time>2012-08-04T09:25:12Z</time>
      </trkpt>
      <trkpt lat="46.52092" lon="9.18576">
        <ele>1697.34</ele>
        <time>2012-08-04T09:25:13Z</time>
      </trkpt>
      <trkpt lat="46.52102" lon="9.18616">
        <ele>1700.23</ele>
        <time>2012-08-04T09:25:15Z</time>
      </trkpt>
      <trkpt lat="46.52118" lon="9.18677">
        <ele>1702.63</ele>
        <time>2012-08-04T09:25:18Z</time>
      </trkpt>
      <trkpt lat="46.52122" lon="9.18695">
        <ele>1703.59</ele>
        <time>2012-08-04T09:25:19Z</time>
      </trkpt>
      <trkpt lat="46.52129" lon="9.18712">
        <ele>1704.07</ele>
        <time>2012-08-04T09:25:20Z</time>
      </trkpt>
      <trkpt lat="46.52138" lon="9.18728">
        <ele>1706</ele>
        <time>2012-08-04T09:25:21Z</time>
      </trkpt>
      <trkpt lat="46.52149" lon="9.18742">
        <ele>1707.92</ele>
        <time>2012-08-04T09:25:22Z</time>
      </trkpt>
      <trkpt lat="46.52161" lon="9.18757">
        <ele>1708.88</ele>
        <time>2012-08-04T09:25:23Z</time>
      </trkpt>
      <trkpt lat="46.52172" lon="9.18772">
        <ele>1709.36</ele>
        <time>2012-08-04T09:25:24Z</time>
      </trkpt>
      <trkpt lat="46.52182" lon="9.1879">
        <ele>1710.8</ele>
        <time>2012-08-04T09:25:25Z</time>
      </trkpt>
      <trkpt lat="46.52191" lon="9.18807">
        <ele>1711.76</ele>
        <time>2012-08-04T09:25:26Z</time>
      </trkpt>
      <trkpt lat="46.52208" lon="9.18844">
        <ele>1711.76</ele>
        <time>2012-08-04T09:25:29Z</time>
      </trkpt>
      <trkpt lat="46.5221" lon="9.18851">
        <ele>1712.25</ele>
        <time>2012-08-04T09:25:30Z</time>
      </trkpt>
      <trkpt lat="46.52209" lon="9.18857">
        <ele>1712.73</ele>
        <time>2012-08-04T09:25:31Z</time>
      </trkpt>
      <trkpt lat="46.52206" lon="9.18858">
        <ele>1713.21</ele>
        <time>2012-08-04T09:25:32Z</time>
      </trkpt>
      <trkpt lat="46.52203" lon="9.18855">
        <ele>1713.21</ele>
        <time>2012-08-04T09:25:33Z</time>
      </trkpt>
      <trkpt lat="46.52199" lon="9.18849">
        <ele>1714.17</ele>
        <time>2012-08-04T09:25:34Z</time>
      </trkpt>
      <trkpt lat="46.52195" lon="9.1884">
        <ele>1715.61</ele>
        <time>2012-08-04T09:25:35Z</time>
      </trkpt>
      <trkpt lat="46.5219" lon="9.18829">
        <ele>1716.57</ele>
        <time>2012-08-04T09:25:36Z</time>
      </trkpt>
      <trkpt lat="46.52183" lon="9.18815">
        <ele>1718.01</ele>
        <time>2012-08-04T09:25:37Z</time>
      </trkpt>
      <trkpt lat="46.52174" lon="9.18801">
        <ele>1718.49</ele>
        <time>2012-08-04T09:25:38Z</time>
      </trkpt>
      <trkpt lat="46.52164" lon="9.18787">
        <ele>1720.42</ele>
        <time>2012-08-04T09:25:39Z</time>
      </trkpt>
      <trkpt lat="46.52155" lon="9.18775">
        <ele>1719.94</ele>
        <time>2012-08-04T09:25:40Z</time>
      </trkpt>
      <trkpt lat="46.52142" lon="9.1876">
        <ele>1718.97</ele>
        <time>2012-08-04T09:25:42Z</time>
      </trkpt>
      <trkpt lat="46.52137" lon="9.18759">
        <ele>1719.46</ele>
        <time>2012-08-04T09:25:43Z</time>
      </trkpt>
      <trkpt lat="46.52133" lon="9.18761">
        <ele>1719.46</ele>
        <time>2012-08-04T09:25:44Z</time>
      </trkpt>
      <trkpt lat="46.52132" lon="9.18766">
        <ele>1719.46</ele>
        <time>2012-08-04T09:25:45Z</time>
      </trkpt>
      <trkpt lat="46.52133" lon="9.18772">
        <ele>1718.97</ele>
        <time>2012-08-04T09:25:46Z</time>
      </trkpt>
      <trkpt lat="46.52136" lon="9.1878">
        <ele>1719.94</ele>
        <time>2012-08-04T09:25:47Z</time>
      </trkpt>
      <trkpt lat="46.52141" lon="9.18788">
        <ele>1721.38</ele>
        <time>2012-08-04T09:25:48Z</time>
      </trkpt>
      <trkpt lat="46.52149" lon="9.18799">
        <ele>1721.86</ele>
        <time>2012-08-04T09:25:49Z</time>
      </trkpt>
      <trkpt lat="46.52158" lon="9.18811">
        <ele>1723.3</ele>
        <time>2012-08-04T09:25:50Z</time>
      </trkpt>
      <trkpt lat="46.52166" lon="9.18827">
        <ele>1724.74</ele>
        <time>2012-08-04T09:25:51Z</time>
      </trkpt>
      <trkpt lat="46.52179" lon="9.18851">
        <ele>1724.74</ele>
        <time>2012-08-04T09:25:53Z</time>
      </trkpt>
      <trkpt lat="46.52188" lon="9.18869">
        <ele>1725.22</ele>
        <time>2012-08-04T09:25:56Z</time>
      </trkpt>
      <trkpt lat="46.52185" lon="9.18869">
        <ele>1725.22</ele>
        <time>2012-08-04T09:25:57Z</time>
      </trkpt>
      <trkpt lat="46.52181" lon="9.18867">
        <ele>1725.7</ele>
        <time>2012-08-04T09:25:58Z</time>
      </trkpt>
      <trkpt lat="46.52176" lon="9.1886">
        <ele>1727.15</ele>
        <time>2012-08-04T09:25:59Z</time>
      </trkpt>
      <trkpt lat="46.52171" lon="9.1885">
        <ele>1728.11</ele>
        <time>2012-08-04T09:26:00Z</time>
      </trkpt>
      <trkpt lat="46.52165" lon="9.18839">
        <ele>1729.07</ele>
        <time>2012-08-04T09:26:01Z</time>
      </trkpt>
      <trkpt lat="46.52143" lon="9.18802">
        <ele>1731.95</ele>
        <time>2012-08-04T09:26:04Z</time>
      </trkpt>
      <trkpt lat="46.5213" lon="9.18785">
        <ele>1731.47</ele>
        <time>2012-08-04T09:26:06Z</time>
      </trkpt>
      <trkpt lat="46.52124" lon="9.18783">
        <ele>1730.99</ele>
        <time>2012-08-04T09:26:07Z</time>
      </trkpt>
      <trkpt lat="46.52121" lon="9.18786">
        <ele>1730.99</ele>
        <time>2012-08-04T09:26:08Z</time>
      </trkpt>
      <trkpt lat="46.5212" lon="9.18792">
        <ele>1730.99</ele>
        <time>2012-08-04T09:26:09Z</time>
      </trkpt>
      <trkpt lat="46.52121" lon="9.18801">
        <ele>1731.47</ele>
        <time>2012-08-04T09:26:10Z</time>
      </trkpt>
      <trkpt lat="46.52125" lon="9.18811">
        <ele>1732.43</ele>
        <time>2012-08-04T09:26:11Z</time>
      </trkpt>
      <trkpt lat="46.52132" lon="9.18821">
        <ele>1733.39</ele>
        <time>2012-08-04T09:26:12Z</time>
      </trkpt>
      <trkpt lat="46.5214" lon="9.18835">
        <ele>1734.84</ele>
        <time>2012-08-04T09:26:13Z</time>
      </trkpt>
      <trkpt lat="46.52147" lon="9.1885">
        <ele>1736.28</ele>
        <time>2012-08-04T09:26:14Z</time>
      </trkpt>
      <trkpt lat="46.52153" lon="9.18864">
        <ele>1736.28</ele>
        <time>2012-08-04T09:26:15Z</time>
      </trkpt>
      <trkpt lat="46.52161" lon="9.18883">
        <ele>1736.76</ele>
        <time>2012-08-04T09:26:17Z</time>
      </trkpt>
      <trkpt lat="46.52161" lon="9.1889">
        <ele>1736.76</ele>
        <time>2012-08-04T09:26:18Z</time>
      </trkpt>
      <trkpt lat="46.52159" lon="9.18893">
        <ele>1737.24</ele>
        <time>2012-08-04T09:26:19Z</time>
      </trkpt>
      <trkpt lat="46.52154" lon="9.18891">
        <ele>1737.72</ele>
        <time>2012-08-04T09:26:20Z</time>
      </trkpt>
      <trkpt lat="46.52149" lon="9.18884">
        <ele>1739.16</ele>
        <time>2012-08-04T09:26:21Z</time>
      </trkpt>
      <trkpt lat="46.52143" lon="9.18874">
        <ele>1740.12</ele>
        <time>2012-08-04T09:26:22Z</time>
      </trkpt>
      <trkpt lat="46.52137" lon="9.18862">
        <ele>1741.08</ele>
        <time>2012-08-04T09:26:23Z</time>
      </trkpt>
      <trkpt lat="46.52128" lon="9.1885">
        <ele>1742.53</ele>
        <time>2012-08-04T09:26:24Z</time>
      </trkpt>
      <trkpt lat="46.52098" lon="9.18806">
        <ele>1746.37</ele>
        <time>2012-08-04T09:26:27Z</time>
      </trkpt>
      <trkpt lat="46.52079" lon="9.18769">
        <ele>1748.29</ele>
        <time>2012-08-04T09:26:29Z</time>
      </trkpt>
      <trkpt lat="46.52072" lon="9.18749">
        <ele>1748.78</ele>
        <time>2012-08-04T09:26:30Z</time>
      </trkpt>
      <trkpt lat="46.52053" lon="9.18696">
        <ele>1749.26</ele>
        <time>2012-08-04T09:26:34Z</time>
      </trkpt>
      <trkpt lat="46.5205" lon="9.18691">
        <ele>1749.26</ele>
        <time>2012-08-04T09:26:35Z</time>
      </trkpt>
      <trkpt lat="46.52046" lon="9.18691">
        <ele>1749.26</ele>
        <time>2012-08-04T09:26:36Z</time>
      </trkpt>
      <trkpt lat="46.52042" lon="9.18703">
        <ele>1749.74</ele>
        <time>2012-08-04T09:26:38Z</time>
      </trkpt>
      <trkpt lat="46.52043" lon="9.18713">
        <ele>1750.22</ele>
        <time>2012-08-04T09:26:39Z</time>
      </trkpt>
      <trkpt lat="46.52046" lon="9.18725">
        <ele>1751.66</ele>
        <time>2012-08-04T09:26:40Z</time>
      </trkpt>
      <trkpt lat="46.5205" lon="9.18739">
        <ele>1752.62</ele>
        <time>2012-08-04T09:26:41Z</time>
      </trkpt>
      <trkpt lat="46.52054" lon="9.18755">
        <ele>1753.58</ele>
        <time>2012-08-04T09:26:42Z</time>
      </trkpt>
      <trkpt lat="46.52058" lon="9.18772">
        <ele>1755.5</ele>
        <time>2012-08-04T09:26:43Z</time>
      </trkpt>
      <trkpt lat="46.52063" lon="9.18789">
        <ele>1756.95</ele>
        <time>2012-08-04T09:26:44Z</time>
      </trkpt>
      <trkpt lat="46.5207" lon="9.18805">
        <ele>1757.43</ele>
        <time>2012-08-04T09:26:45Z</time>
      </trkpt>
      <trkpt lat="46.52079" lon="9.18822">
        <ele>1758.87</ele>
        <time>2012-08-04T09:26:46Z</time>
      </trkpt>
      <trkpt lat="46.52087" lon="9.1884">
        <ele>1759.35</ele>
        <time>2012-08-04T09:26:47Z</time>
      </trkpt>
      <trkpt lat="46.52093" lon="9.18859">
        <ele>1760.31</ele>
        <time>2012-08-04T09:26:48Z</time>
      </trkpt>
      <trkpt lat="46.52099" lon="9.18877">
        <ele>1761.27</ele>
        <time>2012-08-04T09:26:49Z</time>
      </trkpt>
      <trkpt lat="46.52105" lon="9.18892">
        <ele>1761.27</ele>
        <time>2012-08-04T09:26:50Z</time>
      </trkpt>
      <trkpt lat="46.52112" lon="9.18902">
        <ele>1761.75</ele>
        <time>2012-08-04T09:26:51Z</time>
      </trkpt>
      <trkpt lat="46.5212" lon="9.18916">
        <ele>1762.23</ele>
        <time>2012-08-04T09:26:53Z</time>
      </trkpt>
      <trkpt lat="46.5212" lon="9.18921">
        <ele>1762.23</ele>
        <time>2012-08-04T09:26:54Z</time>
      </trkpt>
      <trkpt lat="46.52117" lon="9.18923">
        <ele>1762.71</ele>
        <time>2012-08-04T09:26:55Z</time>
      </trkpt>
      <trkpt lat="46.52112" lon="9.18921">
        <ele>1763.68</ele>
        <time>2012-08-04T09:26:56Z</time>
      </trkpt>
      <trkpt lat="46.52107" lon="9.18915">
        <ele>1763.68</ele>
        <time>2012-08-04T09:26:57Z</time>
      </trkpt>
      <trkpt lat="46.52102" lon="9.18904">
        <ele>1765.6</ele>
        <time>2012-08-04T09:26:58Z</time>
      </trkpt>
      <trkpt lat="46.52096" lon="9.18891">
        <ele>1766.56</ele>
        <time>2012-08-04T09:26:59Z</time>
      </trkpt>
      <trkpt lat="46.52074" lon="9.18843">
        <ele>1769.92</ele>
        <time>2012-08-04T09:27:02Z</time>
      </trkpt>
      <trkpt lat="46.52064" lon="9.18826">
        <ele>1771.37</ele>
        <time>2012-08-04T09:27:03Z</time>
      </trkpt>
      <trkpt lat="46.52052" lon="9.1881">
        <ele>1772.33</ele>
        <time>2012-08-04T09:27:04Z</time>
      </trkpt>
      <trkpt lat="46.52043" lon="9.18792">
        <ele>1772.81</ele>
        <time>2012-08-04T09:27:05Z</time>
      </trkpt>
      <trkpt lat="46.52035" lon="9.18772">
        <ele>1772.81</ele>
        <time>2012-08-04T09:27:06Z</time>
      </trkpt>
      <trkpt lat="46.52029" lon="9.18753">
        <ele>1773.77</ele>
        <time>2012-08-04T09:27:07Z</time>
      </trkpt>
      <trkpt lat="46.52012" lon="9.18709">
        <ele>1772.81</ele>
        <time>2012-08-04T09:27:10Z</time>
      </trkpt>
      <trkpt lat="46.52007" lon="9.18703">
        <ele>1773.29</ele>
        <time>2012-08-04T09:27:11Z</time>
      </trkpt>
      <trkpt lat="46.52003" lon="9.18703">
        <ele>1773.77</ele>
        <time>2012-08-04T09:27:12Z</time>
      </trkpt>
      <trkpt lat="46.52" lon="9.18707">
        <ele>1773.77</ele>
        <time>2012-08-04T09:27:13Z</time>
      </trkpt>
      <trkpt lat="46.51999" lon="9.18713">
        <ele>1774.25</ele>
        <time>2012-08-04T09:27:14Z</time>
      </trkpt>
      <trkpt lat="46.51998" lon="9.18721">
        <ele>1774.73</ele>
        <time>2012-08-04T09:27:15Z</time>
      </trkpt>
      <trkpt lat="46.51999" lon="9.18729">
        <ele>1775.69</ele>
        <time>2012-08-04T09:27:16Z</time>
      </trkpt>
      <trkpt lat="46.52003" lon="9.18743">
        <ele>1776.17</ele>
        <time>2012-08-04T09:27:17Z</time>
      </trkpt>
      <trkpt lat="46.52007" lon="9.1876">
        <ele>1777.61</ele>
        <time>2012-08-04T09:27:18Z</time>
      </trkpt>
      <trkpt lat="46.52011" lon="9.18777">
        <ele>1777.61</ele>
        <time>2012-08-04T09:27:19Z</time>
      </trkpt>
      <trkpt lat="46.52017" lon="9.18795">
        <ele>1780.02</ele>
        <time>2012-08-04T09:27:20Z</time>
      </trkpt>
      <trkpt lat="46.52026" lon="9.18812">
        <ele>1780.98</ele>
        <time>2012-08-04T09:27:21Z</time>
      </trkpt>
      <trkpt lat="46.52035" lon="9.18829">
        <ele>1781.94</ele>
        <time>2012-08-04T09:27:22Z</time>
      </trkpt>
      <trkpt lat="46.52043" lon="9.18849">
        <ele>1782.9</ele>
        <time>2012-08-04T09:27:23Z</time>
      </trkpt>
      <trkpt lat="46.5205" lon="9.1887">
        <ele>1783.86</ele>
        <time>2012-08-04T09:27:24Z</time>
      </trkpt>
      <trkpt lat="46.52057" lon="9.1889">
        <ele>1784.34</ele>
        <time>2012-08-04T09:27:25Z</time>
      </trkpt>
      <trkpt lat="46.52063" lon="9.18906">
        <ele>1783.86</ele>
        <time>2012-08-04T09:27:26Z</time>
      </trkpt>
      <trkpt lat="46.52073" lon="9.18928">
        <ele>1783.86</ele>
        <time>2012-08-04T09:27:28Z</time>
      </trkpt>
      <trkpt lat="46.52069" lon="9.18939">
        <ele>1784.82</ele>
        <time>2012-08-04T09:27:31Z</time>
      </trkpt>
      <trkpt lat="46.52066" lon="9.18935">
        <ele>1784.82</ele>
        <time>2012-08-04T09:27:32Z</time>
      </trkpt>
      <trkpt lat="46.52063" lon="9.18927">
        <ele>1785.31</ele>
        <time>2012-08-04T09:27:33Z</time>
      </trkpt>
      <trkpt lat="46.5206" lon="9.18917">
        <ele>1787.23</ele>
        <time>2012-08-04T09:27:34Z</time>
      </trkpt>
      <trkpt lat="46.5205" lon="9.18892">
        <ele>1788.67</ele>
        <time>2012-08-04T09:27:36Z</time>
      </trkpt>
      <trkpt lat="46.52043" lon="9.18877">
        <ele>1790.11</ele>
        <time>2012-08-04T09:27:37Z</time>
      </trkpt>
      <trkpt lat="46.5203" lon="9.18848">
        <ele>1791.55</ele>
        <time>2012-08-04T09:27:39Z</time>
      </trkpt>
      <trkpt lat="46.52022" lon="9.18836">
        <ele>1792.52</ele>
        <time>2012-08-04T09:27:40Z</time>
      </trkpt>
      <trkpt lat="46.52012" lon="9.18825">
        <ele>1794.44</ele>
        <time>2012-08-04T09:27:41Z</time>
      </trkpt>
      <trkpt lat="46.52001" lon="9.18812">
        <ele>1794.92</ele>
        <time>2012-08-04T09:27:42Z</time>
      </trkpt>
      <trkpt lat="46.51992" lon="9.18796">
        <ele>1795.88</ele>
        <time>2012-08-04T09:27:43Z</time>
      </trkpt>
      <trkpt lat="46.51983" lon="9.18779">
        <ele>1797.32</ele>
        <time>2012-08-04T09:27:44Z</time>
      </trkpt>
      <trkpt lat="46.51963" lon="9.18745">
        <ele>1799.24</ele>
        <time>2012-08-04T09:27:46Z</time>
      </trkpt>
      <trkpt lat="46.51955" lon="9.18728">
        <ele>1799.24</ele>
        <time>2012-08-04T09:27:47Z</time>
      </trkpt>
      <trkpt lat="46.5195" lon="9.1871">
        <ele>1799.73</ele>
        <time>2012-08-04T09:27:48Z</time>
      </trkpt>
      <trkpt lat="46.51946" lon="9.18693">
        <ele>1799.24</ele>
        <time>2012-08-04T09:27:49Z</time>
      </trkpt>
      <trkpt lat="46.51942" lon="9.18678">
        <ele>1800.69</ele>
        <time>2012-08-04T09:27:50Z</time>
      </trkpt>
      <trkpt lat="46.51935" lon="9.18664">
        <ele>1802.13</ele>
        <time>2012-08-04T09:27:51Z</time>
      </trkpt>
      <trkpt lat="46.51926" lon="9.1865">
        <ele>1803.09</ele>
        <time>2012-08-04T09:27:52Z</time>
      </trkpt>
      <trkpt lat="46.51918" lon="9.18638">
        <ele>1803.09</ele>
        <time>2012-08-04T09:27:53Z</time>
      </trkpt>
      <trkpt lat="46.51901" lon="9.18615">
        <ele>1802.61</ele>
        <time>2012-08-04T09:27:56Z</time>
      </trkpt>
      <trkpt lat="46.51897" lon="9.18616">
        <ele>1802.61</ele>
        <time>2012-08-04T09:27:57Z</time>
      </trkpt>
      <trkpt lat="46.51895" lon="9.18621">
        <ele>1802.61</ele>
        <time>2012-08-04T09:27:58Z</time>
      </trkpt>
      <trkpt lat="46.51896" lon="9.18628">
        <ele>1803.09</ele>
        <time>2012-08-04T09:27:59Z</time>
      </trkpt>
      <trkpt lat="46.51899" lon="9.18638">
        <ele>1803.57</ele>
        <time>2012-08-04T09:28:00Z</time>
      </trkpt>
      <trkpt lat="46.51904" lon="9.18648">
        <ele>1804.53</ele>
        <time>2012-08-04T09:28:01Z</time>
      </trkpt>
      <trkpt lat="46.5191" lon="9.18658">
        <ele>1805.01</ele>
        <time>2012-08-04T09:28:02Z</time>
      </trkpt>
      <trkpt lat="46.51916" lon="9.18671">
        <ele>1805.97</ele>
        <time>2012-08-04T09:28:03Z</time>
      </trkpt>
      <trkpt lat="46.51921" lon="9.18685">
        <ele>1806.45</ele>
        <time>2012-08-04T09:28:04Z</time>
      </trkpt>
      <trkpt lat="46.51925" lon="9.18702">
        <ele>1807.42</ele>
        <time>2012-08-04T09:28:05Z</time>
      </trkpt>
      <trkpt lat="46.51931" lon="9.18739">
        <ele>1810.3</ele>
        <time>2012-08-04T09:28:07Z</time>
      </trkpt>
      <trkpt lat="46.51936" lon="9.18759">
        <ele>1811.26</ele>
        <time>2012-08-04T09:28:08Z</time>
      </trkpt>
      <trkpt lat="46.51981" lon="9.1886">
        <ele>1816.07</ele>
        <time>2012-08-04T09:28:13Z</time>
      </trkpt>
      <trkpt lat="46.52024" lon="9.18977">
        <ele>1817.51</ele>
        <time>2012-08-04T09:28:19Z</time>
      </trkpt>
      <trkpt lat="46.52027" lon="9.18987">
        <ele>1817.51</ele>
        <time>2012-08-04T09:28:20Z</time>
      </trkpt>
      <trkpt lat="46.52028" lon="9.18993">
        <ele>1817.03</ele>
        <time>2012-08-04T09:28:21Z</time>
      </trkpt>
      <trkpt lat="46.52025" lon="9.18995">
        <ele>1817.99</ele>
        <time>2012-08-04T09:28:22Z</time>
      </trkpt>
      <trkpt lat="46.52021" lon="9.18994">
        <ele>1817.99</ele>
        <time>2012-08-04T09:28:23Z</time>
      </trkpt>
      <trkpt lat="46.52017" lon="9.18987">
        <ele>1819.43</ele>
        <time>2012-08-04T09:28:24Z</time>
      </trkpt>
      <trkpt lat="46.52014" lon="9.18976">
        <ele>1821.35</ele>
        <time>2012-08-04T09:28:25Z</time>
      </trkpt>
      <trkpt lat="46.52011" lon="9.18961">
        <ele>1822.32</ele>
        <time>2012-08-04T09:28:26Z</time>
      </trkpt>
      <trkpt lat="46.52006" lon="9.18946">
        <ele>1823.76</ele>
        <time>2012-08-04T09:28:27Z</time>
      </trkpt>
      <trkpt lat="46.51998" lon="9.18929">
        <ele>1824.72</ele>
        <time>2012-08-04T09:28:28Z</time>
      </trkpt>
      <trkpt lat="46.5199" lon="9.18912">
        <ele>1826.64</ele>
        <time>2012-08-04T09:28:29Z</time>
      </trkpt>
      <trkpt lat="46.51979" lon="9.18895">
        <ele>1829.05</ele>
        <time>2012-08-04T09:28:30Z</time>
      </trkpt>
      <trkpt lat="46.51966" lon="9.18879">
        <ele>1830.01</ele>
        <time>2012-08-04T09:28:31Z</time>
      </trkpt>
      <trkpt lat="46.51953" lon="9.18864">
        <ele>1831.45</ele>
        <time>2012-08-04T09:28:32Z</time>
      </trkpt>
      <trkpt lat="46.5194" lon="9.18847">
        <ele>1831.93</ele>
        <time>2012-08-04T09:28:33Z</time>
      </trkpt>
      <trkpt lat="46.51928" lon="9.1883">
        <ele>1832.89</ele>
        <time>2012-08-04T09:28:34Z</time>
      </trkpt>
      <trkpt lat="46.51918" lon="9.1881">
        <ele>1834.33</ele>
        <time>2012-08-04T09:28:35Z</time>
      </trkpt>
      <trkpt lat="46.51909" lon="9.18788">
        <ele>1835.29</ele>
        <time>2012-08-04T09:28:36Z</time>
      </trkpt>
      <trkpt lat="46.51902" lon="9.18766">
        <ele>1836.26</ele>
        <time>2012-08-04T09:28:37Z</time>
      </trkpt>
      <trkpt lat="46.51896" lon="9.18745">
        <ele>1835.77</ele>
        <time>2012-08-04T09:28:38Z</time>
      </trkpt>
      <trkpt lat="46.5189" lon="9.18725">
        <ele>1835.77</ele>
        <time>2012-08-04T09:28:39Z</time>
      </trkpt>
      <trkpt lat="46.51883" lon="9.18709">
        <ele>1837.22</ele>
        <time>2012-08-04T09:28:40Z</time>
      </trkpt>
      <trkpt lat="46.51874" lon="9.18694">
        <ele>1837.7</ele>
        <time>2012-08-04T09:28:41Z</time>
      </trkpt>
      <trkpt lat="46.51864" lon="9.18682">
        <ele>1839.14</ele>
        <time>2012-08-04T09:28:42Z</time>
      </trkpt>
      <trkpt lat="46.51854" lon="9.18672">
        <ele>1838.66</ele>
        <time>2012-08-04T09:28:43Z</time>
      </trkpt>
      <trkpt lat="46.51845" lon="9.18662">
        <ele>1838.66</ele>
        <time>2012-08-04T09:28:44Z</time>
      </trkpt>
      <trkpt lat="46.51837" lon="9.1865">
        <ele>1838.66</ele>
        <time>2012-08-04T09:28:45Z</time>
      </trkpt>
      <trkpt lat="46.5183" lon="9.18636">
        <ele>1839.14</ele>
        <time>2012-08-04T09:28:46Z</time>
      </trkpt>
      <trkpt lat="46.51824" lon="9.18621">
        <ele>1840.58</ele>
        <time>2012-08-04T09:28:47Z</time>
      </trkpt>
      <trkpt lat="46.51819" lon="9.18606">
        <ele>1841.54</ele>
        <time>2012-08-04T09:28:48Z</time>
      </trkpt>
      <trkpt lat="46.51814" lon="9.18591">
        <ele>1842.02</ele>
        <time>2012-08-04T09:28:49Z</time>
      </trkpt>
      <trkpt lat="46.51807" lon="9.18576">
        <ele>1842.98</ele>
        <time>2012-08-04T09:28:50Z</time>
      </trkpt>
      <trkpt lat="46.51799" lon="9.18561">
        <ele>1844.43</ele>
        <time>2012-08-04T09:28:51Z</time>
      </trkpt>
      <trkpt lat="46.51772" lon="9.18518">
        <ele>1847.79</ele>
        <time>2012-08-04T09:28:54Z</time>
      </trkpt>
      <trkpt lat="46.51762" lon="9.18504">
        <ele>1847.79</ele>
        <time>2012-08-04T09:28:55Z</time>
      </trkpt>
      <trkpt lat="46.51733" lon="9.18464">
        <ele>1851.64</ele>
        <time>2012-08-04T09:28:58Z</time>
      </trkpt>
      <trkpt lat="46.51724" lon="9.18453">
        <ele>1851.64</ele>
        <time>2012-08-04T09:28:59Z</time>
      </trkpt>
      <trkpt lat="46.51714" lon="9.18444">
        <ele>1852.12</ele>
        <time>2012-08-04T09:29:00Z</time>
      </trkpt>
      <trkpt lat="46.51705" lon="9.18438">
        <ele>1853.08</ele>
        <time>2012-08-04T09:29:01Z</time>
      </trkpt>
      <trkpt lat="46.51696" lon="9.18433">
        <ele>1853.08</ele>
        <time>2012-08-04T09:29:02Z</time>
      </trkpt>
      <trkpt lat="46.51685" lon="9.18432">
        <ele>1854.04</ele>
        <time>2012-08-04T09:29:03Z</time>
      </trkpt>
      <trkpt lat="46.51675" lon="9.18433">
        <ele>1854.04</ele>
        <time>2012-08-04T09:29:04Z</time>
      </trkpt>
      <trkpt lat="46.51666" lon="9.18436">
        <ele>1854.52</ele>
        <time>2012-08-04T09:29:05Z</time>
      </trkpt>
      <trkpt lat="46.51656" lon="9.18438">
        <ele>1855.48</ele>
        <time>2012-08-04T09:29:06Z</time>
      </trkpt>
      <trkpt lat="46.51646" lon="9.18438">
        <ele>1856.44</ele>
        <time>2012-08-04T09:29:07Z</time>
      </trkpt>
      <trkpt lat="46.51636" lon="9.18435">
        <ele>1857.4</ele>
        <time>2012-08-04T09:29:08Z</time>
      </trkpt>
      <trkpt lat="46.51625" lon="9.18431">
        <ele>1857.89</ele>
        <time>2012-08-04T09:29:09Z</time>
      </trkpt>
      <trkpt lat="46.51614" lon="9.18425">
        <ele>1859.33</ele>
        <time>2012-08-04T09:29:10Z</time>
      </trkpt>
      <trkpt lat="46.51603" lon="9.18418">
        <ele>1859.81</ele>
        <time>2012-08-04T09:29:11Z</time>
      </trkpt>
      <trkpt lat="46.51593" lon="9.1841">
        <ele>1860.77</ele>
        <time>2012-08-04T09:29:12Z</time>
      </trkpt>
      <trkpt lat="46.51573" lon="9.18393">
        <ele>1862.21</ele>
        <time>2012-08-04T09:29:14Z</time>
      </trkpt>
      <trkpt lat="46.51562" lon="9.18388">
        <ele>1863.65</ele>
        <time>2012-08-04T09:29:15Z</time>
      </trkpt>
      <trkpt lat="46.5155" lon="9.18387">
        <ele>1864.13</ele>
        <time>2012-08-04T09:29:16Z</time>
      </trkpt>
      <trkpt lat="46.51539" lon="9.18388">
        <ele>1864.61</ele>
        <time>2012-08-04T09:29:17Z</time>
      </trkpt>
      <trkpt lat="46.51529" lon="9.18388">
        <ele>1865.09</ele>
        <time>2012-08-04T09:29:18Z</time>
      </trkpt>
      <trkpt lat="46.51519" lon="9.18388">
        <ele>1865.09</ele>
        <time>2012-08-04T09:29:19Z</time>
      </trkpt>
      <trkpt lat="46.51509" lon="9.18386">
        <ele>1866.06</ele>
        <time>2012-08-04T09:29:20Z</time>
      </trkpt>
      <trkpt lat="46.515" lon="9.18384">
        <ele>1867.02</ele>
        <time>2012-08-04T09:29:21Z</time>
      </trkpt>
      <trkpt lat="46.51492" lon="9.18378">
        <ele>1867.5</ele>
        <time>2012-08-04T09:29:22Z</time>
      </trkpt>
      <trkpt lat="46.51484" lon="9.18371">
        <ele>1867.98</ele>
        <time>2012-08-04T09:29:23Z</time>
      </trkpt>
      <trkpt lat="46.51479" lon="9.18363">
        <ele>1868.46</ele>
        <time>2012-08-04T09:29:24Z</time>
      </trkpt>
      <trkpt lat="46.51474" lon="9.18354">
        <ele>1868.94</ele>
        <time>2012-08-04T09:29:25Z</time>
      </trkpt>
      <trkpt lat="46.51472" lon="9.18343">
        <ele>1867.98</ele>
        <time>2012-08-04T09:29:26Z</time>
      </trkpt>
      <trkpt lat="46.51473" lon="9.18332">
        <ele>1868.46</ele>
        <time>2012-08-04T09:29:27Z</time>
      </trkpt>
      <trkpt lat="46.51479" lon="9.18319">
        <ele>1869.9</ele>
        <time>2012-08-04T09:29:28Z</time>
      </trkpt>
      <trkpt lat="46.51486" lon="9.18306">
        <ele>1871.82</ele>
        <time>2012-08-04T09:29:29Z</time>
      </trkpt>
      <trkpt lat="46.51496" lon="9.1829">
        <ele>1872.3</ele>
        <time>2012-08-04T09:29:30Z</time>
      </trkpt>
      <trkpt lat="46.51507" lon="9.18271">
        <ele>1873.75</ele>
        <time>2012-08-04T09:29:31Z</time>
      </trkpt>
      <trkpt lat="46.51532" lon="9.18223">
        <ele>1873.75</ele>
        <time>2012-08-04T09:29:35Z</time>
      </trkpt>
      <trkpt lat="46.51534" lon="9.18215">
        <ele>1873.75</ele>
        <time>2012-08-04T09:29:36Z</time>
      </trkpt>
      <trkpt lat="46.51533" lon="9.18209">
        <ele>1874.23</ele>
        <time>2012-08-04T09:29:37Z</time>
      </trkpt>
      <trkpt lat="46.51529" lon="9.18207">
        <ele>1874.23</ele>
        <time>2012-08-04T09:29:38Z</time>
      </trkpt>
      <trkpt lat="46.51524" lon="9.1821">
        <ele>1875.19</ele>
        <time>2012-08-04T09:29:39Z</time>
      </trkpt>
      <trkpt lat="46.51518" lon="9.18219">
        <ele>1878.07</ele>
        <time>2012-08-04T09:29:40Z</time>
      </trkpt>
      <trkpt lat="46.51509" lon="9.18232">
        <ele>1879.51</ele>
        <time>2012-08-04T09:29:41Z</time>
      </trkpt>
      <trkpt lat="46.51481" lon="9.18276">
        <ele>1883.84</ele>
        <time>2012-08-04T09:29:44Z</time>
      </trkpt>
      <trkpt lat="46.51473" lon="9.18288">
        <ele>1883.84</ele>
        <time>2012-08-04T09:29:45Z</time>
      </trkpt>
      <trkpt lat="46.51466" lon="9.18297">
        <ele>1883.36</ele>
        <time>2012-08-04T09:29:46Z</time>
      </trkpt>
      <trkpt lat="46.5146" lon="9.18302">
        <ele>1883.36</ele>
        <time>2012-08-04T09:29:47Z</time>
      </trkpt>
      <trkpt lat="46.51453" lon="9.18303">
        <ele>1884.32</ele>
        <time>2012-08-04T09:29:48Z</time>
      </trkpt>
      <trkpt lat="46.51446" lon="9.18298">
        <ele>1885.28</ele>
        <time>2012-08-04T09:29:49Z</time>
      </trkpt>
      <trkpt lat="46.51439" lon="9.18291">
        <ele>1886.24</ele>
        <time>2012-08-04T09:29:50Z</time>
      </trkpt>
      <trkpt lat="46.51428" lon="9.18277">
        <ele>1889.61</ele>
        <time>2012-08-04T09:29:51Z</time>
      </trkpt>
      <trkpt lat="46.51424" lon="9.18271">
        <ele>1890.57</ele>
        <time>2012-08-04T09:29:52Z</time>
      </trkpt>
      <trkpt lat="46.51388" lon="9.18228">
        <ele>1894.42</ele>
        <time>2012-08-04T09:29:56Z</time>
      </trkpt>
      <trkpt lat="46.51375" lon="9.18213">
        <ele>1895.86</ele>
        <time>2012-08-04T09:29:57Z</time>
      </trkpt>
      <trkpt lat="46.51354" lon="9.18189">
        <ele>1898.26</ele>
        <time>2012-08-04T09:29:59Z</time>
      </trkpt>
      <trkpt lat="46.51332" lon="9.1817">
        <ele>1897.78</ele>
        <time>2012-08-04T09:30:01Z</time>
      </trkpt>
      <trkpt lat="46.5132" lon="9.18165">
        <ele>1897.78</ele>
        <time>2012-08-04T09:30:02Z</time>
      </trkpt>
      <trkpt lat="46.51308" lon="9.18164">
        <ele>1899.22</ele>
        <time>2012-08-04T09:30:03Z</time>
      </trkpt>
      <trkpt lat="46.51297" lon="9.18163">
        <ele>1901.14</ele>
        <time>2012-08-04T09:30:04Z</time>
      </trkpt>
      <trkpt lat="46.51231" lon="9.18156">
        <ele>1904.99</ele>
        <time>2012-08-04T09:30:09Z</time>
      </trkpt>
      <trkpt lat="46.51189" lon="9.1815">
        <ele>1907.39</ele>
        <time>2012-08-04T09:30:12Z</time>
      </trkpt>
      <trkpt lat="46.51149" lon="9.18139">
        <ele>1908.35</ele>
        <time>2012-08-04T09:30:15Z</time>
      </trkpt>
      <trkpt lat="46.51137" lon="9.18131">
        <ele>1908.35</ele>
        <time>2012-08-04T09:30:16Z</time>
      </trkpt>
      <trkpt lat="46.511" lon="9.18105">
        <ele>1911.24</ele>
        <time>2012-08-04T09:30:19Z</time>
      </trkpt>
      <trkpt lat="46.51087" lon="9.18097">
        <ele>1911.72</ele>
        <time>2012-08-04T09:30:20Z</time>
      </trkpt>
      <trkpt lat="46.5103" lon="9.18066">
        <ele>1917.01</ele>
        <time>2012-08-04T09:30:24Z</time>
      </trkpt>
      <trkpt lat="46.51015" lon="9.18059">
        <ele>1916.53</ele>
        <time>2012-08-04T09:30:25Z</time>
      </trkpt>
      <trkpt lat="46.50984" lon="9.18044">
        <ele>1915.56</ele>
        <time>2012-08-04T09:30:28Z</time>
      </trkpt>
      <trkpt lat="46.5098" lon="9.18038">
        <ele>1915.08</ele>
        <time>2012-08-04T09:30:29Z</time>
      </trkpt>
      <trkpt lat="46.50979" lon="9.18032">
        <ele>1915.08</ele>
        <time>2012-08-04T09:30:30Z</time>
      </trkpt>
      <trkpt lat="46.50981" lon="9.18027">
        <ele>1915.08</ele>
        <time>2012-08-04T09:30:31Z</time>
      </trkpt>
      <trkpt lat="46.50985" lon="9.18024">
        <ele>1916.04</ele>
        <time>2012-08-04T09:30:32Z</time>
      </trkpt>
      <trkpt lat="46.50989" lon="9.18021">
        <ele>1916.53</ele>
        <time>2012-08-04T09:30:33Z</time>
      </trkpt>
      <trkpt lat="46.50996" lon="9.18013">
        <ele>1917.01</ele>
        <time>2012-08-04T09:30:34Z</time>
      </trkpt>
      <trkpt lat="46.50997" lon="9.18007">
        <ele>1917.49</ele>
        <time>2012-08-04T09:30:35Z</time>
      </trkpt>
      <trkpt lat="46.50998" lon="9.18003">
        <ele>1918.45</ele>
        <time>2012-08-04T09:30:36Z</time>
      </trkpt>
      <trkpt lat="46.50997" lon="9.17997">
        <ele>1920.37</ele>
        <time>2012-08-04T09:30:37Z</time>
      </trkpt>
      <trkpt lat="46.5099" lon="9.17994">
        <ele>1923.25</ele>
        <time>2012-08-04T09:30:38Z</time>
      </trkpt>
      <trkpt lat="46.50949" lon="9.18">
        <ele>1925.66</ele>
        <time>2012-08-04T09:30:41Z</time>
      </trkpt>
      <trkpt lat="46.50935" lon="9.18002">
        <ele>1926.62</ele>
        <time>2012-08-04T09:30:42Z</time>
      </trkpt>
      <trkpt lat="46.50922" lon="9.18001">
        <ele>1927.1</ele>
        <time>2012-08-04T09:30:43Z</time>
      </trkpt>
      <trkpt lat="46.50912" lon="9.17998">
        <ele>1928.54</ele>
        <time>2012-08-04T09:30:44Z</time>
      </trkpt>
      <trkpt lat="46.50901" lon="9.17991">
        <ele>1927.1</ele>
        <time>2012-08-04T09:30:45Z</time>
      </trkpt>
      <trkpt lat="46.50889" lon="9.17986">
        <ele>1925.66</ele>
        <time>2012-08-04T09:30:47Z</time>
      </trkpt>
      <trkpt lat="46.50887" lon="9.17983">
        <ele>1925.66</ele>
        <time>2012-08-04T09:30:48Z</time>
      </trkpt>
      <trkpt lat="46.50891" lon="9.17977">
        <ele>1926.62</ele>
        <time>2012-08-04T09:30:50Z</time>
      </trkpt>
      <trkpt lat="46.50899" lon="9.17983">
        <ele>1927.58</ele>
        <time>2012-08-04T09:30:52Z</time>
      </trkpt>
      <trkpt lat="46.50906" lon="9.17987">
        <ele>1928.06</ele>
        <time>2012-08-04T09:30:53Z</time>
      </trkpt>
      <trkpt lat="46.50916" lon="9.17985">
        <ele>1928.54</ele>
        <time>2012-08-04T09:30:54Z</time>
      </trkpt>
      <trkpt lat="46.5092" lon="9.17982">
        <ele>1930.46</ele>
        <time>2012-08-04T09:30:55Z</time>
      </trkpt>
      <trkpt lat="46.50922" lon="9.17975">
        <ele>1930.46</ele>
        <time>2012-08-04T09:30:56Z</time>
      </trkpt>
      <trkpt lat="46.50918" lon="9.17964">
        <ele>1932.39</ele>
        <time>2012-08-04T09:30:58Z</time>
      </trkpt>
      <trkpt lat="46.50909" lon="9.17961">
        <ele>1933.83</ele>
        <time>2012-08-04T09:30:59Z</time>
      </trkpt>
      <trkpt lat="46.50895" lon="9.17957">
        <ele>1936.23</ele>
        <time>2012-08-04T09:31:00Z</time>
      </trkpt>
      <trkpt lat="46.5088" lon="9.17951">
        <ele>1936.71</ele>
        <time>2012-08-04T09:31:01Z</time>
      </trkpt>
      <trkpt lat="46.50861" lon="9.1795">
        <ele>1939.12</ele>
        <time>2012-08-04T09:31:02Z</time>
      </trkpt>
      <trkpt lat="46.50845" lon="9.1795">
        <ele>1938.64</ele>
        <time>2012-08-04T09:31:03Z</time>
      </trkpt>
      <trkpt lat="46.5083" lon="9.17946">
        <ele>1939.12</ele>
        <time>2012-08-04T09:31:04Z</time>
      </trkpt>
      <trkpt lat="46.50817" lon="9.1794">
        <ele>1939.12</ele>
        <time>2012-08-04T09:31:05Z</time>
      </trkpt>
      <trkpt lat="46.50803" lon="9.17937">
        <ele>1939.6</ele>
        <time>2012-08-04T09:31:06Z</time>
      </trkpt>
      <trkpt lat="46.50789" lon="9.17939">
        <ele>1941.52</ele>
        <time>2012-08-04T09:31:07Z</time>
      </trkpt>
      <trkpt lat="46.50775" lon="9.17946">
        <ele>1942.96</ele>
        <time>2012-08-04T09:31:08Z</time>
      </trkpt>
      <trkpt lat="46.50764" lon="9.17958">
        <ele>1943.44</ele>
        <time>2012-08-04T09:31:09Z</time>
      </trkpt>
      <trkpt lat="46.50756" lon="9.1797">
        <ele>1942.96</ele>
        <time>2012-08-04T09:31:10Z</time>
      </trkpt>
      <trkpt lat="46.50752" lon="9.17981">
        <ele>1941.52</ele>
        <time>2012-08-04T09:31:11Z</time>
      </trkpt>
      <trkpt lat="46.50748" lon="9.17989">
        <ele>1942</ele>
        <time>2012-08-04T09:31:12Z</time>
      </trkpt>
      <trkpt lat="46.50743" lon="9.17992">
        <ele>1942</ele>
        <time>2012-08-04T09:31:13Z</time>
      </trkpt>
      <trkpt lat="46.50738" lon="9.17988">
        <ele>1942</ele>
        <time>2012-08-04T09:31:14Z</time>
      </trkpt>
      <trkpt lat="46.50736" lon="9.17981">
        <ele>1942</ele>
        <time>2012-08-04T09:31:15Z</time>
      </trkpt>
      <trkpt lat="46.50737" lon="9.17971">
        <ele>1942.48</ele>
        <time>2012-08-04T09:31:16Z</time>
      </trkpt>
      <trkpt lat="46.50743" lon="9.17961">
        <ele>1943.44</ele>
        <time>2012-08-04T09:31:17Z</time>
      </trkpt>
      <trkpt lat="46.50748" lon="9.17952">
        <ele>1943.92</ele>
        <time>2012-08-04T09:31:18Z</time>
      </trkpt>
      <trkpt lat="46.5075" lon="9.17943">
        <ele>1943.92</ele>
        <time>2012-08-04T09:31:19Z</time>
      </trkpt>
      <trkpt lat="46.50751" lon="9.17934">
        <ele>1943.92</ele>
        <time>2012-08-04T09:31:20Z</time>
      </trkpt>
      <trkpt lat="46.50751" lon="9.17927">
        <ele>1945.85</ele>
        <time>2012-08-04T09:31:21Z</time>
      </trkpt>
      <trkpt lat="46.50747" lon="9.17927">
        <ele>1946.33</ele>
        <time>2012-08-04T09:31:22Z</time>
      </trkpt>
      <trkpt lat="46.50743" lon="9.17926">
        <ele>1946.81</ele>
        <time>2012-08-04T09:31:23Z</time>
      </trkpt>
      <trkpt lat="46.50736" lon="9.17929">
        <ele>1946.81</ele>
        <time>2012-08-04T09:31:24Z</time>
      </trkpt>
      <trkpt lat="46.50731" lon="9.17931">
        <ele>1946.81</ele>
        <time>2012-08-04T09:31:25Z</time>
      </trkpt>
      <trkpt lat="46.50726" lon="9.17936">
        <ele>1946.81</ele>
        <time>2012-08-04T09:31:26Z</time>
      </trkpt>
      <trkpt lat="46.50725" lon="9.1794">
        <ele>1946.81</ele>
        <time>2012-08-04T09:31:27Z</time>
      </trkpt>
      <trkpt lat="46.50724" lon="9.17948">
        <ele>1946.33</ele>
        <time>2012-08-04T09:31:29Z</time>
      </trkpt>
      <trkpt lat="46.50721" lon="9.17957">
        <ele>1946.33</ele>
        <time>2012-08-04T09:31:38Z</time>
      </trkpt>
      <trkpt lat="46.50724" lon="9.17948">
        <ele>1948.73</ele>
        <time>2012-08-04T09:33:14Z</time>
      </trkpt>
      <trkpt lat="46.50717" lon="9.1794">
        <ele>1951.13</ele>
        <time>2012-08-04T09:33:17Z</time>
      </trkpt>
      <trkpt lat="46.50706" lon="9.1792">
        <ele>1953.54</ele>
        <time>2012-08-04T09:33:21Z</time>
      </trkpt>
      <trkpt lat="46.50699" lon="9.1791">
        <ele>1953.54</ele>
        <time>2012-08-04T09:33:24Z</time>
      </trkpt>
      <trkpt lat="46.5066" lon="9.17928">
        <ele>1956.42</ele>
        <time>2012-08-04T09:33:30Z</time>
      </trkpt>
      <trkpt lat="46.50661" lon="9.17928">
        <ele>1957.38</ele>
        <time>2012-08-04T09:33:31Z</time>
      </trkpt>
      <trkpt lat="46.50667" lon="9.17926">
        <ele>1958.82</ele>
        <time>2012-08-04T09:33:32Z</time>
      </trkpt>
      <trkpt lat="46.50674" lon="9.17925">
        <ele>1959.78</ele>
        <time>2012-08-04T09:33:33Z</time>
      </trkpt>
      <trkpt lat="46.50682" lon="9.17923">
        <ele>1961.23</ele>
        <time>2012-08-04T09:33:34Z</time>
      </trkpt>
      <trkpt lat="46.50688" lon="9.17921">
        <ele>1961.23</ele>
        <time>2012-08-04T09:33:35Z</time>
      </trkpt>
      <trkpt lat="46.50691" lon="9.17917">
        <ele>1962.67</ele>
        <time>2012-08-04T09:33:36Z</time>
      </trkpt>
      <trkpt lat="46.50693" lon="9.1791">
        <ele>1963.15</ele>
        <time>2012-08-04T09:33:37Z</time>
      </trkpt>
      <trkpt lat="46.5069" lon="9.17905">
        <ele>1964.11</ele>
        <time>2012-08-04T09:33:38Z</time>
      </trkpt>
      <trkpt lat="46.50684" lon="9.17901">
        <ele>1966.03</ele>
        <time>2012-08-04T09:33:39Z</time>
      </trkpt>
      <trkpt lat="46.50676" lon="9.17897">
        <ele>1967.48</ele>
        <time>2012-08-04T09:33:40Z</time>
      </trkpt>
      <trkpt lat="46.50664" lon="9.17894">
        <ele>1968.92</ele>
        <time>2012-08-04T09:33:41Z</time>
      </trkpt>
      <trkpt lat="46.50649" lon="9.17893">
        <ele>1970.36</ele>
        <time>2012-08-04T09:33:42Z</time>
      </trkpt>
      <trkpt lat="46.50621" lon="9.17895">
        <ele>1971.8</ele>
        <time>2012-08-04T09:33:44Z</time>
      </trkpt>
      <trkpt lat="46.50608" lon="9.17893">
        <ele>1973.24</ele>
        <time>2012-08-04T09:33:45Z</time>
      </trkpt>
      <trkpt lat="46.50594" lon="9.17889">
        <ele>1973.72</ele>
        <time>2012-08-04T09:33:46Z</time>
      </trkpt>
      <trkpt lat="46.5058" lon="9.17882">
        <ele>1974.69</ele>
        <time>2012-08-04T09:33:47Z</time>
      </trkpt>
      <trkpt lat="46.50567" lon="9.17872">
        <ele>1976.13</ele>
        <time>2012-08-04T09:33:48Z</time>
      </trkpt>
      <trkpt lat="46.50552" lon="9.17865">
        <ele>1976.13</ele>
        <time>2012-08-04T09:33:49Z</time>
      </trkpt>
      <trkpt lat="46.50537" lon="9.17862">
        <ele>1977.09</ele>
        <time>2012-08-04T09:33:50Z</time>
      </trkpt>
      <trkpt lat="46.50522" lon="9.17861">
        <ele>1978.53</ele>
        <time>2012-08-04T09:33:51Z</time>
      </trkpt>
      <trkpt lat="46.50507" lon="9.17862">
        <ele>1978.53</ele>
        <time>2012-08-04T09:33:52Z</time>
      </trkpt>
      <trkpt lat="46.50491" lon="9.17866">
        <ele>1979.97</ele>
        <time>2012-08-04T09:33:53Z</time>
      </trkpt>
      <trkpt lat="46.50475" lon="9.17871">
        <ele>1981.41</ele>
        <time>2012-08-04T09:33:54Z</time>
      </trkpt>
      <trkpt lat="46.50445" lon="9.17879">
        <ele>1981.9</ele>
        <time>2012-08-04T09:33:56Z</time>
      </trkpt>
      <trkpt lat="46.5043" lon="9.17878">
        <ele>1984.3</ele>
        <time>2012-08-04T09:33:57Z</time>
      </trkpt>
      <trkpt lat="46.50414" lon="9.17875">
        <ele>1986.7</ele>
        <time>2012-08-04T09:33:58Z</time>
      </trkpt>
      <trkpt lat="46.50397" lon="9.17871">
        <ele>1987.66</ele>
        <time>2012-08-04T09:33:59Z</time>
      </trkpt>
      <trkpt lat="46.5038" lon="9.1787">
        <ele>1989.1</ele>
        <time>2012-08-04T09:34:00Z</time>
      </trkpt>
      <trkpt lat="46.50363" lon="9.17869">
        <ele>1988.14</ele>
        <time>2012-08-04T09:34:01Z</time>
      </trkpt>
      <trkpt lat="46.50347" lon="9.17866">
        <ele>1987.66</ele>
        <time>2012-08-04T09:34:02Z</time>
      </trkpt>
      <trkpt lat="46.50331" lon="9.1786">
        <ele>1989.59</ele>
        <time>2012-08-04T09:34:03Z</time>
      </trkpt>
      <trkpt lat="46.50316" lon="9.1785">
        <ele>1990.55</ele>
        <time>2012-08-04T09:34:04Z</time>
      </trkpt>
      <trkpt lat="46.50302" lon="9.17836">
        <ele>1991.99</ele>
        <time>2012-08-04T09:34:05Z</time>
      </trkpt>
      <trkpt lat="46.5029" lon="9.17821">
        <ele>1992.47</ele>
        <time>2012-08-04T09:34:06Z</time>
      </trkpt>
      <trkpt lat="46.50277" lon="9.17807">
        <ele>1993.91</ele>
        <time>2012-08-04T09:34:07Z</time>
      </trkpt>
      <trkpt lat="46.50262" lon="9.17797">
        <ele>1995.35</ele>
        <time>2012-08-04T09:34:08Z</time>
      </trkpt>
      <trkpt lat="46.50246" lon="9.17788">
        <ele>1998.24</ele>
        <time>2012-08-04T09:34:09Z</time>
      </trkpt>
      <trkpt lat="46.50191" lon="9.17767">
        <ele>2002.08</ele>
        <time>2012-08-04T09:34:12Z</time>
      </trkpt>
      <trkpt lat="46.50153" lon="9.17753">
        <ele>2005.93</ele>
        <time>2012-08-04T09:34:14Z</time>
      </trkpt>
      <trkpt lat="46.50114" lon="9.17733">
        <ele>2009.29</ele>
        <time>2012-08-04T09:34:16Z</time>
      </trkpt>
      <trkpt lat="46.50076" lon="9.17707">
        <ele>2013.62</ele>
        <time>2012-08-04T09:34:18Z</time>
      </trkpt>
      <trkpt lat="46.50058" lon="9.1769">
        <ele>2017.46</ele>
        <time>2012-08-04T09:34:19Z</time>
      </trkpt>
      <trkpt lat="46.4998" lon="9.17623">
        <ele>2015.54</ele>
        <time>2012-08-04T09:34:24Z</time>
      </trkpt>
      <trkpt lat="46.49971" lon="9.17616">
        <ele>2016.02</ele>
        <time>2012-08-04T09:34:25Z</time>
      </trkpt>
      <trkpt lat="46.49954" lon="9.17604">
        <ele>2014.1</ele>
        <time>2012-08-04T09:34:30Z</time>
      </trkpt>
      <trkpt lat="46.49956" lon="9.17604">
        <ele>2014.1</ele>
        <time>2012-08-04T09:34:52Z</time>
      </trkpt>
      <trkpt lat="46.49604" lon="9.17057">
        <ele>2050.63</ele>
        <time>2012-08-04T09:58:01Z</time>
      </trkpt>
      <trkpt lat="46.49604" lon="9.17057">
        <ele>2050.63</ele>
        <time>2012-08-04T09:58:02Z</time>
      </trkpt>
      <trkpt lat="46.49594" lon="9.17043">
        <ele>2053.03</ele>
        <time>2012-08-04T09:58:13Z</time>
      </trkpt>
      <trkpt lat="46.49589" lon="9.17042">
        <ele>2055.92</ele>
        <time>2012-08-04T09:58:20Z</time>
      </trkpt>
      <trkpt lat="46.49589" lon="9.17042">
        <ele>2055.92</ele>
        <time>2012-08-04T09:58:21Z</time>
      </trkpt>
      <trkpt lat="46.49588" lon="9.17047">
        <ele>2059.28</ele>
        <time>2012-08-04T09:58:30Z</time>
      </trkpt>
      <trkpt lat="46.49587" lon="9.17047">
        <ele>2062.17</ele>
        <time>2012-08-04T09:58:41Z</time>
      </trkpt>
      <trkpt lat="46.49588" lon="9.17048">
        <ele>2065.53</ele>
        <time>2012-08-04T09:59:05Z</time>
      </trkpt>
      <trkpt lat="46.49586" lon="9.17047">
        <ele>2066.01</ele>
        <time>2012-08-04T09:59:29Z</time>
      </trkpt>
      <trkpt lat="46.4958" lon="9.1704">
        <ele>2066.01</ele>
        <time>2012-08-04T09:59:32Z</time>
      </trkpt>
      <trkpt lat="46.4957" lon="9.1702">
        <ele>2066.97</ele>
        <time>2012-08-04T09:59:36Z</time>
      </trkpt>
      <trkpt lat="46.49522" lon="9.16945">
        <ele>2066.97</ele>
        <time>2012-08-04T09:59:46Z</time>
      </trkpt>
      <trkpt lat="46.49508" lon="9.16928">
        <ele>2066.97</ele>
        <time>2012-08-04T09:59:48Z</time>
      </trkpt>
      <trkpt lat="46.495" lon="9.16922">
        <ele>2067.45</ele>
        <time>2012-08-04T09:59:49Z</time>
      </trkpt>
      <trkpt lat="46.49492" lon="9.16917">
        <ele>2067.45</ele>
        <time>2012-08-04T09:59:50Z</time>
      </trkpt>
      <trkpt lat="46.49483" lon="9.16915">
        <ele>2067.93</ele>
        <time>2012-08-04T09:59:51Z</time>
      </trkpt>
      <trkpt lat="46.49473" lon="9.16914">
        <ele>2067.93</ele>
        <time>2012-08-04T09:59:52Z</time>
      </trkpt>
      <trkpt lat="46.49464" lon="9.16914">
        <ele>2068.41</ele>
        <time>2012-08-04T09:59:53Z</time>
      </trkpt>
      <trkpt lat="46.49454" lon="9.16917">
        <ele>2068.41</ele>
        <time>2012-08-04T09:59:54Z</time>
      </trkpt>
      <trkpt lat="46.49444" lon="9.1692">
        <ele>2068.89</ele>
        <time>2012-08-04T09:59:55Z</time>
      </trkpt>
      <trkpt lat="46.49433" lon="9.16925">
        <ele>2068.89</ele>
        <time>2012-08-04T09:59:56Z</time>
      </trkpt>
      <trkpt lat="46.49363" lon="9.16956">
        <ele>2067.93</ele>
        <time>2012-08-04T10:00:03Z</time>
      </trkpt>
      <trkpt lat="46.49354" lon="9.16956">
        <ele>2068.41</ele>
        <time>2012-08-04T10:00:04Z</time>
      </trkpt>
      <trkpt lat="46.49345" lon="9.16955">
        <ele>2068.41</ele>
        <time>2012-08-04T10:00:05Z</time>
      </trkpt>
      <trkpt lat="46.49303" lon="9.16949">
        <ele>2068.41</ele>
        <time>2012-08-04T10:00:09Z</time>
      </trkpt>
      <trkpt lat="46.49293" lon="9.16951">
        <ele>2068.41</ele>
        <time>2012-08-04T10:00:10Z</time>
      </trkpt>
      <trkpt lat="46.49283" lon="9.16955">
        <ele>2068.41</ele>
        <time>2012-08-04T10:00:11Z</time>
      </trkpt>
      <trkpt lat="46.49274" lon="9.16963">
        <ele>2068.41</ele>
        <time>2012-08-04T10:00:12Z</time>
      </trkpt>
      <trkpt lat="46.49266" lon="9.16971">
        <ele>2068.89</ele>
        <time>2012-08-04T10:00:13Z</time>
      </trkpt>
      <trkpt lat="46.49201" lon="9.17037">
        <ele>2068.89</ele>
        <time>2012-08-04T10:00:20Z</time>
      </trkpt>
      <trkpt lat="46.49192" lon="9.17043">
        <ele>2070.34</ele>
        <time>2012-08-04T10:00:21Z</time>
      </trkpt>
      <trkpt lat="46.49182" lon="9.17048">
        <ele>2069.86</ele>
        <time>2012-08-04T10:00:22Z</time>
      </trkpt>
      <trkpt lat="46.49072" lon="9.17067">
        <ele>2072.26</ele>
        <time>2012-08-04T10:00:30Z</time>
      </trkpt>
      <trkpt lat="46.48993" lon="9.1708">
        <ele>2068.89</ele>
        <time>2012-08-04T10:00:35Z</time>
      </trkpt>
      <trkpt lat="46.48977" lon="9.17083">
        <ele>2068.89</ele>
        <time>2012-08-04T10:00:36Z</time>
      </trkpt>
      <trkpt lat="46.48875" lon="9.17103">
        <ele>2066.01</ele>
        <time>2012-08-04T10:00:42Z</time>
      </trkpt>
      <trkpt lat="46.48847" lon="9.17107">
        <ele>2064.57</ele>
        <time>2012-08-04T10:00:44Z</time>
      </trkpt>
      <trkpt lat="46.48822" lon="9.1711">
        <ele>2061.68</ele>
        <time>2012-08-04T10:00:46Z</time>
      </trkpt>
      <trkpt lat="46.48799" lon="9.17108">
        <ele>2059.28</ele>
        <time>2012-08-04T10:00:48Z</time>
      </trkpt>
      <trkpt lat="46.48788" lon="9.17104">
        <ele>2056.88</ele>
        <time>2012-08-04T10:00:49Z</time>
      </trkpt>
      <trkpt lat="46.48776" lon="9.17098">
        <ele>2055.44</ele>
        <time>2012-08-04T10:00:50Z</time>
      </trkpt>
      <trkpt lat="46.48766" lon="9.17088">
        <ele>2053.03</ele>
        <time>2012-08-04T10:00:51Z</time>
      </trkpt>
      <trkpt lat="46.48759" lon="9.17077">
        <ele>2051.59</ele>
        <time>2012-08-04T10:00:52Z</time>
      </trkpt>
      <trkpt lat="46.48754" lon="9.17066">
        <ele>2050.15</ele>
        <time>2012-08-04T10:00:53Z</time>
      </trkpt>
      <trkpt lat="46.4875" lon="9.17055">
        <ele>2049.19</ele>
        <time>2012-08-04T10:00:54Z</time>
      </trkpt>
      <trkpt lat="46.48747" lon="9.17043">
        <ele>2049.19</ele>
        <time>2012-08-04T10:00:55Z</time>
      </trkpt>
      <trkpt lat="46.48744" lon="9.17028">
        <ele>2049.19</ele>
        <time>2012-08-04T10:00:56Z</time>
      </trkpt>
      <trkpt lat="46.48744" lon="9.17011">
        <ele>2049.19</ele>
        <time>2012-08-04T10:00:57Z</time>
      </trkpt>
      <trkpt lat="46.48744" lon="9.16992">
        <ele>2049.19</ele>
        <time>2012-08-04T10:00:58Z</time>
      </trkpt>
      <trkpt lat="46.48746" lon="9.16975">
        <ele>2048.23</ele>
        <time>2012-08-04T10:00:59Z</time>
      </trkpt>
      <trkpt lat="46.4875" lon="9.16945">
        <ele>2045.82</ele>
        <time>2012-08-04T10:01:01Z</time>
      </trkpt>
      <trkpt lat="46.48756" lon="9.16931">
        <ele>2044.38</ele>
        <time>2012-08-04T10:01:02Z</time>
      </trkpt>
      <trkpt lat="46.48768" lon="9.16907">
        <ele>2040.54</ele>
        <time>2012-08-04T10:01:04Z</time>
      </trkpt>
      <trkpt lat="46.4877" lon="9.16896">
        <ele>2040.05</ele>
        <time>2012-08-04T10:01:05Z</time>
      </trkpt>
      <trkpt lat="46.48768" lon="9.16884">
        <ele>2039.57</ele>
        <time>2012-08-04T10:01:06Z</time>
      </trkpt>
      <trkpt lat="46.48763" lon="9.16871">
        <ele>2039.09</ele>
        <time>2012-08-04T10:01:07Z</time>
      </trkpt>
      <trkpt lat="46.48756" lon="9.16859">
        <ele>2039.57</ele>
        <time>2012-08-04T10:01:08Z</time>
      </trkpt>
      <trkpt lat="46.48745" lon="9.16849">
        <ele>2039.09</ele>
        <time>2012-08-04T10:01:09Z</time>
      </trkpt>
      <trkpt lat="46.48733" lon="9.16843">
        <ele>2038.61</ele>
        <time>2012-08-04T10:01:10Z</time>
      </trkpt>
      <trkpt lat="46.48719" lon="9.1684">
        <ele>2038.13</ele>
        <time>2012-08-04T10:01:11Z</time>
      </trkpt>
      <trkpt lat="46.48707" lon="9.16841">
        <ele>2036.69</ele>
        <time>2012-08-04T10:01:12Z</time>
      </trkpt>
      <trkpt lat="46.48697" lon="9.1684">
        <ele>2034.77</ele>
        <time>2012-08-04T10:01:13Z</time>
      </trkpt>
      <trkpt lat="46.48688" lon="9.16836">
        <ele>2033.81</ele>
        <time>2012-08-04T10:01:14Z</time>
      </trkpt>
      <trkpt lat="46.4868" lon="9.16829">
        <ele>2032.84</ele>
        <time>2012-08-04T10:01:15Z</time>
      </trkpt>
      <trkpt lat="46.48672" lon="9.16826">
        <ele>2031.88</ele>
        <time>2012-08-04T10:01:16Z</time>
      </trkpt>
      <trkpt lat="46.48665" lon="9.16826">
        <ele>2030.92</ele>
        <time>2012-08-04T10:01:17Z</time>
      </trkpt>
      <trkpt lat="46.48658" lon="9.1683">
        <ele>2029.96</ele>
        <time>2012-08-04T10:01:18Z</time>
      </trkpt>
      <trkpt lat="46.48653" lon="9.16839">
        <ele>2029.96</ele>
        <time>2012-08-04T10:01:19Z</time>
      </trkpt>
      <trkpt lat="46.48648" lon="9.16851">
        <ele>2029</ele>
        <time>2012-08-04T10:01:20Z</time>
      </trkpt>
      <trkpt lat="46.48644" lon="9.16864">
        <ele>2029</ele>
        <time>2012-08-04T10:01:21Z</time>
      </trkpt>
      <trkpt lat="46.4864" lon="9.16879">
        <ele>2028.52</ele>
        <time>2012-08-04T10:01:22Z</time>
      </trkpt>
      <trkpt lat="46.48638" lon="9.16893">
        <ele>2027.56</ele>
        <time>2012-08-04T10:01:23Z</time>
      </trkpt>
      <trkpt lat="46.48639" lon="9.16908">
        <ele>2027.56</ele>
        <time>2012-08-04T10:01:24Z</time>
      </trkpt>
      <trkpt lat="46.4864" lon="9.16922">
        <ele>2027.08</ele>
        <time>2012-08-04T10:01:25Z</time>
      </trkpt>
      <trkpt lat="46.48642" lon="9.16938">
        <ele>2027.08</ele>
        <time>2012-08-04T10:01:26Z</time>
      </trkpt>
      <trkpt lat="46.48643" lon="9.16955">
        <ele>2026.6</ele>
        <time>2012-08-04T10:01:27Z</time>
      </trkpt>
      <trkpt lat="46.48642" lon="9.1697">
        <ele>2025.64</ele>
        <time>2012-08-04T10:01:28Z</time>
      </trkpt>
      <trkpt lat="46.48641" lon="9.16985">
        <ele>2025.64</ele>
        <time>2012-08-04T10:01:29Z</time>
      </trkpt>
      <trkpt lat="46.48637" lon="9.17">
        <ele>2024.67</ele>
        <time>2012-08-04T10:01:30Z</time>
      </trkpt>
      <trkpt lat="46.48631" lon="9.17015">
        <ele>2025.15</ele>
        <time>2012-08-04T10:01:31Z</time>
      </trkpt>
      <trkpt lat="46.48623" lon="9.17029">
        <ele>2024.67</ele>
        <time>2012-08-04T10:01:32Z</time>
      </trkpt>
      <trkpt lat="46.48615" lon="9.17044">
        <ele>2023.71</ele>
        <time>2012-08-04T10:01:33Z</time>
      </trkpt>
      <trkpt lat="46.48605" lon="9.17057">
        <ele>2023.23</ele>
        <time>2012-08-04T10:01:34Z</time>
      </trkpt>
      <trkpt lat="46.48595" lon="9.17068">
        <ele>2022.27</ele>
        <time>2012-08-04T10:01:35Z</time>
      </trkpt>
      <trkpt lat="46.48585" lon="9.17078">
        <ele>2020.35</ele>
        <time>2012-08-04T10:01:36Z</time>
      </trkpt>
      <trkpt lat="46.48569" lon="9.17098">
        <ele>2016.5</ele>
        <time>2012-08-04T10:01:38Z</time>
      </trkpt>
      <trkpt lat="46.48557" lon="9.17112">
        <ele>2013.62</ele>
        <time>2012-08-04T10:01:40Z</time>
      </trkpt>
      <trkpt lat="46.48551" lon="9.17115">
        <ele>2012.66</ele>
        <time>2012-08-04T10:01:41Z</time>
      </trkpt>
      <trkpt lat="46.48546" lon="9.17111">
        <ele>2012.18</ele>
        <time>2012-08-04T10:01:42Z</time>
      </trkpt>
      <trkpt lat="46.48542" lon="9.17101">
        <ele>2012.18</ele>
        <time>2012-08-04T10:01:43Z</time>
      </trkpt>
      <trkpt lat="46.48538" lon="9.17087">
        <ele>2012.18</ele>
        <time>2012-08-04T10:01:44Z</time>
      </trkpt>
      <trkpt lat="46.48535" lon="9.17073">
        <ele>2011.22</ele>
        <time>2012-08-04T10:01:45Z</time>
      </trkpt>
      <trkpt lat="46.48531" lon="9.17061">
        <ele>2009.77</ele>
        <time>2012-08-04T10:01:46Z</time>
      </trkpt>
      <trkpt lat="46.48526" lon="9.1705">
        <ele>2008.33</ele>
        <time>2012-08-04T10:01:47Z</time>
      </trkpt>
      <trkpt lat="46.48521" lon="9.17043">
        <ele>2007.85</ele>
        <time>2012-08-04T10:01:48Z</time>
      </trkpt>
      <trkpt lat="46.48516" lon="9.17041">
        <ele>2007.37</ele>
        <time>2012-08-04T10:01:49Z</time>
      </trkpt>
      <trkpt lat="46.48512" lon="9.17044">
        <ele>2006.89</ele>
        <time>2012-08-04T10:01:50Z</time>
      </trkpt>
      <trkpt lat="46.48509" lon="9.1705">
        <ele>2006.89</ele>
        <time>2012-08-04T10:01:51Z</time>
      </trkpt>
      <trkpt lat="46.48509" lon="9.17059">
        <ele>2006.41</ele>
        <time>2012-08-04T10:01:52Z</time>
      </trkpt>
      <trkpt lat="46.4851" lon="9.1707">
        <ele>2005.93</ele>
        <time>2012-08-04T10:01:53Z</time>
      </trkpt>
      <trkpt lat="46.48513" lon="9.17082">
        <ele>2005.45</ele>
        <time>2012-08-04T10:01:54Z</time>
      </trkpt>
      <trkpt lat="46.48535" lon="9.17134">
        <ele>2000.16</ele>
        <time>2012-08-04T10:01:58Z</time>
      </trkpt>
      <trkpt lat="46.48539" lon="9.17143">
        <ele>1999.2</ele>
        <time>2012-08-04T10:01:59Z</time>
      </trkpt>
      <trkpt lat="46.4854" lon="9.1715">
        <ele>1998.72</ele>
        <time>2012-08-04T10:02:00Z</time>
      </trkpt>
      <trkpt lat="46.48537" lon="9.17153">
        <ele>1997.76</ele>
        <time>2012-08-04T10:02:01Z</time>
      </trkpt>
      <trkpt lat="46.48533" lon="9.17151">
        <ele>1997.76</ele>
        <time>2012-08-04T10:02:02Z</time>
      </trkpt>
      <trkpt lat="46.48529" lon="9.17144">
        <ele>1997.76</ele>
        <time>2012-08-04T10:02:03Z</time>
      </trkpt>
      <trkpt lat="46.48524" lon="9.17132">
        <ele>1998.24</ele>
        <time>2012-08-04T10:02:04Z</time>
      </trkpt>
      <trkpt lat="46.48516" lon="9.17117">
        <ele>1998.72</ele>
        <time>2012-08-04T10:02:05Z</time>
      </trkpt>
      <trkpt lat="46.48506" lon="9.171">
        <ele>1998.24</ele>
        <time>2012-08-04T10:02:06Z</time>
      </trkpt>
      <trkpt lat="46.48492" lon="9.17078">
        <ele>1994.39</ele>
        <time>2012-08-04T10:02:08Z</time>
      </trkpt>
      <trkpt lat="46.48487" lon="9.17071">
        <ele>1993.43</ele>
        <time>2012-08-04T10:02:09Z</time>
      </trkpt>
      <trkpt lat="46.48483" lon="9.1707">
        <ele>1992.95</ele>
        <time>2012-08-04T10:02:10Z</time>
      </trkpt>
      <trkpt lat="46.48479" lon="9.17074">
        <ele>1992.47</ele>
        <time>2012-08-04T10:02:11Z</time>
      </trkpt>
      <trkpt lat="46.48477" lon="9.17082">
        <ele>1992.47</ele>
        <time>2012-08-04T10:02:12Z</time>
      </trkpt>
      <trkpt lat="46.48477" lon="9.17093">
        <ele>1991.99</ele>
        <time>2012-08-04T10:02:13Z</time>
      </trkpt>
      <trkpt lat="46.48481" lon="9.17107">
        <ele>1991.51</ele>
        <time>2012-08-04T10:02:14Z</time>
      </trkpt>
      <trkpt lat="46.48485" lon="9.17123">
        <ele>1991.03</ele>
        <time>2012-08-04T10:02:15Z</time>
      </trkpt>
      <trkpt lat="46.48487" lon="9.17141">
        <ele>1990.55</ele>
        <time>2012-08-04T10:02:16Z</time>
      </trkpt>
      <trkpt lat="46.48486" lon="9.17159">
        <ele>1990.07</ele>
        <time>2012-08-04T10:02:17Z</time>
      </trkpt>
      <trkpt lat="46.48483" lon="9.17178">
        <ele>1989.59</ele>
        <time>2012-08-04T10:02:18Z</time>
      </trkpt>
      <trkpt lat="46.4848" lon="9.17197">
        <ele>1988.62</ele>
        <time>2012-08-04T10:02:19Z</time>
      </trkpt>
      <trkpt lat="46.48481" lon="9.17218">
        <ele>1987.66</ele>
        <time>2012-08-04T10:02:20Z</time>
      </trkpt>
      <trkpt lat="46.48482" lon="9.17239">
        <ele>1985.74</ele>
        <time>2012-08-04T10:02:21Z</time>
      </trkpt>
      <trkpt lat="46.4848" lon="9.17259">
        <ele>1984.78</ele>
        <time>2012-08-04T10:02:22Z</time>
      </trkpt>
      <trkpt lat="46.48477" lon="9.17278">
        <ele>1983.82</ele>
        <time>2012-08-04T10:02:23Z</time>
      </trkpt>
      <trkpt lat="46.4847" lon="9.17298">
        <ele>1983.34</ele>
        <time>2012-08-04T10:02:24Z</time>
      </trkpt>
      <trkpt lat="46.48459" lon="9.17318">
        <ele>1982.86</ele>
        <time>2012-08-04T10:02:25Z</time>
      </trkpt>
      <trkpt lat="46.48444" lon="9.17336">
        <ele>1984.3</ele>
        <time>2012-08-04T10:02:26Z</time>
      </trkpt>
      <trkpt lat="46.48426" lon="9.17352">
        <ele>1982.86</ele>
        <time>2012-08-04T10:02:27Z</time>
      </trkpt>
      <trkpt lat="46.48408" lon="9.17365">
        <ele>1980.45</ele>
        <time>2012-08-04T10:02:28Z</time>
      </trkpt>
      <trkpt lat="46.48379" lon="9.17393">
        <ele>1977.09</ele>
        <time>2012-08-04T10:02:30Z</time>
      </trkpt>
      <trkpt lat="46.48359" lon="9.17414">
        <ele>1971.8</ele>
        <time>2012-08-04T10:02:32Z</time>
      </trkpt>
      <trkpt lat="46.48352" lon="9.17421">
        <ele>1970.84</ele>
        <time>2012-08-04T10:02:33Z</time>
      </trkpt>
      <trkpt lat="46.48344" lon="9.17424">
        <ele>1969.88</ele>
        <time>2012-08-04T10:02:34Z</time>
      </trkpt>
      <trkpt lat="46.48335" lon="9.17421">
        <ele>1968.44</ele>
        <time>2012-08-04T10:02:35Z</time>
      </trkpt>
      <trkpt lat="46.48327" lon="9.17413">
        <ele>1967.96</ele>
        <time>2012-08-04T10:02:36Z</time>
      </trkpt>
      <trkpt lat="46.4832" lon="9.17402">
        <ele>1967.96</ele>
        <time>2012-08-04T10:02:37Z</time>
      </trkpt>
      <trkpt lat="46.48317" lon="9.17386">
        <ele>1967.48</ele>
        <time>2012-08-04T10:02:38Z</time>
      </trkpt>
      <trkpt lat="46.48316" lon="9.17363">
        <ele>1966.03</ele>
        <time>2012-08-04T10:02:39Z</time>
      </trkpt>
      <trkpt lat="46.48319" lon="9.17345">
        <ele>1964.59</ele>
        <time>2012-08-04T10:02:40Z</time>
      </trkpt>
      <trkpt lat="46.48326" lon="9.17326">
        <ele>1964.11</ele>
        <time>2012-08-04T10:02:41Z</time>
      </trkpt>
      <trkpt lat="46.48336" lon="9.1731">
        <ele>1964.11</ele>
        <time>2012-08-04T10:02:42Z</time>
      </trkpt>
      <trkpt lat="46.48347" lon="9.17298">
        <ele>1962.67</ele>
        <time>2012-08-04T10:02:43Z</time>
      </trkpt>
      <trkpt lat="46.48355" lon="9.17289">
        <ele>1960.75</ele>
        <time>2012-08-04T10:02:44Z</time>
      </trkpt>
      <trkpt lat="46.48362" lon="9.17282">
        <ele>1959.78</ele>
        <time>2012-08-04T10:02:45Z</time>
      </trkpt>
      <trkpt lat="46.48366" lon="9.17274">
        <ele>1958.82</ele>
        <time>2012-08-04T10:02:46Z</time>
      </trkpt>
      <trkpt lat="46.48365" lon="9.17266">
        <ele>1958.34</ele>
        <time>2012-08-04T10:02:47Z</time>
      </trkpt>
      <trkpt lat="46.48361" lon="9.17262">
        <ele>1957.86</ele>
        <time>2012-08-04T10:02:48Z</time>
      </trkpt>
      <trkpt lat="46.48356" lon="9.17263">
        <ele>1957.86</ele>
        <time>2012-08-04T10:02:49Z</time>
      </trkpt>
      <trkpt lat="46.48349" lon="9.17269">
        <ele>1958.82</ele>
        <time>2012-08-04T10:02:50Z</time>
      </trkpt>
      <trkpt lat="46.48339" lon="9.17281">
        <ele>1958.82</ele>
        <time>2012-08-04T10:02:51Z</time>
      </trkpt>
      <trkpt lat="46.48326" lon="9.17293">
        <ele>1958.82</ele>
        <time>2012-08-04T10:02:52Z</time>
      </trkpt>
      <trkpt lat="46.48312" lon="9.17303">
        <ele>1957.86</ele>
        <time>2012-08-04T10:02:53Z</time>
      </trkpt>
      <trkpt lat="46.48288" lon="9.17324">
        <ele>1954.98</ele>
        <time>2012-08-04T10:02:55Z</time>
      </trkpt>
      <trkpt lat="46.48278" lon="9.1734">
        <ele>1954.5</ele>
        <time>2012-08-04T10:02:56Z</time>
      </trkpt>
      <trkpt lat="46.4827" lon="9.17361">
        <ele>1954.98</ele>
        <time>2012-08-04T10:02:57Z</time>
      </trkpt>
      <trkpt lat="46.48256" lon="9.17402">
        <ele>1951.13</ele>
        <time>2012-08-04T10:02:59Z</time>
      </trkpt>
      <trkpt lat="46.4825" lon="9.17418">
        <ele>1949.21</ele>
        <time>2012-08-04T10:03:00Z</time>
      </trkpt>
      <trkpt lat="46.48245" lon="9.17429">
        <ele>1947.77</ele>
        <time>2012-08-04T10:03:01Z</time>
      </trkpt>
      <trkpt lat="46.48239" lon="9.17437">
        <ele>1946.81</ele>
        <time>2012-08-04T10:03:02Z</time>
      </trkpt>
      <trkpt lat="46.48232" lon="9.17442">
        <ele>1945.85</ele>
        <time>2012-08-04T10:03:03Z</time>
      </trkpt>
      <trkpt lat="46.48225" lon="9.17443">
        <ele>1945.36</ele>
        <time>2012-08-04T10:03:04Z</time>
      </trkpt>
      <trkpt lat="46.4822" lon="9.17437">
        <ele>1944.88</ele>
        <time>2012-08-04T10:03:05Z</time>
      </trkpt>
      <trkpt lat="46.48218" lon="9.17427">
        <ele>1943.92</ele>
        <time>2012-08-04T10:03:06Z</time>
      </trkpt>
      <trkpt lat="46.4822" lon="9.17413">
        <ele>1944.88</ele>
        <time>2012-08-04T10:03:07Z</time>
      </trkpt>
      <trkpt lat="46.48223" lon="9.17395">
        <ele>1945.36</ele>
        <time>2012-08-04T10:03:08Z</time>
      </trkpt>
      <trkpt lat="46.4824" lon="9.17282">
        <ele>1942.48</ele>
        <time>2012-08-04T10:03:14Z</time>
      </trkpt>
      <trkpt lat="46.48247" lon="9.17241">
        <ele>1939.6</ele>
        <time>2012-08-04T10:03:18Z</time>
      </trkpt>
      <trkpt lat="46.48245" lon="9.17235">
        <ele>1939.12</ele>
        <time>2012-08-04T10:03:19Z</time>
      </trkpt>
      <trkpt lat="46.48241" lon="9.17231">
        <ele>1939.12</ele>
        <time>2012-08-04T10:03:20Z</time>
      </trkpt>
      <trkpt lat="46.48234" lon="9.17231">
        <ele>1938.64</ele>
        <time>2012-08-04T10:03:21Z</time>
      </trkpt>
      <trkpt lat="46.48226" lon="9.17235">
        <ele>1939.12</ele>
        <time>2012-08-04T10:03:22Z</time>
      </trkpt>
      <trkpt lat="46.48218" lon="9.17241">
        <ele>1938.16</ele>
        <time>2012-08-04T10:03:23Z</time>
      </trkpt>
      <trkpt lat="46.48193" lon="9.17255">
        <ele>1935.75</ele>
        <time>2012-08-04T10:03:26Z</time>
      </trkpt>
      <trkpt lat="46.48186" lon="9.17256">
        <ele>1935.27</ele>
        <time>2012-08-04T10:03:27Z</time>
      </trkpt>
      <trkpt lat="46.48179" lon="9.17253">
        <ele>1934.31</ele>
        <time>2012-08-04T10:03:28Z</time>
      </trkpt>
      <trkpt lat="46.48173" lon="9.17247">
        <ele>1933.83</ele>
        <time>2012-08-04T10:03:29Z</time>
      </trkpt>
      <trkpt lat="46.48171" lon="9.17239">
        <ele>1932.87</ele>
        <time>2012-08-04T10:03:30Z</time>
      </trkpt>
      <trkpt lat="46.48172" lon="9.17231">
        <ele>1932.39</ele>
        <time>2012-08-04T10:03:31Z</time>
      </trkpt>
      <trkpt lat="46.48176" lon="9.17223">
        <ele>1932.39</ele>
        <time>2012-08-04T10:03:32Z</time>
      </trkpt>
      <trkpt lat="46.48181" lon="9.17214">
        <ele>1932.39</ele>
        <time>2012-08-04T10:03:33Z</time>
      </trkpt>
      <trkpt lat="46.48195" lon="9.17193">
        <ele>1931.43</ele>
        <time>2012-08-04T10:03:35Z</time>
      </trkpt>
      <trkpt lat="46.48204" lon="9.17184">
        <ele>1930.95</ele>
        <time>2012-08-04T10:03:36Z</time>
      </trkpt>
      <trkpt lat="46.48224" lon="9.17168">
        <ele>1929.98</ele>
        <time>2012-08-04T10:03:38Z</time>
      </trkpt>
      <trkpt lat="46.48233" lon="9.17156">
        <ele>1929.5</ele>
        <time>2012-08-04T10:03:39Z</time>
      </trkpt>
      <trkpt lat="46.48242" lon="9.17143">
        <ele>1928.54</ele>
        <time>2012-08-04T10:03:40Z</time>
      </trkpt>
      <trkpt lat="46.48252" lon="9.17125">
        <ele>1929.5</ele>
        <time>2012-08-04T10:03:41Z</time>
      </trkpt>
      <trkpt lat="46.48262" lon="9.17102">
        <ele>1929.98</ele>
        <time>2012-08-04T10:03:42Z</time>
      </trkpt>
      <trkpt lat="46.48274" lon="9.17078">
        <ele>1929.5</ele>
        <time>2012-08-04T10:03:43Z</time>
      </trkpt>
      <trkpt lat="46.48287" lon="9.17056">
        <ele>1928.06</ele>
        <time>2012-08-04T10:03:44Z</time>
      </trkpt>
      <trkpt lat="46.48298" lon="9.17038">
        <ele>1925.18</ele>
        <time>2012-08-04T10:03:45Z</time>
      </trkpt>
      <trkpt lat="46.48308" lon="9.17024">
        <ele>1921.81</ele>
        <time>2012-08-04T10:03:46Z</time>
      </trkpt>
      <trkpt lat="46.48325" lon="9.16995">
        <ele>1917.97</ele>
        <time>2012-08-04T10:03:49Z</time>
      </trkpt>
      <trkpt lat="46.48322" lon="9.16978">
        <ele>1917.97</ele>
        <time>2012-08-04T10:03:52Z</time>
      </trkpt>
      <trkpt lat="46.48315" lon="9.16982">
        <ele>1918.45</ele>
        <time>2012-08-04T10:03:53Z</time>
      </trkpt>
      <trkpt lat="46.48306" lon="9.16993">
        <ele>1918.93</ele>
        <time>2012-08-04T10:03:54Z</time>
      </trkpt>
      <trkpt lat="46.48295" lon="9.1701">
        <ele>1919.41</ele>
        <time>2012-08-04T10:03:55Z</time>
      </trkpt>
      <trkpt lat="46.4828" lon="9.17031">
        <ele>1919.41</ele>
        <time>2012-08-04T10:03:56Z</time>
      </trkpt>
      <trkpt lat="46.48263" lon="9.17053">
        <ele>1920.37</ele>
        <time>2012-08-04T10:03:57Z</time>
      </trkpt>
      <trkpt lat="46.48244" lon="9.17073">
        <ele>1919.89</ele>
        <time>2012-08-04T10:03:58Z</time>
      </trkpt>
      <trkpt lat="46.48224" lon="9.17093">
        <ele>1919.41</ele>
        <time>2012-08-04T10:03:59Z</time>
      </trkpt>
      <trkpt lat="46.48166" lon="9.17145">
        <ele>1916.04</ele>
        <time>2012-08-04T10:04:02Z</time>
      </trkpt>
      <trkpt lat="46.4811" lon="9.17193">
        <ele>1912.2</ele>
        <time>2012-08-04T10:04:05Z</time>
      </trkpt>
      <trkpt lat="46.48055" lon="9.1723">
        <ele>1908.83</ele>
        <time>2012-08-04T10:04:08Z</time>
      </trkpt>
      <trkpt lat="46.48021" lon="9.17252">
        <ele>1905.47</ele>
        <time>2012-08-04T10:04:10Z</time>
      </trkpt>
      <trkpt lat="46.47976" lon="9.17293">
        <ele>1904.03</ele>
        <time>2012-08-04T10:04:13Z</time>
      </trkpt>
      <trkpt lat="46.47961" lon="9.1731">
        <ele>1903.55</ele>
        <time>2012-08-04T10:04:14Z</time>
      </trkpt>
      <trkpt lat="46.47919" lon="9.17367">
        <ele>1900.18</ele>
        <time>2012-08-04T10:04:17Z</time>
      </trkpt>
      <trkpt lat="46.47875" lon="9.17421">
        <ele>1898.26</ele>
        <time>2012-08-04T10:04:20Z</time>
      </trkpt>
      <trkpt lat="46.47844" lon="9.17459">
        <ele>1894.9</ele>
        <time>2012-08-04T10:04:22Z</time>
      </trkpt>
      <trkpt lat="46.47795" lon="9.17518">
        <ele>1890.09</ele>
        <time>2012-08-04T10:04:25Z</time>
      </trkpt>
      <trkpt lat="46.47765" lon="9.17558">
        <ele>1885.76</ele>
        <time>2012-08-04T10:04:27Z</time>
      </trkpt>
      <trkpt lat="46.47735" lon="9.17595">
        <ele>1880.48</ele>
        <time>2012-08-04T10:04:29Z</time>
      </trkpt>
      <trkpt lat="46.47711" lon="9.17624">
        <ele>1875.19</ele>
        <time>2012-08-04T10:04:31Z</time>
      </trkpt>
      <trkpt lat="46.47695" lon="9.17645">
        <ele>1871.34</ele>
        <time>2012-08-04T10:04:33Z</time>
      </trkpt>
      <trkpt lat="46.47689" lon="9.17656">
        <ele>1870.38</ele>
        <time>2012-08-04T10:04:34Z</time>
      </trkpt>
      <trkpt lat="46.47686" lon="9.1767">
        <ele>1869.42</ele>
        <time>2012-08-04T10:04:35Z</time>
      </trkpt>
      <trkpt lat="46.47686" lon="9.17688">
        <ele>1869.42</ele>
        <time>2012-08-04T10:04:36Z</time>
      </trkpt>
      <trkpt lat="46.47688" lon="9.1771">
        <ele>1868.94</ele>
        <time>2012-08-04T10:04:37Z</time>
      </trkpt>
      <trkpt lat="46.47692" lon="9.17732">
        <ele>1867.98</ele>
        <time>2012-08-04T10:04:38Z</time>
      </trkpt>
      <trkpt lat="46.47697" lon="9.17765">
        <ele>1863.17</ele>
        <time>2012-08-04T10:04:40Z</time>
      </trkpt>
      <trkpt lat="46.47699" lon="9.17789">
        <ele>1860.77</ele>
        <time>2012-08-04T10:04:42Z</time>
      </trkpt>
      <trkpt lat="46.47697" lon="9.17796">
        <ele>1859.81</ele>
        <time>2012-08-04T10:04:43Z</time>
      </trkpt>
      <trkpt lat="46.47692" lon="9.17799">
        <ele>1859.33</ele>
        <time>2012-08-04T10:04:44Z</time>
      </trkpt>
      <trkpt lat="46.47685" lon="9.17795">
        <ele>1859.33</ele>
        <time>2012-08-04T10:04:45Z</time>
      </trkpt>
      <trkpt lat="46.47679" lon="9.17783">
        <ele>1859.33</ele>
        <time>2012-08-04T10:04:46Z</time>
      </trkpt>
      <trkpt lat="46.47673" lon="9.17767">
        <ele>1859.81</ele>
        <time>2012-08-04T10:04:47Z</time>
      </trkpt>
      <trkpt lat="46.47666" lon="9.17748">
        <ele>1859.33</ele>
        <time>2012-08-04T10:04:48Z</time>
      </trkpt>
      <trkpt lat="46.47656" lon="9.17717">
        <ele>1855.96</ele>
        <time>2012-08-04T10:04:50Z</time>
      </trkpt>
      <trkpt lat="46.47652" lon="9.17709">
        <ele>1853.56</ele>
        <time>2012-08-04T10:04:51Z</time>
      </trkpt>
      <trkpt lat="46.47648" lon="9.17704">
        <ele>1853.56</ele>
        <time>2012-08-04T10:04:52Z</time>
      </trkpt>
      <trkpt lat="46.47643" lon="9.17705">
        <ele>1852.6</ele>
        <time>2012-08-04T10:04:53Z</time>
      </trkpt>
      <trkpt lat="46.47639" lon="9.17711">
        <ele>1852.12</ele>
        <time>2012-08-04T10:04:54Z</time>
      </trkpt>
      <trkpt lat="46.47635" lon="9.17721">
        <ele>1852.12</ele>
        <time>2012-08-04T10:04:55Z</time>
      </trkpt>
      <trkpt lat="46.47631" lon="9.17731">
        <ele>1852.12</ele>
        <time>2012-08-04T10:04:56Z</time>
      </trkpt>
      <trkpt lat="46.47632" lon="9.17767">
        <ele>1851.16</ele>
        <time>2012-08-04T10:04:58Z</time>
      </trkpt>
      <trkpt lat="46.4763" lon="9.17789">
        <ele>1848.75</ele>
        <time>2012-08-04T10:04:59Z</time>
      </trkpt>
      <trkpt lat="46.47631" lon="9.17809">
        <ele>1848.75</ele>
        <time>2012-08-04T10:05:00Z</time>
      </trkpt>
      <trkpt lat="46.47604" lon="9.17907">
        <ele>1845.39</ele>
        <time>2012-08-04T10:05:04Z</time>
      </trkpt>
      <trkpt lat="46.47592" lon="9.17948">
        <ele>1840.58</ele>
        <time>2012-08-04T10:05:06Z</time>
      </trkpt>
      <trkpt lat="46.47588" lon="9.17966">
        <ele>1839.62</ele>
        <time>2012-08-04T10:05:07Z</time>
      </trkpt>
      <trkpt lat="46.47588" lon="9.17986">
        <ele>1838.18</ele>
        <time>2012-08-04T10:05:08Z</time>
      </trkpt>
      <trkpt lat="46.47588" lon="9.18027">
        <ele>1835.29</ele>
        <time>2012-08-04T10:05:10Z</time>
      </trkpt>
      <trkpt lat="46.47582" lon="9.18047">
        <ele>1835.29</ele>
        <time>2012-08-04T10:05:11Z</time>
      </trkpt>
      <trkpt lat="46.47572" lon="9.18065">
        <ele>1834.81</ele>
        <time>2012-08-04T10:05:12Z</time>
      </trkpt>
      <trkpt lat="46.4756" lon="9.18082">
        <ele>1833.37</ele>
        <time>2012-08-04T10:05:13Z</time>
      </trkpt>
      <trkpt lat="46.47547" lon="9.18098">
        <ele>1832.89</ele>
        <time>2012-08-04T10:05:14Z</time>
      </trkpt>
      <trkpt lat="46.47532" lon="9.18111">
        <ele>1830.49</ele>
        <time>2012-08-04T10:05:15Z</time>
      </trkpt>
      <trkpt lat="46.47518" lon="9.1812">
        <ele>1827.6</ele>
        <time>2012-08-04T10:05:16Z</time>
      </trkpt>
      <trkpt lat="46.47505" lon="9.18125">
        <ele>1825.68</ele>
        <time>2012-08-04T10:05:17Z</time>
      </trkpt>
      <trkpt lat="46.47493" lon="9.18126">
        <ele>1823.76</ele>
        <time>2012-08-04T10:05:18Z</time>
      </trkpt>
      <trkpt lat="46.4748" lon="9.18123">
        <ele>1823.28</ele>
        <time>2012-08-04T10:05:19Z</time>
      </trkpt>
      <trkpt lat="46.47467" lon="9.18116">
        <ele>1822.32</ele>
        <time>2012-08-04T10:05:20Z</time>
      </trkpt>
      <trkpt lat="46.47455" lon="9.18107">
        <ele>1820.87</ele>
        <time>2012-08-04T10:05:21Z</time>
      </trkpt>
      <trkpt lat="46.47437" lon="9.18093">
        <ele>1817.99</ele>
        <time>2012-08-04T10:05:23Z</time>
      </trkpt>
      <trkpt lat="46.4743" lon="9.18089">
        <ele>1816.07</ele>
        <time>2012-08-04T10:05:24Z</time>
      </trkpt>
      <trkpt lat="46.47424" lon="9.18091">
        <ele>1815.11</ele>
        <time>2012-08-04T10:05:25Z</time>
      </trkpt>
      <trkpt lat="46.47422" lon="9.18099">
        <ele>1814.63</ele>
        <time>2012-08-04T10:05:26Z</time>
      </trkpt>
      <trkpt lat="46.47421" lon="9.18107">
        <ele>1814.15</ele>
        <time>2012-08-04T10:05:27Z</time>
      </trkpt>
      <trkpt lat="46.47423" lon="9.18117">
        <ele>1814.63</ele>
        <time>2012-08-04T10:05:28Z</time>
      </trkpt>
      <trkpt lat="46.47426" lon="9.18128">
        <ele>1814.15</ele>
        <time>2012-08-04T10:05:29Z</time>
      </trkpt>
      <trkpt lat="46.47433" lon="9.18141">
        <ele>1811.74</ele>
        <time>2012-08-04T10:05:30Z</time>
      </trkpt>
      <trkpt lat="46.47438" lon="9.18154">
        <ele>1809.82</ele>
        <time>2012-08-04T10:05:31Z</time>
      </trkpt>
      <trkpt lat="46.47441" lon="9.18165">
        <ele>1809.34</ele>
        <time>2012-08-04T10:05:32Z</time>
      </trkpt>
      <trkpt lat="46.47441" lon="9.18174">
        <ele>1808.38</ele>
        <time>2012-08-04T10:05:33Z</time>
      </trkpt>
      <trkpt lat="46.47439" lon="9.18177">
        <ele>1807.42</ele>
        <time>2012-08-04T10:05:34Z</time>
      </trkpt>
      <trkpt lat="46.47434" lon="9.18174">
        <ele>1807.42</ele>
        <time>2012-08-04T10:05:35Z</time>
      </trkpt>
      <trkpt lat="46.47428" lon="9.18169">
        <ele>1807.42</ele>
        <time>2012-08-04T10:05:36Z</time>
      </trkpt>
      <trkpt lat="46.4742" lon="9.18167">
        <ele>1807.42</ele>
        <time>2012-08-04T10:05:37Z</time>
      </trkpt>
      <trkpt lat="46.47411" lon="9.1817">
        <ele>1805.97</ele>
        <time>2012-08-04T10:05:38Z</time>
      </trkpt>
      <trkpt lat="46.47403" lon="9.18177">
        <ele>1805.01</ele>
        <time>2012-08-04T10:05:39Z</time>
      </trkpt>
      <trkpt lat="46.47398" lon="9.18189">
        <ele>1804.05</ele>
        <time>2012-08-04T10:05:40Z</time>
      </trkpt>
      <trkpt lat="46.47397" lon="9.18204">
        <ele>1803.57</ele>
        <time>2012-08-04T10:05:41Z</time>
      </trkpt>
      <trkpt lat="46.47398" lon="9.1822">
        <ele>1802.61</ele>
        <time>2012-08-04T10:05:42Z</time>
      </trkpt>
      <trkpt lat="46.47401" lon="9.18236">
        <ele>1800.69</ele>
        <time>2012-08-04T10:05:43Z</time>
      </trkpt>
      <trkpt lat="46.47402" lon="9.1825">
        <ele>1799.24</ele>
        <time>2012-08-04T10:05:44Z</time>
      </trkpt>
      <trkpt lat="46.47403" lon="9.18263">
        <ele>1798.76</ele>
        <time>2012-08-04T10:05:45Z</time>
      </trkpt>
      <trkpt lat="46.47402" lon="9.18271">
        <ele>1797.8</ele>
        <time>2012-08-04T10:05:46Z</time>
      </trkpt>
      <trkpt lat="46.47397" lon="9.18274">
        <ele>1796.84</ele>
        <time>2012-08-04T10:05:47Z</time>
      </trkpt>
      <trkpt lat="46.4739" lon="9.1827">
        <ele>1795.4</ele>
        <time>2012-08-04T10:05:48Z</time>
      </trkpt>
      <trkpt lat="46.47384" lon="9.18259">
        <ele>1795.4</ele>
        <time>2012-08-04T10:05:49Z</time>
      </trkpt>
      <trkpt lat="46.47378" lon="9.18243">
        <ele>1794.92</ele>
        <time>2012-08-04T10:05:50Z</time>
      </trkpt>
      <trkpt lat="46.47368" lon="9.18204">
        <ele>1794.44</ele>
        <time>2012-08-04T10:05:52Z</time>
      </trkpt>
      <trkpt lat="46.47361" lon="9.18173">
        <ele>1790.11</ele>
        <time>2012-08-04T10:05:54Z</time>
      </trkpt>
      <trkpt lat="46.47356" lon="9.18162">
        <ele>1789.15</ele>
        <time>2012-08-04T10:05:55Z</time>
      </trkpt>
      <trkpt lat="46.47351" lon="9.18153">
        <ele>1788.19</ele>
        <time>2012-08-04T10:05:56Z</time>
      </trkpt>
      <trkpt lat="46.47344" lon="9.18148">
        <ele>1787.71</ele>
        <time>2012-08-04T10:05:57Z</time>
      </trkpt>
      <trkpt lat="46.47336" lon="9.18149">
        <ele>1786.75</ele>
        <time>2012-08-04T10:05:58Z</time>
      </trkpt>
      <trkpt lat="46.47329" lon="9.18154">
        <ele>1785.79</ele>
        <time>2012-08-04T10:05:59Z</time>
      </trkpt>
      <trkpt lat="46.47321" lon="9.18163">
        <ele>1785.79</ele>
        <time>2012-08-04T10:06:00Z</time>
      </trkpt>
      <trkpt lat="46.47313" lon="9.18175">
        <ele>1785.31</ele>
        <time>2012-08-04T10:06:01Z</time>
      </trkpt>
      <trkpt lat="46.47297" lon="9.18203">
        <ele>1781.94</ele>
        <time>2012-08-04T10:06:03Z</time>
      </trkpt>
      <trkpt lat="46.4729" lon="9.18215">
        <ele>1780.98</ele>
        <time>2012-08-04T10:06:04Z</time>
      </trkpt>
      <trkpt lat="46.47284" lon="9.18223">
        <ele>1780.02</ele>
        <time>2012-08-04T10:06:05Z</time>
      </trkpt>
      <trkpt lat="46.47277" lon="9.18227">
        <ele>1778.1</ele>
        <time>2012-08-04T10:06:06Z</time>
      </trkpt>
      <trkpt lat="46.47271" lon="9.18225">
        <ele>1777.13</ele>
        <time>2012-08-04T10:06:07Z</time>
      </trkpt>
      <trkpt lat="46.47267" lon="9.18218">
        <ele>1775.69</ele>
        <time>2012-08-04T10:06:08Z</time>
      </trkpt>
      <trkpt lat="46.47266" lon="9.18209">
        <ele>1775.69</ele>
        <time>2012-08-04T10:06:09Z</time>
      </trkpt>
      <trkpt lat="46.4727" lon="9.18198">
        <ele>1775.21</ele>
        <time>2012-08-04T10:06:10Z</time>
      </trkpt>
      <trkpt lat="46.47277" lon="9.18186">
        <ele>1774.73</ele>
        <time>2012-08-04T10:06:11Z</time>
      </trkpt>
      <trkpt lat="46.47285" lon="9.18172">
        <ele>1774.25</ele>
        <time>2012-08-04T10:06:12Z</time>
      </trkpt>
      <trkpt lat="46.47323" lon="9.18111">
        <ele>1770.41</ele>
        <time>2012-08-04T10:06:16Z</time>
      </trkpt>
      <trkpt lat="46.47337" lon="9.18087">
        <ele>1767.04</ele>
        <time>2012-08-04T10:06:18Z</time>
      </trkpt>
      <trkpt lat="46.47341" lon="9.18075">
        <ele>1766.56</ele>
        <time>2012-08-04T10:06:19Z</time>
      </trkpt>
      <trkpt lat="46.47342" lon="9.18063">
        <ele>1765.12</ele>
        <time>2012-08-04T10:06:20Z</time>
      </trkpt>
      <trkpt lat="46.47339" lon="9.18052">
        <ele>1764.64</ele>
        <time>2012-08-04T10:06:21Z</time>
      </trkpt>
      <trkpt lat="46.47334" lon="9.18044">
        <ele>1764.16</ele>
        <time>2012-08-04T10:06:22Z</time>
      </trkpt>
      <trkpt lat="46.47325" lon="9.18041">
        <ele>1764.16</ele>
        <time>2012-08-04T10:06:23Z</time>
      </trkpt>
      <trkpt lat="46.47314" lon="9.18043">
        <ele>1764.64</ele>
        <time>2012-08-04T10:06:24Z</time>
      </trkpt>
      <trkpt lat="46.47303" lon="9.18048">
        <ele>1764.16</ele>
        <time>2012-08-04T10:06:25Z</time>
      </trkpt>
      <trkpt lat="46.47293" lon="9.18054">
        <ele>1763.68</ele>
        <time>2012-08-04T10:06:26Z</time>
      </trkpt>
      <trkpt lat="46.47283" lon="9.18058">
        <ele>1763.2</ele>
        <time>2012-08-04T10:06:27Z</time>
      </trkpt>
      <trkpt lat="46.47274" lon="9.1806">
        <ele>1762.23</ele>
        <time>2012-08-04T10:06:28Z</time>
      </trkpt>
      <trkpt lat="46.47266" lon="9.18059">
        <ele>1761.27</ele>
        <time>2012-08-04T10:06:29Z</time>
      </trkpt>
      <trkpt lat="46.47259" lon="9.18054">
        <ele>1760.79</ele>
        <time>2012-08-04T10:06:30Z</time>
      </trkpt>
      <trkpt lat="46.47251" lon="9.18049">
        <ele>1760.79</ele>
        <time>2012-08-04T10:06:31Z</time>
      </trkpt>
      <trkpt lat="46.47241" lon="9.18044">
        <ele>1761.27</ele>
        <time>2012-08-04T10:06:32Z</time>
      </trkpt>
      <trkpt lat="46.4723" lon="9.18041">
        <ele>1760.79</ele>
        <time>2012-08-04T10:06:33Z</time>
      </trkpt>
      <trkpt lat="46.47218" lon="9.18039">
        <ele>1761.75</ele>
        <time>2012-08-04T10:06:34Z</time>
      </trkpt>
      <trkpt lat="46.47205" lon="9.18039">
        <ele>1760.79</ele>
        <time>2012-08-04T10:06:35Z</time>
      </trkpt>
      <trkpt lat="46.47193" lon="9.1804">
        <ele>1760.79</ele>
        <time>2012-08-04T10:06:36Z</time>
      </trkpt>
      <trkpt lat="46.47184" lon="9.18041">
        <ele>1758.39</ele>
        <time>2012-08-04T10:06:37Z</time>
      </trkpt>
      <trkpt lat="46.47178" lon="9.18041">
        <ele>1755.99</ele>
        <time>2012-08-04T10:06:40Z</time>
      </trkpt>
      <trkpt lat="46.47159" lon="9.18045">
        <ele>1756.47</ele>
        <time>2012-08-04T10:06:48Z</time>
      </trkpt>
      <trkpt lat="46.47152" lon="9.18049">
        <ele>1755.5</ele>
        <time>2012-08-04T10:06:49Z</time>
      </trkpt>
      <trkpt lat="46.47145" lon="9.18057">
        <ele>1755.02</ele>
        <time>2012-08-04T10:06:50Z</time>
      </trkpt>
      <trkpt lat="46.47141" lon="9.1807">
        <ele>1754.54</ele>
        <time>2012-08-04T10:06:51Z</time>
      </trkpt>
      <trkpt lat="46.47139" lon="9.18086">
        <ele>1754.54</ele>
        <time>2012-08-04T10:06:52Z</time>
      </trkpt>
      <trkpt lat="46.47138" lon="9.18103">
        <ele>1753.1</ele>
        <time>2012-08-04T10:06:53Z</time>
      </trkpt>
      <trkpt lat="46.47136" lon="9.18121">
        <ele>1752.62</ele>
        <time>2012-08-04T10:06:54Z</time>
      </trkpt>
      <trkpt lat="46.47132" lon="9.18139">
        <ele>1751.18</ele>
        <time>2012-08-04T10:06:55Z</time>
      </trkpt>
      <trkpt lat="46.47127" lon="9.18157">
        <ele>1749.74</ele>
        <time>2012-08-04T10:06:56Z</time>
      </trkpt>
      <trkpt lat="46.47121" lon="9.18174">
        <ele>1748.29</ele>
        <time>2012-08-04T10:06:57Z</time>
      </trkpt>
      <trkpt lat="46.47113" lon="9.18191">
        <ele>1747.81</ele>
        <time>2012-08-04T10:06:58Z</time>
      </trkpt>
      <trkpt lat="46.47105" lon="9.18206">
        <ele>1746.85</ele>
        <time>2012-08-04T10:06:59Z</time>
      </trkpt>
      <trkpt lat="46.47095" lon="9.1822">
        <ele>1745.41</ele>
        <time>2012-08-04T10:07:00Z</time>
      </trkpt>
      <trkpt lat="46.47084" lon="9.18233">
        <ele>1744.93</ele>
        <time>2012-08-04T10:07:01Z</time>
      </trkpt>
      <trkpt lat="46.4705" lon="9.18272">
        <ele>1741.08</ele>
        <time>2012-08-04T10:07:04Z</time>
      </trkpt>
      <trkpt lat="46.47031" lon="9.183">
        <ele>1739.16</ele>
        <time>2012-08-04T10:07:06Z</time>
      </trkpt>
      <trkpt lat="46.47023" lon="9.18318">
        <ele>1738.2</ele>
        <time>2012-08-04T10:07:07Z</time>
      </trkpt>
      <trkpt lat="46.47016" lon="9.1834">
        <ele>1738.68</ele>
        <time>2012-08-04T10:07:08Z</time>
      </trkpt>
      <trkpt lat="46.46998" lon="9.18402">
        <ele>1735.8</ele>
        <time>2012-08-04T10:07:11Z</time>
      </trkpt>
      <trkpt lat="46.46994" lon="9.18422">
        <ele>1734.84</ele>
        <time>2012-08-04T10:07:12Z</time>
      </trkpt>
      <trkpt lat="46.46987" lon="9.1847">
        <ele>1731.47</ele>
        <time>2012-08-04T10:07:15Z</time>
      </trkpt>
      <trkpt lat="46.4698" lon="9.18501">
        <ele>1731.47</ele>
        <time>2012-08-04T10:07:17Z</time>
      </trkpt>
      <trkpt lat="46.46974" lon="9.18518">
        <ele>1731.47</ele>
        <time>2012-08-04T10:07:18Z</time>
      </trkpt>
      <trkpt lat="46.46966" lon="9.18549">
        <ele>1727.63</ele>
        <time>2012-08-04T10:07:20Z</time>
      </trkpt>
      <trkpt lat="46.46961" lon="9.18563">
        <ele>1726.67</ele>
        <time>2012-08-04T10:07:21Z</time>
      </trkpt>
      <trkpt lat="46.46954" lon="9.18575">
        <ele>1725.22</ele>
        <time>2012-08-04T10:07:22Z</time>
      </trkpt>
      <trkpt lat="46.46945" lon="9.18585">
        <ele>1724.74</ele>
        <time>2012-08-04T10:07:23Z</time>
      </trkpt>
      <trkpt lat="46.46935" lon="9.18591">
        <ele>1722.82</ele>
        <time>2012-08-04T10:07:24Z</time>
      </trkpt>
      <trkpt lat="46.46925" lon="9.18595">
        <ele>1721.86</ele>
        <time>2012-08-04T10:07:25Z</time>
      </trkpt>
      <trkpt lat="46.4691" lon="9.18603">
        <ele>1718.97</ele>
        <time>2012-08-04T10:07:27Z</time>
      </trkpt>
      <trkpt lat="46.46907" lon="9.18608">
        <ele>1718.01</ele>
        <time>2012-08-04T10:07:28Z</time>
      </trkpt>
      <trkpt lat="46.46906" lon="9.18615">
        <ele>1717.53</ele>
        <time>2012-08-04T10:07:29Z</time>
      </trkpt>
      <trkpt lat="46.46909" lon="9.18621">
        <ele>1718.01</ele>
        <time>2012-08-04T10:07:30Z</time>
      </trkpt>
      <trkpt lat="46.46914" lon="9.18623">
        <ele>1717.53</ele>
        <time>2012-08-04T10:07:31Z</time>
      </trkpt>
      <trkpt lat="46.46921" lon="9.18623">
        <ele>1717.05</ele>
        <time>2012-08-04T10:07:32Z</time>
      </trkpt>
      <trkpt lat="46.46928" lon="9.18623">
        <ele>1716.57</ele>
        <time>2012-08-04T10:07:33Z</time>
      </trkpt>
      <trkpt lat="46.46933" lon="9.18625">
        <ele>1715.61</ele>
        <time>2012-08-04T10:07:34Z</time>
      </trkpt>
      <trkpt lat="46.46936" lon="9.1863">
        <ele>1715.13</ele>
        <time>2012-08-04T10:07:35Z</time>
      </trkpt>
      <trkpt lat="46.46935" lon="9.18636">
        <ele>1714.65</ele>
        <time>2012-08-04T10:07:36Z</time>
      </trkpt>
      <trkpt lat="46.46932" lon="9.1864">
        <ele>1714.17</ele>
        <time>2012-08-04T10:07:37Z</time>
      </trkpt>
      <trkpt lat="46.46925" lon="9.18641">
        <ele>1714.17</ele>
        <time>2012-08-04T10:07:38Z</time>
      </trkpt>
      <trkpt lat="46.46916" lon="9.18639">
        <ele>1714.17</ele>
        <time>2012-08-04T10:07:39Z</time>
      </trkpt>
      <trkpt lat="46.46904" lon="9.18637">
        <ele>1713.69</ele>
        <time>2012-08-04T10:07:40Z</time>
      </trkpt>
      <trkpt lat="46.4689" lon="9.18638">
        <ele>1712.73</ele>
        <time>2012-08-04T10:07:41Z</time>
      </trkpt>
      <trkpt lat="46.46875" lon="9.18641">
        <ele>1712.73</ele>
        <time>2012-08-04T10:07:42Z</time>
      </trkpt>
      <trkpt lat="46.4686" lon="9.18647">
        <ele>1710.8</ele>
        <time>2012-08-04T10:07:43Z</time>
      </trkpt>
      <trkpt lat="46.46831" lon="9.18655">
        <ele>1707.44</ele>
        <time>2012-08-04T10:07:45Z</time>
      </trkpt>
      <trkpt lat="46.46803" lon="9.18664">
        <ele>1705.04</ele>
        <time>2012-08-04T10:07:47Z</time>
      </trkpt>
      <trkpt lat="46.46789" lon="9.18672">
        <ele>1704.07</ele>
        <time>2012-08-04T10:07:48Z</time>
      </trkpt>
      <trkpt lat="46.46777" lon="9.18682">
        <ele>1702.63</ele>
        <time>2012-08-04T10:07:49Z</time>
      </trkpt>
      <trkpt lat="46.46368" lon="9.18728">
        <ele>1649.28</ele>
        <time>2012-08-04T10:29:12Z</time>
      </trkpt>
      <trkpt lat="46.46367" lon="9.18733">
        <ele>1649.28</ele>
        <time>2012-08-04T10:29:13Z</time>
      </trkpt>
      <trkpt lat="46.46354" lon="9.18729">
        <ele>1646.88</ele>
        <time>2012-08-04T10:29:39Z</time>
      </trkpt>
      <trkpt lat="46.46357" lon="9.1873">
        <ele>1647.36</ele>
        <time>2012-08-04T10:29:59Z</time>
      </trkpt>
      <trkpt lat="46.46357" lon="9.18731">
        <ele>1646.88</ele>
        <time>2012-08-04T10:30:01Z</time>
      </trkpt>
      <trkpt lat="46.4636" lon="9.18744">
        <ele>1647.84</ele>
        <time>2012-08-04T10:30:04Z</time>
      </trkpt>
      <trkpt lat="46.46361" lon="9.18751">
        <ele>1647.36</ele>
        <time>2012-08-04T10:30:05Z</time>
      </trkpt>
      <trkpt lat="46.46362" lon="9.18757">
        <ele>1646.88</ele>
        <time>2012-08-04T10:30:06Z</time>
      </trkpt>
      <trkpt lat="46.46361" lon="9.18767">
        <ele>1646.88</ele>
        <time>2012-08-04T10:30:08Z</time>
      </trkpt>
      <trkpt lat="46.46357" lon="9.18771">
        <ele>1646.88</ele>
        <time>2012-08-04T10:30:09Z</time>
      </trkpt>
      <trkpt lat="46.46352" lon="9.18774">
        <ele>1646.88</ele>
        <time>2012-08-04T10:30:10Z</time>
      </trkpt>
      <trkpt lat="46.4631" lon="9.18796">
        <ele>1645.91</ele>
        <time>2012-08-04T10:30:15Z</time>
      </trkpt>
      <trkpt lat="46.463" lon="9.18804">
        <ele>1644.95</ele>
        <time>2012-08-04T10:30:16Z</time>
      </trkpt>
      <trkpt lat="46.46292" lon="9.18814">
        <ele>1644.47</ele>
        <time>2012-08-04T10:30:17Z</time>
      </trkpt>
      <trkpt lat="46.46284" lon="9.18825">
        <ele>1643.99</ele>
        <time>2012-08-04T10:30:18Z</time>
      </trkpt>
      <trkpt lat="46.46276" lon="9.18836">
        <ele>1643.03</ele>
        <time>2012-08-04T10:30:19Z</time>
      </trkpt>
      <trkpt lat="46.4627" lon="9.18848">
        <ele>1642.55</ele>
        <time>2012-08-04T10:30:20Z</time>
      </trkpt>
      <trkpt lat="46.46265" lon="9.1886">
        <ele>1642.07</ele>
        <time>2012-08-04T10:30:21Z</time>
      </trkpt>
      <trkpt lat="46.46262" lon="9.18872">
        <ele>1641.11</ele>
        <time>2012-08-04T10:30:22Z</time>
      </trkpt>
      <trkpt lat="46.4626" lon="9.18898">
        <ele>1639.67</ele>
        <time>2012-08-04T10:30:24Z</time>
      </trkpt>
      <trkpt lat="46.46261" lon="9.18945">
        <ele>1636.78</ele>
        <time>2012-08-04T10:30:27Z</time>
      </trkpt>
      <trkpt lat="46.46269" lon="9.18992">
        <ele>1634.86</ele>
        <time>2012-08-04T10:30:31Z</time>
      </trkpt>
      <trkpt lat="46.46271" lon="9.19004">
        <ele>1634.38</ele>
        <time>2012-08-04T10:30:32Z</time>
      </trkpt>
      <trkpt lat="46.46273" lon="9.19012">
        <ele>1633.42</ele>
        <time>2012-08-04T10:30:33Z</time>
      </trkpt>
      <trkpt lat="46.46292" lon="9.19054">
        <ele>1631.49</ele>
        <time>2012-08-04T10:30:37Z</time>
      </trkpt>
      <trkpt lat="46.46296" lon="9.19066">
        <ele>1631.01</ele>
        <time>2012-08-04T10:30:38Z</time>
      </trkpt>
      <trkpt lat="46.46299" lon="9.19078">
        <ele>1630.53</ele>
        <time>2012-08-04T10:30:39Z</time>
      </trkpt>
      <trkpt lat="46.46301" lon="9.1909">
        <ele>1629.57</ele>
        <time>2012-08-04T10:30:40Z</time>
      </trkpt>
      <trkpt lat="46.46301" lon="9.19102">
        <ele>1629.57</ele>
        <time>2012-08-04T10:30:41Z</time>
      </trkpt>
      <trkpt lat="46.463" lon="9.19114">
        <ele>1628.61</ele>
        <time>2012-08-04T10:30:42Z</time>
      </trkpt>
      <trkpt lat="46.46288" lon="9.19161">
        <ele>1627.65</ele>
        <time>2012-08-04T10:30:46Z</time>
      </trkpt>
      <trkpt lat="46.46262" lon="9.19209">
        <ele>1626.69</ele>
        <time>2012-08-04T10:30:52Z</time>
      </trkpt>
      <trkpt lat="46.46256" lon="9.19213">
        <ele>1626.69</ele>
        <time>2012-08-04T10:30:53Z</time>
      </trkpt>
      <trkpt lat="46.4625" lon="9.19216">
        <ele>1626.69</ele>
        <time>2012-08-04T10:30:54Z</time>
      </trkpt>
      <trkpt lat="46.46174" lon="9.19264">
        <ele>1626.21</ele>
        <time>2012-08-04T10:31:05Z</time>
      </trkpt>
      <trkpt lat="46.46081" lon="9.19305">
        <ele>1625.25</ele>
        <time>2012-08-04T10:31:17Z</time>
      </trkpt>
      <trkpt lat="46.46001" lon="9.19326">
        <ele>1628.61</ele>
        <time>2012-08-04T10:31:28Z</time>
      </trkpt>
      <trkpt lat="46.45994" lon="9.19327">
        <ele>1628.61</ele>
        <time>2012-08-04T10:31:29Z</time>
      </trkpt>
      <trkpt lat="46.45988" lon="9.19326">
        <ele>1629.09</ele>
        <time>2012-08-04T10:31:30Z</time>
      </trkpt>
      <trkpt lat="46.45981" lon="9.19324">
        <ele>1629.09</ele>
        <time>2012-08-04T10:31:31Z</time>
      </trkpt>
      <trkpt lat="46.45975" lon="9.19321">
        <ele>1630.05</ele>
        <time>2012-08-04T10:31:32Z</time>
      </trkpt>
      <trkpt lat="46.4596" lon="9.19316">
        <ele>1630.53</ele>
        <time>2012-08-04T10:31:34Z</time>
      </trkpt>
      <trkpt lat="46.45944" lon="9.19315">
        <ele>1632.46</ele>
        <time>2012-08-04T10:31:36Z</time>
      </trkpt>
      <trkpt lat="46.45936" lon="9.19318">
        <ele>1632.94</ele>
        <time>2012-08-04T10:31:37Z</time>
      </trkpt>
      <trkpt lat="46.459" lon="9.19344">
        <ele>1636.3</ele>
        <time>2012-08-04T10:31:41Z</time>
      </trkpt>
      <trkpt lat="46.45895" lon="9.19348">
        <ele>1636.3</ele>
        <time>2012-08-04T10:31:42Z</time>
      </trkpt>
      <trkpt lat="46.4585" lon="9.19394">
        <ele>1638.7</ele>
        <time>2012-08-04T10:31:46Z</time>
      </trkpt>
      <trkpt lat="46.4584" lon="9.19407">
        <ele>1639.19</ele>
        <time>2012-08-04T10:31:47Z</time>
      </trkpt>
      <trkpt lat="46.45805" lon="9.19469">
        <ele>1643.03</ele>
        <time>2012-08-04T10:31:51Z</time>
      </trkpt>
      <trkpt lat="46.45777" lon="9.19518">
        <ele>1644.47</ele>
        <time>2012-08-04T10:31:54Z</time>
      </trkpt>
      <trkpt lat="46.45749" lon="9.19565">
        <ele>1646.4</ele>
        <time>2012-08-04T10:31:57Z</time>
      </trkpt>
      <trkpt lat="46.45739" lon="9.19578">
        <ele>1646.4</ele>
        <time>2012-08-04T10:31:58Z</time>
      </trkpt>
      <trkpt lat="46.45706" lon="9.19615">
        <ele>1648.32</ele>
        <time>2012-08-04T10:32:01Z</time>
      </trkpt>
      <trkpt lat="46.45556" lon="9.19768">
        <ele>1651.68</ele>
        <time>2012-08-04T10:32:14Z</time>
      </trkpt>
      <trkpt lat="46.45488" lon="9.19817">
        <ele>1653.6</ele>
        <time>2012-08-04T10:32:19Z</time>
      </trkpt>
      <trkpt lat="46.45302" lon="9.19895">
        <ele>1655.53</ele>
        <time>2012-08-04T10:32:31Z</time>
      </trkpt>
      <trkpt lat="46.45203" lon="9.19925">
        <ele>1658.89</ele>
        <time>2012-08-04T10:32:37Z</time>
      </trkpt>
      <trkpt lat="46.45187" lon="9.19931">
        <ele>1659.37</ele>
        <time>2012-08-04T10:32:38Z</time>
      </trkpt>
      <trkpt lat="46.45101" lon="9.19965">
        <ele>1661.3</ele>
        <time>2012-08-04T10:32:43Z</time>
      </trkpt>
      <trkpt lat="46.44978" lon="9.2001">
        <ele>1665.14</ele>
        <time>2012-08-04T10:32:50Z</time>
      </trkpt>
      <trkpt lat="46.4489" lon="9.20041">
        <ele>1668.99</ele>
        <time>2012-08-04T10:32:55Z</time>
      </trkpt>
      <trkpt lat="46.44858" lon="9.20055">
        <ele>1670.91</ele>
        <time>2012-08-04T10:32:57Z</time>
      </trkpt>
      <trkpt lat="46.44814" lon="9.20088">
        <ele>1674.27</ele>
        <time>2012-08-04T10:33:00Z</time>
      </trkpt>
      <trkpt lat="46.44801" lon="9.20098">
        <ele>1674.27</ele>
        <time>2012-08-04T10:33:01Z</time>
      </trkpt>
      <trkpt lat="46.44779" lon="9.20122">
        <ele>1674.75</ele>
        <time>2012-08-04T10:33:04Z</time>
      </trkpt>
      <trkpt lat="46.44775" lon="9.20125">
        <ele>1675.23</ele>
        <time>2012-08-04T10:33:05Z</time>
      </trkpt>
      <trkpt lat="46.4477" lon="9.20123">
        <ele>1675.23</ele>
        <time>2012-08-04T10:33:06Z</time>
      </trkpt>
      <trkpt lat="46.44767" lon="9.20116">
        <ele>1675.23</ele>
        <time>2012-08-04T10:33:07Z</time>
      </trkpt>
      <trkpt lat="46.44764" lon="9.20107">
        <ele>1675.23</ele>
        <time>2012-08-04T10:33:08Z</time>
      </trkpt>
      <trkpt lat="46.44761" lon="9.20097">
        <ele>1675.72</ele>
        <time>2012-08-04T10:33:09Z</time>
      </trkpt>
      <trkpt lat="46.44753" lon="9.20074">
        <ele>1674.27</ele>
        <time>2012-08-04T10:33:11Z</time>
      </trkpt>
      <trkpt lat="46.44747" lon="9.20065">
        <ele>1672.83</ele>
        <time>2012-08-04T10:33:12Z</time>
      </trkpt>
      <trkpt lat="46.4474" lon="9.20058">
        <ele>1672.35</ele>
        <time>2012-08-04T10:33:13Z</time>
      </trkpt>
      <trkpt lat="46.44732" lon="9.20055">
        <ele>1671.39</ele>
        <time>2012-08-04T10:33:14Z</time>
      </trkpt>
      <trkpt lat="46.44723" lon="9.20054">
        <ele>1670.91</ele>
        <time>2012-08-04T10:33:15Z</time>
      </trkpt>
      <trkpt lat="46.44714" lon="9.20057">
        <ele>1670.43</ele>
        <time>2012-08-04T10:33:16Z</time>
      </trkpt>
      <trkpt lat="46.44705" lon="9.20064">
        <ele>1670.91</ele>
        <time>2012-08-04T10:33:17Z</time>
      </trkpt>
      <trkpt lat="46.44697" lon="9.20074">
        <ele>1669.47</ele>
        <time>2012-08-04T10:33:18Z</time>
      </trkpt>
      <trkpt lat="46.44689" lon="9.20086">
        <ele>1669.95</ele>
        <time>2012-08-04T10:33:19Z</time>
      </trkpt>
      <trkpt lat="46.44681" lon="9.20097">
        <ele>1669.95</ele>
        <time>2012-08-04T10:33:20Z</time>
      </trkpt>
      <trkpt lat="46.44672" lon="9.20106">
        <ele>1668.99</ele>
        <time>2012-08-04T10:33:21Z</time>
      </trkpt>
      <trkpt lat="46.44662" lon="9.20111">
        <ele>1668.02</ele>
        <time>2012-08-04T10:33:22Z</time>
      </trkpt>
      <trkpt lat="46.44596" lon="9.20129">
        <ele>1666.58</ele>
        <time>2012-08-04T10:33:28Z</time>
      </trkpt>
      <trkpt lat="46.4455" lon="9.2014">
        <ele>1662.26</ele>
        <time>2012-08-04T10:33:32Z</time>
      </trkpt>
      <trkpt lat="46.44514" lon="9.20149">
        <ele>1659.37</ele>
        <time>2012-08-04T10:33:35Z</time>
      </trkpt>
      <trkpt lat="46.44474" lon="9.20159">
        <ele>1655.53</ele>
        <time>2012-08-04T10:33:38Z</time>
      </trkpt>
      <trkpt lat="46.44448" lon="9.20167">
        <ele>1652.16</ele>
        <time>2012-08-04T10:33:40Z</time>
      </trkpt>
      <trkpt lat="46.44423" lon="9.20176">
        <ele>1649.28</ele>
        <time>2012-08-04T10:33:42Z</time>
      </trkpt>
      <trkpt lat="46.44398" lon="9.20188">
        <ele>1645.91</ele>
        <time>2012-08-04T10:33:44Z</time>
      </trkpt>
      <trkpt lat="46.44373" lon="9.202">
        <ele>1642.55</ele>
        <time>2012-08-04T10:33:46Z</time>
      </trkpt>
      <trkpt lat="46.44349" lon="9.2021">
        <ele>1639.19</ele>
        <time>2012-08-04T10:33:48Z</time>
      </trkpt>
      <trkpt lat="46.44313" lon="9.20222">
        <ele>1635.34</ele>
        <time>2012-08-04T10:33:51Z</time>
      </trkpt>
      <trkpt lat="46.44289" lon="9.2023">
        <ele>1632.46</ele>
        <time>2012-08-04T10:33:53Z</time>
      </trkpt>
      <trkpt lat="46.44278" lon="9.20236">
        <ele>1631.49</ele>
        <time>2012-08-04T10:33:54Z</time>
      </trkpt>
      <trkpt lat="46.44267" lon="9.20244">
        <ele>1630.05</ele>
        <time>2012-08-04T10:33:55Z</time>
      </trkpt>
      <trkpt lat="46.44257" lon="9.20252">
        <ele>1628.61</ele>
        <time>2012-08-04T10:33:56Z</time>
      </trkpt>
      <trkpt lat="46.44245" lon="9.20259">
        <ele>1626.69</ele>
        <time>2012-08-04T10:33:57Z</time>
      </trkpt>
      <trkpt lat="46.44234" lon="9.20265">
        <ele>1625.73</ele>
        <time>2012-08-04T10:33:58Z</time>
      </trkpt>
      <trkpt lat="46.44194" lon="9.20279">
        <ele>1621.4</ele>
        <time>2012-08-04T10:34:01Z</time>
      </trkpt>
      <trkpt lat="46.44167" lon="9.20288">
        <ele>1618.52</ele>
        <time>2012-08-04T10:34:03Z</time>
      </trkpt>
      <trkpt lat="46.44141" lon="9.20298">
        <ele>1615.15</ele>
        <time>2012-08-04T10:34:05Z</time>
      </trkpt>
      <trkpt lat="46.44114" lon="9.20306">
        <ele>1612.27</ele>
        <time>2012-08-04T10:34:07Z</time>
      </trkpt>
      <trkpt lat="46.44101" lon="9.20307">
        <ele>1610.35</ele>
        <time>2012-08-04T10:34:08Z</time>
      </trkpt>
      <trkpt lat="46.44088" lon="9.20307">
        <ele>1609.38</ele>
        <time>2012-08-04T10:34:09Z</time>
      </trkpt>
      <trkpt lat="46.44061" lon="9.20305">
        <ele>1606.02</ele>
        <time>2012-08-04T10:34:11Z</time>
      </trkpt>
      <trkpt lat="46.44047" lon="9.20305">
        <ele>1604.58</ele>
        <time>2012-08-04T10:34:12Z</time>
      </trkpt>
      <trkpt lat="46.44034" lon="9.2031">
        <ele>1602.66</ele>
        <time>2012-08-04T10:34:13Z</time>
      </trkpt>
      <trkpt lat="46.43977" lon="9.20337">
        <ele>1598.33</ele>
        <time>2012-08-04T10:34:17Z</time>
      </trkpt>
      <trkpt lat="46.43935" lon="9.20348">
        <ele>1594</ele>
        <time>2012-08-04T10:34:20Z</time>
      </trkpt>
      <trkpt lat="46.43921" lon="9.20347">
        <ele>1593.04</ele>
        <time>2012-08-04T10:34:21Z</time>
      </trkpt>
      <trkpt lat="46.43908" lon="9.20343">
        <ele>1592.08</ele>
        <time>2012-08-04T10:34:22Z</time>
      </trkpt>
      <trkpt lat="46.43882" lon="9.20335">
        <ele>1590.64</ele>
        <time>2012-08-04T10:34:24Z</time>
      </trkpt>
      <trkpt lat="46.43869" lon="9.20332">
        <ele>1590.16</ele>
        <time>2012-08-04T10:34:25Z</time>
      </trkpt>
      <trkpt lat="46.43854" lon="9.2033">
        <ele>1589.2</ele>
        <time>2012-08-04T10:34:26Z</time>
      </trkpt>
      <trkpt lat="46.43827" lon="9.20327">
        <ele>1587.27</ele>
        <time>2012-08-04T10:34:28Z</time>
      </trkpt>
      <trkpt lat="46.43802" lon="9.20322">
        <ele>1584.87</ele>
        <time>2012-08-04T10:34:30Z</time>
      </trkpt>
      <trkpt lat="46.4379" lon="9.20324">
        <ele>1583.91</ele>
        <time>2012-08-04T10:34:31Z</time>
      </trkpt>
      <trkpt lat="46.43778" lon="9.20329">
        <ele>1582.95</ele>
        <time>2012-08-04T10:34:32Z</time>
      </trkpt>
      <trkpt lat="46.43766" lon="9.20337">
        <ele>1582.47</ele>
        <time>2012-08-04T10:34:33Z</time>
      </trkpt>
      <trkpt lat="46.43753" lon="9.20346">
        <ele>1581.03</ele>
        <time>2012-08-04T10:34:34Z</time>
      </trkpt>
      <trkpt lat="46.43739" lon="9.20354">
        <ele>1580.54</ele>
        <time>2012-08-04T10:34:35Z</time>
      </trkpt>
      <trkpt lat="46.43724" lon="9.2036">
        <ele>1579.1</ele>
        <time>2012-08-04T10:34:36Z</time>
      </trkpt>
      <trkpt lat="46.43691" lon="9.20365">
        <ele>1577.66</ele>
        <time>2012-08-04T10:34:38Z</time>
      </trkpt>
      <trkpt lat="46.43689" lon="9.20375">
        <ele>1576.22</ele>
        <time>2012-08-04T10:34:39Z</time>
      </trkpt>
      <trkpt lat="46.43646" lon="9.2038">
        <ele>1573.33</ele>
        <time>2012-08-04T10:34:42Z</time>
      </trkpt>
      <trkpt lat="46.43609" lon="9.20377">
        <ele>1569.97</ele>
        <time>2012-08-04T10:34:44Z</time>
      </trkpt>
      <trkpt lat="46.43558" lon="9.20381">
        <ele>1567.09</ele>
        <time>2012-08-04T10:34:47Z</time>
      </trkpt>
      <trkpt lat="46.43509" lon="9.20389">
        <ele>1563.72</ele>
        <time>2012-08-04T10:34:50Z</time>
      </trkpt>
      <trkpt lat="46.43444" lon="9.20406">
        <ele>1560.36</ele>
        <time>2012-08-04T10:34:54Z</time>
      </trkpt>
      <trkpt lat="46.4343" lon="9.20435">
        <ele>1557.47</ele>
        <time>2012-08-04T10:34:57Z</time>
      </trkpt>
      <trkpt lat="46.43424" lon="9.20437">
        <ele>1556.51</ele>
        <time>2012-08-04T10:34:58Z</time>
      </trkpt>
      <trkpt lat="46.43417" lon="9.20439">
        <ele>1556.51</ele>
        <time>2012-08-04T10:34:59Z</time>
      </trkpt>
      <trkpt lat="46.43419" lon="9.20449">
        <ele>1555.55</ele>
        <time>2012-08-04T10:35:01Z</time>
      </trkpt>
      <trkpt lat="46.4346" lon="9.2048">
        <ele>1555.55</ele>
        <time>2012-08-04T10:35:03Z</time>
      </trkpt>
      <trkpt lat="46.43469" lon="9.20481">
        <ele>1556.03</ele>
        <time>2012-08-04T10:35:04Z</time>
      </trkpt>
      <trkpt lat="46.43478" lon="9.2048">
        <ele>1555.55</ele>
        <time>2012-08-04T10:35:05Z</time>
      </trkpt>
      <trkpt lat="46.43505" lon="9.2048">
        <ele>1554.59</ele>
        <time>2012-08-04T10:35:07Z</time>
      </trkpt>
      <trkpt lat="46.43519" lon="9.20482">
        <ele>1554.11</ele>
        <time>2012-08-04T10:35:08Z</time>
      </trkpt>
      <trkpt lat="46.43572" lon="9.20496">
        <ele>1550.74</ele>
        <time>2012-08-04T10:35:12Z</time>
      </trkpt>
      <trkpt lat="46.43577" lon="9.20499">
        <ele>1549.78</ele>
        <time>2012-08-04T10:35:13Z</time>
      </trkpt>
      <trkpt lat="46.43586" lon="9.20506">
        <ele>1549.3</ele>
        <time>2012-08-04T10:35:14Z</time>
      </trkpt>
      <trkpt lat="46.43587" lon="9.20519">
        <ele>1548.34</ele>
        <time>2012-08-04T10:35:16Z</time>
      </trkpt>
      <trkpt lat="46.43583" lon="9.20524">
        <ele>1548.34</ele>
        <time>2012-08-04T10:35:17Z</time>
      </trkpt>
      <trkpt lat="46.43577" lon="9.20527">
        <ele>1548.82</ele>
        <time>2012-08-04T10:35:18Z</time>
      </trkpt>
      <trkpt lat="46.43569" lon="9.2053">
        <ele>1548.34</ele>
        <time>2012-08-04T10:35:19Z</time>
      </trkpt>
      <trkpt lat="46.43493" lon="9.20548">
        <ele>1545.94</ele>
        <time>2012-08-04T10:35:25Z</time>
      </trkpt>
      <trkpt lat="46.43454" lon="9.20545">
        <ele>1543.05</ele>
        <time>2012-08-04T10:35:28Z</time>
      </trkpt>
      <trkpt lat="46.43441" lon="9.2054">
        <ele>1541.61</ele>
        <time>2012-08-04T10:35:29Z</time>
      </trkpt>
      <trkpt lat="46.43413" lon="9.20527">
        <ele>1538.25</ele>
        <time>2012-08-04T10:35:32Z</time>
      </trkpt>
      <trkpt lat="46.43406" lon="9.20526">
        <ele>1538.25</ele>
        <time>2012-08-04T10:35:33Z</time>
      </trkpt>
      <trkpt lat="46.43398" lon="9.20527">
        <ele>1537.29</ele>
        <time>2012-08-04T10:35:34Z</time>
      </trkpt>
      <trkpt lat="46.4339" lon="9.20529">
        <ele>1536.8</ele>
        <time>2012-08-04T10:35:35Z</time>
      </trkpt>
      <trkpt lat="46.43383" lon="9.20529">
        <ele>1536.8</ele>
        <time>2012-08-04T10:35:36Z</time>
      </trkpt>
      <trkpt lat="46.43377" lon="9.20527">
        <ele>1536.32</ele>
        <time>2012-08-04T10:35:37Z</time>
      </trkpt>
      <trkpt lat="46.43377" lon="9.20523">
        <ele>1536.32</ele>
        <time>2012-08-04T10:35:38Z</time>
      </trkpt>
      <trkpt lat="46.43379" lon="9.20519">
        <ele>1536.32</ele>
        <time>2012-08-04T10:35:39Z</time>
      </trkpt>
      <trkpt lat="46.43385" lon="9.20519">
        <ele>1535.84</ele>
        <time>2012-08-04T10:35:40Z</time>
      </trkpt>
      <trkpt lat="46.43388" lon="9.20521">
        <ele>1535.36</ele>
        <time>2012-08-04T10:35:41Z</time>
      </trkpt>
      <trkpt lat="46.4348" lon="9.20607">
        <ele>1534.4</ele>
        <time>2012-08-04T10:35:43Z</time>
      </trkpt>
      <trkpt lat="46.43524" lon="9.20673">
        <ele>1531.04</ele>
        <time>2012-08-04T10:35:48Z</time>
      </trkpt>
      <trkpt lat="46.4353" lon="9.2069">
        <ele>1530.56</ele>
        <time>2012-08-04T10:35:49Z</time>
      </trkpt>
      <trkpt lat="46.43534" lon="9.20707">
        <ele>1528.63</ele>
        <time>2012-08-04T10:35:50Z</time>
      </trkpt>
      <trkpt lat="46.43534" lon="9.20738">
        <ele>1527.19</ele>
        <time>2012-08-04T10:35:52Z</time>
      </trkpt>
      <trkpt lat="46.43539" lon="9.20753">
        <ele>1526.23</ele>
        <time>2012-08-04T10:35:53Z</time>
      </trkpt>
      <trkpt lat="46.43546" lon="9.20766">
        <ele>1525.27</ele>
        <time>2012-08-04T10:35:54Z</time>
      </trkpt>
      <trkpt lat="46.43568" lon="9.20804">
        <ele>1521.9</ele>
        <time>2012-08-04T10:35:57Z</time>
      </trkpt>
      <trkpt lat="46.43575" lon="9.20818">
        <ele>1519.98</ele>
        <time>2012-08-04T10:35:59Z</time>
      </trkpt>
      <trkpt lat="46.4358" lon="9.20821">
        <ele>1519.5</ele>
        <time>2012-08-04T10:36:00Z</time>
      </trkpt>
      <trkpt lat="46.43586" lon="9.20821">
        <ele>1519.02</ele>
        <time>2012-08-04T10:36:01Z</time>
      </trkpt>
      <trkpt lat="46.43591" lon="9.20816">
        <ele>1518.54</ele>
        <time>2012-08-04T10:36:02Z</time>
      </trkpt>
      <trkpt lat="46.43596" lon="9.20809">
        <ele>1518.54</ele>
        <time>2012-08-04T10:36:03Z</time>
      </trkpt>
      <trkpt lat="46.436" lon="9.20798">
        <ele>1518.54</ele>
        <time>2012-08-04T10:36:04Z</time>
      </trkpt>
      <trkpt lat="46.43605" lon="9.20787">
        <ele>1518.06</ele>
        <time>2012-08-04T10:36:05Z</time>
      </trkpt>
      <trkpt lat="46.43618" lon="9.20763">
        <ele>1517.58</ele>
        <time>2012-08-04T10:36:07Z</time>
      </trkpt>
      <trkpt lat="46.43646" lon="9.20726">
        <ele>1514.21</ele>
        <time>2012-08-04T10:36:11Z</time>
      </trkpt>
      <trkpt lat="46.43651" lon="9.20719">
        <ele>1513.73</ele>
        <time>2012-08-04T10:36:12Z</time>
      </trkpt>
      <trkpt lat="46.43655" lon="9.20714">
        <ele>1513.73</ele>
        <time>2012-08-04T10:36:13Z</time>
      </trkpt>
      <trkpt lat="46.43658" lon="9.20713">
        <ele>1511.81</ele>
        <time>2012-08-04T10:36:14Z</time>
      </trkpt>
      <trkpt lat="46.4366" lon="9.20716">
        <ele>1512.29</ele>
        <time>2012-08-04T10:36:15Z</time>
      </trkpt>
      <trkpt lat="46.4366" lon="9.20722">
        <ele>1511.33</ele>
        <time>2012-08-04T10:36:16Z</time>
      </trkpt>
      <trkpt lat="46.43659" lon="9.2073">
        <ele>1511.33</ele>
        <time>2012-08-04T10:36:17Z</time>
      </trkpt>
      <trkpt lat="46.43656" lon="9.20739">
        <ele>1510.85</ele>
        <time>2012-08-04T10:36:18Z</time>
      </trkpt>
      <trkpt lat="46.4365" lon="9.20757">
        <ele>1509.89</ele>
        <time>2012-08-04T10:36:20Z</time>
      </trkpt>
      <trkpt lat="46.43651" lon="9.20766">
        <ele>1509.41</ele>
        <time>2012-08-04T10:36:21Z</time>
      </trkpt>
      <trkpt lat="46.43657" lon="9.20776">
        <ele>1509.41</ele>
        <time>2012-08-04T10:36:22Z</time>
      </trkpt>
      <trkpt lat="46.43665" lon="9.20784">
        <ele>1509.41</ele>
        <time>2012-08-04T10:36:23Z</time>
      </trkpt>
      <trkpt lat="46.43674" lon="9.20791">
        <ele>1508.93</ele>
        <time>2012-08-04T10:36:24Z</time>
      </trkpt>
      <trkpt lat="46.43684" lon="9.20798">
        <ele>1508.45</ele>
        <time>2012-08-04T10:36:25Z</time>
      </trkpt>
      <trkpt lat="46.43693" lon="9.20807">
        <ele>1506.52</ele>
        <time>2012-08-04T10:36:26Z</time>
      </trkpt>
      <trkpt lat="46.43701" lon="9.20818">
        <ele>1506.04</ele>
        <time>2012-08-04T10:36:27Z</time>
      </trkpt>
      <trkpt lat="46.43705" lon="9.2083">
        <ele>1504.6</ele>
        <time>2012-08-04T10:36:28Z</time>
      </trkpt>
      <trkpt lat="46.43708" lon="9.20844">
        <ele>1504.12</ele>
        <time>2012-08-04T10:36:29Z</time>
      </trkpt>
      <trkpt lat="46.43708" lon="9.2086">
        <ele>1504.12</ele>
        <time>2012-08-04T10:36:30Z</time>
      </trkpt>
      <trkpt lat="46.43708" lon="9.20878">
        <ele>1503.64</ele>
        <time>2012-08-04T10:36:31Z</time>
      </trkpt>
      <trkpt lat="46.43709" lon="9.20895">
        <ele>1502.68</ele>
        <time>2012-08-04T10:36:32Z</time>
      </trkpt>
      <trkpt lat="46.43711" lon="9.20935">
        <ele>1499.79</ele>
        <time>2012-08-04T10:36:35Z</time>
      </trkpt>
      <trkpt lat="46.43712" lon="9.20944">
        <ele>1499.79</ele>
        <time>2012-08-04T10:36:36Z</time>
      </trkpt>
      <trkpt lat="46.43715" lon="9.20949">
        <ele>1499.31</ele>
        <time>2012-08-04T10:36:37Z</time>
      </trkpt>
      <trkpt lat="46.43719" lon="9.2095">
        <ele>1498.83</ele>
        <time>2012-08-04T10:36:38Z</time>
      </trkpt>
      <trkpt lat="46.43724" lon="9.20946">
        <ele>1498.83</ele>
        <time>2012-08-04T10:36:39Z</time>
      </trkpt>
      <trkpt lat="46.43728" lon="9.2094">
        <ele>1497.87</ele>
        <time>2012-08-04T10:36:40Z</time>
      </trkpt>
      <trkpt lat="46.43752" lon="9.20886">
        <ele>1498.35</ele>
        <time>2012-08-04T10:36:45Z</time>
      </trkpt>
      <trkpt lat="46.43751" lon="9.20844">
        <ele>1496.43</ele>
        <time>2012-08-04T10:36:47Z</time>
      </trkpt>
      <trkpt lat="46.4375" lon="9.20825">
        <ele>1495.95</ele>
        <time>2012-08-04T10:36:48Z</time>
      </trkpt>
      <trkpt lat="46.43748" lon="9.20808">
        <ele>1494.51</ele>
        <time>2012-08-04T10:36:49Z</time>
      </trkpt>
      <trkpt lat="46.43743" lon="9.20764">
        <ele>1491.62</ele>
        <time>2012-08-04T10:36:52Z</time>
      </trkpt>
      <trkpt lat="46.43743" lon="9.20742">
        <ele>1489.7</ele>
        <time>2012-08-04T10:36:54Z</time>
      </trkpt>
      <trkpt lat="46.43744" lon="9.20736">
        <ele>1488.74</ele>
        <time>2012-08-04T10:36:55Z</time>
      </trkpt>
      <trkpt lat="46.43747" lon="9.20733">
        <ele>1488.74</ele>
        <time>2012-08-04T10:36:56Z</time>
      </trkpt>
      <trkpt lat="46.4375" lon="9.20738">
        <ele>1489.22</ele>
        <time>2012-08-04T10:36:57Z</time>
      </trkpt>
      <trkpt lat="46.43751" lon="9.20747">
        <ele>1489.22</ele>
        <time>2012-08-04T10:36:58Z</time>
      </trkpt>
      <trkpt lat="46.43751" lon="9.20759">
        <ele>1489.22</ele>
        <time>2012-08-04T10:36:59Z</time>
      </trkpt>
      <trkpt lat="46.43757" lon="9.20873">
        <ele>1484.89</ele>
        <time>2012-08-04T10:37:05Z</time>
      </trkpt>
      <trkpt lat="46.43759" lon="9.20931">
        <ele>1481.05</ele>
        <time>2012-08-04T10:37:08Z</time>
      </trkpt>
      <trkpt lat="46.43758" lon="9.20951">
        <ele>1479.61</ele>
        <time>2012-08-04T10:37:09Z</time>
      </trkpt>
      <trkpt lat="46.4376" lon="9.20973">
        <ele>1478.16</ele>
        <time>2012-08-04T10:37:10Z</time>
      </trkpt>
      <trkpt lat="46.43764" lon="9.21042">
        <ele>1474.32</ele>
        <time>2012-08-04T10:37:13Z</time>
      </trkpt>
      <trkpt lat="46.43763" lon="9.21058">
        <ele>1472.88</ele>
        <time>2012-08-04T10:37:14Z</time>
      </trkpt>
      <trkpt lat="46.43761" lon="9.21073">
        <ele>1471.92</ele>
        <time>2012-08-04T10:37:15Z</time>
      </trkpt>
      <trkpt lat="46.43755" lon="9.21084">
        <ele>1470.95</ele>
        <time>2012-08-04T10:37:16Z</time>
      </trkpt>
      <trkpt lat="46.43749" lon="9.21095">
        <ele>1469.51</ele>
        <time>2012-08-04T10:37:17Z</time>
      </trkpt>
      <trkpt lat="46.43716" lon="9.21083">
        <ele>1469.03</ele>
        <time>2012-08-04T10:37:18Z</time>
      </trkpt>
      <trkpt lat="46.43702" lon="9.21094">
        <ele>1467.59</ele>
        <time>2012-08-04T10:37:19Z</time>
      </trkpt>
      <trkpt lat="46.43694" lon="9.21101">
        <ele>1467.11</ele>
        <time>2012-08-04T10:37:20Z</time>
      </trkpt>
      <trkpt lat="46.43669" lon="9.21098">
        <ele>1465.19</ele>
        <time>2012-08-04T10:37:21Z</time>
      </trkpt>
      <trkpt lat="46.43663" lon="9.21108">
        <ele>1463.74</ele>
        <time>2012-08-04T10:37:22Z</time>
      </trkpt>
      <trkpt lat="46.43661" lon="9.21117">
        <ele>1462.78</ele>
        <time>2012-08-04T10:37:23Z</time>
      </trkpt>
      <trkpt lat="46.43661" lon="9.21124">
        <ele>1461.82</ele>
        <time>2012-08-04T10:37:24Z</time>
      </trkpt>
      <trkpt lat="46.43662" lon="9.21129">
        <ele>1461.34</ele>
        <time>2012-08-04T10:37:25Z</time>
      </trkpt>
      <trkpt lat="46.43665" lon="9.21132">
        <ele>1461.34</ele>
        <time>2012-08-04T10:37:26Z</time>
      </trkpt>
      <trkpt lat="46.43668" lon="9.21135">
        <ele>1460.86</ele>
        <time>2012-08-04T10:37:27Z</time>
      </trkpt>
      <trkpt lat="46.43683" lon="9.21136">
        <ele>1459.9</ele>
        <time>2012-08-04T10:37:32Z</time>
      </trkpt>
      <trkpt lat="46.43725" lon="9.211">
        <ele>1457.98</ele>
        <time>2012-08-04T10:37:39Z</time>
      </trkpt>
      <trkpt lat="46.43736" lon="9.21089">
        <ele>1456.53</ele>
        <time>2012-08-04T10:37:40Z</time>
      </trkpt>
      <trkpt lat="46.43754" lon="9.21075">
        <ele>1453.65</ele>
        <time>2012-08-04T10:37:43Z</time>
      </trkpt>
      <trkpt lat="46.4376" lon="9.21074">
        <ele>1452.69</ele>
        <time>2012-08-04T10:37:44Z</time>
      </trkpt>
      <trkpt lat="46.43764" lon="9.21076">
        <ele>1452.21</ele>
        <time>2012-08-04T10:37:45Z</time>
      </trkpt>
      <trkpt lat="46.43767" lon="9.21082">
        <ele>1451.73</ele>
        <time>2012-08-04T10:37:46Z</time>
      </trkpt>
      <trkpt lat="46.43765" lon="9.21112">
        <ele>1451.73</ele>
        <time>2012-08-04T10:37:49Z</time>
      </trkpt>
      <trkpt lat="46.43762" lon="9.21124">
        <ele>1452.21</ele>
        <time>2012-08-04T10:37:50Z</time>
      </trkpt>
      <trkpt lat="46.43752" lon="9.21155">
        <ele>1450.77</ele>
        <time>2012-08-04T10:37:52Z</time>
      </trkpt>
      <trkpt lat="46.43744" lon="9.2117">
        <ele>1449.32</ele>
        <time>2012-08-04T10:37:53Z</time>
      </trkpt>
      <trkpt lat="46.43732" lon="9.21183">
        <ele>1447.88</ele>
        <time>2012-08-04T10:37:54Z</time>
      </trkpt>
      <trkpt lat="46.43716" lon="9.21192">
        <ele>1446.44</ele>
        <time>2012-08-04T10:37:55Z</time>
      </trkpt>
      <trkpt lat="46.437" lon="9.21198">
        <ele>1444.52</ele>
        <time>2012-08-04T10:37:56Z</time>
      </trkpt>
      <trkpt lat="46.43657" lon="9.21192">
        <ele>1442.6</ele>
        <time>2012-08-04T10:37:58Z</time>
      </trkpt>
      <trkpt lat="46.43641" lon="9.2119">
        <ele>1442.6</ele>
        <time>2012-08-04T10:37:59Z</time>
      </trkpt>
      <trkpt lat="46.43628" lon="9.21186">
        <ele>1441.15</ele>
        <time>2012-08-04T10:38:00Z</time>
      </trkpt>
      <trkpt lat="46.43615" lon="9.21176">
        <ele>1439.23</ele>
        <time>2012-08-04T10:38:01Z</time>
      </trkpt>
      <trkpt lat="46.43593" lon="9.21158">
        <ele>1437.79</ele>
        <time>2012-08-04T10:38:03Z</time>
      </trkpt>
      <trkpt lat="46.43582" lon="9.21157">
        <ele>1436.35</ele>
        <time>2012-08-04T10:38:04Z</time>
      </trkpt>
      <trkpt lat="46.43571" lon="9.21159">
        <ele>1435.39</ele>
        <time>2012-08-04T10:38:05Z</time>
      </trkpt>
      <trkpt lat="46.43561" lon="9.21162">
        <ele>1433.94</ele>
        <time>2012-08-04T10:38:06Z</time>
      </trkpt>
      <trkpt lat="46.4355" lon="9.21162">
        <ele>1432.5</ele>
        <time>2012-08-04T10:38:07Z</time>
      </trkpt>
      <trkpt lat="46.43542" lon="9.21161">
        <ele>1431.54</ele>
        <time>2012-08-04T10:38:08Z</time>
      </trkpt>
      <trkpt lat="46.43536" lon="9.21165">
        <ele>1431.06</ele>
        <time>2012-08-04T10:38:09Z</time>
      </trkpt>
      <trkpt lat="46.43526" lon="9.21176">
        <ele>1429.62</ele>
        <time>2012-08-04T10:38:13Z</time>
      </trkpt>
      <trkpt lat="46.4354" lon="9.21177">
        <ele>1430.1</ele>
        <time>2012-08-04T10:38:14Z</time>
      </trkpt>
      <trkpt lat="46.43554" lon="9.21176">
        <ele>1429.62</ele>
        <time>2012-08-04T10:38:15Z</time>
      </trkpt>
      <trkpt lat="46.43565" lon="9.21177">
        <ele>1429.14</ele>
        <time>2012-08-04T10:38:16Z</time>
      </trkpt>
      <trkpt lat="46.43578" lon="9.21186">
        <ele>1428.18</ele>
        <time>2012-08-04T10:38:18Z</time>
      </trkpt>
      <trkpt lat="46.4359" lon="9.21199">
        <ele>1427.7</ele>
        <time>2012-08-04T10:38:19Z</time>
      </trkpt>
      <trkpt lat="46.43601" lon="9.21208">
        <ele>1426.73</ele>
        <time>2012-08-04T10:38:20Z</time>
      </trkpt>
      <trkpt lat="46.4361" lon="9.21215">
        <ele>1426.25</ele>
        <time>2012-08-04T10:38:21Z</time>
      </trkpt>
      <trkpt lat="46.4364" lon="9.21232">
        <ele>1423.37</ele>
        <time>2012-08-04T10:38:24Z</time>
      </trkpt>
      <trkpt lat="46.43654" lon="9.21236">
        <ele>1422.41</ele>
        <time>2012-08-04T10:38:25Z</time>
      </trkpt>
      <trkpt lat="46.43681" lon="9.21228">
        <ele>1422.41</ele>
        <time>2012-08-04T10:38:27Z</time>
      </trkpt>
      <trkpt lat="46.43694" lon="9.21223">
        <ele>1417.12</ele>
        <time>2012-08-04T10:38:28Z</time>
      </trkpt>
      <trkpt lat="46.43707" lon="9.21217">
        <ele>1416.16</ele>
        <time>2012-08-04T10:38:29Z</time>
      </trkpt>
      <trkpt lat="46.43735" lon="9.21199">
        <ele>1412.79</ele>
        <time>2012-08-04T10:38:33Z</time>
      </trkpt>
      <trkpt lat="46.43733" lon="9.21203">
        <ele>1412.79</ele>
        <time>2012-08-04T10:38:34Z</time>
      </trkpt>
      <trkpt lat="46.43707" lon="9.2122">
        <ele>1411.83</ele>
        <time>2012-08-04T10:38:37Z</time>
      </trkpt>
      <trkpt lat="46.43698" lon="9.2123">
        <ele>1411.35</ele>
        <time>2012-08-04T10:38:38Z</time>
      </trkpt>
      <trkpt lat="46.43675" lon="9.21254">
        <ele>1409.43</ele>
        <time>2012-08-04T10:38:40Z</time>
      </trkpt>
      <trkpt lat="46.43661" lon="9.21264">
        <ele>1407.51</ele>
        <time>2012-08-04T10:38:41Z</time>
      </trkpt>
      <trkpt lat="46.43635" lon="9.21261">
        <ele>1407.51</ele>
        <time>2012-08-04T10:38:42Z</time>
      </trkpt>
      <trkpt lat="46.43611" lon="9.21259">
        <ele>1404.62</ele>
        <time>2012-08-04T10:38:43Z</time>
      </trkpt>
      <trkpt lat="46.4359" lon="9.21258">
        <ele>1402.22</ele>
        <time>2012-08-04T10:38:44Z</time>
      </trkpt>
      <trkpt lat="46.43572" lon="9.21259">
        <ele>1400.78</ele>
        <time>2012-08-04T10:38:45Z</time>
      </trkpt>
      <trkpt lat="46.43555" lon="9.21258">
        <ele>1399.34</ele>
        <time>2012-08-04T10:38:46Z</time>
      </trkpt>
      <trkpt lat="46.43539" lon="9.21255">
        <ele>1397.41</ele>
        <time>2012-08-04T10:38:47Z</time>
      </trkpt>
      <trkpt lat="46.43508" lon="9.21248">
        <ele>1393.57</ele>
        <time>2012-08-04T10:38:49Z</time>
      </trkpt>
      <trkpt lat="46.43493" lon="9.2125">
        <ele>1393.09</ele>
        <time>2012-08-04T10:38:50Z</time>
      </trkpt>
      <trkpt lat="46.4346" lon="9.21256">
        <ele>1389.72</ele>
        <time>2012-08-04T10:38:52Z</time>
      </trkpt>
      <trkpt lat="46.43444" lon="9.21259">
        <ele>1387.32</ele>
        <time>2012-08-04T10:38:53Z</time>
      </trkpt>
      <trkpt lat="46.43431" lon="9.21262">
        <ele>1385.4</ele>
        <time>2012-08-04T10:38:54Z</time>
      </trkpt>
      <trkpt lat="46.43411" lon="9.21267">
        <ele>1382.51</ele>
        <time>2012-08-04T10:38:56Z</time>
      </trkpt>
      <trkpt lat="46.43404" lon="9.2127">
        <ele>1382.03</ele>
        <time>2012-08-04T10:38:57Z</time>
      </trkpt>
      <trkpt lat="46.43399" lon="9.21273">
        <ele>1381.07</ele>
        <time>2012-08-04T10:38:58Z</time>
      </trkpt>
      <trkpt lat="46.43394" lon="9.21277">
        <ele>1380.59</ele>
        <time>2012-08-04T10:38:59Z</time>
      </trkpt>
      <trkpt lat="46.43407" lon="9.21289">
        <ele>1380.59</ele>
        <time>2012-08-04T10:39:01Z</time>
      </trkpt>
      <trkpt lat="46.43416" lon="9.2129">
        <ele>1381.07</ele>
        <time>2012-08-04T10:39:02Z</time>
      </trkpt>
      <trkpt lat="46.43437" lon="9.21281">
        <ele>1380.59</ele>
        <time>2012-08-04T10:39:04Z</time>
      </trkpt>
      <trkpt lat="46.43452" lon="9.21278">
        <ele>1379.15</ele>
        <time>2012-08-04T10:39:05Z</time>
      </trkpt>
      <trkpt lat="46.43466" lon="9.21278">
        <ele>1377.71</ele>
        <time>2012-08-04T10:39:06Z</time>
      </trkpt>
      <trkpt lat="46.43479" lon="9.2128">
        <ele>1376.75</ele>
        <time>2012-08-04T10:39:07Z</time>
      </trkpt>
      <trkpt lat="46.43489" lon="9.21284">
        <ele>1375.78</ele>
        <time>2012-08-04T10:39:08Z</time>
      </trkpt>
      <trkpt lat="46.43495" lon="9.21289">
        <ele>1375.3</ele>
        <time>2012-08-04T10:39:09Z</time>
      </trkpt>
      <trkpt lat="46.43499" lon="9.21296">
        <ele>1375.3</ele>
        <time>2012-08-04T10:39:10Z</time>
      </trkpt>
      <trkpt lat="46.43503" lon="9.21304">
        <ele>1374.82</ele>
        <time>2012-08-04T10:39:11Z</time>
      </trkpt>
      <trkpt lat="46.43506" lon="9.2132">
        <ele>1373.38</ele>
        <time>2012-08-04T10:39:13Z</time>
      </trkpt>
      <trkpt lat="46.43506" lon="9.21333">
        <ele>1371.94</ele>
        <time>2012-08-04T10:39:14Z</time>
      </trkpt>
      <trkpt lat="46.43504" lon="9.21351">
        <ele>1370.02</ele>
        <time>2012-08-04T10:39:15Z</time>
      </trkpt>
      <trkpt lat="46.43502" lon="9.21372">
        <ele>1369.05</ele>
        <time>2012-08-04T10:39:16Z</time>
      </trkpt>
      <trkpt lat="46.43499" lon="9.21392">
        <ele>1367.61</ele>
        <time>2012-08-04T10:39:17Z</time>
      </trkpt>
      <trkpt lat="46.43493" lon="9.21409">
        <ele>1366.65</ele>
        <time>2012-08-04T10:39:18Z</time>
      </trkpt>
      <trkpt lat="46.43482" lon="9.21421">
        <ele>1365.21</ele>
        <time>2012-08-04T10:39:19Z</time>
      </trkpt>
      <trkpt lat="46.43476" lon="9.21437">
        <ele>1363.77</ele>
        <time>2012-08-04T10:39:20Z</time>
      </trkpt>
      <trkpt lat="46.43478" lon="9.21456">
        <ele>1362.81</ele>
        <time>2012-08-04T10:39:21Z</time>
      </trkpt>
      <trkpt lat="46.4349" lon="9.21482">
        <ele>1361.36</ele>
        <time>2012-08-04T10:39:22Z</time>
      </trkpt>
      <trkpt lat="46.43491" lon="9.21497">
        <ele>1358.96</ele>
        <time>2012-08-04T10:39:23Z</time>
      </trkpt>
      <trkpt lat="46.43491" lon="9.21511">
        <ele>1358.48</ele>
        <time>2012-08-04T10:39:24Z</time>
      </trkpt>
      <trkpt lat="46.43489" lon="9.21523">
        <ele>1358</ele>
        <time>2012-08-04T10:39:25Z</time>
      </trkpt>
      <trkpt lat="46.43488" lon="9.21535">
        <ele>1357.52</ele>
        <time>2012-08-04T10:39:26Z</time>
      </trkpt>
      <trkpt lat="46.43487" lon="9.21545">
        <ele>1357.52</ele>
        <time>2012-08-04T10:39:27Z</time>
      </trkpt>
      <trkpt lat="46.43484" lon="9.21555">
        <ele>1357.52</ele>
        <time>2012-08-04T10:39:28Z</time>
      </trkpt>
      <trkpt lat="46.43481" lon="9.21563">
        <ele>1357.04</ele>
        <time>2012-08-04T10:39:29Z</time>
      </trkpt>
      <trkpt lat="46.43477" lon="9.21569">
        <ele>1356.08</ele>
        <time>2012-08-04T10:39:30Z</time>
      </trkpt>
      <trkpt lat="46.43473" lon="9.21573">
        <ele>1355.12</ele>
        <time>2012-08-04T10:39:31Z</time>
      </trkpt>
      <trkpt lat="46.43462" lon="9.21583">
        <ele>1352.71</ele>
        <time>2012-08-04T10:39:33Z</time>
      </trkpt>
      <trkpt lat="46.43452" lon="9.21586">
        <ele>1352.23</ele>
        <time>2012-08-04T10:39:34Z</time>
      </trkpt>
      <trkpt lat="46.43433" lon="9.21595">
        <ele>1350.79</ele>
        <time>2012-08-04T10:39:36Z</time>
      </trkpt>
      <trkpt lat="46.43414" lon="9.21589">
        <ele>1349.35</ele>
        <time>2012-08-04T10:39:38Z</time>
      </trkpt>
      <trkpt lat="46.43411" lon="9.21587">
        <ele>1348.87</ele>
        <time>2012-08-04T10:39:39Z</time>
      </trkpt>
      <trkpt lat="46.43395" lon="9.21563">
        <ele>1348.39</ele>
        <time>2012-08-04T10:39:40Z</time>
      </trkpt>
      <trkpt lat="46.43393" lon="9.21552">
        <ele>1348.87</ele>
        <time>2012-08-04T10:39:41Z</time>
      </trkpt>
      <trkpt lat="46.43394" lon="9.21541">
        <ele>1348.87</ele>
        <time>2012-08-04T10:39:42Z</time>
      </trkpt>
      <trkpt lat="46.43408" lon="9.21507">
        <ele>1348.87</ele>
        <time>2012-08-04T10:39:45Z</time>
      </trkpt>
      <trkpt lat="46.43414" lon="9.21492">
        <ele>1348.39</ele>
        <time>2012-08-04T10:39:46Z</time>
      </trkpt>
      <trkpt lat="46.43419" lon="9.21477">
        <ele>1347.43</ele>
        <time>2012-08-04T10:39:47Z</time>
      </trkpt>
      <trkpt lat="46.43425" lon="9.2145">
        <ele>1345.5</ele>
        <time>2012-08-04T10:39:49Z</time>
      </trkpt>
      <trkpt lat="46.43427" lon="9.21419">
        <ele>1343.58</ele>
        <time>2012-08-04T10:39:52Z</time>
      </trkpt>
      <trkpt lat="46.43422" lon="9.21412">
        <ele>1343.1</ele>
        <time>2012-08-04T10:39:53Z</time>
      </trkpt>
      <trkpt lat="46.43414" lon="9.21408">
        <ele>1342.14</ele>
        <time>2012-08-04T10:39:54Z</time>
      </trkpt>
      <trkpt lat="46.43405" lon="9.21407">
        <ele>1342.14</ele>
        <time>2012-08-04T10:39:55Z</time>
      </trkpt>
      <trkpt lat="46.43382" lon="9.2141">
        <ele>1341.66</ele>
        <time>2012-08-04T10:39:57Z</time>
      </trkpt>
      <trkpt lat="46.43368" lon="9.2141">
        <ele>1340.22</ele>
        <time>2012-08-04T10:39:58Z</time>
      </trkpt>
      <trkpt lat="46.43343" lon="9.21411">
        <ele>1336.85</ele>
        <time>2012-08-04T10:40:00Z</time>
      </trkpt>
      <trkpt lat="46.43331" lon="9.21412">
        <ele>1335.41</ele>
        <time>2012-08-04T10:40:01Z</time>
      </trkpt>
      <trkpt lat="46.43315" lon="9.2142">
        <ele>1333.01</ele>
        <time>2012-08-04T10:40:03Z</time>
      </trkpt>
      <trkpt lat="46.43296" lon="9.21447">
        <ele>1332.04</ele>
        <time>2012-08-04T10:40:06Z</time>
      </trkpt>
      <trkpt lat="46.43272" lon="9.21478">
        <ele>1330.12</ele>
        <time>2012-08-04T10:40:09Z</time>
      </trkpt>
      <trkpt lat="46.43262" lon="9.21486">
        <ele>1330.12</ele>
        <time>2012-08-04T10:40:10Z</time>
      </trkpt>
      <trkpt lat="46.43251" lon="9.21492">
        <ele>1330.12</ele>
        <time>2012-08-04T10:40:11Z</time>
      </trkpt>
      <trkpt lat="46.4324" lon="9.21498">
        <ele>1325.31</ele>
        <time>2012-08-04T10:40:12Z</time>
      </trkpt>
      <trkpt lat="46.43218" lon="9.21508">
        <ele>1322.91</ele>
        <time>2012-08-04T10:40:14Z</time>
      </trkpt>
      <trkpt lat="46.43197" lon="9.21518">
        <ele>1321.47</ele>
        <time>2012-08-04T10:40:16Z</time>
      </trkpt>
      <trkpt lat="46.43182" lon="9.21526">
        <ele>1319.55</ele>
        <time>2012-08-04T10:40:17Z</time>
      </trkpt>
      <trkpt lat="46.43157" lon="9.21535">
        <ele>1316.66</ele>
        <time>2012-08-04T10:40:19Z</time>
      </trkpt>
      <trkpt lat="46.43131" lon="9.21542">
        <ele>1314.74</ele>
        <time>2012-08-04T10:40:21Z</time>
      </trkpt>
      <trkpt lat="46.43122" lon="9.21548">
        <ele>1313.78</ele>
        <time>2012-08-04T10:40:22Z</time>
      </trkpt>
      <trkpt lat="46.4312" lon="9.21558">
        <ele>1312.82</ele>
        <time>2012-08-04T10:40:23Z</time>
      </trkpt>
      <trkpt lat="46.4312" lon="9.21577">
        <ele>1311.86</ele>
        <time>2012-08-04T10:40:25Z</time>
      </trkpt>
      <trkpt lat="46.43117" lon="9.21579">
        <ele>1311.38</ele>
        <time>2012-08-04T10:40:26Z</time>
      </trkpt>
      <trkpt lat="46.43115" lon="9.21571">
        <ele>1310.9</ele>
        <time>2012-08-04T10:40:28Z</time>
      </trkpt>
      <trkpt lat="46.43117" lon="9.21564">
        <ele>1310.9</ele>
        <time>2012-08-04T10:40:29Z</time>
      </trkpt>
      <trkpt lat="46.4312" lon="9.21555">
        <ele>1310.41</ele>
        <time>2012-08-04T10:40:30Z</time>
      </trkpt>
      <trkpt lat="46.43125" lon="9.21545">
        <ele>1310.9</ele>
        <time>2012-08-04T10:40:31Z</time>
      </trkpt>
      <trkpt lat="46.43147" lon="9.21476">
        <ele>1307.53</ele>
        <time>2012-08-04T10:40:37Z</time>
      </trkpt>
      <trkpt lat="46.43154" lon="9.21448">
        <ele>1306.09</ele>
        <time>2012-08-04T10:40:39Z</time>
      </trkpt>
      <trkpt lat="46.4316" lon="9.21437">
        <ele>1305.61</ele>
        <time>2012-08-04T10:40:40Z</time>
      </trkpt>
      <trkpt lat="46.43172" lon="9.21413">
        <ele>1303.69</ele>
        <time>2012-08-04T10:40:43Z</time>
      </trkpt>
      <trkpt lat="46.43173" lon="9.21404">
        <ele>1302.72</ele>
        <time>2012-08-04T10:40:45Z</time>
      </trkpt>
      <trkpt lat="46.43166" lon="9.21409">
        <ele>1302.72</ele>
        <time>2012-08-04T10:40:50Z</time>
      </trkpt>
      <trkpt lat="46.43163" lon="9.21415">
        <ele>1303.69</ele>
        <time>2012-08-04T10:40:51Z</time>
      </trkpt>
      <trkpt lat="46.43161" lon="9.21425">
        <ele>1305.13</ele>
        <time>2012-08-04T10:40:52Z</time>
      </trkpt>
      <trkpt lat="46.4315" lon="9.21481">
        <ele>1308.01</ele>
        <time>2012-08-04T10:40:56Z</time>
      </trkpt>
      <trkpt lat="46.43142" lon="9.21529">
        <ele>1310.41</ele>
        <time>2012-08-04T10:40:59Z</time>
      </trkpt>
      <trkpt lat="46.43135" lon="9.21564">
        <ele>1311.86</ele>
        <time>2012-08-04T10:41:01Z</time>
      </trkpt>
      <trkpt lat="46.43134" lon="9.2157">
        <ele>1311.86</ele>
        <time>2012-08-04T10:41:02Z</time>
      </trkpt>
      <trkpt lat="46.43133" lon="9.21586">
        <ele>1312.34</ele>
        <time>2012-08-04T10:41:04Z</time>
      </trkpt>
      <trkpt lat="46.43136" lon="9.21592">
        <ele>1312.34</ele>
        <time>2012-08-04T10:41:05Z</time>
      </trkpt>
      <trkpt lat="46.43143" lon="9.21597">
        <ele>1312.82</ele>
        <time>2012-08-04T10:41:06Z</time>
      </trkpt>
      <trkpt lat="46.43149" lon="9.21594">
        <ele>1312.82</ele>
        <time>2012-08-04T10:41:07Z</time>
      </trkpt>
      <trkpt lat="46.43153" lon="9.21592">
        <ele>1313.78</ele>
        <time>2012-08-04T10:41:08Z</time>
      </trkpt>
      <trkpt lat="46.43298" lon="9.21501">
        <ele>1322.43</ele>
        <time>2012-08-04T11:30:46Z</time>
      </trkpt>
      <trkpt lat="46.43296" lon="9.21502">
        <ele>1322.43</ele>
        <time>2012-08-04T11:30:47Z</time>
      </trkpt>
      <trkpt lat="46.43291" lon="9.21508">
        <ele>1322.43</ele>
        <time>2012-08-04T11:30:49Z</time>
      </trkpt>
      <trkpt lat="46.43304" lon="9.21544">
        <ele>1323.39</ele>
        <time>2012-08-04T11:31:01Z</time>
      </trkpt>
      <trkpt lat="46.43319" lon="9.21548">
        <ele>1323.39</ele>
        <time>2012-08-04T11:31:17Z</time>
      </trkpt>
      <trkpt lat="46.43329" lon="9.21552">
        <ele>1321.95</ele>
        <time>2012-08-04T11:31:44Z</time>
      </trkpt>
      <trkpt lat="46.43336" lon="9.21551">
        <ele>1322.91</ele>
        <time>2012-08-04T11:31:59Z</time>
      </trkpt>
      <trkpt lat="46.43342" lon="9.21539">
        <ele>1322.91</ele>
        <time>2012-08-04T11:32:03Z</time>
      </trkpt>
      <trkpt lat="46.43342" lon="9.21523">
        <ele>1320.51</ele>
        <time>2012-08-04T11:32:15Z</time>
      </trkpt>
      <trkpt lat="46.43334" lon="9.21527">
        <ele>1318.1</ele>
        <time>2012-08-04T11:32:20Z</time>
      </trkpt>
      <trkpt lat="46.43331" lon="9.2153">
        <ele>1317.14</ele>
        <time>2012-08-04T11:32:21Z</time>
      </trkpt>
      <trkpt lat="46.43308" lon="9.21544">
        <ele>1313.78</ele>
        <time>2012-08-04T11:32:25Z</time>
      </trkpt>
      <trkpt lat="46.43279" lon="9.21561">
        <ele>1309.45</ele>
        <time>2012-08-04T11:32:29Z</time>
      </trkpt>
      <trkpt lat="46.43255" lon="9.21573">
        <ele>1306.09</ele>
        <time>2012-08-04T11:32:32Z</time>
      </trkpt>
      <trkpt lat="46.4323" lon="9.2159">
        <ele>1302.24</ele>
        <time>2012-08-04T11:32:35Z</time>
      </trkpt>
      <trkpt lat="46.43224" lon="9.21598">
        <ele>1301.28</ele>
        <time>2012-08-04T11:32:36Z</time>
      </trkpt>
      <trkpt lat="46.43219" lon="9.21609">
        <ele>1299.84</ele>
        <time>2012-08-04T11:32:37Z</time>
      </trkpt>
      <trkpt lat="46.43216" lon="9.21618">
        <ele>1299.36</ele>
        <time>2012-08-04T11:32:38Z</time>
      </trkpt>
      <trkpt lat="46.43213" lon="9.21624">
        <ele>1297.92</ele>
        <time>2012-08-04T11:32:39Z</time>
      </trkpt>
      <trkpt lat="46.4321" lon="9.21627">
        <ele>1297.44</ele>
        <time>2012-08-04T11:32:40Z</time>
      </trkpt>
      <trkpt lat="46.43207" lon="9.21625">
        <ele>1296.96</ele>
        <time>2012-08-04T11:32:41Z</time>
      </trkpt>
      <trkpt lat="46.43205" lon="9.21621">
        <ele>1295.99</ele>
        <time>2012-08-04T11:32:42Z</time>
      </trkpt>
      <trkpt lat="46.43204" lon="9.21616">
        <ele>1295.51</ele>
        <time>2012-08-04T11:32:43Z</time>
      </trkpt>
      <trkpt lat="46.43205" lon="9.21608">
        <ele>1295.03</ele>
        <time>2012-08-04T11:32:44Z</time>
      </trkpt>
      <trkpt lat="46.43208" lon="9.21597">
        <ele>1294.55</ele>
        <time>2012-08-04T11:32:45Z</time>
      </trkpt>
      <trkpt lat="46.43212" lon="9.21584">
        <ele>1294.55</ele>
        <time>2012-08-04T11:32:46Z</time>
      </trkpt>
      <trkpt lat="46.43222" lon="9.21535">
        <ele>1291.19</ele>
        <time>2012-08-04T11:32:49Z</time>
      </trkpt>
      <trkpt lat="46.4323" lon="9.21504">
        <ele>1288.78</ele>
        <time>2012-08-04T11:32:51Z</time>
      </trkpt>
      <trkpt lat="46.43235" lon="9.21492">
        <ele>1285.9</ele>
        <time>2012-08-04T11:32:52Z</time>
      </trkpt>
      <trkpt lat="46.43244" lon="9.21472">
        <ele>1283.5</ele>
        <time>2012-08-04T11:32:54Z</time>
      </trkpt>
      <trkpt lat="46.43246" lon="9.21464">
        <ele>1282.54</ele>
        <time>2012-08-04T11:32:55Z</time>
      </trkpt>
      <trkpt lat="46.43246" lon="9.21456">
        <ele>1282.06</ele>
        <time>2012-08-04T11:32:56Z</time>
      </trkpt>
      <trkpt lat="46.43245" lon="9.2145">
        <ele>1281.09</ele>
        <time>2012-08-04T11:32:57Z</time>
      </trkpt>
      <trkpt lat="46.43242" lon="9.21447">
        <ele>1280.61</ele>
        <time>2012-08-04T11:32:58Z</time>
      </trkpt>
      <trkpt lat="46.43237" lon="9.21447">
        <ele>1280.13</ele>
        <time>2012-08-04T11:32:59Z</time>
      </trkpt>
      <trkpt lat="46.4323" lon="9.21451">
        <ele>1279.65</ele>
        <time>2012-08-04T11:33:00Z</time>
      </trkpt>
      <trkpt lat="46.43222" lon="9.21459">
        <ele>1278.69</ele>
        <time>2012-08-04T11:33:01Z</time>
      </trkpt>
      <trkpt lat="46.43212" lon="9.21468">
        <ele>1278.21</ele>
        <time>2012-08-04T11:33:02Z</time>
      </trkpt>
      <trkpt lat="46.43183" lon="9.21498">
        <ele>1272.92</ele>
        <time>2012-08-04T11:33:05Z</time>
      </trkpt>
      <trkpt lat="46.43176" lon="9.21507">
        <ele>1271</ele>
        <time>2012-08-04T11:33:06Z</time>
      </trkpt>
      <trkpt lat="46.43172" lon="9.21516">
        <ele>1270.04</ele>
        <time>2012-08-04T11:33:07Z</time>
      </trkpt>
      <trkpt lat="46.43166" lon="9.21529">
        <ele>1267.64</ele>
        <time>2012-08-04T11:33:09Z</time>
      </trkpt>
      <trkpt lat="46.43162" lon="9.2153">
        <ele>1266.67</ele>
        <time>2012-08-04T11:33:10Z</time>
      </trkpt>
      <trkpt lat="46.4316" lon="9.21527">
        <ele>1266.19</ele>
        <time>2012-08-04T11:33:11Z</time>
      </trkpt>
      <trkpt lat="46.43158" lon="9.2152">
        <ele>1265.23</ele>
        <time>2012-08-04T11:33:12Z</time>
      </trkpt>
      <trkpt lat="46.43158" lon="9.2151">
        <ele>1265.23</ele>
        <time>2012-08-04T11:33:13Z</time>
      </trkpt>
      <trkpt lat="46.43159" lon="9.21498">
        <ele>1264.75</ele>
        <time>2012-08-04T11:33:14Z</time>
      </trkpt>
      <trkpt lat="46.43161" lon="9.21467">
        <ele>1264.27</ele>
        <time>2012-08-04T11:33:16Z</time>
      </trkpt>
      <trkpt lat="46.43166" lon="9.21447">
        <ele>1262.35</ele>
        <time>2012-08-04T11:33:17Z</time>
      </trkpt>
      <trkpt lat="46.43178" lon="9.21415">
        <ele>1258.5</ele>
        <time>2012-08-04T11:33:19Z</time>
      </trkpt>
      <trkpt lat="46.43183" lon="9.21403">
        <ele>1256.1</ele>
        <time>2012-08-04T11:33:20Z</time>
      </trkpt>
      <trkpt lat="46.43187" lon="9.21393">
        <ele>1255.14</ele>
        <time>2012-08-04T11:33:21Z</time>
      </trkpt>
      <trkpt lat="46.43191" lon="9.21383">
        <ele>1254.18</ele>
        <time>2012-08-04T11:33:22Z</time>
      </trkpt>
      <trkpt lat="46.43191" lon="9.21376">
        <ele>1253.22</ele>
        <time>2012-08-04T11:33:23Z</time>
      </trkpt>
      <trkpt lat="46.43188" lon="9.21371">
        <ele>1252.25</ele>
        <time>2012-08-04T11:33:24Z</time>
      </trkpt>
      <trkpt lat="46.43183" lon="9.2137">
        <ele>1251.77</ele>
        <time>2012-08-04T11:33:25Z</time>
      </trkpt>
      <trkpt lat="46.43177" lon="9.21372">
        <ele>1250.81</ele>
        <time>2012-08-04T11:33:26Z</time>
      </trkpt>
      <trkpt lat="46.43169" lon="9.21378">
        <ele>1251.29</ele>
        <time>2012-08-04T11:33:27Z</time>
      </trkpt>
      <trkpt lat="46.43158" lon="9.21388">
        <ele>1250.33</ele>
        <time>2012-08-04T11:33:28Z</time>
      </trkpt>
      <trkpt lat="46.43098" lon="9.21437">
        <ele>1246.97</ele>
        <time>2012-08-04T11:33:32Z</time>
      </trkpt>
      <trkpt lat="46.43063" lon="9.21468">
        <ele>1243.12</ele>
        <time>2012-08-04T11:33:34Z</time>
      </trkpt>
      <trkpt lat="46.4303" lon="9.21499">
        <ele>1238.32</ele>
        <time>2012-08-04T11:33:36Z</time>
      </trkpt>
      <trkpt lat="46.43" lon="9.2153">
        <ele>1234.47</ele>
        <time>2012-08-04T11:33:38Z</time>
      </trkpt>
      <trkpt lat="46.42972" lon="9.2156">
        <ele>1231.11</ele>
        <time>2012-08-04T11:33:40Z</time>
      </trkpt>
      <trkpt lat="46.4296" lon="9.21577">
        <ele>1229.66</ele>
        <time>2012-08-04T11:33:41Z</time>
      </trkpt>
      <trkpt lat="46.42949" lon="9.21596">
        <ele>1227.74</ele>
        <time>2012-08-04T11:33:42Z</time>
      </trkpt>
      <trkpt lat="46.42938" lon="9.21616">
        <ele>1226.78</ele>
        <time>2012-08-04T11:33:43Z</time>
      </trkpt>
      <trkpt lat="46.42909" lon="9.21682">
        <ele>1222.93</ele>
        <time>2012-08-04T11:33:46Z</time>
      </trkpt>
      <trkpt lat="46.42869" lon="9.21774">
        <ele>1219.09</ele>
        <time>2012-08-04T11:33:50Z</time>
      </trkpt>
      <trkpt lat="46.4284" lon="9.21838">
        <ele>1215.24</ele>
        <time>2012-08-04T11:33:53Z</time>
      </trkpt>
      <trkpt lat="46.42808" lon="9.21892">
        <ele>1210.92</ele>
        <time>2012-08-04T11:33:56Z</time>
      </trkpt>
      <trkpt lat="46.42781" lon="9.21936">
        <ele>1206.59</ele>
        <time>2012-08-04T11:33:59Z</time>
      </trkpt>
      <trkpt lat="46.42775" lon="9.21951">
        <ele>1205.15</ele>
        <time>2012-08-04T11:34:00Z</time>
      </trkpt>
      <trkpt lat="46.4277" lon="9.21968">
        <ele>1204.67</ele>
        <time>2012-08-04T11:34:01Z</time>
      </trkpt>
      <trkpt lat="46.42768" lon="9.21987">
        <ele>1204.67</ele>
        <time>2012-08-04T11:34:02Z</time>
      </trkpt>
      <trkpt lat="46.42753" lon="9.22085">
        <ele>1201.3</ele>
        <time>2012-08-04T11:34:06Z</time>
      </trkpt>
      <trkpt lat="46.4274" lon="9.22139">
        <ele>1196.98</ele>
        <time>2012-08-04T11:34:08Z</time>
      </trkpt>
      <trkpt lat="46.42728" lon="9.2219">
        <ele>1192.65</ele>
        <time>2012-08-04T11:34:10Z</time>
      </trkpt>
      <trkpt lat="46.42717" lon="9.22234">
        <ele>1188.81</ele>
        <time>2012-08-04T11:34:12Z</time>
      </trkpt>
      <trkpt lat="46.42696" lon="9.22294">
        <ele>1184.48</ele>
        <time>2012-08-04T11:34:15Z</time>
      </trkpt>
      <trkpt lat="46.4268" lon="9.22327">
        <ele>1181.12</ele>
        <time>2012-08-04T11:34:17Z</time>
      </trkpt>
      <trkpt lat="46.42657" lon="9.22369">
        <ele>1178.23</ele>
        <time>2012-08-04T11:34:20Z</time>
      </trkpt>
      <trkpt lat="46.42648" lon="9.22379">
        <ele>1177.75</ele>
        <time>2012-08-04T11:34:21Z</time>
      </trkpt>
      <trkpt lat="46.42638" lon="9.22386">
        <ele>1177.27</ele>
        <time>2012-08-04T11:34:22Z</time>
      </trkpt>
      <trkpt lat="46.42627" lon="9.22391">
        <ele>1176.79</ele>
        <time>2012-08-04T11:34:23Z</time>
      </trkpt>
      <trkpt lat="46.42615" lon="9.22393">
        <ele>1176.31</ele>
        <time>2012-08-04T11:34:24Z</time>
      </trkpt>
      <trkpt lat="46.42602" lon="9.22395">
        <ele>1176.31</ele>
        <time>2012-08-04T11:34:25Z</time>
      </trkpt>
      <trkpt lat="46.42451" lon="9.22425">
        <ele>1173.91</ele>
        <time>2012-08-04T11:34:37Z</time>
      </trkpt>
      <trkpt lat="46.42292" lon="9.22478">
        <ele>1171.5</ele>
        <time>2012-08-04T11:34:49Z</time>
      </trkpt>
      <trkpt lat="46.42104" lon="9.22544">
        <ele>1170.54</ele>
        <time>2012-08-04T11:35:02Z</time>
      </trkpt>
      <trkpt lat="46.4195" lon="9.22555">
        <ele>1171.02</ele>
        <time>2012-08-04T11:35:12Z</time>
      </trkpt>
      <trkpt lat="46.41925" lon="9.2256">
        <ele>1170.54</ele>
        <time>2012-08-04T11:35:14Z</time>
      </trkpt>
      <trkpt lat="46.41912" lon="9.22566">
        <ele>1170.54</ele>
        <time>2012-08-04T11:35:15Z</time>
      </trkpt>
      <trkpt lat="46.419" lon="9.22575">
        <ele>1171.5</ele>
        <time>2012-08-04T11:35:16Z</time>
      </trkpt>
      <trkpt lat="46.41888" lon="9.22586">
        <ele>1170.54</ele>
        <time>2012-08-04T11:35:17Z</time>
      </trkpt>
      <trkpt lat="46.41878" lon="9.22597">
        <ele>1170.54</ele>
        <time>2012-08-04T11:35:18Z</time>
      </trkpt>
      <trkpt lat="46.41868" lon="9.22607">
        <ele>1170.06</ele>
        <time>2012-08-04T11:35:19Z</time>
      </trkpt>
      <trkpt lat="46.41858" lon="9.22615">
        <ele>1169.58</ele>
        <time>2012-08-04T11:35:20Z</time>
      </trkpt>
      <trkpt lat="46.41847" lon="9.22621">
        <ele>1169.58</ele>
        <time>2012-08-04T11:35:21Z</time>
      </trkpt>
      <trkpt lat="46.41835" lon="9.22623">
        <ele>1169.58</ele>
        <time>2012-08-04T11:35:22Z</time>
      </trkpt>
      <trkpt lat="46.41822" lon="9.22622">
        <ele>1169.58</ele>
        <time>2012-08-04T11:35:23Z</time>
      </trkpt>
      <trkpt lat="46.41808" lon="9.22618">
        <ele>1170.06</ele>
        <time>2012-08-04T11:35:24Z</time>
      </trkpt>
      <trkpt lat="46.41794" lon="9.22614">
        <ele>1169.1</ele>
        <time>2012-08-04T11:35:25Z</time>
      </trkpt>
      <trkpt lat="46.41735" lon="9.22601">
        <ele>1166.7</ele>
        <time>2012-08-04T11:35:29Z</time>
      </trkpt>
      <trkpt lat="46.4172" lon="9.22602">
        <ele>1165.26</ele>
        <time>2012-08-04T11:35:30Z</time>
      </trkpt>
      <trkpt lat="46.41692" lon="9.22606">
        <ele>1162.37</ele>
        <time>2012-08-04T11:35:32Z</time>
      </trkpt>
      <trkpt lat="46.41679" lon="9.22605">
        <ele>1161.41</ele>
        <time>2012-08-04T11:35:33Z</time>
      </trkpt>
      <trkpt lat="46.41666" lon="9.226">
        <ele>1160.45</ele>
        <time>2012-08-04T11:35:34Z</time>
      </trkpt>
      <trkpt lat="46.41654" lon="9.22594">
        <ele>1159.49</ele>
        <time>2012-08-04T11:35:35Z</time>
      </trkpt>
      <trkpt lat="46.41641" lon="9.22587">
        <ele>1157.56</ele>
        <time>2012-08-04T11:35:36Z</time>
      </trkpt>
      <trkpt lat="46.4163" lon="9.22582">
        <ele>1155.64</ele>
        <time>2012-08-04T11:35:37Z</time>
      </trkpt>
      <trkpt lat="46.4162" lon="9.22579">
        <ele>1154.2</ele>
        <time>2012-08-04T11:35:38Z</time>
      </trkpt>
      <trkpt lat="46.41612" lon="9.22575">
        <ele>1151.8</ele>
        <time>2012-08-04T11:35:39Z</time>
      </trkpt>
      <trkpt lat="46.41606" lon="9.22569">
        <ele>1150.35</ele>
        <time>2012-08-04T11:35:40Z</time>
      </trkpt>
      <trkpt lat="46.41601" lon="9.2256">
        <ele>1149.87</ele>
        <time>2012-08-04T11:35:41Z</time>
      </trkpt>
      <trkpt lat="46.41599" lon="9.22551">
        <ele>1149.39</ele>
        <time>2012-08-04T11:35:42Z</time>
      </trkpt>
      <trkpt lat="46.41596" lon="9.22542">
        <ele>1148.91</ele>
        <time>2012-08-04T11:35:43Z</time>
      </trkpt>
      <trkpt lat="46.41593" lon="9.22535">
        <ele>1147.95</ele>
        <time>2012-08-04T11:35:44Z</time>
      </trkpt>
      <trkpt lat="46.41588" lon="9.22531">
        <ele>1147.47</ele>
        <time>2012-08-04T11:35:45Z</time>
      </trkpt>
      <trkpt lat="46.41582" lon="9.22531">
        <ele>1146.99</ele>
        <time>2012-08-04T11:35:46Z</time>
      </trkpt>
      <trkpt lat="46.41576" lon="9.22534">
        <ele>1146.51</ele>
        <time>2012-08-04T11:35:47Z</time>
      </trkpt>
      <trkpt lat="46.41568" lon="9.2254">
        <ele>1146.51</ele>
        <time>2012-08-04T11:35:48Z</time>
      </trkpt>
      <trkpt lat="46.41559" lon="9.22547">
        <ele>1146.03</ele>
        <time>2012-08-04T11:35:49Z</time>
      </trkpt>
      <trkpt lat="46.41509" lon="9.22573">
        <ele>1143.63</ele>
        <time>2012-08-04T11:35:53Z</time>
      </trkpt>
      <trkpt lat="46.41494" lon="9.22576">
        <ele>1142.18</ele>
        <time>2012-08-04T11:35:54Z</time>
      </trkpt>
      <trkpt lat="46.41449" lon="9.22581">
        <ele>1138.82</ele>
        <time>2012-08-04T11:35:57Z</time>
      </trkpt>
      <trkpt lat="46.41422" lon="9.22583">
        <ele>1135.45</ele>
        <time>2012-08-04T11:35:59Z</time>
      </trkpt>
      <trkpt lat="46.41388" lon="9.22586">
        <ele>1131.61</ele>
        <time>2012-08-04T11:36:02Z</time>
      </trkpt>
      <trkpt lat="46.41366" lon="9.22587">
        <ele>1128.24</ele>
        <time>2012-08-04T11:36:05Z</time>
      </trkpt>
      <trkpt lat="46.41357" lon="9.22589">
        <ele>1127.76</ele>
        <time>2012-08-04T11:36:07Z</time>
      </trkpt>
      <trkpt lat="46.41356" lon="9.22593">
        <ele>1127.76</ele>
        <time>2012-08-04T11:36:08Z</time>
      </trkpt>
      <trkpt lat="46.41362" lon="9.22605">
        <ele>1127.76</ele>
        <time>2012-08-04T11:36:10Z</time>
      </trkpt>
      <trkpt lat="46.41368" lon="9.22606">
        <ele>1127.76</ele>
        <time>2012-08-04T11:36:11Z</time>
      </trkpt>
      <trkpt lat="46.41373" lon="9.22606">
        <ele>1127.28</ele>
        <time>2012-08-04T11:36:12Z</time>
      </trkpt>
      <trkpt lat="46.4138" lon="9.22606">
        <ele>1127.28</ele>
        <time>2012-08-04T11:36:13Z</time>
      </trkpt>
      <trkpt lat="46.41391" lon="9.22607">
        <ele>1126.32</ele>
        <time>2012-08-04T11:36:14Z</time>
      </trkpt>
      <trkpt lat="46.41414" lon="9.22614">
        <ele>1123.92</ele>
        <time>2012-08-04T11:36:16Z</time>
      </trkpt>
      <trkpt lat="46.41425" lon="9.22619">
        <ele>1122.96</ele>
        <time>2012-08-04T11:36:17Z</time>
      </trkpt>
      <trkpt lat="46.41435" lon="9.22627">
        <ele>1122</ele>
        <time>2012-08-04T11:36:18Z</time>
      </trkpt>
      <trkpt lat="46.41459" lon="9.22646">
        <ele>1118.15</ele>
        <time>2012-08-04T11:36:21Z</time>
      </trkpt>
      <trkpt lat="46.41463" lon="9.22653">
        <ele>1117.67</ele>
        <time>2012-08-04T11:36:22Z</time>
      </trkpt>
      <trkpt lat="46.41466" lon="9.22662">
        <ele>1116.23</ele>
        <time>2012-08-04T11:36:23Z</time>
      </trkpt>
      <trkpt lat="46.41465" lon="9.22671">
        <ele>1116.23</ele>
        <time>2012-08-04T11:36:24Z</time>
      </trkpt>
      <trkpt lat="46.41461" lon="9.22676">
        <ele>1115.27</ele>
        <time>2012-08-04T11:36:25Z</time>
      </trkpt>
      <trkpt lat="46.41455" lon="9.22678">
        <ele>1115.27</ele>
        <time>2012-08-04T11:36:26Z</time>
      </trkpt>
      <trkpt lat="46.41448" lon="9.22675">
        <ele>1114.79</ele>
        <time>2012-08-04T11:36:27Z</time>
      </trkpt>
      <trkpt lat="46.4144" lon="9.22668">
        <ele>1114.31</ele>
        <time>2012-08-04T11:36:28Z</time>
      </trkpt>
      <trkpt lat="46.41429" lon="9.2266">
        <ele>1114.31</ele>
        <time>2012-08-04T11:36:29Z</time>
      </trkpt>
      <trkpt lat="46.41418" lon="9.22653">
        <ele>1112.86</ele>
        <time>2012-08-04T11:36:30Z</time>
      </trkpt>
      <trkpt lat="46.41406" lon="9.22648">
        <ele>1111.9</ele>
        <time>2012-08-04T11:36:31Z</time>
      </trkpt>
      <trkpt lat="46.41393" lon="9.22648">
        <ele>1110.94</ele>
        <time>2012-08-04T11:36:32Z</time>
      </trkpt>
      <trkpt lat="46.4138" lon="9.22652">
        <ele>1109.98</ele>
        <time>2012-08-04T11:36:33Z</time>
      </trkpt>
      <trkpt lat="46.41365" lon="9.2266">
        <ele>1109.5</ele>
        <time>2012-08-04T11:36:34Z</time>
      </trkpt>
      <trkpt lat="46.41349" lon="9.2267">
        <ele>1108.54</ele>
        <time>2012-08-04T11:36:35Z</time>
      </trkpt>
      <trkpt lat="46.41315" lon="9.22691">
        <ele>1104.69</ele>
        <time>2012-08-04T11:36:37Z</time>
      </trkpt>
      <trkpt lat="46.41285" lon="9.22708">
        <ele>1099.4</ele>
        <time>2012-08-04T11:36:39Z</time>
      </trkpt>
      <trkpt lat="46.41272" lon="9.22715">
        <ele>1096.04</ele>
        <time>2012-08-04T11:36:40Z</time>
      </trkpt>
      <trkpt lat="46.4126" lon="9.2272">
        <ele>1094.6</ele>
        <time>2012-08-04T11:36:41Z</time>
      </trkpt>
      <trkpt lat="46.41248" lon="9.22721">
        <ele>1092.2</ele>
        <time>2012-08-04T11:36:42Z</time>
      </trkpt>
      <trkpt lat="46.41235" lon="9.22719">
        <ele>1090.27</ele>
        <time>2012-08-04T11:36:43Z</time>
      </trkpt>
      <trkpt lat="46.41211" lon="9.22713">
        <ele>1087.87</ele>
        <time>2012-08-04T11:36:45Z</time>
      </trkpt>
      <trkpt lat="46.41198" lon="9.22713">
        <ele>1085.95</ele>
        <time>2012-08-04T11:36:46Z</time>
      </trkpt>
      <trkpt lat="46.41184" lon="9.22715">
        <ele>1085.47</ele>
        <time>2012-08-04T11:36:47Z</time>
      </trkpt>
      <trkpt lat="46.41157" lon="9.22721">
        <ele>1082.1</ele>
        <time>2012-08-04T11:36:49Z</time>
      </trkpt>
      <trkpt lat="46.41133" lon="9.22724">
        <ele>1077.78</ele>
        <time>2012-08-04T11:36:51Z</time>
      </trkpt>
      <trkpt lat="46.41122" lon="9.22723">
        <ele>1075.85</ele>
        <time>2012-08-04T11:36:52Z</time>
      </trkpt>
      <trkpt lat="46.41113" lon="9.2272">
        <ele>1074.41</ele>
        <time>2012-08-04T11:36:53Z</time>
      </trkpt>
      <trkpt lat="46.41106" lon="9.22716">
        <ele>1072.97</ele>
        <time>2012-08-04T11:36:54Z</time>
      </trkpt>
      <trkpt lat="46.41097" lon="9.22714">
        <ele>1071.05</ele>
        <time>2012-08-04T11:36:56Z</time>
      </trkpt>
      <trkpt lat="46.41094" lon="9.22718">
        <ele>1071.05</ele>
        <time>2012-08-04T11:36:57Z</time>
      </trkpt>
      <trkpt lat="46.41094" lon="9.22725">
        <ele>1071.05</ele>
        <time>2012-08-04T11:36:58Z</time>
      </trkpt>
      <trkpt lat="46.41096" lon="9.22731">
        <ele>1070.57</ele>
        <time>2012-08-04T11:36:59Z</time>
      </trkpt>
      <trkpt lat="46.41101" lon="9.22735">
        <ele>1069.6</ele>
        <time>2012-08-04T11:37:00Z</time>
      </trkpt>
      <trkpt lat="46.41108" lon="9.22739">
        <ele>1070.08</ele>
        <time>2012-08-04T11:37:01Z</time>
      </trkpt>
      <trkpt lat="46.41117" lon="9.22743">
        <ele>1070.08</ele>
        <time>2012-08-04T11:37:02Z</time>
      </trkpt>
      <trkpt lat="46.41155" lon="9.22758">
        <ele>1066.72</ele>
        <time>2012-08-04T11:37:06Z</time>
      </trkpt>
      <trkpt lat="46.41161" lon="9.22762">
        <ele>1066.24</ele>
        <time>2012-08-04T11:37:07Z</time>
      </trkpt>
      <trkpt lat="46.41166" lon="9.22767">
        <ele>1065.28</ele>
        <time>2012-08-04T11:37:08Z</time>
      </trkpt>
      <trkpt lat="46.41166" lon="9.22773">
        <ele>1064.8</ele>
        <time>2012-08-04T11:37:09Z</time>
      </trkpt>
      <trkpt lat="46.41164" lon="9.22778">
        <ele>1064.8</ele>
        <time>2012-08-04T11:37:10Z</time>
      </trkpt>
      <trkpt lat="46.41159" lon="9.2278">
        <ele>1063.84</ele>
        <time>2012-08-04T11:37:11Z</time>
      </trkpt>
      <trkpt lat="46.41151" lon="9.22778">
        <ele>1064.32</ele>
        <time>2012-08-04T11:37:12Z</time>
      </trkpt>
      <trkpt lat="46.4114" lon="9.22775">
        <ele>1063.84</ele>
        <time>2012-08-04T11:37:13Z</time>
      </trkpt>
      <trkpt lat="46.41127" lon="9.22773">
        <ele>1063.36</ele>
        <time>2012-08-04T11:37:14Z</time>
      </trkpt>
      <trkpt lat="46.41113" lon="9.22772">
        <ele>1062.87</ele>
        <time>2012-08-04T11:37:15Z</time>
      </trkpt>
      <trkpt lat="46.41098" lon="9.22771">
        <ele>1061.43</ele>
        <time>2012-08-04T11:37:16Z</time>
      </trkpt>
      <trkpt lat="46.41085" lon="9.22768">
        <ele>1059.51</ele>
        <time>2012-08-04T11:37:17Z</time>
      </trkpt>
      <trkpt lat="46.41059" lon="9.22757">
        <ele>1056.63</ele>
        <time>2012-08-04T11:37:19Z</time>
      </trkpt>
      <trkpt lat="46.41046" lon="9.22755">
        <ele>1055.18</ele>
        <time>2012-08-04T11:37:20Z</time>
      </trkpt>
      <trkpt lat="46.41035" lon="9.22754">
        <ele>1053.74</ele>
        <time>2012-08-04T11:37:21Z</time>
      </trkpt>
      <trkpt lat="46.41025" lon="9.22753">
        <ele>1052.3</ele>
        <time>2012-08-04T11:37:22Z</time>
      </trkpt>
      <trkpt lat="46.41016" lon="9.22752">
        <ele>1051.34</ele>
        <time>2012-08-04T11:37:23Z</time>
      </trkpt>
      <trkpt lat="46.41009" lon="9.22753">
        <ele>1050.38</ele>
        <time>2012-08-04T11:37:24Z</time>
      </trkpt>
      <trkpt lat="46.40999" lon="9.22758">
        <ele>1049.42</ele>
        <time>2012-08-04T11:37:26Z</time>
      </trkpt>
      <trkpt lat="46.40998" lon="9.22764">
        <ele>1048.45</ele>
        <time>2012-08-04T11:37:27Z</time>
      </trkpt>
      <trkpt lat="46.41" lon="9.2277">
        <ele>1047.97</ele>
        <time>2012-08-04T11:37:28Z</time>
      </trkpt>
      <trkpt lat="46.41005" lon="9.22772">
        <ele>1048.45</ele>
        <time>2012-08-04T11:37:29Z</time>
      </trkpt>
      <trkpt lat="46.41012" lon="9.22773">
        <ele>1048.45</ele>
        <time>2012-08-04T11:37:30Z</time>
      </trkpt>
      <trkpt lat="46.41022" lon="9.22773">
        <ele>1048.94</ele>
        <time>2012-08-04T11:37:31Z</time>
      </trkpt>
      <trkpt lat="46.41033" lon="9.22774">
        <ele>1047.97</ele>
        <time>2012-08-04T11:37:32Z</time>
      </trkpt>
      <trkpt lat="46.41043" lon="9.22777">
        <ele>1047.01</ele>
        <time>2012-08-04T11:37:33Z</time>
      </trkpt>
      <trkpt lat="46.41052" lon="9.22784">
        <ele>1047.01</ele>
        <time>2012-08-04T11:37:34Z</time>
      </trkpt>
      <trkpt lat="46.41061" lon="9.22794">
        <ele>1047.01</ele>
        <time>2012-08-04T11:37:35Z</time>
      </trkpt>
      <trkpt lat="46.41069" lon="9.22807">
        <ele>1046.05</ele>
        <time>2012-08-04T11:37:36Z</time>
      </trkpt>
      <trkpt lat="46.41075" lon="9.22823">
        <ele>1044.61</ele>
        <time>2012-08-04T11:37:37Z</time>
      </trkpt>
      <trkpt lat="46.4108" lon="9.22839">
        <ele>1042.69</ele>
        <time>2012-08-04T11:37:38Z</time>
      </trkpt>
      <trkpt lat="46.41083" lon="9.22854">
        <ele>1042.21</ele>
        <time>2012-08-04T11:37:39Z</time>
      </trkpt>
      <trkpt lat="46.41086" lon="9.22867">
        <ele>1040.28</ele>
        <time>2012-08-04T11:37:40Z</time>
      </trkpt>
      <trkpt lat="46.41089" lon="9.22878">
        <ele>1039.32</ele>
        <time>2012-08-04T11:37:41Z</time>
      </trkpt>
      <trkpt lat="46.41092" lon="9.22886">
        <ele>1038.36</ele>
        <time>2012-08-04T11:37:42Z</time>
      </trkpt>
      <trkpt lat="46.41093" lon="9.22894">
        <ele>1037.88</ele>
        <time>2012-08-04T11:37:43Z</time>
      </trkpt>
      <trkpt lat="46.41091" lon="9.22899">
        <ele>1037.4</ele>
        <time>2012-08-04T11:37:44Z</time>
      </trkpt>
      <trkpt lat="46.41087" lon="9.22902">
        <ele>1036.92</ele>
        <time>2012-08-04T11:37:45Z</time>
      </trkpt>
      <trkpt lat="46.41082" lon="9.22899">
        <ele>1036.44</ele>
        <time>2012-08-04T11:37:46Z</time>
      </trkpt>
      <trkpt lat="46.41078" lon="9.22891">
        <ele>1036.44</ele>
        <time>2012-08-04T11:37:47Z</time>
      </trkpt>
      <trkpt lat="46.41075" lon="9.22879">
        <ele>1036.44</ele>
        <time>2012-08-04T11:37:48Z</time>
      </trkpt>
      <trkpt lat="46.41071" lon="9.22866">
        <ele>1036.92</ele>
        <time>2012-08-04T11:37:49Z</time>
      </trkpt>
      <trkpt lat="46.41065" lon="9.22854">
        <ele>1035</ele>
        <time>2012-08-04T11:37:50Z</time>
      </trkpt>
      <trkpt lat="46.41058" lon="9.22846">
        <ele>1033.55</ele>
        <time>2012-08-04T11:37:51Z</time>
      </trkpt>
      <trkpt lat="46.41049" lon="9.22842">
        <ele>1033.07</ele>
        <time>2012-08-04T11:37:52Z</time>
      </trkpt>
      <trkpt lat="46.41039" lon="9.22841">
        <ele>1032.59</ele>
        <time>2012-08-04T11:37:53Z</time>
      </trkpt>
      <trkpt lat="46.41027" lon="9.22841">
        <ele>1032.59</ele>
        <time>2012-08-04T11:37:54Z</time>
      </trkpt>
      <trkpt lat="46.40983" lon="9.2284">
        <ele>1028.75</ele>
        <time>2012-08-04T11:37:57Z</time>
      </trkpt>
      <trkpt lat="46.40942" lon="9.2284">
        <ele>1024.42</ele>
        <time>2012-08-04T11:38:00Z</time>
      </trkpt>
      <trkpt lat="46.40928" lon="9.22842">
        <ele>1022.5</ele>
        <time>2012-08-04T11:38:01Z</time>
      </trkpt>
      <trkpt lat="46.40915" lon="9.22846">
        <ele>1021.54</ele>
        <time>2012-08-04T11:38:02Z</time>
      </trkpt>
      <trkpt lat="46.40902" lon="9.22853">
        <ele>1020.1</ele>
        <time>2012-08-04T11:38:03Z</time>
      </trkpt>
      <trkpt lat="46.40861" lon="9.22879">
        <ele>1016.25</ele>
        <time>2012-08-04T11:38:06Z</time>
      </trkpt>
      <trkpt lat="46.4082" lon="9.22902">
        <ele>1012.41</ele>
        <time>2012-08-04T11:38:09Z</time>
      </trkpt>
      <trkpt lat="46.40781" lon="9.22922">
        <ele>1008.08</ele>
        <time>2012-08-04T11:38:12Z</time>
      </trkpt>
      <trkpt lat="46.40756" lon="9.2294">
        <ele>1004.72</ele>
        <time>2012-08-04T11:38:14Z</time>
      </trkpt>
      <trkpt lat="46.4072" lon="9.22971">
        <ele>999.91</ele>
        <time>2012-08-04T11:38:17Z</time>
      </trkpt>
      <trkpt lat="46.40697" lon="9.22984">
        <ele>997.51</ele>
        <time>2012-08-04T11:38:19Z</time>
      </trkpt>
      <trkpt lat="46.40684" lon="9.22986">
        <ele>997.02</ele>
        <time>2012-08-04T11:38:20Z</time>
      </trkpt>
      <trkpt lat="46.4067" lon="9.22986">
        <ele>996.06</ele>
        <time>2012-08-04T11:38:21Z</time>
      </trkpt>
      <trkpt lat="46.40631" lon="9.22982">
        <ele>991.74</ele>
        <time>2012-08-04T11:38:24Z</time>
      </trkpt>
      <trkpt lat="46.40618" lon="9.22978">
        <ele>990.3</ele>
        <time>2012-08-04T11:38:25Z</time>
      </trkpt>
      <trkpt lat="46.40605" lon="9.22973">
        <ele>989.33</ele>
        <time>2012-08-04T11:38:26Z</time>
      </trkpt>
      <trkpt lat="46.40579" lon="9.22959">
        <ele>985.97</ele>
        <time>2012-08-04T11:38:28Z</time>
      </trkpt>
      <trkpt lat="46.40539" lon="9.22932">
        <ele>982.12</ele>
        <time>2012-08-04T11:38:31Z</time>
      </trkpt>
      <trkpt lat="46.40496" lon="9.22894">
        <ele>978.28</ele>
        <time>2012-08-04T11:38:34Z</time>
      </trkpt>
      <trkpt lat="46.40472" lon="9.22873">
        <ele>974.43</ele>
        <time>2012-08-04T11:38:36Z</time>
      </trkpt>
      <trkpt lat="46.40461" lon="9.22865">
        <ele>972.51</ele>
        <time>2012-08-04T11:38:37Z</time>
      </trkpt>
      <trkpt lat="46.4045" lon="9.22861">
        <ele>971.07</ele>
        <time>2012-08-04T11:38:38Z</time>
      </trkpt>
      <trkpt lat="46.40437" lon="9.22861">
        <ele>971.07</ele>
        <time>2012-08-04T11:38:39Z</time>
      </trkpt>
      <trkpt lat="46.40424" lon="9.22864">
        <ele>970.11</ele>
        <time>2012-08-04T11:38:40Z</time>
      </trkpt>
      <trkpt lat="46.40412" lon="9.22868">
        <ele>969.63</ele>
        <time>2012-08-04T11:38:41Z</time>
      </trkpt>
      <trkpt lat="46.404" lon="9.22871">
        <ele>968.67</ele>
        <time>2012-08-04T11:38:42Z</time>
      </trkpt>
      <trkpt lat="46.40388" lon="9.2287">
        <ele>968.18</ele>
        <time>2012-08-04T11:38:43Z</time>
      </trkpt>
      <trkpt lat="46.40375" lon="9.22866">
        <ele>967.7</ele>
        <time>2012-08-04T11:38:44Z</time>
      </trkpt>
      <trkpt lat="46.4036" lon="9.22859">
        <ele>966.74</ele>
        <time>2012-08-04T11:38:45Z</time>
      </trkpt>
      <trkpt lat="46.40345" lon="9.2285">
        <ele>966.74</ele>
        <time>2012-08-04T11:38:46Z</time>
      </trkpt>
      <trkpt lat="46.40301" lon="9.22826">
        <ele>963.38</ele>
        <time>2012-08-04T11:38:49Z</time>
      </trkpt>
      <trkpt lat="46.40259" lon="9.2281">
        <ele>960.01</ele>
        <time>2012-08-04T11:38:52Z</time>
      </trkpt>
      <trkpt lat="46.40221" lon="9.22802">
        <ele>955.69</ele>
        <time>2012-08-04T11:38:55Z</time>
      </trkpt>
      <trkpt lat="46.40195" lon="9.22799">
        <ele>952.8</ele>
        <time>2012-08-04T11:38:58Z</time>
      </trkpt>
      <trkpt lat="46.4019" lon="9.228">
        <ele>951.84</ele>
        <time>2012-08-04T11:38:59Z</time>
      </trkpt>
      <trkpt lat="46.40187" lon="9.22805">
        <ele>951.84</ele>
        <time>2012-08-04T11:39:00Z</time>
      </trkpt>
      <trkpt lat="46.40187" lon="9.22812">
        <ele>951.36</ele>
        <time>2012-08-04T11:39:01Z</time>
      </trkpt>
      <trkpt lat="46.4019" lon="9.22818">
        <ele>951.36</ele>
        <time>2012-08-04T11:39:02Z</time>
      </trkpt>
      <trkpt lat="46.40195" lon="9.22821">
        <ele>950.88</ele>
        <time>2012-08-04T11:39:03Z</time>
      </trkpt>
      <trkpt lat="46.40203" lon="9.22822">
        <ele>950.4</ele>
        <time>2012-08-04T11:39:04Z</time>
      </trkpt>
      <trkpt lat="46.40212" lon="9.22821">
        <ele>950.4</ele>
        <time>2012-08-04T11:39:05Z</time>
      </trkpt>
      <trkpt lat="46.40223" lon="9.22822">
        <ele>950.88</ele>
        <time>2012-08-04T11:39:06Z</time>
      </trkpt>
      <trkpt lat="46.40236" lon="9.22825">
        <ele>950.4</ele>
        <time>2012-08-04T11:39:07Z</time>
      </trkpt>
      <trkpt lat="46.40249" lon="9.22832">
        <ele>949.92</ele>
        <time>2012-08-04T11:39:08Z</time>
      </trkpt>
      <trkpt lat="46.40262" lon="9.2284">
        <ele>949.44</ele>
        <time>2012-08-04T11:39:09Z</time>
      </trkpt>
      <trkpt lat="46.40286" lon="9.22851">
        <ele>946.07</ele>
        <time>2012-08-04T11:39:11Z</time>
      </trkpt>
      <trkpt lat="46.4032" lon="9.22861">
        <ele>943.19</ele>
        <time>2012-08-04T11:39:15Z</time>
      </trkpt>
      <trkpt lat="46.40326" lon="9.22864">
        <ele>942.71</ele>
        <time>2012-08-04T11:39:16Z</time>
      </trkpt>
      <trkpt lat="46.40328" lon="9.22869">
        <ele>942.23</ele>
        <time>2012-08-04T11:39:17Z</time>
      </trkpt>
      <trkpt lat="46.40328" lon="9.22875">
        <ele>941.75</ele>
        <time>2012-08-04T11:39:18Z</time>
      </trkpt>
      <trkpt lat="46.40324" lon="9.2288">
        <ele>941.27</ele>
        <time>2012-08-04T11:39:19Z</time>
      </trkpt>
      <trkpt lat="46.40318" lon="9.22879">
        <ele>940.79</ele>
        <time>2012-08-04T11:39:20Z</time>
      </trkpt>
      <trkpt lat="46.40311" lon="9.22875">
        <ele>940.79</ele>
        <time>2012-08-04T11:39:21Z</time>
      </trkpt>
      <trkpt lat="46.40301" lon="9.2287">
        <ele>940.31</ele>
        <time>2012-08-04T11:39:22Z</time>
      </trkpt>
      <trkpt lat="46.40287" lon="9.22867">
        <ele>939.83</ele>
        <time>2012-08-04T11:39:23Z</time>
      </trkpt>
      <trkpt lat="46.40272" lon="9.22866">
        <ele>939.83</ele>
        <time>2012-08-04T11:39:24Z</time>
      </trkpt>
      <trkpt lat="46.40243" lon="9.22864">
        <ele>935.98</ele>
        <time>2012-08-04T11:39:26Z</time>
      </trkpt>
      <trkpt lat="46.4023" lon="9.22866">
        <ele>934.54</ele>
        <time>2012-08-04T11:39:27Z</time>
      </trkpt>
      <trkpt lat="46.40217" lon="9.22869">
        <ele>932.62</ele>
        <time>2012-08-04T11:39:28Z</time>
      </trkpt>
      <trkpt lat="46.40195" lon="9.22875">
        <ele>929.25</ele>
        <time>2012-08-04T11:39:30Z</time>
      </trkpt>
      <trkpt lat="46.40184" lon="9.22875">
        <ele>927.81</ele>
        <time>2012-08-04T11:39:31Z</time>
      </trkpt>
      <trkpt lat="46.40175" lon="9.22871">
        <ele>926.85</ele>
        <time>2012-08-04T11:39:32Z</time>
      </trkpt>
      <trkpt lat="46.40166" lon="9.22862">
        <ele>925.89</ele>
        <time>2012-08-04T11:39:33Z</time>
      </trkpt>
      <trkpt lat="46.40158" lon="9.22849">
        <ele>925.41</ele>
        <time>2012-08-04T11:39:34Z</time>
      </trkpt>
      <trkpt lat="46.40152" lon="9.22834">
        <ele>923.96</ele>
        <time>2012-08-04T11:39:35Z</time>
      </trkpt>
      <trkpt lat="46.40147" lon="9.22821">
        <ele>922.52</ele>
        <time>2012-08-04T11:39:36Z</time>
      </trkpt>
      <trkpt lat="46.40142" lon="9.2281">
        <ele>921.56</ele>
        <time>2012-08-04T11:39:37Z</time>
      </trkpt>
      <trkpt lat="46.40137" lon="9.22802">
        <ele>921.08</ele>
        <time>2012-08-04T11:39:38Z</time>
      </trkpt>
      <trkpt lat="46.40132" lon="9.22797">
        <ele>920.6</ele>
        <time>2012-08-04T11:39:39Z</time>
      </trkpt>
      <trkpt lat="46.40126" lon="9.22796">
        <ele>919.64</ele>
        <time>2012-08-04T11:39:40Z</time>
      </trkpt>
      <trkpt lat="46.40122" lon="9.228">
        <ele>919.16</ele>
        <time>2012-08-04T11:39:41Z</time>
      </trkpt>
      <trkpt lat="46.40119" lon="9.22805">
        <ele>918.68</ele>
        <time>2012-08-04T11:39:42Z</time>
      </trkpt>
      <trkpt lat="46.4012" lon="9.22812">
        <ele>918.68</ele>
        <time>2012-08-04T11:39:43Z</time>
      </trkpt>
      <trkpt lat="46.40123" lon="9.22821">
        <ele>919.16</ele>
        <time>2012-08-04T11:39:44Z</time>
      </trkpt>
      <trkpt lat="46.40129" lon="9.22832">
        <ele>919.64</ele>
        <time>2012-08-04T11:39:45Z</time>
      </trkpt>
      <trkpt lat="46.40136" lon="9.22844">
        <ele>919.64</ele>
        <time>2012-08-04T11:39:46Z</time>
      </trkpt>
      <trkpt lat="46.40148" lon="9.22861">
        <ele>917.72</ele>
        <time>2012-08-04T11:39:48Z</time>
      </trkpt>
      <trkpt lat="46.40151" lon="9.2287">
        <ele>917.24</ele>
        <time>2012-08-04T11:39:49Z</time>
      </trkpt>
      <trkpt lat="46.40151" lon="9.22877">
        <ele>916.27</ele>
        <time>2012-08-04T11:39:50Z</time>
      </trkpt>
      <trkpt lat="46.40148" lon="9.22883">
        <ele>915.79</ele>
        <time>2012-08-04T11:39:51Z</time>
      </trkpt>
      <trkpt lat="46.40144" lon="9.22885">
        <ele>915.31</ele>
        <time>2012-08-04T11:39:52Z</time>
      </trkpt>
      <trkpt lat="46.40138" lon="9.22882">
        <ele>914.83</ele>
        <time>2012-08-04T11:39:53Z</time>
      </trkpt>
      <trkpt lat="46.40132" lon="9.22872">
        <ele>914.83</ele>
        <time>2012-08-04T11:39:54Z</time>
      </trkpt>
      <trkpt lat="46.40124" lon="9.22859">
        <ele>914.83</ele>
        <time>2012-08-04T11:39:55Z</time>
      </trkpt>
      <trkpt lat="46.40115" lon="9.22845">
        <ele>913.87</ele>
        <time>2012-08-04T11:39:56Z</time>
      </trkpt>
      <trkpt lat="46.40105" lon="9.22834">
        <ele>912.91</ele>
        <time>2012-08-04T11:39:57Z</time>
      </trkpt>
      <trkpt lat="46.40095" lon="9.22823">
        <ele>911.47</ele>
        <time>2012-08-04T11:39:58Z</time>
      </trkpt>
      <trkpt lat="46.40088" lon="9.22809">
        <ele>909.54</ele>
        <time>2012-08-04T11:39:59Z</time>
      </trkpt>
      <trkpt lat="46.40083" lon="9.22794">
        <ele>909.54</ele>
        <time>2012-08-04T11:40:00Z</time>
      </trkpt>
      <trkpt lat="46.4008" lon="9.22778">
        <ele>908.1</ele>
        <time>2012-08-04T11:40:01Z</time>
      </trkpt>
      <trkpt lat="46.40078" lon="9.22763">
        <ele>907.14</ele>
        <time>2012-08-04T11:40:02Z</time>
      </trkpt>
      <trkpt lat="46.40074" lon="9.2275">
        <ele>906.18</ele>
        <time>2012-08-04T11:40:03Z</time>
      </trkpt>
      <trkpt lat="46.40068" lon="9.22739">
        <ele>905.22</ele>
        <time>2012-08-04T11:40:04Z</time>
      </trkpt>
      <trkpt lat="46.40061" lon="9.22732">
        <ele>904.26</ele>
        <time>2012-08-04T11:40:05Z</time>
      </trkpt>
      <trkpt lat="46.40052" lon="9.22727">
        <ele>902.82</ele>
        <time>2012-08-04T11:40:06Z</time>
      </trkpt>
      <trkpt lat="46.40043" lon="9.22727">
        <ele>902.82</ele>
        <time>2012-08-04T11:40:07Z</time>
      </trkpt>
      <trkpt lat="46.40035" lon="9.2273">
        <ele>901.85</ele>
        <time>2012-08-04T11:40:08Z</time>
      </trkpt>
      <trkpt lat="46.40027" lon="9.22738">
        <ele>901.37</ele>
        <time>2012-08-04T11:40:09Z</time>
      </trkpt>
      <trkpt lat="46.4002" lon="9.22748">
        <ele>900.41</ele>
        <time>2012-08-04T11:40:10Z</time>
      </trkpt>
      <trkpt lat="46.40015" lon="9.22762">
        <ele>900.41</ele>
        <time>2012-08-04T11:40:11Z</time>
      </trkpt>
      <trkpt lat="46.4001" lon="9.22778">
        <ele>899.45</ele>
        <time>2012-08-04T11:40:12Z</time>
      </trkpt>
      <trkpt lat="46.40006" lon="9.22796">
        <ele>898.49</ele>
        <time>2012-08-04T11:40:13Z</time>
      </trkpt>
      <trkpt lat="46.39993" lon="9.22852">
        <ele>895.12</ele>
        <time>2012-08-04T11:40:16Z</time>
      </trkpt>
      <trkpt lat="46.39989" lon="9.22871">
        <ele>893.2</ele>
        <time>2012-08-04T11:40:17Z</time>
      </trkpt>
      <trkpt lat="46.39988" lon="9.2289">
        <ele>892.24</ele>
        <time>2012-08-04T11:40:18Z</time>
      </trkpt>
      <trkpt lat="46.39988" lon="9.2291">
        <ele>890.8</ele>
        <time>2012-08-04T11:40:19Z</time>
      </trkpt>
      <trkpt lat="46.3999" lon="9.2293">
        <ele>889.84</ele>
        <time>2012-08-04T11:40:20Z</time>
      </trkpt>
      <trkpt lat="46.39994" lon="9.22948">
        <ele>888.88</ele>
        <time>2012-08-04T11:40:21Z</time>
      </trkpt>
      <trkpt lat="46.39999" lon="9.22979">
        <ele>885.99</ele>
        <time>2012-08-04T11:40:23Z</time>
      </trkpt>
      <trkpt lat="46.39999" lon="9.22995">
        <ele>885.51</ele>
        <time>2012-08-04T11:40:24Z</time>
      </trkpt>
      <trkpt lat="46.39998" lon="9.2301">
        <ele>884.07</ele>
        <time>2012-08-04T11:40:25Z</time>
      </trkpt>
      <trkpt lat="46.39995" lon="9.23025">
        <ele>883.11</ele>
        <time>2012-08-04T11:40:26Z</time>
      </trkpt>
      <trkpt lat="46.39991" lon="9.23038">
        <ele>882.63</ele>
        <time>2012-08-04T11:40:27Z</time>
      </trkpt>
      <trkpt lat="46.39984" lon="9.2305">
        <ele>882.15</ele>
        <time>2012-08-04T11:40:28Z</time>
      </trkpt>
      <trkpt lat="46.39975" lon="9.2306">
        <ele>881.67</ele>
        <time>2012-08-04T11:40:29Z</time>
      </trkpt>
      <trkpt lat="46.39964" lon="9.23069">
        <ele>880.71</ele>
        <time>2012-08-04T11:40:30Z</time>
      </trkpt>
      <trkpt lat="46.39952" lon="9.23076">
        <ele>879.74</ele>
        <time>2012-08-04T11:40:31Z</time>
      </trkpt>
      <trkpt lat="46.3994" lon="9.23082">
        <ele>878.78</ele>
        <time>2012-08-04T11:40:32Z</time>
      </trkpt>
      <trkpt lat="46.39929" lon="9.23086">
        <ele>876.86</ele>
        <time>2012-08-04T11:40:33Z</time>
      </trkpt>
      <trkpt lat="46.39917" lon="9.23088">
        <ele>875.42</ele>
        <time>2012-08-04T11:40:34Z</time>
      </trkpt>
      <trkpt lat="46.39906" lon="9.23085">
        <ele>873.98</ele>
        <time>2012-08-04T11:40:35Z</time>
      </trkpt>
      <trkpt lat="46.39897" lon="9.23079">
        <ele>873.5</ele>
        <time>2012-08-04T11:40:36Z</time>
      </trkpt>
      <trkpt lat="46.39889" lon="9.23068">
        <ele>872.05</ele>
        <time>2012-08-04T11:40:37Z</time>
      </trkpt>
      <trkpt lat="46.39884" lon="9.23054">
        <ele>871.09</ele>
        <time>2012-08-04T11:40:38Z</time>
      </trkpt>
      <trkpt lat="46.39882" lon="9.23039">
        <ele>870.61</ele>
        <time>2012-08-04T11:40:39Z</time>
      </trkpt>
      <trkpt lat="46.39881" lon="9.23024">
        <ele>869.65</ele>
        <time>2012-08-04T11:40:40Z</time>
      </trkpt>
      <trkpt lat="46.3988" lon="9.23011">
        <ele>869.17</ele>
        <time>2012-08-04T11:40:41Z</time>
      </trkpt>
      <trkpt lat="46.39877" lon="9.23">
        <ele>867.73</ele>
        <time>2012-08-04T11:40:42Z</time>
      </trkpt>
      <trkpt lat="46.39871" lon="9.22993">
        <ele>867.25</ele>
        <time>2012-08-04T11:40:43Z</time>
      </trkpt>
      <trkpt lat="46.39864" lon="9.22988">
        <ele>866.77</ele>
        <time>2012-08-04T11:40:44Z</time>
      </trkpt>
      <trkpt lat="46.39856" lon="9.22988">
        <ele>866.29</ele>
        <time>2012-08-04T11:40:45Z</time>
      </trkpt>
      <trkpt lat="46.39847" lon="9.22992">
        <ele>866.29</ele>
        <time>2012-08-04T11:40:46Z</time>
      </trkpt>
      <trkpt lat="46.39837" lon="9.23">
        <ele>865.8</ele>
        <time>2012-08-04T11:40:47Z</time>
      </trkpt>
      <trkpt lat="46.39827" lon="9.23009">
        <ele>864.84</ele>
        <time>2012-08-04T11:40:48Z</time>
      </trkpt>
      <trkpt lat="46.39816" lon="9.23019">
        <ele>863.4</ele>
        <time>2012-08-04T11:40:49Z</time>
      </trkpt>
      <trkpt lat="46.39805" lon="9.23026">
        <ele>862.92</ele>
        <time>2012-08-04T11:40:50Z</time>
      </trkpt>
      <trkpt lat="46.39792" lon="9.23031">
        <ele>861.48</ele>
        <time>2012-08-04T11:40:51Z</time>
      </trkpt>
      <trkpt lat="46.39779" lon="9.23033">
        <ele>861</ele>
        <time>2012-08-04T11:40:52Z</time>
      </trkpt>
      <trkpt lat="46.39763" lon="9.23033">
        <ele>860.04</ele>
        <time>2012-08-04T11:40:53Z</time>
      </trkpt>
      <trkpt lat="46.39747" lon="9.23033">
        <ele>859.56</ele>
        <time>2012-08-04T11:40:54Z</time>
      </trkpt>
      <trkpt lat="46.39717" lon="9.23032">
        <ele>855.71</ele>
        <time>2012-08-04T11:40:56Z</time>
      </trkpt>
      <trkpt lat="46.3968" lon="9.23038">
        <ele>851.87</ele>
        <time>2012-08-04T11:40:59Z</time>
      </trkpt>
      <trkpt lat="46.39667" lon="9.23045">
        <ele>851.87</ele>
        <time>2012-08-04T11:41:00Z</time>
      </trkpt>
      <trkpt lat="46.39654" lon="9.23054">
        <ele>850.9</ele>
        <time>2012-08-04T11:41:01Z</time>
      </trkpt>
      <trkpt lat="46.39641" lon="9.23064">
        <ele>849.46</ele>
        <time>2012-08-04T11:41:02Z</time>
      </trkpt>
      <trkpt lat="46.39629" lon="9.23076">
        <ele>848.02</ele>
        <time>2012-08-04T11:41:03Z</time>
      </trkpt>
      <trkpt lat="46.39606" lon="9.231">
        <ele>844.66</ele>
        <time>2012-08-04T11:41:05Z</time>
      </trkpt>
      <trkpt lat="46.39589" lon="9.2312">
        <ele>839.85</ele>
        <time>2012-08-04T11:41:07Z</time>
      </trkpt>
      <trkpt lat="46.39583" lon="9.23128">
        <ele>838.89</ele>
        <time>2012-08-04T11:41:08Z</time>
      </trkpt>
      <trkpt lat="46.39575" lon="9.23134">
        <ele>837.45</ele>
        <time>2012-08-04T11:41:09Z</time>
      </trkpt>
      <trkpt lat="46.39567" lon="9.23139">
        <ele>836.96</ele>
        <time>2012-08-04T11:41:10Z</time>
      </trkpt>
      <trkpt lat="46.39558" lon="9.23143">
        <ele>836</ele>
        <time>2012-08-04T11:41:11Z</time>
      </trkpt>
      <trkpt lat="46.39548" lon="9.23147">
        <ele>835.04</ele>
        <time>2012-08-04T11:41:12Z</time>
      </trkpt>
      <trkpt lat="46.3952" lon="9.23157">
        <ele>832.16</ele>
        <time>2012-08-04T11:41:15Z</time>
      </trkpt>
      <trkpt lat="46.39482" lon="9.23172">
        <ele>827.83</ele>
        <time>2012-08-04T11:41:19Z</time>
      </trkpt>
      <trkpt lat="46.39453" lon="9.23182">
        <ele>824.47</ele>
        <time>2012-08-04T11:41:22Z</time>
      </trkpt>
      <trkpt lat="46.39429" lon="9.23192">
        <ele>821.1</ele>
        <time>2012-08-04T11:41:25Z</time>
      </trkpt>
      <trkpt lat="46.39398" lon="9.23204">
        <ele>818.22</ele>
        <time>2012-08-04T11:41:29Z</time>
      </trkpt>
      <trkpt lat="46.39367" lon="9.23215">
        <ele>815.82</ele>
        <time>2012-08-04T11:41:33Z</time>
      </trkpt>
      <trkpt lat="46.39321" lon="9.23232">
        <ele>812.45</ele>
        <time>2012-08-04T11:41:39Z</time>
      </trkpt>
      <trkpt lat="46.39271" lon="9.2325">
        <ele>809.09</ele>
        <time>2012-08-04T11:41:45Z</time>
      </trkpt>
      <trkpt lat="46.39217" lon="9.2327">
        <ele>805.72</ele>
        <time>2012-08-04T11:41:51Z</time>
      </trkpt>
      <trkpt lat="46.39199" lon="9.23276">
        <ele>804.76</ele>
        <time>2012-08-04T11:41:53Z</time>
      </trkpt>
      <trkpt lat="46.39157" lon="9.23295">
        <ele>801.4</ele>
        <time>2012-08-04T11:41:58Z</time>
      </trkpt>
      <trkpt lat="46.39143" lon="9.23302">
        <ele>799.95</ele>
        <time>2012-08-04T11:42:00Z</time>
      </trkpt>
      <trkpt lat="46.39106" lon="9.23307">
        <ele>796.59</ele>
        <time>2012-08-04T11:42:05Z</time>
      </trkpt>
      <trkpt lat="46.39092" lon="9.23307">
        <ele>795.63</ele>
        <time>2012-08-04T11:42:07Z</time>
      </trkpt>
      <trkpt lat="46.39084" lon="9.23308">
        <ele>795.15</ele>
        <time>2012-08-04T11:42:08Z</time>
      </trkpt>
      <trkpt lat="46.39077" lon="9.2331">
        <ele>794.67</ele>
        <time>2012-08-04T11:42:09Z</time>
      </trkpt>
      <trkpt lat="46.39007" lon="9.23316">
        <ele>791.3</ele>
        <time>2012-08-04T11:42:18Z</time>
      </trkpt>
      <trkpt lat="46.39" lon="9.23316">
        <ele>790.34</ele>
        <time>2012-08-04T11:42:19Z</time>
      </trkpt>
      <trkpt lat="46.38992" lon="9.23315">
        <ele>790.34</ele>
        <time>2012-08-04T11:42:20Z</time>
      </trkpt>
      <trkpt lat="46.38943" lon="9.23312">
        <ele>786.5</ele>
        <time>2012-08-04T11:42:26Z</time>
      </trkpt>
      <trkpt lat="46.38916" lon="9.23318">
        <ele>784.09</ele>
        <time>2012-08-04T11:42:29Z</time>
      </trkpt>
      <trkpt lat="46.38907" lon="9.23322">
        <ele>783.13</ele>
        <time>2012-08-04T11:42:30Z</time>
      </trkpt>
      <trkpt lat="46.38816" lon="9.23381">
        <ele>784.09</ele>
        <time>2012-08-04T11:42:39Z</time>
      </trkpt>
      <trkpt lat="46.38807" lon="9.23386">
        <ele>783.61</ele>
        <time>2012-08-04T11:42:40Z</time>
      </trkpt>
      <trkpt lat="46.38798" lon="9.23389">
        <ele>784.09</ele>
        <time>2012-08-04T11:42:41Z</time>
      </trkpt>
      <trkpt lat="46.38789" lon="9.23391">
        <ele>784.09</ele>
        <time>2012-08-04T11:42:42Z</time>
      </trkpt>
      <trkpt lat="46.38781" lon="9.23391">
        <ele>783.61</ele>
        <time>2012-08-04T11:42:43Z</time>
      </trkpt>
      <trkpt lat="46.38772" lon="9.23388">
        <ele>783.13</ele>
        <time>2012-08-04T11:42:44Z</time>
      </trkpt>
      <trkpt lat="46.38763" lon="9.23384">
        <ele>782.17</ele>
        <time>2012-08-04T11:42:45Z</time>
      </trkpt>
      <trkpt lat="46.38752" lon="9.23378">
        <ele>782.17</ele>
        <time>2012-08-04T11:42:46Z</time>
      </trkpt>
      <trkpt lat="46.38703" lon="9.23353">
        <ele>778.81</ele>
        <time>2012-08-04T11:42:50Z</time>
      </trkpt>
      <trkpt lat="46.38664" lon="9.23336">
        <ele>774.48</ele>
        <time>2012-08-04T11:42:53Z</time>
      </trkpt>
      <trkpt lat="46.38638" lon="9.23329">
        <ele>771.11</ele>
        <time>2012-08-04T11:42:55Z</time>
      </trkpt>
      <trkpt lat="46.386" lon="9.23329">
        <ele>767.75</ele>
        <time>2012-08-04T11:42:58Z</time>
      </trkpt>
      <trkpt lat="46.38574" lon="9.23329">
        <ele>764.39</ele>
        <time>2012-08-04T11:43:00Z</time>
      </trkpt>
      <trkpt lat="46.38524" lon="9.23315">
        <ele>759.58</ele>
        <time>2012-08-04T11:43:04Z</time>
      </trkpt>
      <trkpt lat="46.3849" lon="9.23302">
        <ele>755.25</ele>
        <time>2012-08-04T11:43:07Z</time>
      </trkpt>
      <trkpt lat="46.3848" lon="9.23295">
        <ele>754.29</ele>
        <time>2012-08-04T11:43:08Z</time>
      </trkpt>
      <trkpt lat="46.38472" lon="9.23287">
        <ele>753.81</ele>
        <time>2012-08-04T11:43:09Z</time>
      </trkpt>
      <trkpt lat="46.38456" lon="9.23268">
        <ele>751.41</ele>
        <time>2012-08-04T11:43:11Z</time>
      </trkpt>
      <trkpt lat="46.38449" lon="9.23261">
        <ele>749.97</ele>
        <time>2012-08-04T11:43:12Z</time>
      </trkpt>
      <trkpt lat="46.38443" lon="9.23257">
        <ele>749</ele>
        <time>2012-08-04T11:43:13Z</time>
      </trkpt>
      <trkpt lat="46.38438" lon="9.23254">
        <ele>748.52</ele>
        <time>2012-08-04T11:43:14Z</time>
      </trkpt>
      <trkpt lat="46.38434" lon="9.23251">
        <ele>747.56</ele>
        <time>2012-08-04T11:43:15Z</time>
      </trkpt>
      <trkpt lat="46.38432" lon="9.23249">
        <ele>747.08</ele>
        <time>2012-08-04T11:43:16Z</time>
      </trkpt>
      <trkpt lat="46.38431" lon="9.2325">
        <ele>747.08</ele>
        <time>2012-08-04T11:43:17Z</time>
      </trkpt>
      <trkpt lat="46.38433" lon="9.2325">
        <ele>746.6</ele>
        <time>2012-08-04T11:43:35Z</time>
      </trkpt>
      <trkpt lat="46.38435" lon="9.23251">
        <ele>747.08</ele>
        <time>2012-08-04T11:44:01Z</time>
      </trkpt>
      <trkpt lat="46.38436" lon="9.23251">
        <ele>746.12</ele>
        <time>2012-08-04T11:44:35Z</time>
      </trkpt>
      <trkpt lat="46.38435" lon="9.23252">
        <ele>746.6</ele>
        <time>2012-08-04T11:44:56Z</time>
      </trkpt>
      <trkpt lat="46.38432" lon="9.2326">
        <ele>746.12</ele>
        <time>2012-08-04T11:45:00Z</time>
      </trkpt>
      <trkpt lat="46.38429" lon="9.23264">
        <ele>745.64</ele>
        <time>2012-08-04T11:45:01Z</time>
      </trkpt>
      <trkpt lat="46.38425" lon="9.23267">
        <ele>746.12</ele>
        <time>2012-08-04T11:45:02Z</time>
      </trkpt>
      <trkpt lat="46.38401" lon="9.23284">
        <ele>744.2</ele>
        <time>2012-08-04T11:45:06Z</time>
      </trkpt>
      <trkpt lat="46.38392" lon="9.23286">
        <ele>743.24</ele>
        <time>2012-08-04T11:45:07Z</time>
      </trkpt>
      <trkpt lat="46.38383" lon="9.23285">
        <ele>742.28</ele>
        <time>2012-08-04T11:45:08Z</time>
      </trkpt>
      <trkpt lat="46.38374" lon="9.23284">
        <ele>741.79</ele>
        <time>2012-08-04T11:45:09Z</time>
      </trkpt>
      <trkpt lat="46.38365" lon="9.23281">
        <ele>741.31</ele>
        <time>2012-08-04T11:45:10Z</time>
      </trkpt>
      <trkpt lat="46.38327" lon="9.23268">
        <ele>737.47</ele>
        <time>2012-08-04T11:45:14Z</time>
      </trkpt>
      <trkpt lat="46.38292" lon="9.23247">
        <ele>735.55</ele>
        <time>2012-08-04T11:45:18Z</time>
      </trkpt>
      <trkpt lat="46.38233" lon="9.2321">
        <ele>731.22</ele>
        <time>2012-08-04T11:45:24Z</time>
      </trkpt>
      <trkpt lat="46.3819" lon="9.23189">
        <ele>727.37</ele>
        <time>2012-08-04T11:45:28Z</time>
      </trkpt>
      <trkpt lat="46.38153" lon="9.23174">
        <ele>724.01</ele>
        <time>2012-08-04T11:45:31Z</time>
      </trkpt>
      <trkpt lat="46.38115" lon="9.2316">
        <ele>720.16</ele>
        <time>2012-08-04T11:45:34Z</time>
      </trkpt>
      <trkpt lat="46.3806" lon="9.2313">
        <ele>714.88</ele>
        <time>2012-08-04T11:45:38Z</time>
      </trkpt>
      <trkpt lat="46.38032" lon="9.23112">
        <ele>711.99</ele>
        <time>2012-08-04T11:45:40Z</time>
      </trkpt>
      <trkpt lat="46.37989" lon="9.23087">
        <ele>708.63</ele>
        <time>2012-08-04T11:45:43Z</time>
      </trkpt>
      <trkpt lat="46.37958" lon="9.23074">
        <ele>704.78</ele>
        <time>2012-08-04T11:45:45Z</time>
      </trkpt>
      <trkpt lat="46.3791" lon="9.23055">
        <ele>700.94</ele>
        <time>2012-08-04T11:45:48Z</time>
      </trkpt>
      <trkpt lat="46.37879" lon="9.23041">
        <ele>696.61</ele>
        <time>2012-08-04T11:45:50Z</time>
      </trkpt>
      <trkpt lat="46.3785" lon="9.23026">
        <ele>693.25</ele>
        <time>2012-08-04T11:45:52Z</time>
      </trkpt>
      <trkpt lat="46.37836" lon="9.23015">
        <ele>692.29</ele>
        <time>2012-08-04T11:45:53Z</time>
      </trkpt>
      <trkpt lat="46.37808" lon="9.22992">
        <ele>689.4</ele>
        <time>2012-08-04T11:45:55Z</time>
      </trkpt>
      <trkpt lat="46.37794" lon="9.22982">
        <ele>687.48</ele>
        <time>2012-08-04T11:45:56Z</time>
      </trkpt>
      <trkpt lat="46.37779" lon="9.22975">
        <ele>686.04</ele>
        <time>2012-08-04T11:45:57Z</time>
      </trkpt>
      <trkpt lat="46.37735" lon="9.2296">
        <ele>681.23</ele>
        <time>2012-08-04T11:46:00Z</time>
      </trkpt>
      <trkpt lat="46.37708" lon="9.2295">
        <ele>677.39</ele>
        <time>2012-08-04T11:46:02Z</time>
      </trkpt>
      <trkpt lat="46.37696" lon="9.22938">
        <ele>677.39</ele>
        <time>2012-08-04T11:46:03Z</time>
      </trkpt>
      <trkpt lat="46.37684" lon="9.22924">
        <ele>675.94</ele>
        <time>2012-08-04T11:46:04Z</time>
      </trkpt>
      <trkpt lat="46.37642" lon="9.22872">
        <ele>672.58</ele>
        <time>2012-08-04T11:46:07Z</time>
      </trkpt>
      <trkpt lat="46.37613" lon="9.22836">
        <ele>667.77</ele>
        <time>2012-08-04T11:46:09Z</time>
      </trkpt>
      <trkpt lat="46.37583" lon="9.22806">
        <ele>664.89</ele>
        <time>2012-08-04T11:46:11Z</time>
      </trkpt>
      <trkpt lat="46.37567" lon="9.22795">
        <ele>662.97</ele>
        <time>2012-08-04T11:46:12Z</time>
      </trkpt>
      <trkpt lat="46.3755" lon="9.22786">
        <ele>661.52</ele>
        <time>2012-08-04T11:46:13Z</time>
      </trkpt>
      <trkpt lat="46.37533" lon="9.2278">
        <ele>659.12</ele>
        <time>2012-08-04T11:46:14Z</time>
      </trkpt>
      <trkpt lat="46.37516" lon="9.22777">
        <ele>656.24</ele>
        <time>2012-08-04T11:46:15Z</time>
      </trkpt>
      <trkpt lat="46.37498" lon="9.22776">
        <ele>654.31</ele>
        <time>2012-08-04T11:46:16Z</time>
      </trkpt>
      <trkpt lat="46.37463" lon="9.22771">
        <ele>650.95</ele>
        <time>2012-08-04T11:46:18Z</time>
      </trkpt>
      <trkpt lat="46.37446" lon="9.22764">
        <ele>649.51</ele>
        <time>2012-08-04T11:46:19Z</time>
      </trkpt>
      <trkpt lat="46.37428" lon="9.22757">
        <ele>647.59</ele>
        <time>2012-08-04T11:46:20Z</time>
      </trkpt>
      <trkpt lat="46.37412" lon="9.22746">
        <ele>645.66</ele>
        <time>2012-08-04T11:46:21Z</time>
      </trkpt>
      <trkpt lat="46.37396" lon="9.22735">
        <ele>644.22</ele>
        <time>2012-08-04T11:46:22Z</time>
      </trkpt>
      <trkpt lat="46.37366" lon="9.22712">
        <ele>640.86</ele>
        <time>2012-08-04T11:46:24Z</time>
      </trkpt>
      <trkpt lat="46.37338" lon="9.22685">
        <ele>637.01</ele>
        <time>2012-08-04T11:46:26Z</time>
      </trkpt>
      <trkpt lat="46.37324" lon="9.22667">
        <ele>637.49</ele>
        <time>2012-08-04T11:46:27Z</time>
      </trkpt>
      <trkpt lat="46.37297" lon="9.22628">
        <ele>634.13</ele>
        <time>2012-08-04T11:46:29Z</time>
      </trkpt>
      <trkpt lat="46.37245" lon="9.22555">
        <ele>631.24</ele>
        <time>2012-08-04T11:46:33Z</time>
      </trkpt>
      <trkpt lat="46.37208" lon="9.22508">
        <ele>627.4</ele>
        <time>2012-08-04T11:46:36Z</time>
      </trkpt>
      <trkpt lat="46.37169" lon="9.22469">
        <ele>625.47</ele>
        <time>2012-08-04T11:46:39Z</time>
      </trkpt>
      <trkpt lat="46.37154" lon="9.2246">
        <ele>625.47</ele>
        <time>2012-08-04T11:46:40Z</time>
      </trkpt>
      <trkpt lat="46.37139" lon="9.22454">
        <ele>625.47</ele>
        <time>2012-08-04T11:46:41Z</time>
      </trkpt>
      <trkpt lat="46.37123" lon="9.2245">
        <ele>624.99</ele>
        <time>2012-08-04T11:46:42Z</time>
      </trkpt>
      <trkpt lat="46.37107" lon="9.22451">
        <ele>624.99</ele>
        <time>2012-08-04T11:46:43Z</time>
      </trkpt>
      <trkpt lat="46.37091" lon="9.22454">
        <ele>624.51</ele>
        <time>2012-08-04T11:46:44Z</time>
      </trkpt>
      <trkpt lat="46.37075" lon="9.22459">
        <ele>624.51</ele>
        <time>2012-08-04T11:46:45Z</time>
      </trkpt>
      <trkpt lat="46.37028" lon="9.22472">
        <ele>623.07</ele>
        <time>2012-08-04T11:46:48Z</time>
      </trkpt>
      <trkpt lat="46.37012" lon="9.22473">
        <ele>622.11</ele>
        <time>2012-08-04T11:46:49Z</time>
      </trkpt>
      <trkpt lat="46.36996" lon="9.22471">
        <ele>622.11</ele>
        <time>2012-08-04T11:46:50Z</time>
      </trkpt>
      <trkpt lat="46.36981" lon="9.22465">
        <ele>622.11</ele>
        <time>2012-08-04T11:46:51Z</time>
      </trkpt>
      <trkpt lat="46.36966" lon="9.22456">
        <ele>622.11</ele>
        <time>2012-08-04T11:46:52Z</time>
      </trkpt>
      <trkpt lat="46.36952" lon="9.22447">
        <ele>622.11</ele>
        <time>2012-08-04T11:46:53Z</time>
      </trkpt>
      <trkpt lat="46.36923" lon="9.22433">
        <ele>621.15</ele>
        <time>2012-08-04T11:46:55Z</time>
      </trkpt>
      <trkpt lat="46.36908" lon="9.2243">
        <ele>620.67</ele>
        <time>2012-08-04T11:46:56Z</time>
      </trkpt>
      <trkpt lat="46.36892" lon="9.22431">
        <ele>620.19</ele>
        <time>2012-08-04T11:46:57Z</time>
      </trkpt>
      <trkpt lat="46.36877" lon="9.22434">
        <ele>619.23</ele>
        <time>2012-08-04T11:46:58Z</time>
      </trkpt>
      <trkpt lat="46.36862" lon="9.22441">
        <ele>618.75</ele>
        <time>2012-08-04T11:46:59Z</time>
      </trkpt>
      <trkpt lat="46.36848" lon="9.22451">
        <ele>617.78</ele>
        <time>2012-08-04T11:47:00Z</time>
      </trkpt>
      <trkpt lat="46.36835" lon="9.22462">
        <ele>616.34</ele>
        <time>2012-08-04T11:47:01Z</time>
      </trkpt>
      <trkpt lat="46.36801" lon="9.2249">
        <ele>612.98</ele>
        <time>2012-08-04T11:47:04Z</time>
      </trkpt>
      <trkpt lat="46.36766" lon="9.2252">
        <ele>609.13</ele>
        <time>2012-08-04T11:47:08Z</time>
      </trkpt>
      <trkpt lat="46.3676" lon="9.22525">
        <ele>609.13</ele>
        <time>2012-08-04T11:47:09Z</time>
      </trkpt>
      <trkpt lat="46.36749" lon="9.22535">
        <ele>607.69</ele>
        <time>2012-08-04T11:47:11Z</time>
      </trkpt>
      <trkpt lat="46.3674" lon="9.22542">
        <ele>606.25</ele>
        <time>2012-08-04T11:47:13Z</time>
      </trkpt>
      <trkpt lat="46.36735" lon="9.22546">
        <ele>605.77</ele>
        <time>2012-08-04T11:47:21Z</time>
      </trkpt>
      <trkpt lat="46.3674" lon="9.22544">
        <ele>605.29</ele>
        <time>2012-08-04T11:47:49Z</time>
      </trkpt>
      <trkpt lat="46.36738" lon="9.22544">
        <ele>604.81</ele>
        <time>2012-08-04T11:48:05Z</time>
      </trkpt>
      <trkpt lat="46.36728" lon="9.2255">
        <ele>605.29</ele>
        <time>2012-08-04T11:48:07Z</time>
      </trkpt>
      <trkpt lat="46.36721" lon="9.22553">
        <ele>605.77</ele>
        <time>2012-08-04T11:48:08Z</time>
      </trkpt>
      <trkpt lat="46.36711" lon="9.22554">
        <ele>605.29</ele>
        <time>2012-08-04T11:48:09Z</time>
      </trkpt>
      <trkpt lat="46.36701" lon="9.22554">
        <ele>604.33</ele>
        <time>2012-08-04T11:48:10Z</time>
      </trkpt>
      <trkpt lat="46.36688" lon="9.22552">
        <ele>603.85</ele>
        <time>2012-08-04T11:48:11Z</time>
      </trkpt>
      <trkpt lat="46.36677" lon="9.2255">
        <ele>602.4</ele>
        <time>2012-08-04T11:48:12Z</time>
      </trkpt>
      <trkpt lat="46.36643" lon="9.22543">
        <ele>599.52</ele>
        <time>2012-08-04T11:48:16Z</time>
      </trkpt>
      <trkpt lat="46.36617" lon="9.22535">
        <ele>597.12</ele>
        <time>2012-08-04T11:48:20Z</time>
      </trkpt>
      <trkpt lat="46.36603" lon="9.22526">
        <ele>596.64</ele>
        <time>2012-08-04T11:48:22Z</time>
      </trkpt>
      <trkpt lat="46.36596" lon="9.2252">
        <ele>596.15</ele>
        <time>2012-08-04T11:48:23Z</time>
      </trkpt>
      <trkpt lat="46.3659" lon="9.22513">
        <ele>595.67</ele>
        <time>2012-08-04T11:48:24Z</time>
      </trkpt>
      <trkpt lat="46.36584" lon="9.22506">
        <ele>594.71</ele>
        <time>2012-08-04T11:48:25Z</time>
      </trkpt>
      <trkpt lat="46.36548" lon="9.22451">
        <ele>592.79</ele>
        <time>2012-08-04T11:48:32Z</time>
      </trkpt>
      <trkpt lat="46.36542" lon="9.22445">
        <ele>592.31</ele>
        <time>2012-08-04T11:48:33Z</time>
      </trkpt>
      <trkpt lat="46.36536" lon="9.2244">
        <ele>592.31</ele>
        <time>2012-08-04T11:48:34Z</time>
      </trkpt>
      <trkpt lat="46.36529" lon="9.22436">
        <ele>591.35</ele>
        <time>2012-08-04T11:48:35Z</time>
      </trkpt>
      <trkpt lat="46.3652" lon="9.22432">
        <ele>590.87</ele>
        <time>2012-08-04T11:48:36Z</time>
      </trkpt>
      <trkpt lat="46.3651" lon="9.2243">
        <ele>590.39</ele>
        <time>2012-08-04T11:48:37Z</time>
      </trkpt>
      <trkpt lat="46.365" lon="9.2243">
        <ele>589.91</ele>
        <time>2012-08-04T11:48:38Z</time>
      </trkpt>
      <trkpt lat="46.36489" lon="9.22432">
        <ele>589.91</ele>
        <time>2012-08-04T11:48:39Z</time>
      </trkpt>
      <trkpt lat="46.36477" lon="9.22436">
        <ele>589.43</ele>
        <time>2012-08-04T11:48:40Z</time>
      </trkpt>
      <trkpt lat="46.36464" lon="9.2244">
        <ele>588.95</ele>
        <time>2012-08-04T11:48:41Z</time>
      </trkpt>
      <trkpt lat="46.36428" lon="9.22451">
        <ele>586.06</ele>
        <time>2012-08-04T11:48:44Z</time>
      </trkpt>
      <trkpt lat="46.36403" lon="9.22455">
        <ele>584.14</ele>
        <time>2012-08-04T11:48:46Z</time>
      </trkpt>
      <trkpt lat="46.36389" lon="9.22454">
        <ele>584.14</ele>
        <time>2012-08-04T11:48:47Z</time>
      </trkpt>
      <trkpt lat="46.36376" lon="9.22451">
        <ele>583.66</ele>
        <time>2012-08-04T11:48:48Z</time>
      </trkpt>
      <trkpt lat="46.36362" lon="9.22446">
        <ele>583.66</ele>
        <time>2012-08-04T11:48:49Z</time>
      </trkpt>
      <trkpt lat="46.36349" lon="9.22439">
        <ele>583.18</ele>
        <time>2012-08-04T11:48:50Z</time>
      </trkpt>
      <trkpt lat="46.36295" lon="9.22405">
        <ele>582.22</ele>
        <time>2012-08-04T11:48:54Z</time>
      </trkpt>
      <trkpt lat="46.36284" lon="9.22392">
        <ele>581.73</ele>
        <time>2012-08-04T11:48:55Z</time>
      </trkpt>
      <trkpt lat="46.36273" lon="9.22376">
        <ele>581.73</ele>
        <time>2012-08-04T11:48:56Z</time>
      </trkpt>
      <trkpt lat="46.36264" lon="9.22358">
        <ele>581.25</ele>
        <time>2012-08-04T11:48:57Z</time>
      </trkpt>
      <trkpt lat="46.36257" lon="9.22338">
        <ele>581.25</ele>
        <time>2012-08-04T11:48:58Z</time>
      </trkpt>
      <trkpt lat="46.3625" lon="9.22316">
        <ele>581.25</ele>
        <time>2012-08-04T11:48:59Z</time>
      </trkpt>
      <trkpt lat="46.36226" lon="9.22254">
        <ele>579.81</ele>
        <time>2012-08-04T11:49:02Z</time>
      </trkpt>
      <trkpt lat="46.36207" lon="9.22219">
        <ele>578.85</ele>
        <time>2012-08-04T11:49:04Z</time>
      </trkpt>
      <trkpt lat="46.36195" lon="9.22204">
        <ele>578.85</ele>
        <time>2012-08-04T11:49:05Z</time>
      </trkpt>
      <trkpt lat="46.36183" lon="9.22189">
        <ele>577.89</ele>
        <time>2012-08-04T11:49:06Z</time>
      </trkpt>
      <trkpt lat="46.36168" lon="9.22176">
        <ele>578.37</ele>
        <time>2012-08-04T11:49:07Z</time>
      </trkpt>
      <trkpt lat="46.36152" lon="9.22165">
        <ele>578.85</ele>
        <time>2012-08-04T11:49:08Z</time>
      </trkpt>
      <trkpt lat="46.36135" lon="9.22155">
        <ele>578.37</ele>
        <time>2012-08-04T11:49:09Z</time>
      </trkpt>
      <trkpt lat="46.36117" lon="9.22147">
        <ele>578.37</ele>
        <time>2012-08-04T11:49:10Z</time>
      </trkpt>
      <trkpt lat="46.35929" lon="9.22065">
        <ele>575.01</ele>
        <time>2012-08-04T11:49:20Z</time>
      </trkpt>
      <trkpt lat="46.35853" lon="9.22032">
        <ele>571.16</ele>
        <time>2012-08-04T11:49:24Z</time>
      </trkpt>
      <trkpt lat="46.35834" lon="9.22024">
        <ele>571.16</ele>
        <time>2012-08-04T11:49:25Z</time>
      </trkpt>
      <trkpt lat="46.3578" lon="9.22">
        <ele>568.28</ele>
        <time>2012-08-04T11:49:28Z</time>
      </trkpt>
      <trkpt lat="46.35748" lon="9.21988">
        <ele>567.32</ele>
        <time>2012-08-04T11:49:30Z</time>
      </trkpt>
      <trkpt lat="46.35731" lon="9.21987">
        <ele>567.32</ele>
        <time>2012-08-04T11:49:31Z</time>
      </trkpt>
      <trkpt lat="46.35614" lon="9.21993">
        <ele>564.43</ele>
        <time>2012-08-04T11:49:37Z</time>
      </trkpt>
      <trkpt lat="46.35555" lon="9.21994">
        <ele>560.59</ele>
        <time>2012-08-04T11:49:40Z</time>
      </trkpt>
      <trkpt lat="46.35536" lon="9.21992">
        <ele>558.66</ele>
        <time>2012-08-04T11:49:41Z</time>
      </trkpt>
      <trkpt lat="46.35517" lon="9.21986">
        <ele>558.18</ele>
        <time>2012-08-04T11:49:42Z</time>
      </trkpt>
      <trkpt lat="46.35497" lon="9.21977">
        <ele>556.26</ele>
        <time>2012-08-04T11:49:43Z</time>
      </trkpt>
      <trkpt lat="46.35479" lon="9.21967">
        <ele>554.82</ele>
        <time>2012-08-04T11:49:44Z</time>
      </trkpt>
      <trkpt lat="46.35461" lon="9.21954">
        <ele>553.38</ele>
        <time>2012-08-04T11:49:45Z</time>
      </trkpt>
      <trkpt lat="46.35425" lon="9.21928">
        <ele>550.01</ele>
        <time>2012-08-04T11:49:47Z</time>
      </trkpt>
      <trkpt lat="46.35387" lon="9.21901">
        <ele>547.13</ele>
        <time>2012-08-04T11:49:49Z</time>
      </trkpt>
      <trkpt lat="46.35329" lon="9.21859">
        <ele>543.28</ele>
        <time>2012-08-04T11:49:52Z</time>
      </trkpt>
      <trkpt lat="46.35271" lon="9.21817">
        <ele>539.92</ele>
        <time>2012-08-04T11:49:55Z</time>
      </trkpt>
      <trkpt lat="46.35214" lon="9.21772">
        <ele>535.11</ele>
        <time>2012-08-04T11:49:58Z</time>
      </trkpt>
      <trkpt lat="46.35148" lon="9.21706">
        <ele>531.75</ele>
        <time>2012-08-04T11:50:02Z</time>
      </trkpt>
      <trkpt lat="46.35133" lon="9.21689">
        <ele>531.27</ele>
        <time>2012-08-04T11:50:03Z</time>
      </trkpt>
      <trkpt lat="46.35089" lon="9.21642">
        <ele>529.34</ele>
        <time>2012-08-04T11:50:06Z</time>
      </trkpt>
      <trkpt lat="46.34982" lon="9.21577">
        <ele>529.34</ele>
        <time>2012-08-04T11:50:13Z</time>
      </trkpt>
      <trkpt lat="46.34863" lon="9.21535">
        <ele>529.34</ele>
        <time>2012-08-04T11:50:22Z</time>
      </trkpt>
      <trkpt lat="46.34834" lon="9.21526">
        <ele>528.86</ele>
        <time>2012-08-04T11:50:25Z</time>
      </trkpt>
      <trkpt lat="46.34747" lon="9.2148">
        <ele>525.5</ele>
        <time>2012-08-04T11:50:35Z</time>
      </trkpt>
      <trkpt lat="46.34641" lon="9.21396">
        <ele>523.58</ele>
        <time>2012-08-04T11:50:46Z</time>
      </trkpt>
      <trkpt lat="46.34578" lon="9.21351">
        <ele>520.69</ele>
        <time>2012-08-04T11:50:51Z</time>
      </trkpt>
      <trkpt lat="46.34564" lon="9.21346">
        <ele>520.21</ele>
        <time>2012-08-04T11:50:52Z</time>
      </trkpt>
      <trkpt lat="46.3455" lon="9.21343">
        <ele>520.21</ele>
        <time>2012-08-04T11:50:53Z</time>
      </trkpt>
      <trkpt lat="46.34535" lon="9.21343">
        <ele>519.25</ele>
        <time>2012-08-04T11:50:54Z</time>
      </trkpt>
      <trkpt lat="46.3452" lon="9.21344">
        <ele>518.77</ele>
        <time>2012-08-04T11:50:55Z</time>
      </trkpt>
      <trkpt lat="46.34444" lon="9.21354">
        <ele>516.37</ele>
        <time>2012-08-04T11:51:00Z</time>
      </trkpt>
      <trkpt lat="46.34326" lon="9.21379">
        <ele>513</ele>
        <time>2012-08-04T11:51:07Z</time>
      </trkpt>
      <trkpt lat="46.34309" lon="9.21382">
        <ele>512.52</ele>
        <time>2012-08-04T11:51:08Z</time>
      </trkpt>
      <trkpt lat="46.3424" lon="9.21386">
        <ele>511.56</ele>
        <time>2012-08-04T11:51:12Z</time>
      </trkpt>
      <trkpt lat="46.34034" lon="9.21355">
        <ele>509.16</ele>
        <time>2012-08-04T11:51:24Z</time>
      </trkpt>
      <trkpt lat="46.34019" lon="9.21349">
        <ele>509.16</ele>
        <time>2012-08-04T11:51:25Z</time>
      </trkpt>
      <trkpt lat="46.34004" lon="9.21341">
        <ele>509.16</ele>
        <time>2012-08-04T11:51:26Z</time>
      </trkpt>
      <trkpt lat="46.33989" lon="9.2133">
        <ele>509.16</ele>
        <time>2012-08-04T11:51:27Z</time>
      </trkpt>
      <trkpt lat="46.33975" lon="9.21316">
        <ele>508.67</ele>
        <time>2012-08-04T11:51:28Z</time>
      </trkpt>
      <trkpt lat="46.33962" lon="9.21301">
        <ele>509.16</ele>
        <time>2012-08-04T11:51:29Z</time>
      </trkpt>
      <trkpt lat="46.33951" lon="9.21283">
        <ele>509.64</ele>
        <time>2012-08-04T11:51:30Z</time>
      </trkpt>
      <trkpt lat="46.3394" lon="9.21264">
        <ele>509.64</ele>
        <time>2012-08-04T11:51:31Z</time>
      </trkpt>
      <trkpt lat="46.33809" lon="9.21009">
        <ele>509.64</ele>
        <time>2012-08-04T11:51:44Z</time>
      </trkpt>
      <trkpt lat="46.33771" lon="9.2093">
        <ele>505.79</ele>
        <time>2012-08-04T11:51:48Z</time>
      </trkpt>
      <trkpt lat="46.33755" lon="9.20893">
        <ele>504.83</ele>
        <time>2012-08-04T11:51:50Z</time>
      </trkpt>
      <trkpt lat="46.33749" lon="9.20872">
        <ele>503.39</ele>
        <time>2012-08-04T11:51:51Z</time>
      </trkpt>
      <trkpt lat="46.33744" lon="9.20851">
        <ele>502.43</ele>
        <time>2012-08-04T11:51:52Z</time>
      </trkpt>
      <trkpt lat="46.3373" lon="9.20791">
        <ele>499.06</ele>
        <time>2012-08-04T11:51:55Z</time>
      </trkpt>
      <trkpt lat="46.33723" lon="9.20774">
        <ele>497.62</ele>
        <time>2012-08-04T11:51:56Z</time>
      </trkpt>
      <trkpt lat="46.33714" lon="9.20758">
        <ele>497.14</ele>
        <time>2012-08-04T11:51:57Z</time>
      </trkpt>
      <trkpt lat="46.33702" lon="9.20744">
        <ele>496.66</ele>
        <time>2012-08-04T11:51:58Z</time>
      </trkpt>
      <trkpt lat="46.33689" lon="9.20732">
        <ele>494.74</ele>
        <time>2012-08-04T11:51:59Z</time>
      </trkpt>
      <trkpt lat="46.33675" lon="9.20722">
        <ele>493.77</ele>
        <time>2012-08-04T11:52:00Z</time>
      </trkpt>
      <trkpt lat="46.33616" lon="9.20679">
        <ele>491.37</ele>
        <time>2012-08-04T11:52:04Z</time>
      </trkpt>
      <trkpt lat="46.33569" lon="9.20646">
        <ele>489.45</ele>
        <time>2012-08-04T11:52:07Z</time>
      </trkpt>
      <trkpt lat="46.33451" lon="9.2057">
        <ele>488.49</ele>
        <time>2012-08-04T11:52:14Z</time>
      </trkpt>
      <trkpt lat="46.33433" lon="9.20564">
        <ele>488.01</ele>
        <time>2012-08-04T11:52:15Z</time>
      </trkpt>
      <trkpt lat="46.33414" lon="9.20561">
        <ele>487.53</ele>
        <time>2012-08-04T11:52:16Z</time>
      </trkpt>
      <trkpt lat="46.33395" lon="9.2056">
        <ele>487.53</ele>
        <time>2012-08-04T11:52:17Z</time>
      </trkpt>
      <trkpt lat="46.33377" lon="9.20562">
        <ele>487.05</ele>
        <time>2012-08-04T11:52:18Z</time>
      </trkpt>
      <trkpt lat="46.33358" lon="9.20564">
        <ele>487.05</ele>
        <time>2012-08-04T11:52:19Z</time>
      </trkpt>
      <trkpt lat="46.332" lon="9.20586">
        <ele>485.6</ele>
        <time>2012-08-04T11:52:28Z</time>
      </trkpt>
      <trkpt lat="46.33182" lon="9.20584">
        <ele>485.12</ele>
        <time>2012-08-04T11:52:29Z</time>
      </trkpt>
      <trkpt lat="46.33164" lon="9.20579">
        <ele>484.16</ele>
        <time>2012-08-04T11:52:30Z</time>
      </trkpt>
      <trkpt lat="46.33113" lon="9.2056">
        <ele>482.24</ele>
        <time>2012-08-04T11:52:33Z</time>
      </trkpt>
      <trkpt lat="46.33069" lon="9.20542">
        <ele>480.32</ele>
        <time>2012-08-04T11:52:36Z</time>
      </trkpt>
      <trkpt lat="46.32994" lon="9.20512">
        <ele>477.43</ele>
        <time>2012-08-04T11:52:42Z</time>
      </trkpt>
      <trkpt lat="46.32875" lon="9.20431">
        <ele>477.43</ele>
        <time>2012-08-04T12:00:06Z</time>
      </trkpt>
      <trkpt lat="46.32875" lon="9.20432">
        <ele>477.43</ele>
        <time>2012-08-04T12:00:07Z</time>
      </trkpt>
      <trkpt lat="46.32875" lon="9.20434">
        <ele>474.07</ele>
        <time>2012-08-04T12:00:16Z</time>
      </trkpt>
      <trkpt lat="46.32873" lon="9.20434">
        <ele>471.18</ele>
        <time>2012-08-04T12:00:20Z</time>
      </trkpt>
      <trkpt lat="46.32873" lon="9.20434">
        <ele>469.74</ele>
        <time>2012-08-04T12:00:22Z</time>
      </trkpt>
      <trkpt lat="46.32872" lon="9.20436">
        <ele>466.86</ele>
        <time>2012-08-04T12:00:27Z</time>
      </trkpt>
      <trkpt lat="46.32871" lon="9.20435">
        <ele>465.42</ele>
        <time>2012-08-04T12:00:28Z</time>
      </trkpt>
      <trkpt lat="46.32861" lon="9.20432">
        <ele>465.9</ele>
        <time>2012-08-04T12:00:31Z</time>
      </trkpt>
      <trkpt lat="46.32853" lon="9.20429">
        <ele>466.38</ele>
        <time>2012-08-04T12:00:32Z</time>
      </trkpt>
      <trkpt lat="46.32844" lon="9.20423">
        <ele>465.9</ele>
        <time>2012-08-04T12:00:33Z</time>
      </trkpt>
      <trkpt lat="46.32834" lon="9.20416">
        <ele>465.42</ele>
        <time>2012-08-04T12:00:34Z</time>
      </trkpt>
      <trkpt lat="46.32717" lon="9.20343">
        <ele>464.93</ele>
        <time>2012-08-04T12:00:43Z</time>
      </trkpt>
      <trkpt lat="46.32617" lon="9.20324">
        <ele>463.01</ele>
        <time>2012-08-04T12:00:50Z</time>
      </trkpt>
      <trkpt lat="46.32482" lon="9.20331">
        <ele>459.65</ele>
        <time>2012-08-04T12:00:59Z</time>
      </trkpt>
      <trkpt lat="46.32405" lon="9.20353">
        <ele>457.72</ele>
        <time>2012-08-04T12:01:04Z</time>
      </trkpt>
      <trkpt lat="46.3234" lon="9.20377">
        <ele>453.88</ele>
        <time>2012-08-04T12:01:08Z</time>
      </trkpt>
      <trkpt lat="46.32237" lon="9.20409">
        <ele>450.52</ele>
        <time>2012-08-04T12:01:14Z</time>
      </trkpt>
      <trkpt lat="46.32218" lon="9.20409">
        <ele>449.55</ele>
        <time>2012-08-04T12:01:15Z</time>
      </trkpt>
      <trkpt lat="46.322" lon="9.20405">
        <ele>449.07</ele>
        <time>2012-08-04T12:01:16Z</time>
      </trkpt>
      <trkpt lat="46.32182" lon="9.20397">
        <ele>449.55</ele>
        <time>2012-08-04T12:01:17Z</time>
      </trkpt>
      <trkpt lat="46.32165" lon="9.20386">
        <ele>450.03</ele>
        <time>2012-08-04T12:01:18Z</time>
      </trkpt>
      <trkpt lat="46.32148" lon="9.20372">
        <ele>450.52</ele>
        <time>2012-08-04T12:01:19Z</time>
      </trkpt>
      <trkpt lat="46.32133" lon="9.20356">
        <ele>450.03</ele>
        <time>2012-08-04T12:01:20Z</time>
      </trkpt>
      <trkpt lat="46.32119" lon="9.20338">
        <ele>450.52</ele>
        <time>2012-08-04T12:01:21Z</time>
      </trkpt>
      <trkpt lat="46.31912" lon="9.20064">
        <ele>447.15</ele>
        <time>2012-08-04T12:01:35Z</time>
      </trkpt>
      <trkpt lat="46.31746" lon="9.19872">
        <ele>445.71</ele>
        <time>2012-08-04T12:01:46Z</time>
      </trkpt>
      <trkpt lat="46.31701" lon="9.19836">
        <ele>442.34</ele>
        <time>2012-08-04T12:01:49Z</time>
      </trkpt>
      <trkpt lat="46.31603" lon="9.19756">
        <ele>440.9</ele>
        <time>2012-08-04T12:01:58Z</time>
      </trkpt>
      <trkpt lat="46.31485" lon="9.19665">
        <ele>439.94</ele>
        <time>2012-08-04T12:02:09Z</time>
      </trkpt>
      <trkpt lat="46.31425" lon="9.19639">
        <ele>438.02</ele>
        <time>2012-08-04T12:02:14Z</time>
      </trkpt>
      <trkpt lat="46.31303" lon="9.19596">
        <ele>435.61</ele>
        <time>2012-08-04T12:02:24Z</time>
      </trkpt>
      <trkpt lat="46.31189" lon="9.19534">
        <ele>435.13</ele>
        <time>2012-08-04T12:02:35Z</time>
      </trkpt>
      <trkpt lat="46.31085" lon="9.19462">
        <ele>435.61</ele>
        <time>2012-08-04T12:02:43Z</time>
      </trkpt>
      <trkpt lat="46.3096" lon="9.19369">
        <ele>435.61</ele>
        <time>2012-08-04T12:02:52Z</time>
      </trkpt>
      <trkpt lat="46.3075" lon="9.19214">
        <ele>434.17</ele>
        <time>2012-08-04T12:03:04Z</time>
      </trkpt>
      <trkpt lat="46.30486" lon="9.19023">
        <ele>432.73</ele>
        <time>2012-08-04T12:03:19Z</time>
      </trkpt>
      <trkpt lat="46.30432" lon="9.18984">
        <ele>431.29</ele>
        <time>2012-08-04T12:03:22Z</time>
      </trkpt>
      <trkpt lat="46.3026" lon="9.18825">
        <ele>429.85</ele>
        <time>2012-08-04T12:03:32Z</time>
      </trkpt>
      <trkpt lat="46.30052" lon="9.18582">
        <ele>431.77</ele>
        <time>2012-08-04T12:03:44Z</time>
      </trkpt>
      <trkpt lat="46.30033" lon="9.18559">
        <ele>430.81</ele>
        <time>2012-08-04T12:03:45Z</time>
      </trkpt>
      <trkpt lat="46.29823" lon="9.18304">
        <ele>427.44</ele>
        <time>2012-08-04T12:03:56Z</time>
      </trkpt>
      <trkpt lat="46.29787" lon="9.18259">
        <ele>426.48</ele>
        <time>2012-08-04T12:03:58Z</time>
      </trkpt>
      <trkpt lat="46.29664" lon="9.18112">
        <ele>423.12</ele>
        <time>2012-08-04T12:04:05Z</time>
      </trkpt>
      <trkpt lat="46.29615" lon="9.18054">
        <ele>420.71</ele>
        <time>2012-08-04T12:04:08Z</time>
      </trkpt>
      <trkpt lat="46.2957" lon="9.18002">
        <ele>419.27</ele>
        <time>2012-08-04T12:04:11Z</time>
      </trkpt>
      <trkpt lat="46.29555" lon="9.1799">
        <ele>418.79</ele>
        <time>2012-08-04T12:04:12Z</time>
      </trkpt>
      <trkpt lat="46.29539" lon="9.17981">
        <ele>418.31</ele>
        <time>2012-08-04T12:04:13Z</time>
      </trkpt>
      <trkpt lat="46.29523" lon="9.17976">
        <ele>418.31</ele>
        <time>2012-08-04T12:04:14Z</time>
      </trkpt>
      <trkpt lat="46.29507" lon="9.17974">
        <ele>418.31</ele>
        <time>2012-08-04T12:04:15Z</time>
      </trkpt>
      <trkpt lat="46.2949" lon="9.17974">
        <ele>418.79</ele>
        <time>2012-08-04T12:04:16Z</time>
      </trkpt>
      <trkpt lat="46.29404" lon="9.17977">
        <ele>415.91</ele>
        <time>2012-08-04T12:04:23Z</time>
      </trkpt>
      <trkpt lat="46.29348" lon="9.17981">
        <ele>417.35</ele>
        <time>2012-08-04T12:04:28Z</time>
      </trkpt>
      <trkpt lat="46.29253" lon="9.17982">
        <ele>417.83</ele>
        <time>2012-08-04T12:04:35Z</time>
      </trkpt>
      <trkpt lat="46.29151" lon="9.17959">
        <ele>418.31</ele>
        <time>2012-08-04T12:04:42Z</time>
      </trkpt>
      <trkpt lat="46.29134" lon="9.17961">
        <ele>418.31</ele>
        <time>2012-08-04T12:04:43Z</time>
      </trkpt>
      <trkpt lat="46.29054" lon="9.1797">
        <ele>414.95</ele>
        <time>2012-08-04T12:04:48Z</time>
      </trkpt>
      <trkpt lat="46.29038" lon="9.17969">
        <ele>414.47</ele>
        <time>2012-08-04T12:04:49Z</time>
      </trkpt>
      <trkpt lat="46.29023" lon="9.17965">
        <ele>413.5</ele>
        <time>2012-08-04T12:04:50Z</time>
      </trkpt>
      <trkpt lat="46.29007" lon="9.17959">
        <ele>413.02</ele>
        <time>2012-08-04T12:04:51Z</time>
      </trkpt>
      <trkpt lat="46.28992" lon="9.17949">
        <ele>413.02</ele>
        <time>2012-08-04T12:04:52Z</time>
      </trkpt>
      <trkpt lat="46.28979" lon="9.17936">
        <ele>412.54</ele>
        <time>2012-08-04T12:04:53Z</time>
      </trkpt>
      <trkpt lat="46.28966" lon="9.17921">
        <ele>412.54</ele>
        <time>2012-08-04T12:04:54Z</time>
      </trkpt>
      <trkpt lat="46.28954" lon="9.17902">
        <ele>412.06</ele>
        <time>2012-08-04T12:04:55Z</time>
      </trkpt>
      <trkpt lat="46.28943" lon="9.17882">
        <ele>412.06</ele>
        <time>2012-08-04T12:04:56Z</time>
      </trkpt>
      <trkpt lat="46.28933" lon="9.1786">
        <ele>411.58</ele>
        <time>2012-08-04T12:04:57Z</time>
      </trkpt>
      <trkpt lat="46.28858" lon="9.17728">
        <ele>408.7</ele>
        <time>2012-08-04T12:05:03Z</time>
      </trkpt>
      <trkpt lat="46.288" lon="9.17648">
        <ele>404.85</ele>
        <time>2012-08-04T12:05:07Z</time>
      </trkpt>
      <trkpt lat="46.28755" lon="9.17589">
        <ele>401.49</ele>
        <time>2012-08-04T12:05:10Z</time>
      </trkpt>
      <trkpt lat="46.28744" lon="9.17568">
        <ele>400.05</ele>
        <time>2012-08-04T12:05:11Z</time>
      </trkpt>
      <trkpt lat="46.28734" lon="9.17543">
        <ele>400.05</ele>
        <time>2012-08-04T12:05:12Z</time>
      </trkpt>
      <trkpt lat="46.28727" lon="9.17514">
        <ele>401.01</ele>
        <time>2012-08-04T12:05:13Z</time>
      </trkpt>
      <trkpt lat="46.28723" lon="9.17484">
        <ele>400.53</ele>
        <time>2012-08-04T12:05:14Z</time>
      </trkpt>
      <trkpt lat="46.28719" lon="9.17455">
        <ele>400.53</ele>
        <time>2012-08-04T12:05:15Z</time>
      </trkpt>
      <trkpt lat="46.28708" lon="9.17385">
        <ele>396.2</ele>
        <time>2012-08-04T12:05:18Z</time>
      </trkpt>
      <trkpt lat="46.287" lon="9.17367">
        <ele>394.76</ele>
        <time>2012-08-04T12:05:19Z</time>
      </trkpt>
      <trkpt lat="46.2869" lon="9.17352">
        <ele>394.76</ele>
        <time>2012-08-04T12:05:20Z</time>
      </trkpt>
      <trkpt lat="46.28675" lon="9.17342">
        <ele>395.72</ele>
        <time>2012-08-04T12:05:21Z</time>
      </trkpt>
      <trkpt lat="46.28658" lon="9.17337">
        <ele>396.68</ele>
        <time>2012-08-04T12:05:22Z</time>
      </trkpt>
      <trkpt lat="46.28637" lon="9.17339">
        <ele>398.12</ele>
        <time>2012-08-04T12:05:23Z</time>
      </trkpt>
      <trkpt lat="46.28616" lon="9.17343">
        <ele>398.12</ele>
        <time>2012-08-04T12:05:24Z</time>
      </trkpt>
      <trkpt lat="46.28596" lon="9.17344">
        <ele>396.68</ele>
        <time>2012-08-04T12:05:25Z</time>
      </trkpt>
      <trkpt lat="46.28577" lon="9.17343">
        <ele>395.24</ele>
        <time>2012-08-04T12:05:26Z</time>
      </trkpt>
      <trkpt lat="46.28558" lon="9.1734">
        <ele>393.8</ele>
        <time>2012-08-04T12:05:27Z</time>
      </trkpt>
      <trkpt lat="46.28524" lon="9.17331">
        <ele>392.84</ele>
        <time>2012-08-04T12:05:29Z</time>
      </trkpt>
      <trkpt lat="46.28479" lon="9.17318">
        <ele>388.03</ele>
        <time>2012-08-04T12:05:32Z</time>
      </trkpt>
      <trkpt lat="46.28425" lon="9.17308">
        <ele>385.15</ele>
        <time>2012-08-04T12:05:36Z</time>
      </trkpt>
      <trkpt lat="46.28411" lon="9.17309">
        <ele>384.66</ele>
        <time>2012-08-04T12:05:37Z</time>
      </trkpt>
      <trkpt lat="46.28399" lon="9.17311">
        <ele>383.7</ele>
        <time>2012-08-04T12:05:38Z</time>
      </trkpt>
      <trkpt lat="46.28386" lon="9.17314">
        <ele>383.22</ele>
        <time>2012-08-04T12:05:39Z</time>
      </trkpt>
      <trkpt lat="46.28373" lon="9.17319">
        <ele>383.22</ele>
        <time>2012-08-04T12:05:40Z</time>
      </trkpt>
      <trkpt lat="46.2836" lon="9.17324">
        <ele>382.26</ele>
        <time>2012-08-04T12:05:41Z</time>
      </trkpt>
      <trkpt lat="46.28244" lon="9.17347">
        <ele>381.78</ele>
        <time>2012-08-04T12:05:50Z</time>
      </trkpt>
      <trkpt lat="46.28087" lon="9.17339">
        <ele>382.26</ele>
        <time>2012-08-04T12:06:01Z</time>
      </trkpt>
      <trkpt lat="46.27991" lon="9.17334">
        <ele>385.15</ele>
        <time>2012-08-04T12:06:09Z</time>
      </trkpt>
      <trkpt lat="46.27847" lon="9.17314">
        <ele>382.74</ele>
        <time>2012-08-04T12:06:17Z</time>
      </trkpt>
      <trkpt lat="46.27811" lon="9.17313">
        <ele>381.78</ele>
        <time>2012-08-04T12:06:19Z</time>
      </trkpt>
      <trkpt lat="46.27793" lon="9.17317">
        <ele>381.3</ele>
        <time>2012-08-04T12:06:20Z</time>
      </trkpt>
      <trkpt lat="46.27741" lon="9.17332">
        <ele>381.78</ele>
        <time>2012-08-04T12:06:23Z</time>
      </trkpt>
      <trkpt lat="46.27723" lon="9.17332">
        <ele>380.82</ele>
        <time>2012-08-04T12:06:24Z</time>
      </trkpt>
      <trkpt lat="46.27704" lon="9.1733">
        <ele>380.34</ele>
        <time>2012-08-04T12:06:25Z</time>
      </trkpt>
      <trkpt lat="46.27686" lon="9.17325">
        <ele>380.34</ele>
        <time>2012-08-04T12:06:26Z</time>
      </trkpt>
      <trkpt lat="46.27667" lon="9.17319">
        <ele>379.38</ele>
        <time>2012-08-04T12:06:27Z</time>
      </trkpt>
      <trkpt lat="46.27615" lon="9.17301">
        <ele>376.01</ele>
        <time>2012-08-04T12:06:30Z</time>
      </trkpt>
      <trkpt lat="46.27568" lon="9.17278">
        <ele>373.61</ele>
        <time>2012-08-04T12:06:33Z</time>
      </trkpt>
      <trkpt lat="46.27468" lon="9.17205">
        <ele>370.73</ele>
        <time>2012-08-04T12:06:40Z</time>
      </trkpt>
      <trkpt lat="46.27338" lon="9.17072">
        <ele>370.24</ele>
        <time>2012-08-04T12:06:50Z</time>
      </trkpt>
      <trkpt lat="46.27329" lon="9.17055">
        <ele>369.28</ele>
        <time>2012-08-04T12:06:51Z</time>
      </trkpt>
      <trkpt lat="46.2732" lon="9.17038">
        <ele>368.8</ele>
        <time>2012-08-04T12:06:52Z</time>
      </trkpt>
      <trkpt lat="46.27312" lon="9.17021">
        <ele>368.8</ele>
        <time>2012-08-04T12:06:53Z</time>
      </trkpt>
      <trkpt lat="46.27302" lon="9.17005">
        <ele>368.32</ele>
        <time>2012-08-04T12:06:54Z</time>
      </trkpt>
      <trkpt lat="46.27291" lon="9.16991">
        <ele>368.32</ele>
        <time>2012-08-04T12:06:55Z</time>
      </trkpt>
      <trkpt lat="46.27278" lon="9.1698">
        <ele>368.32</ele>
        <time>2012-08-04T12:06:56Z</time>
      </trkpt>
      <trkpt lat="46.27264" lon="9.1697">
        <ele>367.84</ele>
        <time>2012-08-04T12:06:57Z</time>
      </trkpt>
      <trkpt lat="46.27249" lon="9.1696">
        <ele>368.32</ele>
        <time>2012-08-04T12:06:58Z</time>
      </trkpt>
      <trkpt lat="46.27235" lon="9.16952">
        <ele>367.36</ele>
        <time>2012-08-04T12:06:59Z</time>
      </trkpt>
      <trkpt lat="46.27194" lon="9.1693">
        <ele>364.96</ele>
        <time>2012-08-04T12:07:02Z</time>
      </trkpt>
      <trkpt lat="46.27129" lon="9.16915">
        <ele>362.07</ele>
        <time>2012-08-04T12:07:07Z</time>
      </trkpt>
      <trkpt lat="46.2697" lon="9.16871">
        <ele>361.59</ele>
        <time>2012-08-04T12:07:20Z</time>
      </trkpt>
      <trkpt lat="46.26908" lon="9.16836">
        <ele>362.07</ele>
        <time>2012-08-04T12:07:25Z</time>
      </trkpt>
      <trkpt lat="46.26786" lon="9.16753">
        <ele>362.55</ele>
        <time>2012-08-04T12:07:33Z</time>
      </trkpt>
      <trkpt lat="46.26671" lon="9.16641">
        <ele>361.59</ele>
        <time>2012-08-04T12:07:41Z</time>
      </trkpt>
      <trkpt lat="46.26655" lon="9.16629">
        <ele>361.59</ele>
        <time>2012-08-04T12:07:42Z</time>
      </trkpt>
      <trkpt lat="46.26521" lon="9.16563">
        <ele>361.59</ele>
        <time>2012-08-04T12:07:50Z</time>
      </trkpt>
      <trkpt lat="46.26478" lon="9.16555">
        <ele>359.67</ele>
        <time>2012-08-04T12:07:53Z</time>
      </trkpt>
      <trkpt lat="46.26464" lon="9.16547">
        <ele>359.67</ele>
        <time>2012-08-04T12:07:54Z</time>
      </trkpt>
      <trkpt lat="46.2645" lon="9.16538">
        <ele>359.19</ele>
        <time>2012-08-04T12:07:55Z</time>
      </trkpt>
      <trkpt lat="46.26303" lon="9.16431">
        <ele>357.27</ele>
        <time>2012-08-04T12:08:05Z</time>
      </trkpt>
      <trkpt lat="46.26288" lon="9.16421">
        <ele>357.27</ele>
        <time>2012-08-04T12:08:06Z</time>
      </trkpt>
      <trkpt lat="46.26202" lon="9.16356">
        <ele>353.9</ele>
        <time>2012-08-04T12:08:12Z</time>
      </trkpt>
      <trkpt lat="46.26163" lon="9.16321">
        <ele>352.94</ele>
        <time>2012-08-04T12:08:15Z</time>
      </trkpt>
      <trkpt lat="46.2615" lon="9.16306">
        <ele>351.98</ele>
        <time>2012-08-04T12:08:16Z</time>
      </trkpt>
      <trkpt lat="46.26139" lon="9.1629">
        <ele>351.98</ele>
        <time>2012-08-04T12:08:17Z</time>
      </trkpt>
      <trkpt lat="46.26116" lon="9.16257">
        <ele>351.5</ele>
        <time>2012-08-04T12:08:19Z</time>
      </trkpt>
      <trkpt lat="46.26104" lon="9.16242">
        <ele>351.5</ele>
        <time>2012-08-04T12:08:20Z</time>
      </trkpt>
      <trkpt lat="46.2609" lon="9.16229">
        <ele>351.02</ele>
        <time>2012-08-04T12:08:21Z</time>
      </trkpt>
      <trkpt lat="46.25967" lon="9.16153">
        <ele>350.06</ele>
        <time>2012-08-04T12:08:29Z</time>
      </trkpt>
      <trkpt lat="46.25901" lon="9.16125">
        <ele>348.62</ele>
        <time>2012-08-04T12:08:33Z</time>
      </trkpt>
      <trkpt lat="46.25872" lon="9.16105">
        <ele>348.13</ele>
        <time>2012-08-04T12:08:35Z</time>
      </trkpt>
      <trkpt lat="46.25718" lon="9.15964">
        <ele>347.65</ele>
        <time>2012-08-04T12:08:45Z</time>
      </trkpt>
      <trkpt lat="46.25584" lon="9.15835">
        <ele>344.77</ele>
        <time>2012-08-04T12:08:53Z</time>
      </trkpt>
      <trkpt lat="46.25453" lon="9.15762">
        <ele>344.29</ele>
        <time>2012-08-04T12:09:00Z</time>
      </trkpt>
      <trkpt lat="46.25316" lon="9.15671">
        <ele>343.33</ele>
        <time>2012-08-04T12:09:08Z</time>
      </trkpt>
      <trkpt lat="46.2517" lon="9.15502">
        <ele>339.96</ele>
        <time>2012-08-04T12:09:18Z</time>
      </trkpt>
      <trkpt lat="46.25127" lon="9.15442">
        <ele>340.92</ele>
        <time>2012-08-04T12:09:22Z</time>
      </trkpt>
      <trkpt lat="46.25107" lon="9.15408">
        <ele>342.37</ele>
        <time>2012-08-04T12:09:24Z</time>
      </trkpt>
      <trkpt lat="46.25098" lon="9.15388">
        <ele>342.37</ele>
        <time>2012-08-04T12:09:25Z</time>
      </trkpt>
      <trkpt lat="46.25024" lon="9.15208">
        <ele>345.73</ele>
        <time>2012-08-04T12:09:34Z</time>
      </trkpt>
      <trkpt lat="46.25016" lon="9.15188">
        <ele>345.73</ele>
        <time>2012-08-04T12:09:35Z</time>
      </trkpt>
      <trkpt lat="46.25" lon="9.1515">
        <ele>347.17</ele>
        <time>2012-08-04T12:09:37Z</time>
      </trkpt>
      <trkpt lat="46.24968" lon="9.15075">
        <ele>350.54</ele>
        <time>2012-08-04T12:09:41Z</time>
      </trkpt>
      <trkpt lat="46.2493" lon="9.14983">
        <ele>353.9</ele>
        <time>2012-08-04T12:09:46Z</time>
      </trkpt>
      <trkpt lat="46.24871" lon="9.14832">
        <ele>357.27</ele>
        <time>2012-08-04T12:09:54Z</time>
      </trkpt>
      <trkpt lat="46.24828" lon="9.14736">
        <ele>353.9</ele>
        <time>2012-08-04T12:10:00Z</time>
      </trkpt>
      <trkpt lat="46.24777" lon="9.14621">
        <ele>354.38</ele>
        <time>2012-08-04T12:10:09Z</time>
      </trkpt>
      <trkpt lat="46.24775" lon="9.14612">
        <ele>354.86</ele>
        <time>2012-08-04T12:10:10Z</time>
      </trkpt>
      <trkpt lat="46.24773" lon="9.14604">
        <ele>354.86</ele>
        <time>2012-08-04T12:10:11Z</time>
      </trkpt>
      <trkpt lat="46.2477" lon="9.14599">
        <ele>354.86</ele>
        <time>2012-08-04T12:10:12Z</time>
      </trkpt>
      <trkpt lat="46.24768" lon="9.14596">
        <ele>354.86</ele>
        <time>2012-08-04T12:10:13Z</time>
      </trkpt>
      <trkpt lat="46.24759" lon="9.14574">
        <ele>354.86</ele>
        <time>2012-08-04T12:10:21Z</time>
      </trkpt>
      <trkpt lat="46.24734" lon="9.14506">
        <ele>354.86</ele>
        <time>2012-08-04T12:10:29Z</time>
      </trkpt>
      <trkpt lat="46.24731" lon="9.14496">
        <ele>354.38</ele>
        <time>2012-08-04T12:10:30Z</time>
      </trkpt>
      <trkpt lat="46.24729" lon="9.14487">
        <ele>354.86</ele>
        <time>2012-08-04T12:10:31Z</time>
      </trkpt>
      <trkpt lat="46.24726" lon="9.14477">
        <ele>354.86</ele>
        <time>2012-08-04T12:10:32Z</time>
      </trkpt>
      <trkpt lat="46.24722" lon="9.14467">
        <ele>354.86</ele>
        <time>2012-08-04T12:10:33Z</time>
      </trkpt>
      <trkpt lat="46.24671" lon="9.14352">
        <ele>354.38</ele>
        <time>2012-08-04T12:10:42Z</time>
      </trkpt>
      <trkpt lat="46.2464" lon="9.14272">
        <ele>353.42</ele>
        <time>2012-08-04T12:10:47Z</time>
      </trkpt>
      <trkpt lat="46.24637" lon="9.14255">
        <ele>353.42</ele>
        <time>2012-08-04T12:10:48Z</time>
      </trkpt>
      <trkpt lat="46.24626" lon="9.14193">
        <ele>352.46</ele>
        <time>2012-08-04T12:10:52Z</time>
      </trkpt>
      <trkpt lat="46.2462" lon="9.14179">
        <ele>352.46</ele>
        <time>2012-08-04T12:10:53Z</time>
      </trkpt>
      <trkpt lat="46.24614" lon="9.14167">
        <ele>352.46</ele>
        <time>2012-08-04T12:10:54Z</time>
      </trkpt>
      <trkpt lat="46.24607" lon="9.14156">
        <ele>351.5</ele>
        <time>2012-08-04T12:10:55Z</time>
      </trkpt>
      <trkpt lat="46.24598" lon="9.14145">
        <ele>351.5</ele>
        <time>2012-08-04T12:10:56Z</time>
      </trkpt>
      <trkpt lat="46.24522" lon="9.14061">
        <ele>348.13</ele>
        <time>2012-08-04T12:11:04Z</time>
      </trkpt>
      <trkpt lat="46.24477" lon="9.14027">
        <ele>346.21</ele>
        <time>2012-08-04T12:11:08Z</time>
      </trkpt>
      <trkpt lat="46.24428" lon="9.13996">
        <ele>342.85</ele>
        <time>2012-08-04T12:11:13Z</time>
      </trkpt>
      <trkpt lat="46.24371" lon="9.1396">
        <ele>339.48</ele>
        <time>2012-08-04T12:11:19Z</time>
      </trkpt>
      <trkpt lat="46.24361" lon="9.13953">
        <ele>339</ele>
        <time>2012-08-04T12:11:20Z</time>
      </trkpt>
      <trkpt lat="46.24288" lon="9.13909">
        <ele>334.68</ele>
        <time>2012-08-04T12:11:27Z</time>
      </trkpt>
      <trkpt lat="46.24278" lon="9.13903">
        <ele>334.68</ele>
        <time>2012-08-04T12:11:28Z</time>
      </trkpt>
      <trkpt lat="46.2426" lon="9.13892">
        <ele>333.71</ele>
        <time>2012-08-04T12:11:30Z</time>
      </trkpt>
      <trkpt lat="46.24173" lon="9.13836">
        <ele>330.83</ele>
        <time>2012-08-04T12:11:39Z</time>
      </trkpt>
      <trkpt lat="46.24129" lon="9.13791">
        <ele>329.39</ele>
        <time>2012-08-04T12:11:44Z</time>
      </trkpt>
      <trkpt lat="46.24121" lon="9.13779">
        <ele>328.43</ele>
        <time>2012-08-04T12:11:45Z</time>
      </trkpt>
      <trkpt lat="46.24095" lon="9.13725">
        <ele>327.47</ele>
        <time>2012-08-04T12:11:49Z</time>
      </trkpt>
      <trkpt lat="46.24023" lon="9.1358">
        <ele>324.1</ele>
        <time>2012-08-04T12:11:59Z</time>
      </trkpt>
      <trkpt lat="46.23995" lon="9.13523">
        <ele>321.7</ele>
        <time>2012-08-04T12:12:03Z</time>
      </trkpt>
      <trkpt lat="46.2399" lon="9.13507">
        <ele>321.22</ele>
        <time>2012-08-04T12:12:04Z</time>
      </trkpt>
      <trkpt lat="46.23985" lon="9.13494">
        <ele>320.26</ele>
        <time>2012-08-04T12:12:05Z</time>
      </trkpt>
      <trkpt lat="46.2396" lon="9.13425">
        <ele>316.89</ele>
        <time>2012-08-04T12:12:12Z</time>
      </trkpt>
      <trkpt lat="46.23951" lon="9.13399">
        <ele>314.97</ele>
        <time>2012-08-04T12:12:20Z</time>
      </trkpt>
      <trkpt lat="46.23948" lon="9.13385">
        <ele>314.97</ele>
        <time>2012-08-04T12:12:30Z</time>
      </trkpt>
      <trkpt lat="46.23922" lon="9.13307">
        <ele>314.01</ele>
        <time>2012-08-04T12:12:39Z</time>
      </trkpt>
      <trkpt lat="46.23909" lon="9.13265">
        <ele>314.01</ele>
        <time>2012-08-04T12:12:43Z</time>
      </trkpt>
      <trkpt lat="46.23901" lon="9.1322">
        <ele>313.53</ele>
        <time>2012-08-04T12:12:47Z</time>
      </trkpt>
      <trkpt lat="46.23898" lon="9.13209">
        <ele>313.05</ele>
        <time>2012-08-04T12:12:48Z</time>
      </trkpt>
      <trkpt lat="46.23888" lon="9.13178">
        <ele>312.09</ele>
        <time>2012-08-04T12:12:51Z</time>
      </trkpt>
      <trkpt lat="46.23841" lon="9.13072">
        <ele>310.64</ele>
        <time>2012-08-04T12:13:02Z</time>
      </trkpt>
      <trkpt lat="46.2384" lon="9.13061">
        <ele>310.16</ele>
        <time>2012-08-04T12:13:03Z</time>
      </trkpt>
      <trkpt lat="46.2384" lon="9.13048">
        <ele>310.16</ele>
        <time>2012-08-04T12:13:04Z</time>
      </trkpt>
      <trkpt lat="46.23853" lon="9.12907">
        <ele>309.68</ele>
        <time>2012-08-04T12:13:15Z</time>
      </trkpt>
      <trkpt lat="46.23863" lon="9.12733">
        <ele>308.24</ele>
        <time>2012-08-04T12:13:24Z</time>
      </trkpt>
      <trkpt lat="46.23861" lon="9.12491">
        <ele>309.2</ele>
        <time>2012-08-04T12:13:35Z</time>
      </trkpt>
      <trkpt lat="46.23868" lon="9.12288">
        <ele>306.32</ele>
        <time>2012-08-04T12:13:44Z</time>
      </trkpt>
      <trkpt lat="46.23887" lon="9.12057">
        <ele>305.84</ele>
        <time>2012-08-04T12:13:54Z</time>
      </trkpt>
      <trkpt lat="46.23884" lon="9.12034">
        <ele>306.8</ele>
        <time>2012-08-04T12:13:55Z</time>
      </trkpt>
      <trkpt lat="46.23864" lon="9.11917">
        <ele>305.36</ele>
        <time>2012-08-04T12:14:00Z</time>
      </trkpt>
      <trkpt lat="46.23813" lon="9.11742">
        <ele>303.91</ele>
        <time>2012-08-04T12:14:08Z</time>
      </trkpt>
      <trkpt lat="46.23811" lon="9.11723">
        <ele>305.36</ele>
        <time>2012-08-04T12:14:09Z</time>
      </trkpt>
      <trkpt lat="46.23811" lon="9.11703">
        <ele>304.88</ele>
        <time>2012-08-04T12:14:10Z</time>
      </trkpt>
      <trkpt lat="46.23812" lon="9.11683">
        <ele>305.36</ele>
        <time>2012-08-04T12:14:11Z</time>
      </trkpt>
      <trkpt lat="46.23812" lon="9.11663">
        <ele>305.36</ele>
        <time>2012-08-04T12:14:12Z</time>
      </trkpt>
      <trkpt lat="46.2381" lon="9.11642">
        <ele>305.36</ele>
        <time>2012-08-04T12:14:13Z</time>
      </trkpt>
      <trkpt lat="46.23805" lon="9.11621">
        <ele>304.88</ele>
        <time>2012-08-04T12:14:14Z</time>
      </trkpt>
      <trkpt lat="46.23798" lon="9.11601">
        <ele>305.36</ele>
        <time>2012-08-04T12:14:15Z</time>
      </trkpt>
      <trkpt lat="46.23789" lon="9.11581">
        <ele>304.39</ele>
        <time>2012-08-04T12:14:16Z</time>
      </trkpt>
      <trkpt lat="46.23765" lon="9.11518">
        <ele>302.95</ele>
        <time>2012-08-04T12:14:19Z</time>
      </trkpt>
      <trkpt lat="46.23759" lon="9.11496">
        <ele>302.95</ele>
        <time>2012-08-04T12:14:20Z</time>
      </trkpt>
      <trkpt lat="46.23754" lon="9.11472">
        <ele>302.47</ele>
        <time>2012-08-04T12:14:21Z</time>
      </trkpt>
      <trkpt lat="46.23721" lon="9.11284">
        <ele>301.03</ele>
        <time>2012-08-04T12:14:29Z</time>
      </trkpt>
      <trkpt lat="46.23706" lon="9.11164">
        <ele>299.59</ele>
        <time>2012-08-04T12:14:35Z</time>
      </trkpt>
      <trkpt lat="46.23706" lon="9.11146">
        <ele>299.59</ele>
        <time>2012-08-04T12:14:36Z</time>
      </trkpt>
      <trkpt lat="46.23707" lon="9.11128">
        <ele>299.59</ele>
        <time>2012-08-04T12:14:37Z</time>
      </trkpt>
      <trkpt lat="46.2371" lon="9.11111">
        <ele>298.63</ele>
        <time>2012-08-04T12:14:38Z</time>
      </trkpt>
      <trkpt lat="46.23715" lon="9.11094">
        <ele>298.15</ele>
        <time>2012-08-04T12:14:39Z</time>
      </trkpt>
      <trkpt lat="46.23721" lon="9.11078">
        <ele>297.67</ele>
        <time>2012-08-04T12:14:40Z</time>
      </trkpt>
      <trkpt lat="46.23728" lon="9.11064">
        <ele>297.18</ele>
        <time>2012-08-04T12:14:41Z</time>
      </trkpt>
      <trkpt lat="46.23736" lon="9.11051">
        <ele>296.7</ele>
        <time>2012-08-04T12:14:42Z</time>
      </trkpt>
      <trkpt lat="46.23745" lon="9.1104">
        <ele>296.22</ele>
        <time>2012-08-04T12:14:43Z</time>
      </trkpt>
      <trkpt lat="46.23753" lon="9.11029">
        <ele>295.26</ele>
        <time>2012-08-04T12:14:44Z</time>
      </trkpt>
      <trkpt lat="46.23761" lon="9.11017">
        <ele>294.78</ele>
        <time>2012-08-04T12:14:45Z</time>
      </trkpt>
      <trkpt lat="46.23768" lon="9.11005">
        <ele>295.26</ele>
        <time>2012-08-04T12:14:46Z</time>
      </trkpt>
      <trkpt lat="46.23774" lon="9.10991">
        <ele>294.3</ele>
        <time>2012-08-04T12:14:47Z</time>
      </trkpt>
      <trkpt lat="46.23801" lon="9.10927">
        <ele>295.26</ele>
        <time>2012-08-04T12:14:52Z</time>
      </trkpt>
      <trkpt lat="46.23804" lon="9.10914">
        <ele>295.26</ele>
        <time>2012-08-04T12:14:53Z</time>
      </trkpt>
      <trkpt lat="46.2381" lon="9.10884">
        <ele>295.26</ele>
        <time>2012-08-04T12:14:55Z</time>
      </trkpt>
      <trkpt lat="46.23815" lon="9.1087">
        <ele>294.78</ele>
        <time>2012-08-04T12:14:56Z</time>
      </trkpt>
      <trkpt lat="46.2382" lon="9.10856">
        <ele>294.78</ele>
        <time>2012-08-04T12:14:57Z</time>
      </trkpt>
      <trkpt lat="46.23824" lon="9.10841">
        <ele>294.78</ele>
        <time>2012-08-04T12:14:58Z</time>
      </trkpt>
      <trkpt lat="46.23827" lon="9.10825">
        <ele>295.26</ele>
        <time>2012-08-04T12:14:59Z</time>
      </trkpt>
      <trkpt lat="46.23867" lon="9.10706">
        <ele>295.26</ele>
        <time>2012-08-04T12:15:08Z</time>
      </trkpt>
      <trkpt lat="46.23873" lon="9.10676">
        <ele>293.82</ele>
        <time>2012-08-04T12:15:10Z</time>
      </trkpt>
      <trkpt lat="46.23879" lon="9.10647">
        <ele>292.86</ele>
        <time>2012-08-04T12:15:12Z</time>
      </trkpt>
      <trkpt lat="46.2389" lon="9.10584">
        <ele>290.46</ele>
        <time>2012-08-04T12:15:17Z</time>
      </trkpt>
      <trkpt lat="46.23891" lon="9.10573">
        <ele>290.46</ele>
        <time>2012-08-04T12:15:18Z</time>
      </trkpt>
      <trkpt lat="46.2388" lon="9.10491">
        <ele>289.49</ele>
        <time>2012-08-04T12:15:28Z</time>
      </trkpt>
      <trkpt lat="46.23878" lon="9.10485">
        <ele>289.49</ele>
        <time>2012-08-04T12:15:29Z</time>
      </trkpt>
      <trkpt lat="46.23874" lon="9.10472">
        <ele>289.97</ele>
        <time>2012-08-04T12:15:31Z</time>
      </trkpt>
      <trkpt lat="46.23871" lon="9.10466">
        <ele>289.97</ele>
        <time>2012-08-04T12:15:32Z</time>
      </trkpt>
      <trkpt lat="46.23867" lon="9.1046">
        <ele>290.46</ele>
        <time>2012-08-04T12:15:33Z</time>
      </trkpt>
      <trkpt lat="46.23864" lon="9.10455">
        <ele>290.46</ele>
        <time>2012-08-04T12:15:34Z</time>
      </trkpt>
      <trkpt lat="46.2386" lon="9.10449">
        <ele>290.94</ele>
        <time>2012-08-04T12:15:35Z</time>
      </trkpt>
      <trkpt lat="46.23823" lon="9.10374">
        <ele>292.38</ele>
        <time>2012-08-04T12:15:44Z</time>
      </trkpt>
      <trkpt lat="46.23805" lon="9.10325">
        <ele>291.42</ele>
        <time>2012-08-04T12:15:49Z</time>
      </trkpt>
      <trkpt lat="46.23803" lon="9.10312">
        <ele>291.9</ele>
        <time>2012-08-04T12:15:50Z</time>
      </trkpt>
      <trkpt lat="46.23802" lon="9.10298">
        <ele>292.38</ele>
        <time>2012-08-04T12:15:51Z</time>
      </trkpt>
      <trkpt lat="46.238" lon="9.10227">
        <ele>295.74</ele>
        <time>2012-08-04T12:15:55Z</time>
      </trkpt>
      <trkpt lat="46.23798" lon="9.10208">
        <ele>296.22</ele>
        <time>2012-08-04T12:15:56Z</time>
      </trkpt>
      <trkpt lat="46.23783" lon="9.10131">
        <ele>299.11</ele>
        <time>2012-08-04T12:16:00Z</time>
      </trkpt>
      <trkpt lat="46.2378" lon="9.10111">
        <ele>299.11</ele>
        <time>2012-08-04T12:16:01Z</time>
      </trkpt>
      <trkpt lat="46.23778" lon="9.1009">
        <ele>298.63</ele>
        <time>2012-08-04T12:16:02Z</time>
      </trkpt>
      <trkpt lat="46.23777" lon="9.10069">
        <ele>298.15</ele>
        <time>2012-08-04T12:16:03Z</time>
      </trkpt>
      <trkpt lat="46.23775" lon="9.09917">
        <ele>300.07</ele>
        <time>2012-08-04T12:16:10Z</time>
      </trkpt>
      <trkpt lat="46.23784" lon="9.09759">
        <ele>298.15</ele>
        <time>2012-08-04T12:16:17Z</time>
      </trkpt>
      <trkpt lat="46.23794" lon="9.09638">
        <ele>293.82</ele>
        <time>2012-08-04T12:16:22Z</time>
      </trkpt>
      <trkpt lat="46.23802" lon="9.09541">
        <ele>290.46</ele>
        <time>2012-08-04T12:16:26Z</time>
      </trkpt>
      <trkpt lat="46.23807" lon="9.09477">
        <ele>288.05</ele>
        <time>2012-08-04T12:16:29Z</time>
      </trkpt>
      <trkpt lat="46.23807" lon="9.09457">
        <ele>287.57</ele>
        <time>2012-08-04T12:16:30Z</time>
      </trkpt>
      <trkpt lat="46.23805" lon="9.09435">
        <ele>287.09</ele>
        <time>2012-08-04T12:16:31Z</time>
      </trkpt>
      <trkpt lat="46.23802" lon="9.09414">
        <ele>287.57</ele>
        <time>2012-08-04T12:16:32Z</time>
      </trkpt>
      <trkpt lat="46.23797" lon="9.09392">
        <ele>287.57</ele>
        <time>2012-08-04T12:16:33Z</time>
      </trkpt>
      <trkpt lat="46.2379" lon="9.09369">
        <ele>287.09</ele>
        <time>2012-08-04T12:16:34Z</time>
      </trkpt>
      <trkpt lat="46.23783" lon="9.09346">
        <ele>287.09</ele>
        <time>2012-08-04T12:16:35Z</time>
      </trkpt>
      <trkpt lat="46.23705" lon="9.0914">
        <ele>285.17</ele>
        <time>2012-08-04T12:16:44Z</time>
      </trkpt>
      <trkpt lat="46.23636" lon="9.08948">
        <ele>287.09</ele>
        <time>2012-08-04T12:16:52Z</time>
      </trkpt>
      <trkpt lat="46.23574" lon="9.08779">
        <ele>283.73</ele>
        <time>2012-08-04T12:16:59Z</time>
      </trkpt>
      <trkpt lat="46.23565" lon="9.08756">
        <ele>283.73</ele>
        <time>2012-08-04T12:17:00Z</time>
      </trkpt>
      <trkpt lat="46.23455" lon="9.08457">
        <ele>284.69</ele>
        <time>2012-08-04T12:17:12Z</time>
      </trkpt>
      <trkpt lat="46.23381" lon="9.08254">
        <ele>287.09</ele>
        <time>2012-08-04T12:17:20Z</time>
      </trkpt>
      <trkpt lat="46.23339" lon="9.08126">
        <ele>287.09</ele>
        <time>2012-08-04T12:17:25Z</time>
      </trkpt>
      <trkpt lat="46.23334" lon="9.08098">
        <ele>287.57</ele>
        <time>2012-08-04T12:17:26Z</time>
      </trkpt>
      <trkpt lat="46.23313" lon="9.07854">
        <ele>285.17</ele>
        <time>2012-08-04T12:17:35Z</time>
      </trkpt>
      <trkpt lat="46.23303" lon="9.07714">
        <ele>281.8</ele>
        <time>2012-08-04T12:17:41Z</time>
      </trkpt>
      <trkpt lat="46.23301" lon="9.07691">
        <ele>280.84</ele>
        <time>2012-08-04T12:17:42Z</time>
      </trkpt>
      <trkpt lat="46.23297" lon="9.07671">
        <ele>280.84</ele>
        <time>2012-08-04T12:17:43Z</time>
      </trkpt>
      <trkpt lat="46.23291" lon="9.07651">
        <ele>280.84</ele>
        <time>2012-08-04T12:17:44Z</time>
      </trkpt>
      <trkpt lat="46.23283" lon="9.07633">
        <ele>281.32</ele>
        <time>2012-08-04T12:17:45Z</time>
      </trkpt>
      <trkpt lat="46.23272" lon="9.07617">
        <ele>282.28</ele>
        <time>2012-08-04T12:17:46Z</time>
      </trkpt>
      <trkpt lat="46.2326" lon="9.07603">
        <ele>282.77</ele>
        <time>2012-08-04T12:17:47Z</time>
      </trkpt>
      <trkpt lat="46.23247" lon="9.07592">
        <ele>283.25</ele>
        <time>2012-08-04T12:17:48Z</time>
      </trkpt>
      <trkpt lat="46.23233" lon="9.07582">
        <ele>283.25</ele>
        <time>2012-08-04T12:17:49Z</time>
      </trkpt>
      <trkpt lat="46.23151" lon="9.07526">
        <ele>283.73</ele>
        <time>2012-08-04T12:17:55Z</time>
      </trkpt>
      <trkpt lat="46.2314" lon="9.07513">
        <ele>284.69</ele>
        <time>2012-08-04T12:17:56Z</time>
      </trkpt>
      <trkpt lat="46.2313" lon="9.07497">
        <ele>284.21</ele>
        <time>2012-08-04T12:17:57Z</time>
      </trkpt>
      <trkpt lat="46.23023" lon="9.07276">
        <ele>285.65</ele>
        <time>2012-08-04T12:18:09Z</time>
      </trkpt>
      <trkpt lat="46.22948" lon="9.07101">
        <ele>285.17</ele>
        <time>2012-08-04T12:18:19Z</time>
      </trkpt>
      <trkpt lat="46.22944" lon="9.07083">
        <ele>285.65</ele>
        <time>2012-08-04T12:18:20Z</time>
      </trkpt>
      <trkpt lat="46.22928" lon="9.06967">
        <ele>285.17</ele>
        <time>2012-08-04T12:18:27Z</time>
      </trkpt>
      <trkpt lat="46.22928" lon="9.0695">
        <ele>285.65</ele>
        <time>2012-08-04T12:18:28Z</time>
      </trkpt>
      <trkpt lat="46.2293" lon="9.06932">
        <ele>285.65</ele>
        <time>2012-08-04T12:18:29Z</time>
      </trkpt>
      <trkpt lat="46.22935" lon="9.06916">
        <ele>285.17</ele>
        <time>2012-08-04T12:18:30Z</time>
      </trkpt>
      <trkpt lat="46.22941" lon="9.069">
        <ele>285.17</ele>
        <time>2012-08-04T12:18:31Z</time>
      </trkpt>
      <trkpt lat="46.22947" lon="9.06885">
        <ele>285.65</ele>
        <time>2012-08-04T12:18:32Z</time>
      </trkpt>
      <trkpt lat="46.23024" lon="9.06703">
        <ele>284.69</ele>
        <time>2012-08-04T12:18:45Z</time>
      </trkpt>
      <trkpt lat="46.23054" lon="9.06614">
        <ele>283.25</ele>
        <time>2012-08-04T12:18:51Z</time>
      </trkpt>
      <trkpt lat="46.23057" lon="9.06599">
        <ele>283.25</ele>
        <time>2012-08-04T12:18:52Z</time>
      </trkpt>
      <trkpt lat="46.23076" lon="9.06529">
        <ele>281.32</ele>
        <time>2012-08-04T12:18:57Z</time>
      </trkpt>
      <trkpt lat="46.23085" lon="9.06493">
        <ele>280.84</ele>
        <time>2012-08-04T12:18:59Z</time>
      </trkpt>
      <trkpt lat="46.23088" lon="9.06451">
        <ele>281.8</ele>
        <time>2012-08-04T12:19:02Z</time>
      </trkpt>
      <trkpt lat="46.23085" lon="9.06438">
        <ele>281.8</ele>
        <time>2012-08-04T12:19:03Z</time>
      </trkpt>
      <trkpt lat="46.2308" lon="9.06427">
        <ele>282.77</ele>
        <time>2012-08-04T12:19:04Z</time>
      </trkpt>
      <trkpt lat="46.23074" lon="9.06415">
        <ele>281.8</ele>
        <time>2012-08-04T12:19:05Z</time>
      </trkpt>
      <trkpt lat="46.23067" lon="9.06403">
        <ele>281.32</ele>
        <time>2012-08-04T12:19:06Z</time>
      </trkpt>
      <trkpt lat="46.23022" lon="9.0632">
        <ele>277.96</ele>
        <time>2012-08-04T12:19:12Z</time>
      </trkpt>
      <trkpt lat="46.23014" lon="9.06306">
        <ele>277.48</ele>
        <time>2012-08-04T12:19:13Z</time>
      </trkpt>
      <trkpt lat="46.22991" lon="9.06262">
        <ele>274.59</ele>
        <time>2012-08-04T12:19:16Z</time>
      </trkpt>
      <trkpt lat="46.22955" lon="9.06192">
        <ele>271.23</ele>
        <time>2012-08-04T12:19:21Z</time>
      </trkpt>
      <trkpt lat="46.22927" lon="9.06137">
        <ele>269.31</ele>
        <time>2012-08-04T12:19:25Z</time>
      </trkpt>
      <trkpt lat="46.22906" lon="9.06095">
        <ele>267.38</ele>
        <time>2012-08-04T12:19:28Z</time>
      </trkpt>
      <trkpt lat="46.22892" lon="9.06068">
        <ele>266.42</ele>
        <time>2012-08-04T12:19:30Z</time>
      </trkpt>
      <trkpt lat="46.22823" lon="9.05924">
        <ele>265.94</ele>
        <time>2012-08-04T12:19:39Z</time>
      </trkpt>
      <trkpt lat="46.227" lon="9.0567">
        <ele>265.46</ele>
        <time>2012-08-04T12:19:53Z</time>
      </trkpt>
      <trkpt lat="46.22559" lon="9.05385">
        <ele>263.06</ele>
        <time>2012-08-04T12:20:07Z</time>
      </trkpt>
      <trkpt lat="46.22484" lon="9.05237">
        <ele>261.14</ele>
        <time>2012-08-04T12:20:16Z</time>
      </trkpt>
      <trkpt lat="46.22477" lon="9.0522">
        <ele>260.65</ele>
        <time>2012-08-04T12:20:17Z</time>
      </trkpt>
      <trkpt lat="46.22386" lon="9.05037">
        <ele>257.77</ele>
        <time>2012-08-04T12:20:29Z</time>
      </trkpt>
      <trkpt lat="46.22306" lon="9.04877">
        <ele>257.77</ele>
        <time>2012-08-04T12:20:40Z</time>
      </trkpt>
      <trkpt lat="46.22258" lon="9.04777">
        <ele>254.89</ele>
        <time>2012-08-04T12:20:48Z</time>
      </trkpt>
      <trkpt lat="46.22254" lon="9.04767">
        <ele>254.89</ele>
        <time>2012-08-04T12:20:49Z</time>
      </trkpt>
      <trkpt lat="46.22251" lon="9.04758">
        <ele>254.41</ele>
        <time>2012-08-04T12:20:50Z</time>
      </trkpt>
      <trkpt lat="46.22249" lon="9.04748">
        <ele>254.41</ele>
        <time>2012-08-04T12:20:51Z</time>
      </trkpt>
      <trkpt lat="46.22249" lon="9.0474">
        <ele>253.93</ele>
        <time>2012-08-04T12:20:52Z</time>
      </trkpt>
      <trkpt lat="46.22248" lon="9.04733">
        <ele>253.93</ele>
        <time>2012-08-04T12:20:53Z</time>
      </trkpt>
      <trkpt lat="46.22244" lon="9.04728">
        <ele>253.93</ele>
        <time>2012-08-04T12:20:54Z</time>
      </trkpt>
      <trkpt lat="46.22239" lon="9.04726">
        <ele>253.93</ele>
        <time>2012-08-04T12:20:55Z</time>
      </trkpt>
      <trkpt lat="46.22234" lon="9.04728">
        <ele>253.44</ele>
        <time>2012-08-04T12:20:56Z</time>
      </trkpt>
      <trkpt lat="46.22227" lon="9.04731">
        <ele>253.93</ele>
        <time>2012-08-04T12:20:57Z</time>
      </trkpt>
      <trkpt lat="46.22219" lon="9.04734">
        <ele>254.41</ele>
        <time>2012-08-04T12:20:58Z</time>
      </trkpt>
      <trkpt lat="46.2221" lon="9.04735">
        <ele>254.41</ele>
        <time>2012-08-04T12:20:59Z</time>
      </trkpt>
      <trkpt lat="46.222" lon="9.04734">
        <ele>254.41</ele>
        <time>2012-08-04T12:21:00Z</time>
      </trkpt>
      <trkpt lat="46.22189" lon="9.04733">
        <ele>255.37</ele>
        <time>2012-08-04T12:21:01Z</time>
      </trkpt>
      <trkpt lat="46.22177" lon="9.0473">
        <ele>255.85</ele>
        <time>2012-08-04T12:21:02Z</time>
      </trkpt>
      <trkpt lat="46.22167" lon="9.04725">
        <ele>256.33</ele>
        <time>2012-08-04T12:21:03Z</time>
      </trkpt>
      <trkpt lat="46.22156" lon="9.0472">
        <ele>255.85</ele>
        <time>2012-08-04T12:21:04Z</time>
      </trkpt>
      <trkpt lat="46.22144" lon="9.04712">
        <ele>255.85</ele>
        <time>2012-08-04T12:21:05Z</time>
      </trkpt>
      <trkpt lat="46.22132" lon="9.04698">
        <ele>257.29</ele>
        <time>2012-08-04T12:21:06Z</time>
      </trkpt>
      <trkpt lat="46.22122" lon="9.04682">
        <ele>257.29</ele>
        <time>2012-08-04T12:21:07Z</time>
      </trkpt>
      <trkpt lat="46.22113" lon="9.04665">
        <ele>257.29</ele>
        <time>2012-08-04T12:21:08Z</time>
      </trkpt>
      <trkpt lat="46.22105" lon="9.04646">
        <ele>258.25</ele>
        <time>2012-08-04T12:21:09Z</time>
      </trkpt>
      <trkpt lat="46.22098" lon="9.04628">
        <ele>258.73</ele>
        <time>2012-08-04T12:21:10Z</time>
      </trkpt>
      <trkpt lat="46.2206" lon="9.04531">
        <ele>261.14</ele>
        <time>2012-08-04T12:21:15Z</time>
      </trkpt>
      <trkpt lat="46.2205" lon="9.04514">
        <ele>261.14</ele>
        <time>2012-08-04T12:21:16Z</time>
      </trkpt>
      <trkpt lat="46.22039" lon="9.04499">
        <ele>261.62</ele>
        <time>2012-08-04T12:21:17Z</time>
      </trkpt>
      <trkpt lat="46.22026" lon="9.04486">
        <ele>261.62</ele>
        <time>2012-08-04T12:21:18Z</time>
      </trkpt>
      <trkpt lat="46.22013" lon="9.04475">
        <ele>261.62</ele>
        <time>2012-08-04T12:21:19Z</time>
      </trkpt>
      <trkpt lat="46.21999" lon="9.04469">
        <ele>263.06</ele>
        <time>2012-08-04T12:21:20Z</time>
      </trkpt>
      <trkpt lat="46.21984" lon="9.04464">
        <ele>263.06</ele>
        <time>2012-08-04T12:21:21Z</time>
      </trkpt>
      <trkpt lat="46.21968" lon="9.0446">
        <ele>264.02</ele>
        <time>2012-08-04T12:21:22Z</time>
      </trkpt>
      <trkpt lat="46.21847" lon="9.04395">
        <ele>265.46</ele>
        <time>2012-08-04T12:21:30Z</time>
      </trkpt>
      <trkpt lat="46.21746" lon="9.04284">
        <ele>264.98</ele>
        <time>2012-08-04T12:21:39Z</time>
      </trkpt>
      <trkpt lat="46.21717" lon="9.04251">
        <ele>263.54</ele>
        <time>2012-08-04T12:21:43Z</time>
      </trkpt>
      <trkpt lat="46.21714" lon="9.04245">
        <ele>263.06</ele>
        <time>2012-08-04T12:21:44Z</time>
      </trkpt>
      <trkpt lat="46.21713" lon="9.04237">
        <ele>263.54</ele>
        <time>2012-08-04T12:21:45Z</time>
      </trkpt>
      <trkpt lat="46.21714" lon="9.0423">
        <ele>263.54</ele>
        <time>2012-08-04T12:21:46Z</time>
      </trkpt>
      <trkpt lat="46.21715" lon="9.04223">
        <ele>263.06</ele>
        <time>2012-08-04T12:21:47Z</time>
      </trkpt>
      <trkpt lat="46.21715" lon="9.04214">
        <ele>263.54</ele>
        <time>2012-08-04T12:21:48Z</time>
      </trkpt>
      <trkpt lat="46.21712" lon="9.04207">
        <ele>263.06</ele>
        <time>2012-08-04T12:21:49Z</time>
      </trkpt>
      <trkpt lat="46.21708" lon="9.042">
        <ele>263.06</ele>
        <time>2012-08-04T12:21:50Z</time>
      </trkpt>
      <trkpt lat="46.21704" lon="9.04192">
        <ele>263.54</ele>
        <time>2012-08-04T12:21:51Z</time>
      </trkpt>
      <trkpt lat="46.217" lon="9.04183">
        <ele>263.54</ele>
        <time>2012-08-04T12:21:52Z</time>
      </trkpt>
      <trkpt lat="46.21696" lon="9.04173">
        <ele>263.54</ele>
        <time>2012-08-04T12:21:53Z</time>
      </trkpt>
      <trkpt lat="46.21643" lon="9.04047">
        <ele>263.06</ele>
        <time>2012-08-04T12:22:02Z</time>
      </trkpt>
      <trkpt lat="46.21635" lon="9.04033">
        <ele>261.62</ele>
        <time>2012-08-04T12:22:03Z</time>
      </trkpt>
      <trkpt lat="46.21596" lon="9.03987">
        <ele>259.69</ele>
        <time>2012-08-04T12:22:07Z</time>
      </trkpt>
      <trkpt lat="46.21566" lon="9.03963">
        <ele>257.29</ele>
        <time>2012-08-04T12:22:10Z</time>
      </trkpt>
      <trkpt lat="46.21541" lon="9.03947">
        <ele>254.41</ele>
        <time>2012-08-04T12:22:13Z</time>
      </trkpt>
      <trkpt lat="46.21536" lon="9.03938">
        <ele>253.93</ele>
        <time>2012-08-04T12:22:14Z</time>
      </trkpt>
      <trkpt lat="46.21532" lon="9.03928">
        <ele>254.41</ele>
        <time>2012-08-04T12:22:15Z</time>
      </trkpt>
      <trkpt lat="46.21529" lon="9.03915">
        <ele>254.89</ele>
        <time>2012-08-04T12:22:16Z</time>
      </trkpt>
      <trkpt lat="46.21527" lon="9.03901">
        <ele>255.37</ele>
        <time>2012-08-04T12:22:17Z</time>
      </trkpt>
      <trkpt lat="46.21528" lon="9.03885">
        <ele>255.85</ele>
        <time>2012-08-04T12:22:18Z</time>
      </trkpt>
      <trkpt lat="46.21529" lon="9.03868">
        <ele>255.85</ele>
        <time>2012-08-04T12:22:19Z</time>
      </trkpt>
      <trkpt lat="46.21534" lon="9.03712">
        <ele>256.33</ele>
        <time>2012-08-04T12:22:27Z</time>
      </trkpt>
      <trkpt lat="46.21536" lon="9.0369">
        <ele>256.33</ele>
        <time>2012-08-04T12:22:28Z</time>
      </trkpt>
      <trkpt lat="46.21537" lon="9.03648">
        <ele>256.81</ele>
        <time>2012-08-04T12:22:30Z</time>
      </trkpt>
      <trkpt lat="46.21541" lon="9.03628">
        <ele>258.25</ele>
        <time>2012-08-04T12:22:31Z</time>
      </trkpt>
      <trkpt lat="46.21547" lon="9.03611">
        <ele>259.21</ele>
        <time>2012-08-04T12:22:32Z</time>
      </trkpt>
      <trkpt lat="46.21556" lon="9.03595">
        <ele>260.65</ele>
        <time>2012-08-04T12:22:33Z</time>
      </trkpt>
      <trkpt lat="46.21565" lon="9.03578">
        <ele>262.58</ele>
        <time>2012-08-04T12:22:34Z</time>
      </trkpt>
      <trkpt lat="46.21586" lon="9.03545">
        <ele>266.42</ele>
        <time>2012-08-04T12:22:36Z</time>
      </trkpt>
      <trkpt lat="46.21617" lon="9.03495">
        <ele>269.31</ele>
        <time>2012-08-04T12:22:39Z</time>
      </trkpt>
      <trkpt lat="46.21633" lon="9.03471">
        <ele>269.31</ele>
        <time>2012-08-04T12:22:41Z</time>
      </trkpt>
      <trkpt lat="46.2164" lon="9.03464">
        <ele>269.79</ele>
        <time>2012-08-04T12:22:42Z</time>
      </trkpt>
      <trkpt lat="46.21646" lon="9.03459">
        <ele>269.79</ele>
        <time>2012-08-04T12:22:43Z</time>
      </trkpt>
      <trkpt lat="46.21651" lon="9.03456">
        <ele>269.79</ele>
        <time>2012-08-04T12:22:44Z</time>
      </trkpt>
      <trkpt lat="46.21654" lon="9.03455">
        <ele>270.27</ele>
        <time>2012-08-04T12:22:45Z</time>
      </trkpt>
      <trkpt lat="46.21657" lon="9.03454">
        <ele>270.27</ele>
        <time>2012-08-04T12:22:53Z</time>
      </trkpt>
      <trkpt lat="46.21659" lon="9.0345">
        <ele>270.75</ele>
        <time>2012-08-04T12:22:54Z</time>
      </trkpt>
      <trkpt lat="46.21661" lon="9.03442">
        <ele>271.23</ele>
        <time>2012-08-04T12:22:55Z</time>
      </trkpt>
      <trkpt lat="46.21664" lon="9.03431">
        <ele>271.23</ele>
        <time>2012-08-04T12:22:56Z</time>
      </trkpt>
      <trkpt lat="46.21666" lon="9.03418">
        <ele>272.67</ele>
        <time>2012-08-04T12:22:57Z</time>
      </trkpt>
      <trkpt lat="46.21668" lon="9.03404">
        <ele>273.15</ele>
        <time>2012-08-04T12:22:58Z</time>
      </trkpt>
      <trkpt lat="46.21669" lon="9.03389">
        <ele>273.15</ele>
        <time>2012-08-04T12:22:59Z</time>
      </trkpt>
      <trkpt lat="46.21669" lon="9.03374">
        <ele>273.63</ele>
        <time>2012-08-04T12:23:00Z</time>
      </trkpt>
      <trkpt lat="46.21668" lon="9.03358">
        <ele>274.59</ele>
        <time>2012-08-04T12:23:01Z</time>
      </trkpt>
      <trkpt lat="46.21665" lon="9.03342">
        <ele>275.07</ele>
        <time>2012-08-04T12:23:02Z</time>
      </trkpt>
      <trkpt lat="46.21661" lon="9.03327">
        <ele>275.56</ele>
        <time>2012-08-04T12:23:03Z</time>
      </trkpt>
      <trkpt lat="46.21657" lon="9.03314">
        <ele>275.56</ele>
        <time>2012-08-04T12:23:04Z</time>
      </trkpt>
      <trkpt lat="46.21653" lon="9.03304">
        <ele>275.56</ele>
        <time>2012-08-04T12:23:05Z</time>
      </trkpt>
      <trkpt lat="46.21647" lon="9.03297">
        <ele>275.56</ele>
        <time>2012-08-04T12:23:06Z</time>
      </trkpt>
      <trkpt lat="46.2164" lon="9.03294">
        <ele>276.04</ele>
        <time>2012-08-04T12:23:07Z</time>
      </trkpt>
      <trkpt lat="46.21631" lon="9.03294">
        <ele>277</ele>
        <time>2012-08-04T12:23:08Z</time>
      </trkpt>
      <trkpt lat="46.21621" lon="9.03295">
        <ele>277.96</ele>
        <time>2012-08-04T12:23:09Z</time>
      </trkpt>
      <trkpt lat="46.21598" lon="9.03298">
        <ele>279.4</ele>
        <time>2012-08-04T12:23:11Z</time>
      </trkpt>
      <trkpt lat="46.21565" lon="9.03305">
        <ele>279.88</ele>
        <time>2012-08-04T12:23:14Z</time>
      </trkpt>
      <trkpt lat="46.21556" lon="9.03311">
        <ele>280.36</ele>
        <time>2012-08-04T12:23:15Z</time>
      </trkpt>
      <trkpt lat="46.21548" lon="9.03319">
        <ele>280.36</ele>
        <time>2012-08-04T12:23:16Z</time>
      </trkpt>
      <trkpt lat="46.21519" lon="9.0336">
        <ele>283.25</ele>
        <time>2012-08-04T12:23:20Z</time>
      </trkpt>
      <trkpt lat="46.2151" lon="9.03369">
        <ele>283.73</ele>
        <time>2012-08-04T12:23:21Z</time>
      </trkpt>
      <trkpt lat="46.215" lon="9.03376">
        <ele>282.77</ele>
        <time>2012-08-04T12:23:22Z</time>
      </trkpt>
      <trkpt lat="46.21489" lon="9.03381">
        <ele>283.73</ele>
        <time>2012-08-04T12:23:23Z</time>
      </trkpt>
      <trkpt lat="46.21478" lon="9.03384">
        <ele>284.21</ele>
        <time>2012-08-04T12:23:24Z</time>
      </trkpt>
      <trkpt lat="46.21467" lon="9.03384">
        <ele>284.21</ele>
        <time>2012-08-04T12:23:25Z</time>
      </trkpt>
      <trkpt lat="46.21457" lon="9.03381">
        <ele>284.21</ele>
        <time>2012-08-04T12:23:26Z</time>
      </trkpt>
      <trkpt lat="46.21446" lon="9.03377">
        <ele>284.69</ele>
        <time>2012-08-04T12:23:27Z</time>
      </trkpt>
      <trkpt lat="46.21435" lon="9.03373">
        <ele>285.17</ele>
        <time>2012-08-04T12:23:28Z</time>
      </trkpt>
      <trkpt lat="46.21424" lon="9.03368">
        <ele>285.17</ele>
        <time>2012-08-04T12:23:29Z</time>
      </trkpt>
      <trkpt lat="46.21412" lon="9.03363">
        <ele>286.13</ele>
        <time>2012-08-04T12:23:30Z</time>
      </trkpt>
      <trkpt lat="46.21389" lon="9.03351">
        <ele>285.17</ele>
        <time>2012-08-04T12:23:32Z</time>
      </trkpt>
      <trkpt lat="46.21379" lon="9.03343">
        <ele>284.69</ele>
        <time>2012-08-04T12:23:33Z</time>
      </trkpt>
      <trkpt lat="46.21368" lon="9.03334">
        <ele>284.69</ele>
        <time>2012-08-04T12:23:34Z</time>
      </trkpt>
      <trkpt lat="46.2129" lon="9.03265">
        <ele>281.32</ele>
        <time>2012-08-04T12:23:41Z</time>
      </trkpt>
      <trkpt lat="46.21279" lon="9.03256">
        <ele>281.32</ele>
        <time>2012-08-04T12:23:42Z</time>
      </trkpt>
      <trkpt lat="46.2121" lon="9.03175">
        <ele>276.04</ele>
        <time>2012-08-04T12:23:49Z</time>
      </trkpt>
      <trkpt lat="46.21201" lon="9.03162">
        <ele>277</ele>
        <time>2012-08-04T12:23:50Z</time>
      </trkpt>
      <trkpt lat="46.21176" lon="9.03123">
        <ele>275.07</ele>
        <time>2012-08-04T12:23:53Z</time>
      </trkpt>
      <trkpt lat="46.21169" lon="9.03109">
        <ele>274.59</ele>
        <time>2012-08-04T12:23:54Z</time>
      </trkpt>
      <trkpt lat="46.21163" lon="9.03095">
        <ele>273.63</ele>
        <time>2012-08-04T12:23:55Z</time>
      </trkpt>
      <trkpt lat="46.21157" lon="9.03083">
        <ele>272.67</ele>
        <time>2012-08-04T12:23:56Z</time>
      </trkpt>
      <trkpt lat="46.21149" lon="9.03071">
        <ele>272.67</ele>
        <time>2012-08-04T12:23:57Z</time>
      </trkpt>
      <trkpt lat="46.21141" lon="9.03062">
        <ele>272.19</ele>
        <time>2012-08-04T12:23:58Z</time>
      </trkpt>
      <trkpt lat="46.21131" lon="9.03054">
        <ele>271.23</ele>
        <time>2012-08-04T12:23:59Z</time>
      </trkpt>
      <trkpt lat="46.21122" lon="9.03048">
        <ele>270.75</ele>
        <time>2012-08-04T12:24:00Z</time>
      </trkpt>
      <trkpt lat="46.21105" lon="9.03035">
        <ele>269.31</ele>
        <time>2012-08-04T12:24:02Z</time>
      </trkpt>
      <trkpt lat="46.21099" lon="9.03026">
        <ele>268.35</ele>
        <time>2012-08-04T12:24:03Z</time>
      </trkpt>
      <trkpt lat="46.21094" lon="9.03015">
        <ele>268.83</ele>
        <time>2012-08-04T12:24:04Z</time>
      </trkpt>
      <trkpt lat="46.21092" lon="9.03001">
        <ele>268.35</ele>
        <time>2012-08-04T12:24:05Z</time>
      </trkpt>
      <trkpt lat="46.21091" lon="9.02983">
        <ele>270.75</ele>
        <time>2012-08-04T12:24:06Z</time>
      </trkpt>
      <trkpt lat="46.21091" lon="9.02965">
        <ele>269.31</ele>
        <time>2012-08-04T12:24:07Z</time>
      </trkpt>
      <trkpt lat="46.21087" lon="9.02898">
        <ele>265.94</ele>
        <time>2012-08-04T12:24:11Z</time>
      </trkpt>
      <trkpt lat="46.21072" lon="9.02786">
        <ele>263.54</ele>
        <time>2012-08-04T12:24:17Z</time>
      </trkpt>
      <trkpt lat="46.21068" lon="9.02768">
        <ele>263.06</ele>
        <time>2012-08-04T12:24:18Z</time>
      </trkpt>
      <trkpt lat="46.21062" lon="9.02751">
        <ele>262.58</ele>
        <time>2012-08-04T12:24:19Z</time>
      </trkpt>
      <trkpt lat="46.21056" lon="9.02736">
        <ele>261.14</ele>
        <time>2012-08-04T12:24:20Z</time>
      </trkpt>
      <trkpt lat="46.2105" lon="9.02721">
        <ele>261.14</ele>
        <time>2012-08-04T12:24:21Z</time>
      </trkpt>
      <trkpt lat="46.21025" lon="9.02677">
        <ele>260.65</ele>
        <time>2012-08-04T12:24:24Z</time>
      </trkpt>
      <trkpt lat="46.21015" lon="9.02665">
        <ele>259.69</ele>
        <time>2012-08-04T12:24:25Z</time>
      </trkpt>
      <trkpt lat="46.21004" lon="9.02653">
        <ele>258.73</ele>
        <time>2012-08-04T12:24:26Z</time>
      </trkpt>
      <trkpt lat="46.20993" lon="9.02642">
        <ele>258.73</ele>
        <time>2012-08-04T12:24:27Z</time>
      </trkpt>
      <trkpt lat="46.20981" lon="9.02633">
        <ele>258.73</ele>
        <time>2012-08-04T12:24:28Z</time>
      </trkpt>
      <trkpt lat="46.20968" lon="9.02624">
        <ele>259.69</ele>
        <time>2012-08-04T12:24:29Z</time>
      </trkpt>
      <trkpt lat="46.20955" lon="9.02617">
        <ele>257.29</ele>
        <time>2012-08-04T12:24:30Z</time>
      </trkpt>
      <trkpt lat="46.20893" lon="9.02577">
        <ele>255.85</ele>
        <time>2012-08-04T12:24:35Z</time>
      </trkpt>
      <trkpt lat="46.20795" lon="9.02455">
        <ele>252.96</ele>
        <time>2012-08-04T12:24:44Z</time>
      </trkpt>
      <trkpt lat="46.20787" lon="9.02436">
        <ele>252.48</ele>
        <time>2012-08-04T12:24:45Z</time>
      </trkpt>
      <trkpt lat="46.2078" lon="9.02417">
        <ele>253.93</ele>
        <time>2012-08-04T12:24:46Z</time>
      </trkpt>
      <trkpt lat="46.20774" lon="9.02396">
        <ele>254.89</ele>
        <time>2012-08-04T12:24:47Z</time>
      </trkpt>
      <trkpt lat="46.20769" lon="9.02375">
        <ele>250.08</ele>
        <time>2012-08-04T12:24:48Z</time>
      </trkpt>
      <trkpt lat="46.20765" lon="9.02353">
        <ele>252.48</ele>
        <time>2012-08-04T12:24:49Z</time>
      </trkpt>
      <trkpt lat="46.20761" lon="9.0233">
        <ele>252.48</ele>
        <time>2012-08-04T12:24:50Z</time>
      </trkpt>
      <trkpt lat="46.20747" lon="9.02245">
        <ele>249.12</ele>
        <time>2012-08-04T12:24:54Z</time>
      </trkpt>
      <trkpt lat="46.20744" lon="9.02226">
        <ele>248.64</ele>
        <time>2012-08-04T12:24:55Z</time>
      </trkpt>
      <trkpt lat="46.20734" lon="9.0217">
        <ele>247.68</ele>
        <time>2012-08-04T12:24:58Z</time>
      </trkpt>
      <trkpt lat="46.20728" lon="9.0215">
        <ele>248.16</ele>
        <time>2012-08-04T12:24:59Z</time>
      </trkpt>
      <trkpt lat="46.20656" lon="9.01983">
        <ele>249.6</ele>
        <time>2012-08-04T12:25:08Z</time>
      </trkpt>
      <trkpt lat="46.2064" lon="9.01955">
        <ele>250.56</ele>
        <time>2012-08-04T12:25:10Z</time>
      </trkpt>
      <trkpt lat="46.20632" lon="9.01943">
        <ele>251.04</ele>
        <time>2012-08-04T12:25:11Z</time>
      </trkpt>
      <trkpt lat="46.20622" lon="9.0193">
        <ele>252</ele>
        <time>2012-08-04T12:25:12Z</time>
      </trkpt>
      <trkpt lat="46.20588" lon="9.01887">
        <ele>249.6</ele>
        <time>2012-08-04T12:25:16Z</time>
      </trkpt>
      <trkpt lat="46.20578" lon="9.01877">
        <ele>250.08</ele>
        <time>2012-08-04T12:25:17Z</time>
      </trkpt>
      <trkpt lat="46.20566" lon="9.01868">
        <ele>249.6</ele>
        <time>2012-08-04T12:25:18Z</time>
      </trkpt>
      <trkpt lat="46.20544" lon="9.01849">
        <ele>247.2</ele>
        <time>2012-08-04T12:25:20Z</time>
      </trkpt>
      <trkpt lat="46.20535" lon="9.01837">
        <ele>245.75</ele>
        <time>2012-08-04T12:25:21Z</time>
      </trkpt>
      <trkpt lat="46.20526" lon="9.01823">
        <ele>244.79</ele>
        <time>2012-08-04T12:25:22Z</time>
      </trkpt>
      <trkpt lat="46.20519" lon="9.01807">
        <ele>244.79</ele>
        <time>2012-08-04T12:25:23Z</time>
      </trkpt>
      <trkpt lat="46.20514" lon="9.0179">
        <ele>243.83</ele>
        <time>2012-08-04T12:25:24Z</time>
      </trkpt>
      <trkpt lat="46.20509" lon="9.01772">
        <ele>243.35</ele>
        <time>2012-08-04T12:25:25Z</time>
      </trkpt>
      <trkpt lat="46.2048" lon="9.01665">
        <ele>243.83</ele>
        <time>2012-08-04T12:25:31Z</time>
      </trkpt>
      <trkpt lat="46.20471" lon="9.01652">
        <ele>243.83</ele>
        <time>2012-08-04T12:25:32Z</time>
      </trkpt>
      <trkpt lat="46.20462" lon="9.0164">
        <ele>243.83</ele>
        <time>2012-08-04T12:25:33Z</time>
      </trkpt>
      <trkpt lat="46.20367" lon="9.01553">
        <ele>246.72</ele>
        <time>2012-08-04T12:25:42Z</time>
      </trkpt>
      <trkpt lat="46.20308" lon="9.01494">
        <ele>246.23</ele>
        <time>2012-08-04T12:25:49Z</time>
      </trkpt>
      <trkpt lat="46.20301" lon="9.01487">
        <ele>246.72</ele>
        <time>2012-08-04T12:25:50Z</time>
      </trkpt>
      <trkpt lat="46.20262" lon="9.01447">
        <ele>250.08</ele>
        <time>2012-08-04T12:25:55Z</time>
      </trkpt>
      <trkpt lat="46.20253" lon="9.01439">
        <ele>250.08</ele>
        <time>2012-08-04T12:25:56Z</time>
      </trkpt>
      <trkpt lat="46.20198" lon="9.01372">
        <ele>253.44</ele>
        <time>2012-08-04T12:26:02Z</time>
      </trkpt>
      <trkpt lat="46.20183" lon="9.01344">
        <ele>253.93</ele>
        <time>2012-08-04T12:26:04Z</time>
      </trkpt>
      <trkpt lat="46.20121" lon="9.0123">
        <ele>254.41</ele>
        <time>2012-08-04T12:26:13Z</time>
      </trkpt>
      <trkpt lat="46.20053" lon="9.01102">
        <ele>251.04</ele>
        <time>2012-08-04T12:26:22Z</time>
      </trkpt>
      <trkpt lat="46.20033" lon="9.0107">
        <ele>250.08</ele>
        <time>2012-08-04T12:26:25Z</time>
      </trkpt>
      <trkpt lat="46.20025" lon="9.01061">
        <ele>250.08</ele>
        <time>2012-08-04T12:26:26Z</time>
      </trkpt>
      <trkpt lat="46.20016" lon="9.01053">
        <ele>250.08</ele>
        <time>2012-08-04T12:26:27Z</time>
      </trkpt>
      <trkpt lat="46.20005" lon="9.01046">
        <ele>250.56</ele>
        <time>2012-08-04T12:26:28Z</time>
      </trkpt>
      <trkpt lat="46.19993" lon="9.01038">
        <ele>250.56</ele>
        <time>2012-08-04T12:26:29Z</time>
      </trkpt>
      <trkpt lat="46.19929" lon="9.01004">
        <ele>248.16</ele>
        <time>2012-08-04T12:26:34Z</time>
      </trkpt>
      <trkpt lat="46.19797" lon="9.00949">
        <ele>247.68</ele>
        <time>2012-08-04T12:26:44Z</time>
      </trkpt>
      <trkpt lat="46.19757" lon="9.00936">
        <ele>246.23</ele>
        <time>2012-08-04T12:26:47Z</time>
      </trkpt>
      <trkpt lat="46.19641" lon="9.0089">
        <ele>244.79</ele>
        <time>2012-08-04T12:26:57Z</time>
      </trkpt>
      <trkpt lat="46.19618" lon="9.00879">
        <ele>244.31</ele>
        <time>2012-08-04T12:26:59Z</time>
      </trkpt>
      <trkpt lat="46.19607" lon="9.00875">
        <ele>243.83</ele>
        <time>2012-08-04T12:27:00Z</time>
      </trkpt>
      <trkpt lat="46.19597" lon="9.00874">
        <ele>243.35</ele>
        <time>2012-08-04T12:27:01Z</time>
      </trkpt>
      <trkpt lat="46.19559" lon="9.00871">
        <ele>242.87</ele>
        <time>2012-08-04T12:27:05Z</time>
      </trkpt>
      <trkpt lat="46.19548" lon="9.00867">
        <ele>242.87</ele>
        <time>2012-08-04T12:27:06Z</time>
      </trkpt>
      <trkpt lat="46.19494" lon="9.00843">
        <ele>244.31</ele>
        <time>2012-08-04T12:27:11Z</time>
      </trkpt>
      <trkpt lat="46.19414" lon="9.00814">
        <ele>244.31</ele>
        <time>2012-08-04T12:27:17Z</time>
      </trkpt>
      <trkpt lat="46.19349" lon="9.00771">
        <ele>240.95</ele>
        <time>2012-08-04T12:27:22Z</time>
      </trkpt>
      <trkpt lat="46.19336" lon="9.00762">
        <ele>240.47</ele>
        <time>2012-08-04T12:27:23Z</time>
      </trkpt>
      <trkpt lat="46.19275" lon="9.00703">
        <ele>239.99</ele>
        <time>2012-08-04T12:27:28Z</time>
      </trkpt>
      <trkpt lat="46.19256" lon="9.00672">
        <ele>239.51</ele>
        <time>2012-08-04T12:27:30Z</time>
      </trkpt>
      <trkpt lat="46.19249" lon="9.00655">
        <ele>239.51</ele>
        <time>2012-08-04T12:27:31Z</time>
      </trkpt>
      <trkpt lat="46.19228" lon="9.00587">
        <ele>240.95</ele>
        <time>2012-08-04T12:27:35Z</time>
      </trkpt>
      <trkpt lat="46.19221" lon="9.00572">
        <ele>240.95</ele>
        <time>2012-08-04T12:27:36Z</time>
      </trkpt>
      <trkpt lat="46.19214" lon="9.0056">
        <ele>240.95</ele>
        <time>2012-08-04T12:27:37Z</time>
      </trkpt>
      <trkpt lat="46.19206" lon="9.0055">
        <ele>241.43</ele>
        <time>2012-08-04T12:27:38Z</time>
      </trkpt>
      <trkpt lat="46.19199" lon="9.00542">
        <ele>240.95</ele>
        <time>2012-08-04T12:27:39Z</time>
      </trkpt>
      <trkpt lat="46.19192" lon="9.00535">
        <ele>240.95</ele>
        <time>2012-08-04T12:27:40Z</time>
      </trkpt>
      <trkpt lat="46.19173" lon="9.00515">
        <ele>239.99</ele>
        <time>2012-08-04T12:27:43Z</time>
      </trkpt>
      <trkpt lat="46.19166" lon="9.00504">
        <ele>240.47</ele>
        <time>2012-08-04T12:27:44Z</time>
      </trkpt>
      <trkpt lat="46.1916" lon="9.0049">
        <ele>239.99</ele>
        <time>2012-08-04T12:27:45Z</time>
      </trkpt>
      <trkpt lat="46.19091" lon="9.00338">
        <ele>239.02</ele>
        <time>2012-08-04T12:27:55Z</time>
      </trkpt>
      <trkpt lat="46.19011" lon="9.00127">
        <ele>241.43</ele>
        <time>2012-08-04T12:28:07Z</time>
      </trkpt>
      <trkpt lat="46.18993" lon="9.00076">
        <ele>242.87</ele>
        <time>2012-08-04T12:28:10Z</time>
      </trkpt>
      <trkpt lat="46.18957" lon="8.99972">
        <ele>245.75</ele>
        <time>2012-08-04T12:28:17Z</time>
      </trkpt>
      <trkpt lat="46.18944" lon="8.99937">
        <ele>247.2</ele>
        <time>2012-08-04T12:28:19Z</time>
      </trkpt>
      <trkpt lat="46.18913" lon="8.99854">
        <ele>250.56</ele>
        <time>2012-08-04T12:28:24Z</time>
      </trkpt>
      <trkpt lat="46.18896" lon="8.99802">
        <ele>250.56</ele>
        <time>2012-08-04T12:28:30Z</time>
      </trkpt>
      <trkpt lat="46.18888" lon="8.99779">
        <ele>252</ele>
        <time>2012-08-04T12:28:33Z</time>
      </trkpt>
      <trkpt lat="46.18864" lon="8.99724">
        <ele>254.89</ele>
        <time>2012-08-04T12:28:38Z</time>
      </trkpt>
      <trkpt lat="46.18828" lon="8.99657">
        <ele>258.25</ele>
        <time>2012-08-04T12:28:43Z</time>
      </trkpt>
      <trkpt lat="46.18821" lon="8.99643">
        <ele>258.73</ele>
        <time>2012-08-04T12:28:44Z</time>
      </trkpt>
      <trkpt lat="46.18778" lon="8.99566">
        <ele>261.14</ele>
        <time>2012-08-04T12:28:50Z</time>
      </trkpt>
      <trkpt lat="46.18741" lon="8.99501">
        <ele>264.98</ele>
        <time>2012-08-04T12:28:55Z</time>
      </trkpt>
      <trkpt lat="46.18718" lon="8.99457">
        <ele>266.42</ele>
        <time>2012-08-04T12:28:58Z</time>
      </trkpt>
      <trkpt lat="46.18694" lon="8.99415">
        <ele>268.35</ele>
        <time>2012-08-04T12:29:01Z</time>
      </trkpt>
      <trkpt lat="46.18645" lon="8.99329">
        <ele>271.23</ele>
        <time>2012-08-04T12:29:07Z</time>
      </trkpt>
      <trkpt lat="46.1863" lon="8.99302">
        <ele>272.19</ele>
        <time>2012-08-04T12:29:09Z</time>
      </trkpt>
      <trkpt lat="46.18585" lon="8.99177">
        <ele>268.35</ele>
        <time>2012-08-04T12:29:17Z</time>
      </trkpt>
      <trkpt lat="46.1858" lon="8.99161">
        <ele>268.35</ele>
        <time>2012-08-04T12:29:18Z</time>
      </trkpt>
      <trkpt lat="46.18562" lon="8.991">
        <ele>264.98</ele>
        <time>2012-08-04T12:29:22Z</time>
      </trkpt>
      <trkpt lat="46.18537" lon="8.99023">
        <ele>261.62</ele>
        <time>2012-08-04T12:29:27Z</time>
      </trkpt>
      <trkpt lat="46.18513" lon="8.98944">
        <ele>257.77</ele>
        <time>2012-08-04T12:29:32Z</time>
      </trkpt>
      <trkpt lat="46.18487" lon="8.98859">
        <ele>253.93</ele>
        <time>2012-08-04T12:29:37Z</time>
      </trkpt>
      <trkpt lat="46.18461" lon="8.98772">
        <ele>250.08</ele>
        <time>2012-08-04T12:29:42Z</time>
      </trkpt>
      <trkpt lat="46.18445" lon="8.9872">
        <ele>246.72</ele>
        <time>2012-08-04T12:29:45Z</time>
      </trkpt>
      <trkpt lat="46.18412" lon="8.98616">
        <ele>244.31</ele>
        <time>2012-08-04T12:29:51Z</time>
      </trkpt>
      <trkpt lat="46.18396" lon="8.98562">
        <ele>242.87</ele>
        <time>2012-08-04T12:29:54Z</time>
      </trkpt>
      <trkpt lat="46.18368" lon="8.98471">
        <ele>239.51</ele>
        <time>2012-08-04T12:29:59Z</time>
      </trkpt>
      <trkpt lat="46.18336" lon="8.98365">
        <ele>235.18</ele>
        <time>2012-08-04T12:30:05Z</time>
      </trkpt>
      <trkpt lat="46.18273" lon="8.98176">
        <ele>236.14</ele>
        <time>2012-08-04T12:30:16Z</time>
      </trkpt>
      <trkpt lat="46.18264" lon="8.98161">
        <ele>236.14</ele>
        <time>2012-08-04T12:30:17Z</time>
      </trkpt>
      <trkpt lat="46.18254" lon="8.98146">
        <ele>236.62</ele>
        <time>2012-08-04T12:30:18Z</time>
      </trkpt>
      <trkpt lat="46.1817" lon="8.98011">
        <ele>236.14</ele>
        <time>2012-08-04T12:30:27Z</time>
      </trkpt>
      <trkpt lat="46.18093" lon="8.97818">
        <ele>234.22</ele>
        <time>2012-08-04T12:30:37Z</time>
      </trkpt>
      <trkpt lat="46.18051" lon="8.97752">
        <ele>230.85</ele>
        <time>2012-08-04T12:30:42Z</time>
      </trkpt>
      <trkpt lat="46.1798" lon="8.97631">
        <ele>233.26</ele>
        <time>2012-08-04T12:30:50Z</time>
      </trkpt>
      <trkpt lat="46.17938" lon="8.97501">
        <ele>236.62</ele>
        <time>2012-08-04T12:30:56Z</time>
      </trkpt>
      <trkpt lat="46.17911" lon="8.97412">
        <ele>238.54</ele>
        <time>2012-08-04T12:31:00Z</time>
      </trkpt>
      <trkpt lat="46.17795" lon="8.9703">
        <ele>241.43</ele>
        <time>2012-08-04T12:31:17Z</time>
      </trkpt>
      <trkpt lat="46.17758" lon="8.96946">
        <ele>242.87</ele>
        <time>2012-08-04T12:31:21Z</time>
      </trkpt>
      <trkpt lat="46.17692" lon="8.96748">
        <ele>245.27</ele>
        <time>2012-08-04T12:31:30Z</time>
      </trkpt>
      <trkpt lat="46.17688" lon="8.96723">
        <ele>245.27</ele>
        <time>2012-08-04T12:31:31Z</time>
      </trkpt>
      <trkpt lat="46.17685" lon="8.96699">
        <ele>244.79</ele>
        <time>2012-08-04T12:31:32Z</time>
      </trkpt>
      <trkpt lat="46.17676" lon="8.96552">
        <ele>241.43</ele>
        <time>2012-08-04T12:31:38Z</time>
      </trkpt>
      <trkpt lat="46.17676" lon="8.9653">
        <ele>240.47</ele>
        <time>2012-08-04T12:31:39Z</time>
      </trkpt>
      <trkpt lat="46.17679" lon="8.96509">
        <ele>240.47</ele>
        <time>2012-08-04T12:31:40Z</time>
      </trkpt>
      <trkpt lat="46.17685" lon="8.96488">
        <ele>239.51</ele>
        <time>2012-08-04T12:31:41Z</time>
      </trkpt>
      <trkpt lat="46.17693" lon="8.96468">
        <ele>239.99</ele>
        <time>2012-08-04T12:31:42Z</time>
      </trkpt>
      <trkpt lat="46.17702" lon="8.96448">
        <ele>240.47</ele>
        <time>2012-08-04T12:31:43Z</time>
      </trkpt>
      <trkpt lat="46.17709" lon="8.96426">
        <ele>239.99</ele>
        <time>2012-08-04T12:31:44Z</time>
      </trkpt>
      <trkpt lat="46.17714" lon="8.96403">
        <ele>239.99</ele>
        <time>2012-08-04T12:31:45Z</time>
      </trkpt>
      <trkpt lat="46.17717" lon="8.96378">
        <ele>239.99</ele>
        <time>2012-08-04T12:31:46Z</time>
      </trkpt>
      <trkpt lat="46.17717" lon="8.96352">
        <ele>239.99</ele>
        <time>2012-08-04T12:31:47Z</time>
      </trkpt>
      <trkpt lat="46.17717" lon="8.96325">
        <ele>239.51</ele>
        <time>2012-08-04T12:31:48Z</time>
      </trkpt>
      <trkpt lat="46.17697" lon="8.96121">
        <ele>235.66</ele>
        <time>2012-08-04T12:31:56Z</time>
      </trkpt>
      <trkpt lat="46.17691" lon="8.9607">
        <ele>234.7</ele>
        <time>2012-08-04T12:31:58Z</time>
      </trkpt>
      <trkpt lat="46.17635" lon="8.95869">
        <ele>235.18</ele>
        <time>2012-08-04T12:32:06Z</time>
      </trkpt>
      <trkpt lat="46.17581" lon="8.95667">
        <ele>232.3</ele>
        <time>2012-08-04T12:32:14Z</time>
      </trkpt>
      <trkpt lat="46.17549" lon="8.95542">
        <ele>228.93</ele>
        <time>2012-08-04T12:32:19Z</time>
      </trkpt>
      <trkpt lat="46.17543" lon="8.95519">
        <ele>228.45</ele>
        <time>2012-08-04T12:32:20Z</time>
      </trkpt>
      <trkpt lat="46.17448" lon="8.95147">
        <ele>228.93</ele>
        <time>2012-08-04T12:32:36Z</time>
      </trkpt>
      <trkpt lat="46.17427" lon="8.94984">
        <ele>226.05</ele>
        <time>2012-08-04T12:32:45Z</time>
      </trkpt>
      <trkpt lat="46.17431" lon="8.94721">
        <ele>225.09</ele>
        <time>2012-08-04T12:33:00Z</time>
      </trkpt>
      <trkpt lat="46.17429" lon="8.94471">
        <ele>227.01</ele>
        <time>2012-08-04T12:33:14Z</time>
      </trkpt>
      <trkpt lat="46.17427" lon="8.94409">
        <ele>229.89</ele>
        <time>2012-08-04T12:33:18Z</time>
      </trkpt>
      <trkpt lat="46.17426" lon="8.94393">
        <ele>230.37</ele>
        <time>2012-08-04T12:33:19Z</time>
      </trkpt>
      <trkpt lat="46.17423" lon="8.94312">
        <ele>233.74</ele>
        <time>2012-08-04T12:33:24Z</time>
      </trkpt>
      <trkpt lat="46.17418" lon="8.94247">
        <ele>237.1</ele>
        <time>2012-08-04T12:33:28Z</time>
      </trkpt>
      <trkpt lat="46.17414" lon="8.94169">
        <ele>240.47</ele>
        <time>2012-08-04T12:33:33Z</time>
      </trkpt>
      <trkpt lat="46.1741" lon="8.94109">
        <ele>242.39</ele>
        <time>2012-08-04T12:33:37Z</time>
      </trkpt>
      <trkpt lat="46.1741" lon="8.94078">
        <ele>243.35</ele>
        <time>2012-08-04T12:33:39Z</time>
      </trkpt>
      <trkpt lat="46.17405" lon="8.93936">
        <ele>241.91</ele>
        <time>2012-08-04T12:33:49Z</time>
      </trkpt>
      <trkpt lat="46.17407" lon="8.93885">
        <ele>240.47</ele>
        <time>2012-08-04T12:33:53Z</time>
      </trkpt>
      <trkpt lat="46.17409" lon="8.93807">
        <ele>237.1</ele>
        <time>2012-08-04T12:33:59Z</time>
      </trkpt>
      <trkpt lat="46.17412" lon="8.93701">
        <ele>235.18</ele>
        <time>2012-08-04T12:34:05Z</time>
      </trkpt>
      <trkpt lat="46.17414" lon="8.93617">
        <ele>231.81</ele>
        <time>2012-08-04T12:34:09Z</time>
      </trkpt>
      <trkpt lat="46.17417" lon="8.93506">
        <ele>228.93</ele>
        <time>2012-08-04T12:34:14Z</time>
      </trkpt>
      <trkpt lat="46.17422" lon="8.93338">
        <ele>225.57</ele>
        <time>2012-08-04T12:34:21Z</time>
      </trkpt>
      <trkpt lat="46.17423" lon="8.93314">
        <ele>225.09</ele>
        <time>2012-08-04T12:34:22Z</time>
      </trkpt>
      <trkpt lat="46.17437" lon="8.9301">
        <ele>225.09</ele>
        <time>2012-08-04T12:34:36Z</time>
      </trkpt>
      <trkpt lat="46.17467" lon="8.92901">
        <ele>226.53</ele>
        <time>2012-08-04T12:34:43Z</time>
      </trkpt>
      <trkpt lat="46.17541" lon="8.9265">
        <ele>227.97</ele>
        <time>2012-08-04T12:34:58Z</time>
      </trkpt>
      <trkpt lat="46.17557" lon="8.92502">
        <ele>226.05</ele>
        <time>2012-08-04T12:35:06Z</time>
      </trkpt>
      <trkpt lat="46.1758" lon="8.92233">
        <ele>229.41</ele>
        <time>2012-08-04T12:35:21Z</time>
      </trkpt>
      <trkpt lat="46.17579" lon="8.92198">
        <ele>230.85</ele>
        <time>2012-08-04T12:35:23Z</time>
      </trkpt>
      <trkpt lat="46.17577" lon="8.9218">
        <ele>230.37</ele>
        <time>2012-08-04T12:35:24Z</time>
      </trkpt>
      <trkpt lat="46.17547" lon="8.91994">
        <ele>232.78</ele>
        <time>2012-08-04T12:35:36Z</time>
      </trkpt>
      <trkpt lat="46.17536" lon="8.91927">
        <ele>234.7</ele>
        <time>2012-08-04T12:35:40Z</time>
      </trkpt>
      <trkpt lat="46.17528" lon="8.9179">
        <ele>238.06</ele>
        <time>2012-08-04T12:35:48Z</time>
      </trkpt>
      <trkpt lat="46.17522" lon="8.91578">
        <ele>237.58</ele>
        <time>2012-08-04T12:36:01Z</time>
      </trkpt>
      <trkpt lat="46.17505" lon="8.91495">
        <ele>234.22</ele>
        <time>2012-08-04T12:36:06Z</time>
      </trkpt>
      <trkpt lat="46.17498" lon="8.91461">
        <ele>233.26</ele>
        <time>2012-08-04T12:36:08Z</time>
      </trkpt>
      <trkpt lat="46.1748" lon="8.91375">
        <ele>230.37</ele>
        <time>2012-08-04T12:36:13Z</time>
      </trkpt>
      <trkpt lat="46.17455" lon="8.91257">
        <ele>227.01</ele>
        <time>2012-08-04T12:36:20Z</time>
      </trkpt>
      <trkpt lat="46.17426" lon="8.91119">
        <ele>223.64</ele>
        <time>2012-08-04T12:36:28Z</time>
      </trkpt>
      <trkpt lat="46.1741" lon="8.91042">
        <ele>221.72</ele>
        <time>2012-08-04T12:36:32Z</time>
      </trkpt>
      <trkpt lat="46.17371" lon="8.90855">
        <ele>217.88</ele>
        <time>2012-08-04T12:36:41Z</time>
      </trkpt>
      <trkpt lat="46.17352" lon="8.90729">
        <ele>214.99</ele>
        <time>2012-08-04T12:36:47Z</time>
      </trkpt>
      <trkpt lat="46.17359" lon="8.9054">
        <ele>214.03</ele>
        <time>2012-08-04T12:36:56Z</time>
      </trkpt>
      <trkpt lat="46.17394" lon="8.90258">
        <ele>214.51</ele>
        <time>2012-08-04T12:37:09Z</time>
      </trkpt>
      <trkpt lat="46.17435" lon="8.89929">
        <ele>217.4</ele>
        <time>2012-08-04T12:37:24Z</time>
      </trkpt>
      <trkpt lat="46.1745" lon="8.8981">
        <ele>215.95</ele>
        <time>2012-08-04T12:37:30Z</time>
      </trkpt>
      <trkpt lat="46.17461" lon="8.89725">
        <ele>214.51</ele>
        <time>2012-08-04T12:37:34Z</time>
      </trkpt>
      <trkpt lat="46.17475" lon="8.89621">
        <ele>212.11</ele>
        <time>2012-08-04T12:37:39Z</time>
      </trkpt>
      <trkpt lat="46.17508" lon="8.89362">
        <ele>210.67</ele>
        <time>2012-08-04T12:37:52Z</time>
      </trkpt>
      <trkpt lat="46.17536" lon="8.89151">
        <ele>209.22</ele>
        <time>2012-08-04T12:38:05Z</time>
      </trkpt>
      <trkpt lat="46.17559" lon="8.88971">
        <ele>208.74</ele>
        <time>2012-08-04T12:38:16Z</time>
      </trkpt>
      <trkpt lat="46.17587" lon="8.88744">
        <ele>208.26</ele>
        <time>2012-08-04T12:38:30Z</time>
      </trkpt>
      <trkpt lat="46.17602" lon="8.8861">
        <ele>207.3</ele>
        <time>2012-08-04T12:38:41Z</time>
      </trkpt>
      <trkpt lat="46.17603" lon="8.88605">
        <ele>207.3</ele>
        <time>2012-08-04T12:38:42Z</time>
      </trkpt>
      <trkpt lat="46.17606" lon="8.88591">
        <ele>207.3</ele>
        <time>2012-08-04T12:38:45Z</time>
      </trkpt>
      <trkpt lat="46.17607" lon="8.88582">
        <ele>208.26</ele>
        <time>2012-08-04T12:38:46Z</time>
      </trkpt>
      <trkpt lat="46.17609" lon="8.88557">
        <ele>209.22</ele>
        <time>2012-08-04T12:38:48Z</time>
      </trkpt>
      <trkpt lat="46.17612" lon="8.88543">
        <ele>209.22</ele>
        <time>2012-08-04T12:38:49Z</time>
      </trkpt>
      <trkpt lat="46.17635" lon="8.88376">
        <ele>209.7</ele>
        <time>2012-08-04T12:38:59Z</time>
      </trkpt>
      <trkpt lat="46.17677" lon="8.8805">
        <ele>209.7</ele>
        <time>2012-08-04T12:39:16Z</time>
      </trkpt>
      <trkpt lat="46.17737" lon="8.87586">
        <ele>210.19</ele>
        <time>2012-08-04T12:39:39Z</time>
      </trkpt>
      <trkpt lat="46.17811" lon="8.87249">
        <ele>213.55</ele>
        <time>2012-08-04T12:39:56Z</time>
      </trkpt>
      <trkpt lat="46.17823" lon="8.8721">
        <ele>214.51</ele>
        <time>2012-08-04T12:39:58Z</time>
      </trkpt>
      <trkpt lat="46.17884" lon="8.87045">
        <ele>214.99</ele>
        <time>2012-08-04T12:40:08Z</time>
      </trkpt>
      <trkpt lat="46.17969" lon="8.86856">
        <ele>214.51</ele>
        <time>2012-08-04T12:40:21Z</time>
      </trkpt>
      <trkpt lat="46.1801" lon="8.8677">
        <ele>212.59</ele>
        <time>2012-08-04T12:40:28Z</time>
      </trkpt>
      <trkpt lat="46.18065" lon="8.86651">
        <ele>214.99</ele>
        <time>2012-08-04T12:40:38Z</time>
      </trkpt>
      <trkpt lat="46.18068" lon="8.86637">
        <ele>215.95</ele>
        <time>2012-08-04T12:40:39Z</time>
      </trkpt>
      <trkpt lat="46.18069" lon="8.86623">
        <ele>216.43</ele>
        <time>2012-08-04T12:40:40Z</time>
      </trkpt>
      <trkpt lat="46.18071" lon="8.86548">
        <ele>219.32</ele>
        <time>2012-08-04T12:40:45Z</time>
      </trkpt>
      <trkpt lat="46.18071" lon="8.86532">
        <ele>219.32</ele>
        <time>2012-08-04T12:40:46Z</time>
      </trkpt>
      <trkpt lat="46.18073" lon="8.86484">
        <ele>221.24</ele>
        <time>2012-08-04T12:40:49Z</time>
      </trkpt>
      <trkpt lat="46.18074" lon="8.86439">
        <ele>223.64</ele>
        <time>2012-08-04T12:40:52Z</time>
      </trkpt>
      <trkpt lat="46.18076" lon="8.86392">
        <ele>223.64</ele>
        <time>2012-08-04T12:40:58Z</time>
      </trkpt>
      <trkpt lat="46.18075" lon="8.86387">
        <ele>224.12</ele>
        <time>2012-08-04T12:41:10Z</time>
      </trkpt>
      <trkpt lat="46.18076" lon="8.86376">
        <ele>224.61</ele>
        <time>2012-08-04T12:41:13Z</time>
      </trkpt>
      <trkpt lat="46.18077" lon="8.86322">
        <ele>227.97</ele>
        <time>2012-08-04T12:41:17Z</time>
      </trkpt>
      <trkpt lat="46.18089" lon="8.86135">
        <ele>229.89</ele>
        <time>2012-08-04T12:41:29Z</time>
      </trkpt>
      <trkpt lat="46.18103" lon="8.85986">
        <ele>230.85</ele>
        <time>2012-08-04T12:41:39Z</time>
      </trkpt>
      <trkpt lat="46.18107" lon="8.85972">
        <ele>231.33</ele>
        <time>2012-08-04T12:41:40Z</time>
      </trkpt>
      <trkpt lat="46.18112" lon="8.85958">
        <ele>231.33</ele>
        <time>2012-08-04T12:41:41Z</time>
      </trkpt>
      <trkpt lat="46.18183" lon="8.85802">
        <ele>232.78</ele>
        <time>2012-08-04T12:41:53Z</time>
      </trkpt>
      <trkpt lat="46.182" lon="8.85761">
        <ele>233.74</ele>
        <time>2012-08-04T12:41:56Z</time>
      </trkpt>
      <trkpt lat="46.18204" lon="8.85746">
        <ele>233.74</ele>
        <time>2012-08-04T12:41:57Z</time>
      </trkpt>
      <trkpt lat="46.18206" lon="8.8573">
        <ele>234.22</ele>
        <time>2012-08-04T12:41:58Z</time>
      </trkpt>
      <trkpt lat="46.18219" lon="8.85599">
        <ele>235.66</ele>
        <time>2012-08-04T12:42:05Z</time>
      </trkpt>
      <trkpt lat="46.18224" lon="8.85579">
        <ele>236.14</ele>
        <time>2012-08-04T12:42:06Z</time>
      </trkpt>
      <trkpt lat="46.18238" lon="8.8552">
        <ele>236.62</ele>
        <time>2012-08-04T12:42:09Z</time>
      </trkpt>
      <trkpt lat="46.1824" lon="8.855">
        <ele>236.62</ele>
        <time>2012-08-04T12:42:10Z</time>
      </trkpt>
      <trkpt lat="46.1824" lon="8.85479">
        <ele>236.62</ele>
        <time>2012-08-04T12:42:11Z</time>
      </trkpt>
      <trkpt lat="46.18239" lon="8.85458">
        <ele>236.14</ele>
        <time>2012-08-04T12:42:12Z</time>
      </trkpt>
      <trkpt lat="46.18237" lon="8.85438">
        <ele>235.66</ele>
        <time>2012-08-04T12:42:13Z</time>
      </trkpt>
      <trkpt lat="46.18223" lon="8.85266">
        <ele>234.7</ele>
        <time>2012-08-04T12:42:22Z</time>
      </trkpt>
      <trkpt lat="46.18217" lon="8.85249">
        <ele>234.7</ele>
        <time>2012-08-04T12:42:23Z</time>
      </trkpt>
      <trkpt lat="46.18211" lon="8.85232">
        <ele>234.22</ele>
        <time>2012-08-04T12:42:24Z</time>
      </trkpt>
      <trkpt lat="46.18179" lon="8.85169">
        <ele>230.85</ele>
        <time>2012-08-04T12:42:28Z</time>
      </trkpt>
      <trkpt lat="46.1815" lon="8.8511">
        <ele>227.49</ele>
        <time>2012-08-04T12:42:32Z</time>
      </trkpt>
      <trkpt lat="46.18124" lon="8.85056">
        <ele>226.05</ele>
        <time>2012-08-04T12:42:36Z</time>
      </trkpt>
      <trkpt lat="46.18063" lon="8.84926">
        <ele>223.64</ele>
        <time>2012-08-04T12:42:46Z</time>
      </trkpt>
      <trkpt lat="46.18053" lon="8.84899">
        <ele>224.12</ele>
        <time>2012-08-04T12:42:49Z</time>
      </trkpt>
      <trkpt lat="46.18048" lon="8.84889">
        <ele>224.12</ele>
        <time>2012-08-04T12:42:50Z</time>
      </trkpt>
      <trkpt lat="46.18034" lon="8.84863">
        <ele>225.57</ele>
        <time>2012-08-04T12:42:52Z</time>
      </trkpt>
      <trkpt lat="46.18027" lon="8.84849">
        <ele>225.57</ele>
        <time>2012-08-04T12:42:53Z</time>
      </trkpt>
      <trkpt lat="46.1797" lon="8.84722">
        <ele>227.49</ele>
        <time>2012-08-04T12:43:01Z</time>
      </trkpt>
      <trkpt lat="46.17965" lon="8.84706">
        <ele>227.97</ele>
        <time>2012-08-04T12:43:02Z</time>
      </trkpt>
      <trkpt lat="46.17961" lon="8.8469">
        <ele>227.49</ele>
        <time>2012-08-04T12:43:03Z</time>
      </trkpt>
      <trkpt lat="46.17958" lon="8.84672">
        <ele>227.97</ele>
        <time>2012-08-04T12:43:04Z</time>
      </trkpt>
      <trkpt lat="46.17956" lon="8.84654">
        <ele>227.49</ele>
        <time>2012-08-04T12:43:05Z</time>
      </trkpt>
      <trkpt lat="46.17955" lon="8.84635">
        <ele>227.01</ele>
        <time>2012-08-04T12:43:06Z</time>
      </trkpt>
      <trkpt lat="46.17951" lon="8.84524">
        <ele>223.16</ele>
        <time>2012-08-04T12:43:12Z</time>
      </trkpt>
      <trkpt lat="46.17947" lon="8.84433">
        <ele>219.8</ele>
        <time>2012-08-04T12:43:17Z</time>
      </trkpt>
      <trkpt lat="46.17945" lon="8.84374">
        <ele>216.43</ele>
        <time>2012-08-04T12:43:20Z</time>
      </trkpt>
      <trkpt lat="46.17942" lon="8.84299">
        <ele>212.59</ele>
        <time>2012-08-04T12:43:24Z</time>
      </trkpt>
      <trkpt lat="46.17942" lon="8.84279">
        <ele>212.59</ele>
        <time>2012-08-04T12:43:25Z</time>
      </trkpt>
      <trkpt lat="46.17942" lon="8.8422">
        <ele>210.19</ele>
        <time>2012-08-04T12:43:28Z</time>
      </trkpt>
      <trkpt lat="46.17949" lon="8.84092">
        <ele>210.19</ele>
        <time>2012-08-04T12:43:36Z</time>
      </trkpt>
      <trkpt lat="46.17951" lon="8.84082">
        <ele>210.19</ele>
        <time>2012-08-04T12:43:37Z</time>
      </trkpt>
      <trkpt lat="46.17953" lon="8.84073">
        <ele>210.19</ele>
        <time>2012-08-04T12:43:38Z</time>
      </trkpt>
      <trkpt lat="46.17956" lon="8.84058">
        <ele>210.19</ele>
        <time>2012-08-04T12:43:40Z</time>
      </trkpt>
      <trkpt lat="46.17955" lon="8.8405">
        <ele>211.15</ele>
        <time>2012-08-04T12:43:41Z</time>
      </trkpt>
      <trkpt lat="46.17954" lon="8.84037">
        <ele>211.15</ele>
        <time>2012-08-04T12:43:42Z</time>
      </trkpt>
      <trkpt lat="46.17945" lon="8.83924">
        <ele>214.51</ele>
        <time>2012-08-04T12:43:48Z</time>
      </trkpt>
      <trkpt lat="46.17942" lon="8.83746">
        <ele>214.99</ele>
        <time>2012-08-04T12:43:57Z</time>
      </trkpt>
      <trkpt lat="46.1798" lon="8.8357">
        <ele>214.99</ele>
        <time>2012-08-04T12:44:06Z</time>
      </trkpt>
      <trkpt lat="46.18025" lon="8.83465">
        <ele>216.91</ele>
        <time>2012-08-04T12:44:12Z</time>
      </trkpt>
      <trkpt lat="46.1804" lon="8.83412">
        <ele>219.8</ele>
        <time>2012-08-04T12:44:15Z</time>
      </trkpt>
      <trkpt lat="46.18048" lon="8.83325">
        <ele>223.16</ele>
        <time>2012-08-04T12:44:20Z</time>
      </trkpt>
      <trkpt lat="46.18048" lon="8.83242">
        <ele>226.05</ele>
        <time>2012-08-04T12:44:25Z</time>
      </trkpt>
      <trkpt lat="46.18049" lon="8.83156">
        <ele>229.41</ele>
        <time>2012-08-04T12:44:30Z</time>
      </trkpt>
      <trkpt lat="46.18049" lon="8.83047">
        <ele>232.78</ele>
        <time>2012-08-04T12:44:37Z</time>
      </trkpt>
      <trkpt lat="46.18048" lon="8.8297">
        <ele>234.7</ele>
        <time>2012-08-04T12:44:42Z</time>
      </trkpt>
      <trkpt lat="46.18046" lon="8.82954">
        <ele>235.18</ele>
        <time>2012-08-04T12:44:43Z</time>
      </trkpt>
      <trkpt lat="46.18042" lon="8.8294">
        <ele>235.66</ele>
        <time>2012-08-04T12:44:44Z</time>
      </trkpt>
      <trkpt lat="46.18037" lon="8.82926">
        <ele>235.66</ele>
        <time>2012-08-04T12:44:45Z</time>
      </trkpt>
      <trkpt lat="46.18031" lon="8.82913">
        <ele>236.14</ele>
        <time>2012-08-04T12:44:46Z</time>
      </trkpt>
      <trkpt lat="46.18024" lon="8.82902">
        <ele>236.14</ele>
        <time>2012-08-04T12:44:47Z</time>
      </trkpt>
      <trkpt lat="46.17973" lon="8.82813">
        <ele>239.51</ele>
        <time>2012-08-04T12:44:55Z</time>
      </trkpt>
      <trkpt lat="46.17935" lon="8.82743">
        <ele>241.91</ele>
        <time>2012-08-04T12:45:01Z</time>
      </trkpt>
      <trkpt lat="46.17906" lon="8.82683">
        <ele>243.35</ele>
        <time>2012-08-04T12:45:06Z</time>
      </trkpt>
      <trkpt lat="46.17902" lon="8.8267">
        <ele>243.35</ele>
        <time>2012-08-04T12:45:07Z</time>
      </trkpt>
      <trkpt lat="46.17898" lon="8.82656">
        <ele>243.35</ele>
        <time>2012-08-04T12:45:08Z</time>
      </trkpt>
      <trkpt lat="46.17895" lon="8.82642">
        <ele>243.83</ele>
        <time>2012-08-04T12:45:09Z</time>
      </trkpt>
      <trkpt lat="46.17892" lon="8.82628">
        <ele>243.83</ele>
        <time>2012-08-04T12:45:10Z</time>
      </trkpt>
      <trkpt lat="46.17891" lon="8.82614">
        <ele>243.83</ele>
        <time>2012-08-04T12:45:11Z</time>
      </trkpt>
      <trkpt lat="46.1789" lon="8.82599">
        <ele>243.83</ele>
        <time>2012-08-04T12:45:12Z</time>
      </trkpt>
      <trkpt lat="46.17875" lon="8.82389">
        <ele>243.35</ele>
        <time>2012-08-04T12:45:26Z</time>
      </trkpt>
      <trkpt lat="46.17862" lon="8.82218">
        <ele>242.87</ele>
        <time>2012-08-04T12:45:37Z</time>
      </trkpt>
      <trkpt lat="46.17843" lon="8.82004">
        <ele>240.95</ele>
        <time>2012-08-04T12:45:50Z</time>
      </trkpt>
      <trkpt lat="46.17826" lon="8.81793">
        <ele>241.43</ele>
        <time>2012-08-04T12:46:03Z</time>
      </trkpt>
      <trkpt lat="46.17814" lon="8.81645">
        <ele>244.31</ele>
        <time>2012-08-04T12:46:12Z</time>
      </trkpt>
      <trkpt lat="46.17802" lon="8.81554">
        <ele>247.68</ele>
        <time>2012-08-04T12:46:18Z</time>
      </trkpt>
      <trkpt lat="46.17798" lon="8.8154">
        <ele>247.68</ele>
        <time>2012-08-04T12:46:19Z</time>
      </trkpt>
      <trkpt lat="46.17792" lon="8.81527">
        <ele>248.64</ele>
        <time>2012-08-04T12:46:20Z</time>
      </trkpt>
      <trkpt lat="46.17785" lon="8.81515">
        <ele>248.64</ele>
        <time>2012-08-04T12:46:21Z</time>
      </trkpt>
      <trkpt lat="46.1772" lon="8.81425">
        <ele>247.2</ele>
        <time>2012-08-04T12:46:31Z</time>
      </trkpt>
      <trkpt lat="46.17645" lon="8.81305">
        <ele>249.6</ele>
        <time>2012-08-04T12:46:45Z</time>
      </trkpt>
      <trkpt lat="46.17606" lon="8.81234">
        <ele>249.6</ele>
        <time>2012-08-04T12:46:55Z</time>
      </trkpt>
      <trkpt lat="46.17601" lon="8.81221">
        <ele>250.08</ele>
        <time>2012-08-04T12:47:04Z</time>
      </trkpt>
      <trkpt lat="46.17595" lon="8.81207">
        <ele>250.56</ele>
        <time>2012-08-04T12:47:06Z</time>
      </trkpt>
      <trkpt lat="46.17554" lon="8.81099">
        <ele>251.04</ele>
        <time>2012-08-04T12:47:16Z</time>
      </trkpt>
      <trkpt lat="46.17522" lon="8.81016">
        <ele>249.6</ele>
        <time>2012-08-04T12:47:24Z</time>
      </trkpt>
      <trkpt lat="46.17477" lon="8.80876">
        <ele>246.23</ele>
        <time>2012-08-04T12:47:34Z</time>
      </trkpt>
      <trkpt lat="46.17461" lon="8.80797">
        <ele>242.87</ele>
        <time>2012-08-04T12:47:40Z</time>
      </trkpt>
      <trkpt lat="46.17459" lon="8.80784">
        <ele>241.91</ele>
        <time>2012-08-04T12:47:42Z</time>
      </trkpt>
      <trkpt lat="46.17456" lon="8.80769">
        <ele>241.43</ele>
        <time>2012-08-04T12:47:51Z</time>
      </trkpt>
      <trkpt lat="46.17455" lon="8.80759">
        <ele>241.43</ele>
        <time>2012-08-04T12:48:00Z</time>
      </trkpt>
      <trkpt lat="46.17453" lon="8.80749">
        <ele>240.95</ele>
        <time>2012-08-04T12:48:02Z</time>
      </trkpt>
      <trkpt lat="46.17437" lon="8.80664">
        <ele>239.02</ele>
        <time>2012-08-04T12:48:11Z</time>
      </trkpt>
      <trkpt lat="46.17421" lon="8.80582">
        <ele>236.14</ele>
        <time>2012-08-04T12:48:18Z</time>
      </trkpt>
      <trkpt lat="46.17412" lon="8.80524">
        <ele>232.78</ele>
        <time>2012-08-04T12:48:23Z</time>
      </trkpt>
      <trkpt lat="46.17411" lon="8.80518">
        <ele>232.78</ele>
        <time>2012-08-04T12:48:24Z</time>
      </trkpt>
      <trkpt lat="46.174" lon="8.80455">
        <ele>230.85</ele>
        <time>2012-08-04T12:48:35Z</time>
      </trkpt>
      <trkpt lat="46.17384" lon="8.80355">
        <ele>228.45</ele>
        <time>2012-08-04T12:48:45Z</time>
      </trkpt>
      <trkpt lat="46.17372" lon="8.80285">
        <ele>225.57</ele>
        <time>2012-08-04T12:48:51Z</time>
      </trkpt>
      <trkpt lat="46.17371" lon="8.80275">
        <ele>225.09</ele>
        <time>2012-08-04T12:48:52Z</time>
      </trkpt>
      <trkpt lat="46.17358" lon="8.80207">
        <ele>223.64</ele>
        <time>2012-08-04T12:48:59Z</time>
      </trkpt>
      <trkpt lat="46.17355" lon="8.80198">
        <ele>222.68</ele>
        <time>2012-08-04T12:49:00Z</time>
      </trkpt>
      <trkpt lat="46.17351" lon="8.8019">
        <ele>222.68</ele>
        <time>2012-08-04T12:49:01Z</time>
      </trkpt>
      <trkpt lat="46.17345" lon="8.80183">
        <ele>222.68</ele>
        <time>2012-08-04T12:49:02Z</time>
      </trkpt>
      <trkpt lat="46.17338" lon="8.80176">
        <ele>221.72</ele>
        <time>2012-08-04T12:49:03Z</time>
      </trkpt>
      <trkpt lat="46.17319" lon="8.80159">
        <ele>219.8</ele>
        <time>2012-08-04T12:49:06Z</time>
      </trkpt>
      <trkpt lat="46.17305" lon="8.80147">
        <ele>218.36</ele>
        <time>2012-08-04T12:49:08Z</time>
      </trkpt>
      <trkpt lat="46.17293" lon="8.80132">
        <ele>216.91</ele>
        <time>2012-08-04T12:49:10Z</time>
      </trkpt>
      <trkpt lat="46.17288" lon="8.80123">
        <ele>215.95</ele>
        <time>2012-08-04T12:49:11Z</time>
      </trkpt>
      <trkpt lat="46.17284" lon="8.80115">
        <ele>215.47</ele>
        <time>2012-08-04T12:49:12Z</time>
      </trkpt>
      <trkpt lat="46.17281" lon="8.80106">
        <ele>214.99</ele>
        <time>2012-08-04T12:49:13Z</time>
      </trkpt>
      <trkpt lat="46.17278" lon="8.80097">
        <ele>214.99</ele>
        <time>2012-08-04T12:49:14Z</time>
      </trkpt>
      <trkpt lat="46.17263" lon="8.80063">
        <ele>213.55</ele>
        <time>2012-08-04T12:49:22Z</time>
      </trkpt>
      <trkpt lat="46.17254" lon="8.80054">
        <ele>213.55</ele>
        <time>2012-08-04T12:49:31Z</time>
      </trkpt>
      <trkpt lat="46.17247" lon="8.80048">
        <ele>213.55</ele>
        <time>2012-08-04T12:49:36Z</time>
      </trkpt>
      <trkpt lat="46.17187" lon="8.80026">
        <ele>212.11</ele>
        <time>2012-08-04T12:49:45Z</time>
      </trkpt>
      <trkpt lat="46.17137" lon="8.79994">
        <ele>210.67</ele>
        <time>2012-08-04T12:49:53Z</time>
      </trkpt>
      <trkpt lat="46.17133" lon="8.79991">
        <ele>210.67</ele>
        <time>2012-08-04T12:49:54Z</time>
      </trkpt>
      <trkpt lat="46.1713" lon="8.79989">
        <ele>211.15</ele>
        <time>2012-08-04T12:49:55Z</time>
      </trkpt>
      <trkpt lat="46.17127" lon="8.79988">
        <ele>210.67</ele>
        <time>2012-08-04T12:49:56Z</time>
      </trkpt>
      <trkpt lat="46.17125" lon="8.79988">
        <ele>210.67</ele>
        <time>2012-08-04T12:49:57Z</time>
      </trkpt>
      <trkpt lat="46.17123" lon="8.79988">
        <ele>210.19</ele>
        <time>2012-08-04T12:49:58Z</time>
      </trkpt>
      <trkpt lat="46.17121" lon="8.7999">
        <ele>210.19</ele>
        <time>2012-08-04T12:50:14Z</time>
      </trkpt>
      <trkpt lat="46.17118" lon="8.79991">
        <ele>210.67</ele>
        <time>2012-08-04T12:50:15Z</time>
      </trkpt>
      <trkpt lat="46.17113" lon="8.79992">
        <ele>210.67</ele>
        <time>2012-08-04T12:50:16Z</time>
      </trkpt>
      <trkpt lat="46.17108" lon="8.79994">
        <ele>210.67</ele>
        <time>2012-08-04T12:50:17Z</time>
      </trkpt>
      <trkpt lat="46.17101" lon="8.79997">
        <ele>210.19</ele>
        <time>2012-08-04T12:50:18Z</time>
      </trkpt>
      <trkpt lat="46.17095" lon="8.80002">
        <ele>209.7</ele>
        <time>2012-08-04T12:50:19Z</time>
      </trkpt>
      <trkpt lat="46.17089" lon="8.80008">
        <ele>209.22</ele>
        <time>2012-08-04T12:50:20Z</time>
      </trkpt>
      <trkpt lat="46.17082" lon="8.80014">
        <ele>209.22</ele>
        <time>2012-08-04T12:50:21Z</time>
      </trkpt>
      <trkpt lat="46.17077" lon="8.80022">
        <ele>208.26</ele>
        <time>2012-08-04T12:50:22Z</time>
      </trkpt>
      <trkpt lat="46.17071" lon="8.80029">
        <ele>208.26</ele>
        <time>2012-08-04T12:50:23Z</time>
      </trkpt>
      <trkpt lat="46.17065" lon="8.80035">
        <ele>207.3</ele>
        <time>2012-08-04T12:50:24Z</time>
      </trkpt>
      <trkpt lat="46.17058" lon="8.80041">
        <ele>206.82</ele>
        <time>2012-08-04T12:50:25Z</time>
      </trkpt>
      <trkpt lat="46.1705" lon="8.80046">
        <ele>206.82</ele>
        <time>2012-08-04T12:50:26Z</time>
      </trkpt>
      <trkpt lat="46.16971" lon="8.80077">
        <ele>205.38</ele>
        <time>2012-08-04T12:50:36Z</time>
      </trkpt>
      <trkpt lat="46.16881" lon="8.80122">
        <ele>205.38</ele>
        <time>2012-08-04T12:50:47Z</time>
      </trkpt>
      <trkpt lat="46.16854" lon="8.80138">
        <ele>205.38</ele>
        <time>2012-08-04T12:50:54Z</time>
      </trkpt>
      <trkpt lat="46.16849" lon="8.8014">
        <ele>205.38</ele>
        <time>2012-08-04T12:50:55Z</time>
      </trkpt>
      <trkpt lat="46.16844" lon="8.80138">
        <ele>204.9</ele>
        <time>2012-08-04T12:50:56Z</time>
      </trkpt>
      <trkpt lat="46.1684" lon="8.80133">
        <ele>204.9</ele>
        <time>2012-08-04T12:50:57Z</time>
      </trkpt>
      <trkpt lat="46.16836" lon="8.80125">
        <ele>205.38</ele>
        <time>2012-08-04T12:50:58Z</time>
      </trkpt>
      <trkpt lat="46.16833" lon="8.80116">
        <ele>205.38</ele>
        <time>2012-08-04T12:50:59Z</time>
      </trkpt>
      <trkpt lat="46.1683" lon="8.80105">
        <ele>205.38</ele>
        <time>2012-08-04T12:51:00Z</time>
      </trkpt>
      <trkpt lat="46.16799" lon="8.79935">
        <ele>206.82</ele>
        <time>2012-08-04T12:51:12Z</time>
      </trkpt>
      <trkpt lat="46.16796" lon="8.79918">
        <ele>205.86</ele>
        <time>2012-08-04T12:51:14Z</time>
      </trkpt>
      <trkpt lat="46.16794" lon="8.79906">
        <ele>205.38</ele>
        <time>2012-08-04T12:51:21Z</time>
      </trkpt>
      <trkpt lat="46.16787" lon="8.79868">
        <ele>206.34</ele>
        <time>2012-08-04T12:51:31Z</time>
      </trkpt>
      <trkpt lat="46.16761" lon="8.79734">
        <ele>207.78</ele>
        <time>2012-08-04T12:51:42Z</time>
      </trkpt>
      <trkpt lat="46.16745" lon="8.79651">
        <ele>206.82</ele>
        <time>2012-08-04T12:51:51Z</time>
      </trkpt>
      <trkpt lat="46.16745" lon="8.79646">
        <ele>206.34</ele>
        <time>2012-08-04T12:52:03Z</time>
      </trkpt>
      <trkpt lat="46.16738" lon="8.79615">
        <ele>207.3</ele>
        <time>2012-08-04T12:52:08Z</time>
      </trkpt>
      <trkpt lat="46.16713" lon="8.79487">
        <ele>208.26</ele>
        <time>2012-08-04T12:52:18Z</time>
      </trkpt>
      <trkpt lat="46.16706" lon="8.79439">
        <ele>208.26</ele>
        <time>2012-08-04T12:52:22Z</time>
      </trkpt>
      <trkpt lat="46.16707" lon="8.79429">
        <ele>207.78</ele>
        <time>2012-08-04T12:52:23Z</time>
      </trkpt>
      <trkpt lat="46.16711" lon="8.79411">
        <ele>209.22</ele>
        <time>2012-08-04T12:52:25Z</time>
      </trkpt>
      <trkpt lat="46.16724" lon="8.79391">
        <ele>209.7</ele>
        <time>2012-08-04T12:52:27Z</time>
      </trkpt>
      <trkpt lat="46.1673" lon="8.79378">
        <ele>209.22</ele>
        <time>2012-08-04T12:52:28Z</time>
      </trkpt>
      <trkpt lat="46.16734" lon="8.79365">
        <ele>209.22</ele>
        <time>2012-08-04T12:52:29Z</time>
      </trkpt>
      <trkpt lat="46.16736" lon="8.79351">
        <ele>209.7</ele>
        <time>2012-08-04T12:52:30Z</time>
      </trkpt>
      <trkpt lat="46.16737" lon="8.79337">
        <ele>209.7</ele>
        <time>2012-08-04T12:52:31Z</time>
      </trkpt>
      <trkpt lat="46.16736" lon="8.79324">
        <ele>209.7</ele>
        <time>2012-08-04T12:52:32Z</time>
      </trkpt>
      <trkpt lat="46.16734" lon="8.79312">
        <ele>209.7</ele>
        <time>2012-08-04T12:52:33Z</time>
      </trkpt>
      <trkpt lat="46.16731" lon="8.79299">
        <ele>210.19</ele>
        <time>2012-08-04T12:52:34Z</time>
      </trkpt>
      <trkpt lat="46.16722" lon="8.79255">
        <ele>211.15</ele>
        <time>2012-08-04T12:52:37Z</time>
      </trkpt>
      <trkpt lat="46.16718" lon="8.7924">
        <ele>211.15</ele>
        <time>2012-08-04T12:52:38Z</time>
      </trkpt>
      <trkpt lat="46.16712" lon="8.79226">
        <ele>211.63</ele>
        <time>2012-08-04T12:52:39Z</time>
      </trkpt>
      <trkpt lat="46.1669" lon="8.79168">
        <ele>214.99</ele>
        <time>2012-08-04T12:52:43Z</time>
      </trkpt>
      <trkpt lat="46.16686" lon="8.79152">
        <ele>214.99</ele>
        <time>2012-08-04T12:52:44Z</time>
      </trkpt>
      <trkpt lat="46.16684" lon="8.79135">
        <ele>215.95</ele>
        <time>2012-08-04T12:52:45Z</time>
      </trkpt>
      <trkpt lat="46.16684" lon="8.79117">
        <ele>216.91</ele>
        <time>2012-08-04T12:52:46Z</time>
      </trkpt>
      <trkpt lat="46.16685" lon="8.791">
        <ele>217.88</ele>
        <time>2012-08-04T12:52:47Z</time>
      </trkpt>
      <trkpt lat="46.16688" lon="8.79083">
        <ele>218.36</ele>
        <time>2012-08-04T12:52:48Z</time>
      </trkpt>
      <trkpt lat="46.16691" lon="8.79067">
        <ele>218.36</ele>
        <time>2012-08-04T12:52:49Z</time>
      </trkpt>
      <trkpt lat="46.16696" lon="8.79051">
        <ele>218.84</ele>
        <time>2012-08-04T12:52:50Z</time>
      </trkpt>
      <trkpt lat="46.16701" lon="8.79035">
        <ele>219.32</ele>
        <time>2012-08-04T12:52:51Z</time>
      </trkpt>
      <trkpt lat="46.16718" lon="8.78992">
        <ele>220.28</ele>
        <time>2012-08-04T12:52:54Z</time>
      </trkpt>
      <trkpt lat="46.16725" lon="8.7898">
        <ele>220.28</ele>
        <time>2012-08-04T12:52:55Z</time>
      </trkpt>
      <trkpt lat="46.16733" lon="8.7897">
        <ele>220.28</ele>
        <time>2012-08-04T12:52:56Z</time>
      </trkpt>
      <trkpt lat="46.1674" lon="8.78962">
        <ele>219.8</ele>
        <time>2012-08-04T12:52:57Z</time>
      </trkpt>
      <trkpt lat="46.16745" lon="8.78957">
        <ele>219.32</ele>
        <time>2012-08-04T12:52:58Z</time>
      </trkpt>
      <trkpt lat="46.16754" lon="8.78948">
        <ele>219.32</ele>
        <time>2012-08-04T12:53:05Z</time>
      </trkpt>
      <trkpt lat="46.16766" lon="8.78937">
        <ele>219.8</ele>
        <time>2012-08-04T12:53:13Z</time>
      </trkpt>
      <trkpt lat="46.16773" lon="8.78936">
        <ele>219.8</ele>
        <time>2012-08-04T12:53:14Z</time>
      </trkpt>
      <trkpt lat="46.16842" lon="8.78927">
        <ele>220.76</ele>
        <time>2012-08-04T12:53:22Z</time>
      </trkpt>
      <trkpt lat="46.16903" lon="8.78924">
        <ele>223.16</ele>
        <time>2012-08-04T12:53:28Z</time>
      </trkpt>
      <trkpt lat="46.16973" lon="8.78917">
        <ele>221.72</ele>
        <time>2012-08-04T12:53:36Z</time>
      </trkpt>
      <trkpt lat="46.16976" lon="8.78911">
        <ele>221.72</ele>
        <time>2012-08-04T12:53:37Z</time>
      </trkpt>
      <trkpt lat="46.16977" lon="8.78902">
        <ele>222.2</ele>
        <time>2012-08-04T12:53:38Z</time>
      </trkpt>
      <trkpt lat="46.16977" lon="8.7889">
        <ele>222.68</ele>
        <time>2012-08-04T12:53:39Z</time>
      </trkpt>
      <trkpt lat="46.16976" lon="8.78876">
        <ele>222.68</ele>
        <time>2012-08-04T12:53:40Z</time>
      </trkpt>
      <trkpt lat="46.16977" lon="8.78683">
        <ele>225.09</ele>
        <time>2012-08-04T12:53:51Z</time>
      </trkpt>
      <trkpt lat="46.1698" lon="8.78506">
        <ele>224.12</ele>
        <time>2012-08-04T12:54:02Z</time>
      </trkpt>
      <trkpt lat="46.16981" lon="8.78447">
        <ele>224.12</ele>
        <time>2012-08-04T12:54:09Z</time>
      </trkpt>
      <trkpt lat="46.16981" lon="8.78437">
        <ele>224.61</ele>
        <time>2012-08-04T12:54:16Z</time>
      </trkpt>
      <trkpt lat="46.16982" lon="8.78388">
        <ele>226.05</ele>
        <time>2012-08-04T12:54:22Z</time>
      </trkpt>
      <trkpt lat="46.16985" lon="8.78232">
        <ele>229.41</ele>
        <time>2012-08-04T12:54:32Z</time>
      </trkpt>
      <trkpt lat="46.16987" lon="8.78026">
        <ele>232.78</ele>
        <time>2012-08-04T12:54:44Z</time>
      </trkpt>
      <trkpt lat="46.16998" lon="8.77843">
        <ele>233.26</ele>
        <time>2012-08-04T12:54:56Z</time>
      </trkpt>
      <trkpt lat="46.16999" lon="8.77821">
        <ele>233.74</ele>
        <time>2012-08-04T12:54:58Z</time>
      </trkpt>
      <trkpt lat="46.17002" lon="8.7781">
        <ele>233.26</ele>
        <time>2012-08-04T12:54:59Z</time>
      </trkpt>
      <trkpt lat="46.17005" lon="8.77797">
        <ele>233.74</ele>
        <time>2012-08-04T12:55:00Z</time>
      </trkpt>
      <trkpt lat="46.17008" lon="8.77783">
        <ele>234.22</ele>
        <time>2012-08-04T12:55:01Z</time>
      </trkpt>
      <trkpt lat="46.1701" lon="8.77768">
        <ele>234.22</ele>
        <time>2012-08-04T12:55:02Z</time>
      </trkpt>
      <trkpt lat="46.17049" lon="8.77588">
        <ele>233.74</ele>
        <time>2012-08-04T12:55:13Z</time>
      </trkpt>
      <trkpt lat="46.17099" lon="8.77372">
        <ele>232.3</ele>
        <time>2012-08-04T12:55:26Z</time>
      </trkpt>
      <trkpt lat="46.17149" lon="8.77136">
        <ele>232.3</ele>
        <time>2012-08-04T12:55:39Z</time>
      </trkpt>
      <trkpt lat="46.1723" lon="8.76972">
        <ele>233.26</ele>
        <time>2012-08-04T12:55:49Z</time>
      </trkpt>
      <trkpt lat="46.17381" lon="8.76776">
        <ele>234.7</ele>
        <time>2012-08-04T12:56:03Z</time>
      </trkpt>
      <trkpt lat="46.17521" lon="8.76575">
        <ele>234.22</ele>
        <time>2012-08-04T12:56:16Z</time>
      </trkpt>
      <trkpt lat="46.17568" lon="8.76515">
        <ele>234.7</ele>
        <time>2012-08-04T12:56:20Z</time>
      </trkpt>
      <trkpt lat="46.17604" lon="8.7645">
        <ele>233.74</ele>
        <time>2012-08-04T12:56:24Z</time>
      </trkpt>
      <trkpt lat="46.17615" lon="8.76437">
        <ele>233.74</ele>
        <time>2012-08-04T12:56:25Z</time>
      </trkpt>
      <trkpt lat="46.17627" lon="8.76426">
        <ele>234.22</ele>
        <time>2012-08-04T12:56:26Z</time>
      </trkpt>
      <trkpt lat="46.17669" lon="8.76394">
        <ele>235.18</ele>
        <time>2012-08-04T12:56:29Z</time>
      </trkpt>
      <trkpt lat="46.17736" lon="8.76324">
        <ele>236.62</ele>
        <time>2012-08-04T12:56:34Z</time>
      </trkpt>
      <trkpt lat="46.17834" lon="8.76207">
        <ele>236.14</ele>
        <time>2012-08-04T12:56:42Z</time>
      </trkpt>
      <trkpt lat="46.17921" lon="8.76122">
        <ele>236.14</ele>
        <time>2012-08-04T12:56:48Z</time>
      </trkpt>
      <trkpt lat="46.17995" lon="8.75985">
        <ele>236.14</ele>
        <time>2012-08-04T12:56:55Z</time>
      </trkpt>
      <trkpt lat="46.18019" lon="8.75938">
        <ele>234.7</ele>
        <time>2012-08-04T12:56:58Z</time>
      </trkpt>
      <trkpt lat="46.18029" lon="8.75925">
        <ele>235.18</ele>
        <time>2012-08-04T12:56:59Z</time>
      </trkpt>
      <trkpt lat="46.18042" lon="8.75913">
        <ele>236.62</ele>
        <time>2012-08-04T12:57:00Z</time>
      </trkpt>
      <trkpt lat="46.1815" lon="8.75804">
        <ele>238.06</ele>
        <time>2012-08-04T12:57:08Z</time>
      </trkpt>
      <trkpt lat="46.18197" lon="8.75739">
        <ele>237.58</ele>
        <time>2012-08-04T12:57:12Z</time>
      </trkpt>
      <trkpt lat="46.18206" lon="8.7572">
        <ele>237.1</ele>
        <time>2012-08-04T12:57:13Z</time>
      </trkpt>
      <trkpt lat="46.18213" lon="8.75699">
        <ele>237.1</ele>
        <time>2012-08-04T12:57:14Z</time>
      </trkpt>
      <trkpt lat="46.18227" lon="8.75659">
        <ele>236.62</ele>
        <time>2012-08-04T12:57:16Z</time>
      </trkpt>
      <trkpt lat="46.18237" lon="8.75641">
        <ele>236.62</ele>
        <time>2012-08-04T12:57:17Z</time>
      </trkpt>
      <trkpt lat="46.18248" lon="8.75626">
        <ele>237.58</ele>
        <time>2012-08-04T12:57:18Z</time>
      </trkpt>
      <trkpt lat="46.1826" lon="8.75611">
        <ele>238.06</ele>
        <time>2012-08-04T12:57:19Z</time>
      </trkpt>
      <trkpt lat="46.18273" lon="8.75596">
        <ele>239.99</ele>
        <time>2012-08-04T12:57:20Z</time>
      </trkpt>
      <trkpt lat="46.18286" lon="8.75582">
        <ele>240.47</ele>
        <time>2012-08-04T12:57:21Z</time>
      </trkpt>
      <trkpt lat="46.18341" lon="8.75529">
        <ele>243.83</ele>
        <time>2012-08-04T12:57:25Z</time>
      </trkpt>
      <trkpt lat="46.18388" lon="8.75482">
        <ele>245.75</ele>
        <time>2012-08-04T12:57:29Z</time>
      </trkpt>
      <trkpt lat="46.18408" lon="8.75452">
        <ele>248.16</ele>
        <time>2012-08-04T12:57:31Z</time>
      </trkpt>
      <trkpt lat="46.18426" lon="8.75422">
        <ele>249.6</ele>
        <time>2012-08-04T12:57:33Z</time>
      </trkpt>
      <trkpt lat="46.18434" lon="8.75405">
        <ele>249.6</ele>
        <time>2012-08-04T12:57:34Z</time>
      </trkpt>
      <trkpt lat="46.18447" lon="8.75374">
        <ele>251.04</ele>
        <time>2012-08-04T12:57:36Z</time>
      </trkpt>
      <trkpt lat="46.18454" lon="8.75364">
        <ele>250.08</ele>
        <time>2012-08-04T12:57:37Z</time>
      </trkpt>
      <trkpt lat="46.18458" lon="8.7536">
        <ele>249.12</ele>
        <time>2012-08-04T12:57:38Z</time>
      </trkpt>
      <trkpt lat="46.18461" lon="8.75357">
        <ele>249.12</ele>
        <time>2012-08-04T12:57:39Z</time>
      </trkpt>
      <trkpt lat="46.18463" lon="8.75355">
        <ele>249.6</ele>
        <time>2012-08-04T12:57:48Z</time>
      </trkpt>
      <trkpt lat="46.18464" lon="8.75353">
        <ele>250.08</ele>
        <time>2012-08-04T12:57:51Z</time>
      </trkpt>
      <trkpt lat="46.18492" lon="8.75331">
        <ele>251.52</ele>
        <time>2012-08-04T12:58:01Z</time>
      </trkpt>
      <trkpt lat="46.18511" lon="8.7531">
        <ele>252.96</ele>
        <time>2012-08-04T12:58:11Z</time>
      </trkpt>
      <trkpt lat="46.18547" lon="8.75268">
        <ele>255.37</ele>
        <time>2012-08-04T12:58:26Z</time>
      </trkpt>
      <trkpt lat="46.18551" lon="8.75267">
        <ele>255.85</ele>
        <time>2012-08-04T12:58:27Z</time>
      </trkpt>
      <trkpt lat="46.18556" lon="8.75267">
        <ele>256.33</ele>
        <time>2012-08-04T12:58:28Z</time>
      </trkpt>
      <trkpt lat="46.18561" lon="8.75268">
        <ele>256.81</ele>
        <time>2012-08-04T12:58:29Z</time>
      </trkpt>
      <trkpt lat="46.18566" lon="8.7527">
        <ele>256.81</ele>
        <time>2012-08-04T12:58:30Z</time>
      </trkpt>
      <trkpt lat="46.18571" lon="8.75275">
        <ele>257.29</ele>
        <time>2012-08-04T12:58:31Z</time>
      </trkpt>
      <trkpt lat="46.18576" lon="8.7528">
        <ele>257.77</ele>
        <time>2012-08-04T12:58:32Z</time>
      </trkpt>
      <trkpt lat="46.18579" lon="8.75287">
        <ele>258.25</ele>
        <time>2012-08-04T12:58:33Z</time>
      </trkpt>
      <trkpt lat="46.18583" lon="8.75295">
        <ele>258.73</ele>
        <time>2012-08-04T12:58:34Z</time>
      </trkpt>
      <trkpt lat="46.18585" lon="8.75303">
        <ele>259.21</ele>
        <time>2012-08-04T12:58:35Z</time>
      </trkpt>
      <trkpt lat="46.18588" lon="8.7531">
        <ele>259.21</ele>
        <time>2012-08-04T12:58:36Z</time>
      </trkpt>
      <trkpt lat="46.1859" lon="8.75316">
        <ele>259.69</ele>
        <time>2012-08-04T12:58:37Z</time>
      </trkpt>
      <trkpt lat="46.18591" lon="8.7532">
        <ele>259.69</ele>
        <time>2012-08-04T12:58:38Z</time>
      </trkpt>
      <trkpt lat="46.18593" lon="8.75324">
        <ele>259.21</ele>
        <time>2012-08-04T12:58:42Z</time>
      </trkpt>
      <trkpt lat="46.18597" lon="8.75326">
        <ele>259.69</ele>
        <time>2012-08-04T12:58:43Z</time>
      </trkpt>
      <trkpt lat="46.18604" lon="8.75327">
        <ele>260.17</ele>
        <time>2012-08-04T12:58:44Z</time>
      </trkpt>
      <trkpt lat="46.18613" lon="8.75327">
        <ele>261.14</ele>
        <time>2012-08-04T12:58:45Z</time>
      </trkpt>
      <trkpt lat="46.18623" lon="8.75325">
        <ele>261.62</ele>
        <time>2012-08-04T12:58:46Z</time>
      </trkpt>
      <trkpt lat="46.18661" lon="8.75315">
        <ele>261.14</ele>
        <time>2012-08-04T12:58:50Z</time>
      </trkpt>
      <trkpt lat="46.1867" lon="8.75309">
        <ele>261.14</ele>
        <time>2012-08-04T12:58:51Z</time>
      </trkpt>
      <trkpt lat="46.18678" lon="8.75301">
        <ele>260.65</ele>
        <time>2012-08-04T12:58:52Z</time>
      </trkpt>
      <trkpt lat="46.18683" lon="8.75291">
        <ele>260.17</ele>
        <time>2012-08-04T12:58:53Z</time>
      </trkpt>
      <trkpt lat="46.18686" lon="8.75278">
        <ele>259.69</ele>
        <time>2012-08-04T12:58:54Z</time>
      </trkpt>
      <trkpt lat="46.18687" lon="8.75264">
        <ele>260.17</ele>
        <time>2012-08-04T12:58:55Z</time>
      </trkpt>
      <trkpt lat="46.18687" lon="8.75248">
        <ele>260.65</ele>
        <time>2012-08-04T12:58:56Z</time>
      </trkpt>
      <trkpt lat="46.18686" lon="8.75197">
        <ele>262.1</ele>
        <time>2012-08-04T12:58:59Z</time>
      </trkpt>
      <trkpt lat="46.18687" lon="8.75035">
        <ele>261.14</ele>
        <time>2012-08-04T12:59:07Z</time>
      </trkpt>
      <trkpt lat="46.18701" lon="8.74854">
        <ele>260.65</ele>
        <time>2012-08-04T12:59:16Z</time>
      </trkpt>
      <trkpt lat="46.18705" lon="8.74836">
        <ele>260.65</ele>
        <time>2012-08-04T12:59:17Z</time>
      </trkpt>
      <trkpt lat="46.18714" lon="8.7478">
        <ele>259.69</ele>
        <time>2012-08-04T12:59:20Z</time>
      </trkpt>
      <trkpt lat="46.18716" lon="8.74762">
        <ele>258.73</ele>
        <time>2012-08-04T12:59:21Z</time>
      </trkpt>
      <trkpt lat="46.18715" lon="8.74744">
        <ele>258.25</ele>
        <time>2012-08-04T12:59:22Z</time>
      </trkpt>
      <trkpt lat="46.187" lon="8.74622">
        <ele>260.17</ele>
        <time>2012-08-04T12:59:29Z</time>
      </trkpt>
      <trkpt lat="46.18699" lon="8.74605">
        <ele>261.62</ele>
        <time>2012-08-04T12:59:30Z</time>
      </trkpt>
      <trkpt lat="46.18698" lon="8.74517">
        <ele>261.14</ele>
        <time>2012-08-04T12:59:35Z</time>
      </trkpt>
      <trkpt lat="46.18695" lon="8.745">
        <ele>260.65</ele>
        <time>2012-08-04T12:59:36Z</time>
      </trkpt>
      <trkpt lat="46.1869" lon="8.74485">
        <ele>261.14</ele>
        <time>2012-08-04T12:59:37Z</time>
      </trkpt>
      <trkpt lat="46.18679" lon="8.74457">
        <ele>261.14</ele>
        <time>2012-08-04T12:59:39Z</time>
      </trkpt>
      <trkpt lat="46.18675" lon="8.74442">
        <ele>260.65</ele>
        <time>2012-08-04T12:59:40Z</time>
      </trkpt>
      <trkpt lat="46.18673" lon="8.74426">
        <ele>260.65</ele>
        <time>2012-08-04T12:59:41Z</time>
      </trkpt>
      <trkpt lat="46.18672" lon="8.7441">
        <ele>261.14</ele>
        <time>2012-08-04T12:59:42Z</time>
      </trkpt>
      <trkpt lat="46.18671" lon="8.74392">
        <ele>261.62</ele>
        <time>2012-08-04T12:59:43Z</time>
      </trkpt>
      <trkpt lat="46.18671" lon="8.74373">
        <ele>262.1</ele>
        <time>2012-08-04T12:59:44Z</time>
      </trkpt>
      <trkpt lat="46.1867" lon="8.74282">
        <ele>263.54</ele>
        <time>2012-08-04T12:59:49Z</time>
      </trkpt>
      <trkpt lat="46.1867" lon="8.74147">
        <ele>265.46</ele>
        <time>2012-08-04T12:59:56Z</time>
      </trkpt>
      <trkpt lat="46.18663" lon="8.74053">
        <ele>266.42</ele>
        <time>2012-08-04T13:00:01Z</time>
      </trkpt>
      <trkpt lat="46.18659" lon="8.74038">
        <ele>265.94</ele>
        <time>2012-08-04T13:00:02Z</time>
      </trkpt>
      <trkpt lat="46.18649" lon="8.7401">
        <ele>265.94</ele>
        <time>2012-08-04T13:00:04Z</time>
      </trkpt>
      <trkpt lat="46.18647" lon="8.73993">
        <ele>265.94</ele>
        <time>2012-08-04T13:00:05Z</time>
      </trkpt>
      <trkpt lat="46.18646" lon="8.73976">
        <ele>267.38</ele>
        <time>2012-08-04T13:00:06Z</time>
      </trkpt>
      <trkpt lat="46.18646" lon="8.73937">
        <ele>267.86</ele>
        <time>2012-08-04T13:00:08Z</time>
      </trkpt>
      <trkpt lat="46.18646" lon="8.73897">
        <ele>269.31</ele>
        <time>2012-08-04T13:00:10Z</time>
      </trkpt>
      <trkpt lat="46.18645" lon="8.737">
        <ele>272.67</ele>
        <time>2012-08-04T13:00:20Z</time>
      </trkpt>
      <trkpt lat="46.18636" lon="8.73515">
        <ele>274.59</ele>
        <time>2012-08-04T13:00:31Z</time>
      </trkpt>
      <trkpt lat="46.18636" lon="8.73485">
        <ele>275.56</ele>
        <time>2012-08-04T13:00:33Z</time>
      </trkpt>
      <trkpt lat="46.18638" lon="8.73453">
        <ele>276.52</ele>
        <time>2012-08-04T13:00:35Z</time>
      </trkpt>
      <trkpt lat="46.18644" lon="8.73368">
        <ele>277.96</ele>
        <time>2012-08-04T13:00:40Z</time>
      </trkpt>
      <trkpt lat="46.18642" lon="8.73351">
        <ele>278.44</ele>
        <time>2012-08-04T13:00:41Z</time>
      </trkpt>
      <trkpt lat="46.18626" lon="8.73265">
        <ele>280.36</ele>
        <time>2012-08-04T13:00:46Z</time>
      </trkpt>
      <trkpt lat="46.18599" lon="8.73119">
        <ele>281.32</ele>
        <time>2012-08-04T13:00:56Z</time>
      </trkpt>
      <trkpt lat="46.18595" lon="8.73107">
        <ele>281.8</ele>
        <time>2012-08-04T13:00:57Z</time>
      </trkpt>
      <trkpt lat="46.18571" lon="8.73045">
        <ele>281.8</ele>
        <time>2012-08-04T13:01:04Z</time>
      </trkpt>
      <trkpt lat="46.18568" lon="8.73034">
        <ele>283.25</ele>
        <time>2012-08-04T13:01:05Z</time>
      </trkpt>
      <trkpt lat="46.18567" lon="8.73024">
        <ele>282.77</ele>
        <time>2012-08-04T13:01:06Z</time>
      </trkpt>
      <trkpt lat="46.18569" lon="8.72903">
        <ele>284.69</ele>
        <time>2012-08-04T13:01:13Z</time>
      </trkpt>
      <trkpt lat="46.18568" lon="8.72723">
        <ele>287.09</ele>
        <time>2012-08-04T13:01:24Z</time>
      </trkpt>
      <trkpt lat="46.18567" lon="8.7269">
        <ele>288.53</ele>
        <time>2012-08-04T13:01:26Z</time>
      </trkpt>
      <trkpt lat="46.18566" lon="8.72604">
        <ele>291.42</ele>
        <time>2012-08-04T13:01:31Z</time>
      </trkpt>
      <trkpt lat="46.18568" lon="8.72547">
        <ele>294.78</ele>
        <time>2012-08-04T13:01:34Z</time>
      </trkpt>
      <trkpt lat="46.1858" lon="8.7247">
        <ele>298.63</ele>
        <time>2012-08-04T13:01:38Z</time>
      </trkpt>
      <trkpt lat="46.18588" lon="8.72412">
        <ele>300.07</ele>
        <time>2012-08-04T13:01:41Z</time>
      </trkpt>
      <trkpt lat="46.18596" lon="8.72355">
        <ele>301.99</ele>
        <time>2012-08-04T13:01:44Z</time>
      </trkpt>
      <trkpt lat="46.18597" lon="8.72277">
        <ele>305.36</ele>
        <time>2012-08-04T13:01:48Z</time>
      </trkpt>
      <trkpt lat="46.18593" lon="8.72258">
        <ele>304.88</ele>
        <time>2012-08-04T13:01:49Z</time>
      </trkpt>
      <trkpt lat="46.18587" lon="8.72242">
        <ele>305.84</ele>
        <time>2012-08-04T13:01:50Z</time>
      </trkpt>
      <trkpt lat="46.18578" lon="8.72227">
        <ele>306.8</ele>
        <time>2012-08-04T13:01:51Z</time>
      </trkpt>
      <trkpt lat="46.18568" lon="8.72214">
        <ele>307.28</ele>
        <time>2012-08-04T13:01:52Z</time>
      </trkpt>
      <trkpt lat="46.18542" lon="8.72176">
        <ele>307.76</ele>
        <time>2012-08-04T13:01:55Z</time>
      </trkpt>
      <trkpt lat="46.18536" lon="8.72164">
        <ele>307.76</ele>
        <time>2012-08-04T13:01:56Z</time>
      </trkpt>
      <trkpt lat="46.18532" lon="8.72151">
        <ele>308.72</ele>
        <time>2012-08-04T13:01:57Z</time>
      </trkpt>
      <trkpt lat="46.1853" lon="8.72137">
        <ele>309.2</ele>
        <time>2012-08-04T13:01:58Z</time>
      </trkpt>
      <trkpt lat="46.18528" lon="8.72122">
        <ele>309.68</ele>
        <time>2012-08-04T13:01:59Z</time>
      </trkpt>
      <trkpt lat="46.18527" lon="8.72108">
        <ele>309.68</ele>
        <time>2012-08-04T13:02:00Z</time>
      </trkpt>
      <trkpt lat="46.18523" lon="8.72063">
        <ele>309.2</ele>
        <time>2012-08-04T13:02:04Z</time>
      </trkpt>
      <trkpt lat="46.18523" lon="8.72051">
        <ele>309.2</ele>
        <time>2012-08-04T13:02:05Z</time>
      </trkpt>
      <trkpt lat="46.18521" lon="8.72039">
        <ele>309.68</ele>
        <time>2012-08-04T13:02:06Z</time>
      </trkpt>
      <trkpt lat="46.18496" lon="8.71946">
        <ele>311.12</ele>
        <time>2012-08-04T13:02:14Z</time>
      </trkpt>
      <trkpt lat="46.18492" lon="8.71937">
        <ele>311.12</ele>
        <time>2012-08-04T13:02:15Z</time>
      </trkpt>
      <trkpt lat="46.18487" lon="8.71927">
        <ele>311.6</ele>
        <time>2012-08-04T13:02:16Z</time>
      </trkpt>
      <trkpt lat="46.18478" lon="8.71908">
        <ele>312.09</ele>
        <time>2012-08-04T13:02:18Z</time>
      </trkpt>
      <trkpt lat="46.18446" lon="8.71809">
        <ele>314.97</ele>
        <time>2012-08-04T13:02:28Z</time>
      </trkpt>
      <trkpt lat="46.1844" lon="8.71794">
        <ele>315.93</ele>
        <time>2012-08-04T13:02:31Z</time>
      </trkpt>
      <trkpt lat="46.18438" lon="8.71789">
        <ele>315.93</ele>
        <time>2012-08-04T13:02:32Z</time>
      </trkpt>
      <trkpt lat="46.18436" lon="8.71784">
        <ele>315.93</ele>
        <time>2012-08-04T13:02:33Z</time>
      </trkpt>
      <trkpt lat="46.18429" lon="8.71763">
        <ele>316.89</ele>
        <time>2012-08-04T13:02:41Z</time>
      </trkpt>
      <trkpt lat="46.18427" lon="8.71759">
        <ele>316.89</ele>
        <time>2012-08-04T13:02:42Z</time>
      </trkpt>
      <trkpt lat="46.18426" lon="8.71753">
        <ele>316.89</ele>
        <time>2012-08-04T13:02:43Z</time>
      </trkpt>
      <trkpt lat="46.18424" lon="8.71747">
        <ele>317.37</ele>
        <time>2012-08-04T13:02:44Z</time>
      </trkpt>
      <trkpt lat="46.18397" lon="8.71685">
        <ele>318.81</ele>
        <time>2012-08-04T13:02:52Z</time>
      </trkpt>
      <trkpt lat="46.18395" lon="8.71674">
        <ele>319.3</ele>
        <time>2012-08-04T13:02:53Z</time>
      </trkpt>
      <trkpt lat="46.18395" lon="8.71664">
        <ele>318.81</ele>
        <time>2012-08-04T13:02:54Z</time>
      </trkpt>
      <trkpt lat="46.18396" lon="8.71653">
        <ele>318.81</ele>
        <time>2012-08-04T13:02:55Z</time>
      </trkpt>
      <trkpt lat="46.18397" lon="8.71643">
        <ele>318.81</ele>
        <time>2012-08-04T13:02:56Z</time>
      </trkpt>
      <trkpt lat="46.184" lon="8.71634">
        <ele>318.81</ele>
        <time>2012-08-04T13:02:57Z</time>
      </trkpt>
      <trkpt lat="46.18404" lon="8.71624">
        <ele>319.78</ele>
        <time>2012-08-04T13:02:58Z</time>
      </trkpt>
      <trkpt lat="46.18408" lon="8.71614">
        <ele>318.81</ele>
        <time>2012-08-04T13:02:59Z</time>
      </trkpt>
      <trkpt lat="46.18417" lon="8.71591">
        <ele>320.26</ele>
        <time>2012-08-04T13:03:01Z</time>
      </trkpt>
      <trkpt lat="46.18423" lon="8.71581">
        <ele>320.26</ele>
        <time>2012-08-04T13:03:02Z</time>
      </trkpt>
      <trkpt lat="46.18435" lon="8.71564">
        <ele>319.78</ele>
        <time>2012-08-04T13:03:04Z</time>
      </trkpt>
      <trkpt lat="46.18439" lon="8.71554">
        <ele>319.78</ele>
        <time>2012-08-04T13:03:05Z</time>
      </trkpt>
      <trkpt lat="46.1844" lon="8.71543">
        <ele>320.26</ele>
        <time>2012-08-04T13:03:06Z</time>
      </trkpt>
      <trkpt lat="46.18438" lon="8.7153">
        <ele>320.74</ele>
        <time>2012-08-04T13:03:07Z</time>
      </trkpt>
      <trkpt lat="46.18434" lon="8.71517">
        <ele>321.22</ele>
        <time>2012-08-04T13:03:08Z</time>
      </trkpt>
      <trkpt lat="46.18414" lon="8.71455">
        <ele>323.14</ele>
        <time>2012-08-04T13:03:12Z</time>
      </trkpt>
      <trkpt lat="46.1834" lon="8.7127">
        <ele>321.7</ele>
        <time>2012-08-04T13:03:23Z</time>
      </trkpt>
      <trkpt lat="46.18295" lon="8.71122">
        <ele>319.3</ele>
        <time>2012-08-04T13:03:32Z</time>
      </trkpt>
      <trkpt lat="46.18289" lon="8.71111">
        <ele>319.3</ele>
        <time>2012-08-04T13:03:33Z</time>
      </trkpt>
      <trkpt lat="46.18281" lon="8.71103">
        <ele>319.3</ele>
        <time>2012-08-04T13:03:34Z</time>
      </trkpt>
      <trkpt lat="46.1827" lon="8.71098">
        <ele>319.3</ele>
        <time>2012-08-04T13:03:35Z</time>
      </trkpt>
      <trkpt lat="46.18259" lon="8.71094">
        <ele>319.78</ele>
        <time>2012-08-04T13:03:36Z</time>
      </trkpt>
      <trkpt lat="46.18248" lon="8.71088">
        <ele>320.26</ele>
        <time>2012-08-04T13:03:37Z</time>
      </trkpt>
      <trkpt lat="46.18238" lon="8.71082">
        <ele>320.74</ele>
        <time>2012-08-04T13:03:38Z</time>
      </trkpt>
      <trkpt lat="46.18228" lon="8.71073">
        <ele>321.22</ele>
        <time>2012-08-04T13:03:39Z</time>
      </trkpt>
      <trkpt lat="46.18218" lon="8.71063">
        <ele>321.7</ele>
        <time>2012-08-04T13:03:40Z</time>
      </trkpt>
      <trkpt lat="46.18209" lon="8.7105">
        <ele>321.7</ele>
        <time>2012-08-04T13:03:41Z</time>
      </trkpt>
      <trkpt lat="46.18202" lon="8.71036">
        <ele>322.66</ele>
        <time>2012-08-04T13:03:42Z</time>
      </trkpt>
      <trkpt lat="46.18195" lon="8.7102">
        <ele>322.66</ele>
        <time>2012-08-04T13:03:43Z</time>
      </trkpt>
      <trkpt lat="46.18189" lon="8.71004">
        <ele>322.66</ele>
        <time>2012-08-04T13:03:44Z</time>
      </trkpt>
      <trkpt lat="46.18184" lon="8.70987">
        <ele>323.62</ele>
        <time>2012-08-04T13:03:45Z</time>
      </trkpt>
      <trkpt lat="46.18179" lon="8.70969">
        <ele>324.1</ele>
        <time>2012-08-04T13:03:46Z</time>
      </trkpt>
      <trkpt lat="46.18171" lon="8.70931">
        <ele>324.58</ele>
        <time>2012-08-04T13:03:48Z</time>
      </trkpt>
      <trkpt lat="46.18169" lon="8.70911">
        <ele>325.06</ele>
        <time>2012-08-04T13:03:49Z</time>
      </trkpt>
      <trkpt lat="46.18165" lon="8.70806">
        <ele>326.99</ele>
        <time>2012-08-04T13:03:54Z</time>
      </trkpt>
      <trkpt lat="46.18161" lon="8.70785">
        <ele>327.47</ele>
        <time>2012-08-04T13:03:55Z</time>
      </trkpt>
      <trkpt lat="46.18145" lon="8.70639">
        <ele>328.91</ele>
        <time>2012-08-04T13:04:02Z</time>
      </trkpt>
      <trkpt lat="46.18141" lon="8.70619">
        <ele>328.91</ele>
        <time>2012-08-04T13:04:03Z</time>
      </trkpt>
      <trkpt lat="46.18137" lon="8.70599">
        <ele>329.39</ele>
        <time>2012-08-04T13:04:04Z</time>
      </trkpt>
      <trkpt lat="46.18088" lon="8.7043">
        <ele>327.47</ele>
        <time>2012-08-04T13:04:13Z</time>
      </trkpt>
      <trkpt lat="46.18085" lon="8.70412">
        <ele>327.47</ele>
        <time>2012-08-04T13:04:14Z</time>
      </trkpt>
      <trkpt lat="46.18083" lon="8.70393">
        <ele>326.99</ele>
        <time>2012-08-04T13:04:15Z</time>
      </trkpt>
      <trkpt lat="46.18074" lon="8.70292">
        <ele>325.06</ele>
        <time>2012-08-04T13:04:21Z</time>
      </trkpt>
      <trkpt lat="46.18069" lon="8.70278">
        <ele>324.58</ele>
        <time>2012-08-04T13:04:22Z</time>
      </trkpt>
      <trkpt lat="46.18063" lon="8.70266">
        <ele>324.58</ele>
        <time>2012-08-04T13:04:23Z</time>
      </trkpt>
      <trkpt lat="46.18053" lon="8.70259">
        <ele>325.06</ele>
        <time>2012-08-04T13:04:24Z</time>
      </trkpt>
      <trkpt lat="46.18041" lon="8.70255">
        <ele>325.54</ele>
        <time>2012-08-04T13:04:25Z</time>
      </trkpt>
      <trkpt lat="46.18026" lon="8.70253">
        <ele>326.02</ele>
        <time>2012-08-04T13:04:26Z</time>
      </trkpt>
      <trkpt lat="46.18011" lon="8.70251">
        <ele>326.5</ele>
        <time>2012-08-04T13:04:27Z</time>
      </trkpt>
      <trkpt lat="46.17918" lon="8.7024">
        <ele>326.5</ele>
        <time>2012-08-04T13:04:34Z</time>
      </trkpt>
      <trkpt lat="46.17907" lon="8.70243">
        <ele>326.5</ele>
        <time>2012-08-04T13:04:35Z</time>
      </trkpt>
      <trkpt lat="46.17896" lon="8.70248">
        <ele>326.02</ele>
        <time>2012-08-04T13:04:36Z</time>
      </trkpt>
      <trkpt lat="46.17887" lon="8.70252">
        <ele>326.02</ele>
        <time>2012-08-04T13:04:37Z</time>
      </trkpt>
      <trkpt lat="46.1788" lon="8.70253">
        <ele>325.54</ele>
        <time>2012-08-04T13:04:38Z</time>
      </trkpt>
      <trkpt lat="46.17874" lon="8.70251">
        <ele>325.54</ele>
        <time>2012-08-04T13:04:39Z</time>
      </trkpt>
      <trkpt lat="46.17871" lon="8.70246">
        <ele>326.02</ele>
        <time>2012-08-04T13:04:40Z</time>
      </trkpt>
      <trkpt lat="46.17868" lon="8.70238">
        <ele>326.5</ele>
        <time>2012-08-04T13:04:41Z</time>
      </trkpt>
      <trkpt lat="46.17867" lon="8.70229">
        <ele>327.47</ele>
        <time>2012-08-04T13:04:42Z</time>
      </trkpt>
      <trkpt lat="46.17866" lon="8.70219">
        <ele>327.95</ele>
        <time>2012-08-04T13:04:43Z</time>
      </trkpt>
      <trkpt lat="46.17865" lon="8.70209">
        <ele>329.39</ele>
        <time>2012-08-04T13:04:44Z</time>
      </trkpt>
      <trkpt lat="46.17862" lon="8.7018">
        <ele>332.75</ele>
        <time>2012-08-04T13:04:49Z</time>
      </trkpt>
      <trkpt lat="46.17858" lon="8.70176">
        <ele>333.23</ele>
        <time>2012-08-04T13:04:58Z</time>
      </trkpt>
      <trkpt lat="46.17859" lon="8.70176">
        <ele>332.75</ele>
        <time>2012-08-04T13:05:33Z</time>
      </trkpt>
      <trkpt lat="46.17859" lon="8.70175">
        <ele>333.23</ele>
        <time>2012-08-04T13:06:01Z</time>
      </trkpt>
      <trkpt lat="46.17861" lon="8.70172">
        <ele>333.71</ele>
        <time>2012-08-04T13:06:20Z</time>
      </trkpt>
      <trkpt lat="46.17861" lon="8.70165">
        <ele>334.68</ele>
        <time>2012-08-04T13:06:21Z</time>
      </trkpt>
      <trkpt lat="46.17859" lon="8.70146">
        <ele>336.12</ele>
        <time>2012-08-04T13:06:23Z</time>
      </trkpt>
      <trkpt lat="46.1786" lon="8.70135">
        <ele>336.6</ele>
        <time>2012-08-04T13:06:24Z</time>
      </trkpt>
      <trkpt lat="46.17866" lon="8.70097">
        <ele>339.96</ele>
        <time>2012-08-04T13:06:27Z</time>
      </trkpt>
      <trkpt lat="46.17872" lon="8.7006">
        <ele>341.89</ele>
        <time>2012-08-04T13:06:30Z</time>
      </trkpt>
      <trkpt lat="46.17872" lon="8.70048">
        <ele>343.33</ele>
        <time>2012-08-04T13:06:31Z</time>
      </trkpt>
      <trkpt lat="46.17871" lon="8.70039">
        <ele>343.81</ele>
        <time>2012-08-04T13:06:32Z</time>
      </trkpt>
      <trkpt lat="46.17868" lon="8.70033">
        <ele>344.29</ele>
        <time>2012-08-04T13:06:33Z</time>
      </trkpt>
      <trkpt lat="46.17864" lon="8.7003">
        <ele>344.77</ele>
        <time>2012-08-04T13:06:34Z</time>
      </trkpt>
      <trkpt lat="46.17859" lon="8.70031">
        <ele>345.25</ele>
        <time>2012-08-04T13:06:35Z</time>
      </trkpt>
      <trkpt lat="46.17854" lon="8.70035">
        <ele>346.21</ele>
        <time>2012-08-04T13:06:36Z</time>
      </trkpt>
      <trkpt lat="46.17849" lon="8.70042">
        <ele>346.69</ele>
        <time>2012-08-04T13:06:37Z</time>
      </trkpt>
      <trkpt lat="46.17845" lon="8.70052">
        <ele>347.17</ele>
        <time>2012-08-04T13:06:38Z</time>
      </trkpt>
      <trkpt lat="46.17841" lon="8.70063">
        <ele>348.13</ele>
        <time>2012-08-04T13:06:39Z</time>
      </trkpt>
      <trkpt lat="46.17837" lon="8.70074">
        <ele>348.62</ele>
        <time>2012-08-04T13:06:40Z</time>
      </trkpt>
      <trkpt lat="46.17832" lon="8.70083">
        <ele>349.1</ele>
        <time>2012-08-04T13:06:41Z</time>
      </trkpt>
      <trkpt lat="46.17825" lon="8.7009">
        <ele>350.06</ele>
        <time>2012-08-04T13:06:42Z</time>
      </trkpt>
      <trkpt lat="46.17818" lon="8.70094">
        <ele>352.46</ele>
        <time>2012-08-04T13:06:43Z</time>
      </trkpt>
      <trkpt lat="46.17809" lon="8.70096">
        <ele>353.9</ele>
        <time>2012-08-04T13:06:44Z</time>
      </trkpt>
      <trkpt lat="46.17799" lon="8.70095">
        <ele>354.86</ele>
        <time>2012-08-04T13:06:45Z</time>
      </trkpt>
      <trkpt lat="46.17772" lon="8.70088">
        <ele>356.79</ele>
        <time>2012-08-04T13:06:48Z</time>
      </trkpt>
      <trkpt lat="46.17755" lon="8.70087">
        <ele>357.75</ele>
        <time>2012-08-04T13:06:50Z</time>
      </trkpt>
      <trkpt lat="46.17687" lon="8.70096">
        <ele>358.23</ele>
        <time>2012-08-04T13:06:57Z</time>
      </trkpt>
      <trkpt lat="46.17678" lon="8.70094">
        <ele>358.23</ele>
        <time>2012-08-04T13:06:58Z</time>
      </trkpt>
      <trkpt lat="46.1767" lon="8.70088">
        <ele>358.71</ele>
        <time>2012-08-04T13:06:59Z</time>
      </trkpt>
      <trkpt lat="46.17664" lon="8.70077">
        <ele>358.71</ele>
        <time>2012-08-04T13:07:00Z</time>
      </trkpt>
      <trkpt lat="46.17661" lon="8.70063">
        <ele>358.71</ele>
        <time>2012-08-04T13:07:01Z</time>
      </trkpt>
      <trkpt lat="46.1766" lon="8.7005">
        <ele>359.19</ele>
        <time>2012-08-04T13:07:02Z</time>
      </trkpt>
      <trkpt lat="46.17662" lon="8.70035">
        <ele>360.15</ele>
        <time>2012-08-04T13:07:03Z</time>
      </trkpt>
      <trkpt lat="46.17664" lon="8.70021">
        <ele>360.15</ele>
        <time>2012-08-04T13:07:04Z</time>
      </trkpt>
      <trkpt lat="46.17662" lon="8.69974">
        <ele>361.11</ele>
        <time>2012-08-04T13:07:07Z</time>
      </trkpt>
      <trkpt lat="46.17657" lon="8.69876">
        <ele>364</ele>
        <time>2012-08-04T13:07:13Z</time>
      </trkpt>
      <trkpt lat="46.17656" lon="8.69859">
        <ele>364.48</ele>
        <time>2012-08-04T13:07:14Z</time>
      </trkpt>
      <trkpt lat="46.17653" lon="8.69843">
        <ele>364.96</ele>
        <time>2012-08-04T13:07:15Z</time>
      </trkpt>
      <trkpt lat="46.17648" lon="8.69828">
        <ele>365.44</ele>
        <time>2012-08-04T13:07:16Z</time>
      </trkpt>
      <trkpt lat="46.17622" lon="8.69764">
        <ele>366.88</ele>
        <time>2012-08-04T13:07:21Z</time>
      </trkpt>
      <trkpt lat="46.17619" lon="8.69752">
        <ele>367.36</ele>
        <time>2012-08-04T13:07:22Z</time>
      </trkpt>
      <trkpt lat="46.17619" lon="8.6974">
        <ele>367.84</ele>
        <time>2012-08-04T13:07:23Z</time>
      </trkpt>
      <trkpt lat="46.1762" lon="8.69727">
        <ele>368.8</ele>
        <time>2012-08-04T13:07:24Z</time>
      </trkpt>
      <trkpt lat="46.17623" lon="8.69713">
        <ele>369.28</ele>
        <time>2012-08-04T13:07:25Z</time>
      </trkpt>
      <trkpt lat="46.17627" lon="8.69699">
        <ele>370.73</ele>
        <time>2012-08-04T13:07:26Z</time>
      </trkpt>
      <trkpt lat="46.17633" lon="8.69686">
        <ele>370.73</ele>
        <time>2012-08-04T13:07:27Z</time>
      </trkpt>
      <trkpt lat="46.17647" lon="8.6965">
        <ele>371.69</ele>
        <time>2012-08-04T13:07:30Z</time>
      </trkpt>
      <trkpt lat="46.17649" lon="8.69639">
        <ele>372.17</ele>
        <time>2012-08-04T13:07:31Z</time>
      </trkpt>
      <trkpt lat="46.1765" lon="8.69628">
        <ele>372.17</ele>
        <time>2012-08-04T13:07:32Z</time>
      </trkpt>
      <trkpt lat="46.17649" lon="8.69619">
        <ele>372.17</ele>
        <time>2012-08-04T13:07:33Z</time>
      </trkpt>
      <trkpt lat="46.17646" lon="8.69611">
        <ele>372.65</ele>
        <time>2012-08-04T13:07:34Z</time>
      </trkpt>
      <trkpt lat="46.17642" lon="8.69604">
        <ele>373.13</ele>
        <time>2012-08-04T13:07:35Z</time>
      </trkpt>
      <trkpt lat="46.17636" lon="8.69596">
        <ele>373.13</ele>
        <time>2012-08-04T13:07:36Z</time>
      </trkpt>
      <trkpt lat="46.17591" lon="8.69538">
        <ele>376.01</ele>
        <time>2012-08-04T13:07:43Z</time>
      </trkpt>
      <trkpt lat="46.17582" lon="8.69529">
        <ele>376.01</ele>
        <time>2012-08-04T13:07:45Z</time>
      </trkpt>
      <trkpt lat="46.17579" lon="8.69529">
        <ele>376.01</ele>
        <time>2012-08-04T13:07:46Z</time>
      </trkpt>
      <trkpt lat="46.17576" lon="8.69533">
        <ele>376.01</ele>
        <time>2012-08-04T13:07:52Z</time>
      </trkpt>
      <trkpt lat="46.17575" lon="8.69537">
        <ele>376.01</ele>
        <time>2012-08-04T13:07:58Z</time>
      </trkpt>
      <trkpt lat="46.17568" lon="8.69526">
        <ele>376.97</ele>
        <time>2012-08-04T13:08:00Z</time>
      </trkpt>
      <trkpt lat="46.17562" lon="8.69519">
        <ele>377.94</ele>
        <time>2012-08-04T13:08:01Z</time>
      </trkpt>
      <trkpt lat="46.17546" lon="8.69503">
        <ele>379.86</ele>
        <time>2012-08-04T13:08:03Z</time>
      </trkpt>
      <trkpt lat="46.17539" lon="8.69492">
        <ele>380.82</ele>
        <time>2012-08-04T13:08:04Z</time>
      </trkpt>
      <trkpt lat="46.17532" lon="8.69479">
        <ele>381.78</ele>
        <time>2012-08-04T13:08:05Z</time>
      </trkpt>
      <trkpt lat="46.17514" lon="8.69434">
        <ele>385.15</ele>
        <time>2012-08-04T13:08:08Z</time>
      </trkpt>
      <trkpt lat="46.17227" lon="8.68557">
        <ele>442.82</ele>
        <time>2012-08-04T13:35:42Z</time>
      </trkpt>
      <trkpt lat="46.17227" lon="8.68556">
        <ele>442.34</ele>
        <time>2012-08-04T13:35:43Z</time>
      </trkpt>
      <trkpt lat="46.17228" lon="8.68553">
        <ele>442.34</ele>
        <time>2012-08-04T13:35:44Z</time>
      </trkpt>
      <trkpt lat="46.17218" lon="8.68527">
        <ele>444.27</ele>
        <time>2012-08-04T13:35:49Z</time>
      </trkpt>
      <trkpt lat="46.17216" lon="8.68521">
        <ele>444.75</ele>
        <time>2012-08-04T13:35:50Z</time>
      </trkpt>
      <trkpt lat="46.17208" lon="8.68513">
        <ele>445.23</ele>
        <time>2012-08-04T13:35:51Z</time>
      </trkpt>
      <trkpt lat="46.17198" lon="8.68507">
        <ele>444.75</ele>
        <time>2012-08-04T13:35:52Z</time>
      </trkpt>
      <trkpt lat="46.17185" lon="8.68502">
        <ele>444.75</ele>
        <time>2012-08-04T13:35:53Z</time>
      </trkpt>
      <trkpt lat="46.17176" lon="8.68499">
        <ele>444.75</ele>
        <time>2012-08-04T13:35:54Z</time>
      </trkpt>
      <trkpt lat="46.17165" lon="8.68493">
        <ele>444.75</ele>
        <time>2012-08-04T13:35:55Z</time>
      </trkpt>
      <trkpt lat="46.17155" lon="8.68486">
        <ele>445.23</ele>
        <time>2012-08-04T13:35:56Z</time>
      </trkpt>
      <trkpt lat="46.17147" lon="8.68477">
        <ele>447.15</ele>
        <time>2012-08-04T13:35:57Z</time>
      </trkpt>
      <trkpt lat="46.17139" lon="8.68466">
        <ele>444.75</ele>
        <time>2012-08-04T13:35:58Z</time>
      </trkpt>
      <trkpt lat="46.17133" lon="8.68454">
        <ele>444.75</ele>
        <time>2012-08-04T13:35:59Z</time>
      </trkpt>
      <trkpt lat="46.17127" lon="8.68441">
        <ele>444.27</ele>
        <time>2012-08-04T13:36:00Z</time>
      </trkpt>
      <trkpt lat="46.17122" lon="8.68426">
        <ele>444.75</ele>
        <time>2012-08-04T13:36:01Z</time>
      </trkpt>
      <trkpt lat="46.17119" lon="8.68409">
        <ele>445.71</ele>
        <time>2012-08-04T13:36:02Z</time>
      </trkpt>
      <trkpt lat="46.17115" lon="8.68389">
        <ele>445.71</ele>
        <time>2012-08-04T13:36:03Z</time>
      </trkpt>
      <trkpt lat="46.17111" lon="8.6837">
        <ele>445.23</ele>
        <time>2012-08-04T13:36:04Z</time>
      </trkpt>
      <trkpt lat="46.171" lon="8.6833">
        <ele>445.71</ele>
        <time>2012-08-04T13:36:06Z</time>
      </trkpt>
      <trkpt lat="46.17044" lon="8.68212">
        <ele>446.19</ele>
        <time>2012-08-04T13:36:14Z</time>
      </trkpt>
      <trkpt lat="46.17018" lon="8.68186">
        <ele>447.15</ele>
        <time>2012-08-04T13:36:17Z</time>
      </trkpt>
      <trkpt lat="46.17011" lon="8.68175">
        <ele>447.63</ele>
        <time>2012-08-04T13:36:18Z</time>
      </trkpt>
      <trkpt lat="46.17004" lon="8.68161">
        <ele>448.59</ele>
        <time>2012-08-04T13:36:19Z</time>
      </trkpt>
      <trkpt lat="46.16998" lon="8.68147">
        <ele>448.59</ele>
        <time>2012-08-04T13:36:20Z</time>
      </trkpt>
      <trkpt lat="46.16992" lon="8.68132">
        <ele>450.03</ele>
        <time>2012-08-04T13:36:21Z</time>
      </trkpt>
      <trkpt lat="46.16986" lon="8.68116">
        <ele>450.03</ele>
        <time>2012-08-04T13:36:22Z</time>
      </trkpt>
      <trkpt lat="46.16981" lon="8.681">
        <ele>450.52</ele>
        <time>2012-08-04T13:36:23Z</time>
      </trkpt>
      <trkpt lat="46.16976" lon="8.68084">
        <ele>450.03</ele>
        <time>2012-08-04T13:36:24Z</time>
      </trkpt>
      <trkpt lat="46.16973" lon="8.68066">
        <ele>449.55</ele>
        <time>2012-08-04T13:36:25Z</time>
      </trkpt>
      <trkpt lat="46.16971" lon="8.68049">
        <ele>449.55</ele>
        <time>2012-08-04T13:36:26Z</time>
      </trkpt>
      <trkpt lat="46.16971" lon="8.68033">
        <ele>449.55</ele>
        <time>2012-08-04T13:36:27Z</time>
      </trkpt>
      <trkpt lat="46.16972" lon="8.68017">
        <ele>449.07</ele>
        <time>2012-08-04T13:36:28Z</time>
      </trkpt>
      <trkpt lat="46.16971" lon="8.67966">
        <ele>449.07</ele>
        <time>2012-08-04T13:36:32Z</time>
      </trkpt>
      <trkpt lat="46.16966" lon="8.67954">
        <ele>450.03</ele>
        <time>2012-08-04T13:36:33Z</time>
      </trkpt>
      <trkpt lat="46.16961" lon="8.6794">
        <ele>450.03</ele>
        <time>2012-08-04T13:36:34Z</time>
      </trkpt>
      <trkpt lat="46.16956" lon="8.67926">
        <ele>450.52</ele>
        <time>2012-08-04T13:36:35Z</time>
      </trkpt>
      <trkpt lat="46.16953" lon="8.67911">
        <ele>451</ele>
        <time>2012-08-04T13:36:36Z</time>
      </trkpt>
      <trkpt lat="46.16949" lon="8.67896">
        <ele>451</ele>
        <time>2012-08-04T13:36:37Z</time>
      </trkpt>
      <trkpt lat="46.16944" lon="8.67882">
        <ele>451.48</ele>
        <time>2012-08-04T13:36:38Z</time>
      </trkpt>
      <trkpt lat="46.16938" lon="8.67869">
        <ele>451</ele>
        <time>2012-08-04T13:36:39Z</time>
      </trkpt>
      <trkpt lat="46.16932" lon="8.67856">
        <ele>451</ele>
        <time>2012-08-04T13:36:40Z</time>
      </trkpt>
      <trkpt lat="46.16915" lon="8.6781">
        <ele>450.03</ele>
        <time>2012-08-04T13:36:44Z</time>
      </trkpt>
      <trkpt lat="46.16912" lon="8.67797">
        <ele>450.52</ele>
        <time>2012-08-04T13:36:45Z</time>
      </trkpt>
      <trkpt lat="46.16911" lon="8.67783">
        <ele>451</ele>
        <time>2012-08-04T13:36:46Z</time>
      </trkpt>
      <trkpt lat="46.16913" lon="8.6777">
        <ele>450.52</ele>
        <time>2012-08-04T13:36:47Z</time>
      </trkpt>
      <trkpt lat="46.16915" lon="8.67758">
        <ele>451</ele>
        <time>2012-08-04T13:36:48Z</time>
      </trkpt>
      <trkpt lat="46.16917" lon="8.67747">
        <ele>451</ele>
        <time>2012-08-04T13:36:49Z</time>
      </trkpt>
      <trkpt lat="46.16917" lon="8.67736">
        <ele>451</ele>
        <time>2012-08-04T13:36:50Z</time>
      </trkpt>
      <trkpt lat="46.16915" lon="8.67725">
        <ele>451.48</ele>
        <time>2012-08-04T13:36:51Z</time>
      </trkpt>
      <trkpt lat="46.16912" lon="8.67715">
        <ele>451</ele>
        <time>2012-08-04T13:36:52Z</time>
      </trkpt>
      <trkpt lat="46.16909" lon="8.67704">
        <ele>450.52</ele>
        <time>2012-08-04T13:36:53Z</time>
      </trkpt>
      <trkpt lat="46.16907" lon="8.67693">
        <ele>450.52</ele>
        <time>2012-08-04T13:36:54Z</time>
      </trkpt>
      <trkpt lat="46.16904" lon="8.67681">
        <ele>450.52</ele>
        <time>2012-08-04T13:36:55Z</time>
      </trkpt>
      <trkpt lat="46.16898" lon="8.67652">
        <ele>450.52</ele>
        <time>2012-08-04T13:36:58Z</time>
      </trkpt>
      <trkpt lat="46.16895" lon="8.67644">
        <ele>450.52</ele>
        <time>2012-08-04T13:36:59Z</time>
      </trkpt>
      <trkpt lat="46.16887" lon="8.67625">
        <ele>451</ele>
        <time>2012-08-04T13:37:01Z</time>
      </trkpt>
      <trkpt lat="46.16884" lon="8.67611">
        <ele>451.96</ele>
        <time>2012-08-04T13:37:02Z</time>
      </trkpt>
      <trkpt lat="46.16879" lon="8.67583">
        <ele>451.48</ele>
        <time>2012-08-04T13:37:04Z</time>
      </trkpt>
      <trkpt lat="46.16878" lon="8.67569">
        <ele>451</ele>
        <time>2012-08-04T13:37:05Z</time>
      </trkpt>
      <trkpt lat="46.16878" lon="8.67539">
        <ele>451.48</ele>
        <time>2012-08-04T13:37:07Z</time>
      </trkpt>
      <trkpt lat="46.16883" lon="8.67479">
        <ele>450.03</ele>
        <time>2012-08-04T13:37:12Z</time>
      </trkpt>
      <trkpt lat="46.16882" lon="8.67471">
        <ele>449.55</ele>
        <time>2012-08-04T13:37:13Z</time>
      </trkpt>
      <trkpt lat="46.1688" lon="8.67463">
        <ele>450.03</ele>
        <time>2012-08-04T13:37:14Z</time>
      </trkpt>
      <trkpt lat="46.16873" lon="8.67448">
        <ele>450.52</ele>
        <time>2012-08-04T13:37:16Z</time>
      </trkpt>
      <trkpt lat="46.1687" lon="8.67437">
        <ele>450.52</ele>
        <time>2012-08-04T13:37:17Z</time>
      </trkpt>
      <trkpt lat="46.16868" lon="8.67425">
        <ele>451.48</ele>
        <time>2012-08-04T13:37:18Z</time>
      </trkpt>
      <trkpt lat="46.16867" lon="8.67384">
        <ele>450.52</ele>
        <time>2012-08-04T13:37:21Z</time>
      </trkpt>
      <trkpt lat="46.16869" lon="8.67373">
        <ele>450.52</ele>
        <time>2012-08-04T13:37:22Z</time>
      </trkpt>
      <trkpt lat="46.16879" lon="8.67334">
        <ele>451.48</ele>
        <time>2012-08-04T13:37:26Z</time>
      </trkpt>
      <trkpt lat="46.16881" lon="8.6731">
        <ele>451.96</ele>
        <time>2012-08-04T13:37:28Z</time>
      </trkpt>
      <trkpt lat="46.16881" lon="8.67295">
        <ele>451.96</ele>
        <time>2012-08-04T13:37:29Z</time>
      </trkpt>
      <trkpt lat="46.16882" lon="8.67281">
        <ele>451.96</ele>
        <time>2012-08-04T13:37:30Z</time>
      </trkpt>
      <trkpt lat="46.16883" lon="8.67266">
        <ele>451.96</ele>
        <time>2012-08-04T13:37:31Z</time>
      </trkpt>
      <trkpt lat="46.16883" lon="8.67251">
        <ele>452.44</ele>
        <time>2012-08-04T13:37:32Z</time>
      </trkpt>
      <trkpt lat="46.16882" lon="8.67236">
        <ele>452.92</ele>
        <time>2012-08-04T13:37:33Z</time>
      </trkpt>
      <trkpt lat="46.16879" lon="8.67222">
        <ele>452.92</ele>
        <time>2012-08-04T13:37:34Z</time>
      </trkpt>
      <trkpt lat="46.16871" lon="8.67194">
        <ele>452.44</ele>
        <time>2012-08-04T13:37:36Z</time>
      </trkpt>
      <trkpt lat="46.16867" lon="8.67179">
        <ele>452.44</ele>
        <time>2012-08-04T13:37:37Z</time>
      </trkpt>
      <trkpt lat="46.16865" lon="8.67132">
        <ele>453.4</ele>
        <time>2012-08-04T13:37:40Z</time>
      </trkpt>
      <trkpt lat="46.16869" lon="8.67117">
        <ele>453.4</ele>
        <time>2012-08-04T13:37:41Z</time>
      </trkpt>
      <trkpt lat="46.16885" lon="8.67058">
        <ele>452.92</ele>
        <time>2012-08-04T13:37:45Z</time>
      </trkpt>
      <trkpt lat="46.16886" lon="8.67044">
        <ele>452.92</ele>
        <time>2012-08-04T13:37:46Z</time>
      </trkpt>
      <trkpt lat="46.16888" lon="8.67013">
        <ele>452.44</ele>
        <time>2012-08-04T13:37:48Z</time>
      </trkpt>
      <trkpt lat="46.16887" lon="8.66996">
        <ele>452.44</ele>
        <time>2012-08-04T13:37:49Z</time>
      </trkpt>
      <trkpt lat="46.16888" lon="8.66979">
        <ele>452.44</ele>
        <time>2012-08-04T13:37:50Z</time>
      </trkpt>
      <trkpt lat="46.16898" lon="8.66913">
        <ele>452.44</ele>
        <time>2012-08-04T13:37:54Z</time>
      </trkpt>
      <trkpt lat="46.16897" lon="8.66898">
        <ele>452.44</ele>
        <time>2012-08-04T13:37:55Z</time>
      </trkpt>
      <trkpt lat="46.16896" lon="8.66777">
        <ele>452.44</ele>
        <time>2012-08-04T13:38:03Z</time>
      </trkpt>
      <trkpt lat="46.169" lon="8.66748">
        <ele>452.92</ele>
        <time>2012-08-04T13:38:05Z</time>
      </trkpt>
      <trkpt lat="46.16899" lon="8.66733">
        <ele>452.92</ele>
        <time>2012-08-04T13:38:06Z</time>
      </trkpt>
      <trkpt lat="46.16898" lon="8.66717">
        <ele>453.88</ele>
        <time>2012-08-04T13:38:07Z</time>
      </trkpt>
      <trkpt lat="46.1689" lon="8.66673">
        <ele>452.92</ele>
        <time>2012-08-04T13:38:10Z</time>
      </trkpt>
      <trkpt lat="46.1689" lon="8.66617">
        <ele>453.4</ele>
        <time>2012-08-04T13:38:14Z</time>
      </trkpt>
      <trkpt lat="46.16881" lon="8.66546">
        <ele>453.4</ele>
        <time>2012-08-04T13:38:20Z</time>
      </trkpt>
      <trkpt lat="46.16882" lon="8.66535">
        <ele>453.4</ele>
        <time>2012-08-04T13:38:21Z</time>
      </trkpt>
      <trkpt lat="46.16895" lon="8.66472">
        <ele>454.36</ele>
        <time>2012-08-04T13:38:26Z</time>
      </trkpt>
      <trkpt lat="46.169" lon="8.66462">
        <ele>454.36</ele>
        <time>2012-08-04T13:38:27Z</time>
      </trkpt>
      <trkpt lat="46.16937" lon="8.66393">
        <ele>454.84</ele>
        <time>2012-08-04T13:38:35Z</time>
      </trkpt>
      <trkpt lat="46.16942" lon="8.66387">
        <ele>454.84</ele>
        <time>2012-08-04T13:38:36Z</time>
      </trkpt>
      <trkpt lat="46.16951" lon="8.66375">
        <ele>454.36</ele>
        <time>2012-08-04T13:38:38Z</time>
      </trkpt>
      <trkpt lat="46.16966" lon="8.66349">
        <ele>454.84</ele>
        <time>2012-08-04T13:38:42Z</time>
      </trkpt>
      <trkpt lat="46.16971" lon="8.66335">
        <ele>454.84</ele>
        <time>2012-08-04T13:38:44Z</time>
      </trkpt>
      <trkpt lat="46.16972" lon="8.66328">
        <ele>454.84</ele>
        <time>2012-08-04T13:38:45Z</time>
      </trkpt>
      <trkpt lat="46.16972" lon="8.66321">
        <ele>455.32</ele>
        <time>2012-08-04T13:38:46Z</time>
      </trkpt>
      <trkpt lat="46.1697" lon="8.66315">
        <ele>455.32</ele>
        <time>2012-08-04T13:38:47Z</time>
      </trkpt>
      <trkpt lat="46.16966" lon="8.6631">
        <ele>455.32</ele>
        <time>2012-08-04T13:38:48Z</time>
      </trkpt>
      <trkpt lat="46.16959" lon="8.66307">
        <ele>455.8</ele>
        <time>2012-08-04T13:38:49Z</time>
      </trkpt>
      <trkpt lat="46.16952" lon="8.66306">
        <ele>456.28</ele>
        <time>2012-08-04T13:38:50Z</time>
      </trkpt>
      <trkpt lat="46.16945" lon="8.66308">
        <ele>457.24</ele>
        <time>2012-08-04T13:38:51Z</time>
      </trkpt>
      <trkpt lat="46.16929" lon="8.66311">
        <ele>457.72</ele>
        <time>2012-08-04T13:38:53Z</time>
      </trkpt>
      <trkpt lat="46.16921" lon="8.6631">
        <ele>458.21</ele>
        <time>2012-08-04T13:38:54Z</time>
      </trkpt>
      <trkpt lat="46.16907" lon="8.66305">
        <ele>459.17</ele>
        <time>2012-08-04T13:38:56Z</time>
      </trkpt>
      <trkpt lat="46.169" lon="8.66304">
        <ele>459.65</ele>
        <time>2012-08-04T13:38:57Z</time>
      </trkpt>
      <trkpt lat="46.16892" lon="8.66305">
        <ele>460.13</ele>
        <time>2012-08-04T13:38:58Z</time>
      </trkpt>
      <trkpt lat="46.16878" lon="8.66314">
        <ele>461.09</ele>
        <time>2012-08-04T13:39:00Z</time>
      </trkpt>
      <trkpt lat="46.16873" lon="8.66315">
        <ele>460.61</ele>
        <time>2012-08-04T13:39:01Z</time>
      </trkpt>
      <trkpt lat="46.16868" lon="8.66314">
        <ele>462.05</ele>
        <time>2012-08-04T13:39:02Z</time>
      </trkpt>
      <trkpt lat="46.16863" lon="8.6631">
        <ele>462.53</ele>
        <time>2012-08-04T13:39:03Z</time>
      </trkpt>
      <trkpt lat="46.16852" lon="8.6629">
        <ele>463.49</ele>
        <time>2012-08-04T13:39:06Z</time>
      </trkpt>
      <trkpt lat="46.1685" lon="8.66281">
        <ele>463.49</ele>
        <time>2012-08-04T13:39:07Z</time>
      </trkpt>
      <trkpt lat="46.16844" lon="8.66226">
        <ele>466.38</ele>
        <time>2012-08-04T13:39:12Z</time>
      </trkpt>
      <trkpt lat="46.16843" lon="8.66204">
        <ele>467.34</ele>
        <time>2012-08-04T13:39:13Z</time>
      </trkpt>
      <trkpt lat="46.16844" lon="8.66191">
        <ele>467.82</ele>
        <time>2012-08-04T13:39:14Z</time>
      </trkpt>
      <trkpt lat="46.16846" lon="8.66169">
        <ele>467.82</ele>
        <time>2012-08-04T13:39:16Z</time>
      </trkpt>
      <trkpt lat="46.16845" lon="8.66159">
        <ele>467.82</ele>
        <time>2012-08-04T13:39:17Z</time>
      </trkpt>
      <trkpt lat="46.16839" lon="8.66103">
        <ele>469.74</ele>
        <time>2012-08-04T13:39:22Z</time>
      </trkpt>
      <trkpt lat="46.1684" lon="8.66091">
        <ele>469.74</ele>
        <time>2012-08-04T13:39:23Z</time>
      </trkpt>
      <trkpt lat="46.16842" lon="8.66079">
        <ele>471.18</ele>
        <time>2012-08-04T13:39:24Z</time>
      </trkpt>
      <trkpt lat="46.16847" lon="8.66026">
        <ele>474.07</ele>
        <time>2012-08-04T13:39:28Z</time>
      </trkpt>
      <trkpt lat="46.16854" lon="8.65972">
        <ele>475.03</ele>
        <time>2012-08-04T13:39:32Z</time>
      </trkpt>
      <trkpt lat="46.16855" lon="8.65962">
        <ele>474.55</ele>
        <time>2012-08-04T13:39:33Z</time>
      </trkpt>
      <trkpt lat="46.16854" lon="8.65953">
        <ele>475.03</ele>
        <time>2012-08-04T13:39:34Z</time>
      </trkpt>
      <trkpt lat="46.16853" lon="8.65947">
        <ele>475.99</ele>
        <time>2012-08-04T13:39:35Z</time>
      </trkpt>
      <trkpt lat="46.16852" lon="8.65941">
        <ele>475.99</ele>
        <time>2012-08-04T13:39:36Z</time>
      </trkpt>
      <trkpt lat="46.16845" lon="8.65928">
        <ele>476.95</ele>
        <time>2012-08-04T13:39:38Z</time>
      </trkpt>
      <trkpt lat="46.16842" lon="8.6592">
        <ele>476.95</ele>
        <time>2012-08-04T13:39:39Z</time>
      </trkpt>
      <trkpt lat="46.1684" lon="8.65911">
        <ele>477.43</ele>
        <time>2012-08-04T13:39:40Z</time>
      </trkpt>
      <trkpt lat="46.1684" lon="8.65901">
        <ele>477.43</ele>
        <time>2012-08-04T13:39:41Z</time>
      </trkpt>
      <trkpt lat="46.1684" lon="8.65891">
        <ele>478.39</ele>
        <time>2012-08-04T13:39:42Z</time>
      </trkpt>
      <trkpt lat="46.16842" lon="8.6587">
        <ele>480.32</ele>
        <time>2012-08-04T13:39:44Z</time>
      </trkpt>
      <trkpt lat="46.16843" lon="8.65852">
        <ele>481.76</ele>
        <time>2012-08-04T13:39:46Z</time>
      </trkpt>
      <trkpt lat="46.16842" lon="8.65845">
        <ele>482.72</ele>
        <time>2012-08-04T13:39:47Z</time>
      </trkpt>
      <trkpt lat="46.16839" lon="8.65839">
        <ele>482.72</ele>
        <time>2012-08-04T13:39:48Z</time>
      </trkpt>
      <trkpt lat="46.16835" lon="8.65836">
        <ele>483.2</ele>
        <time>2012-08-04T13:39:49Z</time>
      </trkpt>
      <trkpt lat="46.1683" lon="8.65835">
        <ele>483.68</ele>
        <time>2012-08-04T13:39:50Z</time>
      </trkpt>
      <trkpt lat="46.16823" lon="8.65836">
        <ele>484.64</ele>
        <time>2012-08-04T13:39:51Z</time>
      </trkpt>
      <trkpt lat="46.1681" lon="8.65842">
        <ele>485.12</ele>
        <time>2012-08-04T13:39:53Z</time>
      </trkpt>
      <trkpt lat="46.16803" lon="8.65841">
        <ele>486.08</ele>
        <time>2012-08-04T13:39:54Z</time>
      </trkpt>
      <trkpt lat="46.16798" lon="8.65838">
        <ele>486.56</ele>
        <time>2012-08-04T13:39:55Z</time>
      </trkpt>
      <trkpt lat="46.16792" lon="8.65831">
        <ele>487.53</ele>
        <time>2012-08-04T13:39:56Z</time>
      </trkpt>
      <trkpt lat="46.16777" lon="8.65804">
        <ele>490.89</ele>
        <time>2012-08-04T13:39:58Z</time>
      </trkpt>
      <trkpt lat="46.16774" lon="8.65795">
        <ele>491.37</ele>
        <time>2012-08-04T13:39:59Z</time>
      </trkpt>
      <trkpt lat="46.16768" lon="8.65779">
        <ele>492.33</ele>
        <time>2012-08-04T13:40:00Z</time>
      </trkpt>
      <trkpt lat="46.16764" lon="8.6576">
        <ele>492.81</ele>
        <time>2012-08-04T13:40:01Z</time>
      </trkpt>
      <trkpt lat="46.16761" lon="8.65741">
        <ele>493.29</ele>
        <time>2012-08-04T13:40:02Z</time>
      </trkpt>
      <trkpt lat="46.16759" lon="8.65723">
        <ele>493.77</ele>
        <time>2012-08-04T13:40:03Z</time>
      </trkpt>
      <trkpt lat="46.16757" lon="8.65707">
        <ele>493.77</ele>
        <time>2012-08-04T13:40:04Z</time>
      </trkpt>
      <trkpt lat="46.16754" lon="8.65691">
        <ele>493.77</ele>
        <time>2012-08-04T13:40:05Z</time>
      </trkpt>
      <trkpt lat="46.16751" lon="8.65675">
        <ele>494.74</ele>
        <time>2012-08-04T13:40:06Z</time>
      </trkpt>
      <trkpt lat="46.1675" lon="8.65659">
        <ele>495.22</ele>
        <time>2012-08-04T13:40:07Z</time>
      </trkpt>
      <trkpt lat="46.16751" lon="8.65641">
        <ele>496.18</ele>
        <time>2012-08-04T13:40:08Z</time>
      </trkpt>
      <trkpt lat="46.16753" lon="8.65623">
        <ele>497.14</ele>
        <time>2012-08-04T13:40:09Z</time>
      </trkpt>
      <trkpt lat="46.16755" lon="8.65605">
        <ele>497.62</ele>
        <time>2012-08-04T13:40:10Z</time>
      </trkpt>
      <trkpt lat="46.1676" lon="8.6557">
        <ele>499.54</ele>
        <time>2012-08-04T13:40:12Z</time>
      </trkpt>
      <trkpt lat="46.16773" lon="8.65486">
        <ele>500.02</ele>
        <time>2012-08-04T13:40:18Z</time>
      </trkpt>
      <trkpt lat="46.16778" lon="8.65468">
        <ele>500.5</ele>
        <time>2012-08-04T13:40:20Z</time>
      </trkpt>
      <trkpt lat="46.16783" lon="8.65464">
        <ele>500.02</ele>
        <time>2012-08-04T13:40:21Z</time>
      </trkpt>
      <trkpt lat="46.16791" lon="8.65457">
        <ele>500.98</ele>
        <time>2012-08-04T13:40:23Z</time>
      </trkpt>
      <trkpt lat="46.16794" lon="8.65453">
        <ele>500.98</ele>
        <time>2012-08-04T13:40:24Z</time>
      </trkpt>
      <trkpt lat="46.16796" lon="8.65448">
        <ele>501.46</ele>
        <time>2012-08-04T13:40:25Z</time>
      </trkpt>
      <trkpt lat="46.16796" lon="8.65441">
        <ele>501.95</ele>
        <time>2012-08-04T13:40:26Z</time>
      </trkpt>
      <trkpt lat="46.16797" lon="8.65409">
        <ele>503.39</ele>
        <time>2012-08-04T13:40:29Z</time>
      </trkpt>
      <trkpt lat="46.16798" lon="8.65398">
        <ele>503.39</ele>
        <time>2012-08-04T13:40:30Z</time>
      </trkpt>
      <trkpt lat="46.16803" lon="8.65379">
        <ele>503.87</ele>
        <time>2012-08-04T13:40:32Z</time>
      </trkpt>
      <trkpt lat="46.16804" lon="8.65369">
        <ele>504.35</ele>
        <time>2012-08-04T13:40:33Z</time>
      </trkpt>
      <trkpt lat="46.16807" lon="8.65351">
        <ele>504.83</ele>
        <time>2012-08-04T13:40:35Z</time>
      </trkpt>
      <trkpt lat="46.16809" lon="8.65343">
        <ele>504.83</ele>
        <time>2012-08-04T13:40:36Z</time>
      </trkpt>
      <trkpt lat="46.16814" lon="8.6533">
        <ele>505.31</ele>
        <time>2012-08-04T13:40:38Z</time>
      </trkpt>
      <trkpt lat="46.16816" lon="8.65324">
        <ele>505.31</ele>
        <time>2012-08-04T13:40:39Z</time>
      </trkpt>
      <trkpt lat="46.16816" lon="8.65318">
        <ele>505.31</ele>
        <time>2012-08-04T13:40:40Z</time>
      </trkpt>
      <trkpt lat="46.16814" lon="8.65315">
        <ele>505.79</ele>
        <time>2012-08-04T13:40:41Z</time>
      </trkpt>
      <trkpt lat="46.16808" lon="8.65313">
        <ele>505.79</ele>
        <time>2012-08-04T13:40:42Z</time>
      </trkpt>
      <trkpt lat="46.16791" lon="8.65309">
        <ele>506.27</ele>
        <time>2012-08-04T13:40:44Z</time>
      </trkpt>
      <trkpt lat="46.16783" lon="8.65306">
        <ele>505.79</ele>
        <time>2012-08-04T13:40:45Z</time>
      </trkpt>
      <trkpt lat="46.16741" lon="8.65272">
        <ele>506.75</ele>
        <time>2012-08-04T13:40:51Z</time>
      </trkpt>
      <trkpt lat="46.16737" lon="8.65263">
        <ele>506.75</ele>
        <time>2012-08-04T13:40:52Z</time>
      </trkpt>
      <trkpt lat="46.16735" lon="8.65253">
        <ele>506.75</ele>
        <time>2012-08-04T13:40:53Z</time>
      </trkpt>
      <trkpt lat="46.16729" lon="8.65219">
        <ele>506.75</ele>
        <time>2012-08-04T13:40:56Z</time>
      </trkpt>
      <trkpt lat="46.16724" lon="8.65204">
        <ele>507.23</ele>
        <time>2012-08-04T13:40:58Z</time>
      </trkpt>
      <trkpt lat="46.16718" lon="8.65199">
        <ele>507.71</ele>
        <time>2012-08-04T13:40:59Z</time>
      </trkpt>
      <trkpt lat="46.16712" lon="8.65198">
        <ele>507.71</ele>
        <time>2012-08-04T13:41:00Z</time>
      </trkpt>
      <trkpt lat="46.16706" lon="8.65198">
        <ele>508.19</ele>
        <time>2012-08-04T13:41:01Z</time>
      </trkpt>
      <trkpt lat="46.16699" lon="8.65198">
        <ele>508.67</ele>
        <time>2012-08-04T13:41:02Z</time>
      </trkpt>
      <trkpt lat="46.16693" lon="8.65199">
        <ele>509.16</ele>
        <time>2012-08-04T13:41:03Z</time>
      </trkpt>
      <trkpt lat="46.16687" lon="8.65197">
        <ele>509.16</ele>
        <time>2012-08-04T13:41:04Z</time>
      </trkpt>
      <trkpt lat="46.1668" lon="8.65193">
        <ele>510.12</ele>
        <time>2012-08-04T13:41:05Z</time>
      </trkpt>
      <trkpt lat="46.16674" lon="8.65186">
        <ele>511.08</ele>
        <time>2012-08-04T13:41:06Z</time>
      </trkpt>
      <trkpt lat="46.16652" lon="8.65158">
        <ele>512.52</ele>
        <time>2012-08-04T13:41:09Z</time>
      </trkpt>
      <trkpt lat="46.16647" lon="8.6515">
        <ele>512.52</ele>
        <time>2012-08-04T13:41:10Z</time>
      </trkpt>
      <trkpt lat="46.16642" lon="8.65142">
        <ele>513.48</ele>
        <time>2012-08-04T13:41:11Z</time>
      </trkpt>
      <trkpt lat="46.16638" lon="8.65135">
        <ele>513</ele>
        <time>2012-08-04T13:41:12Z</time>
      </trkpt>
      <trkpt lat="46.16636" lon="8.65128">
        <ele>513.96</ele>
        <time>2012-08-04T13:41:13Z</time>
      </trkpt>
      <trkpt lat="46.16636" lon="8.65119">
        <ele>514.44</ele>
        <time>2012-08-04T13:41:14Z</time>
      </trkpt>
      <trkpt lat="46.16637" lon="8.65111">
        <ele>514.44</ele>
        <time>2012-08-04T13:41:15Z</time>
      </trkpt>
      <trkpt lat="46.16639" lon="8.65105">
        <ele>514.92</ele>
        <time>2012-08-04T13:41:16Z</time>
      </trkpt>
      <trkpt lat="46.16639" lon="8.65098">
        <ele>514.44</ele>
        <time>2012-08-04T13:41:17Z</time>
      </trkpt>
      <trkpt lat="46.16638" lon="8.65093">
        <ele>514.92</ele>
        <time>2012-08-04T13:41:18Z</time>
      </trkpt>
      <trkpt lat="46.16636" lon="8.65088">
        <ele>514.92</ele>
        <time>2012-08-04T13:41:19Z</time>
      </trkpt>
      <trkpt lat="46.16633" lon="8.65083">
        <ele>514.92</ele>
        <time>2012-08-04T13:41:20Z</time>
      </trkpt>
      <trkpt lat="46.16627" lon="8.6508">
        <ele>515.4</ele>
        <time>2012-08-04T13:41:21Z</time>
      </trkpt>
      <trkpt lat="46.1662" lon="8.65078">
        <ele>515.88</ele>
        <time>2012-08-04T13:41:22Z</time>
      </trkpt>
      <trkpt lat="46.16613" lon="8.65077">
        <ele>515.88</ele>
        <time>2012-08-04T13:41:23Z</time>
      </trkpt>
      <trkpt lat="46.16605" lon="8.65076">
        <ele>515.88</ele>
        <time>2012-08-04T13:41:24Z</time>
      </trkpt>
      <trkpt lat="46.16598" lon="8.65072">
        <ele>515.88</ele>
        <time>2012-08-04T13:41:25Z</time>
      </trkpt>
      <trkpt lat="46.16592" lon="8.65065">
        <ele>515.88</ele>
        <time>2012-08-04T13:41:26Z</time>
      </trkpt>
      <trkpt lat="46.16586" lon="8.65056">
        <ele>515.88</ele>
        <time>2012-08-04T13:41:27Z</time>
      </trkpt>
      <trkpt lat="46.16563" lon="8.65019">
        <ele>516.85</ele>
        <time>2012-08-04T13:41:31Z</time>
      </trkpt>
      <trkpt lat="46.16558" lon="8.65008">
        <ele>517.33</ele>
        <time>2012-08-04T13:41:32Z</time>
      </trkpt>
      <trkpt lat="46.16555" lon="8.64996">
        <ele>517.33</ele>
        <time>2012-08-04T13:41:33Z</time>
      </trkpt>
      <trkpt lat="46.16553" lon="8.64984">
        <ele>517.81</ele>
        <time>2012-08-04T13:41:34Z</time>
      </trkpt>
      <trkpt lat="46.16551" lon="8.6497">
        <ele>517.81</ele>
        <time>2012-08-04T13:41:35Z</time>
      </trkpt>
      <trkpt lat="46.16551" lon="8.64959">
        <ele>518.29</ele>
        <time>2012-08-04T13:41:36Z</time>
      </trkpt>
      <trkpt lat="46.16554" lon="8.64937">
        <ele>517.81</ele>
        <time>2012-08-04T13:41:38Z</time>
      </trkpt>
      <trkpt lat="46.16582" lon="8.64863">
        <ele>518.77</ele>
        <time>2012-08-04T13:41:45Z</time>
      </trkpt>
      <trkpt lat="46.16587" lon="8.64855">
        <ele>519.25</ele>
        <time>2012-08-04T13:41:46Z</time>
      </trkpt>
      <trkpt lat="46.16594" lon="8.64852">
        <ele>519.25</ele>
        <time>2012-08-04T13:41:47Z</time>
      </trkpt>
      <trkpt lat="46.16619" lon="8.64839">
        <ele>519.73</ele>
        <time>2012-08-04T13:41:51Z</time>
      </trkpt>
      <trkpt lat="46.16623" lon="8.64834">
        <ele>519.73</ele>
        <time>2012-08-04T13:41:52Z</time>
      </trkpt>
      <trkpt lat="46.16628" lon="8.64827">
        <ele>520.21</ele>
        <time>2012-08-04T13:41:53Z</time>
      </trkpt>
      <trkpt lat="46.1663" lon="8.64818">
        <ele>519.73</ele>
        <time>2012-08-04T13:41:54Z</time>
      </trkpt>
      <trkpt lat="46.16632" lon="8.64809">
        <ele>520.21</ele>
        <time>2012-08-04T13:41:55Z</time>
      </trkpt>
      <trkpt lat="46.16631" lon="8.648">
        <ele>520.69</ele>
        <time>2012-08-04T13:41:56Z</time>
      </trkpt>
      <trkpt lat="46.16629" lon="8.64791">
        <ele>520.69</ele>
        <time>2012-08-04T13:41:57Z</time>
      </trkpt>
      <trkpt lat="46.16627" lon="8.64782">
        <ele>520.21</ele>
        <time>2012-08-04T13:41:58Z</time>
      </trkpt>
      <trkpt lat="46.16624" lon="8.64775">
        <ele>520.69</ele>
        <time>2012-08-04T13:41:59Z</time>
      </trkpt>
      <trkpt lat="46.16618" lon="8.64768">
        <ele>521.17</ele>
        <time>2012-08-04T13:42:00Z</time>
      </trkpt>
      <trkpt lat="46.1661" lon="8.64764">
        <ele>521.65</ele>
        <time>2012-08-04T13:42:01Z</time>
      </trkpt>
      <trkpt lat="46.16601" lon="8.64759">
        <ele>522.13</ele>
        <time>2012-08-04T13:42:02Z</time>
      </trkpt>
      <trkpt lat="46.16591" lon="8.64756">
        <ele>522.13</ele>
        <time>2012-08-04T13:42:03Z</time>
      </trkpt>
      <trkpt lat="46.16581" lon="8.64751">
        <ele>522.13</ele>
        <time>2012-08-04T13:42:04Z</time>
      </trkpt>
      <trkpt lat="46.16562" lon="8.64739">
        <ele>522.13</ele>
        <time>2012-08-04T13:42:06Z</time>
      </trkpt>
      <trkpt lat="46.16553" lon="8.64736">
        <ele>522.13</ele>
        <time>2012-08-04T13:42:07Z</time>
      </trkpt>
      <trkpt lat="46.16544" lon="8.64734">
        <ele>522.13</ele>
        <time>2012-08-04T13:42:08Z</time>
      </trkpt>
      <trkpt lat="46.16535" lon="8.6473">
        <ele>522.13</ele>
        <time>2012-08-04T13:42:09Z</time>
      </trkpt>
      <trkpt lat="46.16526" lon="8.64726">
        <ele>522.61</ele>
        <time>2012-08-04T13:42:10Z</time>
      </trkpt>
      <trkpt lat="46.16518" lon="8.64719">
        <ele>523.09</ele>
        <time>2012-08-04T13:42:11Z</time>
      </trkpt>
      <trkpt lat="46.16511" lon="8.64708">
        <ele>523.09</ele>
        <time>2012-08-04T13:42:12Z</time>
      </trkpt>
      <trkpt lat="46.16505" lon="8.64697">
        <ele>523.09</ele>
        <time>2012-08-04T13:42:13Z</time>
      </trkpt>
      <trkpt lat="46.16479" lon="8.64632">
        <ele>523.58</ele>
        <time>2012-08-04T13:42:18Z</time>
      </trkpt>
      <trkpt lat="46.16475" lon="8.64618">
        <ele>523.58</ele>
        <time>2012-08-04T13:42:19Z</time>
      </trkpt>
      <trkpt lat="46.16473" lon="8.64605">
        <ele>523.58</ele>
        <time>2012-08-04T13:42:20Z</time>
      </trkpt>
      <trkpt lat="46.16469" lon="8.64568">
        <ele>523.58</ele>
        <time>2012-08-04T13:42:23Z</time>
      </trkpt>
      <trkpt lat="46.16465" lon="8.64559">
        <ele>524.06</ele>
        <time>2012-08-04T13:42:24Z</time>
      </trkpt>
      <trkpt lat="46.16458" lon="8.64552">
        <ele>524.06</ele>
        <time>2012-08-04T13:42:25Z</time>
      </trkpt>
      <trkpt lat="46.16439" lon="8.64536">
        <ele>525.02</ele>
        <time>2012-08-04T13:42:27Z</time>
      </trkpt>
      <trkpt lat="46.1643" lon="8.64523">
        <ele>525.02</ele>
        <time>2012-08-04T13:42:28Z</time>
      </trkpt>
      <trkpt lat="46.16416" lon="8.645">
        <ele>525.02</ele>
        <time>2012-08-04T13:42:30Z</time>
      </trkpt>
      <trkpt lat="46.16408" lon="8.64491">
        <ele>525.02</ele>
        <time>2012-08-04T13:42:31Z</time>
      </trkpt>
      <trkpt lat="46.16399" lon="8.64483">
        <ele>525.02</ele>
        <time>2012-08-04T13:42:32Z</time>
      </trkpt>
      <trkpt lat="46.16392" lon="8.64476">
        <ele>524.54</ele>
        <time>2012-08-04T13:42:33Z</time>
      </trkpt>
      <trkpt lat="46.16386" lon="8.64469">
        <ele>524.06</ele>
        <time>2012-08-04T13:42:34Z</time>
      </trkpt>
      <trkpt lat="46.16382" lon="8.64461">
        <ele>524.06</ele>
        <time>2012-08-04T13:42:35Z</time>
      </trkpt>
      <trkpt lat="46.16382" lon="8.64451">
        <ele>524.06</ele>
        <time>2012-08-04T13:42:36Z</time>
      </trkpt>
      <trkpt lat="46.16385" lon="8.64442">
        <ele>524.06</ele>
        <time>2012-08-04T13:42:37Z</time>
      </trkpt>
      <trkpt lat="46.1639" lon="8.64434">
        <ele>524.06</ele>
        <time>2012-08-04T13:42:38Z</time>
      </trkpt>
      <trkpt lat="46.16394" lon="8.64426">
        <ele>523.58</ele>
        <time>2012-08-04T13:42:39Z</time>
      </trkpt>
      <trkpt lat="46.16398" lon="8.64416">
        <ele>524.06</ele>
        <time>2012-08-04T13:42:40Z</time>
      </trkpt>
      <trkpt lat="46.16401" lon="8.64406">
        <ele>524.06</ele>
        <time>2012-08-04T13:42:41Z</time>
      </trkpt>
      <trkpt lat="46.16403" lon="8.64395">
        <ele>523.58</ele>
        <time>2012-08-04T13:42:42Z</time>
      </trkpt>
      <trkpt lat="46.16404" lon="8.64385">
        <ele>523.09</ele>
        <time>2012-08-04T13:42:43Z</time>
      </trkpt>
      <trkpt lat="46.16406" lon="8.64376">
        <ele>523.09</ele>
        <time>2012-08-04T13:42:44Z</time>
      </trkpt>
      <trkpt lat="46.16408" lon="8.64367">
        <ele>522.61</ele>
        <time>2012-08-04T13:42:45Z</time>
      </trkpt>
      <trkpt lat="46.16408" lon="8.64358">
        <ele>522.61</ele>
        <time>2012-08-04T13:42:46Z</time>
      </trkpt>
      <trkpt lat="46.16408" lon="8.6435">
        <ele>523.09</ele>
        <time>2012-08-04T13:42:47Z</time>
      </trkpt>
      <trkpt lat="46.16407" lon="8.64344">
        <ele>523.09</ele>
        <time>2012-08-04T13:42:48Z</time>
      </trkpt>
      <trkpt lat="46.16403" lon="8.6434">
        <ele>523.09</ele>
        <time>2012-08-04T13:42:49Z</time>
      </trkpt>
      <trkpt lat="46.16399" lon="8.6434">
        <ele>522.61</ele>
        <time>2012-08-04T13:42:50Z</time>
      </trkpt>
      <trkpt lat="46.16392" lon="8.64341">
        <ele>522.61</ele>
        <time>2012-08-04T13:42:51Z</time>
      </trkpt>
      <trkpt lat="46.16376" lon="8.64346">
        <ele>522.13</ele>
        <time>2012-08-04T13:42:53Z</time>
      </trkpt>
      <trkpt lat="46.16368" lon="8.64347">
        <ele>522.13</ele>
        <time>2012-08-04T13:42:54Z</time>
      </trkpt>
      <trkpt lat="46.16358" lon="8.64345">
        <ele>522.61</ele>
        <time>2012-08-04T13:42:55Z</time>
      </trkpt>
      <trkpt lat="46.16319" lon="8.64333">
        <ele>521.65</ele>
        <time>2012-08-04T13:42:59Z</time>
      </trkpt>
      <trkpt lat="46.16313" lon="8.64327">
        <ele>521.65</ele>
        <time>2012-08-04T13:43:00Z</time>
      </trkpt>
      <trkpt lat="46.16309" lon="8.64319">
        <ele>521.65</ele>
        <time>2012-08-04T13:43:01Z</time>
      </trkpt>
      <trkpt lat="46.16309" lon="8.64308">
        <ele>521.65</ele>
        <time>2012-08-04T13:43:02Z</time>
      </trkpt>
      <trkpt lat="46.16311" lon="8.64297">
        <ele>521.65</ele>
        <time>2012-08-04T13:43:03Z</time>
      </trkpt>
      <trkpt lat="46.16314" lon="8.64286">
        <ele>521.65</ele>
        <time>2012-08-04T13:43:04Z</time>
      </trkpt>
      <trkpt lat="46.16317" lon="8.64275">
        <ele>521.65</ele>
        <time>2012-08-04T13:43:05Z</time>
      </trkpt>
      <trkpt lat="46.1633" lon="8.64233">
        <ele>520.69</ele>
        <time>2012-08-04T13:43:09Z</time>
      </trkpt>
      <trkpt lat="46.1633" lon="8.64223">
        <ele>520.21</ele>
        <time>2012-08-04T13:43:10Z</time>
      </trkpt>
      <trkpt lat="46.16328" lon="8.64214">
        <ele>520.69</ele>
        <time>2012-08-04T13:43:11Z</time>
      </trkpt>
      <trkpt lat="46.16324" lon="8.64207">
        <ele>520.21</ele>
        <time>2012-08-04T13:43:12Z</time>
      </trkpt>
      <trkpt lat="46.16317" lon="8.64203">
        <ele>520.21</ele>
        <time>2012-08-04T13:43:13Z</time>
      </trkpt>
      <trkpt lat="46.1631" lon="8.64203">
        <ele>521.17</ele>
        <time>2012-08-04T13:43:14Z</time>
      </trkpt>
      <trkpt lat="46.16301" lon="8.64205">
        <ele>521.17</ele>
        <time>2012-08-04T13:43:15Z</time>
      </trkpt>
      <trkpt lat="46.16284" lon="8.64214">
        <ele>520.21</ele>
        <time>2012-08-04T13:43:17Z</time>
      </trkpt>
      <trkpt lat="46.16275" lon="8.64216">
        <ele>520.21</ele>
        <time>2012-08-04T13:43:18Z</time>
      </trkpt>
      <trkpt lat="46.16266" lon="8.64215">
        <ele>519.73</ele>
        <time>2012-08-04T13:43:19Z</time>
      </trkpt>
      <trkpt lat="46.16257" lon="8.64212">
        <ele>519.73</ele>
        <time>2012-08-04T13:43:20Z</time>
      </trkpt>
      <trkpt lat="46.1625" lon="8.64206">
        <ele>518.77</ele>
        <time>2012-08-04T13:43:21Z</time>
      </trkpt>
      <trkpt lat="46.16244" lon="8.64198">
        <ele>518.77</ele>
        <time>2012-08-04T13:43:22Z</time>
      </trkpt>
      <trkpt lat="46.16241" lon="8.64187">
        <ele>518.77</ele>
        <time>2012-08-04T13:43:23Z</time>
      </trkpt>
      <trkpt lat="46.16239" lon="8.64175">
        <ele>519.25</ele>
        <time>2012-08-04T13:43:24Z</time>
      </trkpt>
      <trkpt lat="46.1624" lon="8.64161">
        <ele>517.81</ele>
        <time>2012-08-04T13:43:25Z</time>
      </trkpt>
      <trkpt lat="46.16241" lon="8.64146">
        <ele>518.29</ele>
        <time>2012-08-04T13:43:26Z</time>
      </trkpt>
      <trkpt lat="46.16244" lon="8.6413">
        <ele>517.81</ele>
        <time>2012-08-04T13:43:27Z</time>
      </trkpt>
      <trkpt lat="46.16248" lon="8.64115">
        <ele>518.29</ele>
        <time>2012-08-04T13:43:28Z</time>
      </trkpt>
      <trkpt lat="46.16253" lon="8.64099">
        <ele>517.33</ele>
        <time>2012-08-04T13:43:29Z</time>
      </trkpt>
      <trkpt lat="46.16295" lon="8.63962">
        <ele>513.96</ele>
        <time>2012-08-04T13:43:38Z</time>
      </trkpt>
      <trkpt lat="46.16304" lon="8.63902">
        <ele>511.56</ele>
        <time>2012-08-04T13:43:43Z</time>
      </trkpt>
      <trkpt lat="46.16301" lon="8.63891">
        <ele>511.56</ele>
        <time>2012-08-04T13:43:44Z</time>
      </trkpt>
      <trkpt lat="46.16295" lon="8.63881">
        <ele>511.08</ele>
        <time>2012-08-04T13:43:45Z</time>
      </trkpt>
      <trkpt lat="46.16289" lon="8.63871">
        <ele>511.08</ele>
        <time>2012-08-04T13:43:46Z</time>
      </trkpt>
      <trkpt lat="46.16282" lon="8.63861">
        <ele>511.56</ele>
        <time>2012-08-04T13:43:47Z</time>
      </trkpt>
      <trkpt lat="46.16266" lon="8.63839">
        <ele>510.6</ele>
        <time>2012-08-04T13:43:49Z</time>
      </trkpt>
      <trkpt lat="46.1626" lon="8.63826">
        <ele>510.12</ele>
        <time>2012-08-04T13:43:50Z</time>
      </trkpt>
      <trkpt lat="46.16254" lon="8.63813">
        <ele>510.12</ele>
        <time>2012-08-04T13:43:51Z</time>
      </trkpt>
      <trkpt lat="46.16249" lon="8.63798">
        <ele>509.64</ele>
        <time>2012-08-04T13:43:52Z</time>
      </trkpt>
      <trkpt lat="46.16246" lon="8.63783">
        <ele>509.64</ele>
        <time>2012-08-04T13:43:53Z</time>
      </trkpt>
      <trkpt lat="46.16243" lon="8.63767">
        <ele>509.64</ele>
        <time>2012-08-04T13:43:54Z</time>
      </trkpt>
      <trkpt lat="46.1623" lon="8.63683">
        <ele>507.71</ele>
        <time>2012-08-04T13:43:59Z</time>
      </trkpt>
      <trkpt lat="46.16222" lon="8.63656">
        <ele>507.23</ele>
        <time>2012-08-04T13:44:01Z</time>
      </trkpt>
      <trkpt lat="46.16216" lon="8.63645">
        <ele>506.27</ele>
        <time>2012-08-04T13:44:02Z</time>
      </trkpt>
      <trkpt lat="46.16207" lon="8.63637">
        <ele>506.27</ele>
        <time>2012-08-04T13:44:03Z</time>
      </trkpt>
      <trkpt lat="46.16196" lon="8.6363">
        <ele>506.75</ele>
        <time>2012-08-04T13:44:04Z</time>
      </trkpt>
      <trkpt lat="46.16184" lon="8.63624">
        <ele>506.27</ele>
        <time>2012-08-04T13:44:05Z</time>
      </trkpt>
      <trkpt lat="46.16163" lon="8.6361">
        <ele>504.83</ele>
        <time>2012-08-04T13:44:07Z</time>
      </trkpt>
      <trkpt lat="46.16154" lon="8.63602">
        <ele>504.35</ele>
        <time>2012-08-04T13:44:08Z</time>
      </trkpt>
      <trkpt lat="46.16145" lon="8.63595">
        <ele>503.87</ele>
        <time>2012-08-04T13:44:09Z</time>
      </trkpt>
      <trkpt lat="46.16135" lon="8.6359">
        <ele>503.87</ele>
        <time>2012-08-04T13:44:10Z</time>
      </trkpt>
      <trkpt lat="46.16115" lon="8.63581">
        <ele>502.91</ele>
        <time>2012-08-04T13:44:12Z</time>
      </trkpt>
      <trkpt lat="46.16107" lon="8.63575">
        <ele>502.43</ele>
        <time>2012-08-04T13:44:13Z</time>
      </trkpt>
      <trkpt lat="46.161" lon="8.63567">
        <ele>502.43</ele>
        <time>2012-08-04T13:44:14Z</time>
      </trkpt>
      <trkpt lat="46.16094" lon="8.63556">
        <ele>501.95</ele>
        <time>2012-08-04T13:44:15Z</time>
      </trkpt>
      <trkpt lat="46.16088" lon="8.63544">
        <ele>501.95</ele>
        <time>2012-08-04T13:44:16Z</time>
      </trkpt>
      <trkpt lat="46.16082" lon="8.63531">
        <ele>501.95</ele>
        <time>2012-08-04T13:44:17Z</time>
      </trkpt>
      <trkpt lat="46.16078" lon="8.63516">
        <ele>501.46</ele>
        <time>2012-08-04T13:44:18Z</time>
      </trkpt>
      <trkpt lat="46.16074" lon="8.635">
        <ele>501.46</ele>
        <time>2012-08-04T13:44:19Z</time>
      </trkpt>
      <trkpt lat="46.16071" lon="8.63483">
        <ele>501.46</ele>
        <time>2012-08-04T13:44:20Z</time>
      </trkpt>
      <trkpt lat="46.16067" lon="8.63451">
        <ele>500.5</ele>
        <time>2012-08-04T13:44:22Z</time>
      </trkpt>
      <trkpt lat="46.16067" lon="8.63435">
        <ele>499.54</ele>
        <time>2012-08-04T13:44:23Z</time>
      </trkpt>
      <trkpt lat="46.16069" lon="8.6342">
        <ele>499.54</ele>
        <time>2012-08-04T13:44:24Z</time>
      </trkpt>
      <trkpt lat="46.16072" lon="8.63406">
        <ele>499.06</ele>
        <time>2012-08-04T13:44:25Z</time>
      </trkpt>
      <trkpt lat="46.16076" lon="8.63391">
        <ele>498.58</ele>
        <time>2012-08-04T13:44:26Z</time>
      </trkpt>
      <trkpt lat="46.16081" lon="8.63377">
        <ele>498.1</ele>
        <time>2012-08-04T13:44:27Z</time>
      </trkpt>
      <trkpt lat="46.16087" lon="8.63364">
        <ele>497.62</ele>
        <time>2012-08-04T13:44:28Z</time>
      </trkpt>
      <trkpt lat="46.16093" lon="8.63352">
        <ele>498.1</ele>
        <time>2012-08-04T13:44:29Z</time>
      </trkpt>
      <trkpt lat="46.161" lon="8.6334">
        <ele>498.1</ele>
        <time>2012-08-04T13:44:30Z</time>
      </trkpt>
      <trkpt lat="46.16105" lon="8.63328">
        <ele>497.62</ele>
        <time>2012-08-04T13:44:31Z</time>
      </trkpt>
      <trkpt lat="46.16109" lon="8.63314">
        <ele>497.62</ele>
        <time>2012-08-04T13:44:32Z</time>
      </trkpt>
      <trkpt lat="46.16113" lon="8.63301">
        <ele>497.62</ele>
        <time>2012-08-04T13:44:33Z</time>
      </trkpt>
      <trkpt lat="46.16123" lon="8.63239">
        <ele>497.14</ele>
        <time>2012-08-04T13:44:39Z</time>
      </trkpt>
      <trkpt lat="46.16121" lon="8.63232">
        <ele>497.14</ele>
        <time>2012-08-04T13:44:40Z</time>
      </trkpt>
      <trkpt lat="46.16118" lon="8.63227">
        <ele>496.66</ele>
        <time>2012-08-04T13:44:41Z</time>
      </trkpt>
      <trkpt lat="46.16113" lon="8.63224">
        <ele>497.62</ele>
        <time>2012-08-04T13:44:42Z</time>
      </trkpt>
      <trkpt lat="46.16108" lon="8.6322">
        <ele>498.1</ele>
        <time>2012-08-04T13:44:43Z</time>
      </trkpt>
      <trkpt lat="46.16103" lon="8.63216">
        <ele>498.58</ele>
        <time>2012-08-04T13:44:44Z</time>
      </trkpt>
      <trkpt lat="46.16092" lon="8.63207">
        <ele>498.58</ele>
        <time>2012-08-04T13:44:45Z</time>
      </trkpt>
      <trkpt lat="46.16088" lon="8.63198">
        <ele>499.06</ele>
        <time>2012-08-04T13:44:46Z</time>
      </trkpt>
      <trkpt lat="46.16084" lon="8.63186">
        <ele>499.54</ele>
        <time>2012-08-04T13:44:47Z</time>
      </trkpt>
      <trkpt lat="46.16083" lon="8.63174">
        <ele>500.02</ele>
        <time>2012-08-04T13:44:48Z</time>
      </trkpt>
      <trkpt lat="46.16083" lon="8.63161">
        <ele>500.98</ele>
        <time>2012-08-04T13:44:49Z</time>
      </trkpt>
      <trkpt lat="46.16085" lon="8.63148">
        <ele>501.46</ele>
        <time>2012-08-04T13:44:50Z</time>
      </trkpt>
      <trkpt lat="46.16088" lon="8.63135">
        <ele>501.95</ele>
        <time>2012-08-04T13:44:51Z</time>
      </trkpt>
      <trkpt lat="46.1609" lon="8.63123">
        <ele>502.91</ele>
        <time>2012-08-04T13:44:52Z</time>
      </trkpt>
      <trkpt lat="46.16095" lon="8.63098">
        <ele>504.35</ele>
        <time>2012-08-04T13:44:54Z</time>
      </trkpt>
      <trkpt lat="46.16097" lon="8.63085">
        <ele>504.83</ele>
        <time>2012-08-04T13:44:55Z</time>
      </trkpt>
      <trkpt lat="46.16097" lon="8.63073">
        <ele>505.79</ele>
        <time>2012-08-04T13:44:56Z</time>
      </trkpt>
      <trkpt lat="46.16096" lon="8.6306">
        <ele>506.27</ele>
        <time>2012-08-04T13:44:57Z</time>
      </trkpt>
      <trkpt lat="46.16095" lon="8.63047">
        <ele>506.27</ele>
        <time>2012-08-04T13:44:58Z</time>
      </trkpt>
      <trkpt lat="46.16089" lon="8.63004">
        <ele>508.19</ele>
        <time>2012-08-04T13:45:01Z</time>
      </trkpt>
      <trkpt lat="46.1609" lon="8.62989">
        <ele>509.64</ele>
        <time>2012-08-04T13:45:02Z</time>
      </trkpt>
      <trkpt lat="46.16091" lon="8.62974">
        <ele>510.12</ele>
        <time>2012-08-04T13:45:03Z</time>
      </trkpt>
      <trkpt lat="46.16096" lon="8.6295">
        <ele>511.08</ele>
        <time>2012-08-04T13:45:05Z</time>
      </trkpt>
      <trkpt lat="46.16099" lon="8.62942">
        <ele>511.56</ele>
        <time>2012-08-04T13:45:06Z</time>
      </trkpt>
      <trkpt lat="46.16104" lon="8.62935">
        <ele>512.52</ele>
        <time>2012-08-04T13:45:07Z</time>
      </trkpt>
      <trkpt lat="46.16109" lon="8.62929">
        <ele>512.52</ele>
        <time>2012-08-04T13:45:08Z</time>
      </trkpt>
      <trkpt lat="46.16115" lon="8.62921">
        <ele>513.96</ele>
        <time>2012-08-04T13:45:09Z</time>
      </trkpt>
      <trkpt lat="46.16121" lon="8.62912">
        <ele>513.96</ele>
        <time>2012-08-04T13:45:10Z</time>
      </trkpt>
      <trkpt lat="46.16125" lon="8.62902">
        <ele>514.44</ele>
        <time>2012-08-04T13:45:11Z</time>
      </trkpt>
      <trkpt lat="46.16128" lon="8.62892">
        <ele>514.44</ele>
        <time>2012-08-04T13:45:12Z</time>
      </trkpt>
      <trkpt lat="46.16132" lon="8.62882">
        <ele>514.92</ele>
        <time>2012-08-04T13:45:13Z</time>
      </trkpt>
      <trkpt lat="46.16138" lon="8.62875">
        <ele>515.4</ele>
        <time>2012-08-04T13:45:14Z</time>
      </trkpt>
      <trkpt lat="46.16144" lon="8.6287">
        <ele>515.88</ele>
        <time>2012-08-04T13:45:15Z</time>
      </trkpt>
      <trkpt lat="46.16151" lon="8.62865">
        <ele>516.37</ele>
        <time>2012-08-04T13:45:16Z</time>
      </trkpt>
      <trkpt lat="46.16157" lon="8.62858">
        <ele>516.85</ele>
        <time>2012-08-04T13:45:17Z</time>
      </trkpt>
      <trkpt lat="46.16162" lon="8.6285">
        <ele>516.85</ele>
        <time>2012-08-04T13:45:18Z</time>
      </trkpt>
      <trkpt lat="46.16164" lon="8.62841">
        <ele>516.85</ele>
        <time>2012-08-04T13:45:19Z</time>
      </trkpt>
      <trkpt lat="46.16164" lon="8.62832">
        <ele>517.33</ele>
        <time>2012-08-04T13:45:20Z</time>
      </trkpt>
      <trkpt lat="46.16162" lon="8.62823">
        <ele>517.81</ele>
        <time>2012-08-04T13:45:21Z</time>
      </trkpt>
      <trkpt lat="46.16158" lon="8.62816">
        <ele>518.29</ele>
        <time>2012-08-04T13:45:22Z</time>
      </trkpt>
      <trkpt lat="46.16147" lon="8.62801">
        <ele>519.73</ele>
        <time>2012-08-04T13:45:24Z</time>
      </trkpt>
      <trkpt lat="46.16143" lon="8.62791">
        <ele>519.73</ele>
        <time>2012-08-04T13:45:25Z</time>
      </trkpt>
      <trkpt lat="46.16141" lon="8.6278">
        <ele>520.21</ele>
        <time>2012-08-04T13:45:26Z</time>
      </trkpt>
      <trkpt lat="46.1614" lon="8.62767">
        <ele>521.17</ele>
        <time>2012-08-04T13:45:27Z</time>
      </trkpt>
      <trkpt lat="46.16139" lon="8.62754">
        <ele>521.17</ele>
        <time>2012-08-04T13:45:28Z</time>
      </trkpt>
      <trkpt lat="46.16138" lon="8.62714">
        <ele>522.61</ele>
        <time>2012-08-04T13:45:31Z</time>
      </trkpt>
      <trkpt lat="46.16137" lon="8.62701">
        <ele>522.61</ele>
        <time>2012-08-04T13:45:32Z</time>
      </trkpt>
      <trkpt lat="46.16134" lon="8.62689">
        <ele>522.13</ele>
        <time>2012-08-04T13:45:33Z</time>
      </trkpt>
      <trkpt lat="46.16131" lon="8.62678">
        <ele>522.61</ele>
        <time>2012-08-04T13:45:34Z</time>
      </trkpt>
      <trkpt lat="46.16117" lon="8.62607">
        <ele>522.61</ele>
        <time>2012-08-04T13:45:43Z</time>
      </trkpt>
      <trkpt lat="46.16111" lon="8.62577">
        <ele>522.61</ele>
        <time>2012-08-04T13:45:47Z</time>
      </trkpt>
      <trkpt lat="46.16108" lon="8.62571">
        <ele>522.61</ele>
        <time>2012-08-04T13:45:48Z</time>
      </trkpt>
      <trkpt lat="46.16104" lon="8.62565">
        <ele>523.09</ele>
        <time>2012-08-04T13:45:49Z</time>
      </trkpt>
      <trkpt lat="46.16068" lon="8.62511">
        <ele>524.06</ele>
        <time>2012-08-04T13:45:57Z</time>
      </trkpt>
      <trkpt lat="46.16062" lon="8.62506">
        <ele>524.54</ele>
        <time>2012-08-04T13:45:58Z</time>
      </trkpt>
      <trkpt lat="46.16055" lon="8.62503">
        <ele>524.54</ele>
        <time>2012-08-04T13:45:59Z</time>
      </trkpt>
      <trkpt lat="46.16048" lon="8.62502">
        <ele>525.02</ele>
        <time>2012-08-04T13:46:00Z</time>
      </trkpt>
      <trkpt lat="46.1604" lon="8.62501">
        <ele>525.98</ele>
        <time>2012-08-04T13:46:01Z</time>
      </trkpt>
      <trkpt lat="46.16024" lon="8.62498">
        <ele>526.46</ele>
        <time>2012-08-04T13:46:03Z</time>
      </trkpt>
      <trkpt lat="46.16016" lon="8.62494">
        <ele>526.94</ele>
        <time>2012-08-04T13:46:04Z</time>
      </trkpt>
      <trkpt lat="46.16001" lon="8.62486">
        <ele>526.46</ele>
        <time>2012-08-04T13:46:06Z</time>
      </trkpt>
      <trkpt lat="46.15992" lon="8.62485">
        <ele>527.42</ele>
        <time>2012-08-04T13:46:07Z</time>
      </trkpt>
      <trkpt lat="46.15973" lon="8.62486">
        <ele>528.38</ele>
        <time>2012-08-04T13:46:09Z</time>
      </trkpt>
      <trkpt lat="46.15964" lon="8.62485">
        <ele>528.38</ele>
        <time>2012-08-04T13:46:10Z</time>
      </trkpt>
      <trkpt lat="46.15955" lon="8.62482">
        <ele>528.86</ele>
        <time>2012-08-04T13:46:11Z</time>
      </trkpt>
      <trkpt lat="46.15947" lon="8.62477">
        <ele>528.86</ele>
        <time>2012-08-04T13:46:12Z</time>
      </trkpt>
      <trkpt lat="46.15938" lon="8.6247">
        <ele>529.34</ele>
        <time>2012-08-04T13:46:13Z</time>
      </trkpt>
      <trkpt lat="46.1593" lon="8.62463">
        <ele>529.82</ele>
        <time>2012-08-04T13:46:14Z</time>
      </trkpt>
      <trkpt lat="46.15891" lon="8.62421">
        <ele>530.3</ele>
        <time>2012-08-04T13:46:20Z</time>
      </trkpt>
      <trkpt lat="46.15888" lon="8.62413">
        <ele>530.79</ele>
        <time>2012-08-04T13:46:21Z</time>
      </trkpt>
      <trkpt lat="46.15887" lon="8.62404">
        <ele>531.27</ele>
        <time>2012-08-04T13:46:22Z</time>
      </trkpt>
      <trkpt lat="46.15888" lon="8.62393">
        <ele>531.27</ele>
        <time>2012-08-04T13:46:23Z</time>
      </trkpt>
      <trkpt lat="46.15891" lon="8.62382">
        <ele>531.75</ele>
        <time>2012-08-04T13:46:24Z</time>
      </trkpt>
      <trkpt lat="46.15894" lon="8.62371">
        <ele>531.27</ele>
        <time>2012-08-04T13:46:25Z</time>
      </trkpt>
      <trkpt lat="46.15897" lon="8.62361">
        <ele>531.75</ele>
        <time>2012-08-04T13:46:26Z</time>
      </trkpt>
      <trkpt lat="46.15901" lon="8.6235">
        <ele>531.75</ele>
        <time>2012-08-04T13:46:27Z</time>
      </trkpt>
      <trkpt lat="46.15906" lon="8.6234">
        <ele>532.23</ele>
        <time>2012-08-04T13:46:28Z</time>
      </trkpt>
      <trkpt lat="46.15923" lon="8.62313">
        <ele>531.75</ele>
        <time>2012-08-04T13:46:31Z</time>
      </trkpt>
      <trkpt lat="46.15929" lon="8.62306">
        <ele>532.23</ele>
        <time>2012-08-04T13:46:32Z</time>
      </trkpt>
      <trkpt lat="46.15932" lon="8.62298">
        <ele>531.75</ele>
        <time>2012-08-04T13:46:33Z</time>
      </trkpt>
      <trkpt lat="46.15935" lon="8.6229">
        <ele>532.23</ele>
        <time>2012-08-04T13:46:34Z</time>
      </trkpt>
      <trkpt lat="46.15935" lon="8.62282">
        <ele>531.75</ele>
        <time>2012-08-04T13:46:35Z</time>
      </trkpt>
      <trkpt lat="46.1593" lon="8.62276">
        <ele>531.75</ele>
        <time>2012-08-04T13:46:36Z</time>
      </trkpt>
      <trkpt lat="46.15924" lon="8.6227">
        <ele>532.71</ele>
        <time>2012-08-04T13:46:37Z</time>
      </trkpt>
      <trkpt lat="46.15916" lon="8.62264">
        <ele>532.23</ele>
        <time>2012-08-04T13:46:38Z</time>
      </trkpt>
      <trkpt lat="46.15909" lon="8.62259">
        <ele>532.71</ele>
        <time>2012-08-04T13:46:39Z</time>
      </trkpt>
      <trkpt lat="46.159" lon="8.62254">
        <ele>532.71</ele>
        <time>2012-08-04T13:46:40Z</time>
      </trkpt>
      <trkpt lat="46.15836" lon="8.62211">
        <ele>534.15</ele>
        <time>2012-08-04T13:46:47Z</time>
      </trkpt>
      <trkpt lat="46.15827" lon="8.62202">
        <ele>534.15</ele>
        <time>2012-08-04T13:46:48Z</time>
      </trkpt>
      <trkpt lat="46.15819" lon="8.62192">
        <ele>534.63</ele>
        <time>2012-08-04T13:46:49Z</time>
      </trkpt>
      <trkpt lat="46.15811" lon="8.62179">
        <ele>534.15</ele>
        <time>2012-08-04T13:46:50Z</time>
      </trkpt>
      <trkpt lat="46.15804" lon="8.62166">
        <ele>534.63</ele>
        <time>2012-08-04T13:46:51Z</time>
      </trkpt>
      <trkpt lat="46.15775" lon="8.62117">
        <ele>534.63</ele>
        <time>2012-08-04T13:46:55Z</time>
      </trkpt>
      <trkpt lat="46.15768" lon="8.62108">
        <ele>534.63</ele>
        <time>2012-08-04T13:46:56Z</time>
      </trkpt>
      <trkpt lat="46.15756" lon="8.62093">
        <ele>534.63</ele>
        <time>2012-08-04T13:46:58Z</time>
      </trkpt>
      <trkpt lat="46.15753" lon="8.62084">
        <ele>534.15</ele>
        <time>2012-08-04T13:46:59Z</time>
      </trkpt>
      <trkpt lat="46.15751" lon="8.62061">
        <ele>535.11</ele>
        <time>2012-08-04T13:47:01Z</time>
      </trkpt>
      <trkpt lat="46.15754" lon="8.62047">
        <ele>535.59</ele>
        <time>2012-08-04T13:47:02Z</time>
      </trkpt>
      <trkpt lat="46.15757" lon="8.62031">
        <ele>536.07</ele>
        <time>2012-08-04T13:47:03Z</time>
      </trkpt>
      <trkpt lat="46.15778" lon="8.61957">
        <ele>537.99</ele>
        <time>2012-08-04T13:47:07Z</time>
      </trkpt>
      <trkpt lat="46.158" lon="8.61824">
        <ele>538.48</ele>
        <time>2012-08-04T13:47:14Z</time>
      </trkpt>
      <trkpt lat="46.15806" lon="8.61753">
        <ele>539.44</ele>
        <time>2012-08-04T13:47:18Z</time>
      </trkpt>
      <trkpt lat="46.15806" lon="8.61736">
        <ele>539.44</ele>
        <time>2012-08-04T13:47:19Z</time>
      </trkpt>
      <trkpt lat="46.15807" lon="8.61706">
        <ele>539.44</ele>
        <time>2012-08-04T13:47:21Z</time>
      </trkpt>
      <trkpt lat="46.15808" lon="8.61693">
        <ele>539.44</ele>
        <time>2012-08-04T13:47:22Z</time>
      </trkpt>
      <trkpt lat="46.15806" lon="8.61681">
        <ele>539.44</ele>
        <time>2012-08-04T13:47:23Z</time>
      </trkpt>
      <trkpt lat="46.15803" lon="8.6167">
        <ele>539.92</ele>
        <time>2012-08-04T13:47:24Z</time>
      </trkpt>
      <trkpt lat="46.15798" lon="8.61659">
        <ele>540.4</ele>
        <time>2012-08-04T13:47:25Z</time>
      </trkpt>
      <trkpt lat="46.15788" lon="8.61637">
        <ele>540.4</ele>
        <time>2012-08-04T13:47:27Z</time>
      </trkpt>
      <trkpt lat="46.15784" lon="8.61624">
        <ele>541.36</ele>
        <time>2012-08-04T13:47:28Z</time>
      </trkpt>
      <trkpt lat="46.15781" lon="8.6161">
        <ele>541.36</ele>
        <time>2012-08-04T13:47:29Z</time>
      </trkpt>
      <trkpt lat="46.15777" lon="8.61597">
        <ele>541.84</ele>
        <time>2012-08-04T13:47:30Z</time>
      </trkpt>
      <trkpt lat="46.15771" lon="8.61585">
        <ele>541.84</ele>
        <time>2012-08-04T13:47:31Z</time>
      </trkpt>
      <trkpt lat="46.15764" lon="8.61574">
        <ele>542.32</ele>
        <time>2012-08-04T13:47:32Z</time>
      </trkpt>
      <trkpt lat="46.15745" lon="8.61541">
        <ele>542.32</ele>
        <time>2012-08-04T13:47:35Z</time>
      </trkpt>
      <trkpt lat="46.1574" lon="8.61528">
        <ele>542.8</ele>
        <time>2012-08-04T13:47:36Z</time>
      </trkpt>
      <trkpt lat="46.15737" lon="8.61515">
        <ele>543.28</ele>
        <time>2012-08-04T13:47:37Z</time>
      </trkpt>
      <trkpt lat="46.15723" lon="8.61457">
        <ele>544.72</ele>
        <time>2012-08-04T13:47:41Z</time>
      </trkpt>
      <trkpt lat="46.15713" lon="8.61413">
        <ele>545.2</ele>
        <time>2012-08-04T13:47:44Z</time>
      </trkpt>
      <trkpt lat="46.15709" lon="8.614">
        <ele>544.72</ele>
        <time>2012-08-04T13:47:45Z</time>
      </trkpt>
      <trkpt lat="46.15697" lon="8.61366">
        <ele>545.69</ele>
        <time>2012-08-04T13:47:48Z</time>
      </trkpt>
      <trkpt lat="46.15695" lon="8.61354">
        <ele>546.17</ele>
        <time>2012-08-04T13:47:49Z</time>
      </trkpt>
      <trkpt lat="46.15696" lon="8.61341">
        <ele>546.17</ele>
        <time>2012-08-04T13:47:50Z</time>
      </trkpt>
      <trkpt lat="46.15705" lon="8.61283">
        <ele>547.13</ele>
        <time>2012-08-04T13:47:55Z</time>
      </trkpt>
      <trkpt lat="46.15702" lon="8.61272">
        <ele>548.09</ele>
        <time>2012-08-04T13:47:56Z</time>
      </trkpt>
      <trkpt lat="46.15698" lon="8.61262">
        <ele>548.09</ele>
        <time>2012-08-04T13:47:57Z</time>
      </trkpt>
      <trkpt lat="46.15696" lon="8.61252">
        <ele>547.61</ele>
        <time>2012-08-04T13:47:58Z</time>
      </trkpt>
      <trkpt lat="46.15694" lon="8.61242">
        <ele>548.09</ele>
        <time>2012-08-04T13:47:59Z</time>
      </trkpt>
      <trkpt lat="46.15695" lon="8.61231">
        <ele>548.57</ele>
        <time>2012-08-04T13:48:00Z</time>
      </trkpt>
      <trkpt lat="46.15696" lon="8.61222">
        <ele>549.05</ele>
        <time>2012-08-04T13:48:01Z</time>
      </trkpt>
      <trkpt lat="46.15696" lon="8.61213">
        <ele>549.05</ele>
        <time>2012-08-04T13:48:02Z</time>
      </trkpt>
      <trkpt lat="46.15696" lon="8.61204">
        <ele>549.05</ele>
        <time>2012-08-04T13:48:03Z</time>
      </trkpt>
      <trkpt lat="46.15693" lon="8.61196">
        <ele>549.53</ele>
        <time>2012-08-04T13:48:04Z</time>
      </trkpt>
      <trkpt lat="46.15688" lon="8.61191">
        <ele>550.01</ele>
        <time>2012-08-04T13:48:05Z</time>
      </trkpt>
      <trkpt lat="46.15681" lon="8.61187">
        <ele>550.49</ele>
        <time>2012-08-04T13:48:06Z</time>
      </trkpt>
      <trkpt lat="46.15673" lon="8.61185">
        <ele>550.97</ele>
        <time>2012-08-04T13:48:07Z</time>
      </trkpt>
      <trkpt lat="46.15665" lon="8.61184">
        <ele>550.97</ele>
        <time>2012-08-04T13:48:08Z</time>
      </trkpt>
      <trkpt lat="46.15656" lon="8.61185">
        <ele>550.97</ele>
        <time>2012-08-04T13:48:09Z</time>
      </trkpt>
      <trkpt lat="46.15648" lon="8.61188">
        <ele>551.45</ele>
        <time>2012-08-04T13:48:10Z</time>
      </trkpt>
      <trkpt lat="46.15639" lon="8.6119">
        <ele>550.97</ele>
        <time>2012-08-04T13:48:11Z</time>
      </trkpt>
      <trkpt lat="46.1563" lon="8.61191">
        <ele>550.97</ele>
        <time>2012-08-04T13:48:12Z</time>
      </trkpt>
      <trkpt lat="46.15621" lon="8.61192">
        <ele>550.97</ele>
        <time>2012-08-04T13:48:13Z</time>
      </trkpt>
      <trkpt lat="46.15567" lon="8.6119">
        <ele>550.49</ele>
        <time>2012-08-04T13:48:19Z</time>
      </trkpt>
      <trkpt lat="46.1556" lon="8.61185">
        <ele>550.01</ele>
        <time>2012-08-04T13:48:20Z</time>
      </trkpt>
      <trkpt lat="46.15555" lon="8.61177">
        <ele>550.49</ele>
        <time>2012-08-04T13:48:21Z</time>
      </trkpt>
      <trkpt lat="46.15552" lon="8.61167">
        <ele>550.49</ele>
        <time>2012-08-04T13:48:22Z</time>
      </trkpt>
      <trkpt lat="46.15552" lon="8.61156">
        <ele>550.49</ele>
        <time>2012-08-04T13:48:23Z</time>
      </trkpt>
      <trkpt lat="46.15553" lon="8.61144">
        <ele>550.49</ele>
        <time>2012-08-04T13:48:24Z</time>
      </trkpt>
      <trkpt lat="46.15555" lon="8.61131">
        <ele>550.49</ele>
        <time>2012-08-04T13:48:25Z</time>
      </trkpt>
      <trkpt lat="46.1556" lon="8.61051">
        <ele>549.53</ele>
        <time>2012-08-04T13:48:31Z</time>
      </trkpt>
      <trkpt lat="46.15558" lon="8.61041">
        <ele>549.53</ele>
        <time>2012-08-04T13:48:32Z</time>
      </trkpt>
      <trkpt lat="46.15555" lon="8.61032">
        <ele>549.05</ele>
        <time>2012-08-04T13:48:33Z</time>
      </trkpt>
      <trkpt lat="46.15552" lon="8.61025">
        <ele>548.57</ele>
        <time>2012-08-04T13:48:34Z</time>
      </trkpt>
      <trkpt lat="46.15548" lon="8.61019">
        <ele>548.09</ele>
        <time>2012-08-04T13:48:35Z</time>
      </trkpt>
      <trkpt lat="46.15527" lon="8.6099">
        <ele>548.09</ele>
        <time>2012-08-04T13:48:40Z</time>
      </trkpt>
      <trkpt lat="46.15523" lon="8.60982">
        <ele>548.09</ele>
        <time>2012-08-04T13:48:41Z</time>
      </trkpt>
      <trkpt lat="46.15518" lon="8.60971">
        <ele>548.09</ele>
        <time>2012-08-04T13:48:42Z</time>
      </trkpt>
      <trkpt lat="46.15514" lon="8.6096">
        <ele>548.09</ele>
        <time>2012-08-04T13:48:43Z</time>
      </trkpt>
      <trkpt lat="46.1551" lon="8.60949">
        <ele>547.61</ele>
        <time>2012-08-04T13:48:44Z</time>
      </trkpt>
      <trkpt lat="46.15488" lon="8.60884">
        <ele>546.65</ele>
        <time>2012-08-04T13:48:50Z</time>
      </trkpt>
      <trkpt lat="46.15486" lon="8.60875">
        <ele>546.17</ele>
        <time>2012-08-04T13:48:51Z</time>
      </trkpt>
      <trkpt lat="46.15486" lon="8.60865">
        <ele>545.2</ele>
        <time>2012-08-04T13:48:52Z</time>
      </trkpt>
      <trkpt lat="46.15488" lon="8.60856">
        <ele>545.2</ele>
        <time>2012-08-04T13:48:53Z</time>
      </trkpt>
      <trkpt lat="46.15491" lon="8.60847">
        <ele>545.2</ele>
        <time>2012-08-04T13:48:54Z</time>
      </trkpt>
      <trkpt lat="46.15493" lon="8.60837">
        <ele>544.72</ele>
        <time>2012-08-04T13:48:55Z</time>
      </trkpt>
      <trkpt lat="46.15491" lon="8.60827">
        <ele>544.72</ele>
        <time>2012-08-04T13:48:56Z</time>
      </trkpt>
      <trkpt lat="46.15488" lon="8.60816">
        <ele>544.72</ele>
        <time>2012-08-04T13:48:57Z</time>
      </trkpt>
      <trkpt lat="46.15484" lon="8.60803">
        <ele>544.72</ele>
        <time>2012-08-04T13:48:58Z</time>
      </trkpt>
      <trkpt lat="46.1547" lon="8.60767">
        <ele>542.8</ele>
        <time>2012-08-04T13:49:01Z</time>
      </trkpt>
      <trkpt lat="46.15468" lon="8.60755">
        <ele>542.32</ele>
        <time>2012-08-04T13:49:02Z</time>
      </trkpt>
      <trkpt lat="46.15468" lon="8.60745">
        <ele>542.32</ele>
        <time>2012-08-04T13:49:03Z</time>
      </trkpt>
      <trkpt lat="46.15472" lon="8.60727">
        <ele>541.36</ele>
        <time>2012-08-04T13:49:05Z</time>
      </trkpt>
      <trkpt lat="46.15477" lon="8.6072">
        <ele>540.88</ele>
        <time>2012-08-04T13:49:06Z</time>
      </trkpt>
      <trkpt lat="46.15484" lon="8.60717">
        <ele>539.92</ele>
        <time>2012-08-04T13:49:07Z</time>
      </trkpt>
      <trkpt lat="46.15491" lon="8.60715">
        <ele>539.92</ele>
        <time>2012-08-04T13:49:08Z</time>
      </trkpt>
      <trkpt lat="46.15497" lon="8.60709">
        <ele>539.92</ele>
        <time>2012-08-04T13:49:09Z</time>
      </trkpt>
      <trkpt lat="46.15502" lon="8.60702">
        <ele>539.44</ele>
        <time>2012-08-04T13:49:10Z</time>
      </trkpt>
      <trkpt lat="46.15504" lon="8.60692">
        <ele>538.96</ele>
        <time>2012-08-04T13:49:11Z</time>
      </trkpt>
      <trkpt lat="46.15504" lon="8.60682">
        <ele>538.96</ele>
        <time>2012-08-04T13:49:12Z</time>
      </trkpt>
      <trkpt lat="46.15501" lon="8.6067">
        <ele>538.96</ele>
        <time>2012-08-04T13:49:13Z</time>
      </trkpt>
      <trkpt lat="46.15494" lon="8.60657">
        <ele>538.48</ele>
        <time>2012-08-04T13:49:14Z</time>
      </trkpt>
      <trkpt lat="46.15446" lon="8.60569">
        <ele>535.11</ele>
        <time>2012-08-04T13:49:21Z</time>
      </trkpt>
      <trkpt lat="46.15431" lon="8.6052">
        <ele>532.71</ele>
        <time>2012-08-04T13:49:26Z</time>
      </trkpt>
      <trkpt lat="46.15418" lon="8.6046">
        <ele>530.3</ele>
        <time>2012-08-04T13:49:36Z</time>
      </trkpt>
      <trkpt lat="46.15418" lon="8.60452">
        <ele>530.3</ele>
        <time>2012-08-04T13:49:44Z</time>
      </trkpt>
      <trkpt lat="46.15416" lon="8.60452">
        <ele>530.3</ele>
        <time>2012-08-04T13:50:17Z</time>
      </trkpt>
      <trkpt lat="46.15416" lon="8.60446">
        <ele>530.3</ele>
        <time>2012-08-04T13:50:44Z</time>
      </trkpt>
      <trkpt lat="46.15417" lon="8.60439">
        <ele>530.3</ele>
        <time>2012-08-04T13:50:45Z</time>
      </trkpt>
      <trkpt lat="46.15418" lon="8.60431">
        <ele>530.79</ele>
        <time>2012-08-04T13:50:46Z</time>
      </trkpt>
      <trkpt lat="46.15421" lon="8.60424">
        <ele>530.3</ele>
        <time>2012-08-04T13:50:47Z</time>
      </trkpt>
      <trkpt lat="46.15423" lon="8.60418">
        <ele>529.82</ele>
        <time>2012-08-04T13:50:48Z</time>
      </trkpt>
      <trkpt lat="46.15427" lon="8.60413">
        <ele>529.82</ele>
        <time>2012-08-04T13:50:49Z</time>
      </trkpt>
      <trkpt lat="46.1543" lon="8.60408">
        <ele>529.82</ele>
        <time>2012-08-04T13:50:50Z</time>
      </trkpt>
      <trkpt lat="46.15435" lon="8.60402">
        <ele>529.82</ele>
        <time>2012-08-04T13:50:51Z</time>
      </trkpt>
      <trkpt lat="46.15441" lon="8.60396">
        <ele>529.82</ele>
        <time>2012-08-04T13:50:52Z</time>
      </trkpt>
      <trkpt lat="46.15446" lon="8.60391">
        <ele>529.34</ele>
        <time>2012-08-04T13:50:53Z</time>
      </trkpt>
      <trkpt lat="46.15457" lon="8.60382">
        <ele>528.38</ele>
        <time>2012-08-04T13:50:55Z</time>
      </trkpt>
      <trkpt lat="46.15461" lon="8.60377">
        <ele>528.38</ele>
        <time>2012-08-04T13:50:56Z</time>
      </trkpt>
      <trkpt lat="46.15464" lon="8.6037">
        <ele>528.38</ele>
        <time>2012-08-04T13:50:57Z</time>
      </trkpt>
      <trkpt lat="46.1549" lon="8.60272">
        <ele>528.86</ele>
        <time>2012-08-04T13:51:06Z</time>
      </trkpt>
      <trkpt lat="46.15495" lon="8.60253">
        <ele>528.86</ele>
        <time>2012-08-04T13:51:08Z</time>
      </trkpt>
      <trkpt lat="46.15495" lon="8.60245">
        <ele>528.38</ele>
        <time>2012-08-04T13:51:09Z</time>
      </trkpt>
      <trkpt lat="46.15494" lon="8.60237">
        <ele>528.38</ele>
        <time>2012-08-04T13:51:10Z</time>
      </trkpt>
      <trkpt lat="46.15491" lon="8.6023">
        <ele>527.9</ele>
        <time>2012-08-04T13:51:11Z</time>
      </trkpt>
      <trkpt lat="46.15487" lon="8.60223">
        <ele>528.38</ele>
        <time>2012-08-04T13:51:12Z</time>
      </trkpt>
      <trkpt lat="46.15482" lon="8.60219">
        <ele>527.9</ele>
        <time>2012-08-04T13:51:13Z</time>
      </trkpt>
      <trkpt lat="46.15476" lon="8.60216">
        <ele>528.38</ele>
        <time>2012-08-04T13:51:14Z</time>
      </trkpt>
      <trkpt lat="46.15471" lon="8.60213">
        <ele>528.86</ele>
        <time>2012-08-04T13:51:15Z</time>
      </trkpt>
      <trkpt lat="46.15459" lon="8.60209">
        <ele>529.34</ele>
        <time>2012-08-04T13:51:17Z</time>
      </trkpt>
      <trkpt lat="46.15453" lon="8.60205">
        <ele>529.82</ele>
        <time>2012-08-04T13:51:18Z</time>
      </trkpt>
      <trkpt lat="46.15446" lon="8.602">
        <ele>529.82</ele>
        <time>2012-08-04T13:51:19Z</time>
      </trkpt>
      <trkpt lat="46.15441" lon="8.60194">
        <ele>530.79</ele>
        <time>2012-08-04T13:51:20Z</time>
      </trkpt>
      <trkpt lat="46.15436" lon="8.60185">
        <ele>531.27</ele>
        <time>2012-08-04T13:51:21Z</time>
      </trkpt>
      <trkpt lat="46.15433" lon="8.60174">
        <ele>531.27</ele>
        <time>2012-08-04T13:51:22Z</time>
      </trkpt>
      <trkpt lat="46.15431" lon="8.60162">
        <ele>532.71</ele>
        <time>2012-08-04T13:51:23Z</time>
      </trkpt>
      <trkpt lat="46.15429" lon="8.60148">
        <ele>533.67</ele>
        <time>2012-08-04T13:51:24Z</time>
      </trkpt>
      <trkpt lat="46.15424" lon="8.60102">
        <ele>535.59</ele>
        <time>2012-08-04T13:51:27Z</time>
      </trkpt>
      <trkpt lat="46.15419" lon="8.60058">
        <ele>537.51</ele>
        <time>2012-08-04T13:51:30Z</time>
      </trkpt>
      <trkpt lat="46.15419" lon="8.60044">
        <ele>537.51</ele>
        <time>2012-08-04T13:51:31Z</time>
      </trkpt>
      <trkpt lat="46.15421" lon="8.60007">
        <ele>538.48</ele>
        <time>2012-08-04T13:51:34Z</time>
      </trkpt>
      <trkpt lat="46.15418" lon="8.59997">
        <ele>538.96</ele>
        <time>2012-08-04T13:51:35Z</time>
      </trkpt>
      <trkpt lat="46.15415" lon="8.59987">
        <ele>539.44</ele>
        <time>2012-08-04T13:51:36Z</time>
      </trkpt>
      <trkpt lat="46.1541" lon="8.59977">
        <ele>539.92</ele>
        <time>2012-08-04T13:51:37Z</time>
      </trkpt>
      <trkpt lat="46.15403" lon="8.59968">
        <ele>540.4</ele>
        <time>2012-08-04T13:51:38Z</time>
      </trkpt>
      <trkpt lat="46.15393" lon="8.5996">
        <ele>540.88</ele>
        <time>2012-08-04T13:51:39Z</time>
      </trkpt>
      <trkpt lat="46.15382" lon="8.59953">
        <ele>540.88</ele>
        <time>2012-08-04T13:51:40Z</time>
      </trkpt>
      <trkpt lat="46.15371" lon="8.59948">
        <ele>542.8</ele>
        <time>2012-08-04T13:51:41Z</time>
      </trkpt>
      <trkpt lat="46.15314" lon="8.59907">
        <ele>545.69</ele>
        <time>2012-08-04T13:51:46Z</time>
      </trkpt>
      <trkpt lat="46.15247" lon="8.59852">
        <ele>545.69</ele>
        <time>2012-08-04T13:51:52Z</time>
      </trkpt>
      <trkpt lat="46.15237" lon="8.59848">
        <ele>545.69</ele>
        <time>2012-08-04T13:51:53Z</time>
      </trkpt>
      <trkpt lat="46.15225" lon="8.59848">
        <ele>546.17</ele>
        <time>2012-08-04T13:51:54Z</time>
      </trkpt>
      <trkpt lat="46.15214" lon="8.5985">
        <ele>547.13</ele>
        <time>2012-08-04T13:51:55Z</time>
      </trkpt>
      <trkpt lat="46.15201" lon="8.59853">
        <ele>548.09</ele>
        <time>2012-08-04T13:51:56Z</time>
      </trkpt>
      <trkpt lat="46.15188" lon="8.59856">
        <ele>548.57</ele>
        <time>2012-08-04T13:51:57Z</time>
      </trkpt>
      <trkpt lat="46.15177" lon="8.59858">
        <ele>548.57</ele>
        <time>2012-08-04T13:51:58Z</time>
      </trkpt>
      <trkpt lat="46.15154" lon="8.59861">
        <ele>549.53</ele>
        <time>2012-08-04T13:52:00Z</time>
      </trkpt>
      <trkpt lat="46.15142" lon="8.59866">
        <ele>550.49</ele>
        <time>2012-08-04T13:52:01Z</time>
      </trkpt>
      <trkpt lat="46.15129" lon="8.59871">
        <ele>551.45</ele>
        <time>2012-08-04T13:52:02Z</time>
      </trkpt>
      <trkpt lat="46.1509" lon="8.59885">
        <ele>552.9</ele>
        <time>2012-08-04T13:52:05Z</time>
      </trkpt>
      <trkpt lat="46.15063" lon="8.599">
        <ele>552.41</ele>
        <time>2012-08-04T13:52:08Z</time>
      </trkpt>
      <trkpt lat="46.15056" lon="8.59901">
        <ele>552.9</ele>
        <time>2012-08-04T13:52:09Z</time>
      </trkpt>
      <trkpt lat="46.1505" lon="8.599">
        <ele>553.38</ele>
        <time>2012-08-04T13:52:10Z</time>
      </trkpt>
      <trkpt lat="46.15044" lon="8.59895">
        <ele>554.34</ele>
        <time>2012-08-04T13:52:11Z</time>
      </trkpt>
      <trkpt lat="46.15029" lon="8.59883">
        <ele>554.82</ele>
        <time>2012-08-04T13:52:13Z</time>
      </trkpt>
      <trkpt lat="46.15012" lon="8.59876">
        <ele>555.78</ele>
        <time>2012-08-04T13:52:15Z</time>
      </trkpt>
      <trkpt lat="46.15007" lon="8.59871">
        <ele>556.26</ele>
        <time>2012-08-04T13:52:16Z</time>
      </trkpt>
      <trkpt lat="46.15003" lon="8.59863">
        <ele>556.26</ele>
        <time>2012-08-04T13:52:17Z</time>
      </trkpt>
      <trkpt lat="46.15002" lon="8.59852">
        <ele>557.22</ele>
        <time>2012-08-04T13:52:18Z</time>
      </trkpt>
      <trkpt lat="46.15004" lon="8.5984">
        <ele>558.18</ele>
        <time>2012-08-04T13:52:19Z</time>
      </trkpt>
      <trkpt lat="46.15006" lon="8.59826">
        <ele>558.66</ele>
        <time>2012-08-04T13:52:20Z</time>
      </trkpt>
      <trkpt lat="46.15007" lon="8.5981">
        <ele>559.62</ele>
        <time>2012-08-04T13:52:21Z</time>
      </trkpt>
      <trkpt lat="46.15006" lon="8.59791">
        <ele>561.07</ele>
        <time>2012-08-04T13:52:22Z</time>
      </trkpt>
      <trkpt lat="46.14998" lon="8.59718">
        <ele>561.07</ele>
        <time>2012-08-04T13:52:26Z</time>
      </trkpt>
      <trkpt lat="46.14994" lon="8.59703">
        <ele>561.07</ele>
        <time>2012-08-04T13:52:27Z</time>
      </trkpt>
      <trkpt lat="46.14987" lon="8.59689">
        <ele>561.07</ele>
        <time>2012-08-04T13:52:28Z</time>
      </trkpt>
      <trkpt lat="46.14978" lon="8.59677">
        <ele>561.55</ele>
        <time>2012-08-04T13:52:29Z</time>
      </trkpt>
      <trkpt lat="46.14959" lon="8.59654">
        <ele>562.03</ele>
        <time>2012-08-04T13:52:31Z</time>
      </trkpt>
      <trkpt lat="46.14952" lon="8.59641">
        <ele>562.51</ele>
        <time>2012-08-04T13:52:32Z</time>
      </trkpt>
      <trkpt lat="46.14945" lon="8.59626">
        <ele>562.99</ele>
        <time>2012-08-04T13:52:33Z</time>
      </trkpt>
      <trkpt lat="46.14941" lon="8.59609">
        <ele>563.95</ele>
        <time>2012-08-04T13:52:34Z</time>
      </trkpt>
      <trkpt lat="46.14935" lon="8.59577">
        <ele>563.47</ele>
        <time>2012-08-04T13:52:36Z</time>
      </trkpt>
      <trkpt lat="46.1493" lon="8.59565">
        <ele>563.95</ele>
        <time>2012-08-04T13:52:37Z</time>
      </trkpt>
      <trkpt lat="46.14923" lon="8.59556">
        <ele>563.95</ele>
        <time>2012-08-04T13:52:38Z</time>
      </trkpt>
      <trkpt lat="46.14914" lon="8.5955">
        <ele>564.43</ele>
        <time>2012-08-04T13:52:39Z</time>
      </trkpt>
      <trkpt lat="46.14899" lon="8.59541">
        <ele>564.43</ele>
        <time>2012-08-04T13:52:41Z</time>
      </trkpt>
      <trkpt lat="46.1489" lon="8.59527">
        <ele>565.39</ele>
        <time>2012-08-04T13:52:43Z</time>
      </trkpt>
      <trkpt lat="46.14886" lon="8.59519">
        <ele>565.39</ele>
        <time>2012-08-04T13:52:44Z</time>
      </trkpt>
      <trkpt lat="46.14881" lon="8.59514">
        <ele>565.87</ele>
        <time>2012-08-04T13:52:45Z</time>
      </trkpt>
      <trkpt lat="46.14875" lon="8.5951">
        <ele>566.83</ele>
        <time>2012-08-04T13:52:46Z</time>
      </trkpt>
      <trkpt lat="46.14867" lon="8.59508">
        <ele>566.83</ele>
        <time>2012-08-04T13:52:47Z</time>
      </trkpt>
      <trkpt lat="46.14859" lon="8.5951">
        <ele>566.83</ele>
        <time>2012-08-04T13:52:48Z</time>
      </trkpt>
      <trkpt lat="46.1485" lon="8.59514">
        <ele>567.32</ele>
        <time>2012-08-04T13:52:49Z</time>
      </trkpt>
      <trkpt lat="46.14843" lon="8.59517">
        <ele>567.8</ele>
        <time>2012-08-04T13:52:50Z</time>
      </trkpt>
      <trkpt lat="46.14836" lon="8.59516">
        <ele>567.8</ele>
        <time>2012-08-04T13:52:51Z</time>
      </trkpt>
      <trkpt lat="46.1481" lon="8.59503">
        <ele>570.2</ele>
        <time>2012-08-04T13:52:56Z</time>
      </trkpt>
      <trkpt lat="46.14805" lon="8.59491">
        <ele>570.2</ele>
        <time>2012-08-04T13:52:57Z</time>
      </trkpt>
      <trkpt lat="46.148" lon="8.59485">
        <ele>570.2</ele>
        <time>2012-08-04T13:52:58Z</time>
      </trkpt>
      <trkpt lat="46.14797" lon="8.59473">
        <ele>570.68</ele>
        <time>2012-08-04T13:52:59Z</time>
      </trkpt>
      <trkpt lat="46.14795" lon="8.59458">
        <ele>571.64</ele>
        <time>2012-08-04T13:53:00Z</time>
      </trkpt>
      <trkpt lat="46.14792" lon="8.59425">
        <ele>572.6</ele>
        <time>2012-08-04T13:53:02Z</time>
      </trkpt>
      <trkpt lat="46.14788" lon="8.59407">
        <ele>573.08</ele>
        <time>2012-08-04T13:53:03Z</time>
      </trkpt>
      <trkpt lat="46.14782" lon="8.5939">
        <ele>574.04</ele>
        <time>2012-08-04T13:53:04Z</time>
      </trkpt>
      <trkpt lat="46.14775" lon="8.59373">
        <ele>575.49</ele>
        <time>2012-08-04T13:53:05Z</time>
      </trkpt>
      <trkpt lat="46.14751" lon="8.59327">
        <ele>577.41</ele>
        <time>2012-08-04T13:53:08Z</time>
      </trkpt>
      <trkpt lat="46.14724" lon="8.59292">
        <ele>577.41</ele>
        <time>2012-08-04T13:53:11Z</time>
      </trkpt>
      <trkpt lat="46.14718" lon="8.59281">
        <ele>577.41</ele>
        <time>2012-08-04T13:53:12Z</time>
      </trkpt>
      <trkpt lat="46.14712" lon="8.5927">
        <ele>577.89</ele>
        <time>2012-08-04T13:53:13Z</time>
      </trkpt>
      <trkpt lat="46.14703" lon="8.59262">
        <ele>577.89</ele>
        <time>2012-08-04T13:53:14Z</time>
      </trkpt>
      <trkpt lat="46.14693" lon="8.59256">
        <ele>578.37</ele>
        <time>2012-08-04T13:53:15Z</time>
      </trkpt>
      <trkpt lat="46.14675" lon="8.59244">
        <ele>577.89</ele>
        <time>2012-08-04T13:53:17Z</time>
      </trkpt>
      <trkpt lat="46.14667" lon="8.59238">
        <ele>577.89</ele>
        <time>2012-08-04T13:53:18Z</time>
      </trkpt>
      <trkpt lat="46.14661" lon="8.59231">
        <ele>578.85</ele>
        <time>2012-08-04T13:53:19Z</time>
      </trkpt>
      <trkpt lat="46.14651" lon="8.59212">
        <ele>578.37</ele>
        <time>2012-08-04T13:53:21Z</time>
      </trkpt>
      <trkpt lat="46.14643" lon="8.59207">
        <ele>578.85</ele>
        <time>2012-08-04T13:53:22Z</time>
      </trkpt>
      <trkpt lat="46.14633" lon="8.59206">
        <ele>579.81</ele>
        <time>2012-08-04T13:53:23Z</time>
      </trkpt>
      <trkpt lat="46.14621" lon="8.59209">
        <ele>581.25</ele>
        <time>2012-08-04T13:53:24Z</time>
      </trkpt>
      <trkpt lat="46.14611" lon="8.59213">
        <ele>581.25</ele>
        <time>2012-08-04T13:53:25Z</time>
      </trkpt>
      <trkpt lat="46.14602" lon="8.59216">
        <ele>581.25</ele>
        <time>2012-08-04T13:53:26Z</time>
      </trkpt>
      <trkpt lat="46.14594" lon="8.59217">
        <ele>580.77</ele>
        <time>2012-08-04T13:53:27Z</time>
      </trkpt>
      <trkpt lat="46.14588" lon="8.59217">
        <ele>581.25</ele>
        <time>2012-08-04T13:53:28Z</time>
      </trkpt>
      <trkpt lat="46.14582" lon="8.59214">
        <ele>581.73</ele>
        <time>2012-08-04T13:53:29Z</time>
      </trkpt>
      <trkpt lat="46.14575" lon="8.5921">
        <ele>582.7</ele>
        <time>2012-08-04T13:53:30Z</time>
      </trkpt>
      <trkpt lat="46.14568" lon="8.59207">
        <ele>582.7</ele>
        <time>2012-08-04T13:53:31Z</time>
      </trkpt>
      <trkpt lat="46.1456" lon="8.59206">
        <ele>583.18</ele>
        <time>2012-08-04T13:53:32Z</time>
      </trkpt>
      <trkpt lat="46.14551" lon="8.59207">
        <ele>583.66</ele>
        <time>2012-08-04T13:53:33Z</time>
      </trkpt>
      <trkpt lat="46.14542" lon="8.59209">
        <ele>584.14</ele>
        <time>2012-08-04T13:53:34Z</time>
      </trkpt>
      <trkpt lat="46.14533" lon="8.5921">
        <ele>584.62</ele>
        <time>2012-08-04T13:53:35Z</time>
      </trkpt>
      <trkpt lat="46.14525" lon="8.5921">
        <ele>584.62</ele>
        <time>2012-08-04T13:53:36Z</time>
      </trkpt>
      <trkpt lat="46.14517" lon="8.59209">
        <ele>584.62</ele>
        <time>2012-08-04T13:53:37Z</time>
      </trkpt>
      <trkpt lat="46.14509" lon="8.5921">
        <ele>585.1</ele>
        <time>2012-08-04T13:53:38Z</time>
      </trkpt>
      <trkpt lat="46.14501" lon="8.59216">
        <ele>585.58</ele>
        <time>2012-08-04T13:53:39Z</time>
      </trkpt>
      <trkpt lat="46.14494" lon="8.59223">
        <ele>586.06</ele>
        <time>2012-08-04T13:53:40Z</time>
      </trkpt>
      <trkpt lat="46.14487" lon="8.59232">
        <ele>587.02</ele>
        <time>2012-08-04T13:53:41Z</time>
      </trkpt>
      <trkpt lat="46.14472" lon="8.59251">
        <ele>587.5</ele>
        <time>2012-08-04T13:53:43Z</time>
      </trkpt>
      <trkpt lat="46.14458" lon="8.59264">
        <ele>587.98</ele>
        <time>2012-08-04T13:53:45Z</time>
      </trkpt>
      <trkpt lat="46.14453" lon="8.59268">
        <ele>588.46</ele>
        <time>2012-08-04T13:53:46Z</time>
      </trkpt>
      <trkpt lat="46.14447" lon="8.59269">
        <ele>588.95</ele>
        <time>2012-08-04T13:53:47Z</time>
      </trkpt>
      <trkpt lat="46.14436" lon="8.59275">
        <ele>589.91</ele>
        <time>2012-08-04T13:53:50Z</time>
      </trkpt>
      <trkpt lat="46.14385" lon="8.5926">
        <ele>587.98</ele>
        <time>2012-08-04T13:53:56Z</time>
      </trkpt>
      <trkpt lat="46.14349" lon="8.59214">
        <ele>587.02</ele>
        <time>2012-08-04T13:53:59Z</time>
      </trkpt>
      <trkpt lat="46.14337" lon="8.59195">
        <ele>586.06</ele>
        <time>2012-08-04T13:54:00Z</time>
      </trkpt>
      <trkpt lat="46.14293" lon="8.59102">
        <ele>584.14</ele>
        <time>2012-08-04T13:54:05Z</time>
      </trkpt>
      <trkpt lat="46.14288" lon="8.59084">
        <ele>584.14</ele>
        <time>2012-08-04T13:54:06Z</time>
      </trkpt>
      <trkpt lat="46.14268" lon="8.59007">
        <ele>583.66</ele>
        <time>2012-08-04T13:54:10Z</time>
      </trkpt>
      <trkpt lat="46.14261" lon="8.58988">
        <ele>583.66</ele>
        <time>2012-08-04T13:54:11Z</time>
      </trkpt>
      <trkpt lat="46.14227" lon="8.58915">
        <ele>580.77</ele>
        <time>2012-08-04T13:54:16Z</time>
      </trkpt>
      <trkpt lat="46.14222" lon="8.589">
        <ele>579.81</ele>
        <time>2012-08-04T13:54:17Z</time>
      </trkpt>
      <trkpt lat="46.14219" lon="8.58886">
        <ele>580.29</ele>
        <time>2012-08-04T13:54:18Z</time>
      </trkpt>
      <trkpt lat="46.14217" lon="8.58869">
        <ele>580.29</ele>
        <time>2012-08-04T13:54:19Z</time>
      </trkpt>
      <trkpt lat="46.14216" lon="8.58852">
        <ele>580.29</ele>
        <time>2012-08-04T13:54:20Z</time>
      </trkpt>
      <trkpt lat="46.14216" lon="8.58835">
        <ele>580.77</ele>
        <time>2012-08-04T13:54:21Z</time>
      </trkpt>
      <trkpt lat="46.14219" lon="8.58816">
        <ele>580.77</ele>
        <time>2012-08-04T13:54:22Z</time>
      </trkpt>
      <trkpt lat="46.14227" lon="8.58763">
        <ele>579.33</ele>
        <time>2012-08-04T13:54:25Z</time>
      </trkpt>
      <trkpt lat="46.14227" lon="8.58745">
        <ele>578.85</ele>
        <time>2012-08-04T13:54:26Z</time>
      </trkpt>
      <trkpt lat="46.14227" lon="8.58726">
        <ele>578.37</ele>
        <time>2012-08-04T13:54:27Z</time>
      </trkpt>
      <trkpt lat="46.14224" lon="8.58706">
        <ele>578.85</ele>
        <time>2012-08-04T13:54:28Z</time>
      </trkpt>
      <trkpt lat="46.1422" lon="8.58688">
        <ele>578.37</ele>
        <time>2012-08-04T13:54:29Z</time>
      </trkpt>
      <trkpt lat="46.14211" lon="8.5865">
        <ele>577.89</ele>
        <time>2012-08-04T13:54:31Z</time>
      </trkpt>
      <trkpt lat="46.14208" lon="8.5863">
        <ele>577.89</ele>
        <time>2012-08-04T13:54:32Z</time>
      </trkpt>
      <trkpt lat="46.14204" lon="8.58531">
        <ele>575.97</ele>
        <time>2012-08-04T13:54:37Z</time>
      </trkpt>
      <trkpt lat="46.142" lon="8.58515">
        <ele>575.49</ele>
        <time>2012-08-04T13:54:38Z</time>
      </trkpt>
      <trkpt lat="46.14195" lon="8.585">
        <ele>575.97</ele>
        <time>2012-08-04T13:54:39Z</time>
      </trkpt>
      <trkpt lat="46.14187" lon="8.58486">
        <ele>576.93</ele>
        <time>2012-08-04T13:54:40Z</time>
      </trkpt>
      <trkpt lat="46.14136" lon="8.58422">
        <ele>579.81</ele>
        <time>2012-08-04T13:54:45Z</time>
      </trkpt>
      <trkpt lat="46.14107" lon="8.58381">
        <ele>580.77</ele>
        <time>2012-08-04T13:54:48Z</time>
      </trkpt>
      <trkpt lat="46.141" lon="8.58368">
        <ele>580.77</ele>
        <time>2012-08-04T13:54:49Z</time>
      </trkpt>
      <trkpt lat="46.14094" lon="8.58354">
        <ele>581.25</ele>
        <time>2012-08-04T13:54:50Z</time>
      </trkpt>
      <trkpt lat="46.14089" lon="8.5834">
        <ele>581.25</ele>
        <time>2012-08-04T13:54:51Z</time>
      </trkpt>
      <trkpt lat="46.14086" lon="8.58324">
        <ele>582.22</ele>
        <time>2012-08-04T13:54:52Z</time>
      </trkpt>
      <trkpt lat="46.14084" lon="8.58308">
        <ele>582.7</ele>
        <time>2012-08-04T13:54:53Z</time>
      </trkpt>
      <trkpt lat="46.1408" lon="8.58253">
        <ele>583.66</ele>
        <time>2012-08-04T13:54:56Z</time>
      </trkpt>
      <trkpt lat="46.14077" lon="8.58236">
        <ele>583.66</ele>
        <time>2012-08-04T13:54:57Z</time>
      </trkpt>
      <trkpt lat="46.14072" lon="8.58221">
        <ele>584.14</ele>
        <time>2012-08-04T13:54:58Z</time>
      </trkpt>
      <trkpt lat="46.14068" lon="8.58207">
        <ele>584.14</ele>
        <time>2012-08-04T13:54:59Z</time>
      </trkpt>
      <trkpt lat="46.14065" lon="8.58192">
        <ele>584.62</ele>
        <time>2012-08-04T13:55:00Z</time>
      </trkpt>
      <trkpt lat="46.14063" lon="8.58175">
        <ele>585.58</ele>
        <time>2012-08-04T13:55:01Z</time>
      </trkpt>
      <trkpt lat="46.14058" lon="8.58129">
        <ele>585.58</ele>
        <time>2012-08-04T13:55:04Z</time>
      </trkpt>
      <trkpt lat="46.14053" lon="8.58116">
        <ele>586.06</ele>
        <time>2012-08-04T13:55:05Z</time>
      </trkpt>
      <trkpt lat="46.14046" lon="8.58106">
        <ele>586.06</ele>
        <time>2012-08-04T13:55:06Z</time>
      </trkpt>
      <trkpt lat="46.13976" lon="8.58033">
        <ele>588.95</ele>
        <time>2012-08-04T13:55:13Z</time>
      </trkpt>
      <trkpt lat="46.13936" lon="8.57974">
        <ele>592.31</ele>
        <time>2012-08-04T13:55:17Z</time>
      </trkpt>
      <trkpt lat="46.13942" lon="8.57939">
        <ele>592.79</ele>
        <time>2012-08-04T13:55:18Z</time>
      </trkpt>
      <trkpt lat="46.13934" lon="8.57919">
        <ele>593.75</ele>
        <time>2012-08-04T13:55:19Z</time>
      </trkpt>
      <trkpt lat="46.13946" lon="8.5789">
        <ele>594.23</ele>
        <time>2012-08-04T13:55:20Z</time>
      </trkpt>
      <trkpt lat="46.13958" lon="8.57832">
        <ele>595.67</ele>
        <time>2012-08-04T13:55:22Z</time>
      </trkpt>
      <trkpt lat="46.13953" lon="8.57703">
        <ele>599.04</ele>
        <time>2012-08-04T13:55:27Z</time>
      </trkpt>
      <trkpt lat="46.13937" lon="8.57589">
        <ele>599.52</ele>
        <time>2012-08-04T13:55:32Z</time>
      </trkpt>
      <trkpt lat="46.13931" lon="8.57571">
        <ele>599.52</ele>
        <time>2012-08-04T13:55:33Z</time>
      </trkpt>
      <trkpt lat="46.13924" lon="8.57553">
        <ele>599.52</ele>
        <time>2012-08-04T13:55:34Z</time>
      </trkpt>
      <trkpt lat="46.13914" lon="8.57537">
        <ele>600.48</ele>
        <time>2012-08-04T13:55:35Z</time>
      </trkpt>
      <trkpt lat="46.13904" lon="8.57522">
        <ele>600.48</ele>
        <time>2012-08-04T13:55:36Z</time>
      </trkpt>
      <trkpt lat="46.13891" lon="8.5751">
        <ele>601.44</ele>
        <time>2012-08-04T13:55:37Z</time>
      </trkpt>
      <trkpt lat="46.13879" lon="8.57498">
        <ele>601.44</ele>
        <time>2012-08-04T13:55:38Z</time>
      </trkpt>
      <trkpt lat="46.1381" lon="8.57434">
        <ele>603.85</ele>
        <time>2012-08-04T13:55:43Z</time>
      </trkpt>
      <trkpt lat="46.13739" lon="8.57321">
        <ele>606.73</ele>
        <time>2012-08-04T13:55:49Z</time>
      </trkpt>
      <trkpt lat="46.13695" lon="8.57164">
        <ele>610.09</ele>
        <time>2012-08-04T13:55:55Z</time>
      </trkpt>
      <trkpt lat="46.13687" lon="8.5711">
        <ele>611.54</ele>
        <time>2012-08-04T13:55:57Z</time>
      </trkpt>
      <trkpt lat="46.13686" lon="8.57083">
        <ele>612.5</ele>
        <time>2012-08-04T13:55:58Z</time>
      </trkpt>
      <trkpt lat="46.13688" lon="8.57001">
        <ele>616.34</ele>
        <time>2012-08-04T13:56:01Z</time>
      </trkpt>
      <trkpt lat="46.13691" lon="8.56892">
        <ele>619.71</ele>
        <time>2012-08-04T13:56:05Z</time>
      </trkpt>
      <trkpt lat="46.13694" lon="8.56837">
        <ele>621.15</ele>
        <time>2012-08-04T13:56:07Z</time>
      </trkpt>
      <trkpt lat="46.13698" lon="8.56573">
        <ele>624.51</ele>
        <time>2012-08-04T13:56:17Z</time>
      </trkpt>
      <trkpt lat="46.13691" lon="8.56526">
        <ele>625.47</ele>
        <time>2012-08-04T13:56:19Z</time>
      </trkpt>
      <trkpt lat="46.13684" lon="8.56465">
        <ele>626.92</ele>
        <time>2012-08-04T13:56:22Z</time>
      </trkpt>
      <trkpt lat="46.13681" lon="8.56447">
        <ele>627.4</ele>
        <time>2012-08-04T13:56:23Z</time>
      </trkpt>
      <trkpt lat="46.13676" lon="8.56428">
        <ele>627.88</ele>
        <time>2012-08-04T13:56:24Z</time>
      </trkpt>
      <trkpt lat="46.13669" lon="8.5641">
        <ele>630.28</ele>
        <time>2012-08-04T13:56:25Z</time>
      </trkpt>
      <trkpt lat="46.13661" lon="8.56392">
        <ele>630.28</ele>
        <time>2012-08-04T13:56:26Z</time>
      </trkpt>
      <trkpt lat="46.13652" lon="8.56375">
        <ele>630.76</ele>
        <time>2012-08-04T13:56:27Z</time>
      </trkpt>
      <trkpt lat="46.13633" lon="8.56337">
        <ele>630.76</ele>
        <time>2012-08-04T13:56:30Z</time>
      </trkpt>
      <trkpt lat="46.13629" lon="8.56327">
        <ele>630.76</ele>
        <time>2012-08-04T13:56:31Z</time>
      </trkpt>
      <trkpt lat="46.13628" lon="8.56317">
        <ele>631.24</ele>
        <time>2012-08-04T13:56:32Z</time>
      </trkpt>
      <trkpt lat="46.13628" lon="8.56305">
        <ele>631.72</ele>
        <time>2012-08-04T13:56:33Z</time>
      </trkpt>
      <trkpt lat="46.13632" lon="8.56294">
        <ele>632.2</ele>
        <time>2012-08-04T13:56:34Z</time>
      </trkpt>
      <trkpt lat="46.13637" lon="8.56284">
        <ele>633.17</ele>
        <time>2012-08-04T13:56:35Z</time>
      </trkpt>
      <trkpt lat="46.13641" lon="8.56275">
        <ele>633.17</ele>
        <time>2012-08-04T13:56:36Z</time>
      </trkpt>
      <trkpt lat="46.1365" lon="8.56253">
        <ele>634.61</ele>
        <time>2012-08-04T13:56:38Z</time>
      </trkpt>
      <trkpt lat="46.13653" lon="8.5624">
        <ele>636.05</ele>
        <time>2012-08-04T13:56:39Z</time>
      </trkpt>
      <trkpt lat="46.13655" lon="8.56226">
        <ele>636.53</ele>
        <time>2012-08-04T13:56:40Z</time>
      </trkpt>
      <trkpt lat="46.13657" lon="8.56212">
        <ele>636.05</ele>
        <time>2012-08-04T13:56:41Z</time>
      </trkpt>
      <trkpt lat="46.13659" lon="8.56199">
        <ele>637.01</ele>
        <time>2012-08-04T13:56:42Z</time>
      </trkpt>
      <trkpt lat="46.13662" lon="8.56186">
        <ele>637.49</ele>
        <time>2012-08-04T13:56:43Z</time>
      </trkpt>
      <trkpt lat="46.13666" lon="8.56174">
        <ele>637.97</ele>
        <time>2012-08-04T13:56:44Z</time>
      </trkpt>
      <trkpt lat="46.1367" lon="8.56161">
        <ele>638.93</ele>
        <time>2012-08-04T13:56:45Z</time>
      </trkpt>
      <trkpt lat="46.13673" lon="8.56147">
        <ele>639.41</ele>
        <time>2012-08-04T13:56:46Z</time>
      </trkpt>
      <trkpt lat="46.13674" lon="8.56132">
        <ele>639.89</ele>
        <time>2012-08-04T13:56:47Z</time>
      </trkpt>
      <trkpt lat="46.13674" lon="8.56117">
        <ele>640.86</ele>
        <time>2012-08-04T13:56:48Z</time>
      </trkpt>
      <trkpt lat="46.13673" lon="8.56102">
        <ele>641.34</ele>
        <time>2012-08-04T13:56:49Z</time>
      </trkpt>
      <trkpt lat="46.13669" lon="8.56088">
        <ele>641.82</ele>
        <time>2012-08-04T13:56:50Z</time>
      </trkpt>
      <trkpt lat="46.13664" lon="8.56074">
        <ele>642.78</ele>
        <time>2012-08-04T13:56:51Z</time>
      </trkpt>
      <trkpt lat="46.13659" lon="8.5606">
        <ele>642.78</ele>
        <time>2012-08-04T13:56:52Z</time>
      </trkpt>
      <trkpt lat="46.13655" lon="8.56046">
        <ele>643.26</ele>
        <time>2012-08-04T13:56:53Z</time>
      </trkpt>
      <trkpt lat="46.13653" lon="8.5603">
        <ele>644.22</ele>
        <time>2012-08-04T13:56:54Z</time>
      </trkpt>
      <trkpt lat="46.13649" lon="8.55994">
        <ele>647.1</ele>
        <time>2012-08-04T13:56:56Z</time>
      </trkpt>
      <trkpt lat="46.13644" lon="8.55973">
        <ele>648.07</ele>
        <time>2012-08-04T13:56:57Z</time>
      </trkpt>
      <trkpt lat="46.13639" lon="8.55953">
        <ele>648.55</ele>
        <time>2012-08-04T13:56:58Z</time>
      </trkpt>
      <trkpt lat="46.13622" lon="8.5589">
        <ele>651.91</ele>
        <time>2012-08-04T13:57:01Z</time>
      </trkpt>
      <trkpt lat="46.13582" lon="8.55773">
        <ele>654.31</ele>
        <time>2012-08-04T13:57:08Z</time>
      </trkpt>
      <trkpt lat="46.13572" lon="8.55753">
        <ele>654.8</ele>
        <time>2012-08-04T13:57:10Z</time>
      </trkpt>
      <trkpt lat="46.13565" lon="8.55746">
        <ele>656.24</ele>
        <time>2012-08-04T13:57:11Z</time>
      </trkpt>
      <trkpt lat="46.13555" lon="8.5574">
        <ele>656.24</ele>
        <time>2012-08-04T13:57:12Z</time>
      </trkpt>
      <trkpt lat="46.13545" lon="8.55735">
        <ele>657.2</ele>
        <time>2012-08-04T13:57:13Z</time>
      </trkpt>
      <trkpt lat="46.13535" lon="8.5573">
        <ele>657.68</ele>
        <time>2012-08-04T13:57:14Z</time>
      </trkpt>
      <trkpt lat="46.13526" lon="8.55723">
        <ele>658.16</ele>
        <time>2012-08-04T13:57:15Z</time>
      </trkpt>
      <trkpt lat="46.13518" lon="8.55714">
        <ele>658.64</ele>
        <time>2012-08-04T13:57:16Z</time>
      </trkpt>
      <trkpt lat="46.13511" lon="8.55704">
        <ele>659.12</ele>
        <time>2012-08-04T13:57:17Z</time>
      </trkpt>
      <trkpt lat="46.13504" lon="8.55694">
        <ele>659.6</ele>
        <time>2012-08-04T13:57:18Z</time>
      </trkpt>
      <trkpt lat="46.13499" lon="8.55684">
        <ele>660.08</ele>
        <time>2012-08-04T13:57:19Z</time>
      </trkpt>
      <trkpt lat="46.13495" lon="8.55673">
        <ele>660.56</ele>
        <time>2012-08-04T13:57:20Z</time>
      </trkpt>
      <trkpt lat="46.13493" lon="8.55661">
        <ele>661.52</ele>
        <time>2012-08-04T13:57:21Z</time>
      </trkpt>
      <trkpt lat="46.13493" lon="8.55648">
        <ele>662.01</ele>
        <time>2012-08-04T13:57:22Z</time>
      </trkpt>
      <trkpt lat="46.13494" lon="8.55635">
        <ele>662.01</ele>
        <time>2012-08-04T13:57:23Z</time>
      </trkpt>
      <trkpt lat="46.13492" lon="8.556">
        <ele>662.97</ele>
        <time>2012-08-04T13:57:26Z</time>
      </trkpt>
      <trkpt lat="46.1349" lon="8.5559">
        <ele>663.93</ele>
        <time>2012-08-04T13:57:27Z</time>
      </trkpt>
      <trkpt lat="46.13485" lon="8.55581">
        <ele>663.93</ele>
        <time>2012-08-04T13:57:28Z</time>
      </trkpt>
      <trkpt lat="46.13479" lon="8.55575">
        <ele>664.41</ele>
        <time>2012-08-04T13:57:29Z</time>
      </trkpt>
      <trkpt lat="46.13471" lon="8.55572">
        <ele>664.89</ele>
        <time>2012-08-04T13:57:30Z</time>
      </trkpt>
      <trkpt lat="46.13462" lon="8.55572">
        <ele>665.85</ele>
        <time>2012-08-04T13:57:31Z</time>
      </trkpt>
      <trkpt lat="46.13452" lon="8.55574">
        <ele>667.29</ele>
        <time>2012-08-04T13:57:32Z</time>
      </trkpt>
      <trkpt lat="46.13442" lon="8.55577">
        <ele>667.29</ele>
        <time>2012-08-04T13:57:33Z</time>
      </trkpt>
      <trkpt lat="46.13413" lon="8.5558">
        <ele>668.25</ele>
        <time>2012-08-04T13:57:36Z</time>
      </trkpt>
      <trkpt lat="46.13405" lon="8.55579">
        <ele>668.25</ele>
        <time>2012-08-04T13:57:37Z</time>
      </trkpt>
      <trkpt lat="46.13398" lon="8.55576">
        <ele>669.22</ele>
        <time>2012-08-04T13:57:38Z</time>
      </trkpt>
      <trkpt lat="46.13392" lon="8.5557">
        <ele>669.22</ele>
        <time>2012-08-04T13:57:39Z</time>
      </trkpt>
      <trkpt lat="46.13386" lon="8.55562">
        <ele>670.18</ele>
        <time>2012-08-04T13:57:40Z</time>
      </trkpt>
      <trkpt lat="46.13381" lon="8.55552">
        <ele>670.66</ele>
        <time>2012-08-04T13:57:41Z</time>
      </trkpt>
      <trkpt lat="46.13373" lon="8.55533">
        <ele>671.14</ele>
        <time>2012-08-04T13:57:42Z</time>
      </trkpt>
      <trkpt lat="46.13349" lon="8.55479">
        <ele>673.06</ele>
        <time>2012-08-04T13:57:45Z</time>
      </trkpt>
      <trkpt lat="46.13287" lon="8.55322">
        <ele>672.1</ele>
        <time>2012-08-04T13:57:54Z</time>
      </trkpt>
      <trkpt lat="46.13282" lon="8.55312">
        <ele>672.1</ele>
        <time>2012-08-04T13:57:55Z</time>
      </trkpt>
      <trkpt lat="46.13275" lon="8.55304">
        <ele>672.1</ele>
        <time>2012-08-04T13:57:56Z</time>
      </trkpt>
      <trkpt lat="46.13267" lon="8.55296">
        <ele>672.58</ele>
        <time>2012-08-04T13:57:57Z</time>
      </trkpt>
      <trkpt lat="46.13257" lon="8.55288">
        <ele>673.06</ele>
        <time>2012-08-04T13:57:58Z</time>
      </trkpt>
      <trkpt lat="46.13247" lon="8.55278">
        <ele>673.06</ele>
        <time>2012-08-04T13:57:59Z</time>
      </trkpt>
      <trkpt lat="46.13229" lon="8.55258">
        <ele>673.06</ele>
        <time>2012-08-04T13:58:01Z</time>
      </trkpt>
      <trkpt lat="46.13212" lon="8.55241">
        <ele>673.06</ele>
        <time>2012-08-04T13:58:03Z</time>
      </trkpt>
      <trkpt lat="46.13205" lon="8.55231">
        <ele>673.54</ele>
        <time>2012-08-04T13:58:04Z</time>
      </trkpt>
      <trkpt lat="46.13199" lon="8.55217">
        <ele>674.02</ele>
        <time>2012-08-04T13:58:05Z</time>
      </trkpt>
      <trkpt lat="46.13186" lon="8.55183">
        <ele>674.98</ele>
        <time>2012-08-04T13:58:07Z</time>
      </trkpt>
      <trkpt lat="46.13172" lon="8.55134">
        <ele>674.02</ele>
        <time>2012-08-04T13:58:10Z</time>
      </trkpt>
      <trkpt lat="46.1317" lon="8.55118">
        <ele>674.98</ele>
        <time>2012-08-04T13:58:11Z</time>
      </trkpt>
      <trkpt lat="46.13169" lon="8.55099">
        <ele>674.98</ele>
        <time>2012-08-04T13:58:12Z</time>
      </trkpt>
      <trkpt lat="46.13165" lon="8.55036">
        <ele>674.5</ele>
        <time>2012-08-04T13:58:16Z</time>
      </trkpt>
      <trkpt lat="46.1316" lon="8.55024">
        <ele>674.5</ele>
        <time>2012-08-04T13:58:17Z</time>
      </trkpt>
      <trkpt lat="46.13154" lon="8.55015">
        <ele>674.98</ele>
        <time>2012-08-04T13:58:18Z</time>
      </trkpt>
      <trkpt lat="46.13146" lon="8.55006">
        <ele>674.5</ele>
        <time>2012-08-04T13:58:19Z</time>
      </trkpt>
      <trkpt lat="46.1314" lon="8.54997">
        <ele>674.5</ele>
        <time>2012-08-04T13:58:20Z</time>
      </trkpt>
      <trkpt lat="46.13136" lon="8.54987">
        <ele>674.02</ele>
        <time>2012-08-04T13:58:21Z</time>
      </trkpt>
      <trkpt lat="46.13135" lon="8.54976">
        <ele>674.5</ele>
        <time>2012-08-04T13:58:22Z</time>
      </trkpt>
      <trkpt lat="46.13136" lon="8.54963">
        <ele>674.98</ele>
        <time>2012-08-04T13:58:23Z</time>
      </trkpt>
      <trkpt lat="46.1314" lon="8.54949">
        <ele>675.46</ele>
        <time>2012-08-04T13:58:24Z</time>
      </trkpt>
      <trkpt lat="46.13146" lon="8.54934">
        <ele>676.42</ele>
        <time>2012-08-04T13:58:25Z</time>
      </trkpt>
      <trkpt lat="46.13153" lon="8.54918">
        <ele>676.91</ele>
        <time>2012-08-04T13:58:26Z</time>
      </trkpt>
      <trkpt lat="46.1316" lon="8.549">
        <ele>677.39</ele>
        <time>2012-08-04T13:58:27Z</time>
      </trkpt>
      <trkpt lat="46.13226" lon="8.5473">
        <ele>676.91</ele>
        <time>2012-08-04T13:58:37Z</time>
      </trkpt>
      <trkpt lat="46.13228" lon="8.54723">
        <ele>676.91</ele>
        <time>2012-08-04T13:58:38Z</time>
      </trkpt>
      <trkpt lat="46.13231" lon="8.5471">
        <ele>676.42</ele>
        <time>2012-08-04T13:58:39Z</time>
      </trkpt>
      <trkpt lat="46.13232" lon="8.54698">
        <ele>676.91</ele>
        <time>2012-08-04T13:58:40Z</time>
      </trkpt>
      <trkpt lat="46.13231" lon="8.54686">
        <ele>677.39</ele>
        <time>2012-08-04T13:58:41Z</time>
      </trkpt>
      <trkpt lat="46.13228" lon="8.54674">
        <ele>677.39</ele>
        <time>2012-08-04T13:58:42Z</time>
      </trkpt>
      <trkpt lat="46.13223" lon="8.54662">
        <ele>677.39</ele>
        <time>2012-08-04T13:58:43Z</time>
      </trkpt>
      <trkpt lat="46.13216" lon="8.54651">
        <ele>678.35</ele>
        <time>2012-08-04T13:58:44Z</time>
      </trkpt>
      <trkpt lat="46.13208" lon="8.54639">
        <ele>678.83</ele>
        <time>2012-08-04T13:58:45Z</time>
      </trkpt>
      <trkpt lat="46.13139" lon="8.54551">
        <ele>681.71</ele>
        <time>2012-08-04T13:58:53Z</time>
      </trkpt>
      <trkpt lat="46.1313" lon="8.54543">
        <ele>682.19</ele>
        <time>2012-08-04T13:58:54Z</time>
      </trkpt>
      <trkpt lat="46.13119" lon="8.54536">
        <ele>682.67</ele>
        <time>2012-08-04T13:58:55Z</time>
      </trkpt>
      <trkpt lat="46.1309" lon="8.54521">
        <ele>683.63</ele>
        <time>2012-08-04T13:58:58Z</time>
      </trkpt>
      <trkpt lat="46.13081" lon="8.5452">
        <ele>683.63</ele>
        <time>2012-08-04T13:58:59Z</time>
      </trkpt>
      <trkpt lat="46.13072" lon="8.5452">
        <ele>683.15</ele>
        <time>2012-08-04T13:59:00Z</time>
      </trkpt>
      <trkpt lat="46.13063" lon="8.54522">
        <ele>683.15</ele>
        <time>2012-08-04T13:59:01Z</time>
      </trkpt>
      <trkpt lat="46.13054" lon="8.54526">
        <ele>683.15</ele>
        <time>2012-08-04T13:59:02Z</time>
      </trkpt>
      <trkpt lat="46.13045" lon="8.5453">
        <ele>682.67</ele>
        <time>2012-08-04T13:59:03Z</time>
      </trkpt>
      <trkpt lat="46.13037" lon="8.54534">
        <ele>682.19</ele>
        <time>2012-08-04T13:59:04Z</time>
      </trkpt>
      <trkpt lat="46.1303" lon="8.54534">
        <ele>682.19</ele>
        <time>2012-08-04T13:59:05Z</time>
      </trkpt>
      <trkpt lat="46.13023" lon="8.54532">
        <ele>681.71</ele>
        <time>2012-08-04T13:59:06Z</time>
      </trkpt>
      <trkpt lat="46.13018" lon="8.54527">
        <ele>681.71</ele>
        <time>2012-08-04T13:59:07Z</time>
      </trkpt>
      <trkpt lat="46.13013" lon="8.5452">
        <ele>681.71</ele>
        <time>2012-08-04T13:59:08Z</time>
      </trkpt>
      <trkpt lat="46.13011" lon="8.54512">
        <ele>681.71</ele>
        <time>2012-08-04T13:59:09Z</time>
      </trkpt>
      <trkpt lat="46.13009" lon="8.54503">
        <ele>682.19</ele>
        <time>2012-08-04T13:59:10Z</time>
      </trkpt>
      <trkpt lat="46.13009" lon="8.54494">
        <ele>682.19</ele>
        <time>2012-08-04T13:59:11Z</time>
      </trkpt>
      <trkpt lat="46.13011" lon="8.54486">
        <ele>681.71</ele>
        <time>2012-08-04T13:59:12Z</time>
      </trkpt>
      <trkpt lat="46.13014" lon="8.54478">
        <ele>682.19</ele>
        <time>2012-08-04T13:59:13Z</time>
      </trkpt>
      <trkpt lat="46.13019" lon="8.54472">
        <ele>682.19</ele>
        <time>2012-08-04T13:59:14Z</time>
      </trkpt>
      <trkpt lat="46.13025" lon="8.54468">
        <ele>682.67</ele>
        <time>2012-08-04T13:59:15Z</time>
      </trkpt>
      <trkpt lat="46.13031" lon="8.54464">
        <ele>683.15</ele>
        <time>2012-08-04T13:59:16Z</time>
      </trkpt>
      <trkpt lat="46.13037" lon="8.54462">
        <ele>683.15</ele>
        <time>2012-08-04T13:59:17Z</time>
      </trkpt>
      <trkpt lat="46.13041" lon="8.54459">
        <ele>683.15</ele>
        <time>2012-08-04T13:59:18Z</time>
      </trkpt>
      <trkpt lat="46.13045" lon="8.54454">
        <ele>683.63</ele>
        <time>2012-08-04T13:59:19Z</time>
      </trkpt>
      <trkpt lat="46.13046" lon="8.54448">
        <ele>683.63</ele>
        <time>2012-08-04T13:59:20Z</time>
      </trkpt>
      <trkpt lat="46.13046" lon="8.54441">
        <ele>683.63</ele>
        <time>2012-08-04T13:59:21Z</time>
      </trkpt>
      <trkpt lat="46.13045" lon="8.54433">
        <ele>684.12</ele>
        <time>2012-08-04T13:59:22Z</time>
      </trkpt>
      <trkpt lat="46.13042" lon="8.54424">
        <ele>684.12</ele>
        <time>2012-08-04T13:59:23Z</time>
      </trkpt>
      <trkpt lat="46.13002" lon="8.54335">
        <ele>684.12</ele>
        <time>2012-08-04T13:59:31Z</time>
      </trkpt>
      <trkpt lat="46.12996" lon="8.54326">
        <ele>683.63</ele>
        <time>2012-08-04T13:59:32Z</time>
      </trkpt>
      <trkpt lat="46.1299" lon="8.5432">
        <ele>683.15</ele>
        <time>2012-08-04T13:59:33Z</time>
      </trkpt>
      <trkpt lat="46.12984" lon="8.54317">
        <ele>683.15</ele>
        <time>2012-08-04T13:59:34Z</time>
      </trkpt>
      <trkpt lat="46.12976" lon="8.54313">
        <ele>682.67</ele>
        <time>2012-08-04T13:59:35Z</time>
      </trkpt>
      <trkpt lat="46.12968" lon="8.54309">
        <ele>682.67</ele>
        <time>2012-08-04T13:59:36Z</time>
      </trkpt>
      <trkpt lat="46.12961" lon="8.54304">
        <ele>682.19</ele>
        <time>2012-08-04T13:59:37Z</time>
      </trkpt>
      <trkpt lat="46.12893" lon="8.5426">
        <ele>679.31</ele>
        <time>2012-08-04T13:59:45Z</time>
      </trkpt>
      <trkpt lat="46.12851" lon="8.54211">
        <ele>678.35</ele>
        <time>2012-08-04T13:59:50Z</time>
      </trkpt>
      <trkpt lat="46.12844" lon="8.54199">
        <ele>677.39</ele>
        <time>2012-08-04T13:59:51Z</time>
      </trkpt>
      <trkpt lat="46.12837" lon="8.54186">
        <ele>677.39</ele>
        <time>2012-08-04T13:59:52Z</time>
      </trkpt>
      <trkpt lat="46.12791" lon="8.54104">
        <ele>674.98</ele>
        <time>2012-08-04T13:59:59Z</time>
      </trkpt>
      <trkpt lat="46.12788" lon="8.54093">
        <ele>674.5</ele>
        <time>2012-08-04T14:00:00Z</time>
      </trkpt>
      <trkpt lat="46.12787" lon="8.5408">
        <ele>674.5</ele>
        <time>2012-08-04T14:00:01Z</time>
      </trkpt>
      <trkpt lat="46.12787" lon="8.54064">
        <ele>674.98</ele>
        <time>2012-08-04T14:00:02Z</time>
      </trkpt>
      <trkpt lat="46.12788" lon="8.54047">
        <ele>674.98</ele>
        <time>2012-08-04T14:00:03Z</time>
      </trkpt>
      <trkpt lat="46.12778" lon="8.53889">
        <ele>673.54</ele>
        <time>2012-08-04T14:00:10Z</time>
      </trkpt>
      <trkpt lat="46.12768" lon="8.5378">
        <ele>670.66</ele>
        <time>2012-08-04T14:00:16Z</time>
      </trkpt>
      <trkpt lat="46.12769" lon="8.5376">
        <ele>670.18</ele>
        <time>2012-08-04T14:00:17Z</time>
      </trkpt>
      <trkpt lat="46.12777" lon="8.53674">
        <ele>669.22</ele>
        <time>2012-08-04T14:00:21Z</time>
      </trkpt>
      <trkpt lat="46.12777" lon="8.53653">
        <ele>668.73</ele>
        <time>2012-08-04T14:00:22Z</time>
      </trkpt>
      <trkpt lat="46.12772" lon="8.5361">
        <ele>668.73</ele>
        <time>2012-08-04T14:00:24Z</time>
      </trkpt>
      <trkpt lat="46.1274" lon="8.53456">
        <ele>667.29</ele>
        <time>2012-08-04T14:00:30Z</time>
      </trkpt>
      <trkpt lat="46.12736" lon="8.5344">
        <ele>666.33</ele>
        <time>2012-08-04T14:00:31Z</time>
      </trkpt>
      <trkpt lat="46.12715" lon="8.53238">
        <ele>663.93</ele>
        <time>2012-08-04T14:00:39Z</time>
      </trkpt>
      <trkpt lat="46.12716" lon="8.53169">
        <ele>664.41</ele>
        <time>2012-08-04T14:00:42Z</time>
      </trkpt>
      <trkpt lat="46.12719" lon="8.53147">
        <ele>664.41</ele>
        <time>2012-08-04T14:00:43Z</time>
      </trkpt>
      <trkpt lat="46.1277" lon="8.52927">
        <ele>667.29</ele>
        <time>2012-08-04T14:00:53Z</time>
      </trkpt>
      <trkpt lat="46.128" lon="8.52774">
        <ele>668.25</ele>
        <time>2012-08-04T14:01:01Z</time>
      </trkpt>
      <trkpt lat="46.128" lon="8.52756">
        <ele>668.73</ele>
        <time>2012-08-04T14:01:02Z</time>
      </trkpt>
      <trkpt lat="46.12796" lon="8.5267">
        <ele>669.7</ele>
        <time>2012-08-04T14:01:07Z</time>
      </trkpt>
      <trkpt lat="46.12797" lon="8.52652">
        <ele>669.7</ele>
        <time>2012-08-04T14:01:08Z</time>
      </trkpt>
      <trkpt lat="46.12801" lon="8.52635">
        <ele>669.7</ele>
        <time>2012-08-04T14:01:09Z</time>
      </trkpt>
      <trkpt lat="46.12825" lon="8.52508">
        <ele>673.54</ele>
        <time>2012-08-04T14:01:16Z</time>
      </trkpt>
      <trkpt lat="46.12831" lon="8.52468">
        <ele>674.98</ele>
        <time>2012-08-04T14:01:18Z</time>
      </trkpt>
      <trkpt lat="46.12858" lon="8.52285">
        <ele>676.91</ele>
        <time>2012-08-04T14:01:27Z</time>
      </trkpt>
      <trkpt lat="46.12871" lon="8.521">
        <ele>678.83</ele>
        <time>2012-08-04T14:01:36Z</time>
      </trkpt>
      <trkpt lat="46.12881" lon="8.51952">
        <ele>682.19</ele>
        <time>2012-08-04T14:01:43Z</time>
      </trkpt>
      <trkpt lat="46.12883" lon="8.51929">
        <ele>682.67</ele>
        <time>2012-08-04T14:01:44Z</time>
      </trkpt>
      <trkpt lat="46.12886" lon="8.51884">
        <ele>683.63</ele>
        <time>2012-08-04T14:01:46Z</time>
      </trkpt>
      <trkpt lat="46.12898" lon="8.5172">
        <ele>684.6</ele>
        <time>2012-08-04T14:01:54Z</time>
      </trkpt>
      <trkpt lat="46.12912" lon="8.51555">
        <ele>687</ele>
        <time>2012-08-04T14:02:02Z</time>
      </trkpt>
      <trkpt lat="46.12915" lon="8.51536">
        <ele>687</ele>
        <time>2012-08-04T14:02:03Z</time>
      </trkpt>
      <trkpt lat="46.1292" lon="8.51517">
        <ele>687.96</ele>
        <time>2012-08-04T14:02:04Z</time>
      </trkpt>
      <trkpt lat="46.12986" lon="8.51305">
        <ele>690.84</ele>
        <time>2012-08-04T14:02:16Z</time>
      </trkpt>
      <trkpt lat="46.12998" lon="8.51256">
        <ele>691.81</ele>
        <time>2012-08-04T14:02:19Z</time>
      </trkpt>
      <trkpt lat="46.13007" lon="8.5117">
        <ele>694.21</ele>
        <time>2012-08-04T14:02:24Z</time>
      </trkpt>
      <trkpt lat="46.13033" lon="8.51039">
        <ele>698.05</ele>
        <time>2012-08-04T14:02:32Z</time>
      </trkpt>
      <trkpt lat="46.13064" lon="8.50948">
        <ele>700.94</ele>
        <time>2012-08-04T14:02:38Z</time>
      </trkpt>
      <trkpt lat="46.13074" lon="8.5092">
        <ele>701.9</ele>
        <time>2012-08-04T14:02:40Z</time>
      </trkpt>
      <trkpt lat="46.13115" lon="8.50786">
        <ele>704.3</ele>
        <time>2012-08-04T14:02:49Z</time>
      </trkpt>
      <trkpt lat="46.13129" lon="8.5073">
        <ele>705.75</ele>
        <time>2012-08-04T14:02:52Z</time>
      </trkpt>
      <trkpt lat="46.1314" lon="8.50655">
        <ele>709.59</ele>
        <time>2012-08-04T14:02:55Z</time>
      </trkpt>
      <trkpt lat="46.1315" lon="8.50598">
        <ele>711.03</ele>
        <time>2012-08-04T14:02:57Z</time>
      </trkpt>
      <trkpt lat="46.13176" lon="8.50422">
        <ele>712.47</ele>
        <time>2012-08-04T14:03:04Z</time>
      </trkpt>
      <trkpt lat="46.13177" lon="8.50397">
        <ele>711.99</ele>
        <time>2012-08-04T14:03:05Z</time>
      </trkpt>
      <trkpt lat="46.13179" lon="8.50296">
        <ele>711.03</ele>
        <time>2012-08-04T14:03:10Z</time>
      </trkpt>
      <trkpt lat="46.13175" lon="8.50277">
        <ele>711.51</ele>
        <time>2012-08-04T14:03:11Z</time>
      </trkpt>
      <trkpt lat="46.1317" lon="8.50259">
        <ele>711.51</ele>
        <time>2012-08-04T14:03:12Z</time>
      </trkpt>
      <trkpt lat="46.13162" lon="8.5024">
        <ele>712.47</ele>
        <time>2012-08-04T14:03:13Z</time>
      </trkpt>
      <trkpt lat="46.13152" lon="8.50219">
        <ele>713.92</ele>
        <time>2012-08-04T14:03:14Z</time>
      </trkpt>
      <trkpt lat="46.13121" lon="8.50146">
        <ele>717.28</ele>
        <time>2012-08-04T14:03:17Z</time>
      </trkpt>
      <trkpt lat="46.13087" lon="8.5006">
        <ele>715.84</ele>
        <time>2012-08-04T14:03:21Z</time>
      </trkpt>
      <trkpt lat="46.13083" lon="8.50038">
        <ele>716.8</ele>
        <time>2012-08-04T14:03:22Z</time>
      </trkpt>
      <trkpt lat="46.1308" lon="8.50015">
        <ele>718.24</ele>
        <time>2012-08-04T14:03:23Z</time>
      </trkpt>
      <trkpt lat="46.13068" lon="8.4992">
        <ele>719.68</ele>
        <time>2012-08-04T14:03:28Z</time>
      </trkpt>
      <trkpt lat="46.13064" lon="8.49907">
        <ele>720.16</ele>
        <time>2012-08-04T14:03:29Z</time>
      </trkpt>
      <trkpt lat="46.13059" lon="8.49895">
        <ele>721.61</ele>
        <time>2012-08-04T14:03:30Z</time>
      </trkpt>
      <trkpt lat="46.13053" lon="8.49884">
        <ele>721.13</ele>
        <time>2012-08-04T14:03:31Z</time>
      </trkpt>
      <trkpt lat="46.13047" lon="8.49874">
        <ele>722.09</ele>
        <time>2012-08-04T14:03:32Z</time>
      </trkpt>
      <trkpt lat="46.1304" lon="8.49865">
        <ele>722.57</ele>
        <time>2012-08-04T14:03:33Z</time>
      </trkpt>
      <trkpt lat="46.13032" lon="8.49858">
        <ele>723.05</ele>
        <time>2012-08-04T14:03:34Z</time>
      </trkpt>
      <trkpt lat="46.13024" lon="8.49852">
        <ele>723.53</ele>
        <time>2012-08-04T14:03:35Z</time>
      </trkpt>
      <trkpt lat="46.13014" lon="8.49848">
        <ele>724.01</ele>
        <time>2012-08-04T14:03:36Z</time>
      </trkpt>
      <trkpt lat="46.13004" lon="8.49845">
        <ele>724.49</ele>
        <time>2012-08-04T14:03:37Z</time>
      </trkpt>
      <trkpt lat="46.12995" lon="8.49842">
        <ele>724.49</ele>
        <time>2012-08-04T14:03:38Z</time>
      </trkpt>
      <trkpt lat="46.12986" lon="8.49838">
        <ele>724.97</ele>
        <time>2012-08-04T14:03:39Z</time>
      </trkpt>
      <trkpt lat="46.12978" lon="8.49834">
        <ele>725.45</ele>
        <time>2012-08-04T14:03:40Z</time>
      </trkpt>
      <trkpt lat="46.1297" lon="8.49828">
        <ele>726.41</ele>
        <time>2012-08-04T14:03:41Z</time>
      </trkpt>
      <trkpt lat="46.12963" lon="8.49823">
        <ele>726.41</ele>
        <time>2012-08-04T14:03:42Z</time>
      </trkpt>
      <trkpt lat="46.12942" lon="8.49808">
        <ele>727.86</ele>
        <time>2012-08-04T14:03:45Z</time>
      </trkpt>
      <trkpt lat="46.12936" lon="8.49804">
        <ele>727.37</ele>
        <time>2012-08-04T14:03:46Z</time>
      </trkpt>
      <trkpt lat="46.12928" lon="8.49802">
        <ele>727.37</ele>
        <time>2012-08-04T14:03:47Z</time>
      </trkpt>
      <trkpt lat="46.1292" lon="8.49802">
        <ele>728.34</ele>
        <time>2012-08-04T14:03:48Z</time>
      </trkpt>
      <trkpt lat="46.12912" lon="8.49802">
        <ele>728.34</ele>
        <time>2012-08-04T14:03:49Z</time>
      </trkpt>
      <trkpt lat="46.12902" lon="8.49804">
        <ele>729.3</ele>
        <time>2012-08-04T14:03:50Z</time>
      </trkpt>
      <trkpt lat="46.1288" lon="8.49807">
        <ele>730.26</ele>
        <time>2012-08-04T14:03:52Z</time>
      </trkpt>
      <trkpt lat="46.12831" lon="8.49805">
        <ele>730.74</ele>
        <time>2012-08-04T14:03:59Z</time>
      </trkpt>
      <trkpt lat="46.12802" lon="8.49801">
        <ele>733.14</ele>
        <time>2012-08-04T14:04:04Z</time>
      </trkpt>
      <trkpt lat="46.12795" lon="8.49798">
        <ele>733.14</ele>
        <time>2012-08-04T14:04:05Z</time>
      </trkpt>
      <trkpt lat="46.1277" lon="8.4978">
        <ele>732.66</ele>
        <time>2012-08-04T14:04:09Z</time>
      </trkpt>
      <trkpt lat="46.12766" lon="8.49773">
        <ele>732.66</ele>
        <time>2012-08-04T14:04:10Z</time>
      </trkpt>
      <trkpt lat="46.12764" lon="8.49765">
        <ele>732.18</ele>
        <time>2012-08-04T14:04:11Z</time>
      </trkpt>
      <trkpt lat="46.12765" lon="8.49756">
        <ele>731.7</ele>
        <time>2012-08-04T14:04:12Z</time>
      </trkpt>
      <trkpt lat="46.12788" lon="8.49669">
        <ele>731.7</ele>
        <time>2012-08-04T14:04:18Z</time>
      </trkpt>
      <trkpt lat="46.12799" lon="8.49625">
        <ele>729.78</ele>
        <time>2012-08-04T14:04:21Z</time>
      </trkpt>
      <trkpt lat="46.12837" lon="8.49479">
        <ele>728.82</ele>
        <time>2012-08-04T14:04:31Z</time>
      </trkpt>
      <trkpt lat="46.12882" lon="8.49307">
        <ele>730.74</ele>
        <time>2012-08-04T14:04:43Z</time>
      </trkpt>
      <trkpt lat="46.1292" lon="8.4916">
        <ele>733.62</ele>
        <time>2012-08-04T14:04:53Z</time>
      </trkpt>
      <trkpt lat="46.12925" lon="8.49141">
        <ele>734.1</ele>
        <time>2012-08-04T14:04:54Z</time>
      </trkpt>
      <trkpt lat="46.12957" lon="8.49023">
        <ele>735.07</ele>
        <time>2012-08-04T14:05:02Z</time>
      </trkpt>
      <trkpt lat="46.12964" lon="8.48996">
        <ele>736.03</ele>
        <time>2012-08-04T14:05:04Z</time>
      </trkpt>
      <trkpt lat="46.12998" lon="8.48864">
        <ele>739.39</ele>
        <time>2012-08-04T14:05:13Z</time>
      </trkpt>
      <trkpt lat="46.13018" lon="8.48786">
        <ele>740.83</ele>
        <time>2012-08-04T14:05:18Z</time>
      </trkpt>
      <trkpt lat="46.1305" lon="8.48665">
        <ele>742.76</ele>
        <time>2012-08-04T14:05:27Z</time>
      </trkpt>
      <trkpt lat="46.13062" lon="8.48622">
        <ele>744.68</ele>
        <time>2012-08-04T14:05:30Z</time>
      </trkpt>
      <trkpt lat="46.13081" lon="8.4855">
        <ele>745.16</ele>
        <time>2012-08-04T14:05:37Z</time>
      </trkpt>
      <trkpt lat="46.13093" lon="8.48504">
        <ele>747.08</ele>
        <time>2012-08-04T14:05:42Z</time>
      </trkpt>
      <trkpt lat="46.13121" lon="8.48395">
        <ele>749.49</ele>
        <time>2012-08-04T14:05:52Z</time>
      </trkpt>
      <trkpt lat="46.13132" lon="8.48354">
        <ele>750.93</ele>
        <time>2012-08-04T14:05:56Z</time>
      </trkpt>
      <trkpt lat="46.13156" lon="8.48264">
        <ele>754.29</ele>
        <time>2012-08-04T14:06:03Z</time>
      </trkpt>
      <trkpt lat="46.1318" lon="8.48171">
        <ele>757.66</ele>
        <time>2012-08-04T14:06:09Z</time>
      </trkpt>
      <trkpt lat="46.13188" lon="8.4814">
        <ele>758.62</ele>
        <time>2012-08-04T14:06:11Z</time>
      </trkpt>
      <trkpt lat="46.13218" lon="8.48022">
        <ele>761.98</ele>
        <time>2012-08-04T14:06:20Z</time>
      </trkpt>
      <trkpt lat="46.13236" lon="8.47954">
        <ele>762.94</ele>
        <time>2012-08-04T14:06:25Z</time>
      </trkpt>
      <trkpt lat="46.13265" lon="8.47838">
        <ele>766.31</ele>
        <time>2012-08-04T14:06:34Z</time>
      </trkpt>
      <trkpt lat="46.13289" lon="8.47755">
        <ele>768.71</ele>
        <time>2012-08-04T14:06:41Z</time>
      </trkpt>
      <trkpt lat="46.13293" lon="8.47746">
        <ele>768.71</ele>
        <time>2012-08-04T14:06:42Z</time>
      </trkpt>
      <trkpt lat="46.133" lon="8.47729">
        <ele>769.19</ele>
        <time>2012-08-04T14:06:44Z</time>
      </trkpt>
      <trkpt lat="46.13303" lon="8.47719">
        <ele>770.15</ele>
        <time>2012-08-04T14:06:45Z</time>
      </trkpt>
      <trkpt lat="46.13319" lon="8.47634">
        <ele>773.52</ele>
        <time>2012-08-04T14:06:51Z</time>
      </trkpt>
      <trkpt lat="46.13346" lon="8.47518">
        <ele>775.44</ele>
        <time>2012-08-04T14:07:01Z</time>
      </trkpt>
      <trkpt lat="46.13368" lon="8.47438">
        <ele>777.84</ele>
        <time>2012-08-04T14:07:08Z</time>
      </trkpt>
      <trkpt lat="46.13377" lon="8.474">
        <ele>779.77</ele>
        <time>2012-08-04T14:07:11Z</time>
      </trkpt>
      <trkpt lat="46.13403" lon="8.47306">
        <ele>782.65</ele>
        <time>2012-08-04T14:07:20Z</time>
      </trkpt>
      <trkpt lat="46.13404" lon="8.47297">
        <ele>783.13</ele>
        <time>2012-08-04T14:07:21Z</time>
      </trkpt>
      <trkpt lat="46.13404" lon="8.47287">
        <ele>783.13</ele>
        <time>2012-08-04T14:07:22Z</time>
      </trkpt>
      <trkpt lat="46.13403" lon="8.47277">
        <ele>783.61</ele>
        <time>2012-08-04T14:07:23Z</time>
      </trkpt>
      <trkpt lat="46.134" lon="8.47266">
        <ele>784.09</ele>
        <time>2012-08-04T14:07:24Z</time>
      </trkpt>
      <trkpt lat="46.13379" lon="8.47145">
        <ele>786.02</ele>
        <time>2012-08-04T14:07:35Z</time>
      </trkpt>
      <trkpt lat="46.13381" lon="8.47068">
        <ele>788.42</ele>
        <time>2012-08-04T14:07:41Z</time>
      </trkpt>
      <trkpt lat="46.13394" lon="8.46923">
        <ele>790.82</ele>
        <time>2012-08-04T14:07:52Z</time>
      </trkpt>
      <trkpt lat="46.13403" lon="8.46842">
        <ele>795.15</ele>
        <time>2012-08-04T14:08:00Z</time>
      </trkpt>
      <trkpt lat="46.13411" lon="8.46774">
        <ele>797.07</ele>
        <time>2012-08-04T14:08:03Z</time>
      </trkpt>
      <trkpt lat="46.1341" lon="8.46628">
        <ele>797.55</ele>
        <time>2012-08-04T14:08:11Z</time>
      </trkpt>
      <trkpt lat="46.13397" lon="8.46433">
        <ele>798.03</ele>
        <time>2012-08-04T14:08:24Z</time>
      </trkpt>
      <trkpt lat="46.13393" lon="8.46344">
        <ele>798.51</ele>
        <time>2012-08-04T14:08:33Z</time>
      </trkpt>
      <trkpt lat="46.13386" lon="8.46225">
        <ele>798.99</ele>
        <time>2012-08-04T14:08:44Z</time>
      </trkpt>
      <trkpt lat="46.13379" lon="8.46078">
        <ele>800.44</ele>
        <time>2012-08-04T14:08:56Z</time>
      </trkpt>
      <trkpt lat="46.13388" lon="8.45984">
        <ele>799.47</ele>
        <time>2012-08-04T14:09:07Z</time>
      </trkpt>
      <trkpt lat="46.13393" lon="8.4597">
        <ele>799.95</ele>
        <time>2012-08-04T14:09:11Z</time>
      </trkpt>
      <trkpt lat="46.13394" lon="8.45961">
        <ele>800.44</ele>
        <time>2012-08-04T14:09:12Z</time>
      </trkpt>
      <trkpt lat="46.13394" lon="8.45951">
        <ele>800.44</ele>
        <time>2012-08-04T14:09:13Z</time>
      </trkpt>
      <trkpt lat="46.13387" lon="8.4585">
        <ele>802.84</ele>
        <time>2012-08-04T14:09:19Z</time>
      </trkpt>
      <trkpt lat="46.13389" lon="8.45665">
        <ele>801.4</ele>
        <time>2012-08-04T14:09:29Z</time>
      </trkpt>
      <trkpt lat="46.13413" lon="8.45413">
        <ele>799.47</ele>
        <time>2012-08-04T14:09:41Z</time>
      </trkpt>
      <trkpt lat="46.13442" lon="8.45126">
        <ele>801.4</ele>
        <time>2012-08-04T14:09:56Z</time>
      </trkpt>
      <trkpt lat="46.1348" lon="8.44988">
        <ele>803.32</ele>
        <time>2012-08-04T14:10:03Z</time>
      </trkpt>
      <trkpt lat="46.13576" lon="8.44758">
        <ele>804.76</ele>
        <time>2012-08-04T14:10:15Z</time>
      </trkpt>
      <trkpt lat="46.13595" lon="8.44704">
        <ele>804.76</ele>
        <time>2012-08-04T14:10:18Z</time>
      </trkpt>
      <trkpt lat="46.13599" lon="8.44685">
        <ele>805.24</ele>
        <time>2012-08-04T14:10:19Z</time>
      </trkpt>
      <trkpt lat="46.13602" lon="8.44664">
        <ele>805.72</ele>
        <time>2012-08-04T14:10:20Z</time>
      </trkpt>
      <trkpt lat="46.13602" lon="8.44642">
        <ele>806.2</ele>
        <time>2012-08-04T14:10:21Z</time>
      </trkpt>
      <trkpt lat="46.136" lon="8.4462">
        <ele>806.68</ele>
        <time>2012-08-04T14:10:22Z</time>
      </trkpt>
      <trkpt lat="46.13597" lon="8.44598">
        <ele>807.16</ele>
        <time>2012-08-04T14:10:23Z</time>
      </trkpt>
      <trkpt lat="46.13593" lon="8.44576">
        <ele>807.16</ele>
        <time>2012-08-04T14:10:24Z</time>
      </trkpt>
      <trkpt lat="46.13564" lon="8.44444">
        <ele>807.64</ele>
        <time>2012-08-04T14:10:32Z</time>
      </trkpt>
      <trkpt lat="46.13551" lon="8.44403">
        <ele>808.13</ele>
        <time>2012-08-04T14:10:35Z</time>
      </trkpt>
      <trkpt lat="46.13544" lon="8.44391">
        <ele>809.09</ele>
        <time>2012-08-04T14:10:36Z</time>
      </trkpt>
      <trkpt lat="46.13535" lon="8.4438">
        <ele>809.57</ele>
        <time>2012-08-04T14:10:37Z</time>
      </trkpt>
      <trkpt lat="46.135" lon="8.44342">
        <ele>810.05</ele>
        <time>2012-08-04T14:10:41Z</time>
      </trkpt>
      <trkpt lat="46.13438" lon="8.44256">
        <ele>813.41</ele>
        <time>2012-08-04T14:10:49Z</time>
      </trkpt>
      <trkpt lat="46.13397" lon="8.44187">
        <ele>813.89</ele>
        <time>2012-08-04T14:10:54Z</time>
      </trkpt>
      <trkpt lat="46.13392" lon="8.44172">
        <ele>814.85</ele>
        <time>2012-08-04T14:10:55Z</time>
      </trkpt>
      <trkpt lat="46.13388" lon="8.44156">
        <ele>814.85</ele>
        <time>2012-08-04T14:10:56Z</time>
      </trkpt>
      <trkpt lat="46.13385" lon="8.44139">
        <ele>815.34</ele>
        <time>2012-08-04T14:10:57Z</time>
      </trkpt>
      <trkpt lat="46.13385" lon="8.44121">
        <ele>815.34</ele>
        <time>2012-08-04T14:10:58Z</time>
      </trkpt>
      <trkpt lat="46.13386" lon="8.44102">
        <ele>816.78</ele>
        <time>2012-08-04T14:10:59Z</time>
      </trkpt>
      <trkpt lat="46.13388" lon="8.44082">
        <ele>817.26</ele>
        <time>2012-08-04T14:11:00Z</time>
      </trkpt>
      <trkpt lat="46.13392" lon="8.4406">
        <ele>818.22</ele>
        <time>2012-08-04T14:11:01Z</time>
      </trkpt>
      <trkpt lat="46.13412" lon="8.43966">
        <ele>820.62</ele>
        <time>2012-08-04T14:11:05Z</time>
      </trkpt>
      <trkpt lat="46.13444" lon="8.43821">
        <ele>820.14</ele>
        <time>2012-08-04T14:11:13Z</time>
      </trkpt>
      <trkpt lat="46.13479" lon="8.43655">
        <ele>823.03</ele>
        <time>2012-08-04T14:11:25Z</time>
      </trkpt>
      <trkpt lat="46.13491" lon="8.43527">
        <ele>820.62</ele>
        <time>2012-08-04T14:11:34Z</time>
      </trkpt>
      <trkpt lat="46.13481" lon="8.43412">
        <ele>817.74</ele>
        <time>2012-08-04T14:11:45Z</time>
      </trkpt>
      <trkpt lat="46.13452" lon="8.43275">
        <ele>815.34</ele>
        <time>2012-08-04T14:11:56Z</time>
      </trkpt>
      <trkpt lat="46.13377" lon="8.43096">
        <ele>812.45</ele>
        <time>2012-08-04T14:12:09Z</time>
      </trkpt>
      <trkpt lat="46.13288" lon="8.42889">
        <ele>809.57</ele>
        <time>2012-08-04T14:12:22Z</time>
      </trkpt>
      <trkpt lat="46.13211" lon="8.42703">
        <ele>808.13</ele>
        <time>2012-08-04T14:12:33Z</time>
      </trkpt>
      <trkpt lat="46.13207" lon="8.42683">
        <ele>808.13</ele>
        <time>2012-08-04T14:12:34Z</time>
      </trkpt>
      <trkpt lat="46.13175" lon="8.42466">
        <ele>805.24</ele>
        <time>2012-08-04T14:12:44Z</time>
      </trkpt>
      <trkpt lat="46.13165" lon="8.42378">
        <ele>801.4</ele>
        <time>2012-08-04T14:12:48Z</time>
      </trkpt>
      <trkpt lat="46.13164" lon="8.42356">
        <ele>801.4</ele>
        <time>2012-08-04T14:12:49Z</time>
      </trkpt>
      <trkpt lat="46.13166" lon="8.4231">
        <ele>799.47</ele>
        <time>2012-08-04T14:12:51Z</time>
      </trkpt>
      <trkpt lat="46.13169" lon="8.42288">
        <ele>798.03</ele>
        <time>2012-08-04T14:12:52Z</time>
      </trkpt>
      <trkpt lat="46.13173" lon="8.42265">
        <ele>797.55</ele>
        <time>2012-08-04T14:12:53Z</time>
      </trkpt>
      <trkpt lat="46.13183" lon="8.42223">
        <ele>794.19</ele>
        <time>2012-08-04T14:12:55Z</time>
      </trkpt>
      <trkpt lat="46.13199" lon="8.42161">
        <ele>789.86</ele>
        <time>2012-08-04T14:12:58Z</time>
      </trkpt>
      <trkpt lat="46.13213" lon="8.42101">
        <ele>786.02</ele>
        <time>2012-08-04T14:13:01Z</time>
      </trkpt>
      <trkpt lat="46.13215" lon="8.42081">
        <ele>785.05</ele>
        <time>2012-08-04T14:13:02Z</time>
      </trkpt>
      <trkpt lat="46.13216" lon="8.4206">
        <ele>784.09</ele>
        <time>2012-08-04T14:13:03Z</time>
      </trkpt>
      <trkpt lat="46.13215" lon="8.42039">
        <ele>783.13</ele>
        <time>2012-08-04T14:13:04Z</time>
      </trkpt>
      <trkpt lat="46.13212" lon="8.42018">
        <ele>782.17</ele>
        <time>2012-08-04T14:13:05Z</time>
      </trkpt>
      <trkpt lat="46.13207" lon="8.41996">
        <ele>780.73</ele>
        <time>2012-08-04T14:13:06Z</time>
      </trkpt>
      <trkpt lat="46.13202" lon="8.41975">
        <ele>778.81</ele>
        <time>2012-08-04T14:13:07Z</time>
      </trkpt>
      <trkpt lat="46.1319" lon="8.4193">
        <ele>775.44</ele>
        <time>2012-08-04T14:13:09Z</time>
      </trkpt>
      <trkpt lat="46.13172" lon="8.41863">
        <ele>771.11</ele>
        <time>2012-08-04T14:13:12Z</time>
      </trkpt>
      <trkpt lat="46.13162" lon="8.41819">
        <ele>767.75</ele>
        <time>2012-08-04T14:13:14Z</time>
      </trkpt>
      <trkpt lat="46.13154" lon="8.4175">
        <ele>763.42</ele>
        <time>2012-08-04T14:13:17Z</time>
      </trkpt>
      <trkpt lat="46.13153" lon="8.41727">
        <ele>762.46</ele>
        <time>2012-08-04T14:13:18Z</time>
      </trkpt>
      <trkpt lat="46.13154" lon="8.41703">
        <ele>760.54</ele>
        <time>2012-08-04T14:13:19Z</time>
      </trkpt>
      <trkpt lat="46.1316" lon="8.4163">
        <ele>755.73</ele>
        <time>2012-08-04T14:13:22Z</time>
      </trkpt>
      <trkpt lat="46.13164" lon="8.4158">
        <ele>752.85</ele>
        <time>2012-08-04T14:13:24Z</time>
      </trkpt>
      <trkpt lat="46.13171" lon="8.41505">
        <ele>748.52</ele>
        <time>2012-08-04T14:13:27Z</time>
      </trkpt>
      <trkpt lat="46.13172" lon="8.4143">
        <ele>745.64</ele>
        <time>2012-08-04T14:13:30Z</time>
      </trkpt>
      <trkpt lat="46.1317" lon="8.41358">
        <ele>741.79</ele>
        <time>2012-08-04T14:13:33Z</time>
      </trkpt>
      <trkpt lat="46.13168" lon="8.41295">
        <ele>737.95</ele>
        <time>2012-08-04T14:13:36Z</time>
      </trkpt>
      <trkpt lat="46.13163" lon="8.4124">
        <ele>736.99</ele>
        <time>2012-08-04T14:13:39Z</time>
      </trkpt>
      <trkpt lat="46.13159" lon="8.41226">
        <ele>736.51</ele>
        <time>2012-08-04T14:13:40Z</time>
      </trkpt>
      <trkpt lat="46.13154" lon="8.41212">
        <ele>736.03</ele>
        <time>2012-08-04T14:13:41Z</time>
      </trkpt>
      <trkpt lat="46.13138" lon="8.41171">
        <ele>736.03</ele>
        <time>2012-08-04T14:13:44Z</time>
      </trkpt>
      <trkpt lat="46.1313" lon="8.41138">
        <ele>735.55</ele>
        <time>2012-08-04T14:13:46Z</time>
      </trkpt>
      <trkpt lat="46.13119" lon="8.41033">
        <ele>732.66</ele>
        <time>2012-08-04T14:13:52Z</time>
      </trkpt>
      <trkpt lat="46.13119" lon="8.41">
        <ele>731.22</ele>
        <time>2012-08-04T14:13:54Z</time>
      </trkpt>
      <trkpt lat="46.13122" lon="8.40983">
        <ele>730.74</ele>
        <time>2012-08-04T14:13:55Z</time>
      </trkpt>
      <trkpt lat="46.13126" lon="8.40968">
        <ele>730.26</ele>
        <time>2012-08-04T14:13:56Z</time>
      </trkpt>
      <trkpt lat="46.13133" lon="8.40939">
        <ele>729.78</ele>
        <time>2012-08-04T14:13:58Z</time>
      </trkpt>
      <trkpt lat="46.13134" lon="8.40924">
        <ele>729.78</ele>
        <time>2012-08-04T14:13:59Z</time>
      </trkpt>
      <trkpt lat="46.13134" lon="8.40892">
        <ele>728.34</ele>
        <time>2012-08-04T14:14:01Z</time>
      </trkpt>
      <trkpt lat="46.13133" lon="8.40874">
        <ele>727.37</ele>
        <time>2012-08-04T14:14:02Z</time>
      </trkpt>
      <trkpt lat="46.13129" lon="8.40854">
        <ele>727.37</ele>
        <time>2012-08-04T14:14:03Z</time>
      </trkpt>
      <trkpt lat="46.13122" lon="8.40832">
        <ele>728.34</ele>
        <time>2012-08-04T14:14:04Z</time>
      </trkpt>
      <trkpt lat="46.13113" lon="8.40811">
        <ele>725.93</ele>
        <time>2012-08-04T14:14:05Z</time>
      </trkpt>
      <trkpt lat="46.13105" lon="8.40792">
        <ele>725.45</ele>
        <time>2012-08-04T14:14:06Z</time>
      </trkpt>
      <trkpt lat="46.13101" lon="8.40769">
        <ele>724.49</ele>
        <time>2012-08-04T14:14:07Z</time>
      </trkpt>
      <trkpt lat="46.13101" lon="8.40742">
        <ele>725.45</ele>
        <time>2012-08-04T14:14:08Z</time>
      </trkpt>
      <trkpt lat="46.13103" lon="8.40713">
        <ele>726.89</ele>
        <time>2012-08-04T14:14:09Z</time>
      </trkpt>
      <trkpt lat="46.13112" lon="8.40618">
        <ele>727.37</ele>
        <time>2012-08-04T14:14:12Z</time>
      </trkpt>
      <trkpt lat="46.13116" lon="8.40592">
        <ele>726.41</ele>
        <time>2012-08-04T14:14:13Z</time>
      </trkpt>
      <trkpt lat="46.1312" lon="8.4057">
        <ele>725.45</ele>
        <time>2012-08-04T14:14:14Z</time>
      </trkpt>
      <trkpt lat="46.13127" lon="8.40542">
        <ele>724.01</ele>
        <time>2012-08-04T14:14:16Z</time>
      </trkpt>
      <trkpt lat="46.13126" lon="8.4053">
        <ele>724.49</ele>
        <time>2012-08-04T14:14:17Z</time>
      </trkpt>
      <trkpt lat="46.1312" lon="8.40519">
        <ele>725.45</ele>
        <time>2012-08-04T14:14:18Z</time>
      </trkpt>
      <trkpt lat="46.13106" lon="8.40489">
        <ele>725.45</ele>
        <time>2012-08-04T14:14:20Z</time>
      </trkpt>
      <trkpt lat="46.131" lon="8.4047">
        <ele>725.45</ele>
        <time>2012-08-04T14:14:21Z</time>
      </trkpt>
      <trkpt lat="46.13081" lon="8.40398">
        <ele>724.01</ele>
        <time>2012-08-04T14:14:24Z</time>
      </trkpt>
      <trkpt lat="46.13072" lon="8.40378">
        <ele>721.61</ele>
        <time>2012-08-04T14:14:25Z</time>
      </trkpt>
      <trkpt lat="46.13059" lon="8.40337">
        <ele>719.68</ele>
        <time>2012-08-04T14:14:27Z</time>
      </trkpt>
      <trkpt lat="46.13051" lon="8.40288">
        <ele>717.76</ele>
        <time>2012-08-04T14:14:29Z</time>
      </trkpt>
      <trkpt lat="46.1305" lon="8.40245">
        <ele>714.4</ele>
        <time>2012-08-04T14:14:31Z</time>
      </trkpt>
      <trkpt lat="46.13043" lon="8.40215">
        <ele>713.44</ele>
        <time>2012-08-04T14:14:32Z</time>
      </trkpt>
      <trkpt lat="46.13036" lon="8.40195">
        <ele>711.51</ele>
        <time>2012-08-04T14:14:33Z</time>
      </trkpt>
      <trkpt lat="46.13029" lon="8.40177">
        <ele>709.59</ele>
        <time>2012-08-04T14:14:34Z</time>
      </trkpt>
      <trkpt lat="46.13023" lon="8.40159">
        <ele>708.15</ele>
        <time>2012-08-04T14:14:35Z</time>
      </trkpt>
      <trkpt lat="46.13019" lon="8.40139">
        <ele>706.71</ele>
        <time>2012-08-04T14:14:36Z</time>
      </trkpt>
      <trkpt lat="46.13019" lon="8.40116">
        <ele>706.71</ele>
        <time>2012-08-04T14:14:37Z</time>
      </trkpt>
      <trkpt lat="46.13021" lon="8.40091">
        <ele>706.23</ele>
        <time>2012-08-04T14:14:38Z</time>
      </trkpt>
      <trkpt lat="46.13026" lon="8.40037">
        <ele>703.82</ele>
        <time>2012-08-04T14:14:40Z</time>
      </trkpt>
      <trkpt lat="46.13025" lon="8.40008">
        <ele>703.82</ele>
        <time>2012-08-04T14:14:41Z</time>
      </trkpt>
      <trkpt lat="46.13022" lon="8.39979">
        <ele>702.86</ele>
        <time>2012-08-04T14:14:42Z</time>
      </trkpt>
      <trkpt lat="46.13009" lon="8.39858">
        <ele>699.5</ele>
        <time>2012-08-04T14:14:46Z</time>
      </trkpt>
      <trkpt lat="46.12994" lon="8.39731">
        <ele>696.61</ele>
        <time>2012-08-04T14:14:51Z</time>
      </trkpt>
      <trkpt lat="46.12987" lon="8.39687">
        <ele>695.17</ele>
        <time>2012-08-04T14:14:53Z</time>
      </trkpt>
      <trkpt lat="46.1298" lon="8.39666">
        <ele>695.65</ele>
        <time>2012-08-04T14:14:54Z</time>
      </trkpt>
      <trkpt lat="46.12971" lon="8.39645">
        <ele>696.13</ele>
        <time>2012-08-04T14:14:55Z</time>
      </trkpt>
      <trkpt lat="46.12911" lon="8.3952">
        <ele>693.25</ele>
        <time>2012-08-04T14:15:02Z</time>
      </trkpt>
      <trkpt lat="46.12902" lon="8.39499">
        <ele>692.29</ele>
        <time>2012-08-04T14:15:03Z</time>
      </trkpt>
      <trkpt lat="46.12886" lon="8.39462">
        <ele>691.81</ele>
        <time>2012-08-04T14:15:06Z</time>
      </trkpt>
      <trkpt lat="46.12877" lon="8.39448">
        <ele>692.29</ele>
        <time>2012-08-04T14:15:07Z</time>
      </trkpt>
      <trkpt lat="46.12866" lon="8.39436">
        <ele>692.77</ele>
        <time>2012-08-04T14:15:08Z</time>
      </trkpt>
      <trkpt lat="46.12854" lon="8.39425">
        <ele>691.81</ele>
        <time>2012-08-04T14:15:09Z</time>
      </trkpt>
      <trkpt lat="46.12842" lon="8.39416">
        <ele>691.33</ele>
        <time>2012-08-04T14:15:10Z</time>
      </trkpt>
      <trkpt lat="46.12833" lon="8.39411">
        <ele>690.36</ele>
        <time>2012-08-04T14:15:11Z</time>
      </trkpt>
      <trkpt lat="46.12807" lon="8.3939">
        <ele>688.44</ele>
        <time>2012-08-04T14:15:13Z</time>
      </trkpt>
      <trkpt lat="46.12797" lon="8.39378">
        <ele>688.44</ele>
        <time>2012-08-04T14:15:14Z</time>
      </trkpt>
      <trkpt lat="46.12788" lon="8.39364">
        <ele>687.48</ele>
        <time>2012-08-04T14:15:15Z</time>
      </trkpt>
      <trkpt lat="46.12781" lon="8.39348">
        <ele>686.52</ele>
        <time>2012-08-04T14:15:16Z</time>
      </trkpt>
      <trkpt lat="46.12775" lon="8.39331">
        <ele>685.56</ele>
        <time>2012-08-04T14:15:17Z</time>
      </trkpt>
      <trkpt lat="46.12771" lon="8.39311">
        <ele>684.6</ele>
        <time>2012-08-04T14:15:18Z</time>
      </trkpt>
      <trkpt lat="46.1276" lon="8.39232">
        <ele>681.71</ele>
        <time>2012-08-04T14:15:22Z</time>
      </trkpt>
      <trkpt lat="46.12755" lon="8.39213">
        <ele>680.75</ele>
        <time>2012-08-04T14:15:23Z</time>
      </trkpt>
      <trkpt lat="46.12736" lon="8.39163">
        <ele>679.31</ele>
        <time>2012-08-04T14:15:26Z</time>
      </trkpt>
      <trkpt lat="46.12732" lon="8.39146">
        <ele>678.35</ele>
        <time>2012-08-04T14:15:27Z</time>
      </trkpt>
      <trkpt lat="46.1273" lon="8.39129">
        <ele>678.35</ele>
        <time>2012-08-04T14:15:28Z</time>
      </trkpt>
      <trkpt lat="46.12728" lon="8.39111">
        <ele>677.39</ele>
        <time>2012-08-04T14:15:29Z</time>
      </trkpt>
      <trkpt lat="46.12728" lon="8.39045">
        <ele>674.02</ele>
        <time>2012-08-04T14:15:33Z</time>
      </trkpt>
      <trkpt lat="46.12728" lon="8.39023">
        <ele>672.1</ele>
        <time>2012-08-04T14:15:34Z</time>
      </trkpt>
      <trkpt lat="46.12729" lon="8.39005">
        <ele>671.14</ele>
        <time>2012-08-04T14:15:35Z</time>
      </trkpt>
      <trkpt lat="46.12732" lon="8.38988">
        <ele>670.18</ele>
        <time>2012-08-04T14:15:36Z</time>
      </trkpt>
      <trkpt lat="46.12737" lon="8.38971">
        <ele>669.22</ele>
        <time>2012-08-04T14:15:37Z</time>
      </trkpt>
      <trkpt lat="46.12744" lon="8.38953">
        <ele>668.73</ele>
        <time>2012-08-04T14:15:38Z</time>
      </trkpt>
      <trkpt lat="46.12753" lon="8.38935">
        <ele>667.77</ele>
        <time>2012-08-04T14:15:39Z</time>
      </trkpt>
      <trkpt lat="46.12784" lon="8.38883">
        <ele>663.93</ele>
        <time>2012-08-04T14:15:42Z</time>
      </trkpt>
      <trkpt lat="46.12802" lon="8.38849">
        <ele>661.52</ele>
        <time>2012-08-04T14:15:44Z</time>
      </trkpt>
      <trkpt lat="46.12809" lon="8.3883">
        <ele>660.56</ele>
        <time>2012-08-04T14:15:45Z</time>
      </trkpt>
      <trkpt lat="46.12814" lon="8.38808">
        <ele>660.08</ele>
        <time>2012-08-04T14:15:46Z</time>
      </trkpt>
      <trkpt lat="46.12817" lon="8.38783">
        <ele>658.64</ele>
        <time>2012-08-04T14:15:47Z</time>
      </trkpt>
      <trkpt lat="46.12817" lon="8.38758">
        <ele>657.68</ele>
        <time>2012-08-04T14:15:48Z</time>
      </trkpt>
      <trkpt lat="46.12817" lon="8.38734">
        <ele>657.68</ele>
        <time>2012-08-04T14:15:49Z</time>
      </trkpt>
      <trkpt lat="46.12816" lon="8.3871">
        <ele>654.31</ele>
        <time>2012-08-04T14:15:50Z</time>
      </trkpt>
      <trkpt lat="46.12814" lon="8.38688">
        <ele>652.87</ele>
        <time>2012-08-04T14:15:51Z</time>
      </trkpt>
      <trkpt lat="46.12809" lon="8.38666">
        <ele>650.95</ele>
        <time>2012-08-04T14:15:52Z</time>
      </trkpt>
      <trkpt lat="46.12803" lon="8.38647">
        <ele>649.51</ele>
        <time>2012-08-04T14:15:53Z</time>
      </trkpt>
      <trkpt lat="46.12794" lon="8.38628">
        <ele>648.07</ele>
        <time>2012-08-04T14:15:54Z</time>
      </trkpt>
      <trkpt lat="46.12784" lon="8.38606">
        <ele>646.14</ele>
        <time>2012-08-04T14:15:55Z</time>
      </trkpt>
      <trkpt lat="46.12771" lon="8.38574">
        <ele>643.26</ele>
        <time>2012-08-04T14:15:57Z</time>
      </trkpt>
      <trkpt lat="46.12765" lon="8.38554">
        <ele>642.3</ele>
        <time>2012-08-04T14:15:58Z</time>
      </trkpt>
      <trkpt lat="46.1276" lon="8.38534">
        <ele>641.34</ele>
        <time>2012-08-04T14:15:59Z</time>
      </trkpt>
      <trkpt lat="46.12754" lon="8.38501">
        <ele>637.97</ele>
        <time>2012-08-04T14:16:01Z</time>
      </trkpt>
      <trkpt lat="46.12745" lon="8.38425">
        <ele>634.61</ele>
        <time>2012-08-04T14:16:04Z</time>
      </trkpt>
      <trkpt lat="46.12742" lon="8.38378">
        <ele>631.72</ele>
        <time>2012-08-04T14:16:06Z</time>
      </trkpt>
      <trkpt lat="46.12744" lon="8.38324">
        <ele>628.36</ele>
        <time>2012-08-04T14:16:09Z</time>
      </trkpt>
      <trkpt lat="46.12744" lon="8.38311">
        <ele>626.92</ele>
        <time>2012-08-04T14:16:10Z</time>
      </trkpt>
      <trkpt lat="46.12743" lon="8.38267">
        <ele>624.03</ele>
        <time>2012-08-04T14:16:12Z</time>
      </trkpt>
      <trkpt lat="46.12739" lon="8.38249">
        <ele>622.59</ele>
        <time>2012-08-04T14:16:13Z</time>
      </trkpt>
      <trkpt lat="46.12734" lon="8.38232">
        <ele>622.11</ele>
        <time>2012-08-04T14:16:14Z</time>
      </trkpt>
      <trkpt lat="46.12726" lon="8.38216">
        <ele>621.15</ele>
        <time>2012-08-04T14:16:15Z</time>
      </trkpt>
      <trkpt lat="46.12716" lon="8.38199">
        <ele>619.71</ele>
        <time>2012-08-04T14:16:16Z</time>
      </trkpt>
      <trkpt lat="46.12706" lon="8.38183">
        <ele>618.75</ele>
        <time>2012-08-04T14:16:17Z</time>
      </trkpt>
      <trkpt lat="46.12681" lon="8.38134">
        <ele>614.42</ele>
        <time>2012-08-04T14:16:20Z</time>
      </trkpt>
      <trkpt lat="46.12677" lon="8.38123">
        <ele>613.46</ele>
        <time>2012-08-04T14:16:21Z</time>
      </trkpt>
      <trkpt lat="46.1267" lon="8.38098">
        <ele>612.5</ele>
        <time>2012-08-04T14:16:22Z</time>
      </trkpt>
      <trkpt lat="46.12669" lon="8.38076">
        <ele>612.02</ele>
        <time>2012-08-04T14:16:23Z</time>
      </trkpt>
      <trkpt lat="46.12668" lon="8.38054">
        <ele>610.57</ele>
        <time>2012-08-04T14:16:24Z</time>
      </trkpt>
      <trkpt lat="46.12667" lon="8.38033">
        <ele>609.61</ele>
        <time>2012-08-04T14:16:25Z</time>
      </trkpt>
      <trkpt lat="46.12669" lon="8.3801">
        <ele>608.17</ele>
        <time>2012-08-04T14:16:26Z</time>
      </trkpt>
      <trkpt lat="46.12672" lon="8.37987">
        <ele>606.73</ele>
        <time>2012-08-04T14:16:27Z</time>
      </trkpt>
      <trkpt lat="46.12684" lon="8.37924">
        <ele>602.88</ele>
        <time>2012-08-04T14:16:30Z</time>
      </trkpt>
      <trkpt lat="46.12688" lon="8.37908">
        <ele>601.92</ele>
        <time>2012-08-04T14:16:31Z</time>
      </trkpt>
      <trkpt lat="46.12704" lon="8.37865">
        <ele>598.56</ele>
        <time>2012-08-04T14:16:33Z</time>
      </trkpt>
      <trkpt lat="46.12725" lon="8.37807">
        <ele>596.15</ele>
        <time>2012-08-04T14:16:36Z</time>
      </trkpt>
      <trkpt lat="46.1273" lon="8.37786">
        <ele>594.71</ele>
        <time>2012-08-04T14:16:37Z</time>
      </trkpt>
      <trkpt lat="46.12734" lon="8.37764">
        <ele>593.75</ele>
        <time>2012-08-04T14:16:38Z</time>
      </trkpt>
      <trkpt lat="46.12754" lon="8.37642">
        <ele>590.87</ele>
        <time>2012-08-04T14:16:43Z</time>
      </trkpt>
      <trkpt lat="46.12756" lon="8.3751">
        <ele>594.23</ele>
        <time>2012-08-04T14:16:48Z</time>
      </trkpt>
      <trkpt lat="46.12721" lon="8.37465">
        <ele>591.35</ele>
        <time>2012-08-04T14:16:52Z</time>
      </trkpt>
      <trkpt lat="46.1272" lon="8.37459">
        <ele>588.46</ele>
        <time>2012-08-04T14:16:55Z</time>
      </trkpt>
      <trkpt lat="46.12721" lon="8.37456">
        <ele>586.06</ele>
        <time>2012-08-04T14:16:56Z</time>
      </trkpt>
      <trkpt lat="46.12721" lon="8.37448">
        <ele>581.73</ele>
        <time>2012-08-04T14:17:00Z</time>
      </trkpt>
      <trkpt lat="46.1272" lon="8.37441">
        <ele>575.97</ele>
        <time>2012-08-04T14:17:03Z</time>
      </trkpt>
      <trkpt lat="46.1272" lon="8.37437">
        <ele>572.6</ele>
        <time>2012-08-04T14:17:05Z</time>
      </trkpt>
      <trkpt lat="46.1272" lon="8.37431">
        <ele>569.72</ele>
        <time>2012-08-04T14:17:08Z</time>
      </trkpt>
      <trkpt lat="46.1272" lon="8.37425">
        <ele>564.91</ele>
        <time>2012-08-04T14:17:11Z</time>
      </trkpt>
      <trkpt lat="46.1272" lon="8.37423">
        <ele>560.59</ele>
        <time>2012-08-04T14:17:13Z</time>
      </trkpt>
      <trkpt lat="46.12719" lon="8.37417">
        <ele>555.3</ele>
        <time>2012-08-04T14:17:16Z</time>
      </trkpt>
      <trkpt lat="46.12719" lon="8.37413">
        <ele>551.93</ele>
        <time>2012-08-04T14:17:18Z</time>
      </trkpt>
      <trkpt lat="46.12719" lon="8.3741">
        <ele>549.05</ele>
        <time>2012-08-04T14:17:20Z</time>
      </trkpt>
      <trkpt lat="46.12503" lon="8.35665">
        <ele>469.74</ele>
        <time>2012-08-04T14:18:12Z</time>
      </trkpt>
      <trkpt lat="46.12505" lon="8.35645">
        <ele>469.26</ele>
        <time>2012-08-04T14:18:13Z</time>
      </trkpt>
      <trkpt lat="46.12507" lon="8.35626">
        <ele>468.3</ele>
        <time>2012-08-04T14:18:14Z</time>
      </trkpt>
      <trkpt lat="46.12506" lon="8.35607">
        <ele>467.82</ele>
        <time>2012-08-04T14:18:15Z</time>
      </trkpt>
      <trkpt lat="46.12505" lon="8.35589">
        <ele>467.34</ele>
        <time>2012-08-04T14:18:16Z</time>
      </trkpt>
      <trkpt lat="46.12503" lon="8.35547">
        <ele>465.9</ele>
        <time>2012-08-04T14:18:18Z</time>
      </trkpt>
      <trkpt lat="46.12504" lon="8.35526">
        <ele>465.42</ele>
        <time>2012-08-04T14:18:19Z</time>
      </trkpt>
      <trkpt lat="46.12513" lon="8.35465">
        <ele>462.53</ele>
        <time>2012-08-04T14:18:22Z</time>
      </trkpt>
      <trkpt lat="46.12523" lon="8.35428">
        <ele>460.61</ele>
        <time>2012-08-04T14:18:24Z</time>
      </trkpt>
      <trkpt lat="46.12529" lon="8.35412">
        <ele>460.61</ele>
        <time>2012-08-04T14:18:25Z</time>
      </trkpt>
      <trkpt lat="46.12536" lon="8.35398">
        <ele>460.13</ele>
        <time>2012-08-04T14:18:26Z</time>
      </trkpt>
      <trkpt lat="46.12548" lon="8.35369">
        <ele>460.13</ele>
        <time>2012-08-04T14:18:28Z</time>
      </trkpt>
      <trkpt lat="46.12552" lon="8.35353">
        <ele>460.61</ele>
        <time>2012-08-04T14:18:29Z</time>
      </trkpt>
      <trkpt lat="46.12554" lon="8.35337">
        <ele>460.61</ele>
        <time>2012-08-04T14:18:30Z</time>
      </trkpt>
      <trkpt lat="46.12553" lon="8.3532">
        <ele>460.13</ele>
        <time>2012-08-04T14:18:31Z</time>
      </trkpt>
      <trkpt lat="46.12548" lon="8.35302">
        <ele>461.09</ele>
        <time>2012-08-04T14:18:32Z</time>
      </trkpt>
      <trkpt lat="46.12541" lon="8.35284">
        <ele>462.05</ele>
        <time>2012-08-04T14:18:33Z</time>
      </trkpt>
      <trkpt lat="46.1247" lon="8.35118">
        <ele>460.13</ele>
        <time>2012-08-04T14:18:43Z</time>
      </trkpt>
      <trkpt lat="46.12458" lon="8.3509">
        <ele>459.65</ele>
        <time>2012-08-04T14:18:45Z</time>
      </trkpt>
      <trkpt lat="46.12455" lon="8.35073">
        <ele>459.17</ele>
        <time>2012-08-04T14:18:46Z</time>
      </trkpt>
      <trkpt lat="46.12455" lon="8.35056">
        <ele>458.69</ele>
        <time>2012-08-04T14:18:47Z</time>
      </trkpt>
      <trkpt lat="46.12457" lon="8.35038">
        <ele>457.72</ele>
        <time>2012-08-04T14:18:48Z</time>
      </trkpt>
      <trkpt lat="46.12462" lon="8.35022">
        <ele>457.72</ele>
        <time>2012-08-04T14:18:49Z</time>
      </trkpt>
      <trkpt lat="46.12468" lon="8.35008">
        <ele>456.76</ele>
        <time>2012-08-04T14:18:50Z</time>
      </trkpt>
      <trkpt lat="46.12475" lon="8.34993">
        <ele>455.32</ele>
        <time>2012-08-04T14:18:51Z</time>
      </trkpt>
      <trkpt lat="46.12479" lon="8.34976">
        <ele>454.84</ele>
        <time>2012-08-04T14:18:52Z</time>
      </trkpt>
      <trkpt lat="46.12483" lon="8.34958">
        <ele>453.88</ele>
        <time>2012-08-04T14:18:53Z</time>
      </trkpt>
      <trkpt lat="46.12484" lon="8.34939">
        <ele>452.92</ele>
        <time>2012-08-04T14:18:54Z</time>
      </trkpt>
      <trkpt lat="46.12484" lon="8.3492">
        <ele>451</ele>
        <time>2012-08-04T14:18:55Z</time>
      </trkpt>
      <trkpt lat="46.12484" lon="8.34902">
        <ele>451</ele>
        <time>2012-08-04T14:18:56Z</time>
      </trkpt>
      <trkpt lat="46.12483" lon="8.34884">
        <ele>449.55</ele>
        <time>2012-08-04T14:18:57Z</time>
      </trkpt>
      <trkpt lat="46.12478" lon="8.3485">
        <ele>447.15</ele>
        <time>2012-08-04T14:18:59Z</time>
      </trkpt>
      <trkpt lat="46.12477" lon="8.34833">
        <ele>446.19</ele>
        <time>2012-08-04T14:19:00Z</time>
      </trkpt>
      <trkpt lat="46.12478" lon="8.34816">
        <ele>444.27</ele>
        <time>2012-08-04T14:19:01Z</time>
      </trkpt>
      <trkpt lat="46.12482" lon="8.348">
        <ele>443.31</ele>
        <time>2012-08-04T14:19:02Z</time>
      </trkpt>
      <trkpt lat="46.12487" lon="8.34784">
        <ele>442.34</ele>
        <time>2012-08-04T14:19:03Z</time>
      </trkpt>
      <trkpt lat="46.12493" lon="8.34769">
        <ele>441.38</ele>
        <time>2012-08-04T14:19:04Z</time>
      </trkpt>
      <trkpt lat="46.12501" lon="8.34756">
        <ele>440.9</ele>
        <time>2012-08-04T14:19:05Z</time>
      </trkpt>
      <trkpt lat="46.1251" lon="8.34746">
        <ele>439.46</ele>
        <time>2012-08-04T14:19:06Z</time>
      </trkpt>
      <trkpt lat="46.12521" lon="8.34737">
        <ele>438.5</ele>
        <time>2012-08-04T14:19:07Z</time>
      </trkpt>
      <trkpt lat="46.12531" lon="8.3473">
        <ele>438.02</ele>
        <time>2012-08-04T14:19:08Z</time>
      </trkpt>
      <trkpt lat="46.12541" lon="8.34723">
        <ele>436.1</ele>
        <time>2012-08-04T14:19:09Z</time>
      </trkpt>
      <trkpt lat="46.1255" lon="8.34714">
        <ele>435.61</ele>
        <time>2012-08-04T14:19:10Z</time>
      </trkpt>
      <trkpt lat="46.12557" lon="8.34702">
        <ele>434.17</ele>
        <time>2012-08-04T14:19:11Z</time>
      </trkpt>
      <trkpt lat="46.12564" lon="8.34686">
        <ele>433.21</ele>
        <time>2012-08-04T14:19:12Z</time>
      </trkpt>
      <trkpt lat="46.1257" lon="8.34668">
        <ele>431.77</ele>
        <time>2012-08-04T14:19:13Z</time>
      </trkpt>
      <trkpt lat="46.12576" lon="8.34649">
        <ele>430.33</ele>
        <time>2012-08-04T14:19:14Z</time>
      </trkpt>
      <trkpt lat="46.12593" lon="8.34591">
        <ele>426.48</ele>
        <time>2012-08-04T14:19:17Z</time>
      </trkpt>
      <trkpt lat="46.12604" lon="8.34548">
        <ele>424.56</ele>
        <time>2012-08-04T14:19:19Z</time>
      </trkpt>
      <trkpt lat="46.12609" lon="8.34524">
        <ele>420.71</ele>
        <time>2012-08-04T14:19:22Z</time>
      </trkpt>
      <trkpt lat="46.12622" lon="8.34455">
        <ele>419.27</ele>
        <time>2012-08-04T14:19:23Z</time>
      </trkpt>
      <trkpt lat="46.1265" lon="8.34377">
        <ele>414.47</ele>
        <time>2012-08-04T14:19:27Z</time>
      </trkpt>
      <trkpt lat="46.12654" lon="8.34356">
        <ele>413.02</ele>
        <time>2012-08-04T14:19:28Z</time>
      </trkpt>
      <trkpt lat="46.12656" lon="8.34336">
        <ele>412.54</ele>
        <time>2012-08-04T14:19:29Z</time>
      </trkpt>
      <trkpt lat="46.12656" lon="8.34314">
        <ele>411.58</ele>
        <time>2012-08-04T14:19:30Z</time>
      </trkpt>
      <trkpt lat="46.12653" lon="8.34293">
        <ele>409.66</ele>
        <time>2012-08-04T14:19:31Z</time>
      </trkpt>
      <trkpt lat="46.12649" lon="8.34272">
        <ele>408.22</ele>
        <time>2012-08-04T14:19:32Z</time>
      </trkpt>
      <trkpt lat="46.12643" lon="8.34233">
        <ele>405.81</ele>
        <time>2012-08-04T14:19:34Z</time>
      </trkpt>
      <trkpt lat="46.12642" lon="8.34214">
        <ele>404.85</ele>
        <time>2012-08-04T14:19:35Z</time>
      </trkpt>
      <trkpt lat="46.12644" lon="8.34195">
        <ele>403.41</ele>
        <time>2012-08-04T14:19:36Z</time>
      </trkpt>
      <trkpt lat="46.12649" lon="8.34177">
        <ele>402.45</ele>
        <time>2012-08-04T14:19:37Z</time>
      </trkpt>
      <trkpt lat="46.12656" lon="8.3416">
        <ele>401.49</ele>
        <time>2012-08-04T14:19:38Z</time>
      </trkpt>
      <trkpt lat="46.12663" lon="8.34142">
        <ele>400.05</ele>
        <time>2012-08-04T14:19:39Z</time>
      </trkpt>
      <trkpt lat="46.12669" lon="8.34123">
        <ele>399.57</ele>
        <time>2012-08-04T14:19:40Z</time>
      </trkpt>
      <trkpt lat="46.12674" lon="8.34103">
        <ele>398.6</ele>
        <time>2012-08-04T14:19:41Z</time>
      </trkpt>
      <trkpt lat="46.12679" lon="8.34082">
        <ele>398.12</ele>
        <time>2012-08-04T14:19:42Z</time>
      </trkpt>
      <trkpt lat="46.12684" lon="8.34063">
        <ele>396.68</ele>
        <time>2012-08-04T14:19:43Z</time>
      </trkpt>
      <trkpt lat="46.12706" lon="8.34008">
        <ele>392.84</ele>
        <time>2012-08-04T14:19:46Z</time>
      </trkpt>
      <trkpt lat="46.12715" lon="8.3399">
        <ele>390.91</ele>
        <time>2012-08-04T14:19:47Z</time>
      </trkpt>
      <trkpt lat="46.13059" lon="8.33381">
        <ele>311.12</ele>
        <time>2012-08-04T14:26:43Z</time>
      </trkpt>
      <trkpt lat="46.13033" lon="8.33357">
        <ele>311.12</ele>
        <time>2012-08-04T14:27:09Z</time>
      </trkpt>
      <trkpt lat="46.13029" lon="8.33356">
        <ele>310.64</ele>
        <time>2012-08-04T14:27:34Z</time>
      </trkpt>
      <trkpt lat="46.1303" lon="8.33357">
        <ele>310.64</ele>
        <time>2012-08-04T14:27:40Z</time>
      </trkpt>
      <trkpt lat="46.13037" lon="8.33353">
        <ele>311.12</ele>
        <time>2012-08-04T14:27:43Z</time>
      </trkpt>
      <trkpt lat="46.13067" lon="8.33342">
        <ele>313.05</ele>
        <time>2012-08-04T14:27:47Z</time>
      </trkpt>
      <trkpt lat="46.13137" lon="8.33334">
        <ele>314.01</ele>
        <time>2012-08-04T14:27:52Z</time>
      </trkpt>
      <trkpt lat="46.13152" lon="8.33328">
        <ele>314.01</ele>
        <time>2012-08-04T14:27:53Z</time>
      </trkpt>
      <trkpt lat="46.13269" lon="8.33261">
        <ele>313.53</ele>
        <time>2012-08-04T14:28:02Z</time>
      </trkpt>
      <trkpt lat="46.13279" lon="8.3325">
        <ele>313.05</ele>
        <time>2012-08-04T14:28:03Z</time>
      </trkpt>
      <trkpt lat="46.13289" lon="8.33235">
        <ele>314.49</ele>
        <time>2012-08-04T14:28:04Z</time>
      </trkpt>
      <trkpt lat="46.13297" lon="8.33218">
        <ele>314.97</ele>
        <time>2012-08-04T14:28:05Z</time>
      </trkpt>
      <trkpt lat="46.13305" lon="8.33199">
        <ele>315.93</ele>
        <time>2012-08-04T14:28:06Z</time>
      </trkpt>
      <trkpt lat="46.13312" lon="8.33179">
        <ele>316.41</ele>
        <time>2012-08-04T14:28:07Z</time>
      </trkpt>
      <trkpt lat="46.13356" lon="8.33026">
        <ele>313.05</ele>
        <time>2012-08-04T14:28:15Z</time>
      </trkpt>
      <trkpt lat="46.13358" lon="8.33008">
        <ele>312.57</ele>
        <time>2012-08-04T14:28:16Z</time>
      </trkpt>
      <trkpt lat="46.13358" lon="8.3299">
        <ele>312.09</ele>
        <time>2012-08-04T14:28:17Z</time>
      </trkpt>
      <trkpt lat="46.13357" lon="8.32971">
        <ele>312.09</ele>
        <time>2012-08-04T14:28:18Z</time>
      </trkpt>
      <trkpt lat="46.13354" lon="8.32952">
        <ele>313.05</ele>
        <time>2012-08-04T14:28:19Z</time>
      </trkpt>
      <trkpt lat="46.13329" lon="8.32807">
        <ele>310.16</ele>
        <time>2012-08-04T14:28:26Z</time>
      </trkpt>
      <trkpt lat="46.13328" lon="8.32787">
        <ele>310.16</ele>
        <time>2012-08-04T14:28:27Z</time>
      </trkpt>
      <trkpt lat="46.13322" lon="8.32643">
        <ele>306.8</ele>
        <time>2012-08-04T14:28:36Z</time>
      </trkpt>
      <trkpt lat="46.13319" lon="8.32616">
        <ele>306.8</ele>
        <time>2012-08-04T14:28:38Z</time>
      </trkpt>
      <trkpt lat="46.13315" lon="8.32604">
        <ele>306.8</ele>
        <time>2012-08-04T14:28:39Z</time>
      </trkpt>
      <trkpt lat="46.13311" lon="8.32593">
        <ele>305.84</ele>
        <time>2012-08-04T14:28:40Z</time>
      </trkpt>
      <trkpt lat="46.13306" lon="8.32583">
        <ele>305.84</ele>
        <time>2012-08-04T14:28:41Z</time>
      </trkpt>
      <trkpt lat="46.133" lon="8.32574">
        <ele>305.84</ele>
        <time>2012-08-04T14:28:42Z</time>
      </trkpt>
      <trkpt lat="46.13294" lon="8.32564">
        <ele>305.84</ele>
        <time>2012-08-04T14:28:43Z</time>
      </trkpt>
      <trkpt lat="46.1329" lon="8.32553">
        <ele>305.84</ele>
        <time>2012-08-04T14:28:44Z</time>
      </trkpt>
      <trkpt lat="46.13287" lon="8.32539">
        <ele>305.84</ele>
        <time>2012-08-04T14:28:45Z</time>
      </trkpt>
      <trkpt lat="46.13285" lon="8.32524">
        <ele>305.84</ele>
        <time>2012-08-04T14:28:46Z</time>
      </trkpt>
      <trkpt lat="46.1326" lon="8.32342">
        <ele>307.28</ele>
        <time>2012-08-04T14:28:55Z</time>
      </trkpt>
      <trkpt lat="46.13212" lon="8.32134">
        <ele>305.36</ele>
        <time>2012-08-04T14:29:04Z</time>
      </trkpt>
      <trkpt lat="46.13202" lon="8.32114">
        <ele>304.88</ele>
        <time>2012-08-04T14:29:05Z</time>
      </trkpt>
      <trkpt lat="46.1319" lon="8.32095">
        <ele>304.88</ele>
        <time>2012-08-04T14:29:06Z</time>
      </trkpt>
      <trkpt lat="46.13177" lon="8.32077">
        <ele>305.36</ele>
        <time>2012-08-04T14:29:07Z</time>
      </trkpt>
      <trkpt lat="46.13163" lon="8.32061">
        <ele>304.88</ele>
        <time>2012-08-04T14:29:08Z</time>
      </trkpt>
      <trkpt lat="46.13149" lon="8.32045">
        <ele>304.88</ele>
        <time>2012-08-04T14:29:09Z</time>
      </trkpt>
      <trkpt lat="46.13133" lon="8.32031">
        <ele>305.36</ele>
        <time>2012-08-04T14:29:10Z</time>
      </trkpt>
      <trkpt lat="46.13052" lon="8.31971">
        <ele>301.03</ele>
        <time>2012-08-04T14:29:15Z</time>
      </trkpt>
      <trkpt lat="46.13036" lon="8.31958">
        <ele>302.47</ele>
        <time>2012-08-04T14:29:16Z</time>
      </trkpt>
      <trkpt lat="46.12971" lon="8.31909">
        <ele>301.03</ele>
        <time>2012-08-04T14:29:20Z</time>
      </trkpt>
      <trkpt lat="46.12871" lon="8.31834">
        <ele>299.59</ele>
        <time>2012-08-04T14:29:26Z</time>
      </trkpt>
      <trkpt lat="46.12763" lon="8.3172">
        <ele>301.51</ele>
        <time>2012-08-04T14:29:32Z</time>
      </trkpt>
      <trkpt lat="46.12716" lon="8.31659">
        <ele>296.7</ele>
        <time>2012-08-04T14:29:35Z</time>
      </trkpt>
      <trkpt lat="46.12682" lon="8.31605">
        <ele>292.86</ele>
        <time>2012-08-04T14:29:38Z</time>
      </trkpt>
      <trkpt lat="46.12675" lon="8.31584">
        <ele>292.38</ele>
        <time>2012-08-04T14:29:39Z</time>
      </trkpt>
      <trkpt lat="46.1267" lon="8.31562">
        <ele>293.34</ele>
        <time>2012-08-04T14:29:40Z</time>
      </trkpt>
      <trkpt lat="46.12668" lon="8.31538">
        <ele>291.9</ele>
        <time>2012-08-04T14:29:41Z</time>
      </trkpt>
      <trkpt lat="46.1267" lon="8.31513">
        <ele>292.38</ele>
        <time>2012-08-04T14:29:42Z</time>
      </trkpt>
      <trkpt lat="46.12675" lon="8.3149">
        <ele>291.9</ele>
        <time>2012-08-04T14:29:43Z</time>
      </trkpt>
      <trkpt lat="46.12683" lon="8.31468">
        <ele>291.9</ele>
        <time>2012-08-04T14:29:44Z</time>
      </trkpt>
      <trkpt lat="46.12693" lon="8.31447">
        <ele>291.42</ele>
        <time>2012-08-04T14:29:45Z</time>
      </trkpt>
      <trkpt lat="46.12705" lon="8.31426">
        <ele>292.38</ele>
        <time>2012-08-04T14:29:46Z</time>
      </trkpt>
      <trkpt lat="46.12775" lon="8.31299">
        <ele>292.38</ele>
        <time>2012-08-04T14:29:52Z</time>
      </trkpt>
      <trkpt lat="46.12817" lon="8.31222">
        <ele>289.97</ele>
        <time>2012-08-04T14:29:56Z</time>
      </trkpt>
      <trkpt lat="46.12823" lon="8.31203">
        <ele>289.49</ele>
        <time>2012-08-04T14:29:57Z</time>
      </trkpt>
      <trkpt lat="46.12828" lon="8.31183">
        <ele>290.46</ele>
        <time>2012-08-04T14:29:58Z</time>
      </trkpt>
      <trkpt lat="46.12831" lon="8.31162">
        <ele>289.97</ele>
        <time>2012-08-04T14:29:59Z</time>
      </trkpt>
      <trkpt lat="46.12831" lon="8.3114">
        <ele>290.94</ele>
        <time>2012-08-04T14:30:00Z</time>
      </trkpt>
      <trkpt lat="46.1283" lon="8.31117">
        <ele>291.42</ele>
        <time>2012-08-04T14:30:01Z</time>
      </trkpt>
      <trkpt lat="46.12829" lon="8.31093">
        <ele>290.94</ele>
        <time>2012-08-04T14:30:02Z</time>
      </trkpt>
      <trkpt lat="46.12807" lon="8.30822">
        <ele>289.97</ele>
        <time>2012-08-04T14:30:12Z</time>
      </trkpt>
      <trkpt lat="46.12802" lon="8.30774">
        <ele>289.49</ele>
        <time>2012-08-04T14:30:14Z</time>
      </trkpt>
      <trkpt lat="46.12798" lon="8.30752">
        <ele>289.01</ele>
        <time>2012-08-04T14:30:15Z</time>
      </trkpt>
      <trkpt lat="46.1279" lon="8.30733">
        <ele>289.01</ele>
        <time>2012-08-04T14:30:16Z</time>
      </trkpt>
      <trkpt lat="46.1278" lon="8.30717">
        <ele>289.49</ele>
        <time>2012-08-04T14:30:17Z</time>
      </trkpt>
      <trkpt lat="46.12767" lon="8.30703">
        <ele>290.94</ele>
        <time>2012-08-04T14:30:18Z</time>
      </trkpt>
      <trkpt lat="46.12752" lon="8.30693">
        <ele>291.42</ele>
        <time>2012-08-04T14:30:19Z</time>
      </trkpt>
      <trkpt lat="46.12736" lon="8.30688">
        <ele>290.94</ele>
        <time>2012-08-04T14:30:20Z</time>
      </trkpt>
      <trkpt lat="46.12719" lon="8.30689">
        <ele>292.38</ele>
        <time>2012-08-04T14:30:21Z</time>
      </trkpt>
      <trkpt lat="46.12704" lon="8.30694">
        <ele>291.42</ele>
        <time>2012-08-04T14:30:22Z</time>
      </trkpt>
      <trkpt lat="46.12689" lon="8.30705">
        <ele>291.42</ele>
        <time>2012-08-04T14:30:23Z</time>
      </trkpt>
      <trkpt lat="46.12676" lon="8.3072">
        <ele>291.42</ele>
        <time>2012-08-04T14:30:24Z</time>
      </trkpt>
      <trkpt lat="46.12665" lon="8.30737">
        <ele>292.86</ele>
        <time>2012-08-04T14:30:25Z</time>
      </trkpt>
      <trkpt lat="46.12653" lon="8.30755">
        <ele>293.34</ele>
        <time>2012-08-04T14:30:26Z</time>
      </trkpt>
      <trkpt lat="46.12596" lon="8.30842">
        <ele>290.46</ele>
        <time>2012-08-04T14:30:31Z</time>
      </trkpt>
      <trkpt lat="46.12583" lon="8.30855">
        <ele>289.97</ele>
        <time>2012-08-04T14:30:32Z</time>
      </trkpt>
      <trkpt lat="46.1257" lon="8.30864">
        <ele>289.97</ele>
        <time>2012-08-04T14:30:33Z</time>
      </trkpt>
      <trkpt lat="46.12554" lon="8.30868">
        <ele>289.97</ele>
        <time>2012-08-04T14:30:34Z</time>
      </trkpt>
      <trkpt lat="46.12537" lon="8.30866">
        <ele>290.94</ele>
        <time>2012-08-04T14:30:35Z</time>
      </trkpt>
      <trkpt lat="46.1252" lon="8.30861">
        <ele>290.94</ele>
        <time>2012-08-04T14:30:36Z</time>
      </trkpt>
      <trkpt lat="46.12502" lon="8.30855">
        <ele>290.46</ele>
        <time>2012-08-04T14:30:37Z</time>
      </trkpt>
      <trkpt lat="46.12294" lon="8.30775">
        <ele>287.57</ele>
        <time>2012-08-04T14:30:48Z</time>
      </trkpt>
      <trkpt lat="46.12114" lon="8.30705">
        <ele>283.73</ele>
        <time>2012-08-04T14:30:57Z</time>
      </trkpt>
      <trkpt lat="46.11937" lon="8.30637">
        <ele>287.09</ele>
        <time>2012-08-04T14:31:06Z</time>
      </trkpt>
      <trkpt lat="46.11622" lon="8.30513">
        <ele>290.46</ele>
        <time>2012-08-04T14:31:21Z</time>
      </trkpt>
      <trkpt lat="46.11479" lon="8.30468">
        <ele>293.34</ele>
        <time>2012-08-04T14:31:28Z</time>
      </trkpt>
      <trkpt lat="46.11437" lon="8.30464">
        <ele>294.78</ele>
        <time>2012-08-04T14:31:30Z</time>
      </trkpt>
      <trkpt lat="46.11334" lon="8.30472">
        <ele>292.86</ele>
        <time>2012-08-04T14:31:35Z</time>
      </trkpt>
      <trkpt lat="46.11227" lon="8.30493">
        <ele>289.49</ele>
        <time>2012-08-04T14:31:41Z</time>
      </trkpt>
      <trkpt lat="46.11048" lon="8.30493">
        <ele>287.57</ele>
        <time>2012-08-04T14:31:51Z</time>
      </trkpt>
      <trkpt lat="46.10881" lon="8.30442">
        <ele>283.73</ele>
        <time>2012-08-04T14:31:59Z</time>
      </trkpt>
      <trkpt lat="46.10859" lon="8.30435">
        <ele>283.25</ele>
        <time>2012-08-04T14:32:00Z</time>
      </trkpt>
      <trkpt lat="46.10794" lon="8.30414">
        <ele>280.36</ele>
        <time>2012-08-04T14:32:03Z</time>
      </trkpt>
      <trkpt lat="46.10728" lon="8.30394">
        <ele>276.52</ele>
        <time>2012-08-04T14:32:06Z</time>
      </trkpt>
      <trkpt lat="46.10604" lon="8.30359">
        <ele>273.15</ele>
        <time>2012-08-04T14:32:12Z</time>
      </trkpt>
      <trkpt lat="46.10585" lon="8.30356">
        <ele>273.15</ele>
        <time>2012-08-04T14:32:13Z</time>
      </trkpt>
      <trkpt lat="46.1039" lon="8.30351">
        <ele>273.15</ele>
        <time>2012-08-04T14:32:23Z</time>
      </trkpt>
      <trkpt lat="46.10278" lon="8.3035">
        <ele>269.31</ele>
        <time>2012-08-04T14:32:29Z</time>
      </trkpt>
      <trkpt lat="46.10208" lon="8.30345">
        <ele>267.38</ele>
        <time>2012-08-04T14:32:34Z</time>
      </trkpt>
      <trkpt lat="46.10198" lon="8.30341">
        <ele>267.38</ele>
        <time>2012-08-04T14:32:35Z</time>
      </trkpt>
      <trkpt lat="46.10187" lon="8.30333">
        <ele>267.38</ele>
        <time>2012-08-04T14:32:36Z</time>
      </trkpt>
      <trkpt lat="46.10178" lon="8.30322">
        <ele>266.9</ele>
        <time>2012-08-04T14:32:37Z</time>
      </trkpt>
      <trkpt lat="46.10169" lon="8.30308">
        <ele>266.9</ele>
        <time>2012-08-04T14:32:38Z</time>
      </trkpt>
      <trkpt lat="46.10162" lon="8.30293">
        <ele>266.42</ele>
        <time>2012-08-04T14:32:39Z</time>
      </trkpt>
      <trkpt lat="46.10158" lon="8.30275">
        <ele>265.94</ele>
        <time>2012-08-04T14:32:40Z</time>
      </trkpt>
      <trkpt lat="46.10157" lon="8.30255">
        <ele>264.5</ele>
        <time>2012-08-04T14:32:41Z</time>
      </trkpt>
      <trkpt lat="46.10159" lon="8.30235">
        <ele>263.54</ele>
        <time>2012-08-04T14:32:42Z</time>
      </trkpt>
      <trkpt lat="46.10162" lon="8.30216">
        <ele>262.58</ele>
        <time>2012-08-04T14:32:43Z</time>
      </trkpt>
      <trkpt lat="46.10166" lon="8.30197">
        <ele>262.1</ele>
        <time>2012-08-04T14:32:44Z</time>
      </trkpt>
      <trkpt lat="46.10204" lon="8.30059">
        <ele>262.58</ele>
        <time>2012-08-04T14:32:51Z</time>
      </trkpt>
      <trkpt lat="46.10258" lon="8.29877">
        <ele>259.21</ele>
        <time>2012-08-04T14:33:01Z</time>
      </trkpt>
      <trkpt lat="46.10263" lon="8.29861">
        <ele>259.21</ele>
        <time>2012-08-04T14:33:02Z</time>
      </trkpt>
      <trkpt lat="46.1028" lon="8.2981">
        <ele>258.25</ele>
        <time>2012-08-04T14:33:06Z</time>
      </trkpt>
      <trkpt lat="46.10285" lon="8.29803">
        <ele>258.25</ele>
        <time>2012-08-04T14:33:07Z</time>
      </trkpt>
      <trkpt lat="46.1029" lon="8.29799">
        <ele>258.73</ele>
        <time>2012-08-04T14:33:08Z</time>
      </trkpt>
      <trkpt lat="46.10296" lon="8.29796">
        <ele>258.25</ele>
        <time>2012-08-04T14:33:09Z</time>
      </trkpt>
      <trkpt lat="46.10301" lon="8.29795">
        <ele>258.25</ele>
        <time>2012-08-04T14:33:10Z</time>
      </trkpt>
      <trkpt lat="46.10305" lon="8.29795">
        <ele>258.25</ele>
        <time>2012-08-04T14:33:11Z</time>
      </trkpt>
      <trkpt lat="46.10308" lon="8.29794">
        <ele>258.73</ele>
        <time>2012-08-04T14:33:12Z</time>
      </trkpt>
      <trkpt lat="46.10312" lon="8.29794">
        <ele>258.25</ele>
        <time>2012-08-04T14:33:13Z</time>
      </trkpt>
      <trkpt lat="46.10365" lon="8.29796">
        <ele>260.65</ele>
        <time>2012-08-04T14:33:18Z</time>
      </trkpt>
      <trkpt lat="46.10378" lon="8.29795">
        <ele>261.14</ele>
        <time>2012-08-04T14:33:19Z</time>
      </trkpt>
      <trkpt lat="46.10392" lon="8.29791">
        <ele>261.62</ele>
        <time>2012-08-04T14:33:20Z</time>
      </trkpt>
      <trkpt lat="46.10405" lon="8.29786">
        <ele>261.62</ele>
        <time>2012-08-04T14:33:21Z</time>
      </trkpt>
      <trkpt lat="46.10418" lon="8.29779">
        <ele>261.62</ele>
        <time>2012-08-04T14:33:22Z</time>
      </trkpt>
      <trkpt lat="46.1043" lon="8.29773">
        <ele>261.62</ele>
        <time>2012-08-04T14:33:23Z</time>
      </trkpt>
      <trkpt lat="46.10519" lon="8.29716">
        <ele>263.54</ele>
        <time>2012-08-04T14:33:31Z</time>
      </trkpt>
      <trkpt lat="46.10575" lon="8.29682">
        <ele>263.54</ele>
        <time>2012-08-04T14:33:37Z</time>
      </trkpt>
      <trkpt lat="46.10582" lon="8.29683">
        <ele>264.02</ele>
        <time>2012-08-04T14:33:38Z</time>
      </trkpt>
      <trkpt lat="46.10588" lon="8.29687">
        <ele>264.02</ele>
        <time>2012-08-04T14:33:39Z</time>
      </trkpt>
      <trkpt lat="46.10595" lon="8.29692">
        <ele>264.02</ele>
        <time>2012-08-04T14:33:40Z</time>
      </trkpt>
      <trkpt lat="46.10602" lon="8.29695">
        <ele>264.02</ele>
        <time>2012-08-04T14:33:41Z</time>
      </trkpt>
      <trkpt lat="46.10608" lon="8.29693">
        <ele>264.5</ele>
        <time>2012-08-04T14:33:42Z</time>
      </trkpt>
      <trkpt lat="46.10614" lon="8.29688">
        <ele>264.02</ele>
        <time>2012-08-04T14:33:43Z</time>
      </trkpt>
      <trkpt lat="46.10618" lon="8.2968">
        <ele>264.02</ele>
        <time>2012-08-04T14:33:44Z</time>
      </trkpt>
      <trkpt lat="46.10619" lon="8.2967">
        <ele>263.54</ele>
        <time>2012-08-04T14:33:45Z</time>
      </trkpt>
      <trkpt lat="46.10619" lon="8.29659">
        <ele>264.5</ele>
        <time>2012-08-04T14:33:46Z</time>
      </trkpt>
      <trkpt lat="46.10618" lon="8.29647">
        <ele>263.54</ele>
        <time>2012-08-04T14:33:47Z</time>
      </trkpt>
      <trkpt lat="46.10619" lon="8.29634">
        <ele>262.58</ele>
        <time>2012-08-04T14:33:48Z</time>
      </trkpt>
      <trkpt lat="46.10622" lon="8.29622">
        <ele>263.06</ele>
        <time>2012-08-04T14:33:49Z</time>
      </trkpt>
      <trkpt lat="46.10626" lon="8.29611">
        <ele>263.06</ele>
        <time>2012-08-04T14:33:50Z</time>
      </trkpt>
      <trkpt lat="46.10636" lon="8.29585">
        <ele>261.62</ele>
        <time>2012-08-04T14:33:52Z</time>
      </trkpt>
      <trkpt lat="46.10648" lon="8.29562">
        <ele>262.58</ele>
        <time>2012-08-04T14:33:54Z</time>
      </trkpt>
      <trkpt lat="46.10656" lon="8.29555">
        <ele>263.06</ele>
        <time>2012-08-04T14:33:55Z</time>
      </trkpt>
      <trkpt lat="46.10665" lon="8.2955">
        <ele>263.54</ele>
        <time>2012-08-04T14:33:56Z</time>
      </trkpt>
      <trkpt lat="46.10676" lon="8.29547">
        <ele>264.5</ele>
        <time>2012-08-04T14:33:57Z</time>
      </trkpt>
      <trkpt lat="46.10687" lon="8.29547">
        <ele>265.94</ele>
        <time>2012-08-04T14:33:58Z</time>
      </trkpt>
      <trkpt lat="46.10698" lon="8.29547">
        <ele>265.94</ele>
        <time>2012-08-04T14:33:59Z</time>
      </trkpt>
      <trkpt lat="46.10709" lon="8.29548">
        <ele>266.42</ele>
        <time>2012-08-04T14:34:00Z</time>
      </trkpt>
      <trkpt lat="46.10757" lon="8.29546">
        <ele>268.83</ele>
        <time>2012-08-04T14:34:04Z</time>
      </trkpt>
      <trkpt lat="46.10845" lon="8.29505">
        <ele>269.79</ele>
        <time>2012-08-04T14:34:12Z</time>
      </trkpt>
      <trkpt lat="46.10872" lon="8.29483">
        <ele>271.23</ele>
        <time>2012-08-04T14:34:16Z</time>
      </trkpt>
      <trkpt lat="46.10879" lon="8.29482">
        <ele>271.23</ele>
        <time>2012-08-04T14:34:17Z</time>
      </trkpt>
      <trkpt lat="46.10885" lon="8.2948">
        <ele>271.23</ele>
        <time>2012-08-04T14:34:18Z</time>
      </trkpt>
      <trkpt lat="46.10891" lon="8.29476">
        <ele>270.75</ele>
        <time>2012-08-04T14:34:19Z</time>
      </trkpt>
      <trkpt lat="46.10895" lon="8.29468">
        <ele>271.23</ele>
        <time>2012-08-04T14:34:20Z</time>
      </trkpt>
      <trkpt lat="46.10897" lon="8.29459">
        <ele>271.23</ele>
        <time>2012-08-04T14:34:21Z</time>
      </trkpt>
      <trkpt lat="46.10896" lon="8.29447">
        <ele>271.23</ele>
        <time>2012-08-04T14:34:22Z</time>
      </trkpt>
      <trkpt lat="46.10896" lon="8.29435">
        <ele>271.71</ele>
        <time>2012-08-04T14:34:23Z</time>
      </trkpt>
      <trkpt lat="46.10896" lon="8.29421">
        <ele>271.71</ele>
        <time>2012-08-04T14:34:24Z</time>
      </trkpt>
      <trkpt lat="46.10896" lon="8.29407">
        <ele>272.19</ele>
        <time>2012-08-04T14:34:25Z</time>
      </trkpt>
      <trkpt lat="46.10893" lon="8.29319">
        <ele>275.07</ele>
        <time>2012-08-04T14:34:30Z</time>
      </trkpt>
      <trkpt lat="46.10895" lon="8.293">
        <ele>276.04</ele>
        <time>2012-08-04T14:34:31Z</time>
      </trkpt>
      <trkpt lat="46.10899" lon="8.29282">
        <ele>276.52</ele>
        <time>2012-08-04T14:34:32Z</time>
      </trkpt>
      <trkpt lat="46.10905" lon="8.29266">
        <ele>276.04</ele>
        <time>2012-08-04T14:34:33Z</time>
      </trkpt>
      <trkpt lat="46.10912" lon="8.29249">
        <ele>276.52</ele>
        <time>2012-08-04T14:34:34Z</time>
      </trkpt>
      <trkpt lat="46.10949" lon="8.29164">
        <ele>279.88</ele>
        <time>2012-08-04T14:34:39Z</time>
      </trkpt>
      <trkpt lat="46.10962" lon="8.2913">
        <ele>280.84</ele>
        <time>2012-08-04T14:34:41Z</time>
      </trkpt>
      <trkpt lat="46.11003" lon="8.28999">
        <ele>281.8</ele>
        <time>2012-08-04T14:34:48Z</time>
      </trkpt>
      <trkpt lat="46.11011" lon="8.28982">
        <ele>281.8</ele>
        <time>2012-08-04T14:34:49Z</time>
      </trkpt>
      <trkpt lat="46.1102" lon="8.28967">
        <ele>281.8</ele>
        <time>2012-08-04T14:34:50Z</time>
      </trkpt>
      <trkpt lat="46.1103" lon="8.28953">
        <ele>281.8</ele>
        <time>2012-08-04T14:34:51Z</time>
      </trkpt>
      <trkpt lat="46.1104" lon="8.2894">
        <ele>281.8</ele>
        <time>2012-08-04T14:34:52Z</time>
      </trkpt>
      <trkpt lat="46.11114" lon="8.28853">
        <ele>281.8</ele>
        <time>2012-08-04T14:35:00Z</time>
      </trkpt>
      <trkpt lat="46.11176" lon="8.28778">
        <ele>283.73</ele>
        <time>2012-08-04T14:35:08Z</time>
      </trkpt>
      <trkpt lat="46.11191" lon="8.28761">
        <ele>285.17</ele>
        <time>2012-08-04T14:35:10Z</time>
      </trkpt>
      <trkpt lat="46.11256" lon="8.2869">
        <ele>288.53</ele>
        <time>2012-08-04T14:35:17Z</time>
      </trkpt>
      <trkpt lat="46.11336" lon="8.28616">
        <ele>289.01</ele>
        <time>2012-08-04T14:35:26Z</time>
      </trkpt>
      <trkpt lat="46.11392" lon="8.28544">
        <ele>292.38</ele>
        <time>2012-08-04T14:35:32Z</time>
      </trkpt>
      <trkpt lat="46.1144" lon="8.28471">
        <ele>296.22</ele>
        <time>2012-08-04T14:35:37Z</time>
      </trkpt>
      <trkpt lat="46.11467" lon="8.2843">
        <ele>297.67</ele>
        <time>2012-08-04T14:35:40Z</time>
      </trkpt>
      <trkpt lat="46.11501" lon="8.28385">
        <ele>297.18</ele>
        <time>2012-08-04T14:35:45Z</time>
      </trkpt>
      <trkpt lat="46.11508" lon="8.28379">
        <ele>298.15</ele>
        <time>2012-08-04T14:35:46Z</time>
      </trkpt>
      <trkpt lat="46.11515" lon="8.28371">
        <ele>298.63</ele>
        <time>2012-08-04T14:35:47Z</time>
      </trkpt>
      <trkpt lat="46.1152" lon="8.28359">
        <ele>299.11</ele>
        <time>2012-08-04T14:35:48Z</time>
      </trkpt>
      <trkpt lat="46.11527" lon="8.28346">
        <ele>299.11</ele>
        <time>2012-08-04T14:35:49Z</time>
      </trkpt>
      <trkpt lat="46.11535" lon="8.28335">
        <ele>299.59</ele>
        <time>2012-08-04T14:35:50Z</time>
      </trkpt>
      <trkpt lat="46.11579" lon="8.28272">
        <ele>302.47</ele>
        <time>2012-08-04T14:35:55Z</time>
      </trkpt>
      <trkpt lat="46.11598" lon="8.28246">
        <ele>303.91</ele>
        <time>2012-08-04T14:35:57Z</time>
      </trkpt>
      <trkpt lat="46.11608" lon="8.28236">
        <ele>303.91</ele>
        <time>2012-08-04T14:35:58Z</time>
      </trkpt>
      <trkpt lat="46.1163" lon="8.28215">
        <ele>305.36</ele>
        <time>2012-08-04T14:36:00Z</time>
      </trkpt>
      <trkpt lat="46.11676" lon="8.28177">
        <ele>306.8</ele>
        <time>2012-08-04T14:36:04Z</time>
      </trkpt>
      <trkpt lat="46.11687" lon="8.28172">
        <ele>306.32</ele>
        <time>2012-08-04T14:36:05Z</time>
      </trkpt>
      <trkpt lat="46.11697" lon="8.28168">
        <ele>306.32</ele>
        <time>2012-08-04T14:36:06Z</time>
      </trkpt>
      <trkpt lat="46.11706" lon="8.28166">
        <ele>305.84</ele>
        <time>2012-08-04T14:36:07Z</time>
      </trkpt>
      <trkpt lat="46.11713" lon="8.28165">
        <ele>306.32</ele>
        <time>2012-08-04T14:36:08Z</time>
      </trkpt>
      <trkpt lat="46.11732" lon="8.28164">
        <ele>306.8</ele>
        <time>2012-08-04T14:36:15Z</time>
      </trkpt>
      <trkpt lat="46.11739" lon="8.28157">
        <ele>307.76</ele>
        <time>2012-08-04T14:36:18Z</time>
      </trkpt>
      <trkpt lat="46.11742" lon="8.28149">
        <ele>307.76</ele>
        <time>2012-08-04T14:36:19Z</time>
      </trkpt>
      <trkpt lat="46.11746" lon="8.28139">
        <ele>308.24</ele>
        <time>2012-08-04T14:36:20Z</time>
      </trkpt>
      <trkpt lat="46.11784" lon="8.28028">
        <ele>312.09</ele>
        <time>2012-08-04T14:36:29Z</time>
      </trkpt>
      <trkpt lat="46.11787" lon="8.28017">
        <ele>312.09</ele>
        <time>2012-08-04T14:36:30Z</time>
      </trkpt>
      <trkpt lat="46.1183" lon="8.27889">
        <ele>314.49</ele>
        <time>2012-08-04T14:36:39Z</time>
      </trkpt>
      <trkpt lat="46.1186" lon="8.27797">
        <ele>317.85</ele>
        <time>2012-08-04T14:36:45Z</time>
      </trkpt>
      <trkpt lat="46.11873" lon="8.2777">
        <ele>318.33</ele>
        <time>2012-08-04T14:36:47Z</time>
      </trkpt>
      <trkpt lat="46.1188" lon="8.27758">
        <ele>318.81</ele>
        <time>2012-08-04T14:36:48Z</time>
      </trkpt>
      <trkpt lat="46.11889" lon="8.27748">
        <ele>319.78</ele>
        <time>2012-08-04T14:36:49Z</time>
      </trkpt>
      <trkpt lat="46.11898" lon="8.27739">
        <ele>319.78</ele>
        <time>2012-08-04T14:36:50Z</time>
      </trkpt>
      <trkpt lat="46.11907" lon="8.27731">
        <ele>320.74</ele>
        <time>2012-08-04T14:36:51Z</time>
      </trkpt>
      <trkpt lat="46.11927" lon="8.27716">
        <ele>321.7</ele>
        <time>2012-08-04T14:36:53Z</time>
      </trkpt>
      <trkpt lat="46.11947" lon="8.27698">
        <ele>322.66</ele>
        <time>2012-08-04T14:36:55Z</time>
      </trkpt>
      <trkpt lat="46.11957" lon="8.27689">
        <ele>322.18</ele>
        <time>2012-08-04T14:36:56Z</time>
      </trkpt>
      <trkpt lat="46.11968" lon="8.2768">
        <ele>323.14</ele>
        <time>2012-08-04T14:36:57Z</time>
      </trkpt>
      <trkpt lat="46.12063" lon="8.27604">
        <ele>326.5</ele>
        <time>2012-08-04T14:37:06Z</time>
      </trkpt>
      <trkpt lat="46.12073" lon="8.27593">
        <ele>326.99</ele>
        <time>2012-08-04T14:37:07Z</time>
      </trkpt>
      <trkpt lat="46.12083" lon="8.2758">
        <ele>327.95</ele>
        <time>2012-08-04T14:37:08Z</time>
      </trkpt>
      <trkpt lat="46.12107" lon="8.27543">
        <ele>329.87</ele>
        <time>2012-08-04T14:37:11Z</time>
      </trkpt>
      <trkpt lat="46.12113" lon="8.27532">
        <ele>330.83</ele>
        <time>2012-08-04T14:37:12Z</time>
      </trkpt>
      <trkpt lat="46.12118" lon="8.27519">
        <ele>330.83</ele>
        <time>2012-08-04T14:37:13Z</time>
      </trkpt>
      <trkpt lat="46.12122" lon="8.27505">
        <ele>331.79</ele>
        <time>2012-08-04T14:37:14Z</time>
      </trkpt>
      <trkpt lat="46.12137" lon="8.27432">
        <ele>334.68</ele>
        <time>2012-08-04T14:37:19Z</time>
      </trkpt>
      <trkpt lat="46.12142" lon="8.27405">
        <ele>336.6</ele>
        <time>2012-08-04T14:37:21Z</time>
      </trkpt>
      <trkpt lat="46.12142" lon="8.2739">
        <ele>336.6</ele>
        <time>2012-08-04T14:37:22Z</time>
      </trkpt>
      <trkpt lat="46.12141" lon="8.27377">
        <ele>337.08</ele>
        <time>2012-08-04T14:37:23Z</time>
      </trkpt>
      <trkpt lat="46.12139" lon="8.27365">
        <ele>336.6</ele>
        <time>2012-08-04T14:37:24Z</time>
      </trkpt>
      <trkpt lat="46.12134" lon="8.27354">
        <ele>337.56</ele>
        <time>2012-08-04T14:37:25Z</time>
      </trkpt>
      <trkpt lat="46.12128" lon="8.27344">
        <ele>338.52</ele>
        <time>2012-08-04T14:37:26Z</time>
      </trkpt>
      <trkpt lat="46.12121" lon="8.27334">
        <ele>339</ele>
        <time>2012-08-04T14:37:27Z</time>
      </trkpt>
      <trkpt lat="46.12113" lon="8.27324">
        <ele>339.96</ele>
        <time>2012-08-04T14:37:28Z</time>
      </trkpt>
      <trkpt lat="46.12105" lon="8.27313">
        <ele>339.96</ele>
        <time>2012-08-04T14:37:29Z</time>
      </trkpt>
      <trkpt lat="46.12099" lon="8.27299">
        <ele>341.41</ele>
        <time>2012-08-04T14:37:30Z</time>
      </trkpt>
      <trkpt lat="46.12095" lon="8.27284">
        <ele>342.37</ele>
        <time>2012-08-04T14:37:31Z</time>
      </trkpt>
      <trkpt lat="46.12094" lon="8.27269">
        <ele>342.85</ele>
        <time>2012-08-04T14:37:32Z</time>
      </trkpt>
      <trkpt lat="46.12094" lon="8.27253">
        <ele>343.81</ele>
        <time>2012-08-04T14:37:33Z</time>
      </trkpt>
      <trkpt lat="46.12096" lon="8.27235">
        <ele>344.29</ele>
        <time>2012-08-04T14:37:34Z</time>
      </trkpt>
      <trkpt lat="46.12107" lon="8.27158">
        <ele>348.13</ele>
        <time>2012-08-04T14:37:38Z</time>
      </trkpt>
      <trkpt lat="46.1211" lon="8.27139">
        <ele>348.13</ele>
        <time>2012-08-04T14:37:39Z</time>
      </trkpt>
      <trkpt lat="46.12113" lon="8.27122">
        <ele>348.13</ele>
        <time>2012-08-04T14:37:40Z</time>
      </trkpt>
      <trkpt lat="46.12113" lon="8.27104">
        <ele>349.1</ele>
        <time>2012-08-04T14:37:41Z</time>
      </trkpt>
      <trkpt lat="46.1211" lon="8.27085">
        <ele>350.06</ele>
        <time>2012-08-04T14:37:42Z</time>
      </trkpt>
      <trkpt lat="46.12105" lon="8.27067">
        <ele>350.54</ele>
        <time>2012-08-04T14:37:43Z</time>
      </trkpt>
      <trkpt lat="46.12099" lon="8.27051">
        <ele>350.54</ele>
        <time>2012-08-04T14:37:44Z</time>
      </trkpt>
      <trkpt lat="46.12092" lon="8.27036">
        <ele>351.02</ele>
        <time>2012-08-04T14:37:45Z</time>
      </trkpt>
      <trkpt lat="46.12083" lon="8.27023">
        <ele>351.98</ele>
        <time>2012-08-04T14:37:46Z</time>
      </trkpt>
      <trkpt lat="46.12072" lon="8.27013">
        <ele>352.94</ele>
        <time>2012-08-04T14:37:47Z</time>
      </trkpt>
      <trkpt lat="46.1206" lon="8.27006">
        <ele>353.9</ele>
        <time>2012-08-04T14:37:48Z</time>
      </trkpt>
      <trkpt lat="46.1205" lon="8.26997">
        <ele>353.9</ele>
        <time>2012-08-04T14:37:49Z</time>
      </trkpt>
      <trkpt lat="46.12042" lon="8.26986">
        <ele>353.9</ele>
        <time>2012-08-04T14:37:50Z</time>
      </trkpt>
      <trkpt lat="46.12035" lon="8.26973">
        <ele>354.38</ele>
        <time>2012-08-04T14:37:51Z</time>
      </trkpt>
      <trkpt lat="46.12031" lon="8.26961">
        <ele>354.38</ele>
        <time>2012-08-04T14:37:52Z</time>
      </trkpt>
      <trkpt lat="46.12029" lon="8.26947">
        <ele>354.86</ele>
        <time>2012-08-04T14:37:53Z</time>
      </trkpt>
      <trkpt lat="46.12028" lon="8.26932">
        <ele>356.31</ele>
        <time>2012-08-04T14:37:54Z</time>
      </trkpt>
      <trkpt lat="46.12024" lon="8.26895">
        <ele>357.75</ele>
        <time>2012-08-04T14:37:56Z</time>
      </trkpt>
      <trkpt lat="46.12027" lon="8.26815">
        <ele>360.63</ele>
        <time>2012-08-04T14:38:00Z</time>
      </trkpt>
      <trkpt lat="46.12032" lon="8.26795">
        <ele>362.07</ele>
        <time>2012-08-04T14:38:01Z</time>
      </trkpt>
      <trkpt lat="46.12039" lon="8.26775">
        <ele>363.52</ele>
        <time>2012-08-04T14:38:02Z</time>
      </trkpt>
      <trkpt lat="46.12073" lon="8.26699">
        <ele>366.4</ele>
        <time>2012-08-04T14:38:06Z</time>
      </trkpt>
      <trkpt lat="46.12082" lon="8.26684">
        <ele>366.4</ele>
        <time>2012-08-04T14:38:07Z</time>
      </trkpt>
      <trkpt lat="46.12093" lon="8.2667">
        <ele>367.36</ele>
        <time>2012-08-04T14:38:08Z</time>
      </trkpt>
      <trkpt lat="46.12113" lon="8.26647">
        <ele>367.36</ele>
        <time>2012-08-04T14:38:10Z</time>
      </trkpt>
      <trkpt lat="46.12119" lon="8.26636">
        <ele>367.36</ele>
        <time>2012-08-04T14:38:11Z</time>
      </trkpt>
      <trkpt lat="46.12134" lon="8.26605">
        <ele>371.21</ele>
        <time>2012-08-04T14:38:14Z</time>
      </trkpt>
      <trkpt lat="46.12136" lon="8.26593">
        <ele>371.69</ele>
        <time>2012-08-04T14:38:15Z</time>
      </trkpt>
      <trkpt lat="46.12137" lon="8.26578">
        <ele>372.65</ele>
        <time>2012-08-04T14:38:16Z</time>
      </trkpt>
      <trkpt lat="46.12144" lon="8.26548">
        <ele>375.05</ele>
        <time>2012-08-04T14:38:18Z</time>
      </trkpt>
      <trkpt lat="46.12145" lon="8.2653">
        <ele>375.53</ele>
        <time>2012-08-04T14:38:19Z</time>
      </trkpt>
      <trkpt lat="46.12143" lon="8.26506">
        <ele>375.53</ele>
        <time>2012-08-04T14:38:20Z</time>
      </trkpt>
      <trkpt lat="46.12139" lon="8.26463">
        <ele>376.97</ele>
        <time>2012-08-04T14:38:22Z</time>
      </trkpt>
      <trkpt lat="46.12134" lon="8.26444">
        <ele>377.45</ele>
        <time>2012-08-04T14:38:23Z</time>
      </trkpt>
      <trkpt lat="46.12122" lon="8.26404">
        <ele>377.94</ele>
        <time>2012-08-04T14:38:25Z</time>
      </trkpt>
      <trkpt lat="46.1212" lon="8.26384">
        <ele>377.94</ele>
        <time>2012-08-04T14:38:26Z</time>
      </trkpt>
      <trkpt lat="46.1212" lon="8.26367">
        <ele>378.42</ele>
        <time>2012-08-04T14:38:27Z</time>
      </trkpt>
      <trkpt lat="46.12129" lon="8.26337">
        <ele>380.34</ele>
        <time>2012-08-04T14:38:29Z</time>
      </trkpt>
      <trkpt lat="46.12136" lon="8.2631">
        <ele>381.3</ele>
        <time>2012-08-04T14:38:31Z</time>
      </trkpt>
      <trkpt lat="46.12137" lon="8.26299">
        <ele>381.3</ele>
        <time>2012-08-04T14:38:32Z</time>
      </trkpt>
      <trkpt lat="46.12137" lon="8.26286">
        <ele>382.74</ele>
        <time>2012-08-04T14:38:33Z</time>
      </trkpt>
      <trkpt lat="46.12135" lon="8.26272">
        <ele>383.7</ele>
        <time>2012-08-04T14:38:34Z</time>
      </trkpt>
      <trkpt lat="46.12132" lon="8.26258">
        <ele>384.18</ele>
        <time>2012-08-04T14:38:35Z</time>
      </trkpt>
      <trkpt lat="46.12125" lon="8.26248">
        <ele>384.66</ele>
        <time>2012-08-04T14:38:36Z</time>
      </trkpt>
      <trkpt lat="46.12116" lon="8.26239">
        <ele>385.15</ele>
        <time>2012-08-04T14:38:37Z</time>
      </trkpt>
      <trkpt lat="46.1211" lon="8.26228">
        <ele>384.66</ele>
        <time>2012-08-04T14:38:38Z</time>
      </trkpt>
      <trkpt lat="46.12106" lon="8.26216">
        <ele>385.63</ele>
        <time>2012-08-04T14:38:39Z</time>
      </trkpt>
      <trkpt lat="46.12105" lon="8.26202">
        <ele>385.63</ele>
        <time>2012-08-04T14:38:40Z</time>
      </trkpt>
      <trkpt lat="46.12107" lon="8.26186">
        <ele>386.11</ele>
        <time>2012-08-04T14:38:41Z</time>
      </trkpt>
      <trkpt lat="46.1211" lon="8.26169">
        <ele>387.07</ele>
        <time>2012-08-04T14:38:42Z</time>
      </trkpt>
      <trkpt lat="46.12114" lon="8.26153">
        <ele>386.11</ele>
        <time>2012-08-04T14:38:43Z</time>
      </trkpt>
      <trkpt lat="46.12117" lon="8.26139">
        <ele>385.63</ele>
        <time>2012-08-04T14:38:44Z</time>
      </trkpt>
      <trkpt lat="46.1212" lon="8.26129">
        <ele>385.63</ele>
        <time>2012-08-04T14:38:45Z</time>
      </trkpt>
      <trkpt lat="46.12126" lon="8.26121">
        <ele>386.11</ele>
        <time>2012-08-04T14:38:46Z</time>
      </trkpt>
      <trkpt lat="46.12133" lon="8.26112">
        <ele>386.59</ele>
        <time>2012-08-04T14:38:47Z</time>
      </trkpt>
      <trkpt lat="46.12143" lon="8.26102">
        <ele>387.07</ele>
        <time>2012-08-04T14:38:48Z</time>
      </trkpt>
      <trkpt lat="46.12159" lon="8.26079">
        <ele>387.07</ele>
        <time>2012-08-04T14:38:50Z</time>
      </trkpt>
      <trkpt lat="46.12165" lon="8.26064">
        <ele>387.55</ele>
        <time>2012-08-04T14:38:51Z</time>
      </trkpt>
      <trkpt lat="46.1217" lon="8.26048">
        <ele>388.51</ele>
        <time>2012-08-04T14:38:52Z</time>
      </trkpt>
      <trkpt lat="46.12175" lon="8.26031">
        <ele>388.99</ele>
        <time>2012-08-04T14:38:53Z</time>
      </trkpt>
      <trkpt lat="46.12198" lon="8.2592">
        <ele>391.39</ele>
        <time>2012-08-04T14:38:59Z</time>
      </trkpt>
      <trkpt lat="46.122" lon="8.25901">
        <ele>391.87</ele>
        <time>2012-08-04T14:39:00Z</time>
      </trkpt>
      <trkpt lat="46.12201" lon="8.25883">
        <ele>392.36</ele>
        <time>2012-08-04T14:39:01Z</time>
      </trkpt>
      <trkpt lat="46.122" lon="8.25865">
        <ele>392.84</ele>
        <time>2012-08-04T14:39:02Z</time>
      </trkpt>
      <trkpt lat="46.12197" lon="8.25846">
        <ele>393.8</ele>
        <time>2012-08-04T14:39:03Z</time>
      </trkpt>
      <trkpt lat="46.12191" lon="8.25827">
        <ele>395.72</ele>
        <time>2012-08-04T14:39:04Z</time>
      </trkpt>
      <trkpt lat="46.12185" lon="8.25808">
        <ele>395.72</ele>
        <time>2012-08-04T14:39:05Z</time>
      </trkpt>
      <trkpt lat="46.12178" lon="8.25791">
        <ele>396.68</ele>
        <time>2012-08-04T14:39:06Z</time>
      </trkpt>
      <trkpt lat="46.12172" lon="8.25773">
        <ele>397.16</ele>
        <time>2012-08-04T14:39:07Z</time>
      </trkpt>
      <trkpt lat="46.12168" lon="8.25755">
        <ele>397.16</ele>
        <time>2012-08-04T14:39:08Z</time>
      </trkpt>
      <trkpt lat="46.12164" lon="8.25738">
        <ele>397.16</ele>
        <time>2012-08-04T14:39:09Z</time>
      </trkpt>
      <trkpt lat="46.12163" lon="8.2572">
        <ele>397.64</ele>
        <time>2012-08-04T14:39:10Z</time>
      </trkpt>
      <trkpt lat="46.12163" lon="8.25703">
        <ele>398.6</ele>
        <time>2012-08-04T14:39:11Z</time>
      </trkpt>
      <trkpt lat="46.12166" lon="8.25688">
        <ele>399.08</ele>
        <time>2012-08-04T14:39:12Z</time>
      </trkpt>
      <trkpt lat="46.12169" lon="8.25672">
        <ele>399.57</ele>
        <time>2012-08-04T14:39:13Z</time>
      </trkpt>
      <trkpt lat="46.1217" lon="8.25655">
        <ele>400.53</ele>
        <time>2012-08-04T14:39:14Z</time>
      </trkpt>
      <trkpt lat="46.12168" lon="8.25636">
        <ele>401.49</ele>
        <time>2012-08-04T14:39:15Z</time>
      </trkpt>
      <trkpt lat="46.12165" lon="8.25598">
        <ele>403.89</ele>
        <time>2012-08-04T14:39:17Z</time>
      </trkpt>
      <trkpt lat="46.12165" lon="8.25581">
        <ele>403.41</ele>
        <time>2012-08-04T14:39:18Z</time>
      </trkpt>
      <trkpt lat="46.12165" lon="8.25564">
        <ele>403.89</ele>
        <time>2012-08-04T14:39:19Z</time>
      </trkpt>
      <trkpt lat="46.12162" lon="8.25548">
        <ele>404.37</ele>
        <time>2012-08-04T14:39:20Z</time>
      </trkpt>
      <trkpt lat="46.12156" lon="8.25532">
        <ele>404.85</ele>
        <time>2012-08-04T14:39:21Z</time>
      </trkpt>
      <trkpt lat="46.12151" lon="8.25516">
        <ele>404.85</ele>
        <time>2012-08-04T14:39:22Z</time>
      </trkpt>
      <trkpt lat="46.12149" lon="8.25499">
        <ele>404.37</ele>
        <time>2012-08-04T14:39:23Z</time>
      </trkpt>
      <trkpt lat="46.12149" lon="8.25482">
        <ele>404.85</ele>
        <time>2012-08-04T14:39:24Z</time>
      </trkpt>
      <trkpt lat="46.1215" lon="8.25464">
        <ele>404.37</ele>
        <time>2012-08-04T14:39:25Z</time>
      </trkpt>
      <trkpt lat="46.12148" lon="8.25447">
        <ele>404.85</ele>
        <time>2012-08-04T14:39:26Z</time>
      </trkpt>
      <trkpt lat="46.12145" lon="8.25428">
        <ele>405.81</ele>
        <time>2012-08-04T14:39:27Z</time>
      </trkpt>
      <trkpt lat="46.1214" lon="8.2541">
        <ele>406.29</ele>
        <time>2012-08-04T14:39:28Z</time>
      </trkpt>
      <trkpt lat="46.12135" lon="8.25392">
        <ele>405.81</ele>
        <time>2012-08-04T14:39:29Z</time>
      </trkpt>
      <trkpt lat="46.12116" lon="8.25342">
        <ele>405.81</ele>
        <time>2012-08-04T14:39:32Z</time>
      </trkpt>
      <trkpt lat="46.12112" lon="8.25324">
        <ele>406.29</ele>
        <time>2012-08-04T14:39:33Z</time>
      </trkpt>
      <trkpt lat="46.12101" lon="8.25258">
        <ele>407.26</ele>
        <time>2012-08-04T14:39:37Z</time>
      </trkpt>
      <trkpt lat="46.12096" lon="8.25244">
        <ele>407.74</ele>
        <time>2012-08-04T14:39:38Z</time>
      </trkpt>
      <trkpt lat="46.12079" lon="8.25205">
        <ele>409.18</ele>
        <time>2012-08-04T14:39:41Z</time>
      </trkpt>
      <trkpt lat="46.12075" lon="8.25191">
        <ele>409.66</ele>
        <time>2012-08-04T14:39:42Z</time>
      </trkpt>
      <trkpt lat="46.1207" lon="8.25176">
        <ele>410.62</ele>
        <time>2012-08-04T14:39:43Z</time>
      </trkpt>
      <trkpt lat="46.12063" lon="8.25163">
        <ele>411.1</ele>
        <time>2012-08-04T14:39:44Z</time>
      </trkpt>
      <trkpt lat="46.12054" lon="8.25151">
        <ele>412.06</ele>
        <time>2012-08-04T14:39:45Z</time>
      </trkpt>
      <trkpt lat="46.12044" lon="8.25139">
        <ele>413.02</ele>
        <time>2012-08-04T14:39:46Z</time>
      </trkpt>
      <trkpt lat="46.12037" lon="8.25132">
        <ele>413.98</ele>
        <time>2012-08-04T14:39:47Z</time>
      </trkpt>
      <trkpt lat="46.12023" lon="8.25115">
        <ele>414.95</ele>
        <time>2012-08-04T14:39:48Z</time>
      </trkpt>
      <trkpt lat="46.11986" lon="8.25064">
        <ele>416.39</ele>
        <time>2012-08-04T14:39:52Z</time>
      </trkpt>
      <trkpt lat="46.11977" lon="8.25055">
        <ele>416.39</ele>
        <time>2012-08-04T14:39:53Z</time>
      </trkpt>
      <trkpt lat="46.11968" lon="8.25047">
        <ele>415.91</ele>
        <time>2012-08-04T14:39:54Z</time>
      </trkpt>
      <trkpt lat="46.1196" lon="8.25037">
        <ele>416.39</ele>
        <time>2012-08-04T14:39:55Z</time>
      </trkpt>
      <trkpt lat="46.11954" lon="8.25024">
        <ele>416.39</ele>
        <time>2012-08-04T14:39:56Z</time>
      </trkpt>
      <trkpt lat="46.11937" lon="8.24968">
        <ele>415.91</ele>
        <time>2012-08-04T14:40:00Z</time>
      </trkpt>
      <trkpt lat="46.11935" lon="8.24953">
        <ele>416.87</ele>
        <time>2012-08-04T14:40:01Z</time>
      </trkpt>
      <trkpt lat="46.11936" lon="8.24939">
        <ele>416.39</ele>
        <time>2012-08-04T14:40:02Z</time>
      </trkpt>
      <trkpt lat="46.11939" lon="8.24925">
        <ele>416.39</ele>
        <time>2012-08-04T14:40:03Z</time>
      </trkpt>
      <trkpt lat="46.11943" lon="8.24912">
        <ele>416.39</ele>
        <time>2012-08-04T14:40:04Z</time>
      </trkpt>
      <trkpt lat="46.11951" lon="8.24877">
        <ele>417.83</ele>
        <time>2012-08-04T14:40:07Z</time>
      </trkpt>
      <trkpt lat="46.11952" lon="8.24865">
        <ele>418.31</ele>
        <time>2012-08-04T14:40:08Z</time>
      </trkpt>
      <trkpt lat="46.11952" lon="8.24852">
        <ele>418.79</ele>
        <time>2012-08-04T14:40:09Z</time>
      </trkpt>
      <trkpt lat="46.1195" lon="8.24839">
        <ele>419.27</ele>
        <time>2012-08-04T14:40:10Z</time>
      </trkpt>
      <trkpt lat="46.11948" lon="8.24824">
        <ele>419.27</ele>
        <time>2012-08-04T14:40:11Z</time>
      </trkpt>
      <trkpt lat="46.11949" lon="8.24809">
        <ele>419.75</ele>
        <time>2012-08-04T14:40:12Z</time>
      </trkpt>
      <trkpt lat="46.11951" lon="8.24792">
        <ele>420.23</ele>
        <time>2012-08-04T14:40:13Z</time>
      </trkpt>
      <trkpt lat="46.11957" lon="8.24776">
        <ele>420.23</ele>
        <time>2012-08-04T14:40:14Z</time>
      </trkpt>
      <trkpt lat="46.11963" lon="8.24762">
        <ele>419.75</ele>
        <time>2012-08-04T14:40:15Z</time>
      </trkpt>
      <trkpt lat="46.11971" lon="8.24748">
        <ele>420.71</ele>
        <time>2012-08-04T14:40:16Z</time>
      </trkpt>
      <trkpt lat="46.11978" lon="8.24735">
        <ele>421.19</ele>
        <time>2012-08-04T14:40:17Z</time>
      </trkpt>
      <trkpt lat="46.12" lon="8.24688">
        <ele>423.6</ele>
        <time>2012-08-04T14:40:20Z</time>
      </trkpt>
      <trkpt lat="46.12006" lon="8.24669">
        <ele>424.08</ele>
        <time>2012-08-04T14:40:21Z</time>
      </trkpt>
      <trkpt lat="46.12011" lon="8.24648">
        <ele>424.56</ele>
        <time>2012-08-04T14:40:22Z</time>
      </trkpt>
      <trkpt lat="46.12037" lon="8.24508">
        <ele>426.96</ele>
        <time>2012-08-04T14:40:29Z</time>
      </trkpt>
      <trkpt lat="46.12043" lon="8.24464">
        <ele>430.33</ele>
        <time>2012-08-04T14:40:31Z</time>
      </trkpt>
      <trkpt lat="46.12046" lon="8.2441">
        <ele>434.65</ele>
        <time>2012-08-04T14:40:33Z</time>
      </trkpt>
      <trkpt lat="46.12048" lon="8.24382">
        <ele>434.65</ele>
        <time>2012-08-04T14:40:34Z</time>
      </trkpt>
      <trkpt lat="46.12052" lon="8.24333">
        <ele>434.17</ele>
        <time>2012-08-04T14:40:36Z</time>
      </trkpt>
      <trkpt lat="46.12058" lon="8.2431">
        <ele>436.1</ele>
        <time>2012-08-04T14:40:37Z</time>
      </trkpt>
      <trkpt lat="46.1207" lon="8.24263">
        <ele>437.06</ele>
        <time>2012-08-04T14:40:39Z</time>
      </trkpt>
      <trkpt lat="46.12078" lon="8.24243">
        <ele>437.54</ele>
        <time>2012-08-04T14:40:40Z</time>
      </trkpt>
      <trkpt lat="46.12086" lon="8.24225">
        <ele>437.06</ele>
        <time>2012-08-04T14:40:41Z</time>
      </trkpt>
      <trkpt lat="46.12093" lon="8.2421">
        <ele>436.58</ele>
        <time>2012-08-04T14:40:42Z</time>
      </trkpt>
      <trkpt lat="46.12097" lon="8.24195">
        <ele>437.54</ele>
        <time>2012-08-04T14:40:43Z</time>
      </trkpt>
      <trkpt lat="46.12099" lon="8.2418">
        <ele>437.54</ele>
        <time>2012-08-04T14:40:44Z</time>
      </trkpt>
      <trkpt lat="46.121" lon="8.24166">
        <ele>437.54</ele>
        <time>2012-08-04T14:40:45Z</time>
      </trkpt>
      <trkpt lat="46.12102" lon="8.24155">
        <ele>437.54</ele>
        <time>2012-08-04T14:40:46Z</time>
      </trkpt>
      <trkpt lat="46.12106" lon="8.24147">
        <ele>437.54</ele>
        <time>2012-08-04T14:40:47Z</time>
      </trkpt>
      <trkpt lat="46.12113" lon="8.24141">
        <ele>437.54</ele>
        <time>2012-08-04T14:40:48Z</time>
      </trkpt>
      <trkpt lat="46.12121" lon="8.24136">
        <ele>438.02</ele>
        <time>2012-08-04T14:40:49Z</time>
      </trkpt>
      <trkpt lat="46.12128" lon="8.24128">
        <ele>437.54</ele>
        <time>2012-08-04T14:40:50Z</time>
      </trkpt>
      <trkpt lat="46.12133" lon="8.24117">
        <ele>438.98</ele>
        <time>2012-08-04T14:40:51Z</time>
      </trkpt>
      <trkpt lat="46.12136" lon="8.24102">
        <ele>439.94</ele>
        <time>2012-08-04T14:40:52Z</time>
      </trkpt>
      <trkpt lat="46.12137" lon="8.24087">
        <ele>440.42</ele>
        <time>2012-08-04T14:40:53Z</time>
      </trkpt>
      <trkpt lat="46.12135" lon="8.24071">
        <ele>440.9</ele>
        <time>2012-08-04T14:40:54Z</time>
      </trkpt>
      <trkpt lat="46.12132" lon="8.24055">
        <ele>441.86</ele>
        <time>2012-08-04T14:40:55Z</time>
      </trkpt>
      <trkpt lat="46.12126" lon="8.24041">
        <ele>442.34</ele>
        <time>2012-08-04T14:40:56Z</time>
      </trkpt>
      <trkpt lat="46.1212" lon="8.24028">
        <ele>442.82</ele>
        <time>2012-08-04T14:40:57Z</time>
      </trkpt>
      <trkpt lat="46.12116" lon="8.24013">
        <ele>443.31</ele>
        <time>2012-08-04T14:40:58Z</time>
      </trkpt>
      <trkpt lat="46.12115" lon="8.23996">
        <ele>444.75</ele>
        <time>2012-08-04T14:40:59Z</time>
      </trkpt>
      <trkpt lat="46.1211" lon="8.2392">
        <ele>448.11</ele>
        <time>2012-08-04T14:41:03Z</time>
      </trkpt>
      <trkpt lat="46.12109" lon="8.23902">
        <ele>449.07</ele>
        <time>2012-08-04T14:41:04Z</time>
      </trkpt>
      <trkpt lat="46.12111" lon="8.23884">
        <ele>450.03</ele>
        <time>2012-08-04T14:41:05Z</time>
      </trkpt>
      <trkpt lat="46.12113" lon="8.23869">
        <ele>449.55</ele>
        <time>2012-08-04T14:41:06Z</time>
      </trkpt>
      <trkpt lat="46.12118" lon="8.23858">
        <ele>450.03</ele>
        <time>2012-08-04T14:41:07Z</time>
      </trkpt>
      <trkpt lat="46.12125" lon="8.23848">
        <ele>451</ele>
        <time>2012-08-04T14:41:08Z</time>
      </trkpt>
      <trkpt lat="46.12132" lon="8.23838">
        <ele>451.96</ele>
        <time>2012-08-04T14:41:09Z</time>
      </trkpt>
      <trkpt lat="46.12138" lon="8.23827">
        <ele>452.92</ele>
        <time>2012-08-04T14:41:10Z</time>
      </trkpt>
      <trkpt lat="46.1214" lon="8.23811">
        <ele>454.36</ele>
        <time>2012-08-04T14:41:11Z</time>
      </trkpt>
      <trkpt lat="46.12139" lon="8.23779">
        <ele>455.32</ele>
        <time>2012-08-04T14:41:13Z</time>
      </trkpt>
      <trkpt lat="46.1214" lon="8.23767">
        <ele>455.32</ele>
        <time>2012-08-04T14:41:14Z</time>
      </trkpt>
      <trkpt lat="46.12143" lon="8.23757">
        <ele>455.32</ele>
        <time>2012-08-04T14:41:15Z</time>
      </trkpt>
      <trkpt lat="46.12149" lon="8.23749">
        <ele>456.28</ele>
        <time>2012-08-04T14:41:16Z</time>
      </trkpt>
      <trkpt lat="46.12156" lon="8.23741">
        <ele>457.24</ele>
        <time>2012-08-04T14:41:17Z</time>
      </trkpt>
      <trkpt lat="46.12163" lon="8.23731">
        <ele>457.72</ele>
        <time>2012-08-04T14:41:18Z</time>
      </trkpt>
      <trkpt lat="46.12169" lon="8.23717">
        <ele>459.17</ele>
        <time>2012-08-04T14:41:19Z</time>
      </trkpt>
      <trkpt lat="46.12172" lon="8.237">
        <ele>460.61</ele>
        <time>2012-08-04T14:41:20Z</time>
      </trkpt>
      <trkpt lat="46.12173" lon="8.2368">
        <ele>460.61</ele>
        <time>2012-08-04T14:41:21Z</time>
      </trkpt>
      <trkpt lat="46.12174" lon="8.23661">
        <ele>461.57</ele>
        <time>2012-08-04T14:41:22Z</time>
      </trkpt>
      <trkpt lat="46.12178" lon="8.23642">
        <ele>461.57</ele>
        <time>2012-08-04T14:41:23Z</time>
      </trkpt>
      <trkpt lat="46.12182" lon="8.23624">
        <ele>462.53</ele>
        <time>2012-08-04T14:41:24Z</time>
      </trkpt>
      <trkpt lat="46.12183" lon="8.23605">
        <ele>463.01</ele>
        <time>2012-08-04T14:41:25Z</time>
      </trkpt>
      <trkpt lat="46.1218" lon="8.23583">
        <ele>464.45</ele>
        <time>2012-08-04T14:41:26Z</time>
      </trkpt>
      <trkpt lat="46.12176" lon="8.23561">
        <ele>464.93</ele>
        <time>2012-08-04T14:41:27Z</time>
      </trkpt>
      <trkpt lat="46.12171" lon="8.23539">
        <ele>465.42</ele>
        <time>2012-08-04T14:41:28Z</time>
      </trkpt>
      <trkpt lat="46.12167" lon="8.23516">
        <ele>466.86</ele>
        <time>2012-08-04T14:41:29Z</time>
      </trkpt>
      <trkpt lat="46.12164" lon="8.23493">
        <ele>466.86</ele>
        <time>2012-08-04T14:41:30Z</time>
      </trkpt>
      <trkpt lat="46.12149" lon="8.23401">
        <ele>470.22</ele>
        <time>2012-08-04T14:41:34Z</time>
      </trkpt>
      <trkpt lat="46.12145" lon="8.2338">
        <ele>470.7</ele>
        <time>2012-08-04T14:41:35Z</time>
      </trkpt>
      <trkpt lat="46.12135" lon="8.23338">
        <ele>472.14</ele>
        <time>2012-08-04T14:41:37Z</time>
      </trkpt>
      <trkpt lat="46.12117" lon="8.23223">
        <ele>473.59</ele>
        <time>2012-08-04T14:41:43Z</time>
      </trkpt>
      <trkpt lat="46.12118" lon="8.23209">
        <ele>473.59</ele>
        <time>2012-08-04T14:41:44Z</time>
      </trkpt>
      <trkpt lat="46.12122" lon="8.23196">
        <ele>474.07</ele>
        <time>2012-08-04T14:41:45Z</time>
      </trkpt>
      <trkpt lat="46.12128" lon="8.23183">
        <ele>475.03</ele>
        <time>2012-08-04T14:41:46Z</time>
      </trkpt>
      <trkpt lat="46.12135" lon="8.2317">
        <ele>476.47</ele>
        <time>2012-08-04T14:41:47Z</time>
      </trkpt>
      <trkpt lat="46.12144" lon="8.23158">
        <ele>477.43</ele>
        <time>2012-08-04T14:41:48Z</time>
      </trkpt>
      <trkpt lat="46.1216" lon="8.23133">
        <ele>478.87</ele>
        <time>2012-08-04T14:41:50Z</time>
      </trkpt>
      <trkpt lat="46.12165" lon="8.23121">
        <ele>479.35</ele>
        <time>2012-08-04T14:41:51Z</time>
      </trkpt>
      <trkpt lat="46.12169" lon="8.23108">
        <ele>480.8</ele>
        <time>2012-08-04T14:41:52Z</time>
      </trkpt>
      <trkpt lat="46.1217" lon="8.23092">
        <ele>482.24</ele>
        <time>2012-08-04T14:41:53Z</time>
      </trkpt>
      <trkpt lat="46.12169" lon="8.23033">
        <ele>486.56</ele>
        <time>2012-08-04T14:41:56Z</time>
      </trkpt>
      <trkpt lat="46.12169" lon="8.22969">
        <ele>490.89</ele>
        <time>2012-08-04T14:41:59Z</time>
      </trkpt>
      <trkpt lat="46.1217" lon="8.22926">
        <ele>493.77</ele>
        <time>2012-08-04T14:42:01Z</time>
      </trkpt>
      <trkpt lat="46.12168" lon="8.22904">
        <ele>495.7</ele>
        <time>2012-08-04T14:42:02Z</time>
      </trkpt>
      <trkpt lat="46.12164" lon="8.22883">
        <ele>497.14</ele>
        <time>2012-08-04T14:42:03Z</time>
      </trkpt>
      <trkpt lat="46.12153" lon="8.2284">
        <ele>500.02</ele>
        <time>2012-08-04T14:42:05Z</time>
      </trkpt>
      <trkpt lat="46.12144" lon="8.22795">
        <ele>503.87</ele>
        <time>2012-08-04T14:42:07Z</time>
      </trkpt>
      <trkpt lat="46.12131" lon="8.22729">
        <ele>507.23</ele>
        <time>2012-08-04T14:42:10Z</time>
      </trkpt>
      <trkpt lat="46.12118" lon="8.22667">
        <ele>511.08</ele>
        <time>2012-08-04T14:42:13Z</time>
      </trkpt>
      <trkpt lat="46.12107" lon="8.22608">
        <ele>514.44</ele>
        <time>2012-08-04T14:42:16Z</time>
      </trkpt>
      <trkpt lat="46.12101" lon="8.22568">
        <ele>518.29</ele>
        <time>2012-08-04T14:42:18Z</time>
      </trkpt>
      <trkpt lat="46.12099" lon="8.22546">
        <ele>519.25</ele>
        <time>2012-08-04T14:42:19Z</time>
      </trkpt>
      <trkpt lat="46.121" lon="8.22502">
        <ele>522.13</ele>
        <time>2012-08-04T14:42:21Z</time>
      </trkpt>
      <trkpt lat="46.12103" lon="8.22427">
        <ele>524.06</ele>
        <time>2012-08-04T14:42:25Z</time>
      </trkpt>
      <trkpt lat="46.12108" lon="8.22413">
        <ele>525.02</ele>
        <time>2012-08-04T14:42:26Z</time>
      </trkpt>
      <trkpt lat="46.12114" lon="8.22398">
        <ele>525.98</ele>
        <time>2012-08-04T14:42:27Z</time>
      </trkpt>
      <trkpt lat="46.12119" lon="8.22383">
        <ele>527.9</ele>
        <time>2012-08-04T14:42:28Z</time>
      </trkpt>
      <trkpt lat="46.12122" lon="8.22366">
        <ele>527.9</ele>
        <time>2012-08-04T14:42:29Z</time>
      </trkpt>
      <trkpt lat="46.12122" lon="8.22349">
        <ele>529.82</ele>
        <time>2012-08-04T14:42:30Z</time>
      </trkpt>
      <trkpt lat="46.12119" lon="8.2233">
        <ele>531.27</ele>
        <time>2012-08-04T14:42:31Z</time>
      </trkpt>
      <trkpt lat="46.12115" lon="8.2231">
        <ele>532.23</ele>
        <time>2012-08-04T14:42:32Z</time>
      </trkpt>
      <trkpt lat="46.12111" lon="8.22293">
        <ele>532.23</ele>
        <time>2012-08-04T14:42:33Z</time>
      </trkpt>
      <trkpt lat="46.12106" lon="8.22278">
        <ele>533.19</ele>
        <time>2012-08-04T14:42:34Z</time>
      </trkpt>
      <trkpt lat="46.12102" lon="8.22266">
        <ele>533.19</ele>
        <time>2012-08-04T14:42:35Z</time>
      </trkpt>
      <trkpt lat="46.121" lon="8.22255">
        <ele>533.19</ele>
        <time>2012-08-04T14:42:36Z</time>
      </trkpt>
      <trkpt lat="46.12102" lon="8.22246">
        <ele>534.15</ele>
        <time>2012-08-04T14:42:37Z</time>
      </trkpt>
      <trkpt lat="46.12107" lon="8.22239">
        <ele>534.15</ele>
        <time>2012-08-04T14:42:38Z</time>
      </trkpt>
      <trkpt lat="46.12115" lon="8.22235">
        <ele>536.07</ele>
        <time>2012-08-04T14:42:39Z</time>
      </trkpt>
      <trkpt lat="46.12123" lon="8.22231">
        <ele>537.51</ele>
        <time>2012-08-04T14:42:40Z</time>
      </trkpt>
      <trkpt lat="46.12134" lon="8.22232">
        <ele>537.99</ele>
        <time>2012-08-04T14:42:41Z</time>
      </trkpt>
      <trkpt lat="46.12145" lon="8.22235">
        <ele>539.92</ele>
        <time>2012-08-04T14:42:42Z</time>
      </trkpt>
      <trkpt lat="46.12156" lon="8.22236">
        <ele>540.4</ele>
        <time>2012-08-04T14:42:43Z</time>
      </trkpt>
      <trkpt lat="46.12166" lon="8.22233">
        <ele>541.36</ele>
        <time>2012-08-04T14:42:44Z</time>
      </trkpt>
      <trkpt lat="46.12174" lon="8.22229">
        <ele>541.84</ele>
        <time>2012-08-04T14:42:45Z</time>
      </trkpt>
      <trkpt lat="46.12181" lon="8.22223">
        <ele>541.84</ele>
        <time>2012-08-04T14:42:46Z</time>
      </trkpt>
      <trkpt lat="46.12193" lon="8.22207">
        <ele>543.76</ele>
        <time>2012-08-04T14:42:48Z</time>
      </trkpt>
      <trkpt lat="46.12195" lon="8.22197">
        <ele>544.72</ele>
        <time>2012-08-04T14:42:49Z</time>
      </trkpt>
      <trkpt lat="46.12194" lon="8.22185">
        <ele>545.2</ele>
        <time>2012-08-04T14:42:50Z</time>
      </trkpt>
      <trkpt lat="46.12193" lon="8.22175">
        <ele>545.2</ele>
        <time>2012-08-04T14:42:51Z</time>
      </trkpt>
      <trkpt lat="46.12188" lon="8.22167">
        <ele>545.69</ele>
        <time>2012-08-04T14:42:52Z</time>
      </trkpt>
      <trkpt lat="46.12182" lon="8.22161">
        <ele>547.13</ele>
        <time>2012-08-04T14:42:53Z</time>
      </trkpt>
      <trkpt lat="46.12174" lon="8.22158">
        <ele>548.09</ele>
        <time>2012-08-04T14:42:54Z</time>
      </trkpt>
      <trkpt lat="46.12162" lon="8.22158">
        <ele>550.01</ele>
        <time>2012-08-04T14:42:55Z</time>
      </trkpt>
      <trkpt lat="46.1215" lon="8.22157">
        <ele>550.97</ele>
        <time>2012-08-04T14:42:56Z</time>
      </trkpt>
      <trkpt lat="46.12127" lon="8.2215">
        <ele>550.49</ele>
        <time>2012-08-04T14:42:59Z</time>
      </trkpt>
      <trkpt lat="46.12125" lon="8.22145">
        <ele>550.97</ele>
        <time>2012-08-04T14:43:00Z</time>
      </trkpt>
      <trkpt lat="46.12126" lon="8.2214">
        <ele>550.97</ele>
        <time>2012-08-04T14:43:01Z</time>
      </trkpt>
      <trkpt lat="46.12129" lon="8.22137">
        <ele>551.45</ele>
        <time>2012-08-04T14:43:02Z</time>
      </trkpt>
      <trkpt lat="46.12135" lon="8.22139">
        <ele>552.41</ele>
        <time>2012-08-04T14:43:03Z</time>
      </trkpt>
      <trkpt lat="46.12141" lon="8.22143">
        <ele>552.9</ele>
        <time>2012-08-04T14:43:04Z</time>
      </trkpt>
      <trkpt lat="46.12148" lon="8.22147">
        <ele>554.34</ele>
        <time>2012-08-04T14:43:05Z</time>
      </trkpt>
      <trkpt lat="46.12157" lon="8.22149">
        <ele>554.82</ele>
        <time>2012-08-04T14:43:06Z</time>
      </trkpt>
      <trkpt lat="46.12166" lon="8.2215">
        <ele>555.78</ele>
        <time>2012-08-04T14:43:07Z</time>
      </trkpt>
      <trkpt lat="46.12177" lon="8.22149">
        <ele>556.74</ele>
        <time>2012-08-04T14:43:08Z</time>
      </trkpt>
      <trkpt lat="46.12195" lon="8.22145">
        <ele>558.18</ele>
        <time>2012-08-04T14:43:10Z</time>
      </trkpt>
      <trkpt lat="46.12202" lon="8.22139">
        <ele>558.66</ele>
        <time>2012-08-04T14:43:11Z</time>
      </trkpt>
      <trkpt lat="46.12208" lon="8.2213">
        <ele>559.62</ele>
        <time>2012-08-04T14:43:12Z</time>
      </trkpt>
      <trkpt lat="46.12214" lon="8.22119">
        <ele>561.07</ele>
        <time>2012-08-04T14:43:13Z</time>
      </trkpt>
      <trkpt lat="46.12217" lon="8.22105">
        <ele>562.99</ele>
        <time>2012-08-04T14:43:14Z</time>
      </trkpt>
      <trkpt lat="46.1222" lon="8.22087">
        <ele>563.95</ele>
        <time>2012-08-04T14:43:15Z</time>
      </trkpt>
      <trkpt lat="46.12221" lon="8.22067">
        <ele>565.39</ele>
        <time>2012-08-04T14:43:16Z</time>
      </trkpt>
      <trkpt lat="46.1222" lon="8.22045">
        <ele>566.35</ele>
        <time>2012-08-04T14:43:17Z</time>
      </trkpt>
      <trkpt lat="46.12218" lon="8.22023">
        <ele>567.8</ele>
        <time>2012-08-04T14:43:18Z</time>
      </trkpt>
      <trkpt lat="46.12215" lon="8.22002">
        <ele>569.72</ele>
        <time>2012-08-04T14:43:19Z</time>
      </trkpt>
      <trkpt lat="46.12208" lon="8.2196">
        <ele>570.2</ele>
        <time>2012-08-04T14:43:21Z</time>
      </trkpt>
      <trkpt lat="46.12206" lon="8.21941">
        <ele>570.68</ele>
        <time>2012-08-04T14:43:22Z</time>
      </trkpt>
      <trkpt lat="46.12204" lon="8.21922">
        <ele>572.12</ele>
        <time>2012-08-04T14:43:23Z</time>
      </trkpt>
      <trkpt lat="46.122" lon="8.21903">
        <ele>573.56</ele>
        <time>2012-08-04T14:43:24Z</time>
      </trkpt>
      <trkpt lat="46.12179" lon="8.21827">
        <ele>576.93</ele>
        <time>2012-08-04T14:43:28Z</time>
      </trkpt>
      <trkpt lat="46.12177" lon="8.21806">
        <ele>576.93</ele>
        <time>2012-08-04T14:43:29Z</time>
      </trkpt>
      <trkpt lat="46.12174" lon="8.21763">
        <ele>577.41</ele>
        <time>2012-08-04T14:43:31Z</time>
      </trkpt>
      <trkpt lat="46.12169" lon="8.21742">
        <ele>577.89</ele>
        <time>2012-08-04T14:43:32Z</time>
      </trkpt>
      <trkpt lat="46.12163" lon="8.21721">
        <ele>579.33</ele>
        <time>2012-08-04T14:43:33Z</time>
      </trkpt>
      <trkpt lat="46.12155" lon="8.21703">
        <ele>579.33</ele>
        <time>2012-08-04T14:43:34Z</time>
      </trkpt>
      <trkpt lat="46.12143" lon="8.21668">
        <ele>579.81</ele>
        <time>2012-08-04T14:43:36Z</time>
      </trkpt>
      <trkpt lat="46.12141" lon="8.2165">
        <ele>580.77</ele>
        <time>2012-08-04T14:43:37Z</time>
      </trkpt>
      <trkpt lat="46.12142" lon="8.2163">
        <ele>581.73</ele>
        <time>2012-08-04T14:43:38Z</time>
      </trkpt>
      <trkpt lat="46.12148" lon="8.21589">
        <ele>584.62</ele>
        <time>2012-08-04T14:43:40Z</time>
      </trkpt>
      <trkpt lat="46.12168" lon="8.21503">
        <ele>587.02</ele>
        <time>2012-08-04T14:43:44Z</time>
      </trkpt>
      <trkpt lat="46.12174" lon="8.21486">
        <ele>586.54</ele>
        <time>2012-08-04T14:43:45Z</time>
      </trkpt>
      <trkpt lat="46.12179" lon="8.21471">
        <ele>586.54</ele>
        <time>2012-08-04T14:43:46Z</time>
      </trkpt>
      <trkpt lat="46.12185" lon="8.21442">
        <ele>588.46</ele>
        <time>2012-08-04T14:43:48Z</time>
      </trkpt>
      <trkpt lat="46.12185" lon="8.21424">
        <ele>589.43</ele>
        <time>2012-08-04T14:43:49Z</time>
      </trkpt>
      <trkpt lat="46.12191" lon="8.21368">
        <ele>592.79</ele>
        <time>2012-08-04T14:43:52Z</time>
      </trkpt>
      <trkpt lat="46.12189" lon="8.21324">
        <ele>593.27</ele>
        <time>2012-08-04T14:43:54Z</time>
      </trkpt>
      <trkpt lat="46.1219" lon="8.21306">
        <ele>593.75</ele>
        <time>2012-08-04T14:43:55Z</time>
      </trkpt>
      <trkpt lat="46.12193" lon="8.21291">
        <ele>593.75</ele>
        <time>2012-08-04T14:43:56Z</time>
      </trkpt>
      <trkpt lat="46.12195" lon="8.21277">
        <ele>594.23</ele>
        <time>2012-08-04T14:43:57Z</time>
      </trkpt>
      <trkpt lat="46.12209" lon="8.21228">
        <ele>597.6</ele>
        <time>2012-08-04T14:44:01Z</time>
      </trkpt>
      <trkpt lat="46.12229" lon="8.21174">
        <ele>600.96</ele>
        <time>2012-08-04T14:44:04Z</time>
      </trkpt>
      <trkpt lat="46.12232" lon="8.21159">
        <ele>601.92</ele>
        <time>2012-08-04T14:44:05Z</time>
      </trkpt>
      <trkpt lat="46.12234" lon="8.21144">
        <ele>602.88</ele>
        <time>2012-08-04T14:44:06Z</time>
      </trkpt>
      <trkpt lat="46.12234" lon="8.21131">
        <ele>603.36</ele>
        <time>2012-08-04T14:44:07Z</time>
      </trkpt>
      <trkpt lat="46.12232" lon="8.21086">
        <ele>606.73</ele>
        <time>2012-08-04T14:44:11Z</time>
      </trkpt>
      <trkpt lat="46.12233" lon="8.21074">
        <ele>608.17</ele>
        <time>2012-08-04T14:44:12Z</time>
      </trkpt>
      <trkpt lat="46.12241" lon="8.21027">
        <ele>611.54</ele>
        <time>2012-08-04T14:44:16Z</time>
      </trkpt>
      <trkpt lat="46.12249" lon="8.20984">
        <ele>614.9</ele>
        <time>2012-08-04T14:44:20Z</time>
      </trkpt>
      <trkpt lat="46.12258" lon="8.20939">
        <ele>618.26</ele>
        <time>2012-08-04T14:44:24Z</time>
      </trkpt>
      <trkpt lat="46.12267" lon="8.2088">
        <ele>622.11</ele>
        <time>2012-08-04T14:44:29Z</time>
      </trkpt>
      <trkpt lat="46.1227" lon="8.20855">
        <ele>623.07</ele>
        <time>2012-08-04T14:44:31Z</time>
      </trkpt>
      <trkpt lat="46.12277" lon="8.20811">
        <ele>626.44</ele>
        <time>2012-08-04T14:44:35Z</time>
      </trkpt>
      <trkpt lat="46.12284" lon="8.2077">
        <ele>629.32</ele>
        <time>2012-08-04T14:44:38Z</time>
      </trkpt>
      <trkpt lat="46.1229" lon="8.2073">
        <ele>632.68</ele>
        <time>2012-08-04T14:44:41Z</time>
      </trkpt>
      <trkpt lat="46.12291" lon="8.20717">
        <ele>632.68</ele>
        <time>2012-08-04T14:44:42Z</time>
      </trkpt>
      <trkpt lat="46.12293" lon="8.2069">
        <ele>635.57</ele>
        <time>2012-08-04T14:44:44Z</time>
      </trkpt>
      <trkpt lat="46.12292" lon="8.20665">
        <ele>637.01</ele>
        <time>2012-08-04T14:44:46Z</time>
      </trkpt>
      <trkpt lat="46.1229" lon="8.20644">
        <ele>638.93</ele>
        <time>2012-08-04T14:44:48Z</time>
      </trkpt>
      <trkpt lat="46.12289" lon="8.20634">
        <ele>640.38</ele>
        <time>2012-08-04T14:44:49Z</time>
      </trkpt>
      <trkpt lat="46.12287" lon="8.20614">
        <ele>642.3</ele>
        <time>2012-08-04T14:44:51Z</time>
      </trkpt>
      <trkpt lat="46.12285" lon="8.20606">
        <ele>642.3</ele>
        <time>2012-08-04T14:44:52Z</time>
      </trkpt>
      <trkpt lat="46.12285" lon="8.20598">
        <ele>642.78</ele>
        <time>2012-08-04T14:44:53Z</time>
      </trkpt>
      <trkpt lat="46.12286" lon="8.20592">
        <ele>643.26</ele>
        <time>2012-08-04T14:44:54Z</time>
      </trkpt>
      <trkpt lat="46.12289" lon="8.20589">
        <ele>643.74</ele>
        <time>2012-08-04T14:44:55Z</time>
      </trkpt>
      <trkpt lat="46.12293" lon="8.20589">
        <ele>644.22</ele>
        <time>2012-08-04T14:44:56Z</time>
      </trkpt>
      <trkpt lat="46.12297" lon="8.20593">
        <ele>644.7</ele>
        <time>2012-08-04T14:44:57Z</time>
      </trkpt>
      <trkpt lat="46.12299" lon="8.206">
        <ele>645.18</ele>
        <time>2012-08-04T14:44:58Z</time>
      </trkpt>
      <trkpt lat="46.12302" lon="8.20609">
        <ele>645.18</ele>
        <time>2012-08-04T14:44:59Z</time>
      </trkpt>
      <trkpt lat="46.12315" lon="8.20666">
        <ele>647.59</ele>
        <time>2012-08-04T14:45:04Z</time>
      </trkpt>
      <trkpt lat="46.12328" lon="8.20719">
        <ele>649.99</ele>
        <time>2012-08-04T14:45:09Z</time>
      </trkpt>
      <trkpt lat="46.1233" lon="8.20738">
        <ele>650.47</ele>
        <time>2012-08-04T14:45:11Z</time>
      </trkpt>
      <trkpt lat="46.12333" lon="8.20742">
        <ele>650.47</ele>
        <time>2012-08-04T14:45:12Z</time>
      </trkpt>
      <trkpt lat="46.12337" lon="8.20743">
        <ele>651.43</ele>
        <time>2012-08-04T14:45:13Z</time>
      </trkpt>
      <trkpt lat="46.1234" lon="8.2074">
        <ele>651.43</ele>
        <time>2012-08-04T14:45:14Z</time>
      </trkpt>
      <trkpt lat="46.12342" lon="8.20733">
        <ele>651.91</ele>
        <time>2012-08-04T14:45:15Z</time>
      </trkpt>
      <trkpt lat="46.12343" lon="8.20722">
        <ele>652.39</ele>
        <time>2012-08-04T14:45:16Z</time>
      </trkpt>
      <trkpt lat="46.12343" lon="8.20711">
        <ele>653.35</ele>
        <time>2012-08-04T14:45:17Z</time>
      </trkpt>
      <trkpt lat="46.1234" lon="8.20698">
        <ele>654.31</ele>
        <time>2012-08-04T14:45:18Z</time>
      </trkpt>
      <trkpt lat="46.12337" lon="8.20684">
        <ele>654.8</ele>
        <time>2012-08-04T14:45:19Z</time>
      </trkpt>
      <trkpt lat="46.12334" lon="8.20671">
        <ele>655.28</ele>
        <time>2012-08-04T14:45:20Z</time>
      </trkpt>
      <trkpt lat="46.12331" lon="8.20658">
        <ele>655.76</ele>
        <time>2012-08-04T14:45:21Z</time>
      </trkpt>
      <trkpt lat="46.1233" lon="8.20646">
        <ele>656.24</ele>
        <time>2012-08-04T14:45:22Z</time>
      </trkpt>
      <trkpt lat="46.12331" lon="8.20633">
        <ele>656.72</ele>
        <time>2012-08-04T14:45:23Z</time>
      </trkpt>
      <trkpt lat="46.12333" lon="8.20571">
        <ele>660.56</ele>
        <time>2012-08-04T14:45:27Z</time>
      </trkpt>
      <trkpt lat="46.12333" lon="8.20554">
        <ele>662.49</ele>
        <time>2012-08-04T14:45:28Z</time>
      </trkpt>
      <trkpt lat="46.12331" lon="8.20536">
        <ele>663.45</ele>
        <time>2012-08-04T14:45:29Z</time>
      </trkpt>
      <trkpt lat="46.12322" lon="8.20487">
        <ele>666.81</ele>
        <time>2012-08-04T14:45:32Z</time>
      </trkpt>
      <trkpt lat="46.12314" lon="8.20437">
        <ele>669.22</ele>
        <time>2012-08-04T14:45:35Z</time>
      </trkpt>
      <trkpt lat="46.12314" lon="8.20423">
        <ele>670.18</ele>
        <time>2012-08-04T14:45:36Z</time>
      </trkpt>
      <trkpt lat="46.12314" lon="8.20409">
        <ele>671.14</ele>
        <time>2012-08-04T14:45:37Z</time>
      </trkpt>
      <trkpt lat="46.12312" lon="8.20395">
        <ele>672.58</ele>
        <time>2012-08-04T14:45:38Z</time>
      </trkpt>
      <trkpt lat="46.12309" lon="8.20381">
        <ele>674.02</ele>
        <time>2012-08-04T14:45:39Z</time>
      </trkpt>
      <trkpt lat="46.12303" lon="8.20368">
        <ele>675.46</ele>
        <time>2012-08-04T14:45:40Z</time>
      </trkpt>
      <trkpt lat="46.12297" lon="8.20356">
        <ele>676.42</ele>
        <time>2012-08-04T14:45:41Z</time>
      </trkpt>
      <trkpt lat="46.12279" lon="8.20316">
        <ele>680.27</ele>
        <time>2012-08-04T14:45:44Z</time>
      </trkpt>
      <trkpt lat="46.12247" lon="8.20261">
        <ele>683.63</ele>
        <time>2012-08-04T14:45:49Z</time>
      </trkpt>
      <trkpt lat="46.12243" lon="8.20252">
        <ele>683.63</ele>
        <time>2012-08-04T14:45:50Z</time>
      </trkpt>
      <trkpt lat="46.12239" lon="8.20241">
        <ele>684.6</ele>
        <time>2012-08-04T14:45:51Z</time>
      </trkpt>
      <trkpt lat="46.12235" lon="8.20229">
        <ele>685.56</ele>
        <time>2012-08-04T14:45:52Z</time>
      </trkpt>
      <trkpt lat="46.1223" lon="8.202">
        <ele>687</ele>
        <time>2012-08-04T14:45:54Z</time>
      </trkpt>
      <trkpt lat="46.12229" lon="8.20185">
        <ele>688.44</ele>
        <time>2012-08-04T14:45:55Z</time>
      </trkpt>
      <trkpt lat="46.12229" lon="8.20155">
        <ele>689.88</ele>
        <time>2012-08-04T14:45:57Z</time>
      </trkpt>
      <trkpt lat="46.12231" lon="8.20138">
        <ele>690.84</ele>
        <time>2012-08-04T14:45:58Z</time>
      </trkpt>
      <trkpt lat="46.12233" lon="8.2012">
        <ele>692.29</ele>
        <time>2012-08-04T14:45:59Z</time>
      </trkpt>
      <trkpt lat="46.12237" lon="8.20085">
        <ele>694.21</ele>
        <time>2012-08-04T14:46:01Z</time>
      </trkpt>
      <trkpt lat="46.12237" lon="8.2007">
        <ele>695.17</ele>
        <time>2012-08-04T14:46:02Z</time>
      </trkpt>
      <trkpt lat="46.12232" lon="8.2002">
        <ele>699.98</ele>
        <time>2012-08-04T14:46:05Z</time>
      </trkpt>
      <trkpt lat="46.12223" lon="8.19967">
        <ele>703.82</ele>
        <time>2012-08-04T14:46:08Z</time>
      </trkpt>
      <trkpt lat="46.12221" lon="8.19948">
        <ele>705.26</ele>
        <time>2012-08-04T14:46:09Z</time>
      </trkpt>
      <trkpt lat="46.12221" lon="8.19929">
        <ele>707.19</ele>
        <time>2012-08-04T14:46:10Z</time>
      </trkpt>
      <trkpt lat="46.1222" lon="8.19886">
        <ele>710.55</ele>
        <time>2012-08-04T14:46:12Z</time>
      </trkpt>
      <trkpt lat="46.12217" lon="8.19843">
        <ele>713.92</ele>
        <time>2012-08-04T14:46:14Z</time>
      </trkpt>
      <trkpt lat="46.12217" lon="8.19825">
        <ele>714.4</ele>
        <time>2012-08-04T14:46:15Z</time>
      </trkpt>
      <trkpt lat="46.12219" lon="8.19806">
        <ele>716.8</ele>
        <time>2012-08-04T14:46:16Z</time>
      </trkpt>
      <trkpt lat="46.12225" lon="8.19771">
        <ele>719.2</ele>
        <time>2012-08-04T14:46:18Z</time>
      </trkpt>
      <trkpt lat="46.12229" lon="8.19734">
        <ele>721.13</ele>
        <time>2012-08-04T14:46:20Z</time>
      </trkpt>
      <trkpt lat="46.12233" lon="8.19719">
        <ele>722.09</ele>
        <time>2012-08-04T14:46:21Z</time>
      </trkpt>
      <trkpt lat="46.12239" lon="8.19704">
        <ele>723.53</ele>
        <time>2012-08-04T14:46:22Z</time>
      </trkpt>
      <trkpt lat="46.12246" lon="8.19689">
        <ele>724.97</ele>
        <time>2012-08-04T14:46:23Z</time>
      </trkpt>
      <trkpt lat="46.12252" lon="8.19675">
        <ele>725.45</ele>
        <time>2012-08-04T14:46:24Z</time>
      </trkpt>
      <trkpt lat="46.1226" lon="8.19662">
        <ele>726.41</ele>
        <time>2012-08-04T14:46:25Z</time>
      </trkpt>
      <trkpt lat="46.12276" lon="8.19631">
        <ele>728.82</ele>
        <time>2012-08-04T14:46:28Z</time>
      </trkpt>
      <trkpt lat="46.12281" lon="8.19629">
        <ele>729.3</ele>
        <time>2012-08-04T14:46:29Z</time>
      </trkpt>
      <trkpt lat="46.12285" lon="8.19631">
        <ele>729.78</ele>
        <time>2012-08-04T14:46:30Z</time>
      </trkpt>
      <trkpt lat="46.12288" lon="8.19636">
        <ele>729.78</ele>
        <time>2012-08-04T14:46:31Z</time>
      </trkpt>
      <trkpt lat="46.12289" lon="8.19641">
        <ele>730.26</ele>
        <time>2012-08-04T14:46:32Z</time>
      </trkpt>
      <trkpt lat="46.12288" lon="8.19646">
        <ele>731.7</ele>
        <time>2012-08-04T14:46:33Z</time>
      </trkpt>
      <trkpt lat="46.12287" lon="8.19653">
        <ele>734.1</ele>
        <time>2012-08-04T14:46:34Z</time>
      </trkpt>
      <trkpt lat="46.12274" lon="8.19714">
        <ele>737.95</ele>
        <time>2012-08-04T14:46:39Z</time>
      </trkpt>
      <trkpt lat="46.12272" lon="8.19729">
        <ele>739.39</ele>
        <time>2012-08-04T14:46:40Z</time>
      </trkpt>
      <trkpt lat="46.12269" lon="8.1975">
        <ele>741.31</ele>
        <time>2012-08-04T14:46:41Z</time>
      </trkpt>
      <trkpt lat="46.1227" lon="8.1977">
        <ele>742.76</ele>
        <time>2012-08-04T14:46:42Z</time>
      </trkpt>
      <trkpt lat="46.12267" lon="8.1979">
        <ele>742.76</ele>
        <time>2012-08-04T14:46:43Z</time>
      </trkpt>
      <trkpt lat="46.12263" lon="8.19808">
        <ele>744.2</ele>
        <time>2012-08-04T14:46:44Z</time>
      </trkpt>
      <trkpt lat="46.12263" lon="8.19824">
        <ele>745.16</ele>
        <time>2012-08-04T14:46:45Z</time>
      </trkpt>
      <trkpt lat="46.12263" lon="8.19839">
        <ele>745.16</ele>
        <time>2012-08-04T14:46:46Z</time>
      </trkpt>
      <trkpt lat="46.12265" lon="8.19852">
        <ele>745.64</ele>
        <time>2012-08-04T14:46:47Z</time>
      </trkpt>
      <trkpt lat="46.12266" lon="8.19863">
        <ele>746.12</ele>
        <time>2012-08-04T14:46:48Z</time>
      </trkpt>
      <trkpt lat="46.12269" lon="8.19875">
        <ele>746.6</ele>
        <time>2012-08-04T14:46:49Z</time>
      </trkpt>
      <trkpt lat="46.12273" lon="8.19884">
        <ele>747.56</ele>
        <time>2012-08-04T14:46:50Z</time>
      </trkpt>
      <trkpt lat="46.12281" lon="8.19895">
        <ele>748.52</ele>
        <time>2012-08-04T14:46:51Z</time>
      </trkpt>
      <trkpt lat="46.12287" lon="8.19908">
        <ele>749.97</ele>
        <time>2012-08-04T14:46:52Z</time>
      </trkpt>
      <trkpt lat="46.12318" lon="8.19961">
        <ele>751.89</ele>
        <time>2012-08-04T14:46:56Z</time>
      </trkpt>
      <trkpt lat="46.12327" lon="8.19972">
        <ele>752.37</ele>
        <time>2012-08-04T14:46:57Z</time>
      </trkpt>
      <trkpt lat="46.12363" lon="8.20013">
        <ele>753.33</ele>
        <time>2012-08-04T14:47:03Z</time>
      </trkpt>
      <trkpt lat="46.12364" lon="8.20021">
        <ele>755.25</ele>
        <time>2012-08-04T14:47:04Z</time>
      </trkpt>
      <trkpt lat="46.12366" lon="8.20053">
        <ele>758.62</ele>
        <time>2012-08-04T14:47:06Z</time>
      </trkpt>
      <trkpt lat="46.12365" lon="8.20082">
        <ele>759.58</ele>
        <time>2012-08-04T14:47:08Z</time>
      </trkpt>
      <trkpt lat="46.12353" lon="8.20118">
        <ele>761.98</ele>
        <time>2012-08-04T14:47:10Z</time>
      </trkpt>
      <trkpt lat="46.12348" lon="8.20133">
        <ele>762.46</ele>
        <time>2012-08-04T14:47:11Z</time>
      </trkpt>
      <trkpt lat="46.12342" lon="8.20145">
        <ele>762.46</ele>
        <time>2012-08-04T14:47:12Z</time>
      </trkpt>
      <trkpt lat="46.1234" lon="8.20154">
        <ele>761.98</ele>
        <time>2012-08-04T14:47:13Z</time>
      </trkpt>
      <trkpt lat="46.12336" lon="8.20166">
        <ele>762.46</ele>
        <time>2012-08-04T14:47:14Z</time>
      </trkpt>
      <trkpt lat="46.12338" lon="8.20169">
        <ele>762.46</ele>
        <time>2012-08-04T14:47:15Z</time>
      </trkpt>
      <trkpt lat="46.12341" lon="8.2017">
        <ele>763.42</ele>
        <time>2012-08-04T14:47:16Z</time>
      </trkpt>
      <trkpt lat="46.12345" lon="8.20169">
        <ele>764.39</ele>
        <time>2012-08-04T14:47:17Z</time>
      </trkpt>
      <trkpt lat="46.12348" lon="8.20167">
        <ele>765.35</ele>
        <time>2012-08-04T14:47:18Z</time>
      </trkpt>
      <trkpt lat="46.12351" lon="8.20163">
        <ele>766.79</ele>
        <time>2012-08-04T14:47:19Z</time>
      </trkpt>
      <trkpt lat="46.12356" lon="8.20156">
        <ele>767.75</ele>
        <time>2012-08-04T14:47:20Z</time>
      </trkpt>
      <trkpt lat="46.1236" lon="8.20147">
        <ele>768.71</ele>
        <time>2012-08-04T14:47:21Z</time>
      </trkpt>
      <trkpt lat="46.12363" lon="8.2014">
        <ele>770.15</ele>
        <time>2012-08-04T14:47:22Z</time>
      </trkpt>
      <trkpt lat="46.12361" lon="8.20114">
        <ele>771.6</ele>
        <time>2012-08-04T14:47:23Z</time>
      </trkpt>
      <trkpt lat="46.12363" lon="8.20058">
        <ele>774.48</ele>
        <time>2012-08-04T14:47:26Z</time>
      </trkpt>
      <trkpt lat="46.12369" lon="8.20046">
        <ele>775.44</ele>
        <time>2012-08-04T14:47:27Z</time>
      </trkpt>
      <trkpt lat="46.12377" lon="8.20023">
        <ele>775.92</ele>
        <time>2012-08-04T14:47:29Z</time>
      </trkpt>
      <trkpt lat="46.12379" lon="8.20012">
        <ele>776.88</ele>
        <time>2012-08-04T14:47:30Z</time>
      </trkpt>
      <trkpt lat="46.12379" lon="8.20001">
        <ele>777.36</ele>
        <time>2012-08-04T14:47:31Z</time>
      </trkpt>
      <trkpt lat="46.12377" lon="8.19961">
        <ele>779.77</ele>
        <time>2012-08-04T14:47:35Z</time>
      </trkpt>
      <trkpt lat="46.12375" lon="8.19947">
        <ele>780.73</ele>
        <time>2012-08-04T14:47:36Z</time>
      </trkpt>
      <trkpt lat="46.12373" lon="8.19933">
        <ele>781.69</ele>
        <time>2012-08-04T14:47:37Z</time>
      </trkpt>
      <trkpt lat="46.12368" lon="8.19917">
        <ele>783.13</ele>
        <time>2012-08-04T14:47:38Z</time>
      </trkpt>
      <trkpt lat="46.12361" lon="8.19902">
        <ele>784.57</ele>
        <time>2012-08-04T14:47:39Z</time>
      </trkpt>
      <trkpt lat="46.12356" lon="8.19887">
        <ele>786.02</ele>
        <time>2012-08-04T14:47:40Z</time>
      </trkpt>
      <trkpt lat="46.12353" lon="8.19874">
        <ele>787.46</ele>
        <time>2012-08-04T14:47:41Z</time>
      </trkpt>
      <trkpt lat="46.12347" lon="8.19853">
        <ele>788.9</ele>
        <time>2012-08-04T14:47:42Z</time>
      </trkpt>
      <trkpt lat="46.12339" lon="8.19803">
        <ele>792.26</ele>
        <time>2012-08-04T14:47:45Z</time>
      </trkpt>
      <trkpt lat="46.1234" lon="8.19788">
        <ele>793.22</ele>
        <time>2012-08-04T14:47:46Z</time>
      </trkpt>
      <trkpt lat="46.12342" lon="8.19775">
        <ele>793.71</ele>
        <time>2012-08-04T14:47:47Z</time>
      </trkpt>
      <trkpt lat="46.12346" lon="8.19765">
        <ele>794.67</ele>
        <time>2012-08-04T14:47:48Z</time>
      </trkpt>
      <trkpt lat="46.12357" lon="8.19746">
        <ele>798.03</ele>
        <time>2012-08-04T14:47:50Z</time>
      </trkpt>
      <trkpt lat="46.12364" lon="8.19734">
        <ele>799.47</ele>
        <time>2012-08-04T14:47:51Z</time>
      </trkpt>
      <trkpt lat="46.12378" lon="8.19706">
        <ele>802.84</ele>
        <time>2012-08-04T14:47:53Z</time>
      </trkpt>
      <trkpt lat="46.12392" lon="8.19671">
        <ele>803.8</ele>
        <time>2012-08-04T14:47:56Z</time>
      </trkpt>
      <trkpt lat="46.12395" lon="8.19665">
        <ele>804.76</ele>
        <time>2012-08-04T14:47:57Z</time>
      </trkpt>
      <trkpt lat="46.12399" lon="8.19665">
        <ele>805.72</ele>
        <time>2012-08-04T14:47:58Z</time>
      </trkpt>
      <trkpt lat="46.12402" lon="8.1967">
        <ele>805.72</ele>
        <time>2012-08-04T14:47:59Z</time>
      </trkpt>
      <trkpt lat="46.12404" lon="8.19676">
        <ele>806.2</ele>
        <time>2012-08-04T14:48:00Z</time>
      </trkpt>
      <trkpt lat="46.12405" lon="8.19682">
        <ele>807.16</ele>
        <time>2012-08-04T14:48:01Z</time>
      </trkpt>
      <trkpt lat="46.12405" lon="8.19687">
        <ele>807.64</ele>
        <time>2012-08-04T14:48:02Z</time>
      </trkpt>
      <trkpt lat="46.12403" lon="8.19696">
        <ele>809.09</ele>
        <time>2012-08-04T14:48:03Z</time>
      </trkpt>
      <trkpt lat="46.12401" lon="8.19708">
        <ele>810.05</ele>
        <time>2012-08-04T14:48:04Z</time>
      </trkpt>
      <trkpt lat="46.12393" lon="8.19737">
        <ele>811.01</ele>
        <time>2012-08-04T14:48:06Z</time>
      </trkpt>
      <trkpt lat="46.12384" lon="8.19752">
        <ele>811.49</ele>
        <time>2012-08-04T14:48:07Z</time>
      </trkpt>
      <trkpt lat="46.12368" lon="8.19774">
        <ele>811.97</ele>
        <time>2012-08-04T14:48:09Z</time>
      </trkpt>
      <trkpt lat="46.12362" lon="8.19784">
        <ele>812.45</ele>
        <time>2012-08-04T14:48:10Z</time>
      </trkpt>
      <trkpt lat="46.12358" lon="8.19795">
        <ele>813.41</ele>
        <time>2012-08-04T14:48:11Z</time>
      </trkpt>
      <trkpt lat="46.12356" lon="8.19806">
        <ele>815.34</ele>
        <time>2012-08-04T14:48:12Z</time>
      </trkpt>
      <trkpt lat="46.12354" lon="8.19817">
        <ele>816.78</ele>
        <time>2012-08-04T14:48:13Z</time>
      </trkpt>
      <trkpt lat="46.12355" lon="8.19831">
        <ele>817.74</ele>
        <time>2012-08-04T14:48:14Z</time>
      </trkpt>
      <trkpt lat="46.1236" lon="8.19846">
        <ele>818.22</ele>
        <time>2012-08-04T14:48:15Z</time>
      </trkpt>
      <trkpt lat="46.12365" lon="8.19856">
        <ele>819.66</ele>
        <time>2012-08-04T14:48:16Z</time>
      </trkpt>
      <trkpt lat="46.12376" lon="8.19873">
        <ele>821.58</ele>
        <time>2012-08-04T14:48:17Z</time>
      </trkpt>
      <trkpt lat="46.12406" lon="8.19916">
        <ele>825.91</ele>
        <time>2012-08-04T14:48:20Z</time>
      </trkpt>
      <trkpt lat="46.12436" lon="8.19957">
        <ele>827.35</ele>
        <time>2012-08-04T14:48:24Z</time>
      </trkpt>
      <trkpt lat="46.12442" lon="8.19961">
        <ele>827.35</ele>
        <time>2012-08-04T14:48:25Z</time>
      </trkpt>
      <trkpt lat="46.1245" lon="8.19959">
        <ele>828.31</ele>
        <time>2012-08-04T14:48:27Z</time>
      </trkpt>
      <trkpt lat="46.12457" lon="8.19948">
        <ele>831.2</ele>
        <time>2012-08-04T14:48:30Z</time>
      </trkpt>
      <trkpt lat="46.12457" lon="8.19941">
        <ele>831.2</ele>
        <time>2012-08-04T14:48:31Z</time>
      </trkpt>
      <trkpt lat="46.12458" lon="8.19905">
        <ele>834.56</ele>
        <time>2012-08-04T14:48:34Z</time>
      </trkpt>
      <trkpt lat="46.12451" lon="8.19881">
        <ele>836</ele>
        <time>2012-08-04T14:48:35Z</time>
      </trkpt>
      <trkpt lat="46.12442" lon="8.19867">
        <ele>836.48</ele>
        <time>2012-08-04T14:48:36Z</time>
      </trkpt>
      <trkpt lat="46.12439" lon="8.1986">
        <ele>837.45</ele>
        <time>2012-08-04T14:48:37Z</time>
      </trkpt>
      <trkpt lat="46.12418" lon="8.19841">
        <ele>837.93</ele>
        <time>2012-08-04T14:48:38Z</time>
      </trkpt>
      <trkpt lat="46.12413" lon="8.19827">
        <ele>839.37</ele>
        <time>2012-08-04T14:48:39Z</time>
      </trkpt>
      <trkpt lat="46.12411" lon="8.19813">
        <ele>840.33</ele>
        <time>2012-08-04T14:48:40Z</time>
      </trkpt>
      <trkpt lat="46.12412" lon="8.19799">
        <ele>840.33</ele>
        <time>2012-08-04T14:48:41Z</time>
      </trkpt>
      <trkpt lat="46.12416" lon="8.19787">
        <ele>842.25</ele>
        <time>2012-08-04T14:48:42Z</time>
      </trkpt>
      <trkpt lat="46.1242" lon="8.19776">
        <ele>842.73</ele>
        <time>2012-08-04T14:48:43Z</time>
      </trkpt>
      <trkpt lat="46.12427" lon="8.1976">
        <ele>844.18</ele>
        <time>2012-08-04T14:48:45Z</time>
      </trkpt>
      <trkpt lat="46.12431" lon="8.19758">
        <ele>844.66</ele>
        <time>2012-08-04T14:48:46Z</time>
      </trkpt>
      <trkpt lat="46.12436" lon="8.19767">
        <ele>845.14</ele>
        <time>2012-08-04T14:48:48Z</time>
      </trkpt>
      <trkpt lat="46.12434" lon="8.19775">
        <ele>846.1</ele>
        <time>2012-08-04T14:48:49Z</time>
      </trkpt>
      <trkpt lat="46.12429" lon="8.19781">
        <ele>847.06</ele>
        <time>2012-08-04T14:48:50Z</time>
      </trkpt>
      <trkpt lat="46.12422" lon="8.19787">
        <ele>848.02</ele>
        <time>2012-08-04T14:48:51Z</time>
      </trkpt>
      <trkpt lat="46.12416" lon="8.19796">
        <ele>848.98</ele>
        <time>2012-08-04T14:48:52Z</time>
      </trkpt>
      <trkpt lat="46.1241" lon="8.19806">
        <ele>848.98</ele>
        <time>2012-08-04T14:48:53Z</time>
      </trkpt>
      <trkpt lat="46.12407" lon="8.19816">
        <ele>849.94</ele>
        <time>2012-08-04T14:48:54Z</time>
      </trkpt>
      <trkpt lat="46.12408" lon="8.19828">
        <ele>850.42</ele>
        <time>2012-08-04T14:48:55Z</time>
      </trkpt>
      <trkpt lat="46.12411" lon="8.19839">
        <ele>850.9</ele>
        <time>2012-08-04T14:48:56Z</time>
      </trkpt>
      <trkpt lat="46.12418" lon="8.1985">
        <ele>851.87</ele>
        <time>2012-08-04T14:48:57Z</time>
      </trkpt>
      <trkpt lat="46.12422" lon="8.19855">
        <ele>852.83</ele>
        <time>2012-08-04T14:48:58Z</time>
      </trkpt>
      <trkpt lat="46.12463" lon="8.19907">
        <ele>855.71</ele>
        <time>2012-08-04T14:49:02Z</time>
      </trkpt>
      <trkpt lat="46.1248" lon="8.1993">
        <ele>857.15</ele>
        <time>2012-08-04T14:49:04Z</time>
      </trkpt>
      <trkpt lat="46.12515" lon="8.19989">
        <ele>859.56</ele>
        <time>2012-08-04T14:49:09Z</time>
      </trkpt>
      <trkpt lat="46.12524" lon="8.2001">
        <ele>861</ele>
        <time>2012-08-04T14:49:11Z</time>
      </trkpt>
      <trkpt lat="46.12527" lon="8.20017">
        <ele>861.48</ele>
        <time>2012-08-04T14:49:12Z</time>
      </trkpt>
      <trkpt lat="46.12529" lon="8.20024">
        <ele>862.92</ele>
        <time>2012-08-04T14:49:13Z</time>
      </trkpt>
      <trkpt lat="46.12529" lon="8.20031">
        <ele>863.88</ele>
        <time>2012-08-04T14:49:14Z</time>
      </trkpt>
      <trkpt lat="46.12527" lon="8.20039">
        <ele>864.36</ele>
        <time>2012-08-04T14:49:15Z</time>
      </trkpt>
      <trkpt lat="46.12519" lon="8.20058">
        <ele>865.32</ele>
        <time>2012-08-04T14:49:17Z</time>
      </trkpt>
      <trkpt lat="46.12507" lon="8.20085">
        <ele>866.29</ele>
        <time>2012-08-04T14:49:20Z</time>
      </trkpt>
      <trkpt lat="46.125" lon="8.20109">
        <ele>869.65</ele>
        <time>2012-08-04T14:49:22Z</time>
      </trkpt>
      <trkpt lat="46.12495" lon="8.20126">
        <ele>871.09</ele>
        <time>2012-08-04T14:49:24Z</time>
      </trkpt>
      <trkpt lat="46.12493" lon="8.20166">
        <ele>872.53</ele>
        <time>2012-08-04T14:49:28Z</time>
      </trkpt>
      <trkpt lat="46.12503" lon="8.20171">
        <ele>873.01</ele>
        <time>2012-08-04T14:49:29Z</time>
      </trkpt>
      <trkpt lat="46.12512" lon="8.20174">
        <ele>872.53</ele>
        <time>2012-08-04T14:49:30Z</time>
      </trkpt>
      <trkpt lat="46.1252" lon="8.20171">
        <ele>873.5</ele>
        <time>2012-08-04T14:49:31Z</time>
      </trkpt>
      <trkpt lat="46.12526" lon="8.20163">
        <ele>873.5</ele>
        <time>2012-08-04T14:49:32Z</time>
      </trkpt>
      <trkpt lat="46.12529" lon="8.20154">
        <ele>873.98</ele>
        <time>2012-08-04T14:49:33Z</time>
      </trkpt>
      <trkpt lat="46.12533" lon="8.2014">
        <ele>876.38</ele>
        <time>2012-08-04T14:49:35Z</time>
      </trkpt>
      <trkpt lat="46.12535" lon="8.20131">
        <ele>877.34</ele>
        <time>2012-08-04T14:49:36Z</time>
      </trkpt>
      <trkpt lat="46.12545" lon="8.20121">
        <ele>879.26</ele>
        <time>2012-08-04T14:49:37Z</time>
      </trkpt>
      <trkpt lat="46.12547" lon="8.20108">
        <ele>880.22</ele>
        <time>2012-08-04T14:49:38Z</time>
      </trkpt>
      <trkpt lat="46.12543" lon="8.20097">
        <ele>880.71</ele>
        <time>2012-08-04T14:49:39Z</time>
      </trkpt>
      <trkpt lat="46.12541" lon="8.20086">
        <ele>880.71</ele>
        <time>2012-08-04T14:49:40Z</time>
      </trkpt>
      <trkpt lat="46.1254" lon="8.20076">
        <ele>880.71</ele>
        <time>2012-08-04T14:49:41Z</time>
      </trkpt>
      <trkpt lat="46.1254" lon="8.20068">
        <ele>882.15</ele>
        <time>2012-08-04T14:49:42Z</time>
      </trkpt>
      <trkpt lat="46.12541" lon="8.20053">
        <ele>884.55</ele>
        <time>2012-08-04T14:49:44Z</time>
      </trkpt>
      <trkpt lat="46.12543" lon="8.20032">
        <ele>886.95</ele>
        <time>2012-08-04T14:49:46Z</time>
      </trkpt>
      <trkpt lat="46.12543" lon="8.2002">
        <ele>888.4</ele>
        <time>2012-08-04T14:49:47Z</time>
      </trkpt>
      <trkpt lat="46.12549" lon="8.19992">
        <ele>889.84</ele>
        <time>2012-08-04T14:49:49Z</time>
      </trkpt>
      <trkpt lat="46.12553" lon="8.19976">
        <ele>891.28</ele>
        <time>2012-08-04T14:49:50Z</time>
      </trkpt>
      <trkpt lat="46.12552" lon="8.19947">
        <ele>893.68</ele>
        <time>2012-08-04T14:49:52Z</time>
      </trkpt>
      <trkpt lat="46.12563" lon="8.19914">
        <ele>896.57</ele>
        <time>2012-08-04T14:49:54Z</time>
      </trkpt>
      <trkpt lat="46.12568" lon="8.19898">
        <ele>897.53</ele>
        <time>2012-08-04T14:49:55Z</time>
      </trkpt>
      <trkpt lat="46.1257" lon="8.1988">
        <ele>898.01</ele>
        <time>2012-08-04T14:49:56Z</time>
      </trkpt>
      <trkpt lat="46.12569" lon="8.19863">
        <ele>898.97</ele>
        <time>2012-08-04T14:49:57Z</time>
      </trkpt>
      <trkpt lat="46.12567" lon="8.19848">
        <ele>899.93</ele>
        <time>2012-08-04T14:49:58Z</time>
      </trkpt>
      <trkpt lat="46.12563" lon="8.19833">
        <ele>900.89</ele>
        <time>2012-08-04T14:49:59Z</time>
      </trkpt>
      <trkpt lat="46.12559" lon="8.19822">
        <ele>901.37</ele>
        <time>2012-08-04T14:50:00Z</time>
      </trkpt>
      <trkpt lat="46.12556" lon="8.19813">
        <ele>901.85</ele>
        <time>2012-08-04T14:50:01Z</time>
      </trkpt>
      <trkpt lat="46.12556" lon="8.19806">
        <ele>901.85</ele>
        <time>2012-08-04T14:50:02Z</time>
      </trkpt>
      <trkpt lat="46.12559" lon="8.19799">
        <ele>902.33</ele>
        <time>2012-08-04T14:50:03Z</time>
      </trkpt>
      <trkpt lat="46.12565" lon="8.19792">
        <ele>903.3</ele>
        <time>2012-08-04T14:50:04Z</time>
      </trkpt>
      <trkpt lat="46.12572" lon="8.19787">
        <ele>904.26</ele>
        <time>2012-08-04T14:50:05Z</time>
      </trkpt>
      <trkpt lat="46.12578" lon="8.1978">
        <ele>905.7</ele>
        <time>2012-08-04T14:50:06Z</time>
      </trkpt>
      <trkpt lat="46.12592" lon="8.19763">
        <ele>907.14</ele>
        <time>2012-08-04T14:50:08Z</time>
      </trkpt>
      <trkpt lat="46.12598" lon="8.19753">
        <ele>908.1</ele>
        <time>2012-08-04T14:50:09Z</time>
      </trkpt>
      <trkpt lat="46.12602" lon="8.1974">
        <ele>909.54</ele>
        <time>2012-08-04T14:50:10Z</time>
      </trkpt>
      <trkpt lat="46.12606" lon="8.19725">
        <ele>910.03</ele>
        <time>2012-08-04T14:50:11Z</time>
      </trkpt>
      <trkpt lat="46.1261" lon="8.19707">
        <ele>910.99</ele>
        <time>2012-08-04T14:50:12Z</time>
      </trkpt>
      <trkpt lat="46.12615" lon="8.1969">
        <ele>912.43</ele>
        <time>2012-08-04T14:50:13Z</time>
      </trkpt>
      <trkpt lat="46.12628" lon="8.19661">
        <ele>912.91</ele>
        <time>2012-08-04T14:50:15Z</time>
      </trkpt>
      <trkpt lat="46.12635" lon="8.19634">
        <ele>913.87</ele>
        <time>2012-08-04T14:50:17Z</time>
      </trkpt>
      <trkpt lat="46.12636" lon="8.19609">
        <ele>914.35</ele>
        <time>2012-08-04T14:50:19Z</time>
      </trkpt>
      <trkpt lat="46.12637" lon="8.196">
        <ele>914.83</ele>
        <time>2012-08-04T14:50:20Z</time>
      </trkpt>
      <trkpt lat="46.12637" lon="8.19594">
        <ele>915.31</ele>
        <time>2012-08-04T14:50:21Z</time>
      </trkpt>
      <trkpt lat="46.12639" lon="8.19592">
        <ele>915.31</ele>
        <time>2012-08-04T14:50:22Z</time>
      </trkpt>
      <trkpt lat="46.1264" lon="8.19597">
        <ele>916.27</ele>
        <time>2012-08-04T14:50:24Z</time>
      </trkpt>
      <trkpt lat="46.12637" lon="8.19601">
        <ele>917.72</ele>
        <time>2012-08-04T14:50:25Z</time>
      </trkpt>
      <trkpt lat="46.12629" lon="8.19611">
        <ele>921.08</ele>
        <time>2012-08-04T14:50:27Z</time>
      </trkpt>
      <trkpt lat="46.12623" lon="8.1962">
        <ele>921.56</ele>
        <time>2012-08-04T14:50:28Z</time>
      </trkpt>
      <trkpt lat="46.12618" lon="8.19631">
        <ele>923</ele>
        <time>2012-08-04T14:50:29Z</time>
      </trkpt>
      <trkpt lat="46.12614" lon="8.19645">
        <ele>923.96</ele>
        <time>2012-08-04T14:50:30Z</time>
      </trkpt>
      <trkpt lat="46.12604" lon="8.19681">
        <ele>927.33</ele>
        <time>2012-08-04T14:50:33Z</time>
      </trkpt>
      <trkpt lat="46.12599" lon="8.19705">
        <ele>928.77</ele>
        <time>2012-08-04T14:50:34Z</time>
      </trkpt>
      <trkpt lat="46.12598" lon="8.1972">
        <ele>926.85</ele>
        <time>2012-08-04T14:50:35Z</time>
      </trkpt>
      <trkpt lat="46.12599" lon="8.19729">
        <ele>929.73</ele>
        <time>2012-08-04T14:50:36Z</time>
      </trkpt>
      <trkpt lat="46.12614" lon="8.19801">
        <ele>931.65</ele>
        <time>2012-08-04T14:50:39Z</time>
      </trkpt>
      <trkpt lat="46.12627" lon="8.19852">
        <ele>934.06</ele>
        <time>2012-08-04T14:50:42Z</time>
      </trkpt>
      <trkpt lat="46.12633" lon="8.19867">
        <ele>935.02</ele>
        <time>2012-08-04T14:50:43Z</time>
      </trkpt>
      <trkpt lat="46.12662" lon="8.1995">
        <ele>937.42</ele>
        <time>2012-08-04T14:50:49Z</time>
      </trkpt>
      <trkpt lat="46.12667" lon="8.19961">
        <ele>937.9</ele>
        <time>2012-08-04T14:50:50Z</time>
      </trkpt>
      <trkpt lat="46.12675" lon="8.19973">
        <ele>937.9</ele>
        <time>2012-08-04T14:50:51Z</time>
      </trkpt>
      <trkpt lat="46.12687" lon="8.19988">
        <ele>938.38</ele>
        <time>2012-08-04T14:50:52Z</time>
      </trkpt>
      <trkpt lat="46.12728" lon="8.20033">
        <ele>939.83</ele>
        <time>2012-08-04T14:50:56Z</time>
      </trkpt>
      <trkpt lat="46.12734" lon="8.20042">
        <ele>939.83</ele>
        <time>2012-08-04T14:50:57Z</time>
      </trkpt>
      <trkpt lat="46.1274" lon="8.20053">
        <ele>940.31</ele>
        <time>2012-08-04T14:51:02Z</time>
      </trkpt>
      <trkpt lat="46.12745" lon="8.20059">
        <ele>940.79</ele>
        <time>2012-08-04T14:51:03Z</time>
      </trkpt>
      <trkpt lat="46.12749" lon="8.20065">
        <ele>940.79</ele>
        <time>2012-08-04T14:51:04Z</time>
      </trkpt>
      <trkpt lat="46.12769" lon="8.20097">
        <ele>942.71</ele>
        <time>2012-08-04T14:51:08Z</time>
      </trkpt>
      <trkpt lat="46.12776" lon="8.20101">
        <ele>943.19</ele>
        <time>2012-08-04T14:51:09Z</time>
      </trkpt>
      <trkpt lat="46.12783" lon="8.20101">
        <ele>943.19</ele>
        <time>2012-08-04T14:51:10Z</time>
      </trkpt>
      <trkpt lat="46.12789" lon="8.20096">
        <ele>943.19</ele>
        <time>2012-08-04T14:51:11Z</time>
      </trkpt>
      <trkpt lat="46.12793" lon="8.20089">
        <ele>944.15</ele>
        <time>2012-08-04T14:51:12Z</time>
      </trkpt>
      <trkpt lat="46.12793" lon="8.20079">
        <ele>945.11</ele>
        <time>2012-08-04T14:51:13Z</time>
      </trkpt>
      <trkpt lat="46.1279" lon="8.20069">
        <ele>946.07</ele>
        <time>2012-08-04T14:51:14Z</time>
      </trkpt>
      <trkpt lat="46.12785" lon="8.20059">
        <ele>947.04</ele>
        <time>2012-08-04T14:51:15Z</time>
      </trkpt>
      <trkpt lat="46.1278" lon="8.20048">
        <ele>948</ele>
        <time>2012-08-04T14:51:16Z</time>
      </trkpt>
      <trkpt lat="46.12776" lon="8.20036">
        <ele>949.44</ele>
        <time>2012-08-04T14:51:17Z</time>
      </trkpt>
      <trkpt lat="46.12761" lon="8.19994">
        <ele>952.8</ele>
        <time>2012-08-04T14:51:20Z</time>
      </trkpt>
      <trkpt lat="46.12748" lon="8.1997">
        <ele>953.28</ele>
        <time>2012-08-04T14:51:22Z</time>
      </trkpt>
      <trkpt lat="46.12742" lon="8.19959">
        <ele>953.77</ele>
        <time>2012-08-04T14:51:23Z</time>
      </trkpt>
      <trkpt lat="46.12738" lon="8.19949">
        <ele>955.21</ele>
        <time>2012-08-04T14:51:24Z</time>
      </trkpt>
      <trkpt lat="46.12736" lon="8.19937">
        <ele>955.21</ele>
        <time>2012-08-04T14:51:25Z</time>
      </trkpt>
      <trkpt lat="46.12736" lon="8.19924">
        <ele>955.21</ele>
        <time>2012-08-04T14:51:26Z</time>
      </trkpt>
      <trkpt lat="46.12736" lon="8.19911">
        <ele>956.17</ele>
        <time>2012-08-04T14:51:27Z</time>
      </trkpt>
      <trkpt lat="46.12742" lon="8.19848">
        <ele>958.09</ele>
        <time>2012-08-04T14:51:31Z</time>
      </trkpt>
      <trkpt lat="46.1274" lon="8.19815">
        <ele>959.53</ele>
        <time>2012-08-04T14:51:33Z</time>
      </trkpt>
      <trkpt lat="46.12737" lon="8.19801">
        <ele>960.01</ele>
        <time>2012-08-04T14:51:34Z</time>
      </trkpt>
      <trkpt lat="46.12733" lon="8.19789">
        <ele>960.01</ele>
        <time>2012-08-04T14:51:35Z</time>
      </trkpt>
      <trkpt lat="46.12729" lon="8.1978">
        <ele>960.01</ele>
        <time>2012-08-04T14:51:36Z</time>
      </trkpt>
      <trkpt lat="46.12727" lon="8.19772">
        <ele>960.49</ele>
        <time>2012-08-04T14:51:37Z</time>
      </trkpt>
      <trkpt lat="46.12737" lon="8.19764">
        <ele>961.46</ele>
        <time>2012-08-04T14:51:40Z</time>
      </trkpt>
      <trkpt lat="46.12742" lon="8.19769">
        <ele>961.46</ele>
        <time>2012-08-04T14:51:41Z</time>
      </trkpt>
      <trkpt lat="46.12746" lon="8.19778">
        <ele>962.42</ele>
        <time>2012-08-04T14:51:42Z</time>
      </trkpt>
      <trkpt lat="46.12757" lon="8.19805">
        <ele>965.78</ele>
        <time>2012-08-04T14:51:45Z</time>
      </trkpt>
      <trkpt lat="46.12776" lon="8.19852">
        <ele>969.15</ele>
        <time>2012-08-04T14:51:48Z</time>
      </trkpt>
      <trkpt lat="46.12792" lon="8.19889">
        <ele>972.03</ele>
        <time>2012-08-04T14:51:51Z</time>
      </trkpt>
      <trkpt lat="46.12813" lon="8.19923">
        <ele>975.39</ele>
        <time>2012-08-04T14:51:55Z</time>
      </trkpt>
      <trkpt lat="46.12822" lon="8.19935">
        <ele>976.36</ele>
        <time>2012-08-04T14:51:56Z</time>
      </trkpt>
      <trkpt lat="46.12839" lon="8.1995">
        <ele>978.28</ele>
        <time>2012-08-04T14:51:58Z</time>
      </trkpt>
      <trkpt lat="46.12848" lon="8.19954">
        <ele>979.24</ele>
        <time>2012-08-04T14:51:59Z</time>
      </trkpt>
      <trkpt lat="46.12858" lon="8.19956">
        <ele>980.2</ele>
        <time>2012-08-04T14:52:00Z</time>
      </trkpt>
      <trkpt lat="46.12868" lon="8.19955">
        <ele>981.64</ele>
        <time>2012-08-04T14:52:01Z</time>
      </trkpt>
      <trkpt lat="46.12878" lon="8.19952">
        <ele>982.6</ele>
        <time>2012-08-04T14:52:02Z</time>
      </trkpt>
      <trkpt lat="46.12888" lon="8.19949">
        <ele>984.05</ele>
        <time>2012-08-04T14:52:03Z</time>
      </trkpt>
      <trkpt lat="46.12898" lon="8.19944">
        <ele>985.01</ele>
        <time>2012-08-04T14:52:04Z</time>
      </trkpt>
      <trkpt lat="46.12908" lon="8.19939">
        <ele>986.45</ele>
        <time>2012-08-04T14:52:05Z</time>
      </trkpt>
      <trkpt lat="46.12918" lon="8.19936">
        <ele>987.41</ele>
        <time>2012-08-04T14:52:06Z</time>
      </trkpt>
      <trkpt lat="46.12927" lon="8.19936">
        <ele>988.37</ele>
        <time>2012-08-04T14:52:07Z</time>
      </trkpt>
      <trkpt lat="46.12935" lon="8.19938">
        <ele>987.89</ele>
        <time>2012-08-04T14:52:08Z</time>
      </trkpt>
      <trkpt lat="46.12947" lon="8.19943">
        <ele>988.37</ele>
        <time>2012-08-04T14:52:10Z</time>
      </trkpt>
      <trkpt lat="46.12951" lon="8.19941">
        <ele>988.37</ele>
        <time>2012-08-04T14:52:11Z</time>
      </trkpt>
      <trkpt lat="46.12954" lon="8.19936">
        <ele>988.85</ele>
        <time>2012-08-04T14:52:12Z</time>
      </trkpt>
      <trkpt lat="46.12954" lon="8.19929">
        <ele>988.85</ele>
        <time>2012-08-04T14:52:13Z</time>
      </trkpt>
      <trkpt lat="46.12952" lon="8.19922">
        <ele>988.85</ele>
        <time>2012-08-04T14:52:14Z</time>
      </trkpt>
      <trkpt lat="46.1295" lon="8.19916">
        <ele>989.81</ele>
        <time>2012-08-04T14:52:15Z</time>
      </trkpt>
      <trkpt lat="46.12946" lon="8.1991">
        <ele>990.3</ele>
        <time>2012-08-04T14:52:16Z</time>
      </trkpt>
      <trkpt lat="46.12943" lon="8.19904">
        <ele>991.74</ele>
        <time>2012-08-04T14:52:17Z</time>
      </trkpt>
      <trkpt lat="46.12937" lon="8.19898">
        <ele>993.66</ele>
        <time>2012-08-04T14:52:18Z</time>
      </trkpt>
      <trkpt lat="46.12929" lon="8.19894">
        <ele>994.14</ele>
        <time>2012-08-04T14:52:19Z</time>
      </trkpt>
      <trkpt lat="46.12914" lon="8.19883">
        <ele>995.58</ele>
        <time>2012-08-04T14:52:21Z</time>
      </trkpt>
      <trkpt lat="46.1291" lon="8.19875">
        <ele>995.58</ele>
        <time>2012-08-04T14:52:22Z</time>
      </trkpt>
      <trkpt lat="46.12905" lon="8.1987">
        <ele>996.06</ele>
        <time>2012-08-04T14:52:23Z</time>
      </trkpt>
      <trkpt lat="46.129" lon="8.19864">
        <ele>995.58</ele>
        <time>2012-08-04T14:52:24Z</time>
      </trkpt>
      <trkpt lat="46.12896" lon="8.19858">
        <ele>996.54</ele>
        <time>2012-08-04T14:52:25Z</time>
      </trkpt>
      <trkpt lat="46.12873" lon="8.19821">
        <ele>1000.39</ele>
        <time>2012-08-04T14:52:32Z</time>
      </trkpt>
      <trkpt lat="46.1287" lon="8.19816">
        <ele>1000.39</ele>
        <time>2012-08-04T14:52:33Z</time>
      </trkpt>
      <trkpt lat="46.12861" lon="8.198">
        <ele>1001.35</ele>
        <time>2012-08-04T14:52:36Z</time>
      </trkpt>
      <trkpt lat="46.12857" lon="8.19795">
        <ele>1002.31</ele>
        <time>2012-08-04T14:52:37Z</time>
      </trkpt>
      <trkpt lat="46.12851" lon="8.19787">
        <ele>1002.79</ele>
        <time>2012-08-04T14:52:39Z</time>
      </trkpt>
      <trkpt lat="46.12847" lon="8.19781">
        <ele>1003.27</ele>
        <time>2012-08-04T14:52:40Z</time>
      </trkpt>
      <trkpt lat="46.12846" lon="8.19774">
        <ele>1002.79</ele>
        <time>2012-08-04T14:52:41Z</time>
      </trkpt>
      <trkpt lat="46.12853" lon="8.19767">
        <ele>1003.27</ele>
        <time>2012-08-04T14:52:45Z</time>
      </trkpt>
      <trkpt lat="46.12856" lon="8.19771">
        <ele>1003.27</ele>
        <time>2012-08-04T14:52:46Z</time>
      </trkpt>
      <trkpt lat="46.1286" lon="8.19774">
        <ele>1004.72</ele>
        <time>2012-08-04T14:52:47Z</time>
      </trkpt>
      <trkpt lat="46.12863" lon="8.19779">
        <ele>1004.72</ele>
        <time>2012-08-04T14:52:48Z</time>
      </trkpt>
      <trkpt lat="46.12876" lon="8.19789">
        <ele>1006.16</ele>
        <time>2012-08-04T14:52:51Z</time>
      </trkpt>
      <trkpt lat="46.12882" lon="8.19792">
        <ele>1007.12</ele>
        <time>2012-08-04T14:52:52Z</time>
      </trkpt>
      <trkpt lat="46.12901" lon="8.19807">
        <ele>1008.56</ele>
        <time>2012-08-04T14:52:56Z</time>
      </trkpt>
      <trkpt lat="46.12913" lon="8.19814">
        <ele>1010</ele>
        <time>2012-08-04T14:52:59Z</time>
      </trkpt>
      <trkpt lat="46.12927" lon="8.1982">
        <ele>1011.44</ele>
        <time>2012-08-04T14:53:02Z</time>
      </trkpt>
      <trkpt lat="46.12964" lon="8.19836">
        <ele>1015.29</ele>
        <time>2012-08-04T14:53:08Z</time>
      </trkpt>
      <trkpt lat="46.12977" lon="8.19841">
        <ele>1015.77</ele>
        <time>2012-08-04T14:53:10Z</time>
      </trkpt>
      <trkpt lat="46.12996" lon="8.19848">
        <ele>1017.69</ele>
        <time>2012-08-04T14:53:13Z</time>
      </trkpt>
      <trkpt lat="46.12998" lon="8.19851">
        <ele>1017.69</ele>
        <time>2012-08-04T14:53:14Z</time>
      </trkpt>
      <trkpt lat="46.13001" lon="8.19852">
        <ele>1017.69</ele>
        <time>2012-08-04T14:53:15Z</time>
      </trkpt>
      <trkpt lat="46.13003" lon="8.19849">
        <ele>1017.69</ele>
        <time>2012-08-04T14:53:16Z</time>
      </trkpt>
      <trkpt lat="46.13005" lon="8.19844">
        <ele>1018.17</ele>
        <time>2012-08-04T14:53:17Z</time>
      </trkpt>
      <trkpt lat="46.13005" lon="8.19839">
        <ele>1018.65</ele>
        <time>2012-08-04T14:53:18Z</time>
      </trkpt>
      <trkpt lat="46.13002" lon="8.19834">
        <ele>1019.13</ele>
        <time>2012-08-04T14:53:19Z</time>
      </trkpt>
      <trkpt lat="46.12998" lon="8.19829">
        <ele>1018.65</ele>
        <time>2012-08-04T14:53:20Z</time>
      </trkpt>
      <trkpt lat="46.12959" lon="8.19803">
        <ele>1021.06</ele>
        <time>2012-08-04T14:53:30Z</time>
      </trkpt>
      <trkpt lat="46.12959" lon="8.19801">
        <ele>1020.58</ele>
        <time>2012-08-04T14:53:42Z</time>
      </trkpt>
      <trkpt lat="46.12948" lon="8.19795">
        <ele>1020.58</ele>
        <time>2012-08-04T14:53:46Z</time>
      </trkpt>
      <trkpt lat="46.12945" lon="8.19795">
        <ele>1021.54</ele>
        <time>2012-08-04T14:53:47Z</time>
      </trkpt>
      <trkpt lat="46.1294" lon="8.19798">
        <ele>1021.06</ele>
        <time>2012-08-04T14:53:49Z</time>
      </trkpt>
      <trkpt lat="46.12938" lon="8.19798">
        <ele>1021.06</ele>
        <time>2012-08-04T14:53:50Z</time>
      </trkpt>
      <trkpt lat="46.12932" lon="8.19803">
        <ele>1020.58</ele>
        <time>2012-08-04T14:54:02Z</time>
      </trkpt>
      <trkpt lat="46.12924" lon="8.19805">
        <ele>1020.58</ele>
        <time>2012-08-04T14:54:33Z</time>
      </trkpt>
      <trkpt lat="46.12923" lon="8.19806">
        <ele>1014.81</ele>
        <time>2012-08-04T14:54:57Z</time>
      </trkpt>
      <trkpt lat="46.12923" lon="8.19806">
        <ele>1019.13</ele>
        <time>2012-08-04T14:54:58Z</time>
      </trkpt>
      <trkpt lat="46.12923" lon="8.19806">
        <ele>1020.1</ele>
        <time>2012-08-04T14:55:00Z</time>
      </trkpt>
      <trkpt lat="46.12923" lon="8.19806">
        <ele>1020.58</ele>
        <time>2012-08-04T14:55:03Z</time>
      </trkpt>
      <trkpt lat="46.12907" lon="8.19778">
        <ele>1024.42</ele>
        <time>2012-08-04T19:35:03Z</time>
      </trkpt>
      <trkpt lat="46.12906" lon="8.19775">
        <ele>1025.38</ele>
        <time>2012-08-04T19:35:05Z</time>
      </trkpt>
      <trkpt lat="46.12914" lon="8.19756">
        <ele>1026.83</ele>
        <time>2012-08-04T19:35:34Z</time>
      </trkpt>
      <trkpt lat="46.12916" lon="8.19757">
        <ele>1025.86</ele>
        <time>2012-08-04T19:36:02Z</time>
      </trkpt>
      <trkpt lat="46.12915" lon="8.19755">
        <ele>1025.38</ele>
        <time>2012-08-04T19:36:03Z</time>
      </trkpt>
      <trkpt lat="46.12922" lon="8.19747">
        <ele>1026.34</ele>
        <time>2012-08-04T19:36:31Z</time>
      </trkpt>
      <trkpt lat="46.12922" lon="8.19739">
        <ele>1025.38</ele>
        <time>2012-08-04T19:36:50Z</time>
      </trkpt>
      <trkpt lat="46.12921" lon="8.19739">
        <ele>1019.62</ele>
        <time>2012-08-04T19:36:53Z</time>
      </trkpt>
      <trkpt lat="46.12921" lon="8.19739">
        <ele>1024.9</ele>
        <time>2012-08-04T19:36:54Z</time>
      </trkpt>
      <trkpt lat="46.12918" lon="8.19739">
        <ele>1026.34</ele>
        <time>2012-08-04T19:36:57Z</time>
      </trkpt>
      <trkpt lat="46.12913" lon="8.19739">
        <ele>1026.34</ele>
        <time>2012-08-04T19:37:20Z</time>
      </trkpt>
      <trkpt lat="46.1291" lon="8.19737">
        <ele>1022.98</ele>
        <time>2012-08-04T19:37:29Z</time>
      </trkpt>
      <trkpt lat="46.12909" lon="8.19736">
        <ele>1026.34</ele>
        <time>2012-08-04T19:37:30Z</time>
      </trkpt>
      <trkpt lat="46.12903" lon="8.19733">
        <ele>1024.9</ele>
        <time>2012-08-04T19:37:45Z</time>
      </trkpt>
      <trkpt lat="46.12903" lon="8.19733">
        <ele>1026.83</ele>
        <time>2012-08-04T19:37:46Z</time>
      </trkpt>
      <trkpt lat="46.12903" lon="8.19733">
        <ele>1022.5</ele>
        <time>2012-08-04T19:37:47Z</time>
      </trkpt>
      <trkpt lat="46.12902" lon="8.19733">
        <ele>1026.34</ele>
        <time>2012-08-04T19:37:48Z</time>
      </trkpt>
      <trkpt lat="46.12902" lon="8.19733">
        <ele>1023.46</ele>
        <time>2012-08-04T19:37:49Z</time>
      </trkpt>
      <trkpt lat="46.12902" lon="8.19733">
        <ele>1026.83</ele>
        <time>2012-08-04T19:37:50Z</time>
      </trkpt>
      <trkpt lat="46.12898" lon="8.19734">
        <ele>1022.5</ele>
        <time>2012-08-04T19:38:03Z</time>
      </trkpt>
      <trkpt lat="46.12905" lon="8.19733">
        <ele>1025.38</ele>
        <time>2012-08-04T19:38:08Z</time>
      </trkpt>
      <trkpt lat="46.12908" lon="8.19741">
        <ele>1026.34</ele>
        <time>2012-08-04T19:38:28Z</time>
      </trkpt>
    </trkseg>
  </trk>
</gpx>